<?xml version='1.0' encoding='UTF-8'?><gpx version="1.1" creator="JPX - https://github.com/jenetics/jpx" xmlns="http://www.topografix.com/GPX/1/1"><trk><trkseg><trkpt lat="45.799997110248974" lon="15.985533418660868"><ele>119.0</ele><time>2026-05-05T06:30:37Z</time></trkpt><trkpt lat="45.80002621703285" lon="15.98538837439508"><ele>119.0</ele><time>2026-05-05T06:36:14Z</time></trkpt><trkpt lat="45.79995669836953" lon="15.985416604400944"><ele>119.0</ele><time>2026-05-05T06:38:42Z</time></trkpt><trkpt lat="45.79980197267679" lon="15.985511008080042"><ele>119.0</ele><time>2026-05-05T06:41:24Z</time></trkpt><trkpt lat="45.79974421028194" lon="15.985576828497157"><ele>119.0</ele><time>2026-05-05T06:41:25Z</time></trkpt><trkpt lat="45.799669897459175" lon="15.98565245340297"><ele>119.0</ele><time>2026-05-05T06:41:26Z</time></trkpt><trkpt lat="45.799602763239726" lon="15.985704792993156"><ele>119.0</ele><time>2026-05-05T06:41:27Z</time></trkpt><trkpt lat="45.799539393186706" lon="15.985751953235214"><ele>119.0</ele><time>2026-05-05T06:41:28Z</time></trkpt><trkpt lat="45.79947579601312" lon="15.985806923741322"><ele>119.0</ele><time>2026-05-05T06:41:29Z</time></trkpt><trkpt lat="45.79941781958541" lon="15.985857884757763"><ele>119.0</ele><time>2026-05-05T06:41:30Z</time></trkpt><trkpt lat="45.799355378455765" lon="15.985917356551166"><ele>119.0</ele><time>2026-05-05T06:41:31Z</time></trkpt><trkpt lat="45.79928554298006" lon="15.985982500188946"><ele>119.0</ele><time>2026-05-05T06:41:32Z</time></trkpt><trkpt lat="45.799216658228865" lon="15.98603572771003"><ele>118.49999999999999</ele><time>2026-05-05T06:41:33Z</time></trkpt><trkpt lat="45.79914922204768" lon="15.986073719868656"><ele>118.0</ele><time>2026-05-05T06:41:34Z</time></trkpt><trkpt lat="45.79907630808829" lon="15.986090061560061"><ele>117.5</ele><time>2026-05-05T06:41:35Z</time></trkpt><trkpt lat="45.79900601799722" lon="15.986089237789589"><ele>117.0</ele><time>2026-05-05T06:41:36Z</time></trkpt><trkpt lat="45.798940338642225" lon="15.986092366685872"><ele>116.49999999999999</ele><time>2026-05-05T06:41:37Z</time></trkpt><trkpt lat="45.798876853154276" lon="15.986096237477197"><ele>116.0</ele><time>2026-05-05T06:41:38Z</time></trkpt><trkpt lat="45.79875616169817" lon="15.986107992777523"><ele>116.0</ele><time>2026-05-05T06:41:40Z</time></trkpt><trkpt lat="45.79864153736515" lon="15.986113829085653"><ele>116.0</ele><time>2026-05-05T06:41:42Z</time></trkpt><trkpt lat="45.79854639279561" lon="15.986116238533521"><ele>116.0</ele><time>2026-05-05T06:41:44Z</time></trkpt><trkpt lat="45.79846502844925" lon="15.98612511368318"><ele>116.0</ele><time>2026-05-05T06:41:46Z</time></trkpt><trkpt lat="45.79838613818846" lon="15.986179721939786"><ele>116.0</ele><time>2026-05-05T06:41:48Z</time></trkpt><trkpt lat="45.79832424764752" lon="15.986241037299758"><ele>115.8</ele><time>2026-05-05T06:41:50Z</time></trkpt><trkpt lat="45.798368462880525" lon="15.986402576027915"><ele>115.6</ele><time>2026-05-05T06:41:51Z</time></trkpt><trkpt lat="45.79837797743243" lon="15.986569082393814"><ele>115.4</ele><time>2026-05-05T06:41:53Z</time></trkpt><trkpt lat="45.7983897103071" lon="15.986750463238728"><ele>115.2</ele><time>2026-05-05T06:41:55Z</time></trkpt><trkpt lat="45.798387016542456" lon="15.986850020516382"><ele>115.0</ele><time>2026-05-05T06:41:56Z</time></trkpt><trkpt lat="45.79839352707371" lon="15.986944142980962"><ele>114.8</ele><time>2026-05-05T06:41:57Z</time></trkpt><trkpt lat="45.798397974666074" lon="15.987041497789882"><ele>114.6</ele><time>2026-05-05T06:41:58Z</time></trkpt><trkpt lat="45.79840225550781" lon="15.987134230681644"><ele>114.4</ele><time>2026-05-05T06:41:59Z</time></trkpt><trkpt lat="45.79840590020853" lon="15.98729760796285"><ele>114.2</ele><time>2026-05-05T06:42:01Z</time></trkpt><trkpt lat="45.79839802589272" lon="15.987461797756108"><ele>114.0</ele><time>2026-05-05T06:42:03Z</time></trkpt><trkpt lat="45.79834989313769" lon="15.987631601540686"><ele>113.66666666666667</ele><time>2026-05-05T06:42:05Z</time></trkpt><trkpt lat="45.79830438282158" lon="15.98770731014247"><ele>113.33333333333334</ele><time>2026-05-05T06:42:06Z</time></trkpt><trkpt lat="45.79825746319589" lon="15.98778868891199"><ele>113.0</ele><time>2026-05-05T06:42:07Z</time></trkpt><trkpt lat="45.79820069522828" lon="15.987878071660427"><ele>112.66666666666667</ele><time>2026-05-05T06:42:08Z</time></trkpt><trkpt lat="45.79814768761783" lon="15.987967025611693"><ele>112.33333333333334</ele><time>2026-05-05T06:42:09Z</time></trkpt><trkpt lat="45.798093915366536" lon="15.988055555330869"><ele>112.0</ele><time>2026-05-05T06:42:10Z</time></trkpt><trkpt lat="45.79804350063003" lon="15.988136899635315"><ele>112.0</ele><time>2026-05-05T06:42:11Z</time></trkpt><trkpt lat="45.797994874797695" lon="15.988209635984534"><ele>111.99999999999999</ele><time>2026-05-05T06:42:12Z</time></trkpt><trkpt lat="45.79791044059418" lon="15.988326660792541"><ele>111.99999999999999</ele><time>2026-05-05T06:42:14Z</time></trkpt><trkpt lat="45.79785160650882" lon="15.988414849555488"><ele>112.0</ele><time>2026-05-05T06:42:16Z</time></trkpt><trkpt lat="45.79779332419285" lon="15.988497824862518"><ele>112.0</ele><time>2026-05-05T06:42:18Z</time></trkpt><trkpt lat="45.79770979885593" lon="15.98860112594569"><ele>112.19999999999999</ele><time>2026-05-05T06:42:20Z</time></trkpt><trkpt lat="45.79761852371382" lon="15.988714042790958"><ele>112.39999999999999</ele><time>2026-05-05T06:42:22Z</time></trkpt><trkpt lat="45.79751727636902" lon="15.988831018622559"><ele>112.60000000000001</ele><time>2026-05-05T06:42:24Z</time></trkpt><trkpt lat="45.79746390203224" lon="15.988894652685987"><ele>112.80000000000001</ele><time>2026-05-05T06:42:25Z</time></trkpt><trkpt lat="45.79740819739381" lon="15.988965567947844"><ele>113.0</ele><time>2026-05-05T06:42:26Z</time></trkpt><trkpt lat="45.79734436266697" lon="15.989047375363528"><ele>113.0</ele><time>2026-05-05T06:42:27Z</time></trkpt><trkpt lat="45.797270520438325" lon="15.98914002105816"><ele>113.00000000000001</ele><time>2026-05-05T06:42:28Z</time></trkpt><trkpt lat="45.79718835415073" lon="15.989229784466799"><ele>113.00000000000001</ele><time>2026-05-05T06:42:29Z</time></trkpt><trkpt lat="45.797104518430714" lon="15.989315934623352"><ele>113.0</ele><time>2026-05-05T06:42:30Z</time></trkpt><trkpt lat="45.797019553699954" lon="15.9893962038737"><ele>113.0</ele><time>2026-05-05T06:42:31Z</time></trkpt><trkpt lat="45.79692545757156" lon="15.989466905520086"><ele>113.0</ele><time>2026-05-05T06:42:32Z</time></trkpt><trkpt lat="45.796834130805465" lon="15.989535096761745"><ele>113.00000000000001</ele><time>2026-05-05T06:42:33Z</time></trkpt><trkpt lat="45.796744045527525" lon="15.989600516515882"><ele>113.00000000000001</ele><time>2026-05-05T06:42:34Z</time></trkpt><trkpt lat="45.796661689017654" lon="15.98966536464921"><ele>113.0</ele><time>2026-05-05T06:42:35Z</time></trkpt><trkpt lat="45.79658327150844" lon="15.989723687007078"><ele>113.0</ele><time>2026-05-05T06:42:36Z</time></trkpt><trkpt lat="45.79651127956559" lon="15.989772043611467"><ele>112.99999999999999</ele><time>2026-05-05T06:42:37Z</time></trkpt><trkpt lat="45.79644981347357" lon="15.989818413130864"><ele>113.0</ele><time>2026-05-05T06:42:38Z</time></trkpt><trkpt lat="45.796390297577744" lon="15.989858264671504"><ele>113.0</ele><time>2026-05-05T06:42:39Z</time></trkpt><trkpt lat="45.796304454868235" lon="15.9899224523778"><ele>113.0</ele><time>2026-05-05T06:42:41Z</time></trkpt><trkpt lat="45.79624121486431" lon="15.989983753761432"><ele>112.99999999999999</ele><time>2026-05-05T06:42:44Z</time></trkpt><trkpt lat="45.796185164181296" lon="15.990066647626797"><ele>113.0</ele><time>2026-05-05T06:42:47Z</time></trkpt><trkpt lat="45.79612621221667" lon="15.99010816881344"><ele>112.80000000000001</ele><time>2026-05-05T06:42:50Z</time></trkpt><trkpt lat="45.79607623072801" lon="15.990179544210697"><ele>112.60000000000001</ele><time>2026-05-05T06:43:23Z</time></trkpt><trkpt lat="45.79600707071786" lon="15.990252152735362"><ele>112.39999999999999</ele><time>2026-05-05T06:43:25Z</time></trkpt><trkpt lat="45.79592236557279" lon="15.99033400053845"><ele>112.19999999999999</ele><time>2026-05-05T06:43:27Z</time></trkpt><trkpt lat="45.79583285096852" lon="15.990409026798687"><ele>112.0</ele><time>2026-05-05T06:43:29Z</time></trkpt><trkpt lat="45.795734996491426" lon="15.990446923246498"><ele>112.50000000000001</ele><time>2026-05-05T06:43:31Z</time></trkpt><trkpt lat="45.79566685681245" lon="15.990515867142486"><ele>113.0</ele><time>2026-05-05T06:43:33Z</time></trkpt><trkpt lat="45.795581316754145" lon="15.990484593909892"><ele>113.5</ele><time>2026-05-05T06:43:35Z</time></trkpt><trkpt lat="45.79551249509412" lon="15.990451553253909"><ele>114.0</ele><time>2026-05-05T06:43:39Z</time></trkpt><trkpt lat="45.79544927320323" lon="15.990396883481374"><ele>114.50000000000001</ele><time>2026-05-05T06:43:57Z</time></trkpt><trkpt lat="45.79542070829457" lon="15.990230179260774"><ele>115.0</ele><time>2026-05-05T06:43:59Z</time></trkpt><trkpt lat="45.79542041293741" lon="15.990113179905409"><ele>114.8</ele><time>2026-05-05T06:44:00Z</time></trkpt><trkpt lat="45.795417109902694" lon="15.98999066507374"><ele>114.6</ele><time>2026-05-05T06:44:01Z</time></trkpt><trkpt lat="45.79541197472079" lon="15.98985287761388"><ele>114.4</ele><time>2026-05-05T06:44:02Z</time></trkpt><trkpt lat="45.79540305915825" lon="15.989700069157225"><ele>114.2</ele><time>2026-05-05T06:44:03Z</time></trkpt><trkpt lat="45.795393819116065" lon="15.989553089151599"><ele>114.0</ele><time>2026-05-05T06:44:04Z</time></trkpt><trkpt lat="45.79537584991296" lon="15.989402961132042"><ele>114.0</ele><time>2026-05-05T06:44:05Z</time></trkpt><trkpt lat="45.7953679846878" lon="15.98924942719695"><ele>114.0</ele><time>2026-05-05T06:44:06Z</time></trkpt><trkpt lat="45.795357733581966" lon="15.989091798548264"><ele>114.0</ele><time>2026-05-05T06:44:07Z</time></trkpt><trkpt lat="45.7953471269797" lon="15.988922307895221"><ele>114.0</ele><time>2026-05-05T06:44:08Z</time></trkpt><trkpt lat="45.79533523277104" lon="15.988736361564108"><ele>113.75</ele><time>2026-05-05T06:44:09Z</time></trkpt><trkpt lat="45.795323524493696" lon="15.988547776013657"><ele>113.5</ele><time>2026-05-05T06:44:10Z</time></trkpt><trkpt lat="45.79531441575317" lon="15.988359069552692"><ele>113.25</ele><time>2026-05-05T06:44:11Z</time></trkpt><trkpt lat="45.795305398784194" lon="15.988169831608497"><ele>113.0</ele><time>2026-05-05T06:44:12Z</time></trkpt><trkpt lat="45.795297917633" lon="15.98798382969792"><ele>112.75</ele><time>2026-05-05T06:44:13Z</time></trkpt><trkpt lat="45.79528794114446" lon="15.987800707081567"><ele>112.5</ele><time>2026-05-05T06:44:14Z</time></trkpt><trkpt lat="45.79527847405476" lon="15.987613589019663"><ele>112.25</ele><time>2026-05-05T06:44:15Z</time></trkpt><trkpt lat="45.79526748458351" lon="15.987430373715382"><ele>112.0</ele><time>2026-05-05T06:44:16Z</time></trkpt><trkpt lat="45.795257022783595" lon="15.98724799379715"><ele>112.0</ele><time>2026-05-05T06:44:17Z</time></trkpt><trkpt lat="45.7952476795386" lon="15.987061681970491"><ele>112.0</ele><time>2026-05-05T06:44:18Z</time></trkpt><trkpt lat="45.79524007085085" lon="15.986867398535022"><ele>112.0</ele><time>2026-05-05T06:44:19Z</time></trkpt><trkpt lat="45.79523113409432" lon="15.986674925109691"><ele>112.0</ele><time>2026-05-05T06:44:20Z</time></trkpt><trkpt lat="45.79521951270121" lon="15.986488097894933"><ele>112.0</ele><time>2026-05-05T06:44:21Z</time></trkpt><trkpt lat="45.795206953526396" lon="15.986316445824423"><ele>112.0</ele><time>2026-05-05T06:44:22Z</time></trkpt><trkpt lat="45.79519700619134" lon="15.986145835983633"><ele>112.0</ele><time>2026-05-05T06:44:23Z</time></trkpt><trkpt lat="45.79518777374084" lon="15.985969896195229"><ele>112.0</ele><time>2026-05-05T06:44:24Z</time></trkpt><trkpt lat="45.79517951792437" lon="15.985786225220235"><ele>112.25</ele><time>2026-05-05T06:44:25Z</time></trkpt><trkpt lat="45.79516943817531" lon="15.98559451333067"><ele>112.5</ele><time>2026-05-05T06:44:26Z</time></trkpt><trkpt lat="45.7951583413021" lon="15.98540547228862"><ele>112.75</ele><time>2026-05-05T06:44:27Z</time></trkpt><trkpt lat="45.79514674946444" lon="15.985210790417995"><ele>113.0</ele><time>2026-05-05T06:44:28Z</time></trkpt><trkpt lat="45.79513806103959" lon="15.985021814462447"><ele>113.0</ele><time>2026-05-05T06:44:29Z</time></trkpt><trkpt lat="45.7951289024862" lon="15.984840304666825"><ele>113.0</ele><time>2026-05-05T06:44:30Z</time></trkpt><trkpt lat="45.79512127907413" lon="15.984657991294847"><ele>113.0</ele><time>2026-05-05T06:44:31Z</time></trkpt><trkpt lat="45.79511117335268" lon="15.984472722785231"><ele>113.0</ele><time>2026-05-05T06:44:32Z</time></trkpt><trkpt lat="45.79510355311772" lon="15.98429032328346"><ele>112.5</ele><time>2026-05-05T06:44:33Z</time></trkpt><trkpt lat="45.795094568693806" lon="15.98411095871627"><ele>112.0</ele><time>2026-05-05T06:44:34Z</time></trkpt><trkpt lat="45.79508497544792" lon="15.983929868983036"><ele>111.5</ele><time>2026-05-05T06:44:35Z</time></trkpt><trkpt lat="45.79507577426466" lon="15.983745152600925"><ele>111.0</ele><time>2026-05-05T06:44:36Z</time></trkpt><trkpt lat="45.795068644388074" lon="15.983557180606352"><ele>111.0</ele><time>2026-05-05T06:44:37Z</time></trkpt><trkpt lat="45.79506004275735" lon="15.983368306945083"><ele>111.0</ele><time>2026-05-05T06:44:38Z</time></trkpt><trkpt lat="45.79504908117226" lon="15.983183024107639"><ele>111.0</ele><time>2026-05-05T06:44:39Z</time></trkpt><trkpt lat="45.79503971686128" lon="15.982991206305547"><ele>111.0</ele><time>2026-05-05T06:44:40Z</time></trkpt><trkpt lat="45.79503018406045" lon="15.982791631437678"><ele>111.5</ele><time>2026-05-05T06:44:41Z</time></trkpt><trkpt lat="45.79501767401284" lon="15.982588476929559"><ele>112.0</ele><time>2026-05-05T06:44:42Z</time></trkpt><trkpt lat="45.79500282889659" lon="15.982382698635075"><ele>112.5</ele><time>2026-05-05T06:44:43Z</time></trkpt><trkpt lat="45.794994320682434" lon="15.982182676670053"><ele>113.0</ele><time>2026-05-05T06:44:44Z</time></trkpt><trkpt lat="45.79498101468545" lon="15.981973379706087"><ele>113.0</ele><time>2026-05-05T06:44:45Z</time></trkpt><trkpt lat="45.79497012675003" lon="15.981765414127684"><ele>113.0</ele><time>2026-05-05T06:44:46Z</time></trkpt><trkpt lat="45.794958625160454" lon="15.98155511943135"><ele>113.0</ele><time>2026-05-05T06:44:47Z</time></trkpt><trkpt lat="45.79494486555201" lon="15.98134139052396"><ele>113.0</ele><time>2026-05-05T06:44:48Z</time></trkpt><trkpt lat="45.79493548828079" lon="15.98112832246664"><ele>113.0</ele><time>2026-05-05T06:44:49Z</time></trkpt><trkpt lat="45.79492311335174" lon="15.980904572943283"><ele>113.0</ele><time>2026-05-05T06:44:50Z</time></trkpt><trkpt lat="45.79491088395533" lon="15.980675817309034"><ele>113.0</ele><time>2026-05-05T06:44:51Z</time></trkpt><trkpt lat="45.79490157746015" lon="15.980448328127215"><ele>113.0</ele><time>2026-05-05T06:44:52Z</time></trkpt><trkpt lat="45.79489084864894" lon="15.980222178724816"><ele>113.0</ele><time>2026-05-05T06:44:53Z</time></trkpt><trkpt lat="45.79487995311951" lon="15.97999625620329"><ele>113.0</ele><time>2026-05-05T06:44:54Z</time></trkpt><trkpt lat="45.794869807063336" lon="15.979772154374471"><ele>113.66666666666666</ele><time>2026-05-05T06:44:55Z</time></trkpt><trkpt lat="45.79485834676385" lon="15.9795437894388"><ele>114.33333333333334</ele><time>2026-05-05T06:44:56Z</time></trkpt><trkpt lat="45.7948440890026" lon="15.979317633695695"><ele>115.0</ele><time>2026-05-05T06:44:57Z</time></trkpt><trkpt lat="45.79483477661194" lon="15.979083397124128"><ele>115.0</ele><time>2026-05-05T06:44:58Z</time></trkpt><trkpt lat="45.79482637242875" lon="15.978850400248263"><ele>115.0</ele><time>2026-05-05T06:44:59Z</time></trkpt><trkpt lat="45.794807318611625" lon="15.97862325237436"><ele>115.0</ele><time>2026-05-05T06:45:00Z</time></trkpt><trkpt lat="45.794779904992396" lon="15.978387875564982"><ele>114.66666666666667</ele><time>2026-05-05T06:45:01Z</time></trkpt><trkpt lat="45.794785197497184" lon="15.978153560926568"><ele>114.33333333333334</ele><time>2026-05-05T06:45:02Z</time></trkpt><trkpt lat="45.794774453819564" lon="15.977915196090185"><ele>114.0</ele><time>2026-05-05T06:45:03Z</time></trkpt><trkpt lat="45.79476634512768" lon="15.977687831346465"><ele>113.33333333333334</ele><time>2026-05-05T06:45:04Z</time></trkpt><trkpt lat="45.794753987985935" lon="15.977453626945202"><ele>112.66666666666667</ele><time>2026-05-05T06:45:05Z</time></trkpt><trkpt lat="45.79474076243507" lon="15.977220847113188"><ele>112.0</ele><time>2026-05-05T06:45:06Z</time></trkpt><trkpt lat="45.79472735655602" lon="15.976992266414017"><ele>112.0</ele><time>2026-05-05T06:45:07Z</time></trkpt><trkpt lat="45.794717080875024" lon="15.976763516021201"><ele>112.0</ele><time>2026-05-05T06:45:08Z</time></trkpt><trkpt lat="45.79470723775249" lon="15.976539338068303"><ele>112.0</ele><time>2026-05-05T06:45:09Z</time></trkpt><trkpt lat="45.794697218837946" lon="15.976316966730284"><ele>112.33333333333334</ele><time>2026-05-05T06:45:10Z</time></trkpt><trkpt lat="45.79468525127826" lon="15.976086668074622"><ele>112.66666666666666</ele><time>2026-05-05T06:45:11Z</time></trkpt><trkpt lat="45.794673675612486" lon="15.975858554933502"><ele>113.0</ele><time>2026-05-05T06:45:12Z</time></trkpt><trkpt lat="45.79466238584448" lon="15.975634151680566"><ele>113.0</ele><time>2026-05-05T06:45:13Z</time></trkpt><trkpt lat="45.79465375489575" lon="15.975408459675167"><ele>113.0</ele><time>2026-05-05T06:45:14Z</time></trkpt><trkpt lat="45.794642744663754" lon="15.975176910488226"><ele>113.0</ele><time>2026-05-05T06:45:15Z</time></trkpt><trkpt lat="45.794632570276086" lon="15.974946777965066"><ele>113.33333333333333</ele><time>2026-05-05T06:45:16Z</time></trkpt><trkpt lat="45.79462149298428" lon="15.974703645538957"><ele>113.66666666666666</ele><time>2026-05-05T06:45:17Z</time></trkpt><trkpt lat="45.7946098806769" lon="15.97446555829337"><ele>114.0</ele><time>2026-05-05T06:45:18Z</time></trkpt><trkpt lat="45.79459795436368" lon="15.974232629590446"><ele>114.75</ele><time>2026-05-05T06:45:19Z</time></trkpt><trkpt lat="45.79458729440949" lon="15.97401935146217"><ele>115.5</ele><time>2026-05-05T06:45:20Z</time></trkpt><trkpt lat="45.794576293055215" lon="15.973816441120587"><ele>116.25</ele><time>2026-05-05T06:45:21Z</time></trkpt><trkpt lat="45.794566498392044" lon="15.973628683121634"><ele>117.0</ele><time>2026-05-05T06:45:22Z</time></trkpt><trkpt lat="45.79455507923507" lon="15.973450473006373"><ele>116.75</ele><time>2026-05-05T06:45:23Z</time></trkpt><trkpt lat="45.79454393085351" lon="15.973272040482222"><ele>116.5</ele><time>2026-05-05T06:45:24Z</time></trkpt><trkpt lat="45.79453562909438" lon="15.973099863269928"><ele>116.25</ele><time>2026-05-05T06:45:25Z</time></trkpt><trkpt lat="45.794527876581554" lon="15.972940340398765"><ele>116.0</ele><time>2026-05-05T06:45:26Z</time></trkpt><trkpt lat="45.79451972049422" lon="15.972795629929061"><ele>115.99999999999999</ele><time>2026-05-05T06:45:27Z</time></trkpt><trkpt lat="45.79451403228984" lon="15.972668488395339"><ele>116.0</ele><time>2026-05-05T06:45:28Z</time></trkpt><trkpt lat="45.79450871438402" lon="15.972549233226893"><ele>116.0</ele><time>2026-05-05T06:45:29Z</time></trkpt><trkpt lat="45.7945035067167" lon="15.972435858441212"><ele>116.0</ele><time>2026-05-05T06:45:30Z</time></trkpt><trkpt lat="45.794497670374085" lon="15.972314856444589"><ele>115.99999999999999</ele><time>2026-05-05T06:45:31Z</time></trkpt><trkpt lat="45.79448806583513" lon="15.97219419934812"><ele>116.0</ele><time>2026-05-05T06:45:32Z</time></trkpt><trkpt lat="45.79448219544444" lon="15.972057771997028"><ele>116.0</ele><time>2026-05-05T06:45:33Z</time></trkpt><trkpt lat="45.79447658842606" lon="15.971911957003442"><ele>116.0</ele><time>2026-05-05T06:45:34Z</time></trkpt><trkpt lat="45.79446954809041" lon="15.971763852852565"><ele>116.0</ele><time>2026-05-05T06:45:35Z</time></trkpt><trkpt lat="45.79446132409711" lon="15.971618841659836"><ele>116.0</ele><time>2026-05-05T06:45:36Z</time></trkpt><trkpt lat="45.79445273333977" lon="15.971470704431194"><ele>116.0</ele><time>2026-05-05T06:45:37Z</time></trkpt><trkpt lat="45.7944445877726" lon="15.971308041374302"><ele>115.75</ele><time>2026-05-05T06:45:38Z</time></trkpt><trkpt lat="45.79443608366885" lon="15.971141042763852"><ele>115.5</ele><time>2026-05-05T06:45:39Z</time></trkpt><trkpt lat="45.79442889575933" lon="15.970971894469155"><ele>115.25</ele><time>2026-05-05T06:45:40Z</time></trkpt><trkpt lat="45.79441693764326" lon="15.970796562410662"><ele>115.0</ele><time>2026-05-05T06:45:41Z</time></trkpt><trkpt lat="45.79440528316506" lon="15.970611563543233"><ele>115.0</ele><time>2026-05-05T06:45:42Z</time></trkpt><trkpt lat="45.79439669984703" lon="15.970420502899348"><ele>115.0</ele><time>2026-05-05T06:45:43Z</time></trkpt><trkpt lat="45.79438838525706" lon="15.970221507037776"><ele>115.0</ele><time>2026-05-05T06:45:44Z</time></trkpt><trkpt lat="45.79438004331019" lon="15.970025375345017"><ele>115.0</ele><time>2026-05-05T06:45:45Z</time></trkpt><trkpt lat="45.79437123160325" lon="15.969826622516166"><ele>115.0</ele><time>2026-05-05T06:45:46Z</time></trkpt><trkpt lat="45.79435931705417" lon="15.96963100669318"><ele>115.0</ele><time>2026-05-05T06:45:47Z</time></trkpt><trkpt lat="45.794352156222544" lon="15.969423635109111"><ele>115.0</ele><time>2026-05-05T06:45:48Z</time></trkpt><trkpt lat="45.794341255098054" lon="15.969213846400368"><ele>115.0</ele><time>2026-05-05T06:45:49Z</time></trkpt><trkpt lat="45.79433142352555" lon="15.969005348389677"><ele>115.25</ele><time>2026-05-05T06:45:50Z</time></trkpt><trkpt lat="45.79432073369959" lon="15.968797762841117"><ele>115.5</ele><time>2026-05-05T06:45:51Z</time></trkpt><trkpt lat="45.79431013051748" lon="15.968593859491207"><ele>115.75</ele><time>2026-05-05T06:45:52Z</time></trkpt><trkpt lat="45.79430073622824" lon="15.96839307566934"><ele>116.0</ele><time>2026-05-05T06:45:53Z</time></trkpt><trkpt lat="45.794290003754284" lon="15.968192241739668"><ele>116.25</ele><time>2026-05-05T06:45:54Z</time></trkpt><trkpt lat="45.794279028793625" lon="15.96798986015969"><ele>116.5</ele><time>2026-05-05T06:45:55Z</time></trkpt><trkpt lat="45.79427036076118" lon="15.967781062639219"><ele>116.75</ele><time>2026-05-05T06:45:56Z</time></trkpt><trkpt lat="45.79426470500629" lon="15.967567628002952"><ele>117.0</ele><time>2026-05-05T06:45:57Z</time></trkpt><trkpt lat="45.79425230771414" lon="15.967350442362067"><ele>117.25</ele><time>2026-05-05T06:45:58Z</time></trkpt><trkpt lat="45.79424212195159" lon="15.967131150060458"><ele>117.5</ele><time>2026-05-05T06:45:59Z</time></trkpt><trkpt lat="45.794230409008826" lon="15.966916925419786"><ele>117.75</ele><time>2026-05-05T06:46:00Z</time></trkpt><trkpt lat="45.79421925280032" lon="15.966711849115901"><ele>118.0</ele><time>2026-05-05T06:46:01Z</time></trkpt><trkpt lat="45.79420777690483" lon="15.966508808955236"><ele>118.0</ele><time>2026-05-05T06:46:02Z</time></trkpt><trkpt lat="45.79419262191854" lon="15.966307957797042"><ele>118.0</ele><time>2026-05-05T06:46:03Z</time></trkpt><trkpt lat="45.79417508466431" lon="15.966108179151062"><ele>118.0</ele><time>2026-05-05T06:46:04Z</time></trkpt><trkpt lat="45.79415850880717" lon="15.965906304275295"><ele>118.0</ele><time>2026-05-05T06:46:05Z</time></trkpt><trkpt lat="45.79414683952407" lon="15.965702712795736"><ele>117.75</ele><time>2026-05-05T06:46:06Z</time></trkpt><trkpt lat="45.79414044078709" lon="15.965497764922217"><ele>117.5</ele><time>2026-05-05T06:46:07Z</time></trkpt><trkpt lat="45.79413330520758" lon="15.965292859103938"><ele>117.25</ele><time>2026-05-05T06:46:08Z</time></trkpt><trkpt lat="45.79412432798857" lon="15.965083995429824"><ele>117.0</ele><time>2026-05-05T06:46:09Z</time></trkpt><trkpt lat="45.79411238572193" lon="15.964875484685617"><ele>117.0</ele><time>2026-05-05T06:46:10Z</time></trkpt><trkpt lat="45.79409777002555" lon="15.964665045743002"><ele>117.0</ele><time>2026-05-05T06:46:11Z</time></trkpt><trkpt lat="45.794081685381784" lon="15.964450211152117"><ele>117.0</ele><time>2026-05-05T06:46:12Z</time></trkpt><trkpt lat="45.79407609407682" lon="15.964233774014524"><ele>117.0</ele><time>2026-05-05T06:46:13Z</time></trkpt><trkpt lat="45.794071173915995" lon="15.96402317373203"><ele>117.0</ele><time>2026-05-05T06:46:14Z</time></trkpt><trkpt lat="45.794064963282274" lon="15.963813873176614"><ele>117.0</ele><time>2026-05-05T06:46:15Z</time></trkpt><trkpt lat="45.79406120483554" lon="15.963605045906572"><ele>117.0</ele><time>2026-05-05T06:46:16Z</time></trkpt><trkpt lat="45.79405899844606" lon="15.963404082904336"><ele>117.0</ele><time>2026-05-05T06:46:17Z</time></trkpt><trkpt lat="45.7940579371676" lon="15.96320557101821"><ele>117.25</ele><time>2026-05-05T06:46:18Z</time></trkpt><trkpt lat="45.79405824756897" lon="15.96301215790029"><ele>117.5</ele><time>2026-05-05T06:46:19Z</time></trkpt><trkpt lat="45.79405755147287" lon="15.962834433952406"><ele>117.75</ele><time>2026-05-05T06:46:20Z</time></trkpt><trkpt lat="45.79405610569667" lon="15.962683298981862"><ele>118.0</ele><time>2026-05-05T06:46:21Z</time></trkpt><trkpt lat="45.794055638513946" lon="15.962541608193433"><ele>117.60000000000001</ele><time>2026-05-05T06:46:22Z</time></trkpt><trkpt lat="45.7940602862749" lon="15.96239985236434"><ele>117.20000000000002</ele><time>2026-05-05T06:46:23Z</time></trkpt><trkpt lat="45.794062093284985" lon="15.962248066787845"><ele>116.8</ele><time>2026-05-05T06:46:24Z</time></trkpt><trkpt lat="45.79406398357064" lon="15.962080795333721"><ele>116.4</ele><time>2026-05-05T06:46:25Z</time></trkpt><trkpt lat="45.794066048177655" lon="15.961917626043554"><ele>116.0</ele><time>2026-05-05T06:46:26Z</time></trkpt><trkpt lat="45.794070620730444" lon="15.961747808599327"><ele>116.25</ele><time>2026-05-05T06:46:27Z</time></trkpt><trkpt lat="45.79407433958573" lon="15.961570873973628"><ele>116.5</ele><time>2026-05-05T06:46:28Z</time></trkpt><trkpt lat="45.79407738787549" lon="15.961383250443657"><ele>116.75</ele><time>2026-05-05T06:46:29Z</time></trkpt><trkpt lat="45.79407982050823" lon="15.961185422385588"><ele>117.0</ele><time>2026-05-05T06:46:30Z</time></trkpt><trkpt lat="45.7940832415439" lon="15.96098557254724"><ele>117.25</ele><time>2026-05-05T06:46:31Z</time></trkpt><trkpt lat="45.79408618347643" lon="15.960787972819801"><ele>117.5</ele><time>2026-05-05T06:46:32Z</time></trkpt><trkpt lat="45.79409176523588" lon="15.960579800183856"><ele>117.75</ele><time>2026-05-05T06:46:33Z</time></trkpt><trkpt lat="45.79410001592298" lon="15.960373791329143"><ele>118.0</ele><time>2026-05-05T06:46:34Z</time></trkpt><trkpt lat="45.7941092083319" lon="15.960169147693795"><ele>117.25</ele><time>2026-05-05T06:46:35Z</time></trkpt><trkpt lat="45.79411569558032" lon="15.959959754502647"><ele>116.5</ele><time>2026-05-05T06:46:36Z</time></trkpt><trkpt lat="45.79412210720903" lon="15.95974961452856"><ele>115.75</ele><time>2026-05-05T06:46:37Z</time></trkpt><trkpt lat="45.7941335722013" lon="15.959530250278636"><ele>115.0</ele><time>2026-05-05T06:46:38Z</time></trkpt><trkpt lat="45.794144350837996" lon="15.9593132827455"><ele>115.66666666666667</ele><time>2026-05-05T06:46:39Z</time></trkpt><trkpt lat="45.794155006519134" lon="15.959091276788728"><ele>116.33333333333334</ele><time>2026-05-05T06:46:40Z</time></trkpt><trkpt lat="45.7941694589402" lon="15.958868185496188"><ele>117.0</ele><time>2026-05-05T06:46:41Z</time></trkpt><trkpt lat="45.79418556174372" lon="15.958640360564841"><ele>117.0</ele><time>2026-05-05T06:46:42Z</time></trkpt><trkpt lat="45.794201331327955" lon="15.958407741996425"><ele>117.0</ele><time>2026-05-05T06:46:43Z</time></trkpt><trkpt lat="45.794220357837055" lon="15.958160736088464"><ele>117.0</ele><time>2026-05-05T06:46:44.015Z</time></trkpt><trkpt lat="45.79424030508973" lon="15.957907082245015"><ele>117.0</ele><time>2026-05-05T06:46:45.016Z</time></trkpt><trkpt lat="45.79426063753403" lon="15.957638165672982"><ele>117.0</ele><time>2026-05-05T06:46:46.013Z</time></trkpt><trkpt lat="45.79428214334111" lon="15.957359076550826"><ele>117.0</ele><time>2026-05-05T06:46:47.016Z</time></trkpt><trkpt lat="45.794301210413444" lon="15.957069728006228"><ele>117.0</ele><time>2026-05-05T06:46:48.014Z</time></trkpt><trkpt lat="45.79431749382294" lon="15.956777473260415"><ele>117.0</ele><time>2026-05-05T06:46:49.015Z</time></trkpt><trkpt lat="45.79433274702574" lon="15.956482534200145"><ele>117.0</ele><time>2026-05-05T06:46:50.014Z</time></trkpt><trkpt lat="45.794276897838145" lon="15.955675626188475"><ele>116.33333333333334</ele><time>2026-05-05T06:46:54Z</time></trkpt><trkpt lat="45.79428195348206" lon="15.955440115640112"><ele>115.66666666666667</ele><time>2026-05-05T06:46:55Z</time></trkpt><trkpt lat="45.79431191366708" lon="15.95521208773232"><ele>115.0</ele><time>2026-05-05T06:46:56Z</time></trkpt><trkpt lat="45.79432959768498" lon="15.95500654018677"><ele>114.5</ele><time>2026-05-05T06:46:57Z</time></trkpt><trkpt lat="45.794299316381704" lon="15.954807166174284"><ele>114.0</ele><time>2026-05-05T06:46:58Z</time></trkpt><trkpt lat="45.7943110577675" lon="15.95461100509513"><ele>113.5</ele><time>2026-05-05T06:46:59Z</time></trkpt><trkpt lat="45.79432328764215" lon="15.95441678058996"><ele>113.0</ele><time>2026-05-05T06:47:00Z</time></trkpt><trkpt lat="45.79432541004306" lon="15.954209709314734"><ele>113.5</ele><time>2026-05-05T06:47:01Z</time></trkpt><trkpt lat="45.79432316218647" lon="15.954010634609162"><ele>114.0</ele><time>2026-05-05T06:47:02Z</time></trkpt><trkpt lat="45.79432410227678" lon="15.95381327585577"><ele>114.5</ele><time>2026-05-05T06:47:03Z</time></trkpt><trkpt lat="45.79432548612967" lon="15.953614461869769"><ele>115.0</ele><time>2026-05-05T06:47:04Z</time></trkpt><trkpt lat="45.79432463693221" lon="15.953401608529221"><ele>115.5</ele><time>2026-05-05T06:47:05Z</time></trkpt><trkpt lat="45.794324914719134" lon="15.953184275858867"><ele>116.0</ele><time>2026-05-05T06:47:06Z</time></trkpt><trkpt lat="45.79432790885332" lon="15.952970281790833"><ele>116.5</ele><time>2026-05-05T06:47:07Z</time></trkpt><trkpt lat="45.794331377390954" lon="15.952759912651722"><ele>117.0</ele><time>2026-05-05T06:47:08Z</time></trkpt><trkpt lat="45.794334723538746" lon="15.952555969230922"><ele>116.75</ele><time>2026-05-05T06:47:09Z</time></trkpt><trkpt lat="45.79434070927086" lon="15.952349421658129"><ele>116.5</ele><time>2026-05-05T06:47:10Z</time></trkpt><trkpt lat="45.794349618474044" lon="15.952143297260834"><ele>116.25</ele><time>2026-05-05T06:47:11Z</time></trkpt><trkpt lat="45.79436127764246" lon="15.951941683125135"><ele>116.0</ele><time>2026-05-05T06:47:12Z</time></trkpt><trkpt lat="45.794374454049894" lon="15.951754715568322"><ele>116.25</ele><time>2026-05-05T06:47:13Z</time></trkpt><trkpt lat="45.79438420884041" lon="15.951585474566409"><ele>116.5</ele><time>2026-05-05T06:47:14Z</time></trkpt><trkpt lat="45.79439658931159" lon="15.951415557605563"><ele>116.75</ele><time>2026-05-05T06:47:15Z</time></trkpt><trkpt lat="45.79440371305922" lon="15.951242244195235"><ele>117.0</ele><time>2026-05-05T06:47:16Z</time></trkpt><trkpt lat="45.79440621427673" lon="15.951071562409258"><ele>117.0</ele><time>2026-05-05T06:47:17Z</time></trkpt><trkpt lat="45.794405163484164" lon="15.950908871962726"><ele>116.99999999999999</ele><time>2026-05-05T06:47:18Z</time></trkpt><trkpt lat="45.79440304112069" lon="15.950756262841093"><ele>116.99999999999999</ele><time>2026-05-05T06:47:19Z</time></trkpt><trkpt lat="45.794400735029605" lon="15.95060742721275"><ele>117.0</ele><time>2026-05-05T06:47:20Z</time></trkpt><trkpt lat="45.79438926790388" lon="15.950466971258423"><ele>117.0</ele><time>2026-05-05T06:47:21Z</time></trkpt><trkpt lat="45.79437399543806" lon="15.950327275378857"><ele>117.0</ele><time>2026-05-05T06:47:22Z</time></trkpt><trkpt lat="45.79436169687254" lon="15.950188767793275"><ele>116.99999999999999</ele><time>2026-05-05T06:47:23Z</time></trkpt><trkpt lat="45.794354153804164" lon="15.95005053043939"><ele>116.99999999999999</ele><time>2026-05-05T06:47:24Z</time></trkpt><trkpt lat="45.79434474982182" lon="15.949908627736484"><ele>117.0</ele><time>2026-05-05T06:47:25Z</time></trkpt><trkpt lat="45.794337251265" lon="15.949760723506586"><ele>117.0</ele><time>2026-05-05T06:47:26Z</time></trkpt><trkpt lat="45.79433442631772" lon="15.94961428311088"><ele>116.83333333333333</ele><time>2026-05-05T06:47:27Z</time></trkpt><trkpt lat="45.79432992047748" lon="15.949470876265012"><ele>116.66666666666666</ele><time>2026-05-05T06:47:28Z</time></trkpt><trkpt lat="45.7943219978361" lon="15.949331377744837"><ele>116.5</ele><time>2026-05-05T06:47:29Z</time></trkpt><trkpt lat="45.79431144480924" lon="15.949206770065706"><ele>116.33333333333333</ele><time>2026-05-05T06:47:30Z</time></trkpt><trkpt lat="45.794307430801204" lon="15.949088520727871"><ele>116.16666666666666</ele><time>2026-05-05T06:47:31Z</time></trkpt><trkpt lat="45.79430244016488" lon="15.948984398091707"><ele>116.0</ele><time>2026-05-05T06:47:32Z</time></trkpt><trkpt lat="45.79429818286014" lon="15.94885172653961"><ele>115.99999999999999</ele><time>2026-05-05T06:47:34Z</time></trkpt><trkpt lat="45.794295419269716" lon="15.94873399014484"><ele>116.0</ele><time>2026-05-05T06:47:37Z</time></trkpt><trkpt lat="45.79428728044434" lon="15.948627157086207"><ele>116.0</ele><time>2026-05-05T06:47:39Z</time></trkpt><trkpt lat="45.794281346133616" lon="15.948514405880044"><ele>116.0</ele><time>2026-05-05T06:47:41Z</time></trkpt><trkpt lat="45.79427700127721" lon="15.948411805247776"><ele>115.99999999999999</ele><time>2026-05-05T06:47:43Z</time></trkpt><trkpt lat="45.79427338452342" lon="15.94830196649131"><ele>116.0</ele><time>2026-05-05T06:47:45Z</time></trkpt><trkpt lat="45.79426894491629" lon="15.948177525893243"><ele>115.99999999999999</ele><time>2026-05-05T06:47:47Z</time></trkpt><trkpt lat="45.794264353049044" lon="15.948064156850338"><ele>116.0</ele><time>2026-05-05T06:47:49Z</time></trkpt><trkpt lat="45.794262790790604" lon="15.947940275981797"><ele>116.0</ele><time>2026-05-05T06:47:51Z</time></trkpt><trkpt lat="45.79426248833608" lon="15.947783198737763"><ele>116.0</ele><time>2026-05-05T06:47:53Z</time></trkpt><trkpt lat="45.79426085490811" lon="15.947686358101613"><ele>115.99999999999999</ele><time>2026-05-05T06:47:54Z</time></trkpt><trkpt lat="45.79426183854785" lon="15.94759254356405"><ele>116.0</ele><time>2026-05-05T06:47:55Z</time></trkpt><trkpt lat="45.79426030561861" lon="15.947456938273746"><ele>116.33333333333333</ele><time>2026-05-05T06:47:57Z</time></trkpt><trkpt lat="45.7942501676378" lon="15.947353687597909"><ele>116.66666666666666</ele><time>2026-05-05T06:48:00Z</time></trkpt><trkpt lat="45.794243546164466" lon="15.947239100893668"><ele>117.0</ele><time>2026-05-05T06:48:04Z</time></trkpt><trkpt lat="45.794239767075645" lon="15.947133770259576"><ele>117.33333333333334</ele><time>2026-05-05T06:48:06Z</time></trkpt><trkpt lat="45.794236355539375" lon="15.947020627389339"><ele>117.66666666666667</ele><time>2026-05-05T06:48:09Z</time></trkpt><trkpt lat="45.79419901317562" lon="15.94691192885741"><ele>118.0</ele><time>2026-05-05T06:48:13Z</time></trkpt><trkpt lat="45.7941866568552" lon="15.94673887885169"><ele>117.80000000000001</ele><time>2026-05-05T06:48:15Z</time></trkpt><trkpt lat="45.794185939635575" lon="15.946644938527115"><ele>117.60000000000001</ele><time>2026-05-05T06:48:16Z</time></trkpt><trkpt lat="45.794193658496596" lon="15.946473285062309"><ele>117.39999999999999</ele><time>2026-05-05T06:48:18Z</time></trkpt><trkpt lat="45.79419818803329" lon="15.946334619157872"><ele>117.19999999999999</ele><time>2026-05-05T06:48:20Z</time></trkpt><trkpt lat="45.79419626085356" lon="15.946163261282758"><ele>117.0</ele><time>2026-05-05T06:48:22Z</time></trkpt><trkpt lat="45.79418880753088" lon="15.946064758906484"><ele>117.0</ele><time>2026-05-05T06:48:23Z</time></trkpt><trkpt lat="45.79418183609729" lon="15.945967461930497"><ele>117.0</ele><time>2026-05-05T06:48:24Z</time></trkpt><trkpt lat="45.79417698323385" lon="15.945868826545748"><ele>117.0</ele><time>2026-05-05T06:48:25Z</time></trkpt><trkpt lat="45.794171844130695" lon="15.945770003135888"><ele>117.0</ele><time>2026-05-05T06:48:26Z</time></trkpt><trkpt lat="45.794165633343454" lon="15.945621285548444"><ele>117.0</ele><time>2026-05-05T06:48:28Z</time></trkpt><trkpt lat="45.79415858727" lon="15.945524892859707"><ele>117.0</ele><time>2026-05-05T06:48:30Z</time></trkpt><trkpt lat="45.794147271429" lon="15.945402048720085"><ele>117.0</ele><time>2026-05-05T06:48:36Z</time></trkpt><trkpt lat="45.79414560542125" lon="15.945299226740346"><ele>117.0</ele><time>2026-05-05T06:48:38Z</time></trkpt><trkpt lat="45.794137904773905" lon="15.945164710461787"><ele>117.0</ele><time>2026-05-05T06:48:40Z</time></trkpt><trkpt lat="45.794130599145454" lon="15.9450048788944"><ele>117.0</ele><time>2026-05-05T06:48:42Z</time></trkpt><trkpt lat="45.794124010188206" lon="15.944887510550938"><ele>117.0</ele><time>2026-05-05T06:48:44Z</time></trkpt><trkpt lat="45.794116842910995" lon="15.944793575886697"><ele>117.0</ele><time>2026-05-05T06:48:47Z</time></trkpt><trkpt lat="45.79411339079567" lon="15.94470208360143"><ele>117.19999999999999</ele><time>2026-05-05T06:48:50Z</time></trkpt><trkpt lat="45.794110680778786" lon="15.94459105768874"><ele>117.39999999999999</ele><time>2026-05-05T06:48:52Z</time></trkpt><trkpt lat="45.794103616477884" lon="15.944469034433645"><ele>117.60000000000001</ele><time>2026-05-05T06:48:54Z</time></trkpt><trkpt lat="45.79409656956751" lon="15.944321504907604"><ele>117.80000000000001</ele><time>2026-05-05T06:48:56Z</time></trkpt><trkpt lat="45.79408837786013" lon="15.94415412263969"><ele>118.0</ele><time>2026-05-05T06:48:58Z</time></trkpt><trkpt lat="45.79408377861345" lon="15.944053751063096"><ele>118.00000000000001</ele><time>2026-05-05T06:48:59Z</time></trkpt><trkpt lat="45.79407896958208" lon="15.94394882439777"><ele>118.0</ele><time>2026-05-05T06:49:00Z</time></trkpt><trkpt lat="45.79407399161854" lon="15.943836878065884"><ele>118.0</ele><time>2026-05-05T06:49:01Z</time></trkpt><trkpt lat="45.7940655102562" lon="15.943714748974692"><ele>118.0</ele><time>2026-05-05T06:49:02Z</time></trkpt><trkpt lat="45.794060872400145" lon="15.943581350925179"><ele>118.00000000000001</ele><time>2026-05-05T06:49:03Z</time></trkpt><trkpt lat="45.79405656826147" lon="15.943446655908007"><ele>118.0</ele><time>2026-05-05T06:49:04Z</time></trkpt><trkpt lat="45.79404812476191" lon="15.943311271769744"><ele>118.0</ele><time>2026-05-05T06:49:05Z</time></trkpt><trkpt lat="45.794039166355496" lon="15.94316020896514"><ele>118.0</ele><time>2026-05-05T06:49:06Z</time></trkpt><trkpt lat="45.79403036460397" lon="15.942989803574237"><ele>118.0</ele><time>2026-05-05T06:49:07Z</time></trkpt><trkpt lat="45.79402160334137" lon="15.942806632048285"><ele>118.0</ele><time>2026-05-05T06:49:08Z</time></trkpt><trkpt lat="45.794014868130034" lon="15.942609544287356"><ele>117.75</ele><time>2026-05-05T06:49:09Z</time></trkpt><trkpt lat="45.79400664024383" lon="15.942405614272785"><ele>117.5</ele><time>2026-05-05T06:49:10Z</time></trkpt><trkpt lat="45.79399930977061" lon="15.942202492589274"><ele>117.25</ele><time>2026-05-05T06:49:11Z</time></trkpt><trkpt lat="45.793991818814284" lon="15.94200894679561"><ele>117.0</ele><time>2026-05-05T06:49:12Z</time></trkpt><trkpt lat="45.79398090537349" lon="15.941819364467088"><ele>117.0</ele><time>2026-05-05T06:49:13Z</time></trkpt><trkpt lat="45.79396455149494" lon="15.941635774473827"><ele>117.0</ele><time>2026-05-05T06:49:14Z</time></trkpt><trkpt lat="45.79394990250764" lon="15.941452991652627"><ele>117.0</ele><time>2026-05-05T06:49:15Z</time></trkpt><trkpt lat="45.793942601270935" lon="15.94126035809736"><ele>117.0</ele><time>2026-05-05T06:49:16Z</time></trkpt><trkpt lat="45.793941767071885" lon="15.941057500736791"><ele>117.66666666666666</ele><time>2026-05-05T06:49:17Z</time></trkpt><trkpt lat="45.79393697512072" lon="15.940846697338799"><ele>118.33333333333333</ele><time>2026-05-05T06:49:18Z</time></trkpt><trkpt lat="45.79393177187453" lon="15.940603867801517"><ele>119.0</ele><time>2026-05-05T06:49:19Z</time></trkpt><trkpt lat="45.79392813590292" lon="15.940350377995564"><ele>119.0</ele><time>2026-05-05T06:49:20Z</time></trkpt><trkpt lat="45.793927738016826" lon="15.94012411149412"><ele>119.0</ele><time>2026-05-05T06:49:21Z</time></trkpt><trkpt lat="45.79392643094514" lon="15.939899865982726"><ele>119.0</ele><time>2026-05-05T06:49:22Z</time></trkpt><trkpt lat="45.79392397532206" lon="15.9396769767207"><ele>118.75</ele><time>2026-05-05T06:49:23Z</time></trkpt><trkpt lat="45.79392269017695" lon="15.939462989354196"><ele>118.5</ele><time>2026-05-05T06:49:24Z</time></trkpt><trkpt lat="45.79392311616372" lon="15.93926137905156"><ele>118.25</ele><time>2026-05-05T06:49:25Z</time></trkpt><trkpt lat="45.79392427104842" lon="15.939076149391441"><ele>118.0</ele><time>2026-05-05T06:49:26Z</time></trkpt><trkpt lat="45.79392657093138" lon="15.938907444415065"><ele>118.0</ele><time>2026-05-05T06:49:27Z</time></trkpt><trkpt lat="45.79392400702755" lon="15.938764054571534"><ele>118.00000000000001</ele><time>2026-05-05T06:49:28Z</time></trkpt><trkpt lat="45.79392359198547" lon="15.938649316246499"><ele>118.00000000000001</ele><time>2026-05-05T06:49:29Z</time></trkpt><trkpt lat="45.793923421561644" lon="15.938486820350253"><ele>118.0</ele><time>2026-05-05T06:49:31Z</time></trkpt><trkpt lat="45.79391563466326" lon="15.93835914358069"><ele>118.0</ele><time>2026-05-05T06:49:33Z</time></trkpt><trkpt lat="45.79390839822927" lon="15.938249858961575"><ele>118.0</ele><time>2026-05-05T06:49:35Z</time></trkpt><trkpt lat="45.79391673444926" lon="15.938126016123709"><ele>118.00000000000001</ele><time>2026-05-05T06:49:56Z</time></trkpt><trkpt lat="45.793923225429374" lon="15.937956184611487"><ele>118.00000000000001</ele><time>2026-05-05T06:49:58Z</time></trkpt><trkpt lat="45.793927125827075" lon="15.937794092667476"><ele>118.0</ele><time>2026-05-05T06:49:59Z</time></trkpt><trkpt lat="45.793932285672994" lon="15.937625618093135"><ele>118.0</ele><time>2026-05-05T06:50:00Z</time></trkpt><trkpt lat="45.79393555645799" lon="15.937469498127513"><ele>117.80000000000001</ele><time>2026-05-05T06:50:01Z</time></trkpt><trkpt lat="45.79393636914763" lon="15.937321230590697"><ele>117.60000000000001</ele><time>2026-05-05T06:50:02Z</time></trkpt><trkpt lat="45.79393932848317" lon="15.937169694020726"><ele>117.39999999999999</ele><time>2026-05-05T06:50:03Z</time></trkpt><trkpt lat="45.79394235949755" lon="15.937014781775154"><ele>117.19999999999999</ele><time>2026-05-05T06:50:04Z</time></trkpt><trkpt lat="45.79394792057359" lon="15.936867680389376"><ele>117.0</ele><time>2026-05-05T06:50:05Z</time></trkpt><trkpt lat="45.79395270790586" lon="15.936724100072812"><ele>117.19999999999999</ele><time>2026-05-05T06:50:06Z</time></trkpt><trkpt lat="45.79395300132356" lon="15.93657971988892"><ele>117.39999999999999</ele><time>2026-05-05T06:50:07Z</time></trkpt><trkpt lat="45.79395589373409" lon="15.936442496562602"><ele>117.60000000000001</ele><time>2026-05-05T06:50:08Z</time></trkpt><trkpt lat="45.79396418757039" lon="15.936301027159777"><ele>117.80000000000001</ele><time>2026-05-05T06:50:09Z</time></trkpt><trkpt lat="45.79397505491337" lon="15.93615767965492"><ele>118.0</ele><time>2026-05-05T06:50:10Z</time></trkpt><trkpt lat="45.79398034242297" lon="15.936018476651387"><ele>118.0</ele><time>2026-05-05T06:50:11Z</time></trkpt><trkpt lat="45.79398710067304" lon="15.93587685565856"><ele>118.00000000000001</ele><time>2026-05-05T06:50:12Z</time></trkpt><trkpt lat="45.79399595332623" lon="15.935733630126368"><ele>118.00000000000001</ele><time>2026-05-05T06:50:13Z</time></trkpt><trkpt lat="45.794009614940485" lon="15.935584871169787"><ele>118.0</ele><time>2026-05-05T06:50:14Z</time></trkpt><trkpt lat="45.79402491402391" lon="15.935424326918232"><ele>118.0</ele><time>2026-05-05T06:50:15Z</time></trkpt><trkpt lat="45.79403688306362" lon="15.935246122207317"><ele>118.0</ele><time>2026-05-05T06:50:16Z</time></trkpt><trkpt lat="45.79404880865611" lon="15.9350631280796"><ele>118.0</ele><time>2026-05-05T06:50:17Z</time></trkpt><trkpt lat="45.794069357548096" lon="15.934703149914224"><ele>118.0</ele><time>2026-05-05T06:50:19Z</time></trkpt><trkpt lat="45.7940819312109" lon="15.934518225842105"><ele>117.75</ele><time>2026-05-05T06:50:20Z</time></trkpt><trkpt lat="45.794090633480096" lon="15.934318306560256"><ele>117.5</ele><time>2026-05-05T06:50:21Z</time></trkpt><trkpt lat="45.79410205975707" lon="15.934113003626003"><ele>117.25</ele><time>2026-05-05T06:50:22Z</time></trkpt><trkpt lat="45.79411665057994" lon="15.933914791956653"><ele>117.0</ele><time>2026-05-05T06:50:23Z</time></trkpt><trkpt lat="45.79413056186948" lon="15.933718668981339"><ele>117.0</ele><time>2026-05-05T06:50:24Z</time></trkpt><trkpt lat="45.79414195816881" lon="15.933522233971443"><ele>117.0</ele><time>2026-05-05T06:50:25Z</time></trkpt><trkpt lat="45.79415418882855" lon="15.933327128442867"><ele>117.0</ele><time>2026-05-05T06:50:26Z</time></trkpt><trkpt lat="45.79416788321315" lon="15.933125470743782"><ele>117.0</ele><time>2026-05-05T06:50:27Z</time></trkpt><trkpt lat="45.79418711192609" lon="15.932910298584304"><ele>117.0</ele><time>2026-05-05T06:50:28Z</time></trkpt><trkpt lat="45.7942060426538" lon="15.932682166429249"><ele>117.0</ele><time>2026-05-05T06:50:29Z</time></trkpt><trkpt lat="45.794226909458814" lon="15.932458711162772"><ele>117.0</ele><time>2026-05-05T06:50:30Z</time></trkpt><trkpt lat="45.79424732597232" lon="15.93223277463942"><ele>117.0</ele><time>2026-05-05T06:50:31Z</time></trkpt><trkpt lat="45.794269457172575" lon="15.931999431827967"><ele>117.0</ele><time>2026-05-05T06:50:32Z</time></trkpt><trkpt lat="45.79429269516689" lon="15.931768838739563"><ele>117.0</ele><time>2026-05-05T06:50:33Z</time></trkpt><trkpt lat="45.79431474459806" lon="15.93153236935286"><ele>117.0</ele><time>2026-05-05T06:50:34Z</time></trkpt><trkpt lat="45.79433626447607" lon="15.931300951144014"><ele>117.0</ele><time>2026-05-05T06:50:35Z</time></trkpt><trkpt lat="45.79436000746829" lon="15.931068673772504"><ele>117.0</ele><time>2026-05-05T06:50:36Z</time></trkpt><trkpt lat="45.794382264345806" lon="15.930840185857713"><ele>116.66666666666666</ele><time>2026-05-05T06:50:37Z</time></trkpt><trkpt lat="45.79440379116149" lon="15.93060369814743"><ele>116.33333333333333</ele><time>2026-05-05T06:50:38Z</time></trkpt><trkpt lat="45.79442339579225" lon="15.930377606420405"><ele>116.0</ele><time>2026-05-05T06:50:39Z</time></trkpt><trkpt lat="45.794442000703086" lon="15.930154355412139"><ele>116.33333333333333</ele><time>2026-05-05T06:50:40Z</time></trkpt><trkpt lat="45.794456769386926" lon="15.92993586898625"><ele>116.66666666666666</ele><time>2026-05-05T06:50:41Z</time></trkpt><trkpt lat="45.79447153503779" lon="15.929719395745428"><ele>117.0</ele><time>2026-05-05T06:50:42Z</time></trkpt><trkpt lat="45.79448781895959" lon="15.929504445647252"><ele>117.0</ele><time>2026-05-05T06:50:43Z</time></trkpt><trkpt lat="45.79450591173235" lon="15.929295262674295"><ele>117.0</ele><time>2026-05-05T06:50:44Z</time></trkpt><trkpt lat="45.79452415358227" lon="15.929089728932025"><ele>117.0</ele><time>2026-05-05T06:50:45Z</time></trkpt><trkpt lat="45.794541790327806" lon="15.92888979973941"><ele>117.0</ele><time>2026-05-05T06:50:46Z</time></trkpt><trkpt lat="45.79455910770695" lon="15.928692113429586"><ele>117.0</ele><time>2026-05-05T06:50:47Z</time></trkpt><trkpt lat="45.79457600760226" lon="15.928495576668594"><ele>117.0</ele><time>2026-05-05T06:50:48Z</time></trkpt><trkpt lat="45.7945948459142" lon="15.928302263698649"><ele>117.0</ele><time>2026-05-05T06:50:49Z</time></trkpt><trkpt lat="45.7946114977072" lon="15.928112208685665"><ele>117.0</ele><time>2026-05-05T06:50:50Z</time></trkpt><trkpt lat="45.79462936756737" lon="15.927918019401927"><ele>116.75</ele><time>2026-05-05T06:50:51Z</time></trkpt><trkpt lat="45.79464869850223" lon="15.927727011166969"><ele>116.5</ele><time>2026-05-05T06:50:52Z</time></trkpt><trkpt lat="45.79466424923844" lon="15.927531633581992"><ele>116.25</ele><time>2026-05-05T06:50:53Z</time></trkpt><trkpt lat="45.794679858074424" lon="15.927333313577078"><ele>116.0</ele><time>2026-05-05T06:50:54Z</time></trkpt><trkpt lat="45.79469820855052" lon="15.927132028494405"><ele>116.5</ele><time>2026-05-05T06:50:55Z</time></trkpt><trkpt lat="45.79471568403031" lon="15.926930445373564"><ele>117.0</ele><time>2026-05-05T06:50:56Z</time></trkpt><trkpt lat="45.79473221557415" lon="15.926730044958767"><ele>117.5</ele><time>2026-05-05T06:50:57Z</time></trkpt><trkpt lat="45.794748548812095" lon="15.926527975013203"><ele>118.0</ele><time>2026-05-05T06:50:58Z</time></trkpt><trkpt lat="45.794765036429524" lon="15.926332460466107"><ele>118.0</ele><time>2026-05-05T06:50:59Z</time></trkpt><trkpt lat="45.79478024349528" lon="15.926144005505485"><ele>118.0</ele><time>2026-05-05T06:51:00Z</time></trkpt><trkpt lat="45.7947962136349" lon="15.92595761479328"><ele>118.0</ele><time>2026-05-05T06:51:01Z</time></trkpt><trkpt lat="45.794812461857994" lon="15.925776508235607"><ele>118.0</ele><time>2026-05-05T06:51:02Z</time></trkpt><trkpt lat="45.79482742925509" lon="15.925595264254465"><ele>118.0</ele><time>2026-05-05T06:51:03Z</time></trkpt><trkpt lat="45.79484121244953" lon="15.925420825887652"><ele>118.00000000000001</ele><time>2026-05-05T06:51:04Z</time></trkpt><trkpt lat="45.79485504598116" lon="15.92525741978781"><ele>118.00000000000001</ele><time>2026-05-05T06:51:05Z</time></trkpt><trkpt lat="45.79486666494364" lon="15.925106627383814"><ele>118.0</ele><time>2026-05-05T06:51:06Z</time></trkpt><trkpt lat="45.79487698564081" lon="15.924971047121456"><ele>118.0</ele><time>2026-05-05T06:51:07Z</time></trkpt><trkpt lat="45.794888131388845" lon="15.92485030907134"><ele>118.00000000000001</ele><time>2026-05-05T06:51:08Z</time></trkpt><trkpt lat="45.79489955173807" lon="15.924743539097413"><ele>118.0</ele><time>2026-05-05T06:51:09Z</time></trkpt><trkpt lat="45.79490742531804" lon="15.9246484398611"><ele>118.0</ele><time>2026-05-05T06:51:10Z</time></trkpt><trkpt lat="45.79491914229463" lon="15.924496565232364"><ele>118.0</ele><time>2026-05-05T06:51:12Z</time></trkpt><trkpt lat="45.794924762810766" lon="15.924384142297889"><ele>118.00000000000001</ele><time>2026-05-05T06:51:14Z</time></trkpt><trkpt lat="45.79492571163391" lon="15.924285632507178"><ele>118.0</ele><time>2026-05-05T06:51:20Z</time></trkpt><trkpt lat="45.794935838051614" lon="15.92414192413561"><ele>118.00000000000001</ele><time>2026-05-05T06:51:25Z</time></trkpt><trkpt lat="45.794951990642545" lon="15.923980923973843"><ele>118.0</ele><time>2026-05-05T06:51:27Z</time></trkpt><trkpt lat="45.79495926274276" lon="15.923879629350722"><ele>118.0</ele><time>2026-05-05T06:51:28Z</time></trkpt><trkpt lat="45.794968980609674" lon="15.923767529865005"><ele>118.0</ele><time>2026-05-05T06:51:29Z</time></trkpt><trkpt lat="45.79498109652974" lon="15.923647938588399"><ele>118.00000000000001</ele><time>2026-05-05T06:51:30Z</time></trkpt><trkpt lat="45.79499183025631" lon="15.923532326799142"><ele>118.0</ele><time>2026-05-05T06:51:31Z</time></trkpt><trkpt lat="45.795001604680685" lon="15.923402168382028"><ele>118.25</ele><time>2026-05-05T06:51:32Z</time></trkpt><trkpt lat="45.79501277734027" lon="15.923245035740445"><ele>118.5</ele><time>2026-05-05T06:51:33Z</time></trkpt><trkpt lat="45.79503102888663" lon="15.923074160577578"><ele>118.75</ele><time>2026-05-05T06:51:34Z</time></trkpt><trkpt lat="45.795048645786316" lon="15.922898250396472"><ele>119.0</ele><time>2026-05-05T06:51:35Z</time></trkpt><trkpt lat="45.79506614082731" lon="15.92273192419117"><ele>119.0</ele><time>2026-05-05T06:51:36Z</time></trkpt><trkpt lat="45.79508051947455" lon="15.922566002025027"><ele>119.0</ele><time>2026-05-05T06:51:37Z</time></trkpt><trkpt lat="45.7950961022224" lon="15.922394263978552"><ele>119.0</ele><time>2026-05-05T06:51:38Z</time></trkpt><trkpt lat="45.79511174572727" lon="15.922217342241572"><ele>119.0</ele><time>2026-05-05T06:51:39Z</time></trkpt><trkpt lat="45.79512967708074" lon="15.922053336571029"><ele>119.25</ele><time>2026-05-05T06:51:40Z</time></trkpt><trkpt lat="45.79514620060808" lon="15.921889798159517"><ele>119.5</ele><time>2026-05-05T06:51:41Z</time></trkpt><trkpt lat="45.79516134326348" lon="15.921729692025215"><ele>119.75</ele><time>2026-05-05T06:51:42Z</time></trkpt><trkpt lat="45.79517588909136" lon="15.921571605780654"><ele>120.0</ele><time>2026-05-05T06:51:43Z</time></trkpt><trkpt lat="45.795188921211675" lon="15.921410228686826"><ele>119.75</ele><time>2026-05-05T06:51:44Z</time></trkpt><trkpt lat="45.7952016672971" lon="15.921246022775438"><ele>119.5</ele><time>2026-05-05T06:51:45Z</time></trkpt><trkpt lat="45.7952178221739" lon="15.921081467824822"><ele>119.25</ele><time>2026-05-05T06:51:46Z</time></trkpt><trkpt lat="45.79523439170469" lon="15.9209074218497"><ele>119.0</ele><time>2026-05-05T06:51:47Z</time></trkpt><trkpt lat="45.79524901454319" lon="15.920724385048976"><ele>119.0</ele><time>2026-05-05T06:51:48Z</time></trkpt><trkpt lat="45.79526815169674" lon="15.920535995459039"><ele>119.0</ele><time>2026-05-05T06:51:49Z</time></trkpt><trkpt lat="45.7952863168237" lon="15.920342345041606"><ele>119.0</ele><time>2026-05-05T06:51:50Z</time></trkpt><trkpt lat="45.79530270569105" lon="15.92014463899873"><ele>119.0</ele><time>2026-05-05T06:51:51Z</time></trkpt><trkpt lat="45.795320344396345" lon="15.919944319440514"><ele>119.25</ele><time>2026-05-05T06:51:52Z</time></trkpt><trkpt lat="45.79533853580062" lon="15.9197337092442"><ele>119.5</ele><time>2026-05-05T06:51:53Z</time></trkpt><trkpt lat="45.79535762499364" lon="15.91952000924586"><ele>119.75</ele><time>2026-05-05T06:51:54Z</time></trkpt><trkpt lat="45.79537729920567" lon="15.919310342145787"><ele>120.0</ele><time>2026-05-05T06:51:55Z</time></trkpt><trkpt lat="45.79539382636149" lon="15.919101172355466"><ele>120.0</ele><time>2026-05-05T06:51:56Z</time></trkpt><trkpt lat="45.79541213464639" lon="15.918895026140483"><ele>120.0</ele><time>2026-05-05T06:51:57Z</time></trkpt><trkpt lat="45.7954296361056" lon="15.918694147048537"><ele>120.0</ele><time>2026-05-05T06:51:58Z</time></trkpt><trkpt lat="45.795446789498314" lon="15.91849353036395"><ele>120.0</ele><time>2026-05-05T06:51:59Z</time></trkpt><trkpt lat="45.79546161324487" lon="15.918297797521591"><ele>120.0</ele><time>2026-05-05T06:52:00Z</time></trkpt><trkpt lat="45.79547791231522" lon="15.918098076695117"><ele>120.0</ele><time>2026-05-05T06:52:01Z</time></trkpt><trkpt lat="45.79549632997963" lon="15.917896306440426"><ele>120.0</ele><time>2026-05-05T06:52:02Z</time></trkpt><trkpt lat="45.79551420951069" lon="15.917686159792044"><ele>120.0</ele><time>2026-05-05T06:52:03Z</time></trkpt><trkpt lat="45.79553207447327" lon="15.91747531063134"><ele>120.0</ele><time>2026-05-05T06:52:04Z</time></trkpt><trkpt lat="45.79555315330132" lon="15.917258257437346"><ele>120.0</ele><time>2026-05-05T06:52:05Z</time></trkpt><trkpt lat="45.79557381424266" lon="15.917033446664492"><ele>120.0</ele><time>2026-05-05T06:52:06Z</time></trkpt><trkpt lat="45.79559345911166" lon="15.916806497189413"><ele>119.66666666666666</ele><time>2026-05-05T06:52:07Z</time></trkpt><trkpt lat="45.795612648445065" lon="15.91657908611948"><ele>119.33333333333333</ele><time>2026-05-05T06:52:08Z</time></trkpt><trkpt lat="45.79563338716446" lon="15.916351851860782"><ele>119.0</ele><time>2026-05-05T06:52:09Z</time></trkpt><trkpt lat="45.795653129976095" lon="15.91612500979117"><ele>119.0</ele><time>2026-05-05T06:52:10Z</time></trkpt><trkpt lat="45.795671032089295" lon="15.915895785700535"><ele>119.0</ele><time>2026-05-05T06:52:11Z</time></trkpt><trkpt lat="45.795682243752196" lon="15.915677817914512"><ele>119.0</ele><time>2026-05-05T06:52:12Z</time></trkpt><trkpt lat="45.79571056129194" lon="15.915445083721785"><ele>119.0</ele><time>2026-05-05T06:52:13Z</time></trkpt><trkpt lat="45.795729342270505" lon="15.915213220849312"><ele>119.0</ele><time>2026-05-05T06:52:14Z</time></trkpt><trkpt lat="45.795751006651685" lon="15.914986629526645"><ele>119.0</ele><time>2026-05-05T06:52:15Z</time></trkpt><trkpt lat="45.79577057858323" lon="15.914760113643563"><ele>118.66666666666666</ele><time>2026-05-05T06:52:16Z</time></trkpt><trkpt lat="45.79578836690715" lon="15.91453434113679"><ele>118.33333333333334</ele><time>2026-05-05T06:52:17Z</time></trkpt><trkpt lat="45.795806798861285" lon="15.914314027133578"><ele>118.0</ele><time>2026-05-05T06:52:18Z</time></trkpt><trkpt lat="45.7958246431024" lon="15.914100217048166"><ele>117.75</ele><time>2026-05-05T06:52:19Z</time></trkpt><trkpt lat="45.79584293595845" lon="15.91388802828392"><ele>117.5</ele><time>2026-05-05T06:52:20Z</time></trkpt><trkpt lat="45.795862301582254" lon="15.913683291424876"><ele>117.25</ele><time>2026-05-05T06:52:21Z</time></trkpt><trkpt lat="45.79588091846698" lon="15.913482576078515"><ele>117.0</ele><time>2026-05-05T06:52:22Z</time></trkpt><trkpt lat="45.79589656782978" lon="15.913287738243385"><ele>117.0</ele><time>2026-05-05T06:52:23Z</time></trkpt><trkpt lat="45.79591422441737" lon="15.91309499985333"><ele>117.0</ele><time>2026-05-05T06:52:24Z</time></trkpt><trkpt lat="45.79593479724792" lon="15.91290447794789"><ele>117.0</ele><time>2026-05-05T06:52:25Z</time></trkpt><trkpt lat="45.79595284124395" lon="15.912709388092486"><ele>117.0</ele><time>2026-05-05T06:52:26Z</time></trkpt><trkpt lat="45.79596913966948" lon="15.912504750543473"><ele>117.0</ele><time>2026-05-05T06:52:27Z</time></trkpt><trkpt lat="45.79598612351278" lon="15.912293311884033"><ele>117.0</ele><time>2026-05-05T06:52:28Z</time></trkpt><trkpt lat="45.79600638350805" lon="15.912081541248272"><ele>117.0</ele><time>2026-05-05T06:52:29Z</time></trkpt><trkpt lat="45.796022814784045" lon="15.911878471773859"><ele>117.0</ele><time>2026-05-05T06:52:30Z</time></trkpt><trkpt lat="45.79603549218477" lon="15.911682202082199"><ele>117.5</ele><time>2026-05-05T06:52:31Z</time></trkpt><trkpt lat="45.79604928712616" lon="15.911480838393043"><ele>118.0</ele><time>2026-05-05T06:52:32Z</time></trkpt><trkpt lat="45.79606638023013" lon="15.911289714516476"><ele>118.5</ele><time>2026-05-05T06:52:33Z</time></trkpt><trkpt lat="45.79608310564968" lon="15.91111165168644"><ele>119.0</ele><time>2026-05-05T06:52:34Z</time></trkpt><trkpt lat="45.79610043192918" lon="15.910952237663196"><ele>118.83333333333333</ele><time>2026-05-05T06:52:35Z</time></trkpt><trkpt lat="45.79611641318972" lon="15.910802756710169"><ele>118.66666666666666</ele><time>2026-05-05T06:52:36Z</time></trkpt><trkpt lat="45.79612945521795" lon="15.910663135674929"><ele>118.5</ele><time>2026-05-05T06:52:37Z</time></trkpt><trkpt lat="45.796138965092275" lon="15.910537921066338"><ele>118.33333333333334</ele><time>2026-05-05T06:52:38Z</time></trkpt><trkpt lat="45.79614446083947" lon="15.910426121534295"><ele>118.16666666666667</ele><time>2026-05-05T06:52:39Z</time></trkpt><trkpt lat="45.796151419519234" lon="15.910329231291781"><ele>118.0</ele><time>2026-05-05T06:52:40Z</time></trkpt><trkpt lat="45.79616222053108" lon="15.910175927815676"><ele>118.0</ele><time>2026-05-05T06:52:42Z</time></trkpt><trkpt lat="45.79617230978852" lon="15.910076346403677"><ele>118.00000000000001</ele><time>2026-05-05T06:52:44Z</time></trkpt><trkpt lat="45.79618922762675" lon="15.909940229139075"><ele>118.00000000000001</ele><time>2026-05-05T06:52:47Z</time></trkpt><trkpt lat="45.796203010081676" lon="15.909804097134376"><ele>118.0</ele><time>2026-05-05T06:52:49Z</time></trkpt><trkpt lat="45.79622050601059" lon="15.909617240518951"><ele>118.0</ele><time>2026-05-05T06:52:51Z</time></trkpt><trkpt lat="45.796232579606574" lon="15.909497581603292"><ele>118.00000000000001</ele><time>2026-05-05T06:52:52Z</time></trkpt><trkpt lat="45.796241883123756" lon="15.909398380946426"><ele>118.0</ele><time>2026-05-05T06:52:53Z</time></trkpt><trkpt lat="45.79625187357431" lon="15.90928682108093"><ele>118.0</ele><time>2026-05-05T06:52:54Z</time></trkpt><trkpt lat="45.79626300986342" lon="15.909160550223392"><ele>118.0</ele><time>2026-05-05T06:52:55Z</time></trkpt><trkpt lat="45.796274810249535" lon="15.909026482464272"><ele>118.00000000000001</ele><time>2026-05-05T06:52:56Z</time></trkpt><trkpt lat="45.79628535541548" lon="15.908896843994333"><ele>118.0</ele><time>2026-05-05T06:52:57Z</time></trkpt><trkpt lat="45.79630040444817" lon="15.908764729607379"><ele>118.2</ele><time>2026-05-05T06:52:58Z</time></trkpt><trkpt lat="45.79631110248724" lon="15.908635203613057"><ele>118.4</ele><time>2026-05-05T06:52:59Z</time></trkpt><trkpt lat="45.79632202879055" lon="15.908505366116277"><ele>118.60000000000001</ele><time>2026-05-05T06:53:00Z</time></trkpt><trkpt lat="45.79633071759931" lon="15.908369859092085"><ele>118.80000000000001</ele><time>2026-05-05T06:53:01Z</time></trkpt><trkpt lat="45.79633910544247" lon="15.90822090717269"><ele>119.0</ele><time>2026-05-05T06:53:02Z</time></trkpt><trkpt lat="45.79635474978845" lon="15.908066759585239"><ele>119.25</ele><time>2026-05-05T06:53:03Z</time></trkpt><trkpt lat="45.79636984832761" lon="15.907907994869642"><ele>119.5</ele><time>2026-05-05T06:53:04Z</time></trkpt><trkpt lat="45.79638583181097" lon="15.907733714457134"><ele>119.75</ele><time>2026-05-05T06:53:05Z</time></trkpt><trkpt lat="45.79640127596906" lon="15.90754827888503"><ele>120.0</ele><time>2026-05-05T06:53:06Z</time></trkpt><trkpt lat="45.79641729802718" lon="15.907362264717676"><ele>120.0</ele><time>2026-05-05T06:53:07Z</time></trkpt><trkpt lat="45.79643018150832" lon="15.907180991182925"><ele>120.0</ele><time>2026-05-05T06:53:08Z</time></trkpt><trkpt lat="45.79644632531208" lon="15.907008379227323"><ele>120.0</ele><time>2026-05-05T06:53:09Z</time></trkpt><trkpt lat="45.796461309890056" lon="15.906829136429138"><ele>120.0</ele><time>2026-05-05T06:53:10Z</time></trkpt><trkpt lat="45.79647562296727" lon="15.90664679028199"><ele>120.25</ele><time>2026-05-05T06:53:11Z</time></trkpt><trkpt lat="45.796489096913525" lon="15.906474103778654"><ele>120.5</ele><time>2026-05-05T06:53:12Z</time></trkpt><trkpt lat="45.796504113904334" lon="15.906289600108611"><ele>120.75</ele><time>2026-05-05T06:53:13Z</time></trkpt><trkpt lat="45.796518279743424" lon="15.906095730383319"><ele>121.0</ele><time>2026-05-05T06:53:14Z</time></trkpt><trkpt lat="45.796532617693934" lon="15.9058997070479"><ele>120.5</ele><time>2026-05-05T06:53:15Z</time></trkpt><trkpt lat="45.796547022465" lon="15.90570549755619"><ele>120.0</ele><time>2026-05-05T06:53:16Z</time></trkpt><trkpt lat="45.79656493747679" lon="15.905501676170047"><ele>119.5</ele><time>2026-05-05T06:53:17Z</time></trkpt><trkpt lat="45.79658213840924" lon="15.90530203862809"><ele>119.0</ele><time>2026-05-05T06:53:18Z</time></trkpt><trkpt lat="45.79659837049394" lon="15.905096274458108"><ele>119.25</ele><time>2026-05-05T06:53:19Z</time></trkpt><trkpt lat="45.79661644333308" lon="15.90488955381319"><ele>119.5</ele><time>2026-05-05T06:53:20Z</time></trkpt><trkpt lat="45.796635682292184" lon="15.904687410772526"><ele>119.75</ele><time>2026-05-05T06:53:21Z</time></trkpt><trkpt lat="45.79665050621149" lon="15.904475263617487"><ele>120.0</ele><time>2026-05-05T06:53:22Z</time></trkpt><trkpt lat="45.79666692934555" lon="15.904254286560928"><ele>119.75</ele><time>2026-05-05T06:53:23Z</time></trkpt><trkpt lat="45.79668339171872" lon="15.904039827379057"><ele>119.5</ele><time>2026-05-05T06:53:24Z</time></trkpt><trkpt lat="45.79669924557346" lon="15.903834385991265"><ele>119.25</ele><time>2026-05-05T06:53:25Z</time></trkpt><trkpt lat="45.79671643378366" lon="15.90362584114301"><ele>119.0</ele><time>2026-05-05T06:53:26Z</time></trkpt><trkpt lat="45.79673199523075" lon="15.90341397778016"><ele>118.75</ele><time>2026-05-05T06:53:27Z</time></trkpt><trkpt lat="45.79674772565445" lon="15.903209126320155"><ele>118.5</ele><time>2026-05-05T06:53:28Z</time></trkpt><trkpt lat="45.79676363234478" lon="15.903008393655805"><ele>118.25</ele><time>2026-05-05T06:53:29Z</time></trkpt><trkpt lat="45.796776469168194" lon="15.902823635191304"><ele>118.0</ele><time>2026-05-05T06:53:30Z</time></trkpt><trkpt lat="45.796784052590475" lon="15.902655998163524"><ele>118.33333333333334</ele><time>2026-05-05T06:53:31Z</time></trkpt><trkpt lat="45.796789157751554" lon="15.902499524624876"><ele>118.66666666666667</ele><time>2026-05-05T06:53:32Z</time></trkpt><trkpt lat="45.796794128203125" lon="15.902367896579236"><ele>119.0</ele><time>2026-05-05T06:53:33Z</time></trkpt><trkpt lat="45.79679988961626" lon="15.902246675588854"><ele>119.33333333333334</ele><time>2026-05-05T06:53:34Z</time></trkpt><trkpt lat="45.796806271832814" lon="15.902139130710042"><ele>119.66666666666667</ele><time>2026-05-05T06:53:35Z</time></trkpt><trkpt lat="45.79681530272909" lon="15.902043637921158"><ele>120.0</ele><time>2026-05-05T06:53:36Z</time></trkpt><trkpt lat="45.79682818362034" lon="15.901871311710062"><ele>119.83333333333333</ele><time>2026-05-05T06:53:38Z</time></trkpt><trkpt lat="45.79683637404225" lon="15.901708918047273"><ele>119.66666666666666</ele><time>2026-05-05T06:53:40Z</time></trkpt><trkpt lat="45.796840706137225" lon="15.901610145076612"><ele>119.5</ele><time>2026-05-05T06:53:41Z</time></trkpt><trkpt lat="45.79684595654029" lon="15.901505131717988"><ele>119.33333333333333</ele><time>2026-05-05T06:53:42Z</time></trkpt><trkpt lat="45.79685308976497" lon="15.901389938099157"><ele>119.16666666666666</ele><time>2026-05-05T06:53:43Z</time></trkpt><trkpt lat="45.79686035536402" lon="15.901265220586176"><ele>119.0</ele><time>2026-05-05T06:53:44Z</time></trkpt><trkpt lat="45.79686914984734" lon="15.901128396386676"><ele>119.0</ele><time>2026-05-05T06:53:45Z</time></trkpt><trkpt lat="45.79687951290791" lon="15.900974142345419"><ele>119.0</ele><time>2026-05-05T06:53:46Z</time></trkpt><trkpt lat="45.796889974034265" lon="15.90080866606164"><ele>119.0</ele><time>2026-05-05T06:53:47Z</time></trkpt><trkpt lat="45.79690239923168" lon="15.90063835729284"><ele>119.0</ele><time>2026-05-05T06:53:48Z</time></trkpt><trkpt lat="45.79691492976577" lon="15.900458339007752"><ele>119.0</ele><time>2026-05-05T06:53:49Z</time></trkpt><trkpt lat="45.79692520782348" lon="15.90026928592565"><ele>119.0</ele><time>2026-05-05T06:53:50Z</time></trkpt><trkpt lat="45.79693392718878" lon="15.900071421026198"><ele>119.0</ele><time>2026-05-05T06:53:51Z</time></trkpt><trkpt lat="45.79694385700787" lon="15.89986695496856"><ele>119.0</ele><time>2026-05-05T06:53:52Z</time></trkpt><trkpt lat="45.796954372604795" lon="15.899662292332184"><ele>119.25</ele><time>2026-05-05T06:53:53Z</time></trkpt><trkpt lat="45.79696434895867" lon="15.899449426369916"><ele>119.5</ele><time>2026-05-05T06:53:54Z</time></trkpt><trkpt lat="45.79697336055188" lon="15.899239747694502"><ele>119.75</ele><time>2026-05-05T06:53:55Z</time></trkpt><trkpt lat="45.79698301736655" lon="15.899040577002555"><ele>120.0</ele><time>2026-05-05T06:53:56Z</time></trkpt><trkpt lat="45.7969928130059" lon="15.898847364122064"><ele>120.0</ele><time>2026-05-05T06:53:57Z</time></trkpt><trkpt lat="45.79700172109407" lon="15.898661440039518"><ele>120.0</ele><time>2026-05-05T06:53:58Z</time></trkpt><trkpt lat="45.79700942443293" lon="15.898475954163272"><ele>120.0</ele><time>2026-05-05T06:53:59Z</time></trkpt><trkpt lat="45.79701947012302" lon="15.898276538944542"><ele>120.0</ele><time>2026-05-05T06:54:00Z</time></trkpt><trkpt lat="45.79703017768363" lon="15.898068179451679"><ele>120.0</ele><time>2026-05-05T06:54:01Z</time></trkpt><trkpt lat="45.79704074601222" lon="15.897849011252854"><ele>120.0</ele><time>2026-05-05T06:54:02Z</time></trkpt><trkpt lat="45.79705184979675" lon="15.89763019119739"><ele>120.0</ele><time>2026-05-05T06:54:03Z</time></trkpt><trkpt lat="45.797062152769584" lon="15.897412613454836"><ele>119.66666666666666</ele><time>2026-05-05T06:54:04Z</time></trkpt><trkpt lat="45.79707142336627" lon="15.89719603486526"><ele>119.33333333333333</ele><time>2026-05-05T06:54:05Z</time></trkpt><trkpt lat="45.797079735672014" lon="15.896977257658303"><ele>119.0</ele><time>2026-05-05T06:54:06Z</time></trkpt><trkpt lat="45.797087136364354" lon="15.8967532587517"><ele>119.0</ele><time>2026-05-05T06:54:07Z</time></trkpt><trkpt lat="45.797092110951645" lon="15.89652069186436"><ele>119.0</ele><time>2026-05-05T06:54:08Z</time></trkpt><trkpt lat="45.7970948097328" lon="15.89629148999615"><ele>119.0</ele><time>2026-05-05T06:54:09Z</time></trkpt><trkpt lat="45.7971033614427" lon="15.896055136358687"><ele>119.0</ele><time>2026-05-05T06:54:10Z</time></trkpt><trkpt lat="45.79710865871458" lon="15.895816070783535"><ele>119.0</ele><time>2026-05-05T06:54:11Z</time></trkpt><trkpt lat="45.79711732335341" lon="15.895571636201954"><ele>119.0</ele><time>2026-05-05T06:54:12Z</time></trkpt><trkpt lat="45.79713005690212" lon="15.895327583507862"><ele>119.0</ele><time>2026-05-05T06:54:13Z</time></trkpt><trkpt lat="45.79713899645449" lon="15.895093233431878"><ele>119.0</ele><time>2026-05-05T06:54:14Z</time></trkpt><trkpt lat="45.79714571543063" lon="15.89486414783895"><ele>119.0</ele><time>2026-05-05T06:54:15Z</time></trkpt><trkpt lat="45.797152317371015" lon="15.894631401020893"><ele>118.66666666666666</ele><time>2026-05-05T06:54:16Z</time></trkpt><trkpt lat="45.79715859392342" lon="15.894389420161975"><ele>118.33333333333334</ele><time>2026-05-05T06:54:17Z</time></trkpt><trkpt lat="45.79716692616525" lon="15.894147326914831"><ele>118.0</ele><time>2026-05-05T06:54:18Z</time></trkpt><trkpt lat="45.79717330616657" lon="15.893897569430505"><ele>119.0</ele><time>2026-05-05T06:54:19Z</time></trkpt><trkpt lat="45.797185549287974" lon="15.893650367045094"><ele>120.0</ele><time>2026-05-05T06:54:20Z</time></trkpt><trkpt lat="45.79719569123047" lon="15.893400918732068"><ele>121.0</ele><time>2026-05-05T06:54:21Z</time></trkpt><trkpt lat="45.79720320222432" lon="15.893154889906574"><ele>121.33333333333334</ele><time>2026-05-05T06:54:22Z</time></trkpt><trkpt lat="45.797211204320995" lon="15.892917837309888"><ele>121.66666666666666</ele><time>2026-05-05T06:54:23Z</time></trkpt><trkpt lat="45.79721771879383" lon="15.892680850809006"><ele>122.0</ele><time>2026-05-05T06:54:24Z</time></trkpt><trkpt lat="45.79721865092093" lon="15.89244288354739"><ele>121.5</ele><time>2026-05-05T06:54:25Z</time></trkpt><trkpt lat="45.797217377748495" lon="15.892215767015621"><ele>121.0</ele><time>2026-05-05T06:54:26Z</time></trkpt><trkpt lat="45.797214256039936" lon="15.892022335456076"><ele>120.5</ele><time>2026-05-05T06:54:27Z</time></trkpt><trkpt lat="45.7972157636598" lon="15.89186091244078"><ele>120.0</ele><time>2026-05-05T06:54:28Z</time></trkpt><trkpt lat="45.79721957625314" lon="15.891731154842544"><ele>119.66666666666667</ele><time>2026-05-05T06:54:29Z</time></trkpt><trkpt lat="45.7972238525693" lon="15.8916079046672"><ele>119.33333333333334</ele><time>2026-05-05T06:54:30Z</time></trkpt><trkpt lat="45.79723456268123" lon="15.891488323419058"><ele>119.0</ele><time>2026-05-05T06:54:31Z</time></trkpt><trkpt lat="45.79724499326352" lon="15.891361713865745"><ele>118.66666666666667</ele><time>2026-05-05T06:54:32Z</time></trkpt><trkpt lat="45.7972560352424" lon="15.891231274475482"><ele>118.33333333333334</ele><time>2026-05-05T06:54:33Z</time></trkpt><trkpt lat="45.79726099675188" lon="15.891112102169615"><ele>118.0</ele><time>2026-05-05T06:54:34Z</time></trkpt><trkpt lat="45.797262251163296" lon="15.89101421368173"><ele>118.0</ele><time>2026-05-05T06:54:35Z</time></trkpt><trkpt lat="45.79725787242963" lon="15.89082679685383"><ele>118.00000000000001</ele><time>2026-05-05T06:54:37Z</time></trkpt><trkpt lat="45.79725993481892" lon="15.89070350118342"><ele>118.00000000000001</ele><time>2026-05-05T06:54:38Z</time></trkpt><trkpt lat="45.79725984501742" lon="15.890595983725634"><ele>118.0</ele><time>2026-05-05T06:54:39Z</time></trkpt><trkpt lat="45.797263416739916" lon="15.890498650767556"><ele>118.0</ele><time>2026-05-05T06:54:40Z</time></trkpt><trkpt lat="45.79727171889728" lon="15.8903538281635"><ele>118.0</ele><time>2026-05-05T06:54:42Z</time></trkpt><trkpt lat="45.79727031005558" lon="15.890257055253107"><ele>118.00000000000001</ele><time>2026-05-05T06:54:44Z</time></trkpt><trkpt lat="45.7972646828753" lon="15.89013961362993"><ele>118.00000000000001</ele><time>2026-05-05T06:54:46Z</time></trkpt><trkpt lat="45.797258173089126" lon="15.889989954643283"><ele>118.0</ele><time>2026-05-05T06:54:48Z</time></trkpt><trkpt lat="45.79725831321344" lon="15.889803595854408"><ele>118.0</ele><time>2026-05-05T06:54:50Z</time></trkpt><trkpt lat="45.79726504208927" lon="15.889662982235048"><ele>118.25</ele><time>2026-05-05T06:54:51Z</time></trkpt><trkpt lat="45.79727031156678" lon="15.889501684284275"><ele>118.5</ele><time>2026-05-05T06:54:52Z</time></trkpt><trkpt lat="45.79727551035748" lon="15.88933274549591"><ele>118.75</ele><time>2026-05-05T06:54:53Z</time></trkpt><trkpt lat="45.79728059147416" lon="15.88914309020148"><ele>119.0</ele><time>2026-05-05T06:54:54Z</time></trkpt><trkpt lat="45.79728372636489" lon="15.889000884793306"><ele>118.99999999999999</ele><time>2026-05-05T06:54:55Z</time></trkpt><trkpt lat="45.797288524420345" lon="15.888867326335319"><ele>119.0</ele><time>2026-05-05T06:54:56Z</time></trkpt><trkpt lat="45.79728778252906" lon="15.888739688552931"><ele>119.0</ele><time>2026-05-05T06:54:57Z</time></trkpt><trkpt lat="45.79728274180741" lon="15.88861909935885"><ele>119.0</ele><time>2026-05-05T06:54:58Z</time></trkpt><trkpt lat="45.797281883919126" lon="15.88850504407865"><ele>118.99999999999999</ele><time>2026-05-05T06:54:59Z</time></trkpt><trkpt lat="45.797281937673596" lon="15.888398685569534"><ele>119.0</ele><time>2026-05-05T06:55:00Z</time></trkpt><trkpt lat="45.79728111279256" lon="15.888291637502405"><ele>118.66666666666666</ele><time>2026-05-05T06:55:01Z</time></trkpt><trkpt lat="45.797282477168025" lon="15.888177375351523"><ele>118.33333333333333</ele><time>2026-05-05T06:55:02Z</time></trkpt><trkpt lat="45.79728586186548" lon="15.888070705986536"><ele>118.0</ele><time>2026-05-05T06:55:03Z</time></trkpt><trkpt lat="45.79728763058191" lon="15.887975217281653"><ele>117.66666666666666</ele><time>2026-05-05T06:55:04Z</time></trkpt><trkpt lat="45.79729051531558" lon="15.887882412762865"><ele>117.33333333333333</ele><time>2026-05-05T06:55:05Z</time></trkpt><trkpt lat="45.79729233414331" lon="15.887726607161426"><ele>117.0</ele><time>2026-05-05T06:55:07Z</time></trkpt><trkpt lat="45.79730346827877" lon="15.887594252272446"><ele>117.19999999999999</ele><time>2026-05-05T06:55:09Z</time></trkpt><trkpt lat="45.79729771347642" lon="15.887490974817405"><ele>117.39999999999999</ele><time>2026-05-05T06:55:11Z</time></trkpt><trkpt lat="45.7973001010327" lon="15.88738939353029"><ele>117.60000000000001</ele><time>2026-05-05T06:55:13Z</time></trkpt><trkpt lat="45.79729909470729" lon="15.887255075223969"><ele>117.80000000000001</ele><time>2026-05-05T06:55:15Z</time></trkpt><trkpt lat="45.79729709543065" lon="15.887065470651725"><ele>118.0</ele><time>2026-05-05T06:55:17Z</time></trkpt><trkpt lat="45.79730176709923" lon="15.886945545124794"><ele>118.00000000000001</ele><time>2026-05-05T06:55:18Z</time></trkpt><trkpt lat="45.79730511705089" lon="15.886787220940048"><ele>118.0</ele><time>2026-05-05T06:55:19Z</time></trkpt><trkpt lat="45.79730477652015" lon="15.886654153623475"><ele>118.0</ele><time>2026-05-05T06:55:20Z</time></trkpt><trkpt lat="45.797308117970566" lon="15.886526246783133"><ele>118.0</ele><time>2026-05-05T06:55:21Z</time></trkpt><trkpt lat="45.79731463694705" lon="15.886416255023683"><ele>118.00000000000001</ele><time>2026-05-05T06:55:22Z</time></trkpt><trkpt lat="45.797316395745284" lon="15.886320286950033"><ele>118.0</ele><time>2026-05-05T06:55:23Z</time></trkpt><trkpt lat="45.79732042033036" lon="15.886141362448015"><ele>118.16666666666667</ele><time>2026-05-05T06:55:25Z</time></trkpt><trkpt lat="45.79732322810783" lon="15.886044727118241"><ele>118.33333333333334</ele><time>2026-05-05T06:55:26Z</time></trkpt><trkpt lat="45.79732318947714" lon="15.885949896413932"><ele>118.5</ele><time>2026-05-05T06:55:27Z</time></trkpt><trkpt lat="45.797326832378744" lon="15.885812479155451"><ele>118.66666666666666</ele><time>2026-05-05T06:55:29Z</time></trkpt><trkpt lat="45.797324294572924" lon="15.885714144245235"><ele>118.83333333333333</ele><time>2026-05-05T06:55:31Z</time></trkpt><trkpt lat="45.79732591203337" lon="15.885617721697804"><ele>119.0</ele><time>2026-05-05T06:55:33Z</time></trkpt><trkpt lat="45.79732868849042" lon="15.885496772738215"><ele>118.99999999999999</ele><time>2026-05-05T06:55:36Z</time></trkpt><trkpt lat="45.79733186202246" lon="15.885368534660685"><ele>119.0</ele><time>2026-05-05T06:55:38Z</time></trkpt><trkpt lat="45.7973349675369" lon="15.885221824863569"><ele>119.0</ele><time>2026-05-05T06:55:40Z</time></trkpt><trkpt lat="45.797337832858666" lon="15.885063782947887"><ele>119.0</ele><time>2026-05-05T06:55:42Z</time></trkpt><trkpt lat="45.797337511380995" lon="15.884969551703767"><ele>118.99999999999999</ele><time>2026-05-05T06:55:43Z</time></trkpt><trkpt lat="45.79733876763189" lon="15.884859233050106"><ele>119.0</ele><time>2026-05-05T06:55:44Z</time></trkpt><trkpt lat="45.79733986939817" lon="15.884736955037614"><ele>118.99999999999999</ele><time>2026-05-05T06:55:45Z</time></trkpt><trkpt lat="45.79734233447206" lon="15.884612807047242"><ele>119.0</ele><time>2026-05-05T06:55:46Z</time></trkpt><trkpt lat="45.79734713329888" lon="15.884484607760282"><ele>119.0</ele><time>2026-05-05T06:55:47Z</time></trkpt><trkpt lat="45.79735001540977" lon="15.884352983469917"><ele>119.0</ele><time>2026-05-05T06:55:48Z</time></trkpt><trkpt lat="45.797352798424996" lon="15.884216738378134"><ele>118.99999999999999</ele><time>2026-05-05T06:55:49Z</time></trkpt><trkpt lat="45.797355466755334" lon="15.884093507493658"><ele>119.0</ele><time>2026-05-05T06:55:50Z</time></trkpt><trkpt lat="45.79735885275496" lon="15.883980031561803"><ele>118.99999999999999</ele><time>2026-05-05T06:55:51Z</time></trkpt><trkpt lat="45.79735856604404" lon="15.88387363134863"><ele>119.0</ele><time>2026-05-05T06:55:52Z</time></trkpt><trkpt lat="45.797358955898034" lon="15.883773495479137"><ele>119.0</ele><time>2026-05-05T06:55:53Z</time></trkpt><trkpt lat="45.797360988718054" lon="15.883670434679523"><ele>119.0</ele><time>2026-05-05T06:55:54Z</time></trkpt><trkpt lat="45.797364925886555" lon="15.883567574006744"><ele>118.99999999999999</ele><time>2026-05-05T06:55:55Z</time></trkpt><trkpt lat="45.79736705471217" lon="15.883450021135436"><ele>119.0</ele><time>2026-05-05T06:55:56Z</time></trkpt><trkpt lat="45.79736890722182" lon="15.883326244635805"><ele>118.99999999999999</ele><time>2026-05-05T06:55:57Z</time></trkpt><trkpt lat="45.79736975558979" lon="15.883205400644222"><ele>119.0</ele><time>2026-05-05T06:55:58Z</time></trkpt><trkpt lat="45.79737370586139" lon="15.883085297526533"><ele>119.0</ele><time>2026-05-05T06:55:59Z</time></trkpt><trkpt lat="45.79737838435961" lon="15.88297236711939"><ele>119.0</ele><time>2026-05-05T06:56:00Z</time></trkpt><trkpt lat="45.79737942841647" lon="15.882867152082072"><ele>118.99999999999999</ele><time>2026-05-05T06:56:01Z</time></trkpt><trkpt lat="45.79738373750019" lon="15.882772334636684"><ele>119.0</ele><time>2026-05-05T06:56:02Z</time></trkpt><trkpt lat="45.797380433006836" lon="15.882670817846815"><ele>118.99999999999999</ele><time>2026-05-05T06:56:03Z</time></trkpt><trkpt lat="45.79738465405881" lon="15.882552494527362"><ele>119.0</ele><time>2026-05-05T06:56:04Z</time></trkpt><trkpt lat="45.7973862152138" lon="15.882440393325568"><ele>119.0</ele><time>2026-05-05T06:56:05Z</time></trkpt><trkpt lat="45.79738963495797" lon="15.882326076833284"><ele>119.0</ele><time>2026-05-05T06:56:06Z</time></trkpt><trkpt lat="45.79739448230199" lon="15.882207331089477"><ele>118.99999999999999</ele><time>2026-05-05T06:56:07Z</time></trkpt><trkpt lat="45.79739768582252" lon="15.882083211375303"><ele>119.0</ele><time>2026-05-05T06:56:08Z</time></trkpt><trkpt lat="45.79739978089858" lon="15.8819674420005"><ele>118.99999999999999</ele><time>2026-05-05T06:56:09Z</time></trkpt><trkpt lat="45.797401384335785" lon="15.881862970392278"><ele>119.0</ele><time>2026-05-05T06:56:10Z</time></trkpt><trkpt lat="45.79740189098584" lon="15.881759159483886"><ele>119.0</ele><time>2026-05-05T06:56:11Z</time></trkpt><trkpt lat="45.79740263108166" lon="15.881666502938454"><ele>119.0</ele><time>2026-05-05T06:56:12Z</time></trkpt><trkpt lat="45.79740548718191" lon="15.881493759636262"><ele>118.99999999999999</ele><time>2026-05-05T06:56:14Z</time></trkpt><trkpt lat="45.79740947270477" lon="15.881345915232476"><ele>119.0</ele><time>2026-05-05T06:56:16Z</time></trkpt><trkpt lat="45.79741281557199" lon="15.881188715055297"><ele>119.0</ele><time>2026-05-05T06:56:18Z</time></trkpt><trkpt lat="45.7974135582645" lon="15.881016356725945"><ele>119.0</ele><time>2026-05-05T06:56:20Z</time></trkpt><trkpt lat="45.79741468545372" lon="15.880916403251689"><ele>119.0</ele><time>2026-05-05T06:56:21Z</time></trkpt><trkpt lat="45.7974170950515" lon="15.880820502154764"><ele>119.0</ele><time>2026-05-05T06:56:22Z</time></trkpt><trkpt lat="45.797418793024185" lon="15.880659203291385"><ele>119.0</ele><time>2026-05-05T06:56:24Z</time></trkpt><trkpt lat="45.797421085328594" lon="15.880517367467231"><ele>118.99999999999999</ele><time>2026-05-05T06:56:26Z</time></trkpt><trkpt lat="45.79742413470971" lon="15.880349423674588"><ele>119.0</ele><time>2026-05-05T06:56:28Z</time></trkpt><trkpt lat="45.797424138121436" lon="15.880245481701278"><ele>119.0</ele><time>2026-05-05T06:56:29Z</time></trkpt><trkpt lat="45.79742474172144" lon="15.880142766821734"><ele>119.0</ele><time>2026-05-05T06:56:30Z</time></trkpt><trkpt lat="45.797428016209516" lon="15.88004744607545"><ele>118.99999999999999</ele><time>2026-05-05T06:56:31Z</time></trkpt><trkpt lat="45.79743108068828" lon="15.87995221879528"><ele>119.0</ele><time>2026-05-05T06:56:32Z</time></trkpt><trkpt lat="45.79743084180799" lon="15.879785070872227"><ele>118.99999999999999</ele><time>2026-05-05T06:56:34Z</time></trkpt><trkpt lat="45.79743651232484" lon="15.879637744509845"><ele>119.0</ele><time>2026-05-05T06:56:36Z</time></trkpt><trkpt lat="45.797441026488" lon="15.879533981649418"><ele>119.0</ele><time>2026-05-05T06:56:39Z</time></trkpt><trkpt lat="45.7974418787207" lon="15.879431740740909"><ele>119.0</ele><time>2026-05-05T06:56:42Z</time></trkpt><trkpt lat="45.79744324287915" lon="15.87934054543315"><ele>118.99999999999999</ele><time>2026-05-05T06:56:44Z</time></trkpt><trkpt lat="45.7974475389055" lon="15.87921008194351"><ele>119.0</ele><time>2026-05-05T06:56:46Z</time></trkpt><trkpt lat="45.79744245998376" lon="15.879029748584145"><ele>118.80000000000001</ele><time>2026-05-05T06:56:48Z</time></trkpt><trkpt lat="45.79744226013022" lon="15.878933308013808"><ele>118.60000000000001</ele><time>2026-05-05T06:56:49Z</time></trkpt><trkpt lat="45.79744810802001" lon="15.8787598393729"><ele>118.4</ele><time>2026-05-05T06:56:51Z</time></trkpt><trkpt lat="45.79744782419588" lon="15.8786669437607"><ele>118.2</ele><time>2026-05-05T06:56:52Z</time></trkpt><trkpt lat="45.79744985350855" lon="15.878483523916843"><ele>118.0</ele><time>2026-05-05T06:56:54Z</time></trkpt><trkpt lat="45.797452290594556" lon="15.878376171726167"><ele>118.33333333333334</ele><time>2026-05-05T06:56:55Z</time></trkpt><trkpt lat="45.797452054268085" lon="15.878278574959275"><ele>118.66666666666667</ele><time>2026-05-05T06:56:56Z</time></trkpt><trkpt lat="45.79746044526385" lon="15.87810799803876"><ele>119.0</ele><time>2026-05-05T06:56:58Z</time></trkpt><trkpt lat="45.79746345029728" lon="15.877958154718785"><ele>119.33333333333334</ele><time>2026-05-05T06:57:00Z</time></trkpt><trkpt lat="45.797468065768776" lon="15.877862712489268"><ele>119.66666666666667</ele><time>2026-05-05T06:57:01Z</time></trkpt><trkpt lat="45.797469961795976" lon="15.877738495053446"><ele>120.0</ele><time>2026-05-05T06:57:02Z</time></trkpt><trkpt lat="45.79746986786397" lon="15.877615954344103"><ele>120.16666666666667</ele><time>2026-05-05T06:57:03Z</time></trkpt><trkpt lat="45.7974676641461" lon="15.87748813231486"><ele>120.33333333333334</ele><time>2026-05-05T06:57:04Z</time></trkpt><trkpt lat="45.797470189007846" lon="15.877374818737378"><ele>120.5</ele><time>2026-05-05T06:57:05Z</time></trkpt><trkpt lat="45.7974743090255" lon="15.877277554636144"><ele>120.66666666666667</ele><time>2026-05-05T06:57:06Z</time></trkpt><trkpt lat="45.797477645226294" lon="15.877180623626183"><ele>120.83333333333334</ele><time>2026-05-05T06:57:07Z</time></trkpt><trkpt lat="45.797479370290674" lon="15.877068986394947"><ele>121.0</ele><time>2026-05-05T06:57:08Z</time></trkpt><trkpt lat="45.797479174544975" lon="15.876957987995771"><ele>121.00000000000001</ele><time>2026-05-05T06:57:09Z</time></trkpt><trkpt lat="45.797479082504445" lon="15.876847517931784"><ele>121.0</ele><time>2026-05-05T06:57:10Z</time></trkpt><trkpt lat="45.79748514331829" lon="15.876737694357477"><ele>121.0</ele><time>2026-05-05T06:57:11Z</time></trkpt><trkpt lat="45.79749038764145" lon="15.876621742093766"><ele>121.0</ele><time>2026-05-05T06:57:12Z</time></trkpt><trkpt lat="45.797492676445934" lon="15.87651064470899"><ele>121.00000000000001</ele><time>2026-05-05T06:57:13Z</time></trkpt><trkpt lat="45.797497134040015" lon="15.87636942342735"><ele>121.0</ele><time>2026-05-05T06:57:15Z</time></trkpt><trkpt lat="45.79749795444809" lon="15.87627644996326"><ele>121.00000000000001</ele><time>2026-05-05T06:57:17Z</time></trkpt><trkpt lat="45.79749526072994" lon="15.876177583531947"><ele>121.0</ele><time>2026-05-05T06:57:19Z</time></trkpt><trkpt lat="45.797494026803726" lon="15.876073949435362"><ele>121.0</ele><time>2026-05-05T06:57:21Z</time></trkpt><trkpt lat="45.79749277118633" lon="15.875956531202313"><ele>121.0</ele><time>2026-05-05T06:57:23Z</time></trkpt><trkpt lat="45.79749500420485" lon="15.875825247140867"><ele>121.00000000000001</ele><time>2026-05-05T06:57:25Z</time></trkpt><trkpt lat="45.79748993039485" lon="15.875727139296092"><ele>121.0</ele><time>2026-05-05T06:57:28Z</time></trkpt><trkpt lat="45.79749416752884" lon="15.8756255376918"><ele>121.0</ele><time>2026-05-05T06:57:33Z</time></trkpt><trkpt lat="45.79749438610853" lon="15.875492077828692"><ele>121.0</ele><time>2026-05-05T06:57:35Z</time></trkpt><trkpt lat="45.79748635827975" lon="15.875398761263764"><ele>121.0</ele><time>2026-05-05T06:57:37Z</time></trkpt><trkpt lat="45.79749493224112" lon="15.87527496434321"><ele>121.0</ele><time>2026-05-05T06:57:40Z</time></trkpt><trkpt lat="45.797491063300335" lon="15.87515978308074"><ele>121.0</ele><time>2026-05-05T06:57:42Z</time></trkpt><trkpt lat="45.797490421712034" lon="15.874973282645522"><ele>121.00000000000001</ele><time>2026-05-05T06:57:44Z</time></trkpt><trkpt lat="45.79749017391324" lon="15.874882441570387"><ele>121.0</ele><time>2026-05-05T06:57:45Z</time></trkpt><trkpt lat="45.79749265858484" lon="15.87472018611234"><ele>121.0</ele><time>2026-05-05T06:57:47Z</time></trkpt><trkpt lat="45.79749429948043" lon="15.874596618038007"><ele>121.0</ele><time>2026-05-05T06:57:49Z</time></trkpt><trkpt lat="45.79749123345887" lon="15.87449777543046"><ele>121.00000000000001</ele><time>2026-05-05T06:57:52Z</time></trkpt><trkpt lat="45.797480566223236" lon="15.874370091545913"><ele>121.0</ele><time>2026-05-05T06:57:55Z</time></trkpt><trkpt lat="45.797476471154745" lon="15.874242422433111"><ele>121.19999999999999</ele><time>2026-05-05T06:57:57Z</time></trkpt><trkpt lat="45.79747305818374" lon="15.874077383235068"><ele>121.39999999999999</ele><time>2026-05-05T06:57:59Z</time></trkpt><trkpt lat="45.79746833304982" lon="15.873925854869576"><ele>121.6</ele><time>2026-05-05T06:58:01Z</time></trkpt><trkpt lat="45.797467347957515" lon="15.873831698451093"><ele>121.8</ele><time>2026-05-05T06:58:03Z</time></trkpt><trkpt lat="45.79746057972466" lon="15.87370675867883"><ele>122.0</ele><time>2026-05-05T06:58:05Z</time></trkpt><trkpt lat="45.79745253475624" lon="15.873571852872882"><ele>122.0</ele><time>2026-05-05T06:58:07Z</time></trkpt><trkpt lat="45.79744556923662" lon="15.87345017641511"><ele>121.99999999999999</ele><time>2026-05-05T06:58:09Z</time></trkpt><trkpt lat="45.79744432598014" lon="15.873351246443265"><ele>121.99999999999999</ele><time>2026-05-05T06:58:11Z</time></trkpt><trkpt lat="45.79743618527646" lon="15.873223617110934"><ele>122.0</ele><time>2026-05-05T06:58:13Z</time></trkpt><trkpt lat="45.797427867650285" lon="15.873055109323671"><ele>122.0</ele><time>2026-05-05T06:58:15Z</time></trkpt><trkpt lat="45.797422824957856" lon="15.872884670128453"><ele>121.6</ele><time>2026-05-05T06:58:17Z</time></trkpt><trkpt lat="45.79741878338887" lon="15.872735622342079"><ele>121.19999999999999</ele><time>2026-05-05T06:58:19Z</time></trkpt><trkpt lat="45.7974042201336" lon="15.87259426689514"><ele>120.8</ele><time>2026-05-05T06:58:21Z</time></trkpt><trkpt lat="45.7973923248212" lon="15.872450082353623"><ele>120.4</ele><time>2026-05-05T06:58:23Z</time></trkpt><trkpt lat="45.797385142505355" lon="15.87230097841731"><ele>120.0</ele><time>2026-05-05T06:58:25Z</time></trkpt><trkpt lat="45.797381296522495" lon="15.872197171013656"><ele>120.0</ele><time>2026-05-05T06:58:27Z</time></trkpt><trkpt lat="45.79737525839096" lon="15.872099856984283"><ele>120.0</ele><time>2026-05-05T06:58:30Z</time></trkpt><trkpt lat="45.79736918643831" lon="15.871981209141731"><ele>120.0</ele><time>2026-05-05T06:58:33Z</time></trkpt><trkpt lat="45.79736166983062" lon="15.87188966386508"><ele>120.0</ele><time>2026-05-05T06:58:37Z</time></trkpt><trkpt lat="45.79735407168075" lon="15.871797664573007"><ele>120.0</ele><time>2026-05-05T06:58:41Z</time></trkpt><trkpt lat="45.797338279836694" lon="15.871641102250106"><ele>120.0</ele><time>2026-05-05T06:58:44Z</time></trkpt><trkpt lat="45.79732295836388" lon="15.871541728698974"><ele>120.2</ele><time>2026-05-05T06:58:45Z</time></trkpt><trkpt lat="45.7973140835403" lon="15.871423646267305"><ele>120.4</ele><time>2026-05-05T06:58:46Z</time></trkpt><trkpt lat="45.79730941877751" lon="15.871325952293315"><ele>120.6</ele><time>2026-05-05T06:58:47Z</time></trkpt><trkpt lat="45.797300871705794" lon="15.871188619695962"><ele>120.8</ele><time>2026-05-05T06:58:49Z</time></trkpt><trkpt lat="45.79728441332864" lon="15.871044680328342"><ele>121.0</ele><time>2026-05-05T06:58:51Z</time></trkpt><trkpt lat="45.79726509290466" lon="15.870872965764589"><ele>121.50000000000001</ele><time>2026-05-05T06:58:53Z</time></trkpt><trkpt lat="45.79724759003331" lon="15.870694936925027"><ele>122.0</ele><time>2026-05-05T06:58:55Z</time></trkpt><trkpt lat="45.79724256555488" lon="15.870599418962488"><ele>122.5</ele><time>2026-05-05T06:58:56Z</time></trkpt><trkpt lat="45.7972317431111" lon="15.870507990559103"><ele>123.0</ele><time>2026-05-05T06:58:57Z</time></trkpt><trkpt lat="45.797219050790666" lon="15.87041694569922"><ele>123.50000000000001</ele><time>2026-05-05T06:58:58Z</time></trkpt><trkpt lat="45.79720986915707" lon="15.87031935752236"><ele>124.0</ele><time>2026-05-05T06:58:59Z</time></trkpt><trkpt lat="45.79719365657017" lon="15.870149729382865"><ele>124.16666666666667</ele><time>2026-05-05T06:59:01Z</time></trkpt><trkpt lat="45.79718227116181" lon="15.870060663465791"><ele>124.33333333333334</ele><time>2026-05-05T06:59:02Z</time></trkpt><trkpt lat="45.7971608666228" lon="15.869893234638932"><ele>124.5</ele><time>2026-05-05T06:59:04Z</time></trkpt><trkpt lat="45.797147898938285" lon="15.869797723335378"><ele>124.66666666666666</ele><time>2026-05-05T06:59:05Z</time></trkpt><trkpt lat="45.79713522031674" lon="15.86969747516697"><ele>124.83333333333333</ele><time>2026-05-05T06:59:06Z</time></trkpt><trkpt lat="45.797123270986866" lon="15.869603250323301"><ele>125.0</ele><time>2026-05-05T06:59:07Z</time></trkpt><trkpt lat="45.79711214085036" lon="15.869511561677449"><ele>125.0</ele><time>2026-05-05T06:59:08Z</time></trkpt><trkpt lat="45.797090403043136" lon="15.869342785772922"><ele>125.0</ele><time>2026-05-05T06:59:10Z</time></trkpt><trkpt lat="45.797073880132004" lon="15.869181835601335"><ele>125.0</ele><time>2026-05-05T06:59:12Z</time></trkpt><trkpt lat="45.797044770649705" lon="15.86901844581292"><ele>125.0</ele><time>2026-05-05T06:59:14Z</time></trkpt><trkpt lat="45.79703805671696" lon="15.868915935929978"><ele>125.0</ele><time>2026-05-05T06:59:15Z</time></trkpt><trkpt lat="45.797020862973724" lon="15.868824743881667"><ele>124.66666666666666</ele><time>2026-05-05T06:59:16Z</time></trkpt><trkpt lat="45.797003318344075" lon="15.868713791870467"><ele>124.33333333333333</ele><time>2026-05-05T06:59:17Z</time></trkpt><trkpt lat="45.796987534134836" lon="15.868610956468851"><ele>124.0</ele><time>2026-05-05T06:59:18Z</time></trkpt><trkpt lat="45.79697318482158" lon="15.868503555474355"><ele>123.66666666666666</ele><time>2026-05-05T06:59:19Z</time></trkpt><trkpt lat="45.79695770336033" lon="15.86839802411238"><ele>123.33333333333333</ele><time>2026-05-05T06:59:20Z</time></trkpt><trkpt lat="45.79694277014336" lon="15.868298231147227"><ele>123.0</ele><time>2026-05-05T06:59:21Z</time></trkpt><trkpt lat="45.79692401793876" lon="15.868192445054145"><ele>122.71428571428572</ele><time>2026-05-05T06:59:22Z</time></trkpt><trkpt lat="45.79690646673849" lon="15.868090955194146"><ele>122.42857142857143</ele><time>2026-05-05T06:59:23Z</time></trkpt><trkpt lat="45.79689278574878" lon="15.86800148974247"><ele>122.14285714285714</ele><time>2026-05-05T06:59:24Z</time></trkpt><trkpt lat="45.79687920779231" lon="15.867904341663758"><ele>121.85714285714286</ele><time>2026-05-05T06:59:25Z</time></trkpt><trkpt lat="45.79686462897823" lon="15.867814644286874"><ele>121.57142857142856</ele><time>2026-05-05T06:59:26Z</time></trkpt><trkpt lat="45.79684846453121" lon="15.867725270973118"><ele>121.28571428571428</ele><time>2026-05-05T06:59:27Z</time></trkpt><trkpt lat="45.796834655209885" lon="15.86763267503792"><ele>121.0</ele><time>2026-05-05T06:59:28Z</time></trkpt><trkpt lat="45.796820362693495" lon="15.867540180778416"><ele>121.00000000000001</ele><time>2026-05-05T06:59:29Z</time></trkpt><trkpt lat="45.79678091304132" lon="15.867360616131283"><ele>121.0</ele><time>2026-05-05T06:59:31Z</time></trkpt><trkpt lat="45.79676258276776" lon="15.867254749880516"><ele>121.0</ele><time>2026-05-05T06:59:32Z</time></trkpt><trkpt lat="45.796746547995504" lon="15.867154770023173"><ele>121.0</ele><time>2026-05-05T06:59:33Z</time></trkpt><trkpt lat="45.79672764012348" lon="15.86704356913253"><ele>121.00000000000001</ele><time>2026-05-05T06:59:34Z</time></trkpt><trkpt lat="45.79671506472041" lon="15.866933028443462"><ele>121.0</ele><time>2026-05-05T06:59:35Z</time></trkpt><trkpt lat="45.79669120266736" lon="15.86683461676865"><ele>120.83333333333334</ele><time>2026-05-05T06:59:36Z</time></trkpt><trkpt lat="45.79667117455724" lon="15.866731874899497"><ele>120.66666666666667</ele><time>2026-05-05T06:59:37Z</time></trkpt><trkpt lat="45.796648570865" lon="15.866630539432538"><ele>120.5</ele><time>2026-05-05T06:59:38Z</time></trkpt><trkpt lat="45.796630162522405" lon="15.866544148765898"><ele>120.33333333333334</ele><time>2026-05-05T06:59:39Z</time></trkpt><trkpt lat="45.79659299473021" lon="15.866359086533341"><ele>120.16666666666667</ele><time>2026-05-05T06:59:41Z</time></trkpt><trkpt lat="45.79657003841268" lon="15.866252201006661"><ele>120.0</ele><time>2026-05-05T06:59:42Z</time></trkpt><trkpt lat="45.796551042309915" lon="15.866144477685681"><ele>120.0</ele><time>2026-05-05T06:59:43Z</time></trkpt><trkpt lat="45.796528693017585" lon="15.866034330367857"><ele>120.0</ele><time>2026-05-05T06:59:44Z</time></trkpt><trkpt lat="45.79650571851707" lon="15.865922422037444"><ele>120.0</ele><time>2026-05-05T06:59:45Z</time></trkpt><trkpt lat="45.79647944180209" lon="15.86580855273853"><ele>120.0</ele><time>2026-05-05T06:59:46Z</time></trkpt><trkpt lat="45.79644994119671" lon="15.865681448972326"><ele>120.0</ele><time>2026-05-05T06:59:47Z</time></trkpt><trkpt lat="45.79642492488039" lon="15.865567317015671"><ele>120.0</ele><time>2026-05-05T06:59:48Z</time></trkpt><trkpt lat="45.796399690144305" lon="15.86547050146853"><ele>119.83333333333333</ele><time>2026-05-05T06:59:49Z</time></trkpt><trkpt lat="45.79638065597139" lon="15.86537367875197"><ele>119.66666666666666</ele><time>2026-05-05T06:59:50Z</time></trkpt><trkpt lat="45.796358896455544" lon="15.865280052272222"><ele>119.5</ele><time>2026-05-05T06:59:51Z</time></trkpt><trkpt lat="45.79633347664873" lon="15.865171263302752"><ele>119.33333333333333</ele><time>2026-05-05T06:59:52Z</time></trkpt><trkpt lat="45.79630114859369" lon="15.865030945076937"><ele>119.16666666666666</ele><time>2026-05-05T06:59:53Z</time></trkpt><trkpt lat="45.79627840979157" lon="15.864920543321999"><ele>119.0</ele><time>2026-05-05T06:59:54Z</time></trkpt><trkpt lat="45.7962512369472" lon="15.864825761889092"><ele>118.85714285714286</ele><time>2026-05-05T06:59:55Z</time></trkpt><trkpt lat="45.796230750443556" lon="15.864737267173462"><ele>118.71428571428572</ele><time>2026-05-05T06:59:56Z</time></trkpt><trkpt lat="45.796207136942215" lon="15.864639954103723"><ele>118.57142857142857</ele><time>2026-05-05T06:59:57Z</time></trkpt><trkpt lat="45.79618511572661" lon="15.864544411671087"><ele>118.42857142857143</ele><time>2026-05-05T06:59:58Z</time></trkpt><trkpt lat="45.79615869976916" lon="15.864449782441508"><ele>118.28571428571429</ele><time>2026-05-05T06:59:59Z</time></trkpt><trkpt lat="45.796136362163736" lon="15.864361737461843"><ele>118.14285714285714</ele><time>2026-05-05T07:00:00Z</time></trkpt><trkpt lat="45.79611127465335" lon="15.864276305591249"><ele>118.0</ele><time>2026-05-05T07:00:01Z</time></trkpt><trkpt lat="45.796073847156904" lon="15.864134067990097"><ele>118.00000000000001</ele><time>2026-05-05T07:00:03Z</time></trkpt><trkpt lat="45.79604559883303" lon="15.864025795178724"><ele>118.0</ele><time>2026-05-05T07:00:05Z</time></trkpt><trkpt lat="45.79601860088431" lon="15.863935402068305"><ele>118.0</ele><time>2026-05-05T07:00:07Z</time></trkpt><trkpt lat="45.79599440628922" lon="15.863841664303525"><ele>118.0</ele><time>2026-05-05T07:00:10Z</time></trkpt><trkpt lat="45.79596069922932" lon="15.863705703341914"><ele>118.00000000000001</ele><time>2026-05-05T07:00:12Z</time></trkpt><trkpt lat="45.795934973685625" lon="15.863616081128143"><ele>118.0</ele><time>2026-05-05T07:00:13Z</time></trkpt><trkpt lat="45.79591303388295" lon="15.863526679090176"><ele>118.33333333333334</ele><time>2026-05-05T07:00:14Z</time></trkpt><trkpt lat="45.795888817305574" lon="15.8634424855388"><ele>118.66666666666667</ele><time>2026-05-05T07:00:15Z</time></trkpt><trkpt lat="45.79585746717015" lon="15.863308039136943"><ele>119.0</ele><time>2026-05-05T07:00:17Z</time></trkpt><trkpt lat="45.79583529382742" lon="15.863218377331785"><ele>119.33333333333334</ele><time>2026-05-05T07:00:20Z</time></trkpt><trkpt lat="45.79581050610965" lon="15.86311949243771"><ele>119.66666666666667</ele><time>2026-05-05T07:00:25Z</time></trkpt><trkpt lat="45.79579352608513" lon="15.863002342302853"><ele>120.0</ele><time>2026-05-05T07:00:29Z</time></trkpt><trkpt lat="45.795771958657845" lon="15.862833568484557"><ele>120.0</ele><time>2026-05-05T07:00:32Z</time></trkpt><trkpt lat="45.79574720284144" lon="15.862712721259275"><ele>120.0</ele><time>2026-05-05T07:00:33Z</time></trkpt><trkpt lat="45.79572325894112" lon="15.86261620767928"><ele>120.0</ele><time>2026-05-05T07:00:34Z</time></trkpt><trkpt lat="45.79569482638513" lon="15.862529084876709"><ele>120.0</ele><time>2026-05-05T07:00:35Z</time></trkpt><trkpt lat="45.795662798130564" lon="15.862417198013278"><ele>120.0</ele><time>2026-05-05T07:00:36Z</time></trkpt><trkpt lat="45.795625750993786" lon="15.8623005297218"><ele>120.0</ele><time>2026-05-05T07:00:37Z</time></trkpt><trkpt lat="45.795590114883495" lon="15.86219165805003"><ele>120.4</ele><time>2026-05-05T07:00:38Z</time></trkpt><trkpt lat="45.79555540532123" lon="15.862085482009185"><ele>120.8</ele><time>2026-05-05T07:00:39Z</time></trkpt><trkpt lat="45.795519880274824" lon="15.861970416755929"><ele>121.19999999999999</ele><time>2026-05-05T07:00:40Z</time></trkpt><trkpt lat="45.79548003695097" lon="15.861845695891361"><ele>121.6</ele><time>2026-05-05T07:00:41Z</time></trkpt><trkpt lat="45.79543458442447" lon="15.86170568140655"><ele>122.0</ele><time>2026-05-05T07:00:42Z</time></trkpt><trkpt lat="45.79538508595316" lon="15.861557501133152"><ele>122.25</ele><time>2026-05-05T07:00:43Z</time></trkpt><trkpt lat="45.795335488083865" lon="15.861405432654106"><ele>122.5</ele><time>2026-05-05T07:00:44Z</time></trkpt><trkpt lat="45.79528095723908" lon="15.861243194027194"><ele>122.75</ele><time>2026-05-05T07:00:45Z</time></trkpt><trkpt lat="45.79521932411391" lon="15.861061992774356"><ele>123.0</ele><time>2026-05-05T07:00:46Z</time></trkpt><trkpt lat="45.79515954215819" lon="15.860886491370332"><ele>122.60000000000001</ele><time>2026-05-05T07:00:47Z</time></trkpt><trkpt lat="45.795097241130385" lon="15.860733465409409"><ele>122.20000000000002</ele><time>2026-05-05T07:00:48Z</time></trkpt><trkpt lat="45.79504532008547" lon="15.860607761278215"><ele>121.8</ele><time>2026-05-05T07:00:49Z</time></trkpt><trkpt lat="45.79499620428223" lon="15.860496972548322"><ele>121.4</ele><time>2026-05-05T07:00:50Z</time></trkpt><trkpt lat="45.794940501126845" lon="15.860401559260177"><ele>121.0</ele><time>2026-05-05T07:00:51Z</time></trkpt><trkpt lat="45.79490313874068" lon="15.860307844820463"><ele>121.0</ele><time>2026-05-05T07:00:52Z</time></trkpt><trkpt lat="45.79484408525461" lon="15.860174024428705"><ele>121.0</ele><time>2026-05-05T07:00:54Z</time></trkpt><trkpt lat="45.79479517971908" lon="15.86006136294122"><ele>121.0</ele><time>2026-05-05T07:00:56Z</time></trkpt><trkpt lat="45.794742116817446" lon="15.859944997011103"><ele>121.0</ele><time>2026-05-05T07:00:58Z</time></trkpt><trkpt lat="45.79469270515423" lon="15.859813547099721"><ele>121.0</ele><time>2026-05-05T07:01:00Z</time></trkpt><trkpt lat="45.79464232822886" lon="15.85968404286065"><ele>121.0</ele><time>2026-05-05T07:01:02Z</time></trkpt><trkpt lat="45.794591161761765" lon="15.859561895350666"><ele>121.0</ele><time>2026-05-05T07:01:04Z</time></trkpt><trkpt lat="45.7945352363864" lon="15.85943527694971"><ele>121.0</ele><time>2026-05-05T07:01:06Z</time></trkpt><trkpt lat="45.79447707463986" lon="15.859299935247051"><ele>121.0</ele><time>2026-05-05T07:01:08Z</time></trkpt><trkpt lat="45.79442649965056" lon="15.859170425204383"><ele>121.0</ele><time>2026-05-05T07:01:10Z</time></trkpt><trkpt lat="45.79437962220449" lon="15.859051085594382"><ele>120.8</ele><time>2026-05-05T07:01:12Z</time></trkpt><trkpt lat="45.79431693787803" lon="15.858906529575712"><ele>120.6</ele><time>2026-05-05T07:01:14Z</time></trkpt><trkpt lat="45.79427807365334" lon="15.858813884094024"><ele>120.4</ele><time>2026-05-05T07:01:15Z</time></trkpt><trkpt lat="45.794234715278506" lon="15.858709927104137"><ele>120.2</ele><time>2026-05-05T07:01:16Z</time></trkpt><trkpt lat="45.79419217190462" lon="15.858601028040226"><ele>120.0</ele><time>2026-05-05T07:01:17Z</time></trkpt><trkpt lat="45.79414068708785" lon="15.858474160122327"><ele>120.5</ele><time>2026-05-05T07:01:18Z</time></trkpt><trkpt lat="45.79407800663753" lon="15.858330837744239"><ele>121.0</ele><time>2026-05-05T07:01:19Z</time></trkpt><trkpt lat="45.794014651825776" lon="15.858181515517039"><ele>121.5</ele><time>2026-05-05T07:01:20Z</time></trkpt><trkpt lat="45.7939450787874" lon="15.85801920623394"><ele>122.0</ele><time>2026-05-05T07:01:21Z</time></trkpt><trkpt lat="45.79386949459169" lon="15.85784851923449"><ele>122.0</ele><time>2026-05-05T07:01:22Z</time></trkpt><trkpt lat="45.79378722587021" lon="15.857669498310834"><ele>122.0</ele><time>2026-05-05T07:01:23Z</time></trkpt><trkpt lat="45.793702115067624" lon="15.85748741406607"><ele>122.0</ele><time>2026-05-05T07:01:24Z</time></trkpt><trkpt lat="45.79361834020983" lon="15.857314949298708"><ele>122.0</ele><time>2026-05-05T07:01:25Z</time></trkpt><trkpt lat="45.793539212079736" lon="15.857160192409472"><ele>122.0</ele><time>2026-05-05T07:01:26Z</time></trkpt><trkpt lat="45.79346418062597" lon="15.857016680585609"><ele>122.0</ele><time>2026-05-05T07:01:27Z</time></trkpt><trkpt lat="45.79339024465721" lon="15.856870151932618"><ele>122.0</ele><time>2026-05-05T07:01:28Z</time></trkpt><trkpt lat="45.7933159301076" lon="15.85671890888719"><ele>122.0</ele><time>2026-05-05T07:01:29Z</time></trkpt><trkpt lat="45.79324306809464" lon="15.856570709921604"><ele>122.0</ele><time>2026-05-05T07:01:30Z</time></trkpt><trkpt lat="45.793168714179096" lon="15.85641844198653"><ele>122.0</ele><time>2026-05-05T07:01:31Z</time></trkpt><trkpt lat="45.79308851865189" lon="15.856259933347728"><ele>122.0</ele><time>2026-05-05T07:01:32Z</time></trkpt><trkpt lat="45.79300466010656" lon="15.856100903304593"><ele>122.0</ele><time>2026-05-05T07:01:33Z</time></trkpt><trkpt lat="45.79292221709549" lon="15.855939771432883"><ele>122.0</ele><time>2026-05-05T07:01:34Z</time></trkpt><trkpt lat="45.79283448042691" lon="15.855773984102367"><ele>122.0</ele><time>2026-05-05T07:01:35Z</time></trkpt><trkpt lat="45.79274723188962" lon="15.855604250715365"><ele>122.0</ele><time>2026-05-05T07:01:36Z</time></trkpt><trkpt lat="45.79265736679567" lon="15.855428227465167"><ele>122.0</ele><time>2026-05-05T07:01:37Z</time></trkpt><trkpt lat="45.792563283120835" lon="15.855245660756513"><ele>120.66666666666666</ele><time>2026-05-05T07:01:38Z</time></trkpt><trkpt lat="45.79246737576532" lon="15.855058164748751"><ele>119.33333333333334</ele><time>2026-05-05T07:01:39Z</time></trkpt><trkpt lat="45.79236706399269" lon="15.854867893293516"><ele>118.0</ele><time>2026-05-05T07:01:40Z</time></trkpt><trkpt lat="45.79226347500238" lon="15.85467615977951"><ele>118.0</ele><time>2026-05-05T07:01:41Z</time></trkpt><trkpt lat="45.79216541318823" lon="15.854482245696387"><ele>118.0</ele><time>2026-05-05T07:01:42Z</time></trkpt><trkpt lat="45.79207106253545" lon="15.854295116767062"><ele>118.0</ele><time>2026-05-05T07:01:43Z</time></trkpt><trkpt lat="45.791976828227654" lon="15.854113344625679"><ele>117.0</ele><time>2026-05-05T07:01:44Z</time></trkpt><trkpt lat="45.79188288041846" lon="15.853931901130833"><ele>116.0</ele><time>2026-05-05T07:01:45Z</time></trkpt><trkpt lat="45.791789632825946" lon="15.853747573423442"><ele>115.0</ele><time>2026-05-05T07:01:46Z</time></trkpt><trkpt lat="45.79169453721555" lon="15.853563680316409"><ele>116.0</ele><time>2026-05-05T07:01:47Z</time></trkpt><trkpt lat="45.79160046142181" lon="15.85338094887191"><ele>117.0</ele><time>2026-05-05T07:01:48Z</time></trkpt><trkpt lat="45.79150895652273" lon="15.853200751665247"><ele>118.0</ele><time>2026-05-05T07:01:49Z</time></trkpt><trkpt lat="45.79141678007308" lon="15.853018346953908"><ele>118.0</ele><time>2026-05-05T07:01:50Z</time></trkpt><trkpt lat="45.79132476159972" lon="15.85283840515287"><ele>118.0</ele><time>2026-05-05T07:01:51Z</time></trkpt><trkpt lat="45.79123462809826" lon="15.852662324621683"><ele>118.0</ele><time>2026-05-05T07:01:52Z</time></trkpt><trkpt lat="45.791146252850595" lon="15.85248487580479"><ele>118.66666666666667</ele><time>2026-05-05T07:01:53Z</time></trkpt><trkpt lat="45.791051602415244" lon="15.852303838009231"><ele>119.33333333333334</ele><time>2026-05-05T07:01:54Z</time></trkpt><trkpt lat="45.79095457331193" lon="15.852121501750158"><ele>120.0</ele><time>2026-05-05T07:01:55Z</time></trkpt><trkpt lat="45.79086047117986" lon="15.85193500741578"><ele>120.33333333333334</ele><time>2026-05-05T07:01:56Z</time></trkpt><trkpt lat="45.79076440428283" lon="15.851730381532809"><ele>120.66666666666667</ele><time>2026-05-05T07:01:57Z</time></trkpt><trkpt lat="45.79065401238373" lon="15.851499472934272"><ele>121.0</ele><time>2026-05-05T07:01:58Z</time></trkpt><trkpt lat="45.79051944976429" lon="15.851241337546178"><ele>120.0</ele><time>2026-05-05T07:01:59Z</time></trkpt><trkpt lat="45.790363022737615" lon="15.850942916649371"><ele>119.0</ele><time>2026-05-05T07:02:00Z</time></trkpt><trkpt lat="45.790198699458045" lon="15.850619744851441"><ele>119.0</ele><time>2026-05-05T07:02:01Z</time></trkpt><trkpt lat="45.79002665653009" lon="15.850288993045247"><ele>119.0</ele><time>2026-05-05T07:02:02Z</time></trkpt><trkpt lat="45.789851500882335" lon="15.849944149922917"><ele>121.0</ele><time>2026-05-05T07:02:03Z</time></trkpt><trkpt lat="45.78967785320283" lon="15.849598736878482"><ele>123.0</ele><time>2026-05-05T07:02:04Z</time></trkpt><trkpt lat="45.789511645930155" lon="15.849272585086366"><ele>124.0</ele><time>2026-05-05T07:02:05Z</time></trkpt><trkpt lat="45.78935523798512" lon="15.848968347793553"><ele>125.0</ele><time>2026-05-05T07:02:06Z</time></trkpt><trkpt lat="45.789210312521625" lon="15.8486758292975"><ele>124.0</ele><time>2026-05-05T07:02:07Z</time></trkpt><trkpt lat="45.78907190159616" lon="15.848399905149352"><ele>123.0</ele><time>2026-05-05T07:02:08Z</time></trkpt><trkpt lat="45.788935894299655" lon="15.848133991621516"><ele>123.0</ele><time>2026-05-05T07:02:09Z</time></trkpt><trkpt lat="45.78880654031397" lon="15.84787302325228"><ele>123.0</ele><time>2026-05-05T07:02:10Z</time></trkpt><trkpt lat="45.788673046061255" lon="15.847607506483168"><ele>123.0</ele><time>2026-05-05T07:02:11Z</time></trkpt><trkpt lat="45.78853237918244" lon="15.84731835921156"><ele>123.0</ele><time>2026-05-05T07:02:12Z</time></trkpt><trkpt lat="45.78838749869269" lon="15.847017987592185"><ele>122.0</ele><time>2026-05-05T07:02:13Z</time></trkpt><trkpt lat="45.78824856799961" lon="15.84671820386351"><ele>121.0</ele><time>2026-05-05T07:02:14Z</time></trkpt><trkpt lat="45.78811562326326" lon="15.846415111162646"><ele>121.0</ele><time>2026-05-05T07:02:15Z</time></trkpt><trkpt lat="45.78799009247648" lon="15.846105637728076"><ele>121.0</ele><time>2026-05-05T07:02:16Z</time></trkpt><trkpt lat="45.787869153815315" lon="15.845789802057338"><ele>121.0</ele><time>2026-05-05T07:02:17Z</time></trkpt><trkpt lat="45.78774876330506" lon="15.845469051960697"><ele>121.0</ele><time>2026-05-05T07:02:18Z</time></trkpt><trkpt lat="45.787622658054154" lon="15.84513076261701"><ele>121.0</ele><time>2026-05-05T07:02:19Z</time></trkpt><trkpt lat="45.78748260460091" lon="15.844748710667359"><ele>121.0</ele><time>2026-05-05T07:02:20Z</time></trkpt><trkpt lat="45.78734791936915" lon="15.84435551971177"><ele>120.5</ele><time>2026-05-05T07:02:21Z</time></trkpt><trkpt lat="45.78722567783221" lon="15.843975581658736"><ele>120.0</ele><time>2026-05-05T07:02:22Z</time></trkpt><trkpt lat="45.787112205527066" lon="15.843596560796199"><ele>119.5</ele><time>2026-05-05T07:02:23Z</time></trkpt><trkpt lat="45.78700290751041" lon="15.843214636746545"><ele>119.0</ele><time>2026-05-05T07:02:24Z</time></trkpt><trkpt lat="45.786904848007815" lon="15.84283236424828"><ele>119.0</ele><time>2026-05-05T07:02:25Z</time></trkpt><trkpt lat="45.78680959313267" lon="15.84246279103067"><ele>119.0</ele><time>2026-05-05T07:02:26Z</time></trkpt><trkpt lat="45.78671420355127" lon="15.842090217501845"><ele>118.5</ele><time>2026-05-05T07:02:27Z</time></trkpt><trkpt lat="45.786616410094574" lon="15.841710403581287"><ele>118.0</ele><time>2026-05-05T07:02:28Z</time></trkpt><trkpt lat="45.786517360973946" lon="15.841332280318461"><ele>119.5</ele><time>2026-05-05T07:02:29Z</time></trkpt><trkpt lat="45.78642017026793" lon="15.840960195085996"><ele>121.0</ele><time>2026-05-05T07:02:30Z</time></trkpt><trkpt lat="45.78632539239569" lon="15.8405985797008"><ele>121.0</ele><time>2026-05-05T07:02:31Z</time></trkpt><trkpt lat="45.78623241537753" lon="15.840246528407437"><ele>121.0</ele><time>2026-05-05T07:02:32Z</time></trkpt><trkpt lat="45.7861409770768" lon="15.83990395958305"><ele>121.0</ele><time>2026-05-05T07:02:33Z</time></trkpt><trkpt lat="45.78605759287463" lon="15.839569256293547"><ele>121.0</ele><time>2026-05-05T07:02:34Z</time></trkpt><trkpt lat="45.78597393846823" lon="15.839242979975225"><ele>121.5</ele><time>2026-05-05T07:02:35Z</time></trkpt><trkpt lat="45.78589307078242" lon="15.838922349609096"><ele>122.0</ele><time>2026-05-05T07:02:36Z</time></trkpt><trkpt lat="45.78581197622072" lon="15.83859884267765"><ele>120.5</ele><time>2026-05-05T07:02:37Z</time></trkpt><trkpt lat="45.78573350916669" lon="15.838269887117281"><ele>119.0</ele><time>2026-05-05T07:02:38Z</time></trkpt><trkpt lat="45.785660341710475" lon="15.83794138905314"><ele>118.5</ele><time>2026-05-05T07:02:39Z</time></trkpt><trkpt lat="45.78559051483769" lon="15.837616600449394"><ele>118.0</ele><time>2026-05-05T07:02:40Z</time></trkpt><trkpt lat="45.78552413743553" lon="15.837293256508747"><ele>118.0</ele><time>2026-05-05T07:02:41Z</time></trkpt><trkpt lat="45.78545969257744" lon="15.836971792962489"><ele>118.0</ele><time>2026-05-05T07:02:42Z</time></trkpt><trkpt lat="45.78539556650407" lon="15.836659468255467"><ele>118.0</ele><time>2026-05-05T07:02:43Z</time></trkpt><trkpt lat="45.78532744970415" lon="15.836345662444495"><ele>118.0</ele><time>2026-05-05T07:02:44Z</time></trkpt><trkpt lat="45.785199727461716" lon="15.836053045140773"><ele>119.0</ele><time>2026-05-05T07:02:45Z</time></trkpt><trkpt lat="45.78513377569164" lon="15.835731873929587"><ele>120.0</ele><time>2026-05-05T07:02:46Z</time></trkpt><trkpt lat="45.78507009807027" lon="15.835406421832289"><ele>119.5</ele><time>2026-05-05T07:02:47Z</time></trkpt><trkpt lat="45.785008511417544" lon="15.835083659968337"><ele>119.0</ele><time>2026-05-05T07:02:48Z</time></trkpt><trkpt lat="45.7849502425125" lon="15.834762935302008"><ele>119.0</ele><time>2026-05-05T07:02:49Z</time></trkpt><trkpt lat="45.78489605796663" lon="15.834440957766496"><ele>119.0</ele><time>2026-05-05T07:02:50Z</time></trkpt><trkpt lat="45.7848434176709" lon="15.834127930200198"><ele>119.0</ele><time>2026-05-05T07:02:51Z</time></trkpt><trkpt lat="45.784791473368145" lon="15.833817159232721"><ele>119.0</ele><time>2026-05-05T07:02:52Z</time></trkpt><trkpt lat="45.78474246058125" lon="15.833508171851355"><ele>119.0</ele><time>2026-05-05T07:02:53Z</time></trkpt><trkpt lat="45.78469389717277" lon="15.833202017470903"><ele>119.0</ele><time>2026-05-05T07:02:54Z</time></trkpt><trkpt lat="45.78464499793494" lon="15.832893742248116"><ele>119.0</ele><time>2026-05-05T07:02:55Z</time></trkpt><trkpt lat="45.78459613007226" lon="15.832585664648125"><ele>119.0</ele><time>2026-05-05T07:02:56Z</time></trkpt><trkpt lat="45.78455252608835" lon="15.832284629372433"><ele>119.0</ele><time>2026-05-05T07:02:57Z</time></trkpt><trkpt lat="45.784587993363466" lon="15.831956917450537"><ele>119.0</ele><time>2026-05-05T07:02:58Z</time></trkpt><trkpt lat="45.78454819567733" lon="15.831648108709556"><ele>119.0</ele><time>2026-05-05T07:02:59Z</time></trkpt><trkpt lat="45.784509107352335" lon="15.831337520060961"><ele>119.0</ele><time>2026-05-05T07:03:00Z</time></trkpt><trkpt lat="45.784467739136936" lon="15.83101426304573"><ele>119.0</ele><time>2026-05-05T07:03:01Z</time></trkpt><trkpt lat="45.78442873403835" lon="15.830686385774634"><ele>118.5</ele><time>2026-05-05T07:03:02Z</time></trkpt><trkpt lat="45.78438971840579" lon="15.83035722061635"><ele>118.0</ele><time>2026-05-05T07:03:03Z</time></trkpt><trkpt lat="45.784349442854484" lon="15.830022943816793"><ele>120.5</ele><time>2026-05-05T07:03:04Z</time></trkpt><trkpt lat="45.78431285469963" lon="15.829691484842163"><ele>123.0</ele><time>2026-05-05T07:03:05Z</time></trkpt><trkpt lat="45.784280503630846" lon="15.829358876289895"><ele>122.5</ele><time>2026-05-05T07:03:06Z</time></trkpt><trkpt lat="45.78424942930829" lon="15.829027039102174"><ele>122.0</ele><time>2026-05-05T07:03:07Z</time></trkpt><trkpt lat="45.78421187772786" lon="15.828701415170187"><ele>121.5</ele><time>2026-05-05T07:03:08Z</time></trkpt><trkpt lat="45.78417584051159" lon="15.828362285368298"><ele>121.0</ele><time>2026-05-05T07:03:09Z</time></trkpt><trkpt lat="45.784138861961644" lon="15.828027119893765"><ele>121.0</ele><time>2026-05-05T07:03:10Z</time></trkpt><trkpt lat="45.78410653494138" lon="15.827704169331275"><ele>121.0</ele><time>2026-05-05T07:03:11Z</time></trkpt><trkpt lat="45.78407895490087" lon="15.827385592043601"><ele>121.0</ele><time>2026-05-05T07:03:12Z</time></trkpt><trkpt lat="45.78404863413696" lon="15.827063307004778"><ele>121.0</ele><time>2026-05-05T07:03:13Z</time></trkpt><trkpt lat="45.784024517801974" lon="15.826734117815194"><ele>121.0</ele><time>2026-05-05T07:03:14Z</time></trkpt><trkpt lat="45.784005499594535" lon="15.82640397076055"><ele>121.0</ele><time>2026-05-05T07:03:15Z</time></trkpt><trkpt lat="45.78398978845118" lon="15.826076738292706"><ele>121.0</ele><time>2026-05-05T07:03:16Z</time></trkpt><trkpt lat="45.783972262930234" lon="15.825743125284035"><ele>121.0</ele><time>2026-05-05T07:03:17Z</time></trkpt><trkpt lat="45.783955196788" lon="15.82540083503223"><ele>121.0</ele><time>2026-05-05T07:03:18Z</time></trkpt><trkpt lat="45.78394117688467" lon="15.825055221535353"><ele>121.0</ele><time>2026-05-05T07:03:19Z</time></trkpt><trkpt lat="45.78392756856946" lon="15.824701982439773"><ele>121.0</ele><time>2026-05-05T07:03:20Z</time></trkpt><trkpt lat="45.78391345914344" lon="15.824347256847656"><ele>121.0</ele><time>2026-05-05T07:03:21Z</time></trkpt><trkpt lat="45.78390660410906" lon="15.824002720571189"><ele>122.5</ele><time>2026-05-05T07:03:22Z</time></trkpt><trkpt lat="45.78389932424382" lon="15.82365924602093"><ele>124.0</ele><time>2026-05-05T07:03:23Z</time></trkpt><trkpt lat="45.783890233506895" lon="15.823302544642022"><ele>124.0</ele><time>2026-05-05T07:03:24Z</time></trkpt><trkpt lat="45.783880474176954" lon="15.8229290194287"><ele>124.0</ele><time>2026-05-05T07:03:25Z</time></trkpt><trkpt lat="45.78387509467331" lon="15.822554727180734"><ele>123.5</ele><time>2026-05-05T07:03:26Z</time></trkpt><trkpt lat="45.7838759111145" lon="15.822180810412581"><ele>123.0</ele><time>2026-05-05T07:03:27Z</time></trkpt><trkpt lat="45.78388017366339" lon="15.821825174842356"><ele>123.66666666666666</ele><time>2026-05-05T07:03:28Z</time></trkpt><trkpt lat="45.78389154466672" lon="15.82149899717139"><ele>124.33333333333333</ele><time>2026-05-05T07:03:29Z</time></trkpt><trkpt lat="45.7839065850349" lon="15.821185444346812"><ele>125.0</ele><time>2026-05-05T07:03:30Z</time></trkpt><trkpt lat="45.783927389003395" lon="15.820865558641705"><ele>126.0</ele><time>2026-05-05T07:03:31Z</time></trkpt><trkpt lat="45.78394495544755" lon="15.820549084968919"><ele>127.0</ele><time>2026-05-05T07:03:32Z</time></trkpt><trkpt lat="45.78396341404804" lon="15.820231029621093"><ele>128.0</ele><time>2026-05-05T07:03:33Z</time></trkpt><trkpt lat="45.7839830394036" lon="15.819908882946702"><ele>130.0</ele><time>2026-05-05T07:03:34Z</time></trkpt><trkpt lat="45.78400286598987" lon="15.819585426370768"><ele>132.0</ele><time>2026-05-05T07:03:35Z</time></trkpt><trkpt lat="45.78402447083655" lon="15.819260264561358"><ele>132.5</ele><time>2026-05-05T07:03:36Z</time></trkpt><trkpt lat="45.784046215974605" lon="15.818926866284086"><ele>133.0</ele><time>2026-05-05T07:03:37Z</time></trkpt><trkpt lat="45.78406970628687" lon="15.818581888209145"><ele>133.5</ele><time>2026-05-05T07:03:38Z</time></trkpt><trkpt lat="45.78409735729914" lon="15.818234602270252"><ele>134.0</ele><time>2026-05-05T07:03:39Z</time></trkpt><trkpt lat="45.784127958564966" lon="15.817886378759145"><ele>134.0</ele><time>2026-05-05T07:03:40Z</time></trkpt><trkpt lat="45.78416217301462" lon="15.81753536196878"><ele>134.0</ele><time>2026-05-05T07:03:41Z</time></trkpt><trkpt lat="45.784199173978706" lon="15.817190003796364"><ele>134.0</ele><time>2026-05-05T07:03:42Z</time></trkpt><trkpt lat="45.7842334471615" lon="15.8168542358823"><ele>134.0</ele><time>2026-05-05T07:03:43Z</time></trkpt><trkpt lat="45.78427017731111" lon="15.816513924542713"><ele>135.0</ele><time>2026-05-05T07:03:44Z</time></trkpt><trkpt lat="45.7843099551142" lon="15.816169333655983"><ele>136.0</ele><time>2026-05-05T07:03:45Z</time></trkpt><trkpt lat="45.78435236303809" lon="15.815811150045892"><ele>137.5</ele><time>2026-05-05T07:03:46Z</time></trkpt><trkpt lat="45.78440296159045" lon="15.815440796932544"><ele>139.0</ele><time>2026-05-05T07:03:47Z</time></trkpt><trkpt lat="45.78445217689743" lon="15.815070965303777"><ele>139.5</ele><time>2026-05-05T07:03:48Z</time></trkpt><trkpt lat="45.78450602241822" lon="15.814702331442364"><ele>140.0</ele><time>2026-05-05T07:03:49Z</time></trkpt><trkpt lat="45.784560005990386" lon="15.814342681055487"><ele>141.0</ele><time>2026-05-05T07:03:50Z</time></trkpt><trkpt lat="45.78461469132505" lon="15.813999295446878"><ele>142.0</ele><time>2026-05-05T07:03:51Z</time></trkpt><trkpt lat="45.78466926327189" lon="15.81366165072919"><ele>142.0</ele><time>2026-05-05T07:03:52Z</time></trkpt><trkpt lat="45.78472225454949" lon="15.813320333684658"><ele>142.0</ele><time>2026-05-05T07:03:53Z</time></trkpt><trkpt lat="45.784780478724194" lon="15.812974633319303"><ele>139.5</ele><time>2026-05-05T07:03:54Z</time></trkpt><trkpt lat="45.784840501704494" lon="15.812626826599109"><ele>137.0</ele><time>2026-05-05T07:03:55Z</time></trkpt><trkpt lat="45.7849032886011" lon="15.812281437043623"><ele>137.0</ele><time>2026-05-05T07:03:56Z</time></trkpt><trkpt lat="45.784966381304564" lon="15.811938055424445"><ele>137.0</ele><time>2026-05-05T07:03:57Z</time></trkpt><trkpt lat="45.78502914488879" lon="15.811603172467393"><ele>137.0</ele><time>2026-05-05T07:03:58Z</time></trkpt><trkpt lat="45.78509385415557" lon="15.811271631790031"><ele>137.0</ele><time>2026-05-05T07:03:59Z</time></trkpt><trkpt lat="45.7851603991053" lon="15.81094126998872"><ele>138.0</ele><time>2026-05-05T07:04:00Z</time></trkpt><trkpt lat="45.78523325974086" lon="15.81060963126883"><ele>139.0</ele><time>2026-05-05T07:04:01Z</time></trkpt><trkpt lat="45.78530485963091" lon="15.810271798369655"><ele>138.5</ele><time>2026-05-05T07:04:02Z</time></trkpt><trkpt lat="45.78537689918289" lon="15.809941345696414"><ele>138.0</ele><time>2026-05-05T07:04:03Z</time></trkpt><trkpt lat="45.78545233630423" lon="15.809612769734176"><ele>136.0</ele><time>2026-05-05T07:04:04Z</time></trkpt><trkpt lat="45.78552668731121" lon="15.809283533991577"><ele>134.0</ele><time>2026-05-05T07:04:05Z</time></trkpt><trkpt lat="45.78560465747704" lon="15.808957328501721"><ele>134.0</ele><time>2026-05-05T07:04:06Z</time></trkpt><trkpt lat="45.78568554178932" lon="15.808626678586247"><ele>134.0</ele><time>2026-05-05T07:04:07Z</time></trkpt><trkpt lat="45.785768283748006" lon="15.80829948552692"><ele>135.5</ele><time>2026-05-05T07:04:08Z</time></trkpt><trkpt lat="45.78585294047174" lon="15.807971884252188"><ele>137.0</ele><time>2026-05-05T07:04:09Z</time></trkpt><trkpt lat="45.78593858743427" lon="15.807644313270846"><ele>137.5</ele><time>2026-05-05T07:04:10Z</time></trkpt><trkpt lat="45.78602465189897" lon="15.80732501897145"><ele>138.0</ele><time>2026-05-05T07:04:11Z</time></trkpt><trkpt lat="45.78611247537858" lon="15.807000170060764"><ele>137.0</ele><time>2026-05-05T07:04:12Z</time></trkpt><trkpt lat="45.78620466607985" lon="15.806669645002646"><ele>136.0</ele><time>2026-05-05T07:04:13Z</time></trkpt><trkpt lat="45.78629905332472" lon="15.806340051268966"><ele>136.0</ele><time>2026-05-05T07:04:14Z</time></trkpt><trkpt lat="45.78639698277746" lon="15.806011003508125"><ele>136.0</ele><time>2026-05-05T07:04:15Z</time></trkpt><trkpt lat="45.78649762754867" lon="15.805682091099882"><ele>135.5</ele><time>2026-05-05T07:04:16Z</time></trkpt><trkpt lat="45.78660053340391" lon="15.805354129315756"><ele>135.0</ele><time>2026-05-05T07:04:17Z</time></trkpt><trkpt lat="45.786707159018995" lon="15.805010502127448"><ele>135.0</ele><time>2026-05-05T07:04:18Z</time></trkpt><trkpt lat="45.78682320718877" lon="15.804642417461112"><ele>135.0</ele><time>2026-05-05T07:04:19Z</time></trkpt><trkpt lat="45.786942562436934" lon="15.80427173046661"><ele>137.0</ele><time>2026-05-05T07:04:20Z</time></trkpt><trkpt lat="45.78706340152015" lon="15.803913022784744"><ele>139.0</ele><time>2026-05-05T07:04:21Z</time></trkpt><trkpt lat="45.78718375663429" lon="15.803563120807013"><ele>139.5</ele><time>2026-05-05T07:04:22Z</time></trkpt><trkpt lat="45.78730378447329" lon="15.80321918372864"><ele>140.0</ele><time>2026-05-05T07:04:23Z</time></trkpt><trkpt lat="45.787429343601346" lon="15.802883258769427"><ele>139.5</ele><time>2026-05-05T07:04:24Z</time></trkpt><trkpt lat="45.78755226440123" lon="15.80254503517276"><ele>139.0</ele><time>2026-05-05T07:04:25Z</time></trkpt><trkpt lat="45.78768252194697" lon="15.80220113820651"><ele>139.0</ele><time>2026-05-05T07:04:26Z</time></trkpt><trkpt lat="45.78781534667959" lon="15.801849112288627"><ele>139.0</ele><time>2026-05-05T07:04:27Z</time></trkpt><trkpt lat="45.787954206415314" lon="15.801491278490248"><ele>140.0</ele><time>2026-05-05T07:04:28Z</time></trkpt><trkpt lat="45.78809533472507" lon="15.801135477932617"><ele>141.0</ele><time>2026-05-05T07:04:29Z</time></trkpt><trkpt lat="45.78824566124501" lon="15.80078781250715"><ele>143.0</ele><time>2026-05-05T07:04:30Z</time></trkpt><trkpt lat="45.78839060022754" lon="15.800438417808854"><ele>145.0</ele><time>2026-05-05T07:04:31Z</time></trkpt><trkpt lat="45.78853619446022" lon="15.800090430065785"><ele>145.0</ele><time>2026-05-05T07:04:32Z</time></trkpt><trkpt lat="45.7886852966333" lon="15.799749764669498"><ele>145.0</ele><time>2026-05-05T07:04:33Z</time></trkpt><trkpt lat="45.78883410213451" lon="15.799416968172642"><ele>145.0</ele><time>2026-05-05T07:04:34Z</time></trkpt><trkpt lat="45.788982003817885" lon="15.799089696662685"><ele>145.0</ele><time>2026-05-05T07:04:35Z</time></trkpt><trkpt lat="45.78912965894694" lon="15.798761339286493"><ele>145.0</ele><time>2026-05-05T07:04:36Z</time></trkpt><trkpt lat="45.789279846585394" lon="15.798433454345595"><ele>145.0</ele><time>2026-05-05T07:04:37Z</time></trkpt><trkpt lat="45.789434554256395" lon="15.798108168424854"><ele>145.0</ele><time>2026-05-05T07:04:38Z</time></trkpt><trkpt lat="45.7895945953916" lon="15.79777788556235"><ele>145.0</ele><time>2026-05-05T07:04:39Z</time></trkpt><trkpt lat="45.789758629589485" lon="15.797451314707903"><ele>144.5</ele><time>2026-05-05T07:04:40Z</time></trkpt><trkpt lat="45.789925104030466" lon="15.79712496042574"><ele>144.0</ele><time>2026-05-05T07:04:41Z</time></trkpt><trkpt lat="45.79009313081005" lon="15.796798076408091"><ele>144.5</ele><time>2026-05-05T07:04:42Z</time></trkpt><trkpt lat="45.79026299446506" lon="15.79647358796578"><ele>145.0</ele><time>2026-05-05T07:04:43Z</time></trkpt><trkpt lat="45.79043323974835" lon="15.796154530670742"><ele>144.0</ele><time>2026-05-05T07:04:44Z</time></trkpt><trkpt lat="45.7906038516776" lon="15.795844110559168"><ele>143.0</ele><time>2026-05-05T07:04:45Z</time></trkpt><trkpt lat="45.790777578072365" lon="15.795537568854582"><ele>143.0</ele><time>2026-05-05T07:04:46Z</time></trkpt><trkpt lat="45.79095414038973" lon="15.795230323683791"><ele>143.0</ele><time>2026-05-05T07:04:47Z</time></trkpt><trkpt lat="45.791126154717745" lon="15.79492640776807"><ele>142.5</ele><time>2026-05-05T07:04:48Z</time></trkpt><trkpt lat="45.79130077165714" lon="15.794625681327489"><ele>142.0</ele><time>2026-05-05T07:04:49Z</time></trkpt><trkpt lat="45.7914785720728" lon="15.794327060505838"><ele>142.0</ele><time>2026-05-05T07:04:50Z</time></trkpt><trkpt lat="45.791655008514184" lon="15.794033056287287"><ele>142.0</ele><time>2026-05-05T07:04:51Z</time></trkpt><trkpt lat="45.791829840003665" lon="15.793747004698192"><ele>141.5</ele><time>2026-05-05T07:04:52Z</time></trkpt><trkpt lat="45.79199920356535" lon="15.793482048299687"><ele>141.0</ele><time>2026-05-05T07:04:53Z</time></trkpt><trkpt lat="45.79215794960558" lon="15.793235421966221"><ele>141.0</ele><time>2026-05-05T07:04:54Z</time></trkpt><trkpt lat="45.79231990516334" lon="15.792994296527862"><ele>141.0</ele><time>2026-05-05T07:04:55Z</time></trkpt><trkpt lat="45.79248834567855" lon="15.79274508525438"><ele>140.5</ele><time>2026-05-05T07:04:56Z</time></trkpt><trkpt lat="45.79266455778836" lon="15.792483571673614"><ele>140.0</ele><time>2026-05-05T07:04:57Z</time></trkpt><trkpt lat="45.792849504430656" lon="15.79221122714248"><ele>139.5</ele><time>2026-05-05T07:04:58Z</time></trkpt><trkpt lat="45.79304879699485" lon="15.791918232605292"><ele>139.0</ele><time>2026-05-05T07:04:59Z</time></trkpt><trkpt lat="45.793268450821884" lon="15.79160678904782"><ele>139.0</ele><time>2026-05-05T07:05:00Z</time></trkpt><trkpt lat="45.793492600770456" lon="15.791276685845059"><ele>139.0</ele><time>2026-05-05T07:05:01Z</time></trkpt><trkpt lat="45.79371198323977" lon="15.790971089785813"><ele>138.0</ele><time>2026-05-05T07:05:02Z</time></trkpt><trkpt lat="45.7939288239605" lon="15.79067140454482"><ele>137.0</ele><time>2026-05-05T07:05:03Z</time></trkpt><trkpt lat="45.7941465916224" lon="15.790375836076212"><ele>137.5</ele><time>2026-05-05T07:05:04Z</time></trkpt><trkpt lat="45.794358802284535" lon="15.79008040847705"><ele>138.0</ele><time>2026-05-05T07:05:05Z</time></trkpt><trkpt lat="45.79456902460199" lon="15.789783895142019"><ele>138.0</ele><time>2026-05-05T07:05:06Z</time></trkpt><trkpt lat="45.794779448088214" lon="15.789487522696298"><ele>138.0</ele><time>2026-05-05T07:05:07Z</time></trkpt><trkpt lat="45.79498955919037" lon="15.789186595550596"><ele>137.5</ele><time>2026-05-05T07:05:08Z</time></trkpt><trkpt lat="45.795190020962686" lon="15.78890245134972"><ele>137.0</ele><time>2026-05-05T07:05:09Z</time></trkpt><trkpt lat="45.795382593692075" lon="15.788631593028256"><ele>137.5</ele><time>2026-05-05T07:05:10Z</time></trkpt><trkpt lat="45.795570541103245" lon="15.788369694247349"><ele>138.0</ele><time>2026-05-05T07:05:11Z</time></trkpt><trkpt lat="45.79575511098634" lon="15.788106560926101"><ele>138.0</ele><time>2026-05-05T07:05:12Z</time></trkpt><trkpt lat="45.79593987221083" lon="15.787842312512042"><ele>138.0</ele><time>2026-05-05T07:05:13Z</time></trkpt><trkpt lat="45.796128617873094" lon="15.78757517858175"><ele>137.5</ele><time>2026-05-05T07:05:14Z</time></trkpt><trkpt lat="45.79631494859019" lon="15.787312815840865"><ele>137.0</ele><time>2026-05-05T07:05:15Z</time></trkpt><trkpt lat="45.79650485928594" lon="15.787048109140182"><ele>136.0</ele><time>2026-05-05T07:05:16Z</time></trkpt><trkpt lat="45.796696558578276" lon="15.786786910047928"><ele>135.0</ele><time>2026-05-05T07:05:17Z</time></trkpt><trkpt lat="45.79688379643227" lon="15.786518930991017"><ele>135.0</ele><time>2026-05-05T07:05:18Z</time></trkpt><trkpt lat="45.797070754877936" lon="15.786255034610159"><ele>135.0</ele><time>2026-05-05T07:05:19Z</time></trkpt><trkpt lat="45.79725971961511" lon="15.78599146483913"><ele>135.0</ele><time>2026-05-05T07:05:20Z</time></trkpt><trkpt lat="45.797447167050905" lon="15.78572634616028"><ele>135.0</ele><time>2026-05-05T07:05:21Z</time></trkpt><trkpt lat="45.79763519343514" lon="15.785456319059469"><ele>133.0</ele><time>2026-05-05T07:05:22Z</time></trkpt><trkpt lat="45.79782267754201" lon="15.785189016767843"><ele>131.0</ele><time>2026-05-05T07:05:23Z</time></trkpt><trkpt lat="45.79800785819833" lon="15.784922045971099"><ele>131.0</ele><time>2026-05-05T07:05:24Z</time></trkpt><trkpt lat="45.798191000464534" lon="15.784660127871193"><ele>131.0</ele><time>2026-05-05T07:05:25Z</time></trkpt><trkpt lat="45.79837009828594" lon="15.784401380120041"><ele>128.5</ele><time>2026-05-05T07:05:26Z</time></trkpt><trkpt lat="45.79854997029049" lon="15.784146676399425"><ele>126.0</ele><time>2026-05-05T07:05:27Z</time></trkpt><trkpt lat="45.79872602689353" lon="15.783897795022106"><ele>126.0</ele><time>2026-05-05T07:05:28Z</time></trkpt><trkpt lat="45.79890186403994" lon="15.783646119813982"><ele>126.0</ele><time>2026-05-05T07:05:29Z</time></trkpt><trkpt lat="45.7990819831178" lon="15.783388746187537"><ele>127.0</ele><time>2026-05-05T07:05:30Z</time></trkpt><trkpt lat="45.79926037900287" lon="15.783141544211924"><ele>128.0</ele><time>2026-05-05T07:05:31Z</time></trkpt><trkpt lat="45.7994291870816" lon="15.782890880388885"><ele>129.5</ele><time>2026-05-05T07:05:32Z</time></trkpt><trkpt lat="45.79961816344074" lon="15.782638849149409"><ele>131.0</ele><time>2026-05-05T07:05:33Z</time></trkpt><trkpt lat="45.79979903122092" lon="15.782384613327688"><ele>131.0</ele><time>2026-05-05T07:05:34Z</time></trkpt><trkpt lat="45.799977761430846" lon="15.78212504661364"><ele>131.0</ele><time>2026-05-05T07:05:35Z</time></trkpt><trkpt lat="45.80016026777041" lon="15.781863209554333"><ele>131.0</ele><time>2026-05-05T07:05:36Z</time></trkpt><trkpt lat="45.80034803800859" lon="15.781591242409421"><ele>131.0</ele><time>2026-05-05T07:05:37Z</time></trkpt><trkpt lat="45.8005402034905" lon="15.781321312928263"><ele>131.0</ele><time>2026-05-05T07:05:38Z</time></trkpt><trkpt lat="45.80073543760425" lon="15.781046157453533"><ele>131.0</ele><time>2026-05-05T07:05:39Z</time></trkpt><trkpt lat="45.80093356054836" lon="15.780766858616516"><ele>129.5</ele><time>2026-05-05T07:05:40Z</time></trkpt><trkpt lat="45.80113133578865" lon="15.78047949719355"><ele>128.0</ele><time>2026-05-05T07:05:41Z</time></trkpt><trkpt lat="45.801328870527925" lon="15.780190136710912"><ele>129.5</ele><time>2026-05-05T07:05:42Z</time></trkpt><trkpt lat="45.80152465554404" lon="15.779899870847203"><ele>131.0</ele><time>2026-05-05T07:05:43Z</time></trkpt><trkpt lat="45.80171816613828" lon="15.779613061563209"><ele>129.0</ele><time>2026-05-05T07:05:44Z</time></trkpt><trkpt lat="45.801911925083175" lon="15.779329626831824"><ele>127.0</ele><time>2026-05-05T07:05:45Z</time></trkpt><trkpt lat="45.80210533917351" lon="15.779053872619679"><ele>127.0</ele><time>2026-05-05T07:05:46Z</time></trkpt><trkpt lat="45.802295277629405" lon="15.778783066367707"><ele>127.0</ele><time>2026-05-05T07:05:47Z</time></trkpt><trkpt lat="45.80247745454841" lon="15.77852325656131"><ele>127.5</ele><time>2026-05-05T07:05:48Z</time></trkpt><trkpt lat="45.802647692170844" lon="15.7782797483585"><ele>128.0</ele><time>2026-05-05T07:05:49Z</time></trkpt><trkpt lat="45.80281445310703" lon="15.778042488392174"><ele>127.5</ele><time>2026-05-05T07:05:50Z</time></trkpt><trkpt lat="45.802988238438175" lon="15.7777914692754"><ele>127.0</ele><time>2026-05-05T07:05:51Z</time></trkpt><trkpt lat="45.80316808608104" lon="15.777536591640153"><ele>127.0</ele><time>2026-05-05T07:05:52Z</time></trkpt><trkpt lat="45.803349545560884" lon="15.777278767516044"><ele>127.0</ele><time>2026-05-05T07:05:53Z</time></trkpt><trkpt lat="45.80353352132159" lon="15.777018071056665"><ele>127.0</ele><time>2026-05-05T07:05:54Z</time></trkpt><trkpt lat="45.80371869655913" lon="15.776752082309741"><ele>127.0</ele><time>2026-05-05T07:05:55Z</time></trkpt><trkpt lat="45.80390708837852" lon="15.776481428611083"><ele>127.0</ele><time>2026-05-05T07:05:56Z</time></trkpt><trkpt lat="45.804095232852475" lon="15.776210198692816"><ele>127.0</ele><time>2026-05-05T07:05:57Z</time></trkpt><trkpt lat="45.80428702917186" lon="15.775939436084398"><ele>127.0</ele><time>2026-05-05T07:05:58Z</time></trkpt><trkpt lat="45.80447823872091" lon="15.77566915834026"><ele>127.0</ele><time>2026-05-05T07:05:59Z</time></trkpt><trkpt lat="45.80466951788584" lon="15.775401438786414"><ele>128.0</ele><time>2026-05-05T07:06:00Z</time></trkpt><trkpt lat="45.80485655832554" lon="15.775135198580621"><ele>129.0</ele><time>2026-05-05T07:06:01Z</time></trkpt><trkpt lat="45.80504175125234" lon="15.774879930188444"><ele>127.0</ele><time>2026-05-05T07:06:02Z</time></trkpt><trkpt lat="45.80522209690447" lon="15.774627679807358"><ele>125.0</ele><time>2026-05-05T07:06:03Z</time></trkpt><trkpt lat="45.80540316876463" lon="15.774379736849008"><ele>126.0</ele><time>2026-05-05T07:06:04Z</time></trkpt><trkpt lat="45.805583010303515" lon="15.774136705179062"><ele>127.0</ele><time>2026-05-05T07:06:05Z</time></trkpt><trkpt lat="45.805766296945436" lon="15.773889636318513"><ele>127.0</ele><time>2026-05-05T07:06:06Z</time></trkpt><trkpt lat="45.8059499472469" lon="15.773640029442317"><ele>127.0</ele><time>2026-05-05T07:06:07Z</time></trkpt><trkpt lat="45.80614445928669" lon="15.773368208002513"><ele>125.5</ele><time>2026-05-05T07:06:08Z</time></trkpt><trkpt lat="45.80635435027342" lon="15.773071911538981"><ele>124.0</ele><time>2026-05-05T07:06:09Z</time></trkpt><trkpt lat="45.8065783328054" lon="15.772752960441508"><ele>125.5</ele><time>2026-05-05T07:06:10Z</time></trkpt><trkpt lat="45.80680360515072" lon="15.772435139714243"><ele>127.0</ele><time>2026-05-05T07:06:11Z</time></trkpt><trkpt lat="45.80701962473805" lon="15.772121017505475"><ele>128.0</ele><time>2026-05-05T07:06:12Z</time></trkpt><trkpt lat="45.807237427890556" lon="15.771812136011482"><ele>129.0</ele><time>2026-05-05T07:06:13Z</time></trkpt><trkpt lat="45.8074550313681" lon="15.771500060008977"><ele>128.5</ele><time>2026-05-05T07:06:14Z</time></trkpt><trkpt lat="45.8076833729161" lon="15.771177753160055"><ele>128.0</ele><time>2026-05-05T07:06:15Z</time></trkpt><trkpt lat="45.80791202334518" lon="15.770857510905392"><ele>128.0</ele><time>2026-05-05T07:06:16Z</time></trkpt><trkpt lat="45.80812908720879" lon="15.77054635940144"><ele>128.0</ele><time>2026-05-05T07:06:17Z</time></trkpt><trkpt lat="45.808345580603415" lon="15.770239878342021"><ele>127.0</ele><time>2026-05-05T07:06:18Z</time></trkpt><trkpt lat="45.808567545096096" lon="15.769923294945901"><ele>126.0</ele><time>2026-05-05T07:06:19Z</time></trkpt><trkpt lat="45.80879431035272" lon="15.76959386026521"><ele>126.0</ele><time>2026-05-05T07:06:20Z</time></trkpt><trkpt lat="45.8090220332632" lon="15.769261261009564"><ele>126.0</ele><time>2026-05-05T07:06:21Z</time></trkpt><trkpt lat="45.80925061693897" lon="15.768925746109362"><ele>125.5</ele><time>2026-05-05T07:06:22Z</time></trkpt><trkpt lat="45.80947522675032" lon="15.768605245205288"><ele>125.0</ele><time>2026-05-05T07:06:23Z</time></trkpt><trkpt lat="45.80969741099446" lon="15.768291228115123"><ele>126.5</ele><time>2026-05-05T07:06:24Z</time></trkpt><trkpt lat="45.80991499203191" lon="15.76798321862317"><ele>128.0</ele><time>2026-05-05T07:06:25Z</time></trkpt><trkpt lat="45.81012865793638" lon="15.767683398776818"><ele>127.5</ele><time>2026-05-05T07:06:26Z</time></trkpt><trkpt lat="45.81034127529741" lon="15.76738610798015"><ele>127.0</ele><time>2026-05-05T07:06:27Z</time></trkpt><trkpt lat="45.810550538211935" lon="15.767095184458372"><ele>127.0</ele><time>2026-05-05T07:06:28Z</time></trkpt><trkpt lat="45.81076101635323" lon="15.766801470543214"><ele>127.0</ele><time>2026-05-05T07:06:29Z</time></trkpt><trkpt lat="45.81097196700477" lon="15.766509717439588"><ele>126.5</ele><time>2026-05-05T07:06:30Z</time></trkpt><trkpt lat="45.81118272346891" lon="15.766213537277432"><ele>126.0</ele><time>2026-05-05T07:06:31Z</time></trkpt><trkpt lat="45.81139181552551" lon="15.765914631578184"><ele>127.0</ele><time>2026-05-05T07:06:32Z</time></trkpt><trkpt lat="45.81160323548713" lon="15.765612179352761"><ele>128.0</ele><time>2026-05-05T07:06:33Z</time></trkpt><trkpt lat="45.81181494711999" lon="15.765311283295658"><ele>126.5</ele><time>2026-05-05T07:06:34Z</time></trkpt><trkpt lat="45.812030282410234" lon="15.76500277503199"><ele>125.0</ele><time>2026-05-05T07:06:35Z</time></trkpt><trkpt lat="45.81223903391525" lon="15.764700697121834"><ele>125.0</ele><time>2026-05-05T07:06:36Z</time></trkpt><trkpt lat="45.81244950869766" lon="15.764396710632216"><ele>125.0</ele><time>2026-05-05T07:06:37Z</time></trkpt><trkpt lat="45.81266340810997" lon="15.764087573976914"><ele>125.5</ele><time>2026-05-05T07:06:38Z</time></trkpt><trkpt lat="45.81287728640708" lon="15.763774175400242"><ele>126.0</ele><time>2026-05-05T07:06:39Z</time></trkpt><trkpt lat="45.81309202537327" lon="15.763456593602015"><ele>127.0</ele><time>2026-05-05T07:06:40Z</time></trkpt><trkpt lat="45.813306644104244" lon="15.763134759681751"><ele>128.0</ele><time>2026-05-05T07:06:41Z</time></trkpt><trkpt lat="45.81352494599097" lon="15.762808425379685"><ele>128.5</ele><time>2026-05-05T07:06:42Z</time></trkpt><trkpt lat="45.813743420830946" lon="15.762477520156406"><ele>129.0</ele><time>2026-05-05T07:06:43Z</time></trkpt><trkpt lat="45.813962130183306" lon="15.76214793568581"><ele>128.5</ele><time>2026-05-05T07:06:44Z</time></trkpt><trkpt lat="45.814177350531004" lon="15.761822771082906"><ele>128.0</ele><time>2026-05-05T07:06:45Z</time></trkpt><trkpt lat="45.81438897950384" lon="15.761495051324331"><ele>128.0</ele><time>2026-05-05T07:06:46Z</time></trkpt><trkpt lat="45.81459776664375" lon="15.761171741096424"><ele>128.0</ele><time>2026-05-05T07:06:47Z</time></trkpt><trkpt lat="45.81480663136213" lon="15.760847311281369"><ele>128.0</ele><time>2026-05-05T07:06:48Z</time></trkpt><trkpt lat="45.81501786380405" lon="15.760517064986745"><ele>128.0</ele><time>2026-05-05T07:06:49Z</time></trkpt><trkpt lat="45.81522875109257" lon="15.760188314579473"><ele>127.5</ele><time>2026-05-05T07:06:50Z</time></trkpt><trkpt lat="45.81543887630242" lon="15.759851272225767"><ele>127.0</ele><time>2026-05-05T07:06:51Z</time></trkpt><trkpt lat="45.8156471214014" lon="15.75951546213364"><ele>126.5</ele><time>2026-05-05T07:06:52Z</time></trkpt><trkpt lat="45.815853810514774" lon="15.759185603453998"><ele>126.0</ele><time>2026-05-05T07:06:53Z</time></trkpt><trkpt lat="45.81605682145628" lon="15.758855378112786"><ele>126.0</ele><time>2026-05-05T07:06:54Z</time></trkpt><trkpt lat="45.816260509976395" lon="15.758524399560452"><ele>126.0</ele><time>2026-05-05T07:06:55Z</time></trkpt><trkpt lat="45.81646424270984" lon="15.758188475804381"><ele>126.0</ele><time>2026-05-05T07:06:56Z</time></trkpt><trkpt lat="45.816666266995846" lon="15.757852458791957"><ele>126.0</ele><time>2026-05-05T07:06:57Z</time></trkpt><trkpt lat="45.81686850599887" lon="15.757512167101902"><ele>127.0</ele><time>2026-05-05T07:06:58Z</time></trkpt><trkpt lat="45.81706849348859" lon="15.757173990721808"><ele>128.0</ele><time>2026-05-05T07:06:59Z</time></trkpt><trkpt lat="45.81726963570078" lon="15.756833840436116"><ele>128.0</ele><time>2026-05-05T07:07:00Z</time></trkpt><trkpt lat="45.81747359762349" lon="15.756493173619646"><ele>128.0</ele><time>2026-05-05T07:07:01Z</time></trkpt><trkpt lat="45.817673243679174" lon="15.756149270667784"><ele>128.5</ele><time>2026-05-05T07:07:02Z</time></trkpt><trkpt lat="45.817873282339285" lon="15.755805635180753"><ele>129.0</ele><time>2026-05-05T07:07:03Z</time></trkpt><trkpt lat="45.81807228097495" lon="15.755458181129297"><ele>128.0</ele><time>2026-05-05T07:07:04Z</time></trkpt><trkpt lat="45.81827059673408" lon="15.755109442494494"><ele>127.0</ele><time>2026-05-05T07:07:05Z</time></trkpt><trkpt lat="45.81846566736328" lon="15.7547622978311"><ele>127.5</ele><time>2026-05-05T07:07:06Z</time></trkpt><trkpt lat="45.81866105905943" lon="15.754415003774087"><ele>128.0</ele><time>2026-05-05T07:07:07Z</time></trkpt><trkpt lat="45.81885777176828" lon="15.754063412770895"><ele>128.0</ele><time>2026-05-05T07:07:08Z</time></trkpt><trkpt lat="45.819052126872045" lon="15.753709383968012"><ele>128.0</ele><time>2026-05-05T07:07:09Z</time></trkpt><trkpt lat="45.819245504360076" lon="15.753355815905737"><ele>128.0</ele><time>2026-05-05T07:07:10Z</time></trkpt><trkpt lat="45.81944088649533" lon="15.753000922728837"><ele>128.0</ele><time>2026-05-05T07:07:11Z</time></trkpt><trkpt lat="45.819632433773776" lon="15.752647151677099"><ele>128.0</ele><time>2026-05-05T07:07:12Z</time></trkpt><trkpt lat="45.81982044766937" lon="15.75229516080123"><ele>128.0</ele><time>2026-05-05T07:07:13Z</time></trkpt><trkpt lat="45.82000722437141" lon="15.75194380034769"><ele>127.5</ele><time>2026-05-05T07:07:14Z</time></trkpt><trkpt lat="45.82019215512605" lon="15.7515901304853"><ele>127.0</ele><time>2026-05-05T07:07:15Z</time></trkpt><trkpt lat="45.820378639937" lon="15.75123689236487"><ele>126.5</ele><time>2026-05-05T07:07:16Z</time></trkpt><trkpt lat="45.820564469979054" lon="15.750882003094741"><ele>126.0</ele><time>2026-05-05T07:07:17Z</time></trkpt><trkpt lat="45.82074636298352" lon="15.75052912400599"><ele>127.0</ele><time>2026-05-05T07:07:18Z</time></trkpt><trkpt lat="45.82093285680666" lon="15.750172166424868"><ele>128.0</ele><time>2026-05-05T07:07:19Z</time></trkpt><trkpt lat="45.82111921552295" lon="15.749811470052595"><ele>128.0</ele><time>2026-05-05T07:07:20Z</time></trkpt><trkpt lat="45.82130206645679" lon="15.74944647677086"><ele>128.0</ele><time>2026-05-05T07:07:21Z</time></trkpt><trkpt lat="45.8214820504316" lon="15.749085350088464"><ele>128.5</ele><time>2026-05-05T07:07:22Z</time></trkpt><trkpt lat="45.82166272373505" lon="15.74872181387755"><ele>129.0</ele><time>2026-05-05T07:07:23Z</time></trkpt><trkpt lat="45.82184446208275" lon="15.748359394144597"><ele>130.0</ele><time>2026-05-05T07:07:24Z</time></trkpt><trkpt lat="45.822023861189834" lon="15.747997072290719"><ele>131.0</ele><time>2026-05-05T07:07:25Z</time></trkpt><trkpt lat="45.8222043297612" lon="15.747628838576754"><ele>131.5</ele><time>2026-05-05T07:07:26Z</time></trkpt><trkpt lat="45.82238386190005" lon="15.747255224014419"><ele>132.0</ele><time>2026-05-05T07:07:27Z</time></trkpt><trkpt lat="45.822565343525234" lon="15.74687912262211"><ele>130.0</ele><time>2026-05-05T07:07:28Z</time></trkpt><trkpt lat="45.82274320120589" lon="15.746500278196654"><ele>128.0</ele><time>2026-05-05T07:07:29Z</time></trkpt><trkpt lat="45.82291706670941" lon="15.746120377766802"><ele>128.0</ele><time>2026-05-05T07:07:30Z</time></trkpt><trkpt lat="45.82309016357205" lon="15.745742094229062"><ele>128.0</ele><time>2026-05-05T07:07:31Z</time></trkpt><trkpt lat="45.82326268587857" lon="15.745368488172879"><ele>128.0</ele><time>2026-05-05T07:07:32Z</time></trkpt><trkpt lat="45.82343414128014" lon="15.744994423608036"><ele>128.0</ele><time>2026-05-05T07:07:33Z</time></trkpt><trkpt lat="45.82360195188838" lon="15.744624515243258"><ele>128.5</ele><time>2026-05-05T07:07:34Z</time></trkpt><trkpt lat="45.823769954490906" lon="15.744253932118422"><ele>129.0</ele><time>2026-05-05T07:07:35Z</time></trkpt><trkpt lat="45.82393749585725" lon="15.743884812216267"><ele>129.0</ele><time>2026-05-05T07:07:36Z</time></trkpt><trkpt lat="45.82410424125155" lon="15.74351707097351"><ele>129.0</ele><time>2026-05-05T07:07:37Z</time></trkpt><trkpt lat="45.824269292504006" lon="15.74315089302203"><ele>129.0</ele><time>2026-05-05T07:07:38Z</time></trkpt><trkpt lat="45.82443149389657" lon="15.74278646081463"><ele>129.0</ele><time>2026-05-05T07:07:39Z</time></trkpt><trkpt lat="45.82459347715492" lon="15.742418025808236"><ele>129.0</ele><time>2026-05-05T07:07:40Z</time></trkpt><trkpt lat="45.82475611510427" lon="15.74204256027004"><ele>129.0</ele><time>2026-05-05T07:07:41Z</time></trkpt><trkpt lat="45.82491959225389" lon="15.741663605681932"><ele>129.5</ele><time>2026-05-05T07:07:42Z</time></trkpt><trkpt lat="45.82508233472889" lon="15.741282364422656"><ele>130.0</ele><time>2026-05-05T07:07:43Z</time></trkpt><trkpt lat="45.82524237717944" lon="15.740903252673412"><ele>129.5</ele><time>2026-05-05T07:07:44Z</time></trkpt><trkpt lat="45.825400054394734" lon="15.74053021722779"><ele>129.0</ele><time>2026-05-05T07:07:45Z</time></trkpt><trkpt lat="45.825559307082656" lon="15.740154464810605"><ele>129.0</ele><time>2026-05-05T07:07:46Z</time></trkpt><trkpt lat="45.825717333285986" lon="15.739771438194701"><ele>129.0</ele><time>2026-05-05T07:07:47Z</time></trkpt><trkpt lat="45.82587355659879" lon="15.73938670721512"><ele>128.5</ele><time>2026-05-05T07:07:48Z</time></trkpt><trkpt lat="45.82603026859776" lon="15.738997819081293"><ele>128.0</ele><time>2026-05-05T07:07:49Z</time></trkpt><trkpt lat="45.82618710558158" lon="15.738609793811921"><ele>128.5</ele><time>2026-05-05T07:07:50Z</time></trkpt><trkpt lat="45.82634337003353" lon="15.738223929371916"><ele>129.0</ele><time>2026-05-05T07:07:51Z</time></trkpt><trkpt lat="45.82649921979751" lon="15.737841990292814"><ele>129.5</ele><time>2026-05-05T07:07:52Z</time></trkpt><trkpt lat="45.82665496665765" lon="15.737457350116454"><ele>130.0</ele><time>2026-05-05T07:07:53Z</time></trkpt><trkpt lat="45.82681203668634" lon="15.737072184517015"><ele>130.0</ele><time>2026-05-05T07:07:54Z</time></trkpt><trkpt lat="45.82696445935391" lon="15.736684965742707"><ele>130.0</ele><time>2026-05-05T07:07:55Z</time></trkpt><trkpt lat="45.8271153493522" lon="15.736294715514736"><ele>129.0</ele><time>2026-05-05T07:07:56Z</time></trkpt><trkpt lat="45.8272681701658" lon="15.735899685338374"><ele>128.0</ele><time>2026-05-05T07:07:57Z</time></trkpt><trkpt lat="45.82742116340395" lon="15.735499370035994"><ele>128.5</ele><time>2026-05-05T07:07:58Z</time></trkpt><trkpt lat="45.82757484848909" lon="15.735095353658853"><ele>129.0</ele><time>2026-05-05T07:07:59Z</time></trkpt><trkpt lat="45.8277286789337" lon="15.734687907926745"><ele>130.0</ele><time>2026-05-05T07:08:00Z</time></trkpt><trkpt lat="45.82788100050459" lon="15.734282871732612"><ele>131.0</ele><time>2026-05-05T07:08:01Z</time></trkpt><trkpt lat="45.82803457202748" lon="15.733880091016047"><ele>132.0</ele><time>2026-05-05T07:08:02Z</time></trkpt><trkpt lat="45.82818751831623" lon="15.733484371309956"><ele>133.0</ele><time>2026-05-05T07:08:03Z</time></trkpt><trkpt lat="45.82833433158653" lon="15.733100406368758"><ele>133.0</ele><time>2026-05-05T07:08:04Z</time></trkpt><trkpt lat="45.82846714309208" lon="15.732735366409557"><ele>133.0</ele><time>2026-05-05T07:08:05Z</time></trkpt><trkpt lat="45.82859580771353" lon="15.732376036991575"><ele>131.5</ele><time>2026-05-05T07:08:06Z</time></trkpt><trkpt lat="45.82872120644678" lon="15.732018029471927"><ele>130.0</ele><time>2026-05-05T07:08:07Z</time></trkpt><trkpt lat="45.828842186005254" lon="15.731666963682079"><ele>130.0</ele><time>2026-05-05T07:08:08Z</time></trkpt><trkpt lat="45.82895348851538" lon="15.731335152261774"><ele>130.0</ele><time>2026-05-05T07:08:09Z</time></trkpt><trkpt lat="45.82906173191333" lon="15.731017834190213"><ele>131.0</ele><time>2026-05-05T07:08:10Z</time></trkpt><trkpt lat="45.82916864366071" lon="15.730718832019381"><ele>132.0</ele><time>2026-05-05T07:08:11Z</time></trkpt><trkpt lat="45.829278006053215" lon="15.730408873438567"><ele>130.5</ele><time>2026-05-05T07:08:12Z</time></trkpt><trkpt lat="45.829383307547786" lon="15.730103509209977"><ele>129.0</ele><time>2026-05-05T07:08:13Z</time></trkpt><trkpt lat="45.82948951432326" lon="15.729793116211855"><ele>129.0</ele><time>2026-05-05T07:08:14Z</time></trkpt><trkpt lat="45.82959560738112" lon="15.729484441481723"><ele>129.0</ele><time>2026-05-05T07:08:15Z</time></trkpt><trkpt lat="45.82970181050763" lon="15.729169692242431"><ele>129.0</ele><time>2026-05-05T07:08:16Z</time></trkpt><trkpt lat="45.829807213982605" lon="15.72885494230025"><ele>129.0</ele><time>2026-05-05T07:08:17Z</time></trkpt><trkpt lat="45.82991133582228" lon="15.728536158980367"><ele>129.5</ele><time>2026-05-05T07:08:18Z</time></trkpt><trkpt lat="45.83001265237738" lon="15.728226046068537"><ele>130.0</ele><time>2026-05-05T07:08:19Z</time></trkpt><trkpt lat="45.83012064029988" lon="15.727904893127052"><ele>131.0</ele><time>2026-05-05T07:08:20Z</time></trkpt><trkpt lat="45.83022658586941" lon="15.727596883427553"><ele>132.0</ele><time>2026-05-05T07:08:21Z</time></trkpt><trkpt lat="45.830333011418155" lon="15.727284404899372"><ele>132.0</ele><time>2026-05-05T07:08:22Z</time></trkpt><trkpt lat="45.83043358171282" lon="15.726990241369087"><ele>132.0</ele><time>2026-05-05T07:08:23Z</time></trkpt><trkpt lat="45.830533242428274" lon="15.726692728623867"><ele>131.0</ele><time>2026-05-05T07:08:24Z</time></trkpt><trkpt lat="45.83063241957088" lon="15.726399796373446"><ele>130.0</ele><time>2026-05-05T07:08:25Z</time></trkpt><trkpt lat="45.830735063152744" lon="15.726107452659331"><ele>130.0</ele><time>2026-05-05T07:08:26Z</time></trkpt><trkpt lat="45.830840118622675" lon="15.725821343090603"><ele>130.0</ele><time>2026-05-05T07:08:27Z</time></trkpt><trkpt lat="45.830938275560264" lon="15.725554542299339"><ele>130.0</ele><time>2026-05-05T07:08:28Z</time></trkpt><trkpt lat="45.83103065659402" lon="15.725294621196259"><ele>129.66666666666669</ele><time>2026-05-05T07:08:29Z</time></trkpt><trkpt lat="45.83111749609319" lon="15.725039401104702"><ele>129.33333333333334</ele><time>2026-05-05T07:08:30Z</time></trkpt><trkpt lat="45.831195404913856" lon="15.724797673422726"><ele>129.0</ele><time>2026-05-05T07:08:31Z</time></trkpt><trkpt lat="45.831268866842784" lon="15.724571074658757"><ele>129.66666666666666</ele><time>2026-05-05T07:08:32Z</time></trkpt><trkpt lat="45.83133989123297" lon="15.72435288624204"><ele>130.33333333333331</ele><time>2026-05-05T07:08:33Z</time></trkpt><trkpt lat="45.83141273984116" lon="15.724143912694647"><ele>131.0</ele><time>2026-05-05T07:08:34Z</time></trkpt><trkpt lat="45.83148572768803" lon="15.723946465285222"><ele>131.0</ele><time>2026-05-05T07:08:35Z</time></trkpt><trkpt lat="45.831567360843884" lon="15.723754577042747"><ele>131.0</ele><time>2026-05-05T07:08:36Z</time></trkpt><trkpt lat="45.831668414892775" lon="15.723565573378727"><ele>131.0</ele><time>2026-05-05T07:08:37Z</time></trkpt><trkpt lat="45.83178777017975" lon="15.723388281796714"><ele>132.0</ele><time>2026-05-05T07:08:38Z</time></trkpt><trkpt lat="45.83192567263324" lon="15.723237284748196"><ele>133.0</ele><time>2026-05-05T07:08:39Z</time></trkpt><trkpt lat="45.83207580649017" lon="15.723115776270024"><ele>134.0</ele><time>2026-05-05T07:08:40Z</time></trkpt><trkpt lat="45.83223878158778" lon="15.723011203237638"><ele>134.0</ele><time>2026-05-05T07:08:41Z</time></trkpt><trkpt lat="45.832410077577926" lon="15.7229303841166"><ele>134.0</ele><time>2026-05-05T07:08:42Z</time></trkpt><trkpt lat="45.8325723172496" lon="15.722869486667815"><ele>134.0</ele><time>2026-05-05T07:08:43Z</time></trkpt><trkpt lat="45.83272701316851" lon="15.722803811584152"><ele>132.5</ele><time>2026-05-05T07:08:44Z</time></trkpt><trkpt lat="45.83284938488447" lon="15.722687520875954"><ele>131.0</ele><time>2026-05-05T07:08:45Z</time></trkpt><trkpt lat="45.83296954026951" lon="15.722585078914173"><ele>129.5</ele><time>2026-05-05T07:08:46Z</time></trkpt><trkpt lat="45.83303729345766" lon="15.72242317949388"><ele>128.0</ele><time>2026-05-05T07:08:47Z</time></trkpt><trkpt lat="45.833070750537004" lon="15.722239064234858"><ele>128.0</ele><time>2026-05-05T07:08:48Z</time></trkpt><trkpt lat="45.8330642548064" lon="15.722053094493681"><ele>128.0</ele><time>2026-05-05T07:08:49Z</time></trkpt><trkpt lat="45.833020413645464" lon="15.721874771460834"><ele>128.0</ele><time>2026-05-05T07:08:50Z</time></trkpt><trkpt lat="45.83294554882922" lon="15.721715189845119"><ele>128.0</ele><time>2026-05-05T07:08:51Z</time></trkpt><trkpt lat="45.83284581195581" lon="15.72157749163072"><ele>128.0</ele><time>2026-05-05T07:08:52Z</time></trkpt><trkpt lat="45.8327238537546" lon="15.721465022849152"><ele>128.0</ele><time>2026-05-05T07:08:53Z</time></trkpt><trkpt lat="45.83258699060529" lon="15.721372113707334"><ele>128.0</ele><time>2026-05-05T07:08:54Z</time></trkpt><trkpt lat="45.83244463120977" lon="15.721284709448293"><ele>128.33333333333331</ele><time>2026-05-05T07:08:55Z</time></trkpt><trkpt lat="45.83230645810448" lon="15.721172232945404"><ele>128.66666666666666</ele><time>2026-05-05T07:08:56Z</time></trkpt><trkpt lat="45.832148100052" lon="15.721091415739933"><ele>129.0</ele><time>2026-05-05T07:08:57Z</time></trkpt><trkpt lat="45.83198251227428" lon="15.720976589693485"><ele>129.66666666666666</ele><time>2026-05-05T07:08:58Z</time></trkpt><trkpt lat="45.83180449638735" lon="15.720853788331116"><ele>130.33333333333331</ele><time>2026-05-05T07:08:59Z</time></trkpt><trkpt lat="45.83163420254156" lon="15.720736493559558"><ele>131.0</ele><time>2026-05-05T07:09:00Z</time></trkpt><trkpt lat="45.831467775359386" lon="15.720622061555368"><ele>131.0</ele><time>2026-05-05T07:09:01Z</time></trkpt><trkpt lat="45.83130667710851" lon="15.720511302988516"><ele>131.0</ele><time>2026-05-05T07:09:02Z</time></trkpt><trkpt lat="45.83114541106694" lon="15.720404589492935"><ele>131.0</ele><time>2026-05-05T07:09:03Z</time></trkpt><trkpt lat="45.83097796995642" lon="15.720290305261967"><ele>131.33333333333331</ele><time>2026-05-05T07:09:04Z</time></trkpt><trkpt lat="45.83080678932476" lon="15.72017028039141"><ele>131.66666666666666</ele><time>2026-05-05T07:09:05Z</time></trkpt><trkpt lat="45.83063383529519" lon="15.720049841862938"><ele>132.0</ele><time>2026-05-05T07:09:06Z</time></trkpt><trkpt lat="45.83046266879354" lon="15.71993015599538"><ele>132.0</ele><time>2026-05-05T07:09:07Z</time></trkpt><trkpt lat="45.830294820371364" lon="15.71981454273934"><ele>132.0</ele><time>2026-05-05T07:09:08Z</time></trkpt><trkpt lat="45.83012941415527" lon="15.71970247617367"><ele>132.0</ele><time>2026-05-05T07:09:09Z</time></trkpt><trkpt lat="45.8299740390003" lon="15.7195973667364"><ele>132.0</ele><time>2026-05-05T07:09:10Z</time></trkpt><trkpt lat="45.829823618425735" lon="15.719490122087537"><ele>132.0</ele><time>2026-05-05T07:09:11Z</time></trkpt><trkpt lat="45.82968204981723" lon="15.719386617180218"><ele>132.0</ele><time>2026-05-05T07:09:12Z</time></trkpt><trkpt lat="45.829539081941036" lon="15.71928402156843"><ele>132.33333333333334</ele><time>2026-05-05T07:09:13Z</time></trkpt><trkpt lat="45.82939750246929" lon="15.719182586302104"><ele>132.66666666666669</ele><time>2026-05-05T07:09:14Z</time></trkpt><trkpt lat="45.8292633361068" lon="15.719086203994445"><ele>133.0</ele><time>2026-05-05T07:09:15Z</time></trkpt><trkpt lat="45.82914172397879" lon="15.718977343597418"><ele>133.0</ele><time>2026-05-05T07:09:16Z</time></trkpt><trkpt lat="45.82905602531223" lon="15.71882318989001"><ele>133.0</ele><time>2026-05-05T07:09:17Z</time></trkpt><trkpt lat="45.82900755988134" lon="15.71866328891837"><ele>133.0</ele><time>2026-05-05T07:09:18Z</time></trkpt><trkpt lat="45.82897898322197" lon="15.718502699262915"><ele>133.0</ele><time>2026-05-05T07:09:19Z</time></trkpt><trkpt lat="45.82898320906735" lon="15.718347784130435"><ele>133.0</ele><time>2026-05-05T07:09:20Z</time></trkpt><trkpt lat="45.82900019189366" lon="15.718189402155343"><ele>133.0</ele><time>2026-05-05T07:09:21Z</time></trkpt><trkpt lat="45.82902427389272" lon="15.718036371449138"><ele>133.0</ele><time>2026-05-05T07:09:22Z</time></trkpt><trkpt lat="45.82905896925349" lon="15.717914874778177"><ele>133.0</ele><time>2026-05-05T07:09:23Z</time></trkpt><trkpt lat="45.82908838627004" lon="15.71781209362532"><ele>133.0</ele><time>2026-05-05T07:09:24Z</time></trkpt><trkpt lat="45.829111624771265" lon="15.717722030846698"><ele>133.0</ele><time>2026-05-05T07:09:25Z</time></trkpt><trkpt lat="45.82914560946443" lon="15.717569393419637"><ele>133.0</ele><time>2026-05-05T07:09:27Z</time></trkpt><trkpt lat="45.829197466499416" lon="15.71742618117996"><ele>133.0</ele><time>2026-05-05T07:09:29Z</time></trkpt><trkpt lat="45.829120521589005" lon="15.717240042194652"><ele>133.0</ele><time>2026-05-05T07:09:30Z</time></trkpt><trkpt lat="45.8290366399153" lon="15.717164902480873"><ele>133.0</ele><time>2026-05-05T07:09:31Z</time></trkpt><trkpt lat="45.8289503481201" lon="15.7170349413997"><ele>133.0</ele><time>2026-05-05T07:09:32Z</time></trkpt><trkpt lat="45.82884357622913" lon="15.716891833927852"><ele>133.0</ele><time>2026-05-05T07:09:33Z</time></trkpt><trkpt lat="45.8287287987133" lon="15.716742299991433"><ele>133.0</ele><time>2026-05-05T07:09:34Z</time></trkpt><trkpt lat="45.82861882265937" lon="15.716594677603531"><ele>132.75</ele><time>2026-05-05T07:09:35Z</time></trkpt><trkpt lat="45.82851556518094" lon="15.716455407080893"><ele>132.5</ele><time>2026-05-05T07:09:36Z</time></trkpt><trkpt lat="45.82841609464905" lon="15.716305286715555"><ele>132.25</ele><time>2026-05-05T07:09:37Z</time></trkpt><trkpt lat="45.82831947386228" lon="15.716139087767074"><ele>132.0</ele><time>2026-05-05T07:09:38Z</time></trkpt><trkpt lat="45.82822932669864" lon="15.715971420662722"><ele>132.66666666666666</ele><time>2026-05-05T07:09:39Z</time></trkpt><trkpt lat="45.828141260524745" lon="15.7157933591961"><ele>133.33333333333331</ele><time>2026-05-05T07:09:40Z</time></trkpt><trkpt lat="45.82805191848959" lon="15.71560117188029"><ele>134.0</ele><time>2026-05-05T07:09:41Z</time></trkpt><trkpt lat="45.82796433366227" lon="15.715405588950729"><ele>134.25</ele><time>2026-05-05T07:09:42Z</time></trkpt><trkpt lat="45.827891037414844" lon="15.715202971155398"><ele>134.5</ele><time>2026-05-05T07:09:43Z</time></trkpt><trkpt lat="45.827831569105975" lon="15.715011996711544"><ele>134.75</ele><time>2026-05-05T07:09:44Z</time></trkpt><trkpt lat="45.82779075465567" lon="15.714825427072823"><ele>135.0</ele><time>2026-05-05T07:09:45Z</time></trkpt><trkpt lat="45.82775782908024" lon="15.714639573727991"><ele>135.0</ele><time>2026-05-05T07:09:46Z</time></trkpt><trkpt lat="45.827730435419824" lon="15.714456431481084"><ele>135.0</ele><time>2026-05-05T07:09:47Z</time></trkpt><trkpt lat="45.82770911375654" lon="15.71428932979138"><ele>135.0</ele><time>2026-05-05T07:09:48Z</time></trkpt><trkpt lat="45.827693211611766" lon="15.714134897635397"><ele>135.0</ele><time>2026-05-05T07:09:49Z</time></trkpt><trkpt lat="45.82768089274525" lon="15.713998366735174"><ele>135.2</ele><time>2026-05-05T07:09:50Z</time></trkpt><trkpt lat="45.82768397192647" lon="15.713867218637528"><ele>135.4</ele><time>2026-05-05T07:09:51Z</time></trkpt><trkpt lat="45.82769866842437" lon="15.713741865994875"><ele>135.6</ele><time>2026-05-05T07:09:52Z</time></trkpt><trkpt lat="45.827734781636494" lon="15.713623888837855"><ele>135.8</ele><time>2026-05-05T07:09:53Z</time></trkpt><trkpt lat="45.82768055189448" lon="15.713456794025063"><ele>136.0</ele><time>2026-05-05T07:09:54Z</time></trkpt><trkpt lat="45.82765131853334" lon="15.713257233695739"><ele>136.0</ele><time>2026-05-05T07:09:55Z</time></trkpt><trkpt lat="45.82762208477309" lon="15.71303157596165"><ele>136.0</ele><time>2026-05-05T07:09:56Z</time></trkpt><trkpt lat="45.82759417979444" lon="15.712783194215017"><ele>136.0</ele><time>2026-05-05T07:09:57Z</time></trkpt><trkpt lat="45.827570062054846" lon="15.712520909839657"><ele>136.0</ele><time>2026-05-05T07:09:58Z</time></trkpt><trkpt lat="45.827546635875116" lon="15.712247919424945"><ele>136.0</ele><time>2026-05-05T07:09:59Z</time></trkpt><trkpt lat="45.82752246016317" lon="15.711968259121743"><ele>136.0</ele><time>2026-05-05T07:10:00Z</time></trkpt><trkpt lat="45.827498724714005" lon="15.711671906982755"><ele>135.33333333333334</ele><time>2026-05-05T07:10:01Z</time></trkpt><trkpt lat="45.827473297608876" lon="15.711367793307552"><ele>134.66666666666666</ele><time>2026-05-05T07:10:02Z</time></trkpt><trkpt lat="45.827444269043575" lon="15.711057215014808"><ele>134.0</ele><time>2026-05-05T07:10:03Z</time></trkpt><trkpt lat="45.82740484557936" lon="15.710745807165855"><ele>134.0</ele><time>2026-05-05T07:10:04Z</time></trkpt><trkpt lat="45.82734031109994" lon="15.710435163596605"><ele>134.0</ele><time>2026-05-05T07:10:05Z</time></trkpt><trkpt lat="45.827256744779255" lon="15.710136763213079"><ele>134.0</ele><time>2026-05-05T07:10:06Z</time></trkpt><trkpt lat="45.82717035019776" lon="15.709849662074857"><ele>134.0</ele><time>2026-05-05T07:10:07Z</time></trkpt><trkpt lat="45.827092588715516" lon="15.709574251549428"><ele>134.0</ele><time>2026-05-05T07:10:08Z</time></trkpt><trkpt lat="45.827025907628105" lon="15.709315421199369"><ele>133.66666666666666</ele><time>2026-05-05T07:10:09Z</time></trkpt><trkpt lat="45.82696430506645" lon="15.709066042374179"><ele>133.33333333333334</ele><time>2026-05-05T07:10:10Z</time></trkpt><trkpt lat="45.82690062618128" lon="15.70881506097787"><ele>133.0</ele><time>2026-05-05T07:10:11Z</time></trkpt><trkpt lat="45.826833788645345" lon="15.708554144239816"><ele>133.33333333333334</ele><time>2026-05-05T07:10:12Z</time></trkpt><trkpt lat="45.82676511944345" lon="15.708290664550546"><ele>133.66666666666666</ele><time>2026-05-05T07:10:13Z</time></trkpt><trkpt lat="45.8266972700721" lon="15.708032427709977"><ele>134.0</ele><time>2026-05-05T07:10:14Z</time></trkpt><trkpt lat="45.82663277446632" lon="15.7077784528943"><ele>133.66666666666666</ele><time>2026-05-05T07:10:15Z</time></trkpt><trkpt lat="45.82656642134492" lon="15.707519878091292"><ele>133.33333333333334</ele><time>2026-05-05T07:10:16Z</time></trkpt><trkpt lat="45.82649898780528" lon="15.707259315316433"><ele>133.0</ele><time>2026-05-05T07:10:17Z</time></trkpt><trkpt lat="45.826430915271736" lon="15.706996328322814"><ele>134.0</ele><time>2026-05-05T07:10:18Z</time></trkpt><trkpt lat="45.82636150959577" lon="15.706734033466486"><ele>135.0</ele><time>2026-05-05T07:10:19Z</time></trkpt><trkpt lat="45.82629244071893" lon="15.706468163655314"><ele>136.0</ele><time>2026-05-05T07:10:20Z</time></trkpt><trkpt lat="45.82622323441555" lon="15.706200073359232"><ele>136.66666666666669</ele><time>2026-05-05T07:10:21Z</time></trkpt><trkpt lat="45.826156450739866" lon="15.705933315326991"><ele>137.33333333333334</ele><time>2026-05-05T07:10:22Z</time></trkpt><trkpt lat="45.8260890362386" lon="15.705678517470709"><ele>138.0</ele><time>2026-05-05T07:10:23Z</time></trkpt><trkpt lat="45.826026105073886" lon="15.705430186375745"><ele>139.0</ele><time>2026-05-05T07:10:24Z</time></trkpt><trkpt lat="45.825964800014795" lon="15.705191066117413"><ele>140.0</ele><time>2026-05-05T07:10:25Z</time></trkpt><trkpt lat="45.825904467613555" lon="15.704953657692958"><ele>141.0</ele><time>2026-05-05T07:10:26Z</time></trkpt><trkpt lat="45.82584512004138" lon="15.704727092832355"><ele>141.0</ele><time>2026-05-05T07:10:27Z</time></trkpt><trkpt lat="45.82578865691105" lon="15.704508596154545"><ele>141.0</ele><time>2026-05-05T07:10:28Z</time></trkpt><trkpt lat="45.82573514013108" lon="15.704304632202536"><ele>141.0</ele><time>2026-05-05T07:10:29Z</time></trkpt><trkpt lat="45.825685234872054" lon="15.704115145364856"><ele>140.5</ele><time>2026-05-05T07:10:30Z</time></trkpt><trkpt lat="45.82564096821815" lon="15.70393900658991"><ele>140.0</ele><time>2026-05-05T07:10:31Z</time></trkpt><trkpt lat="45.82560563682837" lon="15.703768598769972"><ele>139.5</ele><time>2026-05-05T07:10:32Z</time></trkpt><trkpt lat="45.825576704009" lon="15.703608864657832"><ele>139.0</ele><time>2026-05-05T07:10:33Z</time></trkpt><trkpt lat="45.82554831790643" lon="15.70347194725161"><ele>138.8</ele><time>2026-05-05T07:10:34Z</time></trkpt><trkpt lat="45.825522372684155" lon="15.703370780630292"><ele>138.60000000000002</ele><time>2026-05-05T07:10:35Z</time></trkpt><trkpt lat="45.82549824936468" lon="15.703285357752753"><ele>138.4</ele><time>2026-05-05T07:10:36Z</time></trkpt><trkpt lat="45.825480133816164" lon="15.703131845922437"><ele>138.20000000000002</ele><time>2026-05-05T07:10:38Z</time></trkpt><trkpt lat="45.825626875050745" lon="15.702942618034745"><ele>138.0</ele><time>2026-05-05T07:10:40Z</time></trkpt><trkpt lat="45.82576208905791" lon="15.702839145973705"><ele>138.33333333333334</ele><time>2026-05-05T07:10:41Z</time></trkpt><trkpt lat="45.82593019780103" lon="15.702720429497395"><ele>138.66666666666669</ele><time>2026-05-05T07:10:42Z</time></trkpt><trkpt lat="45.826102573915485" lon="15.702597721650863"><ele>139.0</ele><time>2026-05-05T07:10:43Z</time></trkpt><trkpt lat="45.82628314301266" lon="15.702466150434736"><ele>139.0</ele><time>2026-05-05T07:10:44Z</time></trkpt><trkpt lat="45.8264710751188" lon="15.702328824089472"><ele>139.0</ele><time>2026-05-05T07:10:45Z</time></trkpt><trkpt lat="45.82666799116585" lon="15.70218483538074"><ele>139.0</ele><time>2026-05-05T07:10:46Z</time></trkpt><trkpt lat="45.82687976576012" lon="15.702032876628339"><ele>138.5</ele><time>2026-05-05T07:10:47Z</time></trkpt><trkpt lat="45.82709839298785" lon="15.7018799028288"><ele>138.0</ele><time>2026-05-05T07:10:48Z</time></trkpt><trkpt lat="45.82732309831181" lon="15.701720439309435"><ele>138.0</ele><time>2026-05-05T07:10:49Z</time></trkpt><trkpt lat="45.82755020035465" lon="15.701555530511989"><ele>138.0</ele><time>2026-05-05T07:10:50Z</time></trkpt><trkpt lat="45.82778422339953" lon="15.70138305218205"><ele>137.5</ele><time>2026-05-05T07:10:51Z</time></trkpt><trkpt lat="45.82802109930486" lon="15.701208266023466"><ele>137.0</ele><time>2026-05-05T07:10:52Z</time></trkpt><trkpt lat="45.82825551416547" lon="15.701040940400798"><ele>137.5</ele><time>2026-05-05T07:10:53Z</time></trkpt><trkpt lat="45.82847467192645" lon="15.70088686199639"><ele>138.0</ele><time>2026-05-05T07:10:54Z</time></trkpt><trkpt lat="45.82867344956353" lon="15.70074291403015"><ele>138.0</ele><time>2026-05-05T07:10:55Z</time></trkpt><trkpt lat="45.82886182413277" lon="15.700605758806905"><ele>138.0</ele><time>2026-05-05T07:10:56Z</time></trkpt><trkpt lat="45.82903827596327" lon="15.700475288941595"><ele>138.0</ele><time>2026-05-05T07:10:57Z</time></trkpt><trkpt lat="45.82920804090163" lon="15.700355247248996"><ele>138.33333333333334</ele><time>2026-05-05T07:10:58Z</time></trkpt><trkpt lat="45.829363513591304" lon="15.70024485140013"><ele>138.66666666666669</ele><time>2026-05-05T07:10:59Z</time></trkpt><trkpt lat="45.8295138333247" lon="15.7001391918042"><ele>139.0</ele><time>2026-05-05T07:11:00Z</time></trkpt><trkpt lat="45.82966161579083" lon="15.700034882883871"><ele>139.0</ele><time>2026-05-05T07:11:01Z</time></trkpt><trkpt lat="45.829805825187286" lon="15.699931734134456"><ele>139.0</ele><time>2026-05-05T07:11:02Z</time></trkpt><trkpt lat="45.82994681752627" lon="15.699830102563206"><ele>139.0</ele><time>2026-05-05T07:11:03Z</time></trkpt><trkpt lat="45.83008033631194" lon="15.699733135628733"><ele>138.66666666666669</ele><time>2026-05-05T07:11:04Z</time></trkpt><trkpt lat="45.83021087185469" lon="15.699637315226921"><ele>138.33333333333334</ele><time>2026-05-05T07:11:05Z</time></trkpt><trkpt lat="45.830343578029655" lon="15.699543321423784"><ele>138.0</ele><time>2026-05-05T07:11:06Z</time></trkpt><trkpt lat="45.83048553811976" lon="15.699440548266763"><ele>138.66666666666666</ele><time>2026-05-05T07:11:07Z</time></trkpt><trkpt lat="45.83063314021274" lon="15.699335708451502"><ele>139.33333333333331</ele><time>2026-05-05T07:11:08Z</time></trkpt><trkpt lat="45.83078714723959" lon="15.699225277890775"><ele>140.0</ele><time>2026-05-05T07:11:09Z</time></trkpt><trkpt lat="45.83094813548894" lon="15.699109668175709"><ele>139.33333333333331</ele><time>2026-05-05T07:11:10Z</time></trkpt><trkpt lat="45.8311124568534" lon="15.698989843384604"><ele>138.66666666666666</ele><time>2026-05-05T07:11:11Z</time></trkpt><trkpt lat="45.831279616925826" lon="15.698866342501583"><ele>138.0</ele><time>2026-05-05T07:11:12Z</time></trkpt><trkpt lat="45.83145363556417" lon="15.698736484057015"><ele>138.0</ele><time>2026-05-05T07:11:13Z</time></trkpt><trkpt lat="45.83163801336486" lon="15.6986035968157"><ele>138.0</ele><time>2026-05-05T07:11:14Z</time></trkpt><trkpt lat="45.83183094996952" lon="15.698464310735671"><ele>138.0</ele><time>2026-05-05T07:11:15Z</time></trkpt><trkpt lat="45.83202520667207" lon="15.69832763631565"><ele>138.33333333333334</ele><time>2026-05-05T07:11:16Z</time></trkpt><trkpt lat="45.832215530542314" lon="15.698191243801068"><ele>138.66666666666669</ele><time>2026-05-05T07:11:17Z</time></trkpt><trkpt lat="45.832409612364735" lon="15.698051818302227"><ele>139.0</ele><time>2026-05-05T07:11:18Z</time></trkpt><trkpt lat="45.83259919408929" lon="15.697917418924595"><ele>138.66666666666669</ele><time>2026-05-05T07:11:19Z</time></trkpt><trkpt lat="45.832782693060565" lon="15.69779070073931"><ele>138.33333333333334</ele><time>2026-05-05T07:11:20Z</time></trkpt><trkpt lat="45.832965923712386" lon="15.697667898651959"><ele>138.0</ele><time>2026-05-05T07:11:21Z</time></trkpt><trkpt lat="45.83315239006058" lon="15.697547175890632"><ele>138.0</ele><time>2026-05-05T07:11:22Z</time></trkpt><trkpt lat="45.83334181284143" lon="15.697425631279918"><ele>138.0</ele><time>2026-05-05T07:11:23Z</time></trkpt><trkpt lat="45.83353405825737" lon="15.697302968387405"><ele>138.0</ele><time>2026-05-05T07:11:24Z</time></trkpt><trkpt lat="45.83373271381029" lon="15.69717906629046"><ele>138.0</ele><time>2026-05-05T07:11:25Z</time></trkpt><trkpt lat="45.83393130777734" lon="15.697056955926472"><ele>138.0</ele><time>2026-05-05T07:11:26Z</time></trkpt><trkpt lat="45.83413124634918" lon="15.696933333186525"><ele>138.0</ele><time>2026-05-05T07:11:27Z</time></trkpt><trkpt lat="45.83432639064515" lon="15.696817917562955"><ele>138.66666666666666</ele><time>2026-05-05T07:11:28Z</time></trkpt><trkpt lat="45.83451973518891" lon="15.696709052227302"><ele>139.33333333333331</ele><time>2026-05-05T07:11:29Z</time></trkpt><trkpt lat="45.834708512315025" lon="15.696605310233652"><ele>140.0</ele><time>2026-05-05T07:11:30Z</time></trkpt><trkpt lat="45.83489686527494" lon="15.696504477384034"><ele>140.0</ele><time>2026-05-05T07:11:31Z</time></trkpt><trkpt lat="45.83508394230069" lon="15.696405137506984"><ele>140.0</ele><time>2026-05-05T07:11:32Z</time></trkpt><trkpt lat="45.83526582342598" lon="15.69630907777229"><ele>140.0</ele><time>2026-05-05T07:11:33Z</time></trkpt><trkpt lat="45.835446310258256" lon="15.696216286941514"><ele>140.0</ele><time>2026-05-05T07:11:34Z</time></trkpt><trkpt lat="45.835622941956785" lon="15.696127732104946"><ele>140.0</ele><time>2026-05-05T07:11:35Z</time></trkpt><trkpt lat="45.835796806895274" lon="15.696044003788769"><ele>140.0</ele><time>2026-05-05T07:11:36Z</time></trkpt><trkpt lat="45.8359719535716" lon="15.695963607150107"><ele>140.66666666666666</ele><time>2026-05-05T07:11:37Z</time></trkpt><trkpt lat="45.83614767679796" lon="15.695889073585867"><ele>141.33333333333334</ele><time>2026-05-05T07:11:38Z</time></trkpt><trkpt lat="45.83631179697513" lon="15.695816308630103"><ele>142.0</ele><time>2026-05-05T07:11:39Z</time></trkpt><trkpt lat="45.83646555854401" lon="15.695750999566467"><ele>142.0</ele><time>2026-05-05T07:11:40Z</time></trkpt><trkpt lat="45.83661740556656" lon="15.695689030074888"><ele>142.0</ele><time>2026-05-05T07:11:41Z</time></trkpt><trkpt lat="45.83676637906582" lon="15.695631031111526"><ele>142.0</ele><time>2026-05-05T07:11:42Z</time></trkpt><trkpt lat="45.83691984227792" lon="15.695578012479318"><ele>142.0</ele><time>2026-05-05T07:11:43Z</time></trkpt><trkpt lat="45.83707337134682" lon="15.695533389045178"><ele>142.0</ele><time>2026-05-05T07:11:44Z</time></trkpt><trkpt lat="45.837224258551146" lon="15.695497939720251"><ele>142.0</ele><time>2026-05-05T07:11:45Z</time></trkpt><trkpt lat="45.83737319326448" lon="15.695475566355986"><ele>142.0</ele><time>2026-05-05T07:11:46Z</time></trkpt><trkpt lat="45.83751058869523" lon="15.695470561418134"><ele>142.0</ele><time>2026-05-05T07:11:47Z</time></trkpt><trkpt lat="45.83764596553742" lon="15.695476224844834"><ele>142.0</ele><time>2026-05-05T07:11:48Z</time></trkpt><trkpt lat="45.83778136266592" lon="15.695487765862055"><ele>142.0</ele><time>2026-05-05T07:11:49Z</time></trkpt><trkpt lat="45.8379087468125" lon="15.695505203890214"><ele>141.79999999999998</ele><time>2026-05-05T07:11:50Z</time></trkpt><trkpt lat="45.838025513688365" lon="15.695529709338906"><ele>141.6</ele><time>2026-05-05T07:11:51Z</time></trkpt><trkpt lat="45.83813838259752" lon="15.695557346413649"><ele>141.39999999999998</ele><time>2026-05-05T07:11:52Z</time></trkpt><trkpt lat="45.838240308540314" lon="15.695583939079857"><ele>141.2</ele><time>2026-05-05T07:11:53Z</time></trkpt><trkpt lat="45.83833211678681" lon="15.69560609052618"><ele>141.0</ele><time>2026-05-05T07:11:54Z</time></trkpt><trkpt lat="45.83841523645823" lon="15.695609586067361"><ele>141.16666666666666</ele><time>2026-05-05T07:11:55Z</time></trkpt><trkpt lat="45.838494876071735" lon="15.695585172604343"><ele>141.33333333333334</ele><time>2026-05-05T07:11:56Z</time></trkpt><trkpt lat="45.83856598800717" lon="15.695528726168812"><ele>141.5</ele><time>2026-05-05T07:11:57Z</time></trkpt><trkpt lat="45.83863529391419" lon="15.695453032758369"><ele>141.66666666666669</ele><time>2026-05-05T07:11:58Z</time></trkpt><trkpt lat="45.83869991997201" lon="15.695370987029136"><ele>141.83333333333334</ele><time>2026-05-05T07:11:59Z</time></trkpt><trkpt lat="45.838765885453775" lon="15.695285100754946"><ele>142.0</ele><time>2026-05-05T07:12:00Z</time></trkpt><trkpt lat="45.83882100331879" lon="15.695210010657991"><ele>142.0</ele><time>2026-05-05T07:12:01Z</time></trkpt><trkpt lat="45.83890403124621" lon="15.69512886606204"><ele>142.0</ele><time>2026-05-05T07:12:03Z</time></trkpt><trkpt lat="45.839022888909476" lon="15.695230761327718"><ele>142.0</ele><time>2026-05-05T07:12:07Z</time></trkpt><trkpt lat="45.83905099833583" lon="15.695334617816702"><ele>142.0</ele><time>2026-05-05T07:12:10Z</time></trkpt><trkpt lat="45.839096652832666" lon="15.695437219630644"><ele>142.0</ele><time>2026-05-05T07:12:13Z</time></trkpt><trkpt lat="45.8391325360163" lon="15.695533884112297"><ele>142.14285714285714</ele><time>2026-05-05T07:12:15Z</time></trkpt><trkpt lat="45.839171275180874" lon="15.695618740066724"><ele>142.28571428571428</ele><time>2026-05-05T07:12:17Z</time></trkpt><trkpt lat="45.83921438150076" lon="15.695692172714594"><ele>142.42857142857142</ele><time>2026-05-05T07:12:19Z</time></trkpt><trkpt lat="45.839265612731865" lon="15.695781021586415"><ele>142.57142857142856</ele><time>2026-05-05T07:12:22Z</time></trkpt><trkpt lat="45.839226335010025" lon="15.695888608670614"><ele>142.71428571428572</ele><time>2026-05-05T07:12:25Z</time></trkpt><trkpt lat="45.83929320506356" lon="15.695913929438321"><ele>142.85714285714283</ele><time>2026-05-05T07:12:29Z</time></trkpt><trkpt lat="45.83927358037721" lon="15.695817121057232"><ele>143.0</ele><time>2026-05-05T07:12:32Z</time></trkpt><trkpt lat="45.839233622779865" lon="15.695742113211791"><ele>143.0</ele><time>2026-05-05T07:12:47Z</time></trkpt><trkpt lat="45.8391907603536" lon="15.695628047977682"><ele>143.0</ele><time>2026-05-05T07:17:36Z</time></trkpt><trkpt lat="45.83915009700325" lon="15.695504011150229"><ele>143.0</ele><time>2026-05-05T07:17:38Z</time></trkpt><trkpt lat="45.83910493175244" lon="15.695348893229495"><ele>143.0</ele><time>2026-05-05T07:17:40Z</time></trkpt><trkpt lat="45.83907688809722" lon="15.695265109573517"><ele>143.0</ele><time>2026-05-05T07:17:41Z</time></trkpt><trkpt lat="45.83902685525851" lon="15.69514184746515"><ele>142.8</ele><time>2026-05-05T07:17:43Z</time></trkpt><trkpt lat="45.838972210776085" lon="15.695049846794099"><ele>142.60000000000002</ele><time>2026-05-05T07:17:46Z</time></trkpt><trkpt lat="45.83906185560417" lon="15.69491582126752"><ele>142.39999999999998</ele><time>2026-05-05T07:17:47Z</time></trkpt><trkpt lat="45.83912994151228" lon="15.694820662999813"><ele>142.2</ele><time>2026-05-05T07:17:48Z</time></trkpt><trkpt lat="45.83921783535431" lon="15.694719353104945"><ele>142.0</ele><time>2026-05-05T07:17:49Z</time></trkpt><trkpt lat="45.839305613784234" lon="15.694611305992373"><ele>142.0</ele><time>2026-05-05T07:17:50Z</time></trkpt><trkpt lat="45.83938865547041" lon="15.694497841187644"><ele>142.0</ele><time>2026-05-05T07:17:51Z</time></trkpt><trkpt lat="45.83947706434142" lon="15.694378060838838"><ele>142.0</ele><time>2026-05-05T07:17:52Z</time></trkpt><trkpt lat="45.839559954852035" lon="15.694256190596718"><ele>142.0</ele><time>2026-05-05T07:17:53Z</time></trkpt><trkpt lat="45.83963005673599" lon="15.694122209676804"><ele>142.25</ele><time>2026-05-05T07:17:54Z</time></trkpt><trkpt lat="45.83969471560676" lon="15.693974374784533"><ele>142.5</ele><time>2026-05-05T07:17:55Z</time></trkpt><trkpt lat="45.839752588250505" lon="15.69380698582032"><ele>142.75</ele><time>2026-05-05T07:17:56Z</time></trkpt><trkpt lat="45.83980495705894" lon="15.693617758497767"><ele>143.0</ele><time>2026-05-05T07:17:57Z</time></trkpt><trkpt lat="45.83985401484725" lon="15.693404156224883"><ele>143.0</ele><time>2026-05-05T07:17:58Z</time></trkpt><trkpt lat="45.83988949777575" lon="15.693172945942983"><ele>143.0</ele><time>2026-05-05T07:17:59Z</time></trkpt><trkpt lat="45.83989605700456" lon="15.692905528172018"><ele>143.0</ele><time>2026-05-05T07:18:00Z</time></trkpt><trkpt lat="45.839908887128416" lon="15.692615636278616"><ele>143.33333333333331</ele><time>2026-05-05T07:18:01Z</time></trkpt><trkpt lat="45.839927058008314" lon="15.692298094147084"><ele>143.66666666666666</ele><time>2026-05-05T07:18:02Z</time></trkpt><trkpt lat="45.8399389552207" lon="15.692008300121193"><ele>144.0</ele><time>2026-05-05T07:18:03Z</time></trkpt><trkpt lat="45.839952958532095" lon="15.691750202010335"><ele>144.25</ele><time>2026-05-05T07:18:04Z</time></trkpt><trkpt lat="45.839962167677974" lon="15.691524481885223"><ele>144.5</ele><time>2026-05-05T07:18:05Z</time></trkpt><trkpt lat="45.83997196812562" lon="15.691314076834551"><ele>144.75</ele><time>2026-05-05T07:18:06Z</time></trkpt><trkpt lat="45.839980942344894" lon="15.691130969345933"><ele>145.0</ele><time>2026-05-05T07:18:07Z</time></trkpt><trkpt lat="45.8399850275326" lon="15.690963547140909"><ele>145.0</ele><time>2026-05-05T07:18:08Z</time></trkpt><trkpt lat="45.839993630025624" lon="15.690820342614552"><ele>145.0</ele><time>2026-05-05T07:18:09Z</time></trkpt><trkpt lat="45.840013245964215" lon="15.69069903765445"><ele>145.0</ele><time>2026-05-05T07:18:10Z</time></trkpt><trkpt lat="45.84000437263459" lon="15.69058687783444"><ele>145.0</ele><time>2026-05-05T07:18:11Z</time></trkpt><trkpt lat="45.84001512146116" lon="15.690482690535816"><ele>145.0</ele><time>2026-05-05T07:18:12Z</time></trkpt><trkpt lat="45.84002137677958" lon="15.690390885765968"><ele>145.0</ele><time>2026-05-05T07:18:13Z</time></trkpt><trkpt lat="45.84003224301395" lon="15.690212017123775"><ele>145.16666666666669</ele><time>2026-05-05T07:18:15Z</time></trkpt><trkpt lat="45.84004154263763" lon="15.690110642287038"><ele>145.33333333333334</ele><time>2026-05-05T07:18:16Z</time></trkpt><trkpt lat="45.84004602136693" lon="15.689992645720004"><ele>145.5</ele><time>2026-05-05T07:18:17Z</time></trkpt><trkpt lat="45.84005083962555" lon="15.689852524929721"><ele>145.66666666666666</ele><time>2026-05-05T07:18:18Z</time></trkpt><trkpt lat="45.84005978693631" lon="15.689734536466366"><ele>145.83333333333331</ele><time>2026-05-05T07:18:19Z</time></trkpt><trkpt lat="45.84006252531981" lon="15.689602678777534"><ele>146.0</ele><time>2026-05-05T07:18:20Z</time></trkpt><trkpt lat="45.840068263195484" lon="15.689470169351704"><ele>146.6</ele><time>2026-05-05T07:18:21Z</time></trkpt><trkpt lat="45.840076126736214" lon="15.689326208481171"><ele>147.2</ele><time>2026-05-05T07:18:22Z</time></trkpt><trkpt lat="45.84008255708204" lon="15.689167870742468"><ele>147.8</ele><time>2026-05-05T07:18:23Z</time></trkpt><trkpt lat="45.84009195747992" lon="15.688995674403058"><ele>148.4</ele><time>2026-05-05T07:18:24Z</time></trkpt><trkpt lat="45.84010195936338" lon="15.688827589114707"><ele>149.0</ele><time>2026-05-05T07:18:25Z</time></trkpt><trkpt lat="45.84011219048501" lon="15.6886617053746"><ele>149.4</ele><time>2026-05-05T07:18:26Z</time></trkpt><trkpt lat="45.840119967264926" lon="15.688497682549356"><ele>149.8</ele><time>2026-05-05T07:18:27Z</time></trkpt><trkpt lat="45.84012795841089" lon="15.68834387963642"><ele>150.2</ele><time>2026-05-05T07:18:28Z</time></trkpt><trkpt lat="45.84013733670984" lon="15.688195545681273"><ele>150.6</ele><time>2026-05-05T07:18:29Z</time></trkpt><trkpt lat="45.84015142540669" lon="15.688056505571629"><ele>151.0</ele><time>2026-05-05T07:18:30Z</time></trkpt><trkpt lat="45.84016388270603" lon="15.687938420821148"><ele>151.00000000000003</ele><time>2026-05-05T07:18:31Z</time></trkpt><trkpt lat="45.84017429497412" lon="15.687828250069217"><ele>151.0</ele><time>2026-05-05T07:18:32Z</time></trkpt><trkpt lat="45.84018651651584" lon="15.68771792813298"><ele>151.0</ele><time>2026-05-05T07:18:33Z</time></trkpt><trkpt lat="45.84020033617989" lon="15.68760610194275"><ele>151.0</ele><time>2026-05-05T07:18:34Z</time></trkpt><trkpt lat="45.840212573391725" lon="15.687512799374652"><ele>151.0</ele><time>2026-05-05T07:18:35Z</time></trkpt><trkpt lat="45.84022355916134" lon="15.687423449671606"><ele>151.00000000000003</ele><time>2026-05-05T07:18:36Z</time></trkpt><trkpt lat="45.840235667975776" lon="15.687330875752563"><ele>151.0</ele><time>2026-05-05T07:18:37Z</time></trkpt><trkpt lat="45.840248937563544" lon="15.68722850388736"><ele>151.0</ele><time>2026-05-05T07:18:38Z</time></trkpt><trkpt lat="45.84026264342803" lon="15.687090771721689"><ele>151.0</ele><time>2026-05-05T07:18:39Z</time></trkpt><trkpt lat="45.84026483503957" lon="15.686950315231286"><ele>151.0</ele><time>2026-05-05T07:18:40Z</time></trkpt><trkpt lat="45.840262173110716" lon="15.686823583791247"><ele>151.0</ele><time>2026-05-05T07:18:41Z</time></trkpt><trkpt lat="45.84026173704841" lon="15.686708878531658"><ele>151.0</ele><time>2026-05-05T07:18:42Z</time></trkpt><trkpt lat="45.840252427471874" lon="15.68659733798968"><ele>151.0</ele><time>2026-05-05T07:18:43Z</time></trkpt><trkpt lat="45.840243188671096" lon="15.686503420935257"><ele>151.0</ele><time>2026-05-05T07:18:44Z</time></trkpt><trkpt lat="45.840229758892924" lon="15.686320267720403"><ele>151.0</ele><time>2026-05-05T07:18:46Z</time></trkpt><trkpt lat="45.840230828870254" lon="15.686220790145944"><ele>151.0</ele><time>2026-05-05T07:18:47Z</time></trkpt><trkpt lat="45.84023196329711" lon="15.686124068556197"><ele>151.0</ele><time>2026-05-05T07:18:48Z</time></trkpt><trkpt lat="45.8402471817736" lon="15.686027925910064"><ele>151.0</ele><time>2026-05-05T07:18:49Z</time></trkpt><trkpt lat="45.84026945068494" lon="15.685933308148254"><ele>151.0</ele><time>2026-05-05T07:18:50Z</time></trkpt><trkpt lat="45.8403105707919" lon="15.68585286508831"><ele>151.33333333333334</ele><time>2026-05-05T07:18:51Z</time></trkpt><trkpt lat="45.84036256932844" lon="15.685774808282588"><ele>151.66666666666669</ele><time>2026-05-05T07:18:52Z</time></trkpt><trkpt lat="45.84042002445082" lon="15.685703051976006"><ele>152.0</ele><time>2026-05-05T07:18:53Z</time></trkpt><trkpt lat="45.84049181053773" lon="15.685648499199793"><ele>152.33333333333334</ele><time>2026-05-05T07:18:54Z</time></trkpt><trkpt lat="45.84057061206345" lon="15.685603696449942"><ele>152.66666666666666</ele><time>2026-05-05T07:18:55Z</time></trkpt><trkpt lat="45.84065458331681" lon="15.685565441711082"><ele>153.0</ele><time>2026-05-05T07:18:56Z</time></trkpt><trkpt lat="45.84074475626067" lon="15.685531478354605"><ele>153.0</ele><time>2026-05-05T07:18:57Z</time></trkpt><trkpt lat="45.84083216003682" lon="15.685496159220966"><ele>153.0</ele><time>2026-05-05T07:18:58Z</time></trkpt><trkpt lat="45.84091131556999" lon="15.685458954702"><ele>153.0</ele><time>2026-05-05T07:18:59Z</time></trkpt><trkpt lat="45.8409845412076" lon="15.685417661843884"><ele>153.0</ele><time>2026-05-05T07:19:00Z</time></trkpt><trkpt lat="45.841056064096485" lon="15.685363257024623"><ele>153.0</ele><time>2026-05-05T07:19:01Z</time></trkpt><trkpt lat="45.841129089185145" lon="15.685291207159889"><ele>153.0</ele><time>2026-05-05T07:19:02Z</time></trkpt><trkpt lat="45.841194481804216" lon="15.6852145605974"><ele>152.16666666666666</ele><time>2026-05-05T07:19:03Z</time></trkpt><trkpt lat="45.84125351956889" lon="15.685130192240354"><ele>151.33333333333334</ele><time>2026-05-05T07:19:04Z</time></trkpt><trkpt lat="45.841306510909" lon="15.685041967458213"><ele>150.5</ele><time>2026-05-05T07:19:05Z</time></trkpt><trkpt lat="45.84135357007798" lon="15.68495828551399"><ele>149.66666666666669</ele><time>2026-05-05T07:19:06Z</time></trkpt><trkpt lat="45.841395489127535" lon="15.684879888046966"><ele>148.83333333333334</ele><time>2026-05-05T07:19:07Z</time></trkpt><trkpt lat="45.84143616909027" lon="15.684797976583596"><ele>148.0</ele><time>2026-05-05T07:19:08Z</time></trkpt><trkpt lat="45.84148170616602" lon="15.684716356487174"><ele>148.0</ele><time>2026-05-05T07:19:09Z</time></trkpt><trkpt lat="45.841531051223484" lon="15.684639872422983"><ele>148.0</ele><time>2026-05-05T07:19:10Z</time></trkpt><trkpt lat="45.84158325154877" lon="15.684564867963516"><ele>148.0</ele><time>2026-05-05T07:19:11Z</time></trkpt><trkpt lat="45.84163258949159" lon="15.68449866019126"><ele>148.0</ele><time>2026-05-05T07:19:12Z</time></trkpt><trkpt lat="45.84173270349536" lon="15.684391074117816"><ele>148.0</ele><time>2026-05-05T07:19:14Z</time></trkpt><trkpt lat="45.84179393951636" lon="15.684344953923292"><ele>148.0</ele><time>2026-05-05T07:19:15Z</time></trkpt><trkpt lat="45.841860058081465" lon="15.684313343122524"><ele>147.71428571428572</ele><time>2026-05-05T07:19:16Z</time></trkpt><trkpt lat="45.84192987493682" lon="15.684290657191063"><ele>147.42857142857142</ele><time>2026-05-05T07:19:17Z</time></trkpt><trkpt lat="45.841993217193405" lon="15.684269936935001"><ele>147.14285714285714</ele><time>2026-05-05T07:19:18Z</time></trkpt><trkpt lat="45.84206014205433" lon="15.68424003206782"><ele>146.85714285714286</ele><time>2026-05-05T07:19:19Z</time></trkpt><trkpt lat="45.842129338204664" lon="15.684209781781867"><ele>146.57142857142858</ele><time>2026-05-05T07:19:20Z</time></trkpt><trkpt lat="45.8422012967682" lon="15.68420262044132"><ele>146.28571428571428</ele><time>2026-05-05T07:19:21Z</time></trkpt><trkpt lat="45.842271511912166" lon="15.684176587038062"><ele>146.0</ele><time>2026-05-05T07:19:22Z</time></trkpt><trkpt lat="45.84234339990498" lon="15.684148464884302"><ele>146.0</ele><time>2026-05-05T07:19:23Z</time></trkpt><trkpt lat="45.84241716905237" lon="15.684112212328573"><ele>146.0</ele><time>2026-05-05T07:19:24Z</time></trkpt><trkpt lat="45.84248758706786" lon="15.68406871991098"><ele>146.0</ele><time>2026-05-05T07:19:25Z</time></trkpt><trkpt lat="45.842546220694636" lon="15.683999904437467"><ele>146.0</ele><time>2026-05-05T07:19:26Z</time></trkpt><trkpt lat="45.842614863218074" lon="15.68394767973704"><ele>146.0</ele><time>2026-05-05T07:19:27Z</time></trkpt><trkpt lat="45.84267507564025" lon="15.683890641334038"><ele>146.0</ele><time>2026-05-05T07:19:28Z</time></trkpt><trkpt lat="45.842783625976715" lon="15.683799425328623"><ele>146.0</ele><time>2026-05-05T07:19:30Z</time></trkpt><trkpt lat="45.84284162824996" lon="15.68375516858741"><ele>146.0</ele><time>2026-05-05T07:19:31Z</time></trkpt><trkpt lat="45.84290655342826" lon="15.683704169903253"><ele>146.0</ele><time>2026-05-05T07:19:32Z</time></trkpt><trkpt lat="45.84297944756684" lon="15.683636198343656"><ele>146.0</ele><time>2026-05-05T07:19:33Z</time></trkpt><trkpt lat="45.8430511252347" lon="15.683574309407996"><ele>146.0</ele><time>2026-05-05T07:19:34Z</time></trkpt><trkpt lat="45.8431182627467" lon="15.683522330575919"><ele>146.0</ele><time>2026-05-05T07:19:35Z</time></trkpt><trkpt lat="45.84318518666629" lon="15.683491987231653"><ele>146.0</ele><time>2026-05-05T07:19:36Z</time></trkpt><trkpt lat="45.843297993230486" lon="15.683515818753685"><ele>146.0</ele><time>2026-05-05T07:19:38Z</time></trkpt><trkpt lat="45.84336754444416" lon="15.683589787555865"><ele>146.0</ele><time>2026-05-05T07:19:40Z</time></trkpt><trkpt lat="45.84339660939506" lon="15.683746468973457"><ele>146.0</ele><time>2026-05-05T07:19:42Z</time></trkpt><trkpt lat="45.84338692892019" lon="15.683869582797952"><ele>146.0</ele><time>2026-05-05T07:19:43Z</time></trkpt><trkpt lat="45.843376300892864" lon="15.684000851821972"><ele>146.0</ele><time>2026-05-05T07:19:44Z</time></trkpt><trkpt lat="45.843356793195184" lon="15.684143334053674"><ele>146.0</ele><time>2026-05-05T07:19:45Z</time></trkpt><trkpt lat="45.843336260187584" lon="15.684280277365385"><ele>146.0</ele><time>2026-05-05T07:19:46Z</time></trkpt><trkpt lat="45.8433199956107" lon="15.684422503197291"><ele>146.0</ele><time>2026-05-05T07:19:47Z</time></trkpt><trkpt lat="45.843316020896275" lon="15.68456746469942"><ele>146.0</ele><time>2026-05-05T07:19:48Z</time></trkpt><trkpt lat="45.84332143920392" lon="15.684715935614893"><ele>146.0</ele><time>2026-05-05T07:19:49Z</time></trkpt><trkpt lat="45.84332961230369" lon="15.684865844573842"><ele>146.0</ele><time>2026-05-05T07:19:50Z</time></trkpt><trkpt lat="45.84334147965115" lon="15.68502006463579"><ele>146.0</ele><time>2026-05-05T07:19:51Z</time></trkpt><trkpt lat="45.843355403366594" lon="15.685180469907877"><ele>146.0</ele><time>2026-05-05T07:19:52Z</time></trkpt><trkpt lat="45.84336889885438" lon="15.685335094959616"><ele>146.0</ele><time>2026-05-05T07:19:53Z</time></trkpt><trkpt lat="45.843383087320035" lon="15.685481809416999"><ele>145.83333333333331</ele><time>2026-05-05T07:19:54Z</time></trkpt><trkpt lat="45.843397874599965" lon="15.685621831102045"><ele>145.66666666666666</ele><time>2026-05-05T07:19:55Z</time></trkpt><trkpt lat="45.84341107945994" lon="15.685760045064157"><ele>145.5</ele><time>2026-05-05T07:19:56Z</time></trkpt><trkpt lat="45.84342057370543" lon="15.68588730881976"><ele>145.33333333333334</ele><time>2026-05-05T07:19:57Z</time></trkpt><trkpt lat="45.84342841311624" lon="15.686003868724697"><ele>145.16666666666669</ele><time>2026-05-05T07:19:58Z</time></trkpt><trkpt lat="45.84343712100952" lon="15.686114047357842"><ele>145.0</ele><time>2026-05-05T07:19:59Z</time></trkpt><trkpt lat="45.84343915993453" lon="15.686212980052046"><ele>145.0</ele><time>2026-05-05T07:20:00Z</time></trkpt><trkpt lat="45.84343491581287" lon="15.68630808656877"><ele>145.0</ele><time>2026-05-05T07:20:02Z</time></trkpt><trkpt lat="45.843430229988996" lon="15.68640504188292"><ele>145.0</ele><time>2026-05-05T07:20:03Z</time></trkpt><trkpt lat="45.843420935408446" lon="15.686532225650058"><ele>145.0</ele><time>2026-05-05T07:20:04Z</time></trkpt><trkpt lat="45.8433875745999" lon="15.686682336894366"><ele>145.0</ele><time>2026-05-05T07:20:05Z</time></trkpt><trkpt lat="45.84335725125046" lon="15.686831956402294"><ele>145.0</ele><time>2026-05-05T07:20:06Z</time></trkpt><trkpt lat="45.84332942368142" lon="15.686982746400636"><ele>145.2</ele><time>2026-05-05T07:20:07Z</time></trkpt><trkpt lat="45.84331795697739" lon="15.687119901389497"><ele>145.4</ele><time>2026-05-05T07:20:08Z</time></trkpt><trkpt lat="45.84332560818584" lon="15.687229002966154"><ele>145.6</ele><time>2026-05-05T07:20:09Z</time></trkpt><trkpt lat="45.84331871362909" lon="15.687322659757896"><ele>145.8</ele><time>2026-05-05T07:20:10Z</time></trkpt><trkpt lat="45.84343089558372" lon="15.687365264996178"><ele>146.0</ele><time>2026-05-05T07:20:11Z</time></trkpt><trkpt lat="45.843534840360775" lon="15.687369903304104"><ele>146.0</ele><time>2026-05-05T07:20:12Z</time></trkpt><trkpt lat="45.84367320482314" lon="15.687353273860136"><ele>146.0</ele><time>2026-05-05T07:20:13Z</time></trkpt><trkpt lat="45.843842614298126" lon="15.687401453192019"><ele>146.0</ele><time>2026-05-05T07:20:14Z</time></trkpt><trkpt lat="45.84403435873138" lon="15.687437051152239"><ele>146.0</ele><time>2026-05-05T07:20:15Z</time></trkpt><trkpt lat="45.844219907784044" lon="15.687467249543737"><ele>146.0</ele><time>2026-05-05T07:20:16Z</time></trkpt><trkpt lat="45.84438604392879" lon="15.68749434062598"><ele>146.0</ele><time>2026-05-05T07:20:17Z</time></trkpt><trkpt lat="45.844548330388776" lon="15.687499958920075"><ele>145.66666666666666</ele><time>2026-05-05T07:20:18Z</time></trkpt><trkpt lat="45.84470291009189" lon="15.687528335655553"><ele>145.33333333333334</ele><time>2026-05-05T07:20:19Z</time></trkpt><trkpt lat="45.84485106665774" lon="15.687557383182723"><ele>145.0</ele><time>2026-05-05T07:20:20Z</time></trkpt><trkpt lat="45.84500142056352" lon="15.687585816041336"><ele>145.0</ele><time>2026-05-05T07:20:21Z</time></trkpt><trkpt lat="45.845161931810885" lon="15.687612302008636"><ele>145.0</ele><time>2026-05-05T07:20:22Z</time></trkpt><trkpt lat="45.845342792241404" lon="15.687637006376027"><ele>145.0</ele><time>2026-05-05T07:20:23Z</time></trkpt><trkpt lat="45.8455324644454" lon="15.687660702031842"><ele>145.0</ele><time>2026-05-05T07:20:24Z</time></trkpt><trkpt lat="45.84572515379243" lon="15.687722282375589"><ele>145.0</ele><time>2026-05-05T07:20:25Z</time></trkpt><trkpt lat="45.84592817170846" lon="15.68775801853627"><ele>145.0</ele><time>2026-05-05T07:20:26Z</time></trkpt><trkpt lat="45.84613919712558" lon="15.687794256103736"><ele>145.33333333333334</ele><time>2026-05-05T07:20:27Z</time></trkpt><trkpt lat="45.846348003626105" lon="15.687830112609888"><ele>145.66666666666666</ele><time>2026-05-05T07:20:28Z</time></trkpt><trkpt lat="45.846539822612286" lon="15.687863051916503"><ele>146.0</ele><time>2026-05-05T07:20:29Z</time></trkpt><trkpt lat="45.84672206636775" lon="15.687892147845927"><ele>145.33333333333331</ele><time>2026-05-05T07:20:30Z</time></trkpt><trkpt lat="45.84690310738606" lon="15.68792136793143"><ele>144.66666666666666</ele><time>2026-05-05T07:20:31Z</time></trkpt><trkpt lat="45.84708374985953" lon="15.687950523690489"><ele>144.0</ele><time>2026-05-05T07:20:32Z</time></trkpt><trkpt lat="45.84726329907578" lon="15.68795787797898"><ele>144.0</ele><time>2026-05-05T07:20:33Z</time></trkpt><trkpt lat="45.847435770166335" lon="15.68798674121181"><ele>144.0</ele><time>2026-05-05T07:20:34Z</time></trkpt><trkpt lat="45.847609303291385" lon="15.688018348305953"><ele>144.0</ele><time>2026-05-05T07:20:35Z</time></trkpt><trkpt lat="45.84778289858779" lon="15.688053594399392"><ele>145.33333333333334</ele><time>2026-05-05T07:20:36Z</time></trkpt><trkpt lat="45.84795834179943" lon="15.688085632472863"><ele>146.66666666666669</ele><time>2026-05-05T07:20:37Z</time></trkpt><trkpt lat="45.848136598140336" lon="15.68811278156748"><ele>148.0</ele><time>2026-05-05T07:20:38Z</time></trkpt><trkpt lat="45.84832233028543" lon="15.68813794299381"><ele>149.0</ele><time>2026-05-05T07:20:39Z</time></trkpt><trkpt lat="45.84850635877181" lon="15.688165786075714"><ele>150.0</ele><time>2026-05-05T07:20:40Z</time></trkpt><trkpt lat="45.84868454559055" lon="15.688194958997649"><ele>151.0</ele><time>2026-05-05T07:20:41Z</time></trkpt><trkpt lat="45.84885473066216" lon="15.6882469211251"><ele>151.0</ele><time>2026-05-05T07:20:42Z</time></trkpt><trkpt lat="45.849029480503546" lon="15.688251791773178"><ele>151.0</ele><time>2026-05-05T07:20:43Z</time></trkpt><trkpt lat="45.84920419864149" lon="15.688278552174214"><ele>151.0</ele><time>2026-05-05T07:20:44Z</time></trkpt><trkpt lat="45.84937031293891" lon="15.68830376177306"><ele>150.66666666666669</ele><time>2026-05-05T07:20:45Z</time></trkpt><trkpt lat="45.84953246878215" lon="15.688329968249258"><ele>150.33333333333334</ele><time>2026-05-05T07:20:46Z</time></trkpt><trkpt lat="45.84969335488344" lon="15.688357699889835"><ele>150.0</ele><time>2026-05-05T07:20:47Z</time></trkpt><trkpt lat="45.84985027674176" lon="15.688379694456536"><ele>150.0</ele><time>2026-05-05T07:20:48Z</time></trkpt><trkpt lat="45.85001181542101" lon="15.688403484467193"><ele>150.0</ele><time>2026-05-05T07:20:49Z</time></trkpt><trkpt lat="45.850167562718546" lon="15.688429644413027"><ele>150.0</ele><time>2026-05-05T07:20:50Z</time></trkpt><trkpt lat="45.85032617222235" lon="15.68845888363672"><ele>150.33333333333334</ele><time>2026-05-05T07:20:51Z</time></trkpt><trkpt lat="45.85048506464707" lon="15.688481392892541"><ele>150.66666666666669</ele><time>2026-05-05T07:20:52Z</time></trkpt><trkpt lat="45.85064932744939" lon="15.688502496173445"><ele>151.0</ele><time>2026-05-05T07:20:53Z</time></trkpt><trkpt lat="45.85081308337216" lon="15.688529950862076"><ele>151.33333333333334</ele><time>2026-05-05T07:20:54Z</time></trkpt><trkpt lat="45.85098562767206" lon="15.688554358705675"><ele>151.66666666666666</ele><time>2026-05-05T07:20:55Z</time></trkpt><trkpt lat="45.85116209309579" lon="15.688582173258414"><ele>152.0</ele><time>2026-05-05T07:20:56Z</time></trkpt><trkpt lat="45.85134799665777" lon="15.688608625162598"><ele>152.0</ele><time>2026-05-05T07:20:57Z</time></trkpt><trkpt lat="45.851535600951735" lon="15.688640163438436"><ele>152.0</ele><time>2026-05-05T07:20:58Z</time></trkpt><trkpt lat="45.85172451521668" lon="15.688675704689484"><ele>152.0</ele><time>2026-05-05T07:20:59Z</time></trkpt><trkpt lat="45.85191943359412" lon="15.688706128454768"><ele>152.0</ele><time>2026-05-05T07:21:00Z</time></trkpt><trkpt lat="45.852118602236445" lon="15.68873494500831"><ele>152.0</ele><time>2026-05-05T07:21:01Z</time></trkpt><trkpt lat="45.85231740613844" lon="15.688763686328091"><ele>152.0</ele><time>2026-05-05T07:21:02Z</time></trkpt><trkpt lat="45.852516912525765" lon="15.68880054859529"><ele>152.0</ele><time>2026-05-05T07:21:03Z</time></trkpt><trkpt lat="45.85270958688552" lon="15.688830085460415"><ele>152.0</ele><time>2026-05-05T07:21:04Z</time></trkpt><trkpt lat="45.85290114028376" lon="15.688860394009442"><ele>152.0</ele><time>2026-05-05T07:21:05Z</time></trkpt><trkpt lat="45.853082535660434" lon="15.68889075185592"><ele>152.0</ele><time>2026-05-05T07:21:06Z</time></trkpt><trkpt lat="45.85327389348405" lon="15.68892693981328"><ele>152.0</ele><time>2026-05-05T07:21:07Z</time></trkpt><trkpt lat="45.85346306551105" lon="15.688953462693647"><ele>152.0</ele><time>2026-05-05T07:21:08Z</time></trkpt><trkpt lat="45.853652308795176" lon="15.688984278733914"><ele>151.66666666666666</ele><time>2026-05-05T07:21:09Z</time></trkpt><trkpt lat="45.85384142193702" lon="15.689015683790458"><ele>151.33333333333334</ele><time>2026-05-05T07:21:10Z</time></trkpt><trkpt lat="45.85403319320508" lon="15.68904708585572"><ele>151.0</ele><time>2026-05-05T07:21:11Z</time></trkpt><trkpt lat="45.85422190680138" lon="15.689079402702337"><ele>151.33333333333334</ele><time>2026-05-05T07:21:12Z</time></trkpt><trkpt lat="45.85440647913843" lon="15.689110635427033"><ele>151.66666666666666</ele><time>2026-05-05T07:21:13Z</time></trkpt><trkpt lat="45.85458870792708" lon="15.6891415587226"><ele>152.0</ele><time>2026-05-05T07:21:14Z</time></trkpt><trkpt lat="45.8547703698946" lon="15.68916581380164"><ele>152.0</ele><time>2026-05-05T07:21:15Z</time></trkpt><trkpt lat="45.854948238137325" lon="15.689189640481018"><ele>152.0</ele><time>2026-05-05T07:21:16Z</time></trkpt><trkpt lat="45.85512240378018" lon="15.68922307030204"><ele>152.0</ele><time>2026-05-05T07:21:17Z</time></trkpt><trkpt lat="45.855289023588035" lon="15.68924733648559"><ele>151.33333333333331</ele><time>2026-05-05T07:21:18Z</time></trkpt><trkpt lat="45.85545258681913" lon="15.689272755125375"><ele>150.66666666666666</ele><time>2026-05-05T07:21:19Z</time></trkpt><trkpt lat="45.85560302321702" lon="15.689297087419076"><ele>150.0</ele><time>2026-05-05T07:21:20Z</time></trkpt><trkpt lat="45.85574115583315" lon="15.689323093373302"><ele>150.0</ele><time>2026-05-05T07:21:21Z</time></trkpt><trkpt lat="45.85587180869088" lon="15.689342658715654"><ele>150.0</ele><time>2026-05-05T07:21:22Z</time></trkpt><trkpt lat="45.8559925303085" lon="15.689359157590847"><ele>150.0</ele><time>2026-05-05T07:21:23Z</time></trkpt><trkpt lat="45.85610836337462" lon="15.689371700105468"><ele>150.0</ele><time>2026-05-05T07:21:24Z</time></trkpt><trkpt lat="45.85621725185306" lon="15.689382640023267"><ele>149.5</ele><time>2026-05-05T07:21:25Z</time></trkpt><trkpt lat="45.8563147227557" lon="15.689397932324768"><ele>149.0</ele><time>2026-05-05T07:21:26Z</time></trkpt><trkpt lat="45.85639129440346" lon="15.689408332918529"><ele>148.5</ele><time>2026-05-05T07:21:27Z</time></trkpt><trkpt lat="45.856495109869336" lon="15.689446899498071"><ele>148.0</ele><time>2026-05-05T07:21:29Z</time></trkpt><trkpt lat="45.85655274870533" lon="15.689114796117243"><ele>148.0</ele><time>2026-05-05T07:21:31Z</time></trkpt><trkpt lat="45.85656116004945" lon="15.68897270675431"><ele>148.0</ele><time>2026-05-05T07:21:32Z</time></trkpt><trkpt lat="45.85657675698193" lon="15.688805303348643"><ele>148.0</ele><time>2026-05-05T07:21:33Z</time></trkpt><trkpt lat="45.856599747174435" lon="15.688609203720913"><ele>148.0</ele><time>2026-05-05T07:21:34Z</time></trkpt><trkpt lat="45.856631480887565" lon="15.68838022484567"><ele>148.0</ele><time>2026-05-05T07:21:35Z</time></trkpt><trkpt lat="45.85665572050012" lon="15.688116961052751"><ele>148.0</ele><time>2026-05-05T07:21:36Z</time></trkpt><trkpt lat="45.856676544469465" lon="15.687824123923214"><ele>148.0</ele><time>2026-05-05T07:21:37Z</time></trkpt><trkpt lat="45.856691168154924" lon="15.687527465533284"><ele>148.33333333333334</ele><time>2026-05-05T07:21:38Z</time></trkpt><trkpt lat="45.85669340949735" lon="15.687256339060747"><ele>148.66666666666666</ele><time>2026-05-05T07:21:39Z</time></trkpt><trkpt lat="45.85669224506977" lon="15.687012813848359"><ele>149.0</ele><time>2026-05-05T07:21:40Z</time></trkpt><trkpt lat="45.856683656749716" lon="15.68676455973546"><ele>149.33333333333331</ele><time>2026-05-05T07:21:41Z</time></trkpt><trkpt lat="45.85666730216693" lon="15.686510661271877"><ele>149.66666666666666</ele><time>2026-05-05T07:21:42Z</time></trkpt><trkpt lat="45.85664647795658" lon="15.686262179949102"><ele>150.0</ele><time>2026-05-05T07:21:43Z</time></trkpt><trkpt lat="45.85661555331703" lon="15.68603782179695"><ele>150.33333333333334</ele><time>2026-05-05T07:21:44Z</time></trkpt><trkpt lat="45.856579622102146" lon="15.68581526324726"><ele>150.66666666666669</ele><time>2026-05-05T07:21:45Z</time></trkpt><trkpt lat="45.85654005381064" lon="15.685592699481225"><ele>151.0</ele><time>2026-05-05T07:21:46Z</time></trkpt><trkpt lat="45.85649385467593" lon="15.685371260302418"><ele>150.66666666666669</ele><time>2026-05-05T07:21:47Z</time></trkpt><trkpt lat="45.85644041861067" lon="15.685147876961778"><ele>150.33333333333334</ele><time>2026-05-05T07:21:48Z</time></trkpt><trkpt lat="45.85638101070972" lon="15.684925056298363"><ele>150.0</ele><time>2026-05-05T07:21:49Z</time></trkpt><trkpt lat="45.856313335822584" lon="15.6847059604252"><ele>150.0</ele><time>2026-05-05T07:21:50Z</time></trkpt><trkpt lat="45.85624147575536" lon="15.684487064016075"><ele>150.0</ele><time>2026-05-05T07:21:51Z</time></trkpt><trkpt lat="45.856166230879765" lon="15.68426966699062"><ele>150.0</ele><time>2026-05-05T07:21:52Z</time></trkpt><trkpt lat="45.85608073514284" lon="15.684050259024193"><ele>150.0</ele><time>2026-05-05T07:21:53Z</time></trkpt><trkpt lat="45.85598603324225" lon="15.683824221513179"><ele>150.0</ele><time>2026-05-05T07:21:54Z</time></trkpt><trkpt lat="45.85588234868719" lon="15.683593739241415"><ele>150.0</ele><time>2026-05-05T07:21:55Z</time></trkpt><trkpt lat="45.85576602621351" lon="15.683355045560187"><ele>150.0</ele><time>2026-05-05T07:21:56Z</time></trkpt><trkpt lat="45.85563690777217" lon="15.683113533596845"><ele>150.0</ele><time>2026-05-05T07:21:57Z</time></trkpt><trkpt lat="45.85549691706334" lon="15.682871655870583"><ele>150.0</ele><time>2026-05-05T07:21:58Z</time></trkpt><trkpt lat="45.8553513277878" lon="15.68263353801374"><ele>150.0</ele><time>2026-05-05T07:21:59Z</time></trkpt><trkpt lat="45.85521345472723" lon="15.68238663826693"><ele>150.0</ele><time>2026-05-05T07:22:00Z</time></trkpt><trkpt lat="45.85508790368567" lon="15.682128936018431"><ele>150.0</ele><time>2026-05-05T07:22:01Z</time></trkpt><trkpt lat="45.85495911737359" lon="15.681866295892991"><ele>150.66666666666666</ele><time>2026-05-05T07:22:02Z</time></trkpt><trkpt lat="45.85487580609762" lon="15.681561983168068"><ele>151.33333333333331</ele><time>2026-05-05T07:22:03Z</time></trkpt><trkpt lat="45.85478345390586" lon="15.681279053860843"><ele>152.0</ele><time>2026-05-05T07:22:04Z</time></trkpt><trkpt lat="45.85469858135716" lon="15.681019693374612"><ele>152.0</ele><time>2026-05-05T07:22:05Z</time></trkpt><trkpt lat="45.85461272316446" lon="15.680812629374302"><ele>152.0</ele><time>2026-05-05T07:22:06Z</time></trkpt><trkpt lat="45.854564144828935" lon="15.680613208829758"><ele>152.0</ele><time>2026-05-05T07:22:07Z</time></trkpt><trkpt lat="45.854511791778094" lon="15.680465947264244"><ele>152.0</ele><time>2026-05-05T07:22:08Z</time></trkpt><trkpt lat="45.854461807437644" lon="15.680360753285267"><ele>152.79999999999998</ele><time>2026-05-05T07:22:09Z</time></trkpt><trkpt lat="45.854446227349996" lon="15.68025125407756"><ele>153.6</ele><time>2026-05-05T07:22:10Z</time></trkpt><trkpt lat="45.8544714331139" lon="15.680165652359591"><ele>154.39999999999998</ele><time>2026-05-05T07:22:11Z</time></trkpt><trkpt lat="45.85458763795257" lon="15.680002612543944"><ele>155.2</ele><time>2026-05-05T07:22:13Z</time></trkpt><trkpt lat="45.854687843591755" lon="15.67994683296723"><ele>156.0</ele><time>2026-05-05T07:22:14Z</time></trkpt><trkpt lat="45.85480475544285" lon="15.679897944203082"><ele>156.0</ele><time>2026-05-05T07:22:15Z</time></trkpt><trkpt lat="45.854927345878494" lon="15.679833522720036"><ele>156.0</ele><time>2026-05-05T07:22:16Z</time></trkpt><trkpt lat="45.85505862608917" lon="15.679755021942825"><ele>156.0</ele><time>2026-05-05T07:22:17Z</time></trkpt><trkpt lat="45.85519734833583" lon="15.679672449522334"><ele>156.0</ele><time>2026-05-05T07:22:18Z</time></trkpt><trkpt lat="45.85534448478978" lon="15.67958483108427"><ele>155.33333333333334</ele><time>2026-05-05T07:22:19Z</time></trkpt><trkpt lat="45.85550277790159" lon="15.679485895213169"><ele>154.66666666666669</ele><time>2026-05-05T07:22:20Z</time></trkpt><trkpt lat="45.85567095597637" lon="15.679377149721297"><ele>154.0</ele><time>2026-05-05T07:22:21Z</time></trkpt><trkpt lat="45.85584871144947" lon="15.679251713915985"><ele>154.33333333333334</ele><time>2026-05-05T07:22:22Z</time></trkpt><trkpt lat="45.856035603959356" lon="15.679123040720562"><ele>154.66666666666666</ele><time>2026-05-05T07:22:23Z</time></trkpt><trkpt lat="45.8562309765146" lon="15.678995929535747"><ele>155.0</ele><time>2026-05-05T07:22:24Z</time></trkpt><trkpt lat="45.8564326413755" lon="15.678878016952456"><ele>155.0</ele><time>2026-05-05T07:22:25Z</time></trkpt><trkpt lat="45.85664487733038" lon="15.678763468360138"><ele>155.0</ele><time>2026-05-05T07:22:26Z</time></trkpt><trkpt lat="45.856864044740874" lon="15.678648475635784"><ele>155.66666666666666</ele><time>2026-05-05T07:22:27Z</time></trkpt><trkpt lat="45.85706935788595" lon="15.678538277103316"><ele>156.33333333333334</ele><time>2026-05-05T07:22:28Z</time></trkpt><trkpt lat="45.85725052594834" lon="15.678454075997609"><ele>157.0</ele><time>2026-05-05T07:22:29Z</time></trkpt><trkpt lat="45.857423404472705" lon="15.678393252125915"><ele>157.0</ele><time>2026-05-05T07:22:30Z</time></trkpt><trkpt lat="45.85760016241636" lon="15.678358996659016"><ele>157.0</ele><time>2026-05-05T07:22:31Z</time></trkpt><trkpt lat="45.85777867205921" lon="15.678396701187909"><ele>157.0</ele><time>2026-05-05T07:22:32Z</time></trkpt><trkpt lat="45.85796646445871" lon="15.678404130428651"><ele>155.0</ele><time>2026-05-05T07:22:33Z</time></trkpt><trkpt lat="45.85816521738494" lon="15.678441141702255"><ele>153.0</ele><time>2026-05-05T07:22:34Z</time></trkpt><trkpt lat="45.85837980352501" lon="15.678472538088352"><ele>151.0</ele><time>2026-05-05T07:22:35Z</time></trkpt><trkpt lat="45.85859730477745" lon="15.678495332302537"><ele>149.66666666666669</ele><time>2026-05-05T07:22:36Z</time></trkpt><trkpt lat="45.8588050494921" lon="15.678514157135838"><ele>148.33333333333334</ele><time>2026-05-05T07:22:37Z</time></trkpt><trkpt lat="45.85901140034558" lon="15.67852943436296"><ele>147.0</ele><time>2026-05-05T07:22:38Z</time></trkpt><trkpt lat="45.8592094705503" lon="15.678539069842198"><ele>146.33333333333334</ele><time>2026-05-05T07:22:39Z</time></trkpt><trkpt lat="45.859405265757566" lon="15.678533939158651"><ele>145.66666666666669</ele><time>2026-05-05T07:22:40Z</time></trkpt><trkpt lat="45.859596788411466" lon="15.678518070737839"><ele>145.0</ele><time>2026-05-05T07:22:41Z</time></trkpt><trkpt lat="45.85979013789983" lon="15.678500545165992"><ele>145.0</ele><time>2026-05-05T07:22:42Z</time></trkpt><trkpt lat="45.859973333560724" lon="15.678473436723394"><ele>145.0</ele><time>2026-05-05T07:22:43Z</time></trkpt><trkpt lat="45.86015831607371" lon="15.678434735384618"><ele>145.0</ele><time>2026-05-05T07:22:44Z</time></trkpt><trkpt lat="45.86034867640272" lon="15.678378415082394"><ele>146.0</ele><time>2026-05-05T07:22:45Z</time></trkpt><trkpt lat="45.86054072056954" lon="15.678309566610697"><ele>147.0</ele><time>2026-05-05T07:22:46Z</time></trkpt><trkpt lat="45.86073511284267" lon="15.6782321923608"><ele>148.0</ele><time>2026-05-05T07:22:47Z</time></trkpt><trkpt lat="45.860928654096" lon="15.678149102788458"><ele>149.0</ele><time>2026-05-05T07:22:48Z</time></trkpt><trkpt lat="45.86111362044814" lon="15.678061625611091"><ele>150.0</ele><time>2026-05-05T07:22:49Z</time></trkpt><trkpt lat="45.86129131952078" lon="15.677960713866279"><ele>151.0</ele><time>2026-05-05T07:22:50Z</time></trkpt><trkpt lat="45.861459222910746" lon="15.677850797651129"><ele>150.66666666666669</ele><time>2026-05-05T07:22:51Z</time></trkpt><trkpt lat="45.86161943740362" lon="15.677731963875683"><ele>150.33333333333334</ele><time>2026-05-05T07:22:52Z</time></trkpt><trkpt lat="45.86178132556568" lon="15.677596818769338"><ele>150.0</ele><time>2026-05-05T07:22:53Z</time></trkpt><trkpt lat="45.8619490323572" lon="15.677448926125189"><ele>150.0</ele><time>2026-05-05T07:22:54Z</time></trkpt><trkpt lat="45.86212215781897" lon="15.677287284433683"><ele>150.0</ele><time>2026-05-05T07:22:55Z</time></trkpt><trkpt lat="45.86229319485607" lon="15.677113363513032"><ele>150.0</ele><time>2026-05-05T07:22:56Z</time></trkpt><trkpt lat="45.86246062779325" lon="15.676932208950802"><ele>149.33333333333334</ele><time>2026-05-05T07:22:57Z</time></trkpt><trkpt lat="45.86262243993565" lon="15.676751781040563"><ele>148.66666666666669</ele><time>2026-05-05T07:22:58Z</time></trkpt><trkpt lat="45.862783169378886" lon="15.676567674211782"><ele>148.0</ele><time>2026-05-05T07:22:59Z</time></trkpt><trkpt lat="45.86294510749681" lon="15.676380718274023"><ele>148.0</ele><time>2026-05-05T07:23:00Z</time></trkpt><trkpt lat="45.863109808176105" lon="15.676188370729596"><ele>148.0</ele><time>2026-05-05T07:23:01Z</time></trkpt><trkpt lat="45.86327414684558" lon="15.676002888038354"><ele>148.0</ele><time>2026-05-05T07:23:02Z</time></trkpt><trkpt lat="45.863438723938785" lon="15.675814182929216"><ele>148.0</ele><time>2026-05-05T07:23:03Z</time></trkpt><trkpt lat="45.86361503829253" lon="15.675643279513974"><ele>148.0</ele><time>2026-05-05T07:23:04Z</time></trkpt><trkpt lat="45.863780527905945" lon="15.67545925450135"><ele>148.0</ele><time>2026-05-05T07:23:05Z</time></trkpt><trkpt lat="45.86394471119471" lon="15.675278139813496"><ele>148.0</ele><time>2026-05-05T07:23:06Z</time></trkpt><trkpt lat="45.8640922782152" lon="15.675095921890955"><ele>148.0</ele><time>2026-05-05T07:23:07Z</time></trkpt><trkpt lat="45.86425041927349" lon="15.67493788259133"><ele>148.0</ele><time>2026-05-05T07:23:08Z</time></trkpt><trkpt lat="45.864406808292216" lon="15.674783497146143"><ele>148.0</ele><time>2026-05-05T07:23:09Z</time></trkpt><trkpt lat="45.86455034149399" lon="15.67462392102893"><ele>148.0</ele><time>2026-05-05T07:23:10Z</time></trkpt><trkpt lat="45.864666737328385" lon="15.674445888029249"><ele>148.0</ele><time>2026-05-05T07:23:11Z</time></trkpt><trkpt lat="45.8647492053893" lon="15.674239179654192"><ele>148.0</ele><time>2026-05-05T07:23:12Z</time></trkpt><trkpt lat="45.86481171042512" lon="15.67401584573927"><ele>148.0</ele><time>2026-05-05T07:23:13Z</time></trkpt><trkpt lat="45.86487264014741" lon="15.673801807398206"><ele>148.0</ele><time>2026-05-05T07:23:14Z</time></trkpt><trkpt lat="45.86493403539751" lon="15.673602054465798"><ele>147.0</ele><time>2026-05-05T07:23:15Z</time></trkpt><trkpt lat="45.864997326162054" lon="15.673407812033398"><ele>146.0</ele><time>2026-05-05T07:23:16Z</time></trkpt><trkpt lat="45.865063263151065" lon="15.673216805466595"><ele>145.0</ele><time>2026-05-05T07:23:17Z</time></trkpt><trkpt lat="45.86512666139087" lon="15.673034417728086"><ele>144.0</ele><time>2026-05-05T07:23:18Z</time></trkpt><trkpt lat="45.865182977004736" lon="15.672869122074024"><ele>144.25</ele><time>2026-05-05T07:23:19Z</time></trkpt><trkpt lat="45.865235412388195" lon="15.67271034009591"><ele>144.5</ele><time>2026-05-05T07:23:20Z</time></trkpt><trkpt lat="45.865281487328616" lon="15.672564667116946"><ele>144.75</ele><time>2026-05-05T07:23:21Z</time></trkpt><trkpt lat="45.865328260096426" lon="15.672414554579008"><ele>145.0</ele><time>2026-05-05T07:23:22Z</time></trkpt><trkpt lat="45.86537644376301" lon="15.67226134394987"><ele>145.0</ele><time>2026-05-05T07:23:23Z</time></trkpt><trkpt lat="45.86540974361224" lon="15.672115940616507"><ele>145.0</ele><time>2026-05-05T07:23:24Z</time></trkpt><trkpt lat="45.86543590760156" lon="15.671982725703554"><ele>145.0</ele><time>2026-05-05T07:23:25Z</time></trkpt><trkpt lat="45.865456547009856" lon="15.6718570211928"><ele>145.0</ele><time>2026-05-05T07:23:26Z</time></trkpt><trkpt lat="45.86547341284874" lon="15.671729129936615"><ele>145.0</ele><time>2026-05-05T07:23:27Z</time></trkpt><trkpt lat="45.865490312090536" lon="15.671596400305566"><ele>145.5</ele><time>2026-05-05T07:23:28Z</time></trkpt><trkpt lat="45.86551048714099" lon="15.67145433252934"><ele>146.0</ele><time>2026-05-05T07:23:29Z</time></trkpt><trkpt lat="45.86553336082344" lon="15.671295445555188"><ele>146.5</ele><time>2026-05-05T07:23:30Z</time></trkpt><trkpt lat="45.8655533300977" lon="15.67112452938908"><ele>147.0</ele><time>2026-05-05T07:23:31Z</time></trkpt><trkpt lat="45.86557581827541" lon="15.670944084999519"><ele>148.5</ele><time>2026-05-05T07:23:32Z</time></trkpt><trkpt lat="45.86559508804868" lon="15.6707755938283"><ele>150.0</ele><time>2026-05-05T07:23:33Z</time></trkpt><trkpt lat="45.865613726798124" lon="15.670610961061987"><ele>151.5</ele><time>2026-05-05T07:23:34Z</time></trkpt><trkpt lat="45.865631666172824" lon="15.67044912562666"><ele>153.0</ele><time>2026-05-05T07:23:35Z</time></trkpt><trkpt lat="45.86565442464825" lon="15.670288683305932"><ele>153.0</ele><time>2026-05-05T07:23:36Z</time></trkpt><trkpt lat="45.865674739617425" lon="15.670119698695348"><ele>153.0</ele><time>2026-05-05T07:23:37Z</time></trkpt><trkpt lat="45.86570492818043" lon="15.669950249022385"><ele>153.0</ele><time>2026-05-05T07:23:38Z</time></trkpt><trkpt lat="45.86575497652556" lon="15.669776043068868"><ele>153.0</ele><time>2026-05-05T07:23:39Z</time></trkpt><trkpt lat="45.86582935197437" lon="15.66962416502572"><ele>153.0</ele><time>2026-05-05T07:23:40Z</time></trkpt><trkpt lat="45.86590816765581" lon="15.669480408101625"><ele>153.0</ele><time>2026-05-05T07:23:41Z</time></trkpt><trkpt lat="45.86600122416066" lon="15.66933074938811"><ele>153.0</ele><time>2026-05-05T07:23:42Z</time></trkpt><trkpt lat="45.86609211275215" lon="15.66917741027563"><ele>153.0</ele><time>2026-05-05T07:23:43Z</time></trkpt><trkpt lat="45.866199990281096" lon="15.66905167581054"><ele>153.5</ele><time>2026-05-05T07:23:44Z</time></trkpt><trkpt lat="45.866307630328095" lon="15.668930690189844"><ele>154.0</ele><time>2026-05-05T07:23:45Z</time></trkpt><trkpt lat="45.866420751404576" lon="15.668809730024892"><ele>154.5</ele><time>2026-05-05T07:23:46Z</time></trkpt><trkpt lat="45.86653987982864" lon="15.668683908830054"><ele>155.0</ele><time>2026-05-05T07:23:47Z</time></trkpt><trkpt lat="45.86665981426465" lon="15.668562455942723"><ele>154.0</ele><time>2026-05-05T07:23:48Z</time></trkpt><trkpt lat="45.86677780686875" lon="15.668450301831388"><ele>153.0</ele><time>2026-05-05T07:23:49Z</time></trkpt><trkpt lat="45.866893921404646" lon="15.66834125661413"><ele>152.0</ele><time>2026-05-05T07:23:50Z</time></trkpt><trkpt lat="45.8670056449249" lon="15.668229761045337"><ele>151.0</ele><time>2026-05-05T07:23:51Z</time></trkpt><trkpt lat="45.86711005740131" lon="15.668112252084287"><ele>151.0</ele><time>2026-05-05T07:23:52Z</time></trkpt><trkpt lat="45.867201762077485" lon="15.667980478732833"><ele>151.0</ele><time>2026-05-05T07:23:53Z</time></trkpt><trkpt lat="45.867275768349685" lon="15.667831324917799"><ele>151.0</ele><time>2026-05-05T07:23:54Z</time></trkpt><trkpt lat="45.8673517130599" lon="15.66765891251408"><ele>151.0</ele><time>2026-05-05T07:23:55Z</time></trkpt><trkpt lat="45.86743888172341" lon="15.66747532690065"><ele>151.0</ele><time>2026-05-05T07:23:56Z</time></trkpt><trkpt lat="45.867542894730164" lon="15.66730578470257"><ele>151.0</ele><time>2026-05-05T07:23:57Z</time></trkpt><trkpt lat="45.867636076781984" lon="15.667135104091534"><ele>151.0</ele><time>2026-05-05T07:23:58Z</time></trkpt><trkpt lat="45.86772900946744" lon="15.666976485043964"><ele>150.75</ele><time>2026-05-05T07:23:59Z</time></trkpt><trkpt lat="45.867823658416704" lon="15.666825518483206"><ele>150.5</ele><time>2026-05-05T07:24:00Z</time></trkpt><trkpt lat="45.86790804320716" lon="15.666662912382817"><ele>150.25</ele><time>2026-05-05T07:24:01Z</time></trkpt><trkpt lat="45.868014878710284" lon="15.666540387220566"><ele>150.0</ele><time>2026-05-05T07:24:02Z</time></trkpt><trkpt lat="45.86811323311184" lon="15.666412057203434"><ele>150.0</ele><time>2026-05-05T07:24:03Z</time></trkpt><trkpt lat="45.8682175130062" lon="15.66628452223923"><ele>150.0</ele><time>2026-05-05T07:24:04Z</time></trkpt><trkpt lat="45.86831644269284" lon="15.666147883457112"><ele>150.0</ele><time>2026-05-05T07:24:05Z</time></trkpt><trkpt lat="45.86843847252636" lon="15.66605223291185"><ele>150.0</ele><time>2026-05-05T07:24:06Z</time></trkpt><trkpt lat="45.86853982691203" lon="15.665927414582942"><ele>150.75</ele><time>2026-05-05T07:24:07Z</time></trkpt><trkpt lat="45.868653415458525" lon="15.665829354623323"><ele>151.5</ele><time>2026-05-05T07:24:08Z</time></trkpt><trkpt lat="45.86876949229932" lon="15.665732128003887"><ele>152.25</ele><time>2026-05-05T07:24:09Z</time></trkpt><trkpt lat="45.86888777145253" lon="15.665633647765135"><ele>153.0</ele><time>2026-05-05T07:24:10Z</time></trkpt><trkpt lat="45.86901602162969" lon="15.665543735252085"><ele>153.0</ele><time>2026-05-05T07:24:11Z</time></trkpt><trkpt lat="45.869153543560934" lon="15.665459882053733"><ele>153.0</ele><time>2026-05-05T07:24:12Z</time></trkpt><trkpt lat="45.86929559873324" lon="15.665379528065506"><ele>153.0</ele><time>2026-05-05T07:24:13Z</time></trkpt><trkpt lat="45.869439909503086" lon="15.665294734533905"><ele>153.33333333333334</ele><time>2026-05-05T07:24:14Z</time></trkpt><trkpt lat="45.869577047094225" lon="15.665196051936178"><ele>153.66666666666669</ele><time>2026-05-05T07:24:15Z</time></trkpt><trkpt lat="45.8697138781986" lon="15.665056224862637"><ele>154.0</ele><time>2026-05-05T07:24:16Z</time></trkpt><trkpt lat="45.86983620947299" lon="15.66493313314681"><ele>154.0</ele><time>2026-05-05T07:24:17Z</time></trkpt><trkpt lat="45.869955139963" lon="15.66479271040731"><ele>154.0</ele><time>2026-05-05T07:24:18Z</time></trkpt><trkpt lat="45.87006698324971" lon="15.66464510975893"><ele>154.0</ele><time>2026-05-05T07:24:19Z</time></trkpt><trkpt lat="45.87016620463522" lon="15.6644934622128"><ele>152.75</ele><time>2026-05-05T07:24:20Z</time></trkpt><trkpt lat="45.87025108043542" lon="15.664318265397501"><ele>151.5</ele><time>2026-05-05T07:24:21Z</time></trkpt><trkpt lat="45.87031755842283" lon="15.664127792285274"><ele>150.25</ele><time>2026-05-05T07:24:22Z</time></trkpt><trkpt lat="45.87036955904406" lon="15.663940302103272"><ele>149.0</ele><time>2026-05-05T07:24:23Z</time></trkpt><trkpt lat="45.870408063749885" lon="15.663760578556408"><ele>148.75</ele><time>2026-05-05T07:24:24Z</time></trkpt><trkpt lat="45.870437179169286" lon="15.663586798576961"><ele>148.5</ele><time>2026-05-05T07:24:25Z</time></trkpt><trkpt lat="45.870455079272375" lon="15.663417311003938"><ele>148.25</ele><time>2026-05-05T07:24:26Z</time></trkpt><trkpt lat="45.87046117812686" lon="15.663241842184197"><ele>148.0</ele><time>2026-05-05T07:24:27Z</time></trkpt><trkpt lat="45.870455414268974" lon="15.663068333784853"><ele>148.0</ele><time>2026-05-05T07:24:28Z</time></trkpt><trkpt lat="45.87042967242911" lon="15.662896830674136"><ele>148.0</ele><time>2026-05-05T07:24:29Z</time></trkpt><trkpt lat="45.87037626777508" lon="15.662744733341718"><ele>148.0</ele><time>2026-05-05T07:24:30Z</time></trkpt><trkpt lat="45.87031194884191" lon="15.662633325680524"><ele>148.0</ele><time>2026-05-05T07:24:31Z</time></trkpt><trkpt lat="45.87025068379518" lon="15.662530134584307"><ele>148.0</ele><time>2026-05-05T07:24:32Z</time></trkpt><trkpt lat="45.87022036146597" lon="15.662409283595414"><ele>148.0</ele><time>2026-05-05T07:24:33Z</time></trkpt><trkpt lat="45.8702141609093" lon="15.662297074756813"><ele>148.0</ele><time>2026-05-05T07:24:34Z</time></trkpt><trkpt lat="45.87027510498241" lon="15.662224530488896"><ele>148.0</ele><time>2026-05-05T07:24:35Z</time></trkpt><trkpt lat="45.87033674144006" lon="15.66218388941453"><ele>148.0</ele><time>2026-05-05T07:24:36Z</time></trkpt><trkpt lat="45.870408739447996" lon="15.662154055070323"><ele>148.0</ele><time>2026-05-05T07:24:37Z</time></trkpt><trkpt lat="45.87049345311015" lon="15.662178355169104"><ele>148.0</ele><time>2026-05-05T07:24:38Z</time></trkpt><trkpt lat="45.87057666544205" lon="15.66219826982644"><ele>148.0</ele><time>2026-05-05T07:24:39Z</time></trkpt><trkpt lat="45.87066564341962" lon="15.662192448409165"><ele>148.0</ele><time>2026-05-05T07:24:40Z</time></trkpt><trkpt lat="45.87075397121937" lon="15.66215162617948"><ele>148.0</ele><time>2026-05-05T07:24:41Z</time></trkpt><trkpt lat="45.87082745669127" lon="15.6620662386465"><ele>148.0</ele><time>2026-05-05T07:24:42Z</time></trkpt><trkpt lat="45.87086087787537" lon="15.661913582559851"><ele>148.0</ele><time>2026-05-05T07:24:43Z</time></trkpt><trkpt lat="45.8709037424738" lon="15.661774393423286"><ele>149.33333333333334</ele><time>2026-05-05T07:24:44Z</time></trkpt><trkpt lat="45.870935769118205" lon="15.66155308042967"><ele>150.66666666666666</ele><time>2026-05-05T07:24:45Z</time></trkpt><trkpt lat="45.870976330903204" lon="15.661291258130447"><ele>152.0</ele><time>2026-05-05T07:24:46Z</time></trkpt><trkpt lat="45.871018582041074" lon="15.661018621752046"><ele>148.66666666666666</ele><time>2026-05-05T07:24:47Z</time></trkpt><trkpt lat="45.871039495640204" lon="15.660783806210532"><ele>145.33333333333334</ele><time>2026-05-05T07:24:48Z</time></trkpt><trkpt lat="45.871071337732864" lon="15.66056866418627"><ele>142.0</ele><time>2026-05-05T07:24:49Z</time></trkpt><trkpt lat="45.871092812794735" lon="15.660339832577387"><ele>142.33333333333334</ele><time>2026-05-05T07:24:50Z</time></trkpt><trkpt lat="45.87107575342718" lon="15.660086622978456"><ele>142.66666666666666</ele><time>2026-05-05T07:24:51Z</time></trkpt><trkpt lat="45.871018254305255" lon="15.659807608581946"><ele>143.0</ele><time>2026-05-05T07:24:52Z</time></trkpt><trkpt lat="45.870986004628534" lon="15.659482173353997"><ele>143.5</ele><time>2026-05-05T07:24:53Z</time></trkpt><trkpt lat="45.8709672384778" lon="15.659133460892365"><ele>144.0</ele><time>2026-05-05T07:24:54Z</time></trkpt><trkpt lat="45.87100449682233" lon="15.658730042798247"><ele>142.5</ele><time>2026-05-05T07:24:55Z</time></trkpt><trkpt lat="45.87104045414396" lon="15.658281557688653"><ele>141.0</ele><time>2026-05-05T07:24:56Z</time></trkpt><trkpt lat="45.87107237064392" lon="15.657825356184606"><ele>144.0</ele><time>2026-05-05T07:24:57Z</time></trkpt><trkpt lat="45.87109130102175" lon="15.657382504025582"><ele>147.0</ele><time>2026-05-05T07:24:58Z</time></trkpt><trkpt lat="45.871142015113755" lon="15.656979720087056"><ele>148.5</ele><time>2026-05-05T07:24:59Z</time></trkpt><trkpt lat="45.871196834818534" lon="15.65657770973384"><ele>150.0</ele><time>2026-05-05T07:25:00Z</time></trkpt><trkpt lat="45.87125347301283" lon="15.656189027588098"><ele>152.0</ele><time>2026-05-05T07:25:01Z</time></trkpt><trkpt lat="45.87132370305524" lon="15.655839374586444"><ele>154.0</ele><time>2026-05-05T07:25:02Z</time></trkpt><trkpt lat="45.87144208601193" lon="15.655512613273952"><ele>150.5</ele><time>2026-05-05T07:25:03Z</time></trkpt><trkpt lat="45.871621339265204" lon="15.655190367476504"><ele>147.0</ele><time>2026-05-05T07:25:04Z</time></trkpt><trkpt lat="45.87182424454794" lon="15.654846176317657"><ele>147.0</ele><time>2026-05-05T07:25:05Z</time></trkpt><trkpt lat="45.87202304657487" lon="15.654543652961976"><ele>147.0</ele><time>2026-05-05T07:25:06Z</time></trkpt><trkpt lat="45.87221689916222" lon="15.654299390969163"><ele>146.66666666666666</ele><time>2026-05-05T07:25:07Z</time></trkpt><trkpt lat="45.87238175240451" lon="15.654058101074543"><ele>146.33333333333331</ele><time>2026-05-05T07:25:08Z</time></trkpt><trkpt lat="45.872525966658976" lon="15.653837792701186"><ele>146.0</ele><time>2026-05-05T07:25:09Z</time></trkpt><trkpt lat="45.87264829288282" lon="15.653576066882449"><ele>146.0</ele><time>2026-05-05T07:25:10Z</time></trkpt><trkpt lat="45.872749068649355" lon="15.653266524007421"><ele>146.0</ele><time>2026-05-05T07:25:11Z</time></trkpt><trkpt lat="45.8728427427197" lon="15.652921070968068"><ele>149.0</ele><time>2026-05-05T07:25:12Z</time></trkpt><trkpt lat="45.87292177563121" lon="15.65255871944903"><ele>152.0</ele><time>2026-05-05T07:25:13Z</time></trkpt><trkpt lat="45.873042287069104" lon="15.65223566076372"><ele>155.5</ele><time>2026-05-05T07:25:14Z</time></trkpt><trkpt lat="45.87314230949322" lon="15.651903752212991"><ele>159.0</ele><time>2026-05-05T07:25:15Z</time></trkpt><trkpt lat="45.87322707932209" lon="15.651604448127923"><ele>159.0</ele><time>2026-05-05T07:25:16Z</time></trkpt><trkpt lat="45.87328256429502" lon="15.651324662554329"><ele>159.0</ele><time>2026-05-05T07:25:17Z</time></trkpt><trkpt lat="45.87335162624141" lon="15.65106941251091"><ele>159.0</ele><time>2026-05-05T07:25:18Z</time></trkpt><trkpt lat="45.87345762336254" lon="15.65086516665676"><ele>155.33333333333334</ele><time>2026-05-05T07:25:19Z</time></trkpt><trkpt lat="45.87356420572579" lon="15.650671510527367"><ele>151.66666666666669</ele><time>2026-05-05T07:25:20Z</time></trkpt><trkpt lat="45.87367517350168" lon="15.650493776289094"><ele>148.0</ele><time>2026-05-05T07:25:21Z</time></trkpt><trkpt lat="45.87378913493991" lon="15.650312249300454"><ele>150.0</ele><time>2026-05-05T07:25:22Z</time></trkpt><trkpt lat="45.873918109952704" lon="15.65014758071196"><ele>152.0</ele><time>2026-05-05T07:25:23Z</time></trkpt><trkpt lat="45.874049080974245" lon="15.649982367849178"><ele>154.0</ele><time>2026-05-05T07:25:24Z</time></trkpt><trkpt lat="45.874176814064874" lon="15.649825014187677"><ele>151.66666666666669</ele><time>2026-05-05T07:25:25Z</time></trkpt><trkpt lat="45.87430143706112" lon="15.649654318316715"><ele>149.33333333333334</ele><time>2026-05-05T07:25:26Z</time></trkpt><trkpt lat="45.87440867642195" lon="15.649447263867762"><ele>147.0</ele><time>2026-05-05T07:25:27Z</time></trkpt><trkpt lat="45.874479449721655" lon="15.649217141753027"><ele>147.0</ele><time>2026-05-05T07:25:28Z</time></trkpt><trkpt lat="45.87451993022292" lon="15.648973659971391"><ele>147.0</ele><time>2026-05-05T07:25:29Z</time></trkpt><trkpt lat="45.87459673854761" lon="15.648757436145072"><ele>147.0</ele><time>2026-05-05T07:25:30Z</time></trkpt><trkpt lat="45.874721015667184" lon="15.648580113204021"><ele>148.66666666666666</ele><time>2026-05-05T07:25:31Z</time></trkpt><trkpt lat="45.874846140569936" lon="15.648395532739514"><ele>150.33333333333331</ele><time>2026-05-05T07:25:32Z</time></trkpt><trkpt lat="45.87492849476711" lon="15.648199590125452"><ele>152.0</ele><time>2026-05-05T07:25:33Z</time></trkpt><trkpt lat="45.87500863158122" lon="15.648024918554054"><ele>152.0</ele><time>2026-05-05T07:25:34Z</time></trkpt><trkpt lat="45.87508196363129" lon="15.647843333470517"><ele>152.0</ele><time>2026-05-05T07:25:35Z</time></trkpt><trkpt lat="45.87514789163819" lon="15.647660856418394"><ele>152.0</ele><time>2026-05-05T07:25:36Z</time></trkpt><trkpt lat="45.875212249141065" lon="15.647471801693754"><ele>152.0</ele><time>2026-05-05T07:25:37Z</time></trkpt><trkpt lat="45.87528155795236" lon="15.647281090876515"><ele>150.33333333333331</ele><time>2026-05-05T07:25:38Z</time></trkpt><trkpt lat="45.87535231006873" lon="15.647084828345738"><ele>148.66666666666666</ele><time>2026-05-05T07:25:39Z</time></trkpt><trkpt lat="45.87542781297871" lon="15.646892712259506"><ele>147.0</ele><time>2026-05-05T07:25:40Z</time></trkpt><trkpt lat="45.87550368093365" lon="15.646702369807647"><ele>147.0</ele><time>2026-05-05T07:25:41Z</time></trkpt><trkpt lat="45.875573379281796" lon="15.646520256103052"><ele>147.0</ele><time>2026-05-05T07:25:42Z</time></trkpt><trkpt lat="45.87562754476083" lon="15.646338905128589"><ele>147.0</ele><time>2026-05-05T07:25:43Z</time></trkpt><trkpt lat="45.875661665868755" lon="15.646154125617246"><ele>147.0</ele><time>2026-05-05T07:25:44Z</time></trkpt><trkpt lat="45.87568497687781" lon="15.645975115572522"><ele>147.25</ele><time>2026-05-05T07:25:45Z</time></trkpt><trkpt lat="45.87570315883755" lon="15.645797306709536"><ele>147.5</ele><time>2026-05-05T07:25:46Z</time></trkpt><trkpt lat="45.87572396929848" lon="15.645622212962646"><ele>147.75</ele><time>2026-05-05T07:25:47Z</time></trkpt><trkpt lat="45.87573963270398" lon="15.645438990354132"><ele>148.0</ele><time>2026-05-05T07:25:48Z</time></trkpt><trkpt lat="45.875757179614254" lon="15.645248099822975"><ele>148.0</ele><time>2026-05-05T07:25:49Z</time></trkpt><trkpt lat="45.875769422174486" lon="15.645062708091787"><ele>148.0</ele><time>2026-05-05T07:25:50Z</time></trkpt><trkpt lat="45.875765539795076" lon="15.644879457119826"><ele>148.0</ele><time>2026-05-05T07:25:51Z</time></trkpt><trkpt lat="45.875738617233424" lon="15.644692403424752"><ele>148.0</ele><time>2026-05-05T07:25:52Z</time></trkpt><trkpt lat="45.87569521510903" lon="15.644510156290195"><ele>148.75</ele><time>2026-05-05T07:25:53Z</time></trkpt><trkpt lat="45.87565467705402" lon="15.64431592637569"><ele>149.5</ele><time>2026-05-05T07:25:54Z</time></trkpt><trkpt lat="45.87562199800115" lon="15.644111507074385"><ele>150.25</ele><time>2026-05-05T07:25:55Z</time></trkpt><trkpt lat="45.8756295392858" lon="15.643901014645683"><ele>151.0</ele><time>2026-05-05T07:25:56Z</time></trkpt><trkpt lat="45.8756315648454" lon="15.643686172603783"><ele>152.5</ele><time>2026-05-05T07:25:57Z</time></trkpt><trkpt lat="45.87562758457108" lon="15.643472984846863"><ele>154.0</ele><time>2026-05-05T07:25:58Z</time></trkpt><trkpt lat="45.87564696081967" lon="15.643265341266348"><ele>155.5</ele><time>2026-05-05T07:25:59Z</time></trkpt><trkpt lat="45.875672731481245" lon="15.643054264438488"><ele>157.0</ele><time>2026-05-05T07:26:00Z</time></trkpt><trkpt lat="45.87572846875099" lon="15.642838420040254"><ele>159.33333333333334</ele><time>2026-05-05T07:26:01Z</time></trkpt><trkpt lat="45.87581032598919" lon="15.642608457444773"><ele>161.66666666666666</ele><time>2026-05-05T07:26:02Z</time></trkpt><trkpt lat="45.8759009624156" lon="15.642348945831202"><ele>164.0</ele><time>2026-05-05T07:26:03Z</time></trkpt><trkpt lat="45.87596987198245" lon="15.642027843906094"><ele>153.0</ele><time>2026-05-05T07:26:04Z</time></trkpt><trkpt lat="45.876041164540275" lon="15.641666956020128"><ele>142.0</ele><time>2026-05-05T07:26:05Z</time></trkpt><trkpt lat="45.876143693098314" lon="15.641279882784335"><ele>144.5</ele><time>2026-05-05T07:26:06Z</time></trkpt><trkpt lat="45.87621007279653" lon="15.640889950756122"><ele>147.0</ele><time>2026-05-05T07:26:07Z</time></trkpt><trkpt lat="45.87628714567388" lon="15.640527994621007"><ele>150.5</ele><time>2026-05-05T07:26:08Z</time></trkpt><trkpt lat="45.87635072933979" lon="15.640190002104495"><ele>154.0</ele><time>2026-05-05T07:26:09Z</time></trkpt><trkpt lat="45.87644692233189" lon="15.639863016709775"><ele>154.0</ele><time>2026-05-05T07:26:10Z</time></trkpt><trkpt lat="45.87654764838838" lon="15.639539603216813"><ele>154.0</ele><time>2026-05-05T07:26:11Z</time></trkpt><trkpt lat="45.87666515945405" lon="15.639211495387324"><ele>149.5</ele><time>2026-05-05T07:26:12Z</time></trkpt><trkpt lat="45.87679484159497" lon="15.638894498507105"><ele>145.0</ele><time>2026-05-05T07:26:13Z</time></trkpt><trkpt lat="45.876922539303685" lon="15.638591988286446"><ele>145.0</ele><time>2026-05-05T07:26:14Z</time></trkpt><trkpt lat="45.87705015977449" lon="15.638293894931348"><ele>145.0</ele><time>2026-05-05T07:26:15Z</time></trkpt><trkpt lat="45.877151501794195" lon="15.637988646140004"><ele>149.0</ele><time>2026-05-05T07:26:16Z</time></trkpt><trkpt lat="45.87723638950438" lon="15.637675523436217"><ele>153.0</ele><time>2026-05-05T07:26:17Z</time></trkpt><trkpt lat="45.87730045781145" lon="15.637369063883225"><ele>153.0</ele><time>2026-05-05T07:26:18Z</time></trkpt><trkpt lat="45.87735826570509" lon="15.637094731957694"><ele>153.0</ele><time>2026-05-05T07:26:19Z</time></trkpt><trkpt lat="45.87742908563544" lon="15.636842885508594"><ele>153.0</ele><time>2026-05-05T07:26:20Z</time></trkpt><trkpt lat="45.87751119579626" lon="15.636614101382532"><ele>150.0</ele><time>2026-05-05T07:26:21Z</time></trkpt><trkpt lat="45.877606455738146" lon="15.63640410465379"><ele>147.0</ele><time>2026-05-05T07:26:22Z</time></trkpt><trkpt lat="45.877675548543806" lon="15.636177660052319"><ele>144.0</ele><time>2026-05-05T07:26:23Z</time></trkpt><trkpt lat="45.87772659011379" lon="15.635949417563943"><ele>144.0</ele><time>2026-05-05T07:26:24Z</time></trkpt><trkpt lat="45.87774880253468" lon="15.635717857364005"><ele>144.0</ele><time>2026-05-05T07:26:25Z</time></trkpt><trkpt lat="45.87777059181258" lon="15.63548359500176"><ele>144.0</ele><time>2026-05-05T07:26:26Z</time></trkpt><trkpt lat="45.87778500378302" lon="15.63527352950602"><ele>144.33333333333334</ele><time>2026-05-05T07:26:27Z</time></trkpt><trkpt lat="45.87779249851164" lon="15.63506259567228"><ele>144.66666666666669</ele><time>2026-05-05T07:26:28Z</time></trkpt><trkpt lat="45.877790902529654" lon="15.634847514619755"><ele>145.0</ele><time>2026-05-05T07:26:29Z</time></trkpt><trkpt lat="45.877765129642135" lon="15.634627509354454"><ele>144.66666666666669</ele><time>2026-05-05T07:26:30Z</time></trkpt><trkpt lat="45.87771569255342" lon="15.634421438993943"><ele>144.33333333333334</ele><time>2026-05-05T07:26:31Z</time></trkpt><trkpt lat="45.87772794590539" lon="15.634199263326808"><ele>144.0</ele><time>2026-05-05T07:26:32Z</time></trkpt><trkpt lat="45.87773693014071" lon="15.633974299656275"><ele>144.0</ele><time>2026-05-05T07:26:33Z</time></trkpt><trkpt lat="45.8777386728098" lon="15.633737037157438"><ele>144.0</ele><time>2026-05-05T07:26:34Z</time></trkpt><trkpt lat="45.87775008233767" lon="15.633517034686507"><ele>144.0</ele><time>2026-05-05T07:26:35Z</time></trkpt><trkpt lat="45.8777609277611" lon="15.63329992111753"><ele>144.0</ele><time>2026-05-05T07:26:36Z</time></trkpt><trkpt lat="45.87779975354079" lon="15.633079636075117"><ele>144.0</ele><time>2026-05-05T07:26:37Z</time></trkpt><trkpt lat="45.87787813819153" lon="15.63287238375327"><ele>144.0</ele><time>2026-05-05T07:26:38Z</time></trkpt><trkpt lat="45.877936238071925" lon="15.632626258650069"><ele>144.0</ele><time>2026-05-05T07:26:39Z</time></trkpt><trkpt lat="45.87798851218952" lon="15.632365043723945"><ele>144.0</ele><time>2026-05-05T07:26:40Z</time></trkpt><trkpt lat="45.878016699140595" lon="15.632070626753714"><ele>144.0</ele><time>2026-05-05T07:26:41Z</time></trkpt><trkpt lat="45.878064297964244" lon="15.631731657774429"><ele>145.5</ele><time>2026-05-05T07:26:42Z</time></trkpt><trkpt lat="45.87812453017341" lon="15.631323789058566"><ele>147.0</ele><time>2026-05-05T07:26:43Z</time></trkpt><trkpt lat="45.87820243756628" lon="15.630887640099385"><ele>149.5</ele><time>2026-05-05T07:26:44Z</time></trkpt><trkpt lat="45.8782805208626" lon="15.630497269358145"><ele>152.0</ele><time>2026-05-05T07:26:45Z</time></trkpt><trkpt lat="45.87837004026699" lon="15.6301446996434"><ele>149.0</ele><time>2026-05-05T07:26:46Z</time></trkpt><trkpt lat="45.8784617362925" lon="15.629831841069512"><ele>146.0</ele><time>2026-05-05T07:26:47Z</time></trkpt><trkpt lat="45.87854408356986" lon="15.629570608368356"><ele>143.0</ele><time>2026-05-05T07:26:48Z</time></trkpt><trkpt lat="45.878618288557114" lon="15.62934116714201"><ele>142.33333333333331</ele><time>2026-05-05T07:26:49Z</time></trkpt><trkpt lat="45.87868158179543" lon="15.629119532972155"><ele>141.66666666666666</ele><time>2026-05-05T07:26:50Z</time></trkpt><trkpt lat="45.87872090921459" lon="15.628897829134125"><ele>141.0</ele><time>2026-05-05T07:26:51Z</time></trkpt><trkpt lat="45.87871263389799" lon="15.62868041419519"><ele>140.0</ele><time>2026-05-05T07:26:52Z</time></trkpt><trkpt lat="45.87866411551711" lon="15.628474186310351"><ele>139.0</ele><time>2026-05-05T07:26:53Z</time></trkpt><trkpt lat="45.87859374244789" lon="15.62826651270597"><ele>138.0</ele><time>2026-05-05T07:26:54Z</time></trkpt><trkpt lat="45.87852942662396" lon="15.62808542031258"><ele>138.0</ele><time>2026-05-05T07:26:55Z</time></trkpt><trkpt lat="45.87847819281241" lon="15.627907087298814"><ele>138.0</ele><time>2026-05-05T07:26:56Z</time></trkpt><trkpt lat="45.87846006237864" lon="15.627720497602045"><ele>138.0</ele><time>2026-05-05T07:26:57Z</time></trkpt><trkpt lat="45.87841726763317" lon="15.627534541358086"><ele>138.0</ele><time>2026-05-05T07:26:58Z</time></trkpt><trkpt lat="45.87839215654754" lon="15.627327012160649"><ele>140.0</ele><time>2026-05-05T07:26:59Z</time></trkpt><trkpt lat="45.87837010600432" lon="15.627106100163015"><ele>142.0</ele><time>2026-05-05T07:27:00Z</time></trkpt><trkpt lat="45.878364996794645" lon="15.626878839954705"><ele>144.0</ele><time>2026-05-05T07:27:01Z</time></trkpt><trkpt lat="45.878350274523875" lon="15.62664434841711"><ele>144.33333333333334</ele><time>2026-05-05T07:27:02Z</time></trkpt><trkpt lat="45.87833574265068" lon="15.626402403451552"><ele>144.66666666666669</ele><time>2026-05-05T07:27:03Z</time></trkpt><trkpt lat="45.878304697728446" lon="15.62615818842912"><ele>145.0</ele><time>2026-05-05T07:27:04Z</time></trkpt><trkpt lat="45.87829448425087" lon="15.625905460135698"><ele>145.33333333333334</ele><time>2026-05-05T07:27:05Z</time></trkpt><trkpt lat="45.878280309227804" lon="15.625645960906391"><ele>145.66666666666666</ele><time>2026-05-05T07:27:06Z</time></trkpt><trkpt lat="45.87825895585015" lon="15.625378291893849"><ele>146.0</ele><time>2026-05-05T07:27:07Z</time></trkpt><trkpt lat="45.87823602335427" lon="15.625119257146995"><ele>146.33333333333331</ele><time>2026-05-05T07:27:08Z</time></trkpt><trkpt lat="45.87823862117041" lon="15.624845091310977"><ele>146.66666666666666</ele><time>2026-05-05T07:27:09Z</time></trkpt><trkpt lat="45.87822559078167" lon="15.624568555623346"><ele>147.0</ele><time>2026-05-05T07:27:10Z</time></trkpt><trkpt lat="45.8782357962573" lon="15.624296008627146"><ele>147.0</ele><time>2026-05-05T07:27:11Z</time></trkpt><trkpt lat="45.87824254139544" lon="15.624035953546578"><ele>147.0</ele><time>2026-05-05T07:27:12Z</time></trkpt><trkpt lat="45.87825275035433" lon="15.623808282734755"><ele>147.0</ele><time>2026-05-05T07:27:13Z</time></trkpt><trkpt lat="45.878275105348784" lon="15.623589444072074"><ele>148.0</ele><time>2026-05-05T07:27:14Z</time></trkpt><trkpt lat="45.878319718666496" lon="15.62336500049051"><ele>149.0</ele><time>2026-05-05T07:27:15Z</time></trkpt><trkpt lat="45.87836907803417" lon="15.62312788329634"><ele>150.0</ele><time>2026-05-05T07:27:16Z</time></trkpt><trkpt lat="45.878421322514164" lon="15.62287979568194"><ele>146.33333333333334</ele><time>2026-05-05T07:27:17Z</time></trkpt><trkpt lat="45.878477363268004" lon="15.622614887113249"><ele>142.66666666666669</ele><time>2026-05-05T07:27:18Z</time></trkpt><trkpt lat="45.878535393126604" lon="15.622342150621783"><ele>139.0</ele><time>2026-05-05T07:27:19Z</time></trkpt><trkpt lat="45.87859670128368" lon="15.622069140252323"><ele>139.33333333333334</ele><time>2026-05-05T07:27:20Z</time></trkpt><trkpt lat="45.87865875982034" lon="15.621796236766013"><ele>139.66666666666666</ele><time>2026-05-05T07:27:21Z</time></trkpt><trkpt lat="45.87872476702965" lon="15.621523885117703"><ele>140.0</ele><time>2026-05-05T07:27:22Z</time></trkpt><trkpt lat="45.87879311818182" lon="15.621261575119691"><ele>141.0</ele><time>2026-05-05T07:27:23Z</time></trkpt><trkpt lat="45.87887715885534" lon="15.621003940261431"><ele>142.0</ele><time>2026-05-05T07:27:24Z</time></trkpt><trkpt lat="45.87897626795974" lon="15.620756767328302"><ele>143.0</ele><time>2026-05-05T07:27:25Z</time></trkpt><trkpt lat="45.879085454131875" lon="15.620513125376878"><ele>142.0</ele><time>2026-05-05T07:27:26Z</time></trkpt><trkpt lat="45.879202748229304" lon="15.620271629698689"><ele>141.0</ele><time>2026-05-05T07:27:27Z</time></trkpt><trkpt lat="45.879318809386355" lon="15.620028003401812"><ele>140.0</ele><time>2026-05-05T07:27:28Z</time></trkpt><trkpt lat="45.87942909168451" lon="15.619782829382231"><ele>140.0</ele><time>2026-05-05T07:27:29Z</time></trkpt><trkpt lat="45.87953760557594" lon="15.61953260561258"><ele>140.0</ele><time>2026-05-05T07:27:30Z</time></trkpt><trkpt lat="45.87963786711033" lon="15.619281315664606"><ele>140.0</ele><time>2026-05-05T07:27:31Z</time></trkpt><trkpt lat="45.87974003347138" lon="15.619029825059673"><ele>141.0</ele><time>2026-05-05T07:27:32Z</time></trkpt><trkpt lat="45.879831336504814" lon="15.618773768474213"><ele>142.0</ele><time>2026-05-05T07:27:33Z</time></trkpt><trkpt lat="45.87992757517971" lon="15.618514049791205"><ele>143.0</ele><time>2026-05-05T07:27:34Z</time></trkpt><trkpt lat="45.880022351008904" lon="15.618257520116863"><ele>143.33333333333331</ele><time>2026-05-05T07:27:35Z</time></trkpt><trkpt lat="45.880117895511574" lon="15.617998709968841"><ele>143.66666666666666</ele><time>2026-05-05T07:27:36Z</time></trkpt><trkpt lat="45.88020979409187" lon="15.617733859765796"><ele>144.0</ele><time>2026-05-05T07:27:37Z</time></trkpt><trkpt lat="45.88030603078721" lon="15.61746649820926"><ele>144.0</ele><time>2026-05-05T07:27:38Z</time></trkpt><trkpt lat="45.880400602199465" lon="15.617194415220753"><ele>144.0</ele><time>2026-05-05T07:27:39Z</time></trkpt><trkpt lat="45.88049595375427" lon="15.616925429279995"><ele>144.0</ele><time>2026-05-05T07:27:40Z</time></trkpt><trkpt lat="45.88060206290423" lon="15.61663699319364"><ele>144.5</ele><time>2026-05-05T07:27:41Z</time></trkpt><trkpt lat="45.88073643092066" lon="15.616347634519034"><ele>145.0</ele><time>2026-05-05T07:27:42Z</time></trkpt><trkpt lat="45.880891418021534" lon="15.616055870539352"><ele>144.5</ele><time>2026-05-05T07:27:43Z</time></trkpt><trkpt lat="45.881059895590944" lon="15.61579664760342"><ele>144.0</ele><time>2026-05-05T07:27:44Z</time></trkpt><trkpt lat="45.88122627604589" lon="15.615549526619123"><ele>144.0</ele><time>2026-05-05T07:27:45Z</time></trkpt><trkpt lat="45.88137877289915" lon="15.615323318040799"><ele>144.0</ele><time>2026-05-05T07:27:46Z</time></trkpt><trkpt lat="45.88151255621477" lon="15.61513150280477"><ele>144.0</ele><time>2026-05-05T07:27:47Z</time></trkpt><trkpt lat="45.88163829227044" lon="15.614956757676879"><ele>144.5</ele><time>2026-05-05T07:27:48Z</time></trkpt><trkpt lat="45.88174945676016" lon="15.614800732461719"><ele>145.0</ele><time>2026-05-05T07:27:49Z</time></trkpt><trkpt lat="45.881853394978606" lon="15.614656772409768"><ele>145.5</ele><time>2026-05-05T07:27:50Z</time></trkpt><trkpt lat="45.88195035751972" lon="15.614520061426978"><ele>146.0</ele><time>2026-05-05T07:27:51Z</time></trkpt><trkpt lat="45.88204723588261" lon="15.614379172818417"><ele>148.0</ele><time>2026-05-05T07:27:52Z</time></trkpt><trkpt lat="45.8821453241634" lon="15.614239268599798"><ele>150.0</ele><time>2026-05-05T07:27:53Z</time></trkpt><trkpt lat="45.882246516905795" lon="15.614098749001558"><ele>152.0</ele><time>2026-05-05T07:27:54Z</time></trkpt><trkpt lat="45.88234789110399" lon="15.61396754667133"><ele>154.0</ele><time>2026-05-05T07:27:55Z</time></trkpt><trkpt lat="45.88245083570371" lon="15.613841353697937"><ele>154.0</ele><time>2026-05-05T07:27:56Z</time></trkpt><trkpt lat="45.882562225340365" lon="15.613720889800438"><ele>154.0</ele><time>2026-05-05T07:27:57Z</time></trkpt><trkpt lat="45.88268120766233" lon="15.61360673270231"><ele>154.0</ele><time>2026-05-05T07:27:58Z</time></trkpt><trkpt lat="45.88280394980826" lon="15.613501650873081"><ele>154.0</ele><time>2026-05-05T07:27:59Z</time></trkpt><trkpt lat="45.88292649009432" lon="15.613409184614005"><ele>154.5</ele><time>2026-05-05T07:28:00Z</time></trkpt><trkpt lat="45.8830439290666" lon="15.613324187058792"><ele>155.0</ele><time>2026-05-05T07:28:01Z</time></trkpt><trkpt lat="45.88316016593197" lon="15.61324458656401"><ele>155.5</ele><time>2026-05-05T07:28:02Z</time></trkpt><trkpt lat="45.88328029013051" lon="15.613159075124848"><ele>156.0</ele><time>2026-05-05T07:28:03Z</time></trkpt><trkpt lat="45.88339614913402" lon="15.613070803792661"><ele>155.25</ele><time>2026-05-05T07:28:04Z</time></trkpt><trkpt lat="45.883511971505435" lon="15.612971190514482"><ele>154.5</ele><time>2026-05-05T07:28:05Z</time></trkpt><trkpt lat="45.883635272693475" lon="15.612875727079421"><ele>153.75</ele><time>2026-05-05T07:28:06Z</time></trkpt><trkpt lat="45.88375821765721" lon="15.612789693718947"><ele>153.0</ele><time>2026-05-05T07:28:07Z</time></trkpt><trkpt lat="45.88388626475041" lon="15.612711608622547"><ele>153.0</ele><time>2026-05-05T07:28:08Z</time></trkpt><trkpt lat="45.88401405976089" lon="15.612635127933736"><ele>153.0</ele><time>2026-05-05T07:28:09Z</time></trkpt><trkpt lat="45.88413859564524" lon="15.612562115972306"><ele>153.0</ele><time>2026-05-05T07:28:10Z</time></trkpt><trkpt lat="45.884260756286274" lon="15.612482305235913"><ele>153.0</ele><time>2026-05-05T07:28:11Z</time></trkpt><trkpt lat="45.88438042459506" lon="15.61239165585273"><ele>150.5</ele><time>2026-05-05T07:28:12Z</time></trkpt><trkpt lat="45.884504648599794" lon="15.61230387435429"><ele>148.0</ele><time>2026-05-05T07:28:13Z</time></trkpt><trkpt lat="45.88462440684091" lon="15.612214727148965"><ele>145.5</ele><time>2026-05-05T07:28:14Z</time></trkpt><trkpt lat="45.88474399994224" lon="15.612127314223157"><ele>143.0</ele><time>2026-05-05T07:28:15Z</time></trkpt><trkpt lat="45.88486703922316" lon="15.61203975010454"><ele>144.0</ele><time>2026-05-05T07:28:16Z</time></trkpt><trkpt lat="45.88499066747291" lon="15.611960315316992"><ele>145.0</ele><time>2026-05-05T07:28:17Z</time></trkpt><trkpt lat="45.88511796060595" lon="15.61188743887946"><ele>146.0</ele><time>2026-05-05T07:28:18Z</time></trkpt><trkpt lat="45.88524543019492" lon="15.611822172116183"><ele>147.0</ele><time>2026-05-05T07:28:19Z</time></trkpt><trkpt lat="45.885373766349836" lon="15.611754229466055"><ele>147.0</ele><time>2026-05-05T07:28:20Z</time></trkpt><trkpt lat="45.88550160659053" lon="15.611683618914409"><ele>147.0</ele><time>2026-05-05T07:28:21Z</time></trkpt><trkpt lat="45.88562571994183" lon="15.61160926691824"><ele>147.0</ele><time>2026-05-05T07:28:22Z</time></trkpt><trkpt lat="45.885750265366035" lon="15.611529728727609"><ele>147.0</ele><time>2026-05-05T07:28:23Z</time></trkpt><trkpt lat="45.885869520560526" lon="15.611436791434413"><ele>146.75</ele><time>2026-05-05T07:28:24Z</time></trkpt><trkpt lat="45.88598642481391" lon="15.611333159355786"><ele>146.5</ele><time>2026-05-05T07:28:25Z</time></trkpt><trkpt lat="45.88609972539873" lon="15.611225313029516"><ele>146.25</ele><time>2026-05-05T07:28:26Z</time></trkpt><trkpt lat="45.88621645140817" lon="15.611106759563913"><ele>146.0</ele><time>2026-05-05T07:28:27Z</time></trkpt><trkpt lat="45.886334324250754" lon="15.610985427617754"><ele>146.0</ele><time>2026-05-05T07:28:28Z</time></trkpt><trkpt lat="45.886453099875595" lon="15.610862378408905"><ele>146.0</ele><time>2026-05-05T07:28:29Z</time></trkpt><trkpt lat="45.88657270066098" lon="15.610741931069843"><ele>146.0</ele><time>2026-05-05T07:28:30Z</time></trkpt><trkpt lat="45.88669273042813" lon="15.610622708117928"><ele>146.0</ele><time>2026-05-05T07:28:31Z</time></trkpt><trkpt lat="45.88681699802162" lon="15.610506552395137"><ele>145.25</ele><time>2026-05-05T07:28:32Z</time></trkpt><trkpt lat="45.88693994013153" lon="15.610383438699632"><ele>144.5</ele><time>2026-05-05T07:28:33Z</time></trkpt><trkpt lat="45.88705837601753" lon="15.610255923063404"><ele>143.75</ele><time>2026-05-05T07:28:34Z</time></trkpt><trkpt lat="45.88717914987621" lon="15.610136412927568"><ele>143.0</ele><time>2026-05-05T07:28:35Z</time></trkpt><trkpt lat="45.8873040592622" lon="15.610014630468429"><ele>142.5</ele><time>2026-05-05T07:28:36Z</time></trkpt><trkpt lat="45.8874260395521" lon="15.60990007893934"><ele>142.0</ele><time>2026-05-05T07:28:37Z</time></trkpt><trkpt lat="45.88754586712525" lon="15.609773746319846"><ele>141.5</ele><time>2026-05-05T07:28:38Z</time></trkpt><trkpt lat="45.8876627248458" lon="15.609644763761013"><ele>141.0</ele><time>2026-05-05T07:28:39Z</time></trkpt><trkpt lat="45.887773934385606" lon="15.609501109308475"><ele>142.0</ele><time>2026-05-05T07:28:40Z</time></trkpt><trkpt lat="45.88788318837016" lon="15.609354949320908"><ele>143.0</ele><time>2026-05-05T07:28:41Z</time></trkpt><trkpt lat="45.888003270883424" lon="15.60923431781551"><ele>144.0</ele><time>2026-05-05T07:28:42Z</time></trkpt><trkpt lat="45.888141433923074" lon="15.609158874010898"><ele>145.0</ele><time>2026-05-05T07:28:43Z</time></trkpt><trkpt lat="45.8882802992418" lon="15.609119945418714"><ele>145.0</ele><time>2026-05-05T07:28:44Z</time></trkpt><trkpt lat="45.88842187738274" lon="15.609132477349254"><ele>145.0</ele><time>2026-05-05T07:28:45Z</time></trkpt><trkpt lat="45.888555303415934" lon="15.609172887314752"><ele>145.0</ele><time>2026-05-05T07:28:46Z</time></trkpt><trkpt lat="45.888667431988935" lon="15.609247438921825"><ele>145.0</ele><time>2026-05-05T07:28:47Z</time></trkpt><trkpt lat="45.88874999176353" lon="15.60935434286767"><ele>144.66666666666669</ele><time>2026-05-05T07:28:48Z</time></trkpt><trkpt lat="45.888806516210536" lon="15.609469227160446"><ele>144.33333333333334</ele><time>2026-05-05T07:28:49Z</time></trkpt><trkpt lat="45.888865937262395" lon="15.609528132902378"><ele>144.0</ele><time>2026-05-05T07:28:50Z</time></trkpt><trkpt lat="45.8889313479262" lon="15.609505082392719"><ele>143.66666666666666</ele><time>2026-05-05T07:28:51Z</time></trkpt><trkpt lat="45.888984028851645" lon="15.609431508173552"><ele>143.33333333333331</ele><time>2026-05-05T07:28:52Z</time></trkpt><trkpt lat="45.88900928758784" lon="15.60932988830308"><ele>143.0</ele><time>2026-05-05T07:28:53Z</time></trkpt><trkpt lat="45.88900671907882" lon="15.609206334548857"><ele>143.0</ele><time>2026-05-05T07:28:54Z</time></trkpt><trkpt lat="45.88897503017005" lon="15.60908251553563"><ele>143.0</ele><time>2026-05-05T07:28:55Z</time></trkpt><trkpt lat="45.888957661539095" lon="15.60892875431846"><ele>143.0</ele><time>2026-05-05T07:28:56Z</time></trkpt><trkpt lat="45.88898103488576" lon="15.608766848160393"><ele>143.0</ele><time>2026-05-05T07:28:57Z</time></trkpt><trkpt lat="45.889032385902105" lon="15.608595256298688"><ele>143.0</ele><time>2026-05-05T07:28:58Z</time></trkpt><trkpt lat="45.8891078784942" lon="15.608438906208598"><ele>143.25</ele><time>2026-05-05T07:28:59Z</time></trkpt><trkpt lat="45.88920237567603" lon="15.608296728450721"><ele>143.5</ele><time>2026-05-05T07:29:00Z</time></trkpt><trkpt lat="45.88930986190884" lon="15.608172449721343"><ele>143.75</ele><time>2026-05-05T07:29:01Z</time></trkpt><trkpt lat="45.889432592584136" lon="15.608069664917036"><ele>144.0</ele><time>2026-05-05T07:29:02Z</time></trkpt><trkpt lat="45.88956577171448" lon="15.607993204271187"><ele>143.5</ele><time>2026-05-05T07:29:03Z</time></trkpt><trkpt lat="45.889702139598484" lon="15.60793475934907"><ele>143.0</ele><time>2026-05-05T07:29:04Z</time></trkpt><trkpt lat="45.889841322968216" lon="15.607889411023331"><ele>142.5</ele><time>2026-05-05T07:29:05Z</time></trkpt><trkpt lat="45.88998341362845" lon="15.607830264360473"><ele>142.0</ele><time>2026-05-05T07:29:06Z</time></trkpt><trkpt lat="45.89012867079867" lon="15.607746121499423"><ele>142.0</ele><time>2026-05-05T07:29:07Z</time></trkpt><trkpt lat="45.89026873619957" lon="15.607627104473996"><ele>142.0</ele><time>2026-05-05T07:29:08Z</time></trkpt><trkpt lat="45.89039690899444" lon="15.607471684457142"><ele>142.0</ele><time>2026-05-05T07:29:09Z</time></trkpt><trkpt lat="45.890507877541644" lon="15.607292157335488"><ele>142.0</ele><time>2026-05-05T07:29:10Z</time></trkpt><trkpt lat="45.89060759007954" lon="15.607095254861875"><ele>142.0</ele><time>2026-05-05T07:29:11Z</time></trkpt><trkpt lat="45.890698902916085" lon="15.606891884333223"><ele>142.0</ele><time>2026-05-05T07:29:12Z</time></trkpt><trkpt lat="45.890771729583086" lon="15.606671956668874"><ele>142.66666666666669</ele><time>2026-05-05T07:29:13Z</time></trkpt><trkpt lat="45.89082733416987" lon="15.606436206574985"><ele>143.33333333333334</ele><time>2026-05-05T07:29:14Z</time></trkpt><trkpt lat="45.890886087525395" lon="15.606186358043116"><ele>144.0</ele><time>2026-05-05T07:29:15Z</time></trkpt><trkpt lat="45.89096309082907" lon="15.605919423067343"><ele>145.0</ele><time>2026-05-05T07:29:16Z</time></trkpt><trkpt lat="45.8910579077106" lon="15.605588448628547"><ele>146.0</ele><time>2026-05-05T07:29:17Z</time></trkpt><trkpt lat="45.891173452315016" lon="15.605199644810021"><ele>146.0</ele><time>2026-05-05T07:29:18Z</time></trkpt><trkpt lat="45.891282560007056" lon="15.604833792413409"><ele>146.0</ele><time>2026-05-05T07:29:19Z</time></trkpt><trkpt lat="45.89134767751168" lon="15.604512380640916"><ele>146.33333333333331</ele><time>2026-05-05T07:29:20Z</time></trkpt><trkpt lat="45.89137897987885" lon="15.604234449645306"><ele>146.66666666666666</ele><time>2026-05-05T07:29:21Z</time></trkpt><trkpt lat="45.89141748504812" lon="15.603995664896749"><ele>147.0</ele><time>2026-05-05T07:29:22Z</time></trkpt><trkpt lat="45.891455177961454" lon="15.60379809354257"><ele>147.4</ele><time>2026-05-05T07:29:23Z</time></trkpt><trkpt lat="45.89149033394148" lon="15.603631191020208"><ele>147.79999999999998</ele><time>2026-05-05T07:29:24Z</time></trkpt><trkpt lat="45.89153323064649" lon="15.603485639058679"><ele>148.2</ele><time>2026-05-05T07:29:25Z</time></trkpt><trkpt lat="45.89157525032777" lon="15.603358654021742"><ele>148.6</ele><time>2026-05-05T07:29:26Z</time></trkpt><trkpt lat="45.891624516583015" lon="15.603239848177354"><ele>149.0</ele><time>2026-05-05T07:29:27Z</time></trkpt><trkpt lat="45.89166415998198" lon="15.60313212328497"><ele>149.0</ele><time>2026-05-05T07:29:28Z</time></trkpt><trkpt lat="45.891704311603206" lon="15.60304018953702"><ele>149.0</ele><time>2026-05-05T07:29:29Z</time></trkpt><trkpt lat="45.891743163567185" lon="15.60296342283983"><ele>149.0</ele><time>2026-05-05T07:29:30Z</time></trkpt><trkpt lat="45.891829942175455" lon="15.602848818571726"><ele>149.0</ele><time>2026-05-05T07:29:32Z</time></trkpt><trkpt lat="45.891884367979" lon="15.602802323566216"><ele>149.0</ele><time>2026-05-05T07:29:33Z</time></trkpt><trkpt lat="45.891950337996356" lon="15.602764807843508"><ele>149.0</ele><time>2026-05-05T07:29:34Z</time></trkpt><trkpt lat="45.89201965576476" lon="15.602742065723309"><ele>149.0</ele><time>2026-05-05T07:29:35Z</time></trkpt><trkpt lat="45.89210020362964" lon="15.602742617945983"><ele>149.0</ele><time>2026-05-05T07:29:36Z</time></trkpt><trkpt lat="45.89219235128994" lon="15.602775637993645"><ele>149.0</ele><time>2026-05-05T07:29:37Z</time></trkpt><trkpt lat="45.89228586401982" lon="15.602802166834378"><ele>149.0</ele><time>2026-05-05T07:29:38Z</time></trkpt><trkpt lat="45.89238104870078" lon="15.602775312036712"><ele>149.0</ele><time>2026-05-05T07:29:39Z</time></trkpt><trkpt lat="45.892429880215886" lon="15.602680026693653"><ele>149.0</ele><time>2026-05-05T07:29:40Z</time></trkpt><trkpt lat="45.89247889136191" lon="15.6025578966802"><ele>149.0</ele><time>2026-05-05T07:29:41Z</time></trkpt><trkpt lat="45.89252662241779" lon="15.602409890470701"><ele>149.0</ele><time>2026-05-05T07:29:42Z</time></trkpt><trkpt lat="45.89258464024724" lon="15.602251661547017"><ele>149.0</ele><time>2026-05-05T07:29:43Z</time></trkpt><trkpt lat="45.89265528172658" lon="15.602102544890109"><ele>147.5</ele><time>2026-05-05T07:29:44Z</time></trkpt><trkpt lat="45.89272706100016" lon="15.601971283578838"><ele>146.0</ele><time>2026-05-05T07:29:45Z</time></trkpt><trkpt lat="45.892797058600344" lon="15.601849381803598"><ele>144.5</ele><time>2026-05-05T07:29:46Z</time></trkpt><trkpt lat="45.89287210016097" lon="15.601723474421796"><ele>143.0</ele><time>2026-05-05T07:29:47Z</time></trkpt><trkpt lat="45.89294522207081" lon="15.601592696301859"><ele>143.0</ele><time>2026-05-05T07:29:48Z</time></trkpt><trkpt lat="45.89302090272983" lon="15.60145894295477"><ele>143.0</ele><time>2026-05-05T07:29:49Z</time></trkpt><trkpt lat="45.893096329854515" lon="15.60131621275498"><ele>143.0</ele><time>2026-05-05T07:29:50Z</time></trkpt><trkpt lat="45.893165452064814" lon="15.60116395142622"><ele>143.0</ele><time>2026-05-05T07:29:51Z</time></trkpt><trkpt lat="45.89322707197128" lon="15.601002504042842"><ele>145.5</ele><time>2026-05-05T07:29:52Z</time></trkpt><trkpt lat="45.89327454088635" lon="15.600828924411603"><ele>148.0</ele><time>2026-05-05T07:29:53Z</time></trkpt><trkpt lat="45.89330116157904" lon="15.600639833040269"><ele>150.5</ele><time>2026-05-05T07:29:54Z</time></trkpt><trkpt lat="45.89331953405153" lon="15.600454946721502"><ele>153.0</ele><time>2026-05-05T07:29:55Z</time></trkpt><trkpt lat="45.89333532920894" lon="15.600274835460933"><ele>153.0</ele><time>2026-05-05T07:29:56Z</time></trkpt><trkpt lat="45.89334387037842" lon="15.600090954878526"><ele>153.0</ele><time>2026-05-05T07:29:57Z</time></trkpt><trkpt lat="45.89335922905101" lon="15.599898327444231"><ele>153.0</ele><time>2026-05-05T07:29:58Z</time></trkpt><trkpt lat="45.89336876417534" lon="15.599711853740326"><ele>153.0</ele><time>2026-05-05T07:29:59Z</time></trkpt><trkpt lat="45.893378747664144" lon="15.599536207751033"><ele>153.5</ele><time>2026-05-05T07:30:00Z</time></trkpt><trkpt lat="45.89338796382467" lon="15.599358825268608"><ele>154.0</ele><time>2026-05-05T07:30:01Z</time></trkpt><trkpt lat="45.89339944141978" lon="15.599175308795724"><ele>154.5</ele><time>2026-05-05T07:30:02Z</time></trkpt><trkpt lat="45.8934046705108" lon="15.59898572997914"><ele>155.0</ele><time>2026-05-05T07:30:03Z</time></trkpt><trkpt lat="45.89340291351244" lon="15.59877993290959"><ele>156.0</ele><time>2026-05-05T07:30:04Z</time></trkpt><trkpt lat="45.89339208050034" lon="15.598548360503536"><ele>157.0</ele><time>2026-05-05T07:30:05Z</time></trkpt><trkpt lat="45.89338524040291" lon="15.598308124481425"><ele>158.0</ele><time>2026-05-05T07:30:06Z</time></trkpt><trkpt lat="45.89340076319393" lon="15.59804807346869"><ele>153.0</ele><time>2026-05-05T07:30:07Z</time></trkpt><trkpt lat="45.89342980039359" lon="15.597755726243092"><ele>148.0</ele><time>2026-05-05T07:30:08Z</time></trkpt><trkpt lat="45.893469877800996" lon="15.59744124654072"><ele>143.0</ele><time>2026-05-05T07:30:09Z</time></trkpt><trkpt lat="45.893522537875604" lon="15.597126017866957"><ele>143.0</ele><time>2026-05-05T07:30:10Z</time></trkpt><trkpt lat="45.89357691937121" lon="15.596786143477551"><ele>143.0</ele><time>2026-05-05T07:30:11Z</time></trkpt><trkpt lat="45.893618256055156" lon="15.596417203504043"><ele>143.5</ele><time>2026-05-05T07:30:12Z</time></trkpt><trkpt lat="45.893612660519686" lon="15.596040758399974"><ele>144.0</ele><time>2026-05-05T07:30:13Z</time></trkpt><trkpt lat="45.89359401214967" lon="15.595670529931601"><ele>144.5</ele><time>2026-05-05T07:30:14Z</time></trkpt><trkpt lat="45.89359048046119" lon="15.595308722957983"><ele>145.0</ele><time>2026-05-05T07:30:15Z</time></trkpt><trkpt lat="45.89359557743054" lon="15.59495560796895"><ele>145.0</ele><time>2026-05-05T07:30:16Z</time></trkpt><trkpt lat="45.8936072844265" lon="15.594606180255427"><ele>145.0</ele><time>2026-05-05T07:30:17Z</time></trkpt><trkpt lat="45.89361500243363" lon="15.594261945775733"><ele>144.5</ele><time>2026-05-05T07:30:18Z</time></trkpt><trkpt lat="45.893614898278024" lon="15.593931659686433"><ele>144.0</ele><time>2026-05-05T07:30:19Z</time></trkpt><trkpt lat="45.893601671486266" lon="15.593604641892506"><ele>144.0</ele><time>2026-05-05T07:30:20Z</time></trkpt><trkpt lat="45.89359497764673" lon="15.5932925333944"><ele>144.0</ele><time>2026-05-05T07:30:21Z</time></trkpt><trkpt lat="45.8936030531522" lon="15.59299213954057"><ele>144.0</ele><time>2026-05-05T07:30:22Z</time></trkpt><trkpt lat="45.893636122254065" lon="15.592700251983171"><ele>143.66666666666666</ele><time>2026-05-05T07:30:23Z</time></trkpt><trkpt lat="45.89369115344577" lon="15.592421187311547"><ele>143.33333333333331</ele><time>2026-05-05T07:30:24Z</time></trkpt><trkpt lat="45.893751684818774" lon="15.592136338959783"><ele>143.0</ele><time>2026-05-05T07:30:25Z</time></trkpt><trkpt lat="45.89379104096727" lon="15.591851009139063"><ele>143.0</ele><time>2026-05-05T07:30:26Z</time></trkpt><trkpt lat="45.89380759556247" lon="15.59156205135903"><ele>143.0</ele><time>2026-05-05T07:30:27Z</time></trkpt><trkpt lat="45.89380162324097" lon="15.591268902972628"><ele>143.0</ele><time>2026-05-05T07:30:28Z</time></trkpt><trkpt lat="45.89377781275773" lon="15.590971134241682"><ele>143.0</ele><time>2026-05-05T07:30:29Z</time></trkpt><trkpt lat="45.89374711158521" lon="15.590670049039332"><ele>143.0</ele><time>2026-05-05T07:30:30Z</time></trkpt><trkpt lat="45.89370563846785" lon="15.590373436286146"><ele>143.0</ele><time>2026-05-05T07:30:31Z</time></trkpt><trkpt lat="45.893652503825265" lon="15.590080622874032"><ele>143.0</ele><time>2026-05-05T07:30:32Z</time></trkpt><trkpt lat="45.893591535858754" lon="15.58979907953447"><ele>143.0</ele><time>2026-05-05T07:30:33Z</time></trkpt><trkpt lat="45.893523289675294" lon="15.589543739349352"><ele>143.0</ele><time>2026-05-05T07:30:34Z</time></trkpt><trkpt lat="45.89345260775993" lon="15.58931467958425"><ele>145.0</ele><time>2026-05-05T07:30:35Z</time></trkpt><trkpt lat="45.89338459684248" lon="15.589089401957075"><ele>147.0</ele><time>2026-05-05T07:30:36Z</time></trkpt><trkpt lat="45.893337532746656" lon="15.588861169523813"><ele>149.0</ele><time>2026-05-05T07:30:37Z</time></trkpt><trkpt lat="45.89330689891839" lon="15.588633533469036"><ele>149.0</ele><time>2026-05-05T07:30:38Z</time></trkpt><trkpt lat="45.89328509380878" lon="15.588407376766696"><ele>149.0</ele><time>2026-05-05T07:30:39Z</time></trkpt><trkpt lat="45.89324625516218" lon="15.588195898150866"><ele>149.0</ele><time>2026-05-05T07:30:40Z</time></trkpt><trkpt lat="45.89318097559852" lon="15.587988634740524"><ele>147.0</ele><time>2026-05-05T07:30:41Z</time></trkpt><trkpt lat="45.89309335832684" lon="15.587792387135476"><ele>145.0</ele><time>2026-05-05T07:30:42Z</time></trkpt><trkpt lat="45.89299211194069" lon="15.58760010538826"><ele>143.0</ele><time>2026-05-05T07:30:43Z</time></trkpt><trkpt lat="45.89290020043749" lon="15.587404076148248"><ele>143.0</ele><time>2026-05-05T07:30:44Z</time></trkpt><trkpt lat="45.892824113409574" lon="15.58720598624292"><ele>143.0</ele><time>2026-05-05T07:30:45Z</time></trkpt><trkpt lat="45.892746459908906" lon="15.587005487858981"><ele>143.0</ele><time>2026-05-05T07:30:46Z</time></trkpt><trkpt lat="45.89266248401652" lon="15.586798918725721"><ele>146.33333333333331</ele><time>2026-05-05T07:30:47Z</time></trkpt><trkpt lat="45.89258604679105" lon="15.58659692540324"><ele>149.66666666666666</ele><time>2026-05-05T07:30:48Z</time></trkpt><trkpt lat="45.89250965815175" lon="15.586398296368577"><ele>153.0</ele><time>2026-05-05T07:30:49Z</time></trkpt><trkpt lat="45.8924406627249" lon="15.586216274254749"><ele>149.66666666666666</ele><time>2026-05-05T07:30:50Z</time></trkpt><trkpt lat="45.892361501458666" lon="15.58603510409261"><ele>146.33333333333331</ele><time>2026-05-05T07:30:51Z</time></trkpt><trkpt lat="45.89228137970313" lon="15.58584721096812"><ele>143.0</ele><time>2026-05-05T07:30:52Z</time></trkpt><trkpt lat="45.89220376241876" lon="15.585656219356778"><ele>143.0</ele><time>2026-05-05T07:30:53Z</time></trkpt><trkpt lat="45.8921288238603" lon="15.585466294164268"><ele>143.0</ele><time>2026-05-05T07:30:54Z</time></trkpt><trkpt lat="45.89205347050986" lon="15.585272701756763"><ele>143.0</ele><time>2026-05-05T07:30:55Z</time></trkpt><trkpt lat="45.891984138738145" lon="15.585076642350169"><ele>143.0</ele><time>2026-05-05T07:30:56Z</time></trkpt><trkpt lat="45.891922115504045" lon="15.584858639300927"><ele>143.0</ele><time>2026-05-05T07:30:57Z</time></trkpt><trkpt lat="45.89188042218624" lon="15.584620257154544"><ele>143.0</ele><time>2026-05-05T07:30:58Z</time></trkpt><trkpt lat="45.89185768212917" lon="15.584372916519477"><ele>143.0</ele><time>2026-05-05T07:30:59Z</time></trkpt><trkpt lat="45.89184621876181" lon="15.58413619967645"><ele>143.0</ele><time>2026-05-05T07:31:00Z</time></trkpt><trkpt lat="45.891849588100364" lon="15.583909336442957"><ele>143.0</ele><time>2026-05-05T07:31:01Z</time></trkpt><trkpt lat="45.89185235472279" lon="15.583685615698515"><ele>143.33333333333331</ele><time>2026-05-05T07:31:02Z</time></trkpt><trkpt lat="45.891854468981364" lon="15.583464024884634"><ele>143.66666666666666</ele><time>2026-05-05T07:31:03Z</time></trkpt><trkpt lat="45.89185684146445" lon="15.583237366003747"><ele>144.0</ele><time>2026-05-05T07:31:04Z</time></trkpt><trkpt lat="45.89185540519279" lon="15.583000096673395"><ele>143.66666666666666</ele><time>2026-05-05T07:31:05Z</time></trkpt><trkpt lat="45.89185292012775" lon="15.582738604481202"><ele>143.33333333333331</ele><time>2026-05-05T07:31:06Z</time></trkpt><trkpt lat="45.89185087701539" lon="15.58246637653911"><ele>143.0</ele><time>2026-05-05T07:31:07Z</time></trkpt><trkpt lat="45.891848788562285" lon="15.582196605552904"><ele>143.33333333333331</ele><time>2026-05-05T07:31:08Z</time></trkpt><trkpt lat="45.89184566199721" lon="15.58193815041689"><ele>143.66666666666666</ele><time>2026-05-05T07:31:09Z</time></trkpt><trkpt lat="45.89184828135532" lon="15.581686280325936"><ele>144.0</ele><time>2026-05-05T07:31:10Z</time></trkpt><trkpt lat="45.8918534575445" lon="15.581439284773312"><ele>144.0</ele><time>2026-05-05T07:31:11Z</time></trkpt><trkpt lat="45.89185888344819" lon="15.581193758954251"><ele>144.0</ele><time>2026-05-05T07:31:12Z</time></trkpt><trkpt lat="45.89185820678904" lon="15.580954551393189"><ele>144.0</ele><time>2026-05-05T07:31:13Z</time></trkpt><trkpt lat="45.89185351511754" lon="15.580700111230774"><ele>143.66666666666666</ele><time>2026-05-05T07:31:14Z</time></trkpt><trkpt lat="45.8918465333142" lon="15.58041376065908"><ele>143.33333333333331</ele><time>2026-05-05T07:31:15Z</time></trkpt><trkpt lat="45.891829019080674" lon="15.580100200912025"><ele>143.0</ele><time>2026-05-05T07:31:16Z</time></trkpt><trkpt lat="45.891839420752596" lon="15.57975842603185"><ele>142.5</ele><time>2026-05-05T07:31:17Z</time></trkpt><trkpt lat="45.89183417995909" lon="15.579416547337669"><ele>142.0</ele><time>2026-05-05T07:31:18Z</time></trkpt><trkpt lat="45.89182225301345" lon="15.579112394878832"><ele>142.0</ele><time>2026-05-05T07:31:19Z</time></trkpt><trkpt lat="45.89182386796196" lon="15.578838921089453"><ele>142.0</ele><time>2026-05-05T07:31:20Z</time></trkpt><trkpt lat="45.8918210702263" lon="15.578580801667245"><ele>142.0</ele><time>2026-05-05T07:31:21Z</time></trkpt><trkpt lat="45.89181813433396" lon="15.578332320420461"><ele>142.0</ele><time>2026-05-05T07:31:22Z</time></trkpt><trkpt lat="45.89181408012167" lon="15.57805786965751"><ele>142.0</ele><time>2026-05-05T07:31:23Z</time></trkpt><trkpt lat="45.89179438915845" lon="15.577747642280203"><ele>142.0</ele><time>2026-05-05T07:31:24Z</time></trkpt><trkpt lat="45.891803494718026" lon="15.577405263173796"><ele>142.5</ele><time>2026-05-05T07:31:25Z</time></trkpt><trkpt lat="45.89179808959718" lon="15.577051416932285"><ele>143.0</ele><time>2026-05-05T07:31:26Z</time></trkpt><trkpt lat="45.8917790566066" lon="15.576707550907138"><ele>143.33333333333331</ele><time>2026-05-05T07:31:27Z</time></trkpt><trkpt lat="45.891779256987185" lon="15.576388470887048"><ele>143.66666666666666</ele><time>2026-05-05T07:31:28Z</time></trkpt><trkpt lat="45.89177316502237" lon="15.576085419844926"><ele>144.0</ele><time>2026-05-05T07:31:29Z</time></trkpt><trkpt lat="45.89176436537453" lon="15.575807888863887"><ele>146.33333333333334</ele><time>2026-05-05T07:31:30Z</time></trkpt><trkpt lat="45.89175520443488" lon="15.57555124873137"><ele>148.66666666666669</ele><time>2026-05-05T07:31:31Z</time></trkpt><trkpt lat="45.891745014507464" lon="15.57530831095759"><ele>151.0</ele><time>2026-05-05T07:31:32Z</time></trkpt><trkpt lat="45.89173671247314" lon="15.575072112197224"><ele>150.33333333333334</ele><time>2026-05-05T07:31:33Z</time></trkpt><trkpt lat="45.89172679327188" lon="15.57483948025718"><ele>149.66666666666666</ele><time>2026-05-05T07:31:34Z</time></trkpt><trkpt lat="45.89171474517309" lon="15.574600709732076"><ele>149.0</ele><time>2026-05-05T07:31:35Z</time></trkpt><trkpt lat="45.8917039250227" lon="15.574366700517077"><ele>149.0</ele><time>2026-05-05T07:31:36Z</time></trkpt><trkpt lat="45.8916925687245" lon="15.574133728703243"><ele>149.0</ele><time>2026-05-05T07:31:37Z</time></trkpt><trkpt lat="45.891676952125486" lon="15.573903950140318"><ele>149.0</ele><time>2026-05-05T07:31:38Z</time></trkpt><trkpt lat="45.89165674177085" lon="15.573672990369165"><ele>147.0</ele><time>2026-05-05T07:31:39Z</time></trkpt><trkpt lat="45.89163581839298" lon="15.573437251945236"><ele>145.0</ele><time>2026-05-05T07:31:40Z</time></trkpt><trkpt lat="45.891620418400876" lon="15.573205823457865"><ele>143.0</ele><time>2026-05-05T07:31:41Z</time></trkpt><trkpt lat="45.89160386398191" lon="15.573002471097976"><ele>143.0</ele><time>2026-05-05T07:31:42Z</time></trkpt><trkpt lat="45.89158540043505" lon="15.572816099230883"><ele>143.0</ele><time>2026-05-05T07:31:43Z</time></trkpt><trkpt lat="45.89156925191645" lon="15.572634519569911"><ele>143.0</ele><time>2026-05-05T07:31:44Z</time></trkpt><trkpt lat="45.89155537479114" lon="15.572459320435367"><ele>143.0</ele><time>2026-05-05T07:31:45Z</time></trkpt><trkpt lat="45.891543604335446" lon="15.572280424023557"><ele>143.0</ele><time>2026-05-05T07:31:46Z</time></trkpt><trkpt lat="45.89152447574016" lon="15.572102234518173"><ele>143.0</ele><time>2026-05-05T07:31:47Z</time></trkpt><trkpt lat="45.89150778029044" lon="15.57192134082426"><ele>143.0</ele><time>2026-05-05T07:31:48Z</time></trkpt><trkpt lat="45.89149270763293" lon="15.571744486224382"><ele>143.0</ele><time>2026-05-05T07:31:49Z</time></trkpt><trkpt lat="45.891471753188725" lon="15.57156461739646"><ele>143.5</ele><time>2026-05-05T07:31:50Z</time></trkpt><trkpt lat="45.89145021475692" lon="15.571383040551792"><ele>144.0</ele><time>2026-05-05T07:31:51Z</time></trkpt><trkpt lat="45.891430758276044" lon="15.571206534227588"><ele>144.5</ele><time>2026-05-05T07:31:52Z</time></trkpt><trkpt lat="45.891410141835976" lon="15.57103928632559"><ele>145.0</ele><time>2026-05-05T07:31:53Z</time></trkpt><trkpt lat="45.891416608164654" lon="15.570849788732342"><ele>145.6</ele><time>2026-05-05T07:31:54Z</time></trkpt><trkpt lat="45.89138293991688" lon="15.570721707565369"><ele>146.2</ele><time>2026-05-05T07:31:55Z</time></trkpt><trkpt lat="45.891360173727826" lon="15.570569440555342"><ele>146.8</ele><time>2026-05-05T07:31:56Z</time></trkpt><trkpt lat="45.89133983152221" lon="15.570407160776805"><ele>147.4</ele><time>2026-05-05T07:31:57Z</time></trkpt><trkpt lat="45.891322910659326" lon="15.57023751218041"><ele>148.0</ele><time>2026-05-05T07:31:58Z</time></trkpt><trkpt lat="45.891299945894154" lon="15.570065654620684"><ele>148.0</ele><time>2026-05-05T07:31:59Z</time></trkpt><trkpt lat="45.8912755992391" lon="15.569884897144897"><ele>148.0</ele><time>2026-05-05T07:32:00Z</time></trkpt><trkpt lat="45.89124799963004" lon="15.56969880356437"><ele>148.0</ele><time>2026-05-05T07:32:01Z</time></trkpt><trkpt lat="45.89122127084568" lon="15.569517413252257"><ele>148.0</ele><time>2026-05-05T07:32:02Z</time></trkpt><trkpt lat="45.89119820238962" lon="15.5693414310486"><ele>148.0</ele><time>2026-05-05T07:32:03Z</time></trkpt><trkpt lat="45.89117652899451" lon="15.56917754827624"><ele>148.0</ele><time>2026-05-05T07:32:04Z</time></trkpt><trkpt lat="45.89115471575937" lon="15.569024653596465"><ele>148.0</ele><time>2026-05-05T07:32:05Z</time></trkpt><trkpt lat="45.891133908334204" lon="15.568872413636566"><ele>148.0</ele><time>2026-05-05T07:32:06Z</time></trkpt><trkpt lat="45.891110486518244" lon="15.56872500705825"><ele>148.0</ele><time>2026-05-05T07:32:07Z</time></trkpt><trkpt lat="45.89109021288953" lon="15.568583287951121"><ele>148.25</ele><time>2026-05-05T07:32:08Z</time></trkpt><trkpt lat="45.891070973842844" lon="15.568433037493696"><ele>148.5</ele><time>2026-05-05T07:32:09Z</time></trkpt><trkpt lat="45.89104988626513" lon="15.568269419035193"><ele>148.75</ele><time>2026-05-05T07:32:10Z</time></trkpt><trkpt lat="45.89102500292051" lon="15.568099151243919"><ele>149.0</ele><time>2026-05-05T07:32:11Z</time></trkpt><trkpt lat="45.89099971298077" lon="15.567931126862748"><ele>149.5</ele><time>2026-05-05T07:32:12Z</time></trkpt><trkpt lat="45.890976409864244" lon="15.567762687854657"><ele>150.0</ele><time>2026-05-05T07:32:13Z</time></trkpt><trkpt lat="45.890950290131435" lon="15.567591744532889"><ele>150.5</ele><time>2026-05-05T07:32:14Z</time></trkpt><trkpt lat="45.8909223955873" lon="15.567413784715615"><ele>151.0</ele><time>2026-05-05T07:32:15Z</time></trkpt><trkpt lat="45.890894619232505" lon="15.567222173417587"><ele>150.66666666666669</ele><time>2026-05-05T07:32:16Z</time></trkpt><trkpt lat="45.890863291272126" lon="15.567010254714122"><ele>150.33333333333334</ele><time>2026-05-05T07:32:17Z</time></trkpt><trkpt lat="45.89082902814608" lon="15.566778980327605"><ele>150.0</ele><time>2026-05-05T07:32:18Z</time></trkpt><trkpt lat="45.89080088320526" lon="15.566526821359265"><ele>150.0</ele><time>2026-05-05T07:32:19Z</time></trkpt><trkpt lat="45.89076793509113" lon="15.566306258414725"><ele>150.0</ele><time>2026-05-05T07:32:20Z</time></trkpt><trkpt lat="45.89073870711418" lon="15.566108379351862"><ele>150.0</ele><time>2026-05-05T07:32:21Z</time></trkpt><trkpt lat="45.89071330876637" lon="15.565916262060185"><ele>150.0</ele><time>2026-05-05T07:32:22Z</time></trkpt><trkpt lat="45.89068515914739" lon="15.565714409583391"><ele>150.0</ele><time>2026-05-05T07:32:23Z</time></trkpt><trkpt lat="45.890657725286985" lon="15.565509542848728"><ele>150.0</ele><time>2026-05-05T07:32:24Z</time></trkpt><trkpt lat="45.89062627334293" lon="15.56529672285813"><ele>150.0</ele><time>2026-05-05T07:32:25Z</time></trkpt><trkpt lat="45.89059228141198" lon="15.56506875056651"><ele>149.66666666666666</ele><time>2026-05-05T07:32:26Z</time></trkpt><trkpt lat="45.89056264943368" lon="15.56484404098778"><ele>149.33333333333331</ele><time>2026-05-05T07:32:27Z</time></trkpt><trkpt lat="45.89052945888076" lon="15.564612057075179"><ele>149.0</ele><time>2026-05-05T07:32:28Z</time></trkpt><trkpt lat="45.89049652992426" lon="15.56437482756123"><ele>149.0</ele><time>2026-05-05T07:32:29Z</time></trkpt><trkpt lat="45.89046569323902" lon="15.564124593439749"><ele>149.0</ele><time>2026-05-05T07:32:30Z</time></trkpt><trkpt lat="45.89042735536064" lon="15.563865852243872"><ele>149.0</ele><time>2026-05-05T07:32:31Z</time></trkpt><trkpt lat="45.890391257364925" lon="15.56360983960196"><ele>149.0</ele><time>2026-05-05T07:32:32Z</time></trkpt><trkpt lat="45.89035909428894" lon="15.563360304956268"><ele>149.0</ele><time>2026-05-05T07:32:33Z</time></trkpt><trkpt lat="45.890321605942866" lon="15.56310370084261"><ele>149.0</ele><time>2026-05-05T07:32:34Z</time></trkpt><trkpt lat="45.8902845977354" lon="15.562842481251305"><ele>148.66666666666666</ele><time>2026-05-05T07:32:35Z</time></trkpt><trkpt lat="45.890249533165196" lon="15.562585882171106"><ele>148.33333333333334</ele><time>2026-05-05T07:32:36Z</time></trkpt><trkpt lat="45.89021496742695" lon="15.562323965501864"><ele>148.0</ele><time>2026-05-05T07:32:37Z</time></trkpt><trkpt lat="45.890175856907774" lon="15.56205607276698"><ele>148.0</ele><time>2026-05-05T07:32:38Z</time></trkpt><trkpt lat="45.89013893084155" lon="15.561787917165775"><ele>148.0</ele><time>2026-05-05T07:32:39Z</time></trkpt><trkpt lat="45.890100283668865" lon="15.561514313200155"><ele>148.0</ele><time>2026-05-05T07:32:40Z</time></trkpt><trkpt lat="45.8900619750778" lon="15.561246937898588"><ele>148.33333333333334</ele><time>2026-05-05T07:32:41Z</time></trkpt><trkpt lat="45.89002379254027" lon="15.560973862263108"><ele>148.66666666666666</ele><time>2026-05-05T07:32:42Z</time></trkpt><trkpt lat="45.88998585720612" lon="15.56069626027462"><ele>149.0</ele><time>2026-05-05T07:32:43Z</time></trkpt><trkpt lat="45.88994681777972" lon="15.56041758089346"><ele>149.0</ele><time>2026-05-05T07:32:44Z</time></trkpt><trkpt lat="45.88990648364897" lon="15.56013459362712"><ele>149.0</ele><time>2026-05-05T07:32:45Z</time></trkpt><trkpt lat="45.88986477578927" lon="15.559853177507815"><ele>149.0</ele><time>2026-05-05T07:32:46Z</time></trkpt><trkpt lat="45.889824856273215" lon="15.559562306055122"><ele>149.33333333333331</ele><time>2026-05-05T07:32:47Z</time></trkpt><trkpt lat="45.88978369222574" lon="15.559272004546553"><ele>149.66666666666666</ele><time>2026-05-05T07:32:48Z</time></trkpt><trkpt lat="45.88974797043059" lon="15.558968698066868"><ele>150.0</ele><time>2026-05-05T07:32:49Z</time></trkpt><trkpt lat="45.8897115670657" lon="15.558677667221376"><ele>150.0</ele><time>2026-05-05T07:32:50Z</time></trkpt><trkpt lat="45.88967361048461" lon="15.55837924330655"><ele>150.0</ele><time>2026-05-05T07:32:51Z</time></trkpt><trkpt lat="45.88963578662441" lon="15.558082129617448"><ele>150.0</ele><time>2026-05-05T07:32:52Z</time></trkpt><trkpt lat="45.88959344570451" lon="15.55779016917518"><ele>149.33333333333334</ele><time>2026-05-05T07:32:53Z</time></trkpt><trkpt lat="45.889549772357995" lon="15.55749959340978"><ele>148.66666666666669</ele><time>2026-05-05T07:32:54Z</time></trkpt><trkpt lat="45.88950826506767" lon="15.55721715002534"><ele>148.0</ele><time>2026-05-05T07:32:55Z</time></trkpt><trkpt lat="45.88946690377643" lon="15.556940384055482"><ele>148.0</ele><time>2026-05-05T07:32:56Z</time></trkpt><trkpt lat="45.889423448892764" lon="15.55665471357137"><ele>148.0</ele><time>2026-05-05T07:32:57Z</time></trkpt><trkpt lat="45.889385090670544" lon="15.55638089639297"><ele>148.0</ele><time>2026-05-05T07:32:58Z</time></trkpt><trkpt lat="45.88934664828102" lon="15.556108786773157"><ele>148.0</ele><time>2026-05-05T07:32:59Z</time></trkpt><trkpt lat="45.88930983314302" lon="15.555836388866497"><ele>148.0</ele><time>2026-05-05T07:33:00Z</time></trkpt><trkpt lat="45.889270655859235" lon="15.555564788754369"><ele>148.0</ele><time>2026-05-05T07:33:01Z</time></trkpt><trkpt lat="45.88922880511473" lon="15.555289874445828"><ele>149.0</ele><time>2026-05-05T07:33:02Z</time></trkpt><trkpt lat="45.889188274500896" lon="15.555016350757018"><ele>150.0</ele><time>2026-05-05T07:33:03Z</time></trkpt><trkpt lat="45.88914968555255" lon="15.5547412045594"><ele>151.0</ele><time>2026-05-05T07:33:04Z</time></trkpt><trkpt lat="45.88910918323572" lon="15.554463890213233"><ele>151.0</ele><time>2026-05-05T07:33:05Z</time></trkpt><trkpt lat="45.889067980581764" lon="15.554185855560117"><ele>151.0</ele><time>2026-05-05T07:33:06Z</time></trkpt><trkpt lat="45.88902649140848" lon="15.5539016359286"><ele>151.0</ele><time>2026-05-05T07:33:07Z</time></trkpt><trkpt lat="45.88898864270474" lon="15.553611492050297"><ele>150.66666666666669</ele><time>2026-05-05T07:33:08Z</time></trkpt><trkpt lat="45.88894845274687" lon="15.553327946922831"><ele>150.33333333333334</ele><time>2026-05-05T07:33:09Z</time></trkpt><trkpt lat="45.888908422630536" lon="15.55304064841745"><ele>150.0</ele><time>2026-05-05T07:33:10Z</time></trkpt><trkpt lat="45.88886656706837" lon="15.552747661154143"><ele>150.0</ele><time>2026-05-05T07:33:11Z</time></trkpt><trkpt lat="45.88882888608796" lon="15.552460799994671"><ele>150.0</ele><time>2026-05-05T07:33:12Z</time></trkpt><trkpt lat="45.888789768340104" lon="15.552167412101282"><ele>150.0</ele><time>2026-05-05T07:33:13Z</time></trkpt><trkpt lat="45.88874935904892" lon="15.551873681838096"><ele>149.66666666666666</ele><time>2026-05-05T07:33:14Z</time></trkpt><trkpt lat="45.88870717592381" lon="15.551577775000071"><ele>149.33333333333331</ele><time>2026-05-05T07:33:15Z</time></trkpt><trkpt lat="45.888666794704335" lon="15.551288864838236"><ele>149.0</ele><time>2026-05-05T07:33:16Z</time></trkpt><trkpt lat="45.88862458894657" lon="15.550999472132833"><ele>149.0</ele><time>2026-05-05T07:33:17Z</time></trkpt><trkpt lat="45.88858157639402" lon="15.55070894952831"><ele>149.0</ele><time>2026-05-05T07:33:18Z</time></trkpt><trkpt lat="45.88854062365374" lon="15.550423817501077"><ele>149.0</ele><time>2026-05-05T07:33:19Z</time></trkpt><trkpt lat="45.88850331120018" lon="15.550144265389248"><ele>149.0</ele><time>2026-05-05T07:33:20Z</time></trkpt><trkpt lat="45.888465106443725" lon="15.54985923018217"><ele>149.0</ele><time>2026-05-05T07:33:21Z</time></trkpt><trkpt lat="45.88842738870631" lon="15.549574217590767"><ele>149.0</ele><time>2026-05-05T07:33:22Z</time></trkpt><trkpt lat="45.888387259887885" lon="15.549287953307859"><ele>149.0</ele><time>2026-05-05T07:33:23Z</time></trkpt><trkpt lat="45.88834817610574" lon="15.548999692448927"><ele>149.0</ele><time>2026-05-05T07:33:24Z</time></trkpt><trkpt lat="45.88830827505624" lon="15.548715064957154"><ele>149.0</ele><time>2026-05-05T07:33:25Z</time></trkpt><trkpt lat="45.88826831425173" lon="15.548433690523407"><ele>149.33333333333331</ele><time>2026-05-05T07:33:26Z</time></trkpt><trkpt lat="45.8882290143861" lon="15.54815412879826"><ele>149.66666666666666</ele><time>2026-05-05T07:33:27Z</time></trkpt><trkpt lat="45.8881917184876" lon="15.547879910745307"><ele>150.0</ele><time>2026-05-05T07:33:28Z</time></trkpt><trkpt lat="45.88815391998949" lon="15.547603184039664"><ele>150.0</ele><time>2026-05-05T07:33:29Z</time></trkpt><trkpt lat="45.88811721767282" lon="15.54733019575715"><ele>150.0</ele><time>2026-05-05T07:33:30Z</time></trkpt><trkpt lat="45.888079614066285" lon="15.547054334290369"><ele>150.0</ele><time>2026-05-05T07:33:31Z</time></trkpt><trkpt lat="45.888040681304474" lon="15.54677423494734"><ele>150.0</ele><time>2026-05-05T07:33:32Z</time></trkpt><trkpt lat="45.8880021524767" lon="15.546497211087571"><ele>150.0</ele><time>2026-05-05T07:33:33Z</time></trkpt><trkpt lat="45.88796349294277" lon="15.546223703677592"><ele>150.0</ele><time>2026-05-05T07:33:34Z</time></trkpt><trkpt lat="45.8879258820274" lon="15.545950277615281"><ele>150.0</ele><time>2026-05-05T07:33:35Z</time></trkpt><trkpt lat="45.88788707191958" lon="15.545674903184597"><ele>150.0</ele><time>2026-05-05T07:33:36Z</time></trkpt><trkpt lat="45.887849918571966" lon="15.545404812333192"><ele>150.0</ele><time>2026-05-05T07:33:37Z</time></trkpt><trkpt lat="45.887812454484184" lon="15.545128510057829"><ele>150.0</ele><time>2026-05-05T07:33:38Z</time></trkpt><trkpt lat="45.88777579436202" lon="15.5448543102011"><ele>150.0</ele><time>2026-05-05T07:33:39Z</time></trkpt><trkpt lat="45.8877340909448" lon="15.544577817678082"><ele>150.0</ele><time>2026-05-05T07:33:40Z</time></trkpt><trkpt lat="45.88769334514904" lon="15.544305909489047"><ele>150.33333333333334</ele><time>2026-05-05T07:33:41Z</time></trkpt><trkpt lat="45.88765121202439" lon="15.544025291943562"><ele>150.66666666666669</ele><time>2026-05-05T07:33:42Z</time></trkpt><trkpt lat="45.887611378398994" lon="15.543739857849147"><ele>151.0</ele><time>2026-05-05T07:33:43Z</time></trkpt><trkpt lat="45.88757252445271" lon="15.543450492338765"><ele>151.0</ele><time>2026-05-05T07:33:44Z</time></trkpt><trkpt lat="45.887534032806315" lon="15.543162876310115"><ele>151.0</ele><time>2026-05-05T07:33:45Z</time></trkpt><trkpt lat="45.88749274745521" lon="15.542878300752916"><ele>151.0</ele><time>2026-05-05T07:33:46Z</time></trkpt><trkpt lat="45.88745141557004" lon="15.542594259579495"><ele>151.0</ele><time>2026-05-05T07:33:47Z</time></trkpt><trkpt lat="45.88741201141145" lon="15.542313813327196"><ele>151.0</ele><time>2026-05-05T07:33:48Z</time></trkpt><trkpt lat="45.887369593529165" lon="15.542019859358337"><ele>151.0</ele><time>2026-05-05T07:33:49Z</time></trkpt><trkpt lat="45.88733019014222" lon="15.541715159096215"><ele>151.0</ele><time>2026-05-05T07:33:50Z</time></trkpt><trkpt lat="45.88729115903071" lon="15.541410427835165"><ele>151.0</ele><time>2026-05-05T07:33:51Z</time></trkpt><trkpt lat="45.88724984273503" lon="15.54110558421788"><ele>151.0</ele><time>2026-05-05T07:33:52Z</time></trkpt><trkpt lat="45.887207394945015" lon="15.540803167658979"><ele>151.0</ele><time>2026-05-05T07:33:53Z</time></trkpt><trkpt lat="45.887163752449695" lon="15.540501140906043"><ele>151.0</ele><time>2026-05-05T07:33:54Z</time></trkpt><trkpt lat="45.8871210845993" lon="15.540199807579068"><ele>151.0</ele><time>2026-05-05T07:33:55Z</time></trkpt><trkpt lat="45.8870788971028" lon="15.539905067603794"><ele>150.66666666666669</ele><time>2026-05-05T07:33:56Z</time></trkpt><trkpt lat="45.88703552383998" lon="15.539606645077408"><ele>150.33333333333334</ele><time>2026-05-05T07:33:57Z</time></trkpt><trkpt lat="45.8869933947391" lon="15.53930587615452"><ele>150.0</ele><time>2026-05-05T07:33:58Z</time></trkpt><trkpt lat="45.88695047669499" lon="15.539004561793751"><ele>150.0</ele><time>2026-05-05T07:33:59Z</time></trkpt><trkpt lat="45.8869074707417" lon="15.538702917524104"><ele>150.0</ele><time>2026-05-05T07:34:00Z</time></trkpt><trkpt lat="45.886863988652266" lon="15.538399662998692"><ele>150.0</ele><time>2026-05-05T07:34:01Z</time></trkpt><trkpt lat="45.886822403811074" lon="15.538099157433958"><ele>150.0</ele><time>2026-05-05T07:34:02Z</time></trkpt><trkpt lat="45.88678130199328" lon="15.537795770841862"><ele>150.0</ele><time>2026-05-05T07:34:03Z</time></trkpt><trkpt lat="45.886740678640315" lon="15.537488743526891"><ele>150.0</ele><time>2026-05-05T07:34:04Z</time></trkpt><trkpt lat="45.88669862986635" lon="15.53718332138592"><ele>150.33333333333334</ele><time>2026-05-05T07:34:05Z</time></trkpt><trkpt lat="45.886655930402995" lon="15.536878361151663"><ele>150.66666666666669</ele><time>2026-05-05T07:34:06Z</time></trkpt><trkpt lat="45.88660984836466" lon="15.536574558156017"><ele>151.0</ele><time>2026-05-05T07:34:07Z</time></trkpt><trkpt lat="45.88656609873203" lon="15.536269069787444"><ele>151.0</ele><time>2026-05-05T07:34:08Z</time></trkpt><trkpt lat="45.886523794640645" lon="15.53596219046727"><ele>151.0</ele><time>2026-05-05T07:34:09Z</time></trkpt><trkpt lat="45.886481715636194" lon="15.535657031116015"><ele>151.0</ele><time>2026-05-05T07:34:10Z</time></trkpt><trkpt lat="45.886439140256215" lon="15.53535338871703"><ele>151.0</ele><time>2026-05-05T07:34:11Z</time></trkpt><trkpt lat="45.88639877440093" lon="15.535049609938655"><ele>151.0</ele><time>2026-05-05T07:34:12Z</time></trkpt><trkpt lat="45.886358754218925" lon="15.534747506548833"><ele>151.0</ele><time>2026-05-05T07:34:13Z</time></trkpt><trkpt lat="45.88631494835243" lon="15.534442530450246"><ele>151.0</ele><time>2026-05-05T07:34:14Z</time></trkpt><trkpt lat="45.88627113513993" lon="15.534142586353287"><ele>151.0</ele><time>2026-05-05T07:34:15Z</time></trkpt><trkpt lat="45.88622940901358" lon="15.533840410683615"><ele>151.0</ele><time>2026-05-05T07:34:16Z</time></trkpt><trkpt lat="45.886186490111" lon="15.533535924039487"><ele>151.0</ele><time>2026-05-05T07:34:17Z</time></trkpt><trkpt lat="45.88614379638207" lon="15.533232307627095"><ele>151.0</ele><time>2026-05-05T07:34:18Z</time></trkpt><trkpt lat="45.886101282619656" lon="15.532927600544857"><ele>151.0</ele><time>2026-05-05T07:34:19Z</time></trkpt><trkpt lat="45.88606159584075" lon="15.532627366217017"><ele>151.0</ele><time>2026-05-05T07:34:20Z</time></trkpt><trkpt lat="45.88601895870731" lon="15.532321309459592"><ele>151.0</ele><time>2026-05-05T07:34:21Z</time></trkpt><trkpt lat="45.88597641042861" lon="15.532015246568434"><ele>151.0</ele><time>2026-05-05T07:34:22Z</time></trkpt><trkpt lat="45.885937050929336" lon="15.531706935639273"><ele>151.0</ele><time>2026-05-05T07:34:23Z</time></trkpt><trkpt lat="45.88589945767597" lon="15.53140802360734"><ele>151.0</ele><time>2026-05-05T07:34:24Z</time></trkpt><trkpt lat="45.88585954141964" lon="15.531102132242392"><ele>151.0</ele><time>2026-05-05T07:34:25Z</time></trkpt><trkpt lat="45.885816627434004" lon="15.530800884850839"><ele>151.0</ele><time>2026-05-05T07:34:26Z</time></trkpt><trkpt lat="45.88577015402416" lon="15.530499978120796"><ele>151.0</ele><time>2026-05-05T07:34:27Z</time></trkpt><trkpt lat="45.88572204878159" lon="15.53020048533358"><ele>151.0</ele><time>2026-05-05T07:34:28Z</time></trkpt><trkpt lat="45.885679876337576" lon="15.529897339748882"><ele>151.0</ele><time>2026-05-05T07:34:29Z</time></trkpt><trkpt lat="45.88563892770039" lon="15.529592436721583"><ele>151.0</ele><time>2026-05-05T07:34:30Z</time></trkpt><trkpt lat="45.88559888877569" lon="15.529283768243149"><ele>151.0</ele><time>2026-05-05T07:34:31Z</time></trkpt><trkpt lat="45.88555715031677" lon="15.52897646795579"><ele>151.33333333333334</ele><time>2026-05-05T07:34:32Z</time></trkpt><trkpt lat="45.88551990134656" lon="15.528674192308138"><ele>151.66666666666666</ele><time>2026-05-05T07:34:33Z</time></trkpt><trkpt lat="45.885480357433075" lon="15.52837084470337"><ele>152.0</ele><time>2026-05-05T07:34:34Z</time></trkpt><trkpt lat="45.88543840605478" lon="15.528068815367213"><ele>151.66666666666666</ele><time>2026-05-05T07:34:35Z</time></trkpt><trkpt lat="45.885399661756175" lon="15.527767720182268"><ele>151.33333333333334</ele><time>2026-05-05T07:34:36Z</time></trkpt><trkpt lat="45.88535734182151" lon="15.527466064090298"><ele>151.0</ele><time>2026-05-05T07:34:37Z</time></trkpt><trkpt lat="45.885314139568536" lon="15.527169209095723"><ele>151.33333333333334</ele><time>2026-05-05T07:34:38Z</time></trkpt><trkpt lat="45.885269547615756" lon="15.526875237402871"><ele>151.66666666666666</ele><time>2026-05-05T07:34:39Z</time></trkpt><trkpt lat="45.8852270594974" lon="15.526578194548216"><ele>152.0</ele><time>2026-05-05T07:34:40Z</time></trkpt><trkpt lat="45.885187030669094" lon="15.52627940853615"><ele>152.0</ele><time>2026-05-05T07:34:41Z</time></trkpt><trkpt lat="45.885151473923166" lon="15.52597783861811"><ele>152.0</ele><time>2026-05-05T07:34:42Z</time></trkpt><trkpt lat="45.885111765562776" lon="15.525668747312519"><ele>152.0</ele><time>2026-05-05T07:34:43Z</time></trkpt><trkpt lat="45.885067298749696" lon="15.52535721318226"><ele>152.66666666666666</ele><time>2026-05-05T07:34:44Z</time></trkpt><trkpt lat="45.885025698568604" lon="15.525062989795098"><ele>153.33333333333334</ele><time>2026-05-05T07:34:45Z</time></trkpt><trkpt lat="45.884988730769756" lon="15.52479464811387"><ele>154.0</ele><time>2026-05-05T07:34:46Z</time></trkpt><trkpt lat="45.88495117138998" lon="15.524547799790467"><ele>154.0</ele><time>2026-05-05T07:34:47Z</time></trkpt><trkpt lat="45.8849213175236" lon="15.52432697036104"><ele>154.0</ele><time>2026-05-05T07:34:48Z</time></trkpt><trkpt lat="45.884892142180696" lon="15.52412940236533"><ele>154.0</ele><time>2026-05-05T07:34:49Z</time></trkpt><trkpt lat="45.88486629772269" lon="15.523938802657861"><ele>154.0</ele><time>2026-05-05T07:34:50Z</time></trkpt><trkpt lat="45.88484230389038" lon="15.523770720557037"><ele>154.0</ele><time>2026-05-05T07:34:51Z</time></trkpt><trkpt lat="45.88481865534034" lon="15.52361137293611"><ele>154.0</ele><time>2026-05-05T07:34:52Z</time></trkpt><trkpt lat="45.8847994466827" lon="15.523468972497177"><ele>154.0</ele><time>2026-05-05T07:34:53Z</time></trkpt><trkpt lat="45.884780738882355" lon="15.52333786377707"><ele>154.0</ele><time>2026-05-05T07:34:54Z</time></trkpt><trkpt lat="45.88476256152116" lon="15.523208417532546"><ele>154.0</ele><time>2026-05-05T07:34:55Z</time></trkpt><trkpt lat="45.8847462216759" lon="15.523074146610206"><ele>154.0</ele><time>2026-05-05T07:34:56Z</time></trkpt><trkpt lat="45.8847296568239" lon="15.52293902180429"><ele>154.0</ele><time>2026-05-05T07:34:57Z</time></trkpt><trkpt lat="45.884710415254325" lon="15.522799680076863"><ele>154.0</ele><time>2026-05-05T07:34:58Z</time></trkpt><trkpt lat="45.88469371034681" lon="15.522662278495961"><ele>154.0</ele><time>2026-05-05T07:34:59Z</time></trkpt><trkpt lat="45.884675581138154" lon="15.522527239902182"><ele>154.0</ele><time>2026-05-05T07:35:00Z</time></trkpt><trkpt lat="45.88465691116625" lon="15.522395434757293"><ele>154.2</ele><time>2026-05-05T07:35:01Z</time></trkpt><trkpt lat="45.88463875527999" lon="15.522265753926916"><ele>154.4</ele><time>2026-05-05T07:35:02Z</time></trkpt><trkpt lat="45.884620310787646" lon="15.522132441006276"><ele>154.6</ele><time>2026-05-05T07:35:03Z</time></trkpt><trkpt lat="45.88460227394999" lon="15.521995055697754"><ele>154.8</ele><time>2026-05-05T07:35:04Z</time></trkpt><trkpt lat="45.88457862910788" lon="15.521853984120169"><ele>155.0</ele><time>2026-05-05T07:35:05Z</time></trkpt><trkpt lat="45.884556188073546" lon="15.521699305639551"><ele>155.0</ele><time>2026-05-05T07:35:06Z</time></trkpt><trkpt lat="45.884534198739246" lon="15.521535012087059"><ele>155.0</ele><time>2026-05-05T07:35:07Z</time></trkpt><trkpt lat="45.88451182151827" lon="15.52136435387928"><ele>155.0</ele><time>2026-05-05T07:35:08Z</time></trkpt><trkpt lat="45.88448383742782" lon="15.52119189954177"><ele>155.0</ele><time>2026-05-05T07:35:09Z</time></trkpt><trkpt lat="45.88445667471777" lon="15.521015205913436"><ele>155.0</ele><time>2026-05-05T07:35:10Z</time></trkpt><trkpt lat="45.884429852927234" lon="15.520833047952294"><ele>155.0</ele><time>2026-05-05T07:35:11Z</time></trkpt><trkpt lat="45.884404781266944" lon="15.520648564439478"><ele>155.0</ele><time>2026-05-05T07:35:12Z</time></trkpt><trkpt lat="45.88437776769303" lon="15.520450768977058"><ele>155.0</ele><time>2026-05-05T07:35:13Z</time></trkpt><trkpt lat="45.88434913471406" lon="15.520243571216243"><ele>155.33333333333331</ele><time>2026-05-05T07:35:14Z</time></trkpt><trkpt lat="45.88431819628259" lon="15.520027755987499"><ele>155.66666666666666</ele><time>2026-05-05T07:35:15Z</time></trkpt><trkpt lat="45.88428546335456" lon="15.519802811265311"><ele>156.0</ele><time>2026-05-05T07:35:16Z</time></trkpt><trkpt lat="45.88425068462087" lon="15.519568465299399"><ele>155.0</ele><time>2026-05-05T07:35:17Z</time></trkpt><trkpt lat="45.88421575531212" lon="15.519329126426795"><ele>154.0</ele><time>2026-05-05T07:35:18Z</time></trkpt><trkpt lat="45.88417706693143" lon="15.519077053081013"><ele>153.0</ele><time>2026-05-05T07:35:19Z</time></trkpt><trkpt lat="45.88413994077671" lon="15.518830067891871"><ele>153.0</ele><time>2026-05-05T07:35:20Z</time></trkpt><trkpt lat="45.88410478630892" lon="15.518580316131716"><ele>153.0</ele><time>2026-05-05T07:35:21Z</time></trkpt><trkpt lat="45.88406992158213" lon="15.518319420831586"><ele>153.0</ele><time>2026-05-05T07:35:22Z</time></trkpt><trkpt lat="45.88403418789999" lon="15.518056971576241"><ele>152.33333333333334</ele><time>2026-05-05T07:35:23Z</time></trkpt><trkpt lat="45.88399941938205" lon="15.517790175993296"><ele>151.66666666666669</ele><time>2026-05-05T07:35:24Z</time></trkpt><trkpt lat="45.88396427780788" lon="15.517530397060465"><ele>151.0</ele><time>2026-05-05T07:35:25Z</time></trkpt><trkpt lat="45.883929298822316" lon="15.51728999810261"><ele>151.0</ele><time>2026-05-05T07:35:26Z</time></trkpt><trkpt lat="45.88389939824805" lon="15.517056059703265"><ele>151.0</ele><time>2026-05-05T07:35:27Z</time></trkpt><trkpt lat="45.88386847675386" lon="15.516815494179898"><ele>151.0</ele><time>2026-05-05T07:35:28Z</time></trkpt><trkpt lat="45.883834281241825" lon="15.516587942754894"><ele>151.0</ele><time>2026-05-05T07:35:29Z</time></trkpt><trkpt lat="45.88380227187636" lon="15.516363157721814"><ele>151.0</ele><time>2026-05-05T07:35:30Z</time></trkpt><trkpt lat="45.88377380390627" lon="15.516143063376148"><ele>151.0</ele><time>2026-05-05T07:35:31Z</time></trkpt><trkpt lat="45.883746874433506" lon="15.515921738364552"><ele>151.0</ele><time>2026-05-05T07:35:32Z</time></trkpt><trkpt lat="45.88371854171415" lon="15.515698064647902"><ele>151.0</ele><time>2026-05-05T07:35:33Z</time></trkpt><trkpt lat="45.8836886954857" lon="15.515471283662025"><ele>151.0</ele><time>2026-05-05T07:35:34Z</time></trkpt><trkpt lat="45.88364990451975" lon="15.515204217977702"><ele>151.5</ele><time>2026-05-05T07:35:35Z</time></trkpt><trkpt lat="45.88359894846082" lon="15.51487947272046"><ele>152.0</ele><time>2026-05-05T07:35:36Z</time></trkpt><trkpt lat="45.883535817895655" lon="15.514513576636434"><ele>152.5</ele><time>2026-05-05T07:35:37Z</time></trkpt><trkpt lat="45.88349171867035" lon="15.514086478007567"><ele>153.0</ele><time>2026-05-05T07:35:38Z</time></trkpt><trkpt lat="45.88342447796699" lon="15.513607629480376"><ele>153.0</ele><time>2026-05-05T07:35:39Z</time></trkpt><trkpt lat="45.88335550301867" lon="15.513103757021533"><ele>153.0</ele><time>2026-05-05T07:35:40Z</time></trkpt><trkpt lat="45.8832823971223" lon="15.512581754071556"><ele>153.0</ele><time>2026-05-05T07:35:41Z</time></trkpt><trkpt lat="45.883213099917555" lon="15.512089406799166"><ele>153.0</ele><time>2026-05-05T07:35:42Z</time></trkpt><trkpt lat="45.883133724728665" lon="15.511636095085361"><ele>154.0</ele><time>2026-05-05T07:35:43Z</time></trkpt><trkpt lat="45.88307502869691" lon="15.511201253041346"><ele>155.0</ele><time>2026-05-05T07:35:44Z</time></trkpt><trkpt lat="45.88301852615085" lon="15.510790937081577"><ele>155.0</ele><time>2026-05-05T07:35:45Z</time></trkpt><trkpt lat="45.88297734416663" lon="15.51038236856116"><ele>155.0</ele><time>2026-05-05T07:35:46Z</time></trkpt><trkpt lat="45.88292061983115" lon="15.509980467150438"><ele>155.0</ele><time>2026-05-05T07:35:47Z</time></trkpt><trkpt lat="45.88284881065527" lon="15.509585299022827"><ele>155.0</ele><time>2026-05-05T07:35:48Z</time></trkpt><trkpt lat="45.88279423753193" lon="15.509186620118662"><ele>155.5</ele><time>2026-05-05T07:35:49Z</time></trkpt><trkpt lat="45.88274029287246" lon="15.508784758875013"><ele>156.0</ele><time>2026-05-05T07:35:50Z</time></trkpt><trkpt lat="45.88268838465196" lon="15.50838285546798"><ele>156.5</ele><time>2026-05-05T07:35:51Z</time></trkpt><trkpt lat="45.88263622040077" lon="15.50799432564955"><ele>157.0</ele><time>2026-05-05T07:35:52Z</time></trkpt><trkpt lat="45.8825801092488" lon="15.507610468107185"><ele>160.0</ele><time>2026-05-05T07:35:53Z</time></trkpt><trkpt lat="45.882523237444495" lon="15.507212449992295"><ele>163.0</ele><time>2026-05-05T07:35:54Z</time></trkpt><trkpt lat="45.88246783278221" lon="15.506806791454157"><ele>164.0</ele><time>2026-05-05T07:35:55Z</time></trkpt><trkpt lat="45.88241152103156" lon="15.506401872956145"><ele>165.0</ele><time>2026-05-05T07:35:56Z</time></trkpt><trkpt lat="45.88234638873366" lon="15.50597189588676"><ele>165.0</ele><time>2026-05-05T07:35:57Z</time></trkpt><trkpt lat="45.882294252996466" lon="15.505499780846945"><ele>165.0</ele><time>2026-05-05T07:35:58Z</time></trkpt><trkpt lat="45.88222286586617" lon="15.504983465707124"><ele>165.5</ele><time>2026-05-05T07:35:59Z</time></trkpt><trkpt lat="45.882147286746786" lon="15.504433903994054"><ele>166.0</ele><time>2026-05-05T07:36:00Z</time></trkpt><trkpt lat="45.88206736300249" lon="15.503862306860034"><ele>166.5</ele><time>2026-05-05T07:36:01Z</time></trkpt><trkpt lat="45.88198432483116" lon="15.503278875927501"><ele>167.0</ele><time>2026-05-05T07:36:02Z</time></trkpt><trkpt lat="45.88188217414374" lon="15.502689576719888"><ele>168.5</ele><time>2026-05-05T07:36:03Z</time></trkpt><trkpt lat="45.88181011762233" lon="15.50209426800327"><ele>170.0</ele><time>2026-05-05T07:36:04Z</time></trkpt><trkpt lat="45.88173802338555" lon="15.501555990997227"><ele>173.5</ele><time>2026-05-05T07:36:05Z</time></trkpt><trkpt lat="45.88167002626314" lon="15.50106349864575"><ele>177.0</ele><time>2026-05-05T07:36:06Z</time></trkpt><trkpt lat="45.88160946896994" lon="15.500614626603559"><ele>179.0</ele><time>2026-05-05T07:36:07Z</time></trkpt><trkpt lat="45.88155189825205" lon="15.500191602551432"><ele>181.0</ele><time>2026-05-05T07:36:08Z</time></trkpt><trkpt lat="45.88149690160332" lon="15.499801218125615"><ele>184.5</ele><time>2026-05-05T07:36:09Z</time></trkpt><trkpt lat="45.88144692026136" lon="15.4994560978407"><ele>188.0</ele><time>2026-05-05T07:36:10Z</time></trkpt><trkpt lat="45.88140782840157" lon="15.49915837850432"><ele>188.0</ele><time>2026-05-05T07:36:11Z</time></trkpt><trkpt lat="45.88137207137571" lon="15.498890202400668"><ele>188.0</ele><time>2026-05-05T07:36:12Z</time></trkpt><trkpt lat="45.88134272739122" lon="15.498637955268897"><ele>188.0</ele><time>2026-05-05T07:36:13Z</time></trkpt><trkpt lat="45.88132741595828" lon="15.498395573409677"><ele>190.33333333333331</ele><time>2026-05-05T07:36:14Z</time></trkpt><trkpt lat="45.881333546163724" lon="15.498152952835827"><ele>192.66666666666666</ele><time>2026-05-05T07:36:15Z</time></trkpt><trkpt lat="45.88136699888037" lon="15.4979142699391"><ele>195.0</ele><time>2026-05-05T07:36:16Z</time></trkpt><trkpt lat="45.881430526003086" lon="15.497680495136704"><ele>196.0</ele><time>2026-05-05T07:36:17Z</time></trkpt><trkpt lat="45.88152748699138" lon="15.497459435517811"><ele>197.0</ele><time>2026-05-05T07:36:18Z</time></trkpt><trkpt lat="45.881644222705766" lon="15.497258936636854"><ele>198.0</ele><time>2026-05-05T07:36:19Z</time></trkpt><trkpt lat="45.88177554597489" lon="15.497071732140679"><ele>198.0</ele><time>2026-05-05T07:36:20Z</time></trkpt><trkpt lat="45.8819279268457" lon="15.496886011607602"><ele>198.0</ele><time>2026-05-05T07:36:21Z</time></trkpt><trkpt lat="45.88211204658161" lon="15.496724387395371"><ele>198.0</ele><time>2026-05-05T07:36:22Z</time></trkpt><trkpt lat="45.88231937653059" lon="15.496609957899087"><ele>198.0</ele><time>2026-05-05T07:36:23Z</time></trkpt><trkpt lat="45.88253596579708" lon="15.496506955976267"><ele>198.0</ele><time>2026-05-05T07:36:24Z</time></trkpt><trkpt lat="45.88277330180903" lon="15.496409286862622"><ele>198.0</ele><time>2026-05-05T07:36:25Z</time></trkpt><trkpt lat="45.883028642907085" lon="15.496302298829411"><ele>198.0</ele><time>2026-05-05T07:36:26Z</time></trkpt><trkpt lat="45.883298482295984" lon="15.496182530831174"><ele>197.0</ele><time>2026-05-05T07:36:27Z</time></trkpt><trkpt lat="45.883573794440025" lon="15.496060566921006"><ele>196.0</ele><time>2026-05-05T07:36:28Z</time></trkpt><trkpt lat="45.88384332097815" lon="15.495946122544332"><ele>196.0</ele><time>2026-05-05T07:36:29Z</time></trkpt><trkpt lat="45.88409836914377" lon="15.495837874211034"><ele>196.0</ele><time>2026-05-05T07:36:30Z</time></trkpt><trkpt lat="45.88433170893483" lon="15.495734466391019"><ele>195.0</ele><time>2026-05-05T07:36:31Z</time></trkpt><trkpt lat="45.88454867052515" lon="15.495627351331265"><ele>194.0</ele><time>2026-05-05T07:36:32Z</time></trkpt><trkpt lat="45.884741777948655" lon="15.495505158423514"><ele>193.0</ele><time>2026-05-05T07:36:33Z</time></trkpt><trkpt lat="45.88491224324689" lon="15.49532894543985"><ele>193.0</ele><time>2026-05-05T07:36:34Z</time></trkpt><trkpt lat="45.88505324870022" lon="15.495085186136093"><ele>193.0</ele><time>2026-05-05T07:36:35Z</time></trkpt><trkpt lat="45.88519101145531" lon="15.49476033392744"><ele>190.5</ele><time>2026-05-05T07:36:36Z</time></trkpt><trkpt lat="45.88534093641027" lon="15.494376759599529"><ele>188.0</ele><time>2026-05-05T07:36:37Z</time></trkpt><trkpt lat="45.885506161176544" lon="15.493973483362781"><ele>189.0</ele><time>2026-05-05T07:36:38Z</time></trkpt><trkpt lat="45.885646123350135" lon="15.493623672676957"><ele>190.0</ele><time>2026-05-05T07:36:39Z</time></trkpt><trkpt lat="45.88577501409274" lon="15.493305736171564"><ele>190.0</ele><time>2026-05-05T07:36:40Z</time></trkpt><trkpt lat="45.88588240319884" lon="15.492989625560005"><ele>190.0</ele><time>2026-05-05T07:36:41Z</time></trkpt><trkpt lat="45.88595182589125" lon="15.492637377478157"><ele>190.0</ele><time>2026-05-05T07:36:42Z</time></trkpt><trkpt lat="45.88598395557436" lon="15.492242088988315"><ele>190.0</ele><time>2026-05-05T07:36:43Z</time></trkpt><trkpt lat="45.88597058567523" lon="15.491802879986837"><ele>189.5</ele><time>2026-05-05T07:36:44Z</time></trkpt><trkpt lat="45.88591790527148" lon="15.491324358174257"><ele>189.0</ele><time>2026-05-05T07:36:45Z</time></trkpt><trkpt lat="45.88583752895977" lon="15.490820732581197"><ele>190.0</ele><time>2026-05-05T07:36:46Z</time></trkpt><trkpt lat="45.88576119479741" lon="15.49028203903683"><ele>191.0</ele><time>2026-05-05T07:36:47Z</time></trkpt><trkpt lat="45.88569030458063" lon="15.489728255113596"><ele>191.0</ele><time>2026-05-05T07:36:48Z</time></trkpt><trkpt lat="45.88562020216439" lon="15.489166499501337"><ele>191.0</ele><time>2026-05-05T07:36:49Z</time></trkpt><trkpt lat="45.88555306489592" lon="15.488599198604195"><ele>191.0</ele><time>2026-05-05T07:36:50Z</time></trkpt><trkpt lat="45.88548797039426" lon="15.488073316296155"><ele>191.0</ele><time>2026-05-05T07:36:51Z</time></trkpt><trkpt lat="45.88542969034835" lon="15.487596259382302"><ele>190.5</ele><time>2026-05-05T07:36:52Z</time></trkpt><trkpt lat="45.8853761549395" lon="15.487164748494763"><ele>190.0</ele><time>2026-05-05T07:36:53Z</time></trkpt><trkpt lat="45.885324870384935" lon="15.486743951695994"><ele>190.0</ele><time>2026-05-05T07:36:54Z</time></trkpt><trkpt lat="45.88527780098542" lon="15.486347854614412"><ele>190.0</ele><time>2026-05-05T07:36:55Z</time></trkpt><trkpt lat="45.88522789273616" lon="15.485969418187375"><ele>189.0</ele><time>2026-05-05T07:36:56Z</time></trkpt><trkpt lat="45.885176832001164" lon="15.485606885160065"><ele>188.0</ele><time>2026-05-05T07:36:57Z</time></trkpt><trkpt lat="45.885088977570305" lon="15.485262356353548"><ele>187.0</ele><time>2026-05-05T07:36:58Z</time></trkpt><trkpt lat="45.8849718689454" lon="15.484931144994835"><ele>186.0</ele><time>2026-05-05T07:36:59Z</time></trkpt><trkpt lat="45.884828045022694" lon="15.48460587756466"><ele>187.0</ele><time>2026-05-05T07:37:00Z</time></trkpt><trkpt lat="45.88466940770747" lon="15.4842595876627"><ele>188.0</ele><time>2026-05-05T07:37:01Z</time></trkpt><trkpt lat="45.884515533584775" lon="15.483904738976442"><ele>187.5</ele><time>2026-05-05T07:37:02Z</time></trkpt><trkpt lat="45.88436435212448" lon="15.483557309166002"><ele>187.0</ele><time>2026-05-05T07:37:03Z</time></trkpt><trkpt lat="45.88420080064648" lon="15.483233276915364"><ele>187.0</ele><time>2026-05-05T07:37:04Z</time></trkpt><trkpt lat="45.88403004481243" lon="15.482935042920072"><ele>187.0</ele><time>2026-05-05T07:37:05Z</time></trkpt><trkpt lat="45.883857543192896" lon="15.48268556891592"><ele>185.0</ele><time>2026-05-05T07:37:06Z</time></trkpt><trkpt lat="45.88371388706208" lon="15.482423984142564"><ele>183.0</ele><time>2026-05-05T07:37:07Z</time></trkpt><trkpt lat="45.88357661492874" lon="15.482179143294656"><ele>183.66666666666666</ele><time>2026-05-05T07:37:08Z</time></trkpt><trkpt lat="45.8834614340265" lon="15.481932045537175"><ele>184.33333333333331</ele><time>2026-05-05T07:37:09Z</time></trkpt><trkpt lat="45.8833677536752" lon="15.481683157214594"><ele>185.0</ele><time>2026-05-05T07:37:10Z</time></trkpt><trkpt lat="45.883295515177025" lon="15.481370795269227"><ele>183.5</ele><time>2026-05-05T07:37:11Z</time></trkpt><trkpt lat="45.883207071051324" lon="15.481018243291707"><ele>182.0</ele><time>2026-05-05T07:37:12Z</time></trkpt><trkpt lat="45.88309695031639" lon="15.480640616781"><ele>182.0</ele><time>2026-05-05T07:37:13Z</time></trkpt><trkpt lat="45.88300740074958" lon="15.480232426469195"><ele>182.0</ele><time>2026-05-05T07:37:14Z</time></trkpt><trkpt lat="45.882904870346835" lon="15.47984209019684"><ele>181.5</ele><time>2026-05-05T07:37:15Z</time></trkpt><trkpt lat="45.882810480578875" lon="15.479484605637529"><ele>181.0</ele><time>2026-05-05T07:37:16Z</time></trkpt><trkpt lat="45.88271251685068" lon="15.47916389076412"><ele>181.0</ele><time>2026-05-05T07:37:17Z</time></trkpt><trkpt lat="45.88263422085843" lon="15.478837220496512"><ele>181.0</ele><time>2026-05-05T07:37:18Z</time></trkpt><trkpt lat="45.88255423645859" lon="15.478529980274796"><ele>176.0</ele><time>2026-05-05T07:37:19Z</time></trkpt><trkpt lat="45.882477195441446" lon="15.478234463065377"><ele>171.0</ele><time>2026-05-05T07:37:20Z</time></trkpt><trkpt lat="45.882400593142464" lon="15.477940558103183"><ele>166.0</ele><time>2026-05-05T07:37:21Z</time></trkpt><trkpt lat="45.882315906221365" lon="15.477647339309796"><ele>165.0</ele><time>2026-05-05T07:37:22Z</time></trkpt><trkpt lat="45.88222826964721" lon="15.477368117716448"><ele>164.0</ele><time>2026-05-05T07:37:23Z</time></trkpt><trkpt lat="45.88211419916253" lon="15.4771087963652"><ele>163.0</ele><time>2026-05-05T07:37:24Z</time></trkpt><trkpt lat="45.88197223738825" lon="15.4768517857038"><ele>162.0</ele><time>2026-05-05T07:37:25Z</time></trkpt><trkpt lat="45.88181468705528" lon="15.476590219228862"><ele>161.0</ele><time>2026-05-05T07:37:26Z</time></trkpt><trkpt lat="45.88165215146247" lon="15.476315949553536"><ele>156.0</ele><time>2026-05-05T07:37:27Z</time></trkpt><trkpt lat="45.8814846659721" lon="15.47602979263632"><ele>151.0</ele><time>2026-05-05T07:37:28Z</time></trkpt><trkpt lat="45.88131905510409" lon="15.47573369281931"><ele>150.5</ele><time>2026-05-05T07:37:29Z</time></trkpt><trkpt lat="45.88115238612728" lon="15.475428001317615"><ele>150.0</ele><time>2026-05-05T07:37:30Z</time></trkpt><trkpt lat="45.88098305396847" lon="15.475120000088818"><ele>150.5</ele><time>2026-05-05T07:37:31Z</time></trkpt><trkpt lat="45.88080982302961" lon="15.474804765405699"><ele>151.0</ele><time>2026-05-05T07:37:32Z</time></trkpt><trkpt lat="45.880633978736064" lon="15.474484877412912"><ele>151.0</ele><time>2026-05-05T07:37:33Z</time></trkpt><trkpt lat="45.88045355527757" lon="15.474161280769916"><ele>151.0</ele><time>2026-05-05T07:37:34Z</time></trkpt><trkpt lat="45.88026971580326" lon="15.473832596589743"><ele>150.5</ele><time>2026-05-05T07:37:35Z</time></trkpt><trkpt lat="45.88008383565918" lon="15.47349990651876"><ele>150.0</ele><time>2026-05-05T07:37:36Z</time></trkpt><trkpt lat="45.879895837687855" lon="15.473163099344037"><ele>149.5</ele><time>2026-05-05T07:37:37Z</time></trkpt><trkpt lat="45.8797061315616" lon="15.472816550839747"><ele>149.0</ele><time>2026-05-05T07:37:38Z</time></trkpt><trkpt lat="45.87951357661368" lon="15.472465025027928"><ele>149.0</ele><time>2026-05-05T07:37:39Z</time></trkpt><trkpt lat="45.87931790261048" lon="15.472110771383221"><ele>149.0</ele><time>2026-05-05T07:37:40Z</time></trkpt><trkpt lat="45.8791212347707" lon="15.471756323536901"><ele>149.0</ele><time>2026-05-05T07:37:41Z</time></trkpt><trkpt lat="45.878924783554076" lon="15.471400613456106"><ele>149.0</ele><time>2026-05-05T07:37:42Z</time></trkpt><trkpt lat="45.87872453573529" lon="15.47104381836442"><ele>149.0</ele><time>2026-05-05T07:37:43Z</time></trkpt><trkpt lat="45.87852392492549" lon="15.470682477554252"><ele>149.0</ele><time>2026-05-05T07:37:44Z</time></trkpt><trkpt lat="45.87832193015322" lon="15.47031860255398"><ele>148.5</ele><time>2026-05-05T07:37:45Z</time></trkpt><trkpt lat="45.87811726201121" lon="15.469952671242973"><ele>148.0</ele><time>2026-05-05T07:37:46Z</time></trkpt><trkpt lat="45.877909086854466" lon="15.46958016722127"><ele>148.0</ele><time>2026-05-05T07:37:47Z</time></trkpt><trkpt lat="45.877698624391776" lon="15.46920052585237"><ele>148.0</ele><time>2026-05-05T07:37:48Z</time></trkpt><trkpt lat="45.877487898854866" lon="15.468814943708782"><ele>148.5</ele><time>2026-05-05T07:37:49Z</time></trkpt><trkpt lat="45.87727609416847" lon="15.468429934706297"><ele>149.0</ele><time>2026-05-05T07:37:50Z</time></trkpt><trkpt lat="45.877061650192" lon="15.468044614593895"><ele>149.0</ele><time>2026-05-05T07:37:51Z</time></trkpt><trkpt lat="45.87684660143738" lon="15.467660881805797"><ele>149.0</ele><time>2026-05-05T07:37:52Z</time></trkpt><trkpt lat="45.87664391259952" lon="15.467261737107155"><ele>149.0</ele><time>2026-05-05T07:37:53Z</time></trkpt><trkpt lat="45.87641558554606" lon="15.466887689090823"><ele>149.0</ele><time>2026-05-05T07:37:54Z</time></trkpt><trkpt lat="45.876201288207746" lon="15.466498680714192"><ele>150.0</ele><time>2026-05-05T07:37:55Z</time></trkpt><trkpt lat="45.87598845361005" lon="15.466111476414449"><ele>151.0</ele><time>2026-05-05T07:37:56Z</time></trkpt><trkpt lat="45.875773263647304" lon="15.465720848715838"><ele>150.0</ele><time>2026-05-05T07:37:57Z</time></trkpt><trkpt lat="45.87555397381623" lon="15.465323787335215"><ele>149.0</ele><time>2026-05-05T07:37:58Z</time></trkpt><trkpt lat="45.87533748632034" lon="15.464925621910183"><ele>149.0</ele><time>2026-05-05T07:37:59Z</time></trkpt><trkpt lat="45.87511824350094" lon="15.464524686704115"><ele>149.0</ele><time>2026-05-05T07:38:00Z</time></trkpt><trkpt lat="45.87489691644366" lon="15.464118800720103"><ele>149.5</ele><time>2026-05-05T07:38:01Z</time></trkpt><trkpt lat="45.874675484710146" lon="15.463715630029844"><ele>150.0</ele><time>2026-05-05T07:38:02Z</time></trkpt><trkpt lat="45.874452920310326" lon="15.463312314169995"><ele>150.5</ele><time>2026-05-05T07:38:03Z</time></trkpt><trkpt lat="45.87422854335482" lon="15.462906866920378"><ele>151.0</ele><time>2026-05-05T07:38:04Z</time></trkpt><trkpt lat="45.87399999067527" lon="15.462497981634701"><ele>150.0</ele><time>2026-05-05T07:38:05Z</time></trkpt><trkpt lat="45.8737663720826" lon="15.462075507036156"><ele>149.0</ele><time>2026-05-05T07:38:06Z</time></trkpt><trkpt lat="45.87352658511596" lon="15.461640853679892"><ele>148.5</ele><time>2026-05-05T07:38:07Z</time></trkpt><trkpt lat="45.873302809163576" lon="15.461236846874877"><ele>148.0</ele><time>2026-05-05T07:38:08Z</time></trkpt><trkpt lat="45.873092007926346" lon="15.460849924963675"><ele>148.0</ele><time>2026-05-05T07:38:09Z</time></trkpt><trkpt lat="45.8728865053115" lon="15.46047810172195"><ele>148.0</ele><time>2026-05-05T07:38:10Z</time></trkpt><trkpt lat="45.87268190099049" lon="15.460111066441321"><ele>148.5</ele><time>2026-05-05T07:38:11Z</time></trkpt><trkpt lat="45.8724795239767" lon="15.459746287553468"><ele>149.0</ele><time>2026-05-05T07:38:12Z</time></trkpt><trkpt lat="45.87227808397016" lon="15.459377818304263"><ele>149.0</ele><time>2026-05-05T07:38:13Z</time></trkpt><trkpt lat="45.872079380987515" lon="15.45901367846941"><ele>149.0</ele><time>2026-05-05T07:38:14Z</time></trkpt><trkpt lat="45.87188160644709" lon="15.458652084340876"><ele>150.0</ele><time>2026-05-05T07:38:15Z</time></trkpt><trkpt lat="45.8716857407892" lon="15.45829718373558"><ele>151.0</ele><time>2026-05-05T07:38:16Z</time></trkpt><trkpt lat="45.8714901571404" lon="15.457944459060352"><ele>151.5</ele><time>2026-05-05T07:38:17Z</time></trkpt><trkpt lat="45.871296746053936" lon="15.457596171170437"><ele>152.0</ele><time>2026-05-05T07:38:18Z</time></trkpt><trkpt lat="45.87110510766373" lon="15.457249000612139"><ele>151.0</ele><time>2026-05-05T07:38:19Z</time></trkpt><trkpt lat="45.87091575473912" lon="15.456909811924954"><ele>150.0</ele><time>2026-05-05T07:38:20Z</time></trkpt><trkpt lat="45.87073638484595" lon="15.456587197967687"><ele>150.0</ele><time>2026-05-05T07:38:21Z</time></trkpt><trkpt lat="45.87057879560135" lon="15.456301387416557"><ele>150.0</ele><time>2026-05-05T07:38:22Z</time></trkpt><trkpt lat="45.87043410015569" lon="15.456038401569984"><ele>150.0</ele><time>2026-05-05T07:38:23Z</time></trkpt><trkpt lat="45.870291176944534" lon="15.455781301995817"><ele>150.0</ele><time>2026-05-05T07:38:24Z</time></trkpt><trkpt lat="45.87014971596576" lon="15.45551843785368"><ele>150.0</ele><time>2026-05-05T07:38:25Z</time></trkpt><trkpt lat="45.87000983227862" lon="15.455261818029639"><ele>150.0</ele><time>2026-05-05T07:38:26Z</time></trkpt><trkpt lat="45.86986756806138" lon="15.455005056337715"><ele>150.0</ele><time>2026-05-05T07:38:27Z</time></trkpt><trkpt lat="45.86973427827766" lon="15.454760834207844"><ele>150.0</ele><time>2026-05-05T07:38:28Z</time></trkpt><trkpt lat="45.86960504190139" lon="15.454527504101879"><ele>150.0</ele><time>2026-05-05T07:38:29Z</time></trkpt><trkpt lat="45.86947621332376" lon="15.454296175955745"><ele>150.0</ele><time>2026-05-05T07:38:30Z</time></trkpt><trkpt lat="45.86934830762482" lon="15.454063932051954"><ele>150.0</ele><time>2026-05-05T07:38:31Z</time></trkpt><trkpt lat="45.86922144515966" lon="15.453834067038708"><ele>150.0</ele><time>2026-05-05T07:38:32Z</time></trkpt><trkpt lat="45.86909896970798" lon="15.453610465205706"><ele>150.33333333333334</ele><time>2026-05-05T07:38:33Z</time></trkpt><trkpt lat="45.86898404728629" lon="15.453401669919383"><ele>150.66666666666669</ele><time>2026-05-05T07:38:34Z</time></trkpt><trkpt lat="45.86887315971917" lon="15.453204879359717"><ele>151.0</ele><time>2026-05-05T07:38:35Z</time></trkpt><trkpt lat="45.86876482610384" lon="15.45301638323949"><ele>151.0</ele><time>2026-05-05T07:38:36Z</time></trkpt><trkpt lat="45.86866397086053" lon="15.452840187607055"><ele>151.0</ele><time>2026-05-05T07:38:37Z</time></trkpt><trkpt lat="45.86857002079801" lon="15.45267551878827"><ele>151.0</ele><time>2026-05-05T07:38:38Z</time></trkpt><trkpt lat="45.868477694041786" lon="15.452510000459117"><ele>151.0</ele><time>2026-05-05T07:38:39Z</time></trkpt><trkpt lat="45.8683940596986" lon="15.452361579707249"><ele>151.0</ele><time>2026-05-05T07:38:40Z</time></trkpt><trkpt lat="45.86831444199433" lon="15.452226376215894"><ele>151.0</ele><time>2026-05-05T07:38:41Z</time></trkpt><trkpt lat="45.868244751388865" lon="15.452100545844143"><ele>151.0</ele><time>2026-05-05T07:38:42Z</time></trkpt><trkpt lat="45.86818150833067" lon="15.451978835709427"><ele>151.0</ele><time>2026-05-05T07:38:43Z</time></trkpt><trkpt lat="45.86812721646847" lon="15.451863305306864"><ele>151.0</ele><time>2026-05-05T07:38:44Z</time></trkpt><trkpt lat="45.86809504869748" lon="15.45174751646054"><ele>151.0</ele><time>2026-05-05T07:38:45Z</time></trkpt><trkpt lat="45.86808372876217" lon="15.451632103948207"><ele>151.0</ele><time>2026-05-05T07:38:46Z</time></trkpt><trkpt lat="45.86805088626723" lon="15.45153678340714"><ele>151.0</ele><time>2026-05-05T07:38:47Z</time></trkpt><trkpt lat="45.86798349290804" lon="15.451479699809525"><ele>151.0</ele><time>2026-05-05T07:38:48Z</time></trkpt><trkpt lat="45.86790116199971" lon="15.451435365987534"><ele>151.0</ele><time>2026-05-05T07:38:49Z</time></trkpt><trkpt lat="45.8678339321824" lon="15.451355044922206"><ele>151.0</ele><time>2026-05-05T07:38:50Z</time></trkpt><trkpt lat="45.867782323724995" lon="15.451248490377935"><ele>151.0</ele><time>2026-05-05T07:38:51Z</time></trkpt><trkpt lat="45.86772933998737" lon="15.451144325869162"><ele>151.0</ele><time>2026-05-05T07:38:52Z</time></trkpt><trkpt lat="45.86767767477762" lon="15.451050675010396"><ele>151.0</ele><time>2026-05-05T07:38:53Z</time></trkpt><trkpt lat="45.86763246056184" lon="15.450960243469973"><ele>151.0</ele><time>2026-05-05T07:38:54Z</time></trkpt><trkpt lat="45.86757417819917" lon="15.450840089872354"><ele>150.8</ele><time>2026-05-05T07:38:55Z</time></trkpt><trkpt lat="45.867501479694" lon="15.450701230793918"><ele>150.6</ele><time>2026-05-05T07:38:56Z</time></trkpt><trkpt lat="45.86743719142763" lon="15.45058110429696"><ele>150.4</ele><time>2026-05-05T07:38:57Z</time></trkpt><trkpt lat="45.867374876035576" lon="15.450467642538761"><ele>150.2</ele><time>2026-05-05T07:38:58Z</time></trkpt><trkpt lat="45.867309116998634" lon="15.450350907566555"><ele>150.0</ele><time>2026-05-05T07:38:59Z</time></trkpt><trkpt lat="45.867241570528634" lon="15.450224647806367"><ele>150.0</ele><time>2026-05-05T07:39:00Z</time></trkpt><trkpt lat="45.86715495222922" lon="15.450069799156804"><ele>150.0</ele><time>2026-05-05T07:39:01Z</time></trkpt><trkpt lat="45.86706615195851" lon="15.449918541741745"><ele>150.0</ele><time>2026-05-05T07:39:02Z</time></trkpt><trkpt lat="45.86698902437595" lon="15.449742759338502"><ele>150.0</ele><time>2026-05-05T07:39:03Z</time></trkpt><trkpt lat="45.86689465898518" lon="15.449572504403559"><ele>149.66666666666666</ele><time>2026-05-05T07:39:04Z</time></trkpt><trkpt lat="45.866794987949355" lon="15.4493900036963"><ele>149.33333333333331</ele><time>2026-05-05T07:39:05Z</time></trkpt><trkpt lat="45.86668386952462" lon="15.449190207904762"><ele>149.0</ele><time>2026-05-05T07:39:06Z</time></trkpt><trkpt lat="45.86657588994943" lon="15.448994062620805"><ele>149.0</ele><time>2026-05-05T07:39:07Z</time></trkpt><trkpt lat="45.866481067909824" lon="15.44881953756453"><ele>149.0</ele><time>2026-05-05T07:39:08Z</time></trkpt><trkpt lat="45.86637949054786" lon="15.448639778482379"><ele>149.0</ele><time>2026-05-05T07:39:09Z</time></trkpt><trkpt lat="45.866269228642714" lon="15.44844410288637"><ele>149.0</ele><time>2026-05-05T07:39:10Z</time></trkpt><trkpt lat="45.866156617937214" lon="15.448238760454009"><ele>149.0</ele><time>2026-05-05T07:39:11Z</time></trkpt><trkpt lat="45.8660422751971" lon="15.448030841791617"><ele>149.0</ele><time>2026-05-05T07:39:12Z</time></trkpt><trkpt lat="45.86592751861233" lon="15.447822742417676"><ele>149.0</ele><time>2026-05-05T07:39:13Z</time></trkpt><trkpt lat="45.86580420664951" lon="15.447623436721736"><ele>149.0</ele><time>2026-05-05T07:39:14Z</time></trkpt><trkpt lat="45.86568041330282" lon="15.447408068325167"><ele>149.0</ele><time>2026-05-05T07:39:15Z</time></trkpt><trkpt lat="45.86557231687663" lon="15.447180353332604"><ele>149.0</ele><time>2026-05-05T07:39:16Z</time></trkpt><trkpt lat="45.86544147520198" lon="15.44698553295954"><ele>149.0</ele><time>2026-05-05T07:39:17Z</time></trkpt><trkpt lat="45.86533133917059" lon="15.44678776133297"><ele>149.0</ele><time>2026-05-05T07:39:18Z</time></trkpt><trkpt lat="45.86521303125762" lon="15.446574783893045"><ele>149.66666666666666</ele><time>2026-05-05T07:39:19Z</time></trkpt><trkpt lat="45.86509339000712" lon="15.446357535514972"><ele>150.33333333333334</ele><time>2026-05-05T07:39:20Z</time></trkpt><trkpt lat="45.86497375046043" lon="15.44614125559627"><ele>151.0</ele><time>2026-05-05T07:39:21Z</time></trkpt><trkpt lat="45.864852800722936" lon="15.445923085938889"><ele>151.0</ele><time>2026-05-05T07:39:22Z</time></trkpt><trkpt lat="45.86474245983271" lon="15.445686009775342"><ele>151.0</ele><time>2026-05-05T07:39:23Z</time></trkpt><trkpt lat="45.864606055563776" lon="15.445474228073541"><ele>151.0</ele><time>2026-05-05T07:39:24Z</time></trkpt><trkpt lat="45.86448206900068" lon="15.445244318829353"><ele>151.0</ele><time>2026-05-05T07:39:25Z</time></trkpt><trkpt lat="45.864356594589694" lon="15.445009310554989"><ele>151.0</ele><time>2026-05-05T07:39:26Z</time></trkpt><trkpt lat="45.864234415594666" lon="15.444771833784287"><ele>151.0</ele><time>2026-05-05T07:39:27Z</time></trkpt><trkpt lat="45.864106480777856" lon="15.44451781714327"><ele>151.0</ele><time>2026-05-05T07:39:28Z</time></trkpt><trkpt lat="45.863995128782975" lon="15.444236338743254"><ele>151.0</ele><time>2026-05-05T07:39:29Z</time></trkpt><trkpt lat="45.863874416343805" lon="15.443960403063537"><ele>151.5</ele><time>2026-05-05T07:39:30Z</time></trkpt><trkpt lat="45.863753788004814" lon="15.44368164148565"><ele>152.0</ele><time>2026-05-05T07:39:31Z</time></trkpt><trkpt lat="45.86363238615825" lon="15.443401092827738"><ele>152.0</ele><time>2026-05-05T07:39:32Z</time></trkpt><trkpt lat="45.8635081001043" lon="15.443123760842694"><ele>152.0</ele><time>2026-05-05T07:39:33Z</time></trkpt><trkpt lat="45.863378726799965" lon="15.4428498639872"><ele>151.0</ele><time>2026-05-05T07:39:34Z</time></trkpt><trkpt lat="45.86324749786236" lon="15.442581545904153"><ele>150.0</ele><time>2026-05-05T07:39:35Z</time></trkpt><trkpt lat="45.86311355390965" lon="15.44231069261836"><ele>149.5</ele><time>2026-05-05T07:39:36Z</time></trkpt><trkpt lat="45.862981555689366" lon="15.442041948544896"><ele>149.0</ele><time>2026-05-05T07:39:37Z</time></trkpt><trkpt lat="45.86285186742463" lon="15.441781300564958"><ele>149.0</ele><time>2026-05-05T07:39:38Z</time></trkpt><trkpt lat="45.862731550389036" lon="15.441537556441167"><ele>149.0</ele><time>2026-05-05T07:39:39Z</time></trkpt><trkpt lat="45.862609370044126" lon="15.441288224092398"><ele>149.0</ele><time>2026-05-05T07:39:40Z</time></trkpt><trkpt lat="45.86249076508789" lon="15.441058635668973"><ele>149.33333333333331</ele><time>2026-05-05T07:39:41Z</time></trkpt><trkpt lat="45.862365945179995" lon="15.44083249338633"><ele>149.66666666666666</ele><time>2026-05-05T07:39:42Z</time></trkpt><trkpt lat="45.86223784744417" lon="15.440622341310464"><ele>150.0</ele><time>2026-05-05T07:39:43Z</time></trkpt><trkpt lat="45.86210251682305" lon="15.440430011713458"><ele>152.33333333333334</ele><time>2026-05-05T07:39:44Z</time></trkpt><trkpt lat="45.86196947598158" lon="15.440246922576572"><ele>154.66666666666669</ele><time>2026-05-05T07:39:45Z</time></trkpt><trkpt lat="45.86183473682014" lon="15.440097353839684"><ele>157.0</ele><time>2026-05-05T07:39:46Z</time></trkpt><trkpt lat="45.861724494701875" lon="15.439925086525102"><ele>157.0</ele><time>2026-05-05T07:39:47Z</time></trkpt><trkpt lat="45.86160891167993" lon="15.439775135364423"><ele>157.0</ele><time>2026-05-05T07:39:48Z</time></trkpt><trkpt lat="45.861486429728394" lon="15.439644344074427"><ele>157.0</ele><time>2026-05-05T07:39:49Z</time></trkpt><trkpt lat="45.86137876651394" lon="15.439501586804274"><ele>158.5</ele><time>2026-05-05T07:39:50Z</time></trkpt><trkpt lat="45.861271984645356" lon="15.439364635698581"><ele>160.0</ele><time>2026-05-05T07:39:51Z</time></trkpt><trkpt lat="45.8611655286337" lon="15.439234161472076"><ele>161.5</ele><time>2026-05-05T07:39:52Z</time></trkpt><trkpt lat="45.86107168925656" lon="15.439083487428046"><ele>163.0</ele><time>2026-05-05T07:39:53Z</time></trkpt><trkpt lat="45.860962504124515" lon="15.438945132840267"><ele>161.33333333333334</ele><time>2026-05-05T07:39:54Z</time></trkpt><trkpt lat="45.86084526536123" lon="15.438805032800186"><ele>159.66666666666666</ele><time>2026-05-05T07:39:55Z</time></trkpt><trkpt lat="45.86072015878813" lon="15.438667541764158"><ele>158.0</ele><time>2026-05-05T07:39:56Z</time></trkpt><trkpt lat="45.860588415454664" lon="15.438536673372987"><ele>158.0</ele><time>2026-05-05T07:39:57Z</time></trkpt><trkpt lat="45.86045406859182" lon="15.43841905902392"><ele>158.0</ele><time>2026-05-05T07:39:58Z</time></trkpt><trkpt lat="45.86031928614884" lon="15.43830505666933"><ele>158.0</ele><time>2026-05-05T07:39:59Z</time></trkpt><trkpt lat="45.860181341366754" lon="15.438192999098735"><ele>155.66666666666666</ele><time>2026-05-05T07:40:00Z</time></trkpt><trkpt lat="45.86003757659889" lon="15.438103170483865"><ele>153.33333333333334</ele><time>2026-05-05T07:40:01Z</time></trkpt><trkpt lat="45.85990606726828" lon="15.437993273063237"><ele>151.0</ele><time>2026-05-05T07:40:02Z</time></trkpt><trkpt lat="45.85977503849716" lon="15.437879317114833"><ele>151.0</ele><time>2026-05-05T07:40:03Z</time></trkpt><trkpt lat="45.859644001255184" lon="15.437763859051831"><ele>151.0</ele><time>2026-05-05T07:40:04Z</time></trkpt><trkpt lat="45.85951232415378" lon="15.437641809773075"><ele>151.0</ele><time>2026-05-05T07:40:05Z</time></trkpt><trkpt lat="45.8593807611408" lon="15.43751314815359"><ele>150.66666666666669</ele><time>2026-05-05T07:40:06Z</time></trkpt><trkpt lat="45.85926051522852" lon="15.437357281717992"><ele>150.33333333333334</ele><time>2026-05-05T07:40:07Z</time></trkpt><trkpt lat="45.85913408262769" lon="15.437216577419138"><ele>150.0</ele><time>2026-05-05T07:40:08Z</time></trkpt><trkpt lat="45.85901110567476" lon="15.43707933052594"><ele>151.0</ele><time>2026-05-05T07:40:09Z</time></trkpt><trkpt lat="45.85888843864996" lon="15.436939962784882"><ele>152.0</ele><time>2026-05-05T07:40:10Z</time></trkpt><trkpt lat="45.85876570394316" lon="15.436800131856627"><ele>153.0</ele><time>2026-05-05T07:40:11Z</time></trkpt><trkpt lat="45.85863651773064" lon="15.436652950763214"><ele>153.0</ele><time>2026-05-05T07:40:12Z</time></trkpt><trkpt lat="45.858520735040365" lon="15.436522045274533"><ele>153.0</ele><time>2026-05-05T07:40:13Z</time></trkpt><trkpt lat="45.85841805999997" lon="15.436407219343325"><ele>153.0</ele><time>2026-05-05T07:40:14Z</time></trkpt><trkpt lat="45.858305304588555" lon="15.436278227545202"><ele>153.0</ele><time>2026-05-05T07:40:15Z</time></trkpt><trkpt lat="45.858172637869146" lon="15.436127101462839"><ele>153.0</ele><time>2026-05-05T07:40:16Z</time></trkpt><trkpt lat="45.858032760356956" lon="15.435970072690322"><ele>153.0</ele><time>2026-05-05T07:40:17Z</time></trkpt><trkpt lat="45.85788866442327" lon="15.435806505058435"><ele>153.0</ele><time>2026-05-05T07:40:18Z</time></trkpt><trkpt lat="45.85773558590173" lon="15.435654389360478"><ele>152.33333333333334</ele><time>2026-05-05T07:40:19Z</time></trkpt><trkpt lat="45.85759440316575" lon="15.435491614605239"><ele>151.66666666666669</ele><time>2026-05-05T07:40:20Z</time></trkpt><trkpt lat="45.85744980834398" lon="15.435331489148982"><ele>151.0</ele><time>2026-05-05T07:40:21Z</time></trkpt><trkpt lat="45.85730335495364" lon="15.43517064315166"><ele>151.0</ele><time>2026-05-05T07:40:22Z</time></trkpt><trkpt lat="45.85717007485405" lon="15.434990606203572"><ele>151.0</ele><time>2026-05-05T07:40:23Z</time></trkpt><trkpt lat="45.85702840944366" lon="15.434826688685243"><ele>151.0</ele><time>2026-05-05T07:40:24Z</time></trkpt><trkpt lat="45.8568850900278" lon="15.434652169512619"><ele>152.0</ele><time>2026-05-05T07:40:25Z</time></trkpt><trkpt lat="45.856745417158216" lon="15.434474033230728"><ele>153.0</ele><time>2026-05-05T07:40:26Z</time></trkpt><trkpt lat="45.85660980702004" lon="15.434290505534966"><ele>154.0</ele><time>2026-05-05T07:40:27Z</time></trkpt><trkpt lat="45.85646713854791" lon="15.434115432212655"><ele>154.0</ele><time>2026-05-05T07:40:28Z</time></trkpt><trkpt lat="45.85633618599711" lon="15.433915545515347"><ele>154.0</ele><time>2026-05-05T07:40:29Z</time></trkpt><trkpt lat="45.856203678455515" lon="15.43370824774863"><ele>154.0</ele><time>2026-05-05T07:40:30Z</time></trkpt><trkpt lat="45.856071650010804" lon="15.433499368081344"><ele>154.66666666666669</ele><time>2026-05-05T07:40:31Z</time></trkpt><trkpt lat="45.85593825941" lon="15.43328119132167"><ele>155.33333333333334</ele><time>2026-05-05T07:40:32Z</time></trkpt><trkpt lat="45.85580706484028" lon="15.433063743689733"><ele>156.0</ele><time>2026-05-05T07:40:33Z</time></trkpt><trkpt lat="45.85568543770117" lon="15.432829250005724"><ele>158.0</ele><time>2026-05-05T07:40:34Z</time></trkpt><trkpt lat="45.85554811182389" lon="15.432635470271473"><ele>160.0</ele><time>2026-05-05T07:40:35Z</time></trkpt><trkpt lat="45.85544126764579" lon="15.432421211350196"><ele>162.0</ele><time>2026-05-05T07:40:36Z</time></trkpt><trkpt lat="45.85531508193994" lon="15.432236074157071"><ele>162.33333333333334</ele><time>2026-05-05T07:40:37Z</time></trkpt><trkpt lat="45.85520764730138" lon="15.432033644314126"><ele>162.66666666666669</ele><time>2026-05-05T07:40:38Z</time></trkpt><trkpt lat="45.85510445924607" lon="15.431836275651657"><ele>163.0</ele><time>2026-05-05T07:40:39Z</time></trkpt><trkpt lat="45.85502778898765" lon="15.431626605095998"><ele>159.66666666666669</ele><time>2026-05-05T07:40:40Z</time></trkpt><trkpt lat="45.85494815121401" lon="15.431423591603359"><ele>156.33333333333334</ele><time>2026-05-05T07:40:41Z</time></trkpt><trkpt lat="45.85487506574946" lon="15.431213538314248"><ele>153.0</ele><time>2026-05-05T07:40:42Z</time></trkpt><trkpt lat="45.85479543065124" lon="15.4310104446326"><ele>153.0</ele><time>2026-05-05T07:40:43Z</time></trkpt><trkpt lat="45.854738788138626" lon="15.430790349511591"><ele>153.0</ele><time>2026-05-05T07:40:44Z</time></trkpt><trkpt lat="45.854691646279655" lon="15.430573405297096"><ele>153.0</ele><time>2026-05-05T07:40:45Z</time></trkpt><trkpt lat="45.854652311508616" lon="15.430353147825492"><ele>153.66666666666666</ele><time>2026-05-05T07:40:46Z</time></trkpt><trkpt lat="45.85461865958317" lon="15.430134188525136"><ele>154.33333333333331</ele><time>2026-05-05T07:40:47Z</time></trkpt><trkpt lat="45.85459290257981" lon="15.42991512871108"><ele>155.0</ele><time>2026-05-05T07:40:48Z</time></trkpt><trkpt lat="45.854575043514814" lon="15.429695385861532"><ele>154.66666666666666</ele><time>2026-05-05T07:40:49Z</time></trkpt><trkpt lat="45.85456811972536" lon="15.429467217392038"><ele>154.33333333333334</ele><time>2026-05-05T07:40:50Z</time></trkpt><trkpt lat="45.85456924361498" lon="15.429242634927446"><ele>154.0</ele><time>2026-05-05T07:40:51Z</time></trkpt><trkpt lat="45.85457210661434" lon="15.42901568147485"><ele>153.0</ele><time>2026-05-05T07:40:52Z</time></trkpt><trkpt lat="45.85457496082141" lon="15.42878951676412"><ele>152.0</ele><time>2026-05-05T07:40:53Z</time></trkpt><trkpt lat="45.854576758911456" lon="15.428559873748174"><ele>151.0</ele><time>2026-05-05T07:40:54Z</time></trkpt><trkpt lat="45.854575280578196" lon="15.428326370700166"><ele>151.0</ele><time>2026-05-05T07:40:55Z</time></trkpt><trkpt lat="45.85457093527864" lon="15.428087187405792"><ele>151.0</ele><time>2026-05-05T07:40:56Z</time></trkpt><trkpt lat="45.85454558900804" lon="15.427848527505557"><ele>151.0</ele><time>2026-05-05T07:40:57Z</time></trkpt><trkpt lat="45.854507924144635" lon="15.42760846711443"><ele>151.0</ele><time>2026-05-05T07:40:58Z</time></trkpt><trkpt lat="45.85445520748074" lon="15.427365897548604"><ele>151.0</ele><time>2026-05-05T07:40:59Z</time></trkpt><trkpt lat="45.85439043673468" lon="15.42712507271971"><ele>151.0</ele><time>2026-05-05T07:41:00Z</time></trkpt><trkpt lat="45.85430716019085" lon="15.426890792908214"><ele>151.33333333333334</ele><time>2026-05-05T07:41:01Z</time></trkpt><trkpt lat="45.85420828204178" lon="15.426661535201697"><ele>151.66666666666666</ele><time>2026-05-05T07:41:02Z</time></trkpt><trkpt lat="45.854092391641586" lon="15.426441660183148"><ele>152.0</ele><time>2026-05-05T07:41:03Z</time></trkpt><trkpt lat="45.85396720644208" lon="15.426234757375749"><ele>152.33333333333331</ele><time>2026-05-05T07:41:04Z</time></trkpt><trkpt lat="45.85382133205658" lon="15.426044239511503"><ele>152.66666666666666</ele><time>2026-05-05T07:41:05Z</time></trkpt><trkpt lat="45.85368269456694" lon="15.42586876101653"><ele>153.0</ele><time>2026-05-05T07:41:06Z</time></trkpt><trkpt lat="45.85352549765112" lon="15.425711014046705"><ele>153.33333333333334</ele><time>2026-05-05T07:41:07Z</time></trkpt><trkpt lat="45.853369113922184" lon="15.425568708924802"><ele>153.66666666666669</ele><time>2026-05-05T07:41:08Z</time></trkpt><trkpt lat="45.853217483480016" lon="15.42542004249407"><ele>154.0</ele><time>2026-05-05T07:41:09Z</time></trkpt><trkpt lat="45.853074527004786" lon="15.425266656455761"><ele>157.0</ele><time>2026-05-05T07:41:10Z</time></trkpt><trkpt lat="45.8529588518154" lon="15.425086206090723"><ele>160.0</ele><time>2026-05-05T07:41:11Z</time></trkpt><trkpt lat="45.852848633855814" lon="15.424923813338168"><ele>163.0</ele><time>2026-05-05T07:41:12Z</time></trkpt><trkpt lat="45.85275649646536" lon="15.424765819410103"><ele>163.25</ele><time>2026-05-05T07:41:13Z</time></trkpt><trkpt lat="45.852677331467255" lon="15.424608315933462"><ele>163.5</ele><time>2026-05-05T07:41:14Z</time></trkpt><trkpt lat="45.85260210938885" lon="15.424466941746694"><ele>163.75</ele><time>2026-05-05T07:41:15Z</time></trkpt><trkpt lat="45.852561823946424" lon="15.424324604097505"><ele>164.0</ele><time>2026-05-05T07:41:16Z</time></trkpt><trkpt lat="45.852533504668216" lon="15.424206279376717"><ele>162.79999999999998</ele><time>2026-05-05T07:41:17Z</time></trkpt><trkpt lat="45.852488384515084" lon="15.424125341342773"><ele>161.6</ele><time>2026-05-05T07:41:18Z</time></trkpt><trkpt lat="45.852423188271004" lon="15.423992930239185"><ele>160.4</ele><time>2026-05-05T07:41:20Z</time></trkpt><trkpt lat="45.852358266631796" lon="15.423861198212007"><ele>159.2</ele><time>2026-05-05T07:41:22Z</time></trkpt><trkpt lat="45.8523970612134" lon="15.423689460493609"><ele>158.0</ele><time>2026-05-05T07:41:24Z</time></trkpt><trkpt lat="45.85236874341988" lon="15.423581421393065"><ele>158.0</ele><time>2026-05-05T07:43:23Z</time></trkpt><trkpt lat="45.852371173835394" lon="15.423482723679625"><ele>158.0</ele><time>2026-05-05T07:43:35Z</time></trkpt><trkpt lat="45.85232982373085" lon="15.423559050711667"><ele>158.0</ele><time>2026-05-05T07:44:29Z</time></trkpt><trkpt lat="45.85228577342109" lon="15.42344628275017"><ele>158.0</ele><time>2026-05-05T07:47:00Z</time></trkpt><trkpt lat="45.85222071540973" lon="15.423364548428095"><ele>158.0</ele><time>2026-05-05T07:47:02Z</time></trkpt><trkpt lat="45.85215561559292" lon="15.423303570033891"><ele>158.0</ele><time>2026-05-05T07:47:05Z</time></trkpt><trkpt lat="45.852082329032505" lon="15.423310022547824"><ele>158.0</ele><time>2026-05-05T07:47:10Z</time></trkpt><trkpt lat="45.85199276696281" lon="15.423256696433404"><ele>158.0</ele><time>2026-05-05T07:47:21Z</time></trkpt><trkpt lat="45.851967088948435" lon="15.423162009647564"><ele>158.0</ele><time>2026-05-05T07:47:22Z</time></trkpt><trkpt lat="45.851943647040635" lon="15.423061105676794"><ele>158.0</ele><time>2026-05-05T07:47:23Z</time></trkpt><trkpt lat="45.8519137691067" lon="15.422953698398551"><ele>158.0</ele><time>2026-05-05T07:47:24Z</time></trkpt><trkpt lat="45.851877619773525" lon="15.422847157738817"><ele>158.0</ele><time>2026-05-05T07:47:25Z</time></trkpt><trkpt lat="45.85183758057443" lon="15.422735368184872"><ele>157.8</ele><time>2026-05-05T07:47:26Z</time></trkpt><trkpt lat="45.85179499331129" lon="15.422615332512487"><ele>157.60000000000002</ele><time>2026-05-05T07:47:27Z</time></trkpt><trkpt lat="45.85175444266564" lon="15.422493901983453"><ele>157.39999999999998</ele><time>2026-05-05T07:47:28Z</time></trkpt><trkpt lat="45.85171474295775" lon="15.422369598176179"><ele>157.2</ele><time>2026-05-05T07:47:29Z</time></trkpt><trkpt lat="45.851671540845686" lon="15.422246088534367"><ele>157.0</ele><time>2026-05-05T07:47:30Z</time></trkpt><trkpt lat="45.85162993257407" lon="15.422118269453254"><ele>155.6</ele><time>2026-05-05T07:47:31Z</time></trkpt><trkpt lat="45.85158920518814" lon="15.42198757673925"><ele>154.2</ele><time>2026-05-05T07:47:32Z</time></trkpt><trkpt lat="45.85154256365099" lon="15.421854018309192"><ele>152.8</ele><time>2026-05-05T07:47:33Z</time></trkpt><trkpt lat="45.85149901627298" lon="15.421713344772405"><ele>151.4</ele><time>2026-05-05T07:47:34Z</time></trkpt><trkpt lat="45.85145308811443" lon="15.421575110910554"><ele>150.0</ele><time>2026-05-05T07:47:35Z</time></trkpt><trkpt lat="45.851398470571304" lon="15.421438069308294"><ele>150.4</ele><time>2026-05-05T07:47:36Z</time></trkpt><trkpt lat="45.851338092934846" lon="15.421304392446636"><ele>150.8</ele><time>2026-05-05T07:47:37Z</time></trkpt><trkpt lat="45.8512757976182" lon="15.421171542388453"><ele>151.2</ele><time>2026-05-05T07:47:38Z</time></trkpt><trkpt lat="45.85121379303679" lon="15.421037070660697"><ele>151.6</ele><time>2026-05-05T07:47:39Z</time></trkpt><trkpt lat="45.85115349980407" lon="15.420899729067933"><ele>152.0</ele><time>2026-05-05T07:47:40Z</time></trkpt><trkpt lat="45.851096645150726" lon="15.420757785184426"><ele>152.0</ele><time>2026-05-05T07:47:41Z</time></trkpt><trkpt lat="45.85104521967227" lon="15.420608866241341"><ele>152.0</ele><time>2026-05-05T07:47:42Z</time></trkpt><trkpt lat="45.85099700800988" lon="15.420452907199484"><ele>152.0</ele><time>2026-05-05T07:47:43Z</time></trkpt><trkpt lat="45.8509503033304" lon="15.420293360259993"><ele>152.0</ele><time>2026-05-05T07:47:44Z</time></trkpt><trkpt lat="45.850898557965444" lon="15.420129800013745"><ele>152.0</ele><time>2026-05-05T07:47:45Z</time></trkpt><trkpt lat="45.85082940521093" lon="15.419971537465798"><ele>152.0</ele><time>2026-05-05T07:47:46Z</time></trkpt><trkpt lat="45.8507343657303" lon="15.419821876133689"><ele>152.0</ele><time>2026-05-05T07:47:47Z</time></trkpt><trkpt lat="45.85061877470704" lon="15.419692548994963"><ele>152.0</ele><time>2026-05-05T07:47:48Z</time></trkpt><trkpt lat="45.850487454683986" lon="15.419587351774961"><ele>152.0</ele><time>2026-05-05T07:47:49Z</time></trkpt><trkpt lat="45.85035879615721" lon="15.419486940292881"><ele>152.0</ele><time>2026-05-05T07:47:50Z</time></trkpt><trkpt lat="45.85023223980153" lon="15.419378302915968"><ele>152.0</ele><time>2026-05-05T07:47:51Z</time></trkpt><trkpt lat="45.85010847900426" lon="15.419260717831948"><ele>152.0</ele><time>2026-05-05T07:47:52Z</time></trkpt><trkpt lat="45.849988406190334" lon="15.419128896832184"><ele>152.0</ele><time>2026-05-05T07:47:53Z</time></trkpt><trkpt lat="45.84988940204412" lon="15.418959809914165"><ele>152.0</ele><time>2026-05-05T07:47:54Z</time></trkpt><trkpt lat="45.849790978799895" lon="15.418791745836087"><ele>152.0</ele><time>2026-05-05T07:47:55Z</time></trkpt><trkpt lat="45.84968851818748" lon="15.418627901726401"><ele>151.66666666666666</ele><time>2026-05-05T07:47:56Z</time></trkpt><trkpt lat="45.8496118525721" lon="15.418436359903781"><ele>151.33333333333334</ele><time>2026-05-05T07:47:57Z</time></trkpt><trkpt lat="45.849561280107444" lon="15.418229024747145"><ele>151.0</ele><time>2026-05-05T07:47:58Z</time></trkpt><trkpt lat="45.84949483934441" lon="15.418034267320431"><ele>151.25</ele><time>2026-05-05T07:47:59Z</time></trkpt><trkpt lat="45.84946183718395" lon="15.41784772618662"><ele>151.5</ele><time>2026-05-05T07:48:00Z</time></trkpt><trkpt lat="45.84944600786171" lon="15.417675189076078"><ele>151.75</ele><time>2026-05-05T07:48:01Z</time></trkpt><trkpt lat="45.84944183278404" lon="15.417505981189201"><ele>152.0</ele><time>2026-05-05T07:48:02Z</time></trkpt><trkpt lat="45.84944810163314" lon="15.417337056557232"><ele>152.0</ele><time>2026-05-05T07:48:03Z</time></trkpt><trkpt lat="45.84935649691654" lon="15.417175548904499"><ele>152.0</ele><time>2026-05-05T07:48:04Z</time></trkpt><trkpt lat="45.84930753837475" lon="15.416986634836114"><ele>152.0</ele><time>2026-05-05T07:48:05Z</time></trkpt><trkpt lat="45.849298173904764" lon="15.416771342325344"><ele>152.0</ele><time>2026-05-05T07:48:06Z</time></trkpt><trkpt lat="45.849260776546124" lon="15.416554724222344"><ele>151.0</ele><time>2026-05-05T07:48:07Z</time></trkpt><trkpt lat="45.84923946538553" lon="15.416318700811825"><ele>150.0</ele><time>2026-05-05T07:48:08Z</time></trkpt><trkpt lat="45.84921616111382" lon="15.41607201644542"><ele>149.0</ele><time>2026-05-05T07:48:09Z</time></trkpt><trkpt lat="45.849190243613535" lon="15.415815394215388"><ele>149.0</ele><time>2026-05-05T07:48:10Z</time></trkpt><trkpt lat="45.84916001040225" lon="15.415553902620447"><ele>149.0</ele><time>2026-05-05T07:48:11Z</time></trkpt><trkpt lat="45.84912117663854" lon="15.415285520428272"><ele>149.0</ele><time>2026-05-05T07:48:12Z</time></trkpt><trkpt lat="45.84906791749121" lon="15.41501312957723"><ele>149.0</ele><time>2026-05-05T07:48:13Z</time></trkpt><trkpt lat="45.84899821411982" lon="15.414743162334442"><ele>149.0</ele><time>2026-05-05T07:48:14Z</time></trkpt><trkpt lat="45.8489120853506" lon="15.414481996251439"><ele>149.0</ele><time>2026-05-05T07:48:15Z</time></trkpt><trkpt lat="45.84881143299677" lon="15.414232471274017"><ele>149.0</ele><time>2026-05-05T07:48:16Z</time></trkpt><trkpt lat="45.848702492191784" lon="15.413998619022923"><ele>149.0</ele><time>2026-05-05T07:48:17Z</time></trkpt><trkpt lat="45.8485827219009" lon="15.413773715955084"><ele>149.0</ele><time>2026-05-05T07:48:18Z</time></trkpt><trkpt lat="45.84845398326795" lon="15.413556587712735"><ele>149.0</ele><time>2026-05-05T07:48:19Z</time></trkpt><trkpt lat="45.84831590704516" lon="15.41336446519533"><ele>149.0</ele><time>2026-05-05T07:48:20Z</time></trkpt><trkpt lat="45.848181920545045" lon="15.41316827316698"><ele>149.0</ele><time>2026-05-05T07:48:21Z</time></trkpt><trkpt lat="45.84806326535202" lon="15.41295067759441"><ele>149.0</ele><time>2026-05-05T07:48:22Z</time></trkpt><trkpt lat="45.8479224381954" lon="15.412765087094051"><ele>149.0</ele><time>2026-05-05T07:48:23Z</time></trkpt><trkpt lat="45.84779612247044" lon="15.412564535482614"><ele>149.0</ele><time>2026-05-05T07:48:24Z</time></trkpt><trkpt lat="45.847675956890235" lon="15.412371584364282"><ele>149.0</ele><time>2026-05-05T07:48:25Z</time></trkpt><trkpt lat="45.84756434788085" lon="15.412199537243538"><ele>149.0</ele><time>2026-05-05T07:48:26Z</time></trkpt><trkpt lat="45.8474667776092" lon="15.412042154295506"><ele>149.0</ele><time>2026-05-05T07:48:27Z</time></trkpt><trkpt lat="45.847382928122826" lon="15.411900883521339"><ele>149.0</ele><time>2026-05-05T07:48:28Z</time></trkpt><trkpt lat="45.84730562658704" lon="15.41176990837262"><ele>149.5</ele><time>2026-05-05T07:48:29Z</time></trkpt><trkpt lat="45.847255249222975" lon="15.41165975104983"><ele>150.0</ele><time>2026-05-05T07:48:30Z</time></trkpt><trkpt lat="45.847232408714696" lon="15.41155509555249"><ele>150.5</ele><time>2026-05-05T07:48:31Z</time></trkpt><trkpt lat="45.847244763838056" lon="15.411450415441747"><ele>151.0</ele><time>2026-05-05T07:48:32Z</time></trkpt><trkpt lat="45.84729249659217" lon="15.411344605556284"><ele>151.5</ele><time>2026-05-05T07:48:33Z</time></trkpt><trkpt lat="45.847378159534706" lon="15.411246325765786"><ele>152.0</ele><time>2026-05-05T07:48:34Z</time></trkpt><trkpt lat="45.84748378953593" lon="15.4111532896618"><ele>152.0</ele><time>2026-05-05T07:48:35Z</time></trkpt><trkpt lat="45.84759948492109" lon="15.411042431034826"><ele>152.0</ele><time>2026-05-05T07:48:36Z</time></trkpt><trkpt lat="45.84772277617347" lon="15.41090576265194"><ele>152.0</ele><time>2026-05-05T07:48:37Z</time></trkpt><trkpt lat="45.847858993594116" lon="15.410761219932697"><ele>152.0</ele><time>2026-05-05T07:48:38Z</time></trkpt><trkpt lat="45.84800735365506" lon="15.410621651818266"><ele>152.0</ele><time>2026-05-05T07:48:39Z</time></trkpt><trkpt lat="45.84817369166264" lon="15.410534716410396"><ele>152.0</ele><time>2026-05-05T07:48:40Z</time></trkpt><trkpt lat="45.84834426338027" lon="15.410465862519263"><ele>151.66666666666666</ele><time>2026-05-05T07:48:41Z</time></trkpt><trkpt lat="45.84851262795474" lon="15.410365411849575"><ele>151.33333333333334</ele><time>2026-05-05T07:48:42Z</time></trkpt><trkpt lat="45.84868019386439" lon="15.410276342762598"><ele>151.0</ele><time>2026-05-05T07:48:43Z</time></trkpt><trkpt lat="45.84883581300424" lon="15.410138400553091"><ele>151.0</ele><time>2026-05-05T07:48:44Z</time></trkpt><trkpt lat="45.84897738930918" lon="15.409963379467015"><ele>151.0</ele><time>2026-05-05T07:48:45Z</time></trkpt><trkpt lat="45.849114532894" lon="15.409768689971042"><ele>151.0</ele><time>2026-05-05T07:48:46Z</time></trkpt><trkpt lat="45.8492507857059" lon="15.409569752347684"><ele>150.33333333333334</ele><time>2026-05-05T07:48:47Z</time></trkpt><trkpt lat="45.84940209960347" lon="15.40939382016491"><ele>149.66666666666666</ele><time>2026-05-05T07:48:48Z</time></trkpt><trkpt lat="45.84954248342234" lon="15.409205554120932"><ele>149.0</ele><time>2026-05-05T07:48:49Z</time></trkpt><trkpt lat="45.84967665786596" lon="15.409024010519456"><ele>149.66666666666666</ele><time>2026-05-05T07:48:50Z</time></trkpt><trkpt lat="45.84979980147197" lon="15.408820654424341"><ele>150.33333333333334</ele><time>2026-05-05T07:48:51Z</time></trkpt><trkpt lat="45.84992564598353" lon="15.408614331460415"><ele>151.0</ele><time>2026-05-05T07:48:52Z</time></trkpt><trkpt lat="45.85002808472176" lon="15.408375709116486"><ele>151.0</ele><time>2026-05-05T07:48:53Z</time></trkpt><trkpt lat="45.85011251313749" lon="15.40811819800895"><ele>151.0</ele><time>2026-05-05T07:48:54Z</time></trkpt><trkpt lat="45.850190104517395" lon="15.40786776331411"><ele>151.0</ele><time>2026-05-05T07:48:55Z</time></trkpt><trkpt lat="45.850272212989374" lon="15.40762914767649"><ele>150.66666666666669</ele><time>2026-05-05T07:48:56Z</time></trkpt><trkpt lat="45.85036364522383" lon="15.407393628086014"><ele>150.33333333333334</ele><time>2026-05-05T07:48:57Z</time></trkpt><trkpt lat="45.85045875344665" lon="15.40715817123042"><ele>150.0</ele><time>2026-05-05T07:48:58Z</time></trkpt><trkpt lat="45.85055011840448" lon="15.406913358950913"><ele>151.0</ele><time>2026-05-05T07:48:59Z</time></trkpt><trkpt lat="45.85063884852819" lon="15.406664635682155"><ele>152.0</ele><time>2026-05-05T07:49:00Z</time></trkpt><trkpt lat="45.850727218742826" lon="15.406416893748684"><ele>153.0</ele><time>2026-05-05T07:49:01Z</time></trkpt><trkpt lat="45.850818445736955" lon="15.406157579090976"><ele>153.0</ele><time>2026-05-05T07:49:02Z</time></trkpt><trkpt lat="45.8509090328813" lon="15.405891888807648"><ele>153.0</ele><time>2026-05-05T07:49:03Z</time></trkpt><trkpt lat="45.85100311694639" lon="15.405620611214141"><ele>153.0</ele><time>2026-05-05T07:49:04Z</time></trkpt><trkpt lat="45.851119534814" lon="15.405368133290573"><ele>152.0</ele><time>2026-05-05T07:49:05Z</time></trkpt><trkpt lat="45.85122829897455" lon="15.405108647098578"><ele>151.0</ele><time>2026-05-05T07:49:06Z</time></trkpt><trkpt lat="45.85134141949245" lon="15.404840818235625"><ele>150.0</ele><time>2026-05-05T07:49:07Z</time></trkpt><trkpt lat="45.85145280304657" lon="15.4045700749217"><ele>150.0</ele><time>2026-05-05T07:49:08Z</time></trkpt><trkpt lat="45.85156372954148" lon="15.404304816485629"><ele>150.0</ele><time>2026-05-05T07:49:09Z</time></trkpt><trkpt lat="45.85167190325893" lon="15.404047471686274"><ele>150.0</ele><time>2026-05-05T07:49:10Z</time></trkpt><trkpt lat="45.8517681699857" lon="15.403795806155081"><ele>149.66666666666666</ele><time>2026-05-05T07:49:11Z</time></trkpt><trkpt lat="45.85185720277782" lon="15.403538857558361"><ele>149.33333333333331</ele><time>2026-05-05T07:49:12Z</time></trkpt><trkpt lat="45.85193518180721" lon="15.403277150280518"><ele>149.0</ele><time>2026-05-05T07:49:13Z</time></trkpt><trkpt lat="45.85198190793734" lon="15.403000652322628"><ele>150.0</ele><time>2026-05-05T07:49:14Z</time></trkpt><trkpt lat="45.85201390748133" lon="15.402722667746255"><ele>151.0</ele><time>2026-05-05T07:49:15Z</time></trkpt><trkpt lat="45.85200622619376" lon="15.402441700651602"><ele>152.0</ele><time>2026-05-05T07:49:16Z</time></trkpt><trkpt lat="45.85203171637294" lon="15.402165531576859"><ele>152.66666666666666</ele><time>2026-05-05T07:49:17Z</time></trkpt><trkpt lat="45.85207509118305" lon="15.40189802423122"><ele>153.33333333333334</ele><time>2026-05-05T07:49:18Z</time></trkpt><trkpt lat="45.852129922492445" lon="15.401623199883417"><ele>154.0</ele><time>2026-05-05T07:49:19Z</time></trkpt><trkpt lat="45.85218851893764" lon="15.401353916370109"><ele>154.0</ele><time>2026-05-05T07:49:20Z</time></trkpt><trkpt lat="45.85224768026298" lon="15.401090736943623"><ele>154.0</ele><time>2026-05-05T07:49:21Z</time></trkpt><trkpt lat="45.852309046141436" lon="15.40083174948663"><ele>154.0</ele><time>2026-05-05T07:49:22Z</time></trkpt><trkpt lat="45.85237433845429" lon="15.400576112207796"><ele>153.33333333333334</ele><time>2026-05-05T07:49:23Z</time></trkpt><trkpt lat="45.85244814239555" lon="15.40033020183931"><ele>152.66666666666666</ele><time>2026-05-05T07:49:24Z</time></trkpt><trkpt lat="45.85253353246171" lon="15.40009378605885"><ele>152.0</ele><time>2026-05-05T07:49:25Z</time></trkpt><trkpt lat="45.85260173541494" lon="15.399850756909384"><ele>153.66666666666666</ele><time>2026-05-05T07:49:26Z</time></trkpt><trkpt lat="45.85270019504092" lon="15.399646193130526"><ele>155.33333333333334</ele><time>2026-05-05T07:49:27Z</time></trkpt><trkpt lat="45.85279833795997" lon="15.399472981729707"><ele>157.0</ele><time>2026-05-05T07:49:28Z</time></trkpt><trkpt lat="45.852890266022335" lon="15.39931234184232"><ele>157.0</ele><time>2026-05-05T07:49:29Z</time></trkpt><trkpt lat="45.85296009546971" lon="15.399154260296262"><ele>157.0</ele><time>2026-05-05T07:49:30Z</time></trkpt><trkpt lat="45.8529958270525" lon="15.398966667712912"><ele>157.0</ele><time>2026-05-05T07:49:31Z</time></trkpt><trkpt lat="45.85299749599077" lon="15.398743534593182"><ele>157.0</ele><time>2026-05-05T07:49:32Z</time></trkpt><trkpt lat="45.85296669538706" lon="15.398503122332958"><ele>158.0</ele><time>2026-05-05T07:49:33Z</time></trkpt><trkpt lat="45.852952431081675" lon="15.398238589224256"><ele>159.0</ele><time>2026-05-05T07:49:34Z</time></trkpt><trkpt lat="45.85292758287487" lon="15.397955427669979"><ele>160.0</ele><time>2026-05-05T07:49:35Z</time></trkpt><trkpt lat="45.85290462304044" lon="15.397655223456647"><ele>160.0</ele><time>2026-05-05T07:49:36Z</time></trkpt><trkpt lat="45.85288169816016" lon="15.397341396728866"><ele>160.0</ele><time>2026-05-05T07:49:37Z</time></trkpt><trkpt lat="45.852858234068044" lon="15.397017300739577"><ele>160.0</ele><time>2026-05-05T07:49:38Z</time></trkpt><trkpt lat="45.852845270058786" lon="15.39669705050481"><ele>159.33333333333334</ele><time>2026-05-05T07:49:39Z</time></trkpt><trkpt lat="45.852847760167556" lon="15.396377743253593"><ele>158.66666666666666</ele><time>2026-05-05T07:49:40Z</time></trkpt><trkpt lat="45.852861043510146" lon="15.396054525600578"><ele>158.0</ele><time>2026-05-05T07:49:41Z</time></trkpt><trkpt lat="45.85287529924629" lon="15.39573207412053"><ele>157.66666666666666</ele><time>2026-05-05T07:49:42Z</time></trkpt><trkpt lat="45.85287323307116" lon="15.395408973345107"><ele>157.33333333333334</ele><time>2026-05-05T07:49:43Z</time></trkpt><trkpt lat="45.85288788105829" lon="15.395092488666714"><ele>157.0</ele><time>2026-05-05T07:49:44Z</time></trkpt><trkpt lat="45.85290141523566" lon="15.394778545080003"><ele>157.33333333333334</ele><time>2026-05-05T07:49:45Z</time></trkpt><trkpt lat="45.85291425308256" lon="15.394466130080822"><ele>157.66666666666666</ele><time>2026-05-05T07:49:46Z</time></trkpt><trkpt lat="45.852944602227836" lon="15.394155002729972"><ele>158.0</ele><time>2026-05-05T07:49:47Z</time></trkpt><trkpt lat="45.852958693104846" lon="15.393839948435842"><ele>158.0</ele><time>2026-05-05T07:49:48Z</time></trkpt><trkpt lat="45.85297278419239" lon="15.393524888874705"><ele>158.0</ele><time>2026-05-05T07:49:49Z</time></trkpt><trkpt lat="45.85297061566708" lon="15.393208997091616"><ele>158.0</ele><time>2026-05-05T07:49:50Z</time></trkpt><trkpt lat="45.85300050721123" lon="15.392904502554924"><ele>158.0</ele><time>2026-05-05T07:49:51Z</time></trkpt><trkpt lat="45.853013866545695" lon="15.39260664895703"><ele>158.0</ele><time>2026-05-05T07:49:52Z</time></trkpt><trkpt lat="45.85302698293187" lon="15.392317718958678"><ele>158.0</ele><time>2026-05-05T07:49:53Z</time></trkpt><trkpt lat="45.85303980527906" lon="15.392035266117816"><ele>158.66666666666666</ele><time>2026-05-05T07:49:54Z</time></trkpt><trkpt lat="45.853051532747806" lon="15.39176355893797"><ele>159.33333333333334</ele><time>2026-05-05T07:49:55Z</time></trkpt><trkpt lat="45.85306417513641" lon="15.391500488565486"><ele>160.0</ele><time>2026-05-05T07:49:56Z</time></trkpt><trkpt lat="45.85307684186771" lon="15.391250481133698"><ele>160.0</ele><time>2026-05-05T07:49:57Z</time></trkpt><trkpt lat="45.85308825231082" lon="15.391000365684825"><ele>160.0</ele><time>2026-05-05T07:49:58Z</time></trkpt><trkpt lat="45.85308309744969" lon="15.390745316638808"><ele>160.0</ele><time>2026-05-05T07:49:59Z</time></trkpt><trkpt lat="45.85310051174844" lon="15.39049743448971"><ele>160.33333333333334</ele><time>2026-05-05T07:50:00Z</time></trkpt><trkpt lat="45.853121395928504" lon="15.390262443916345"><ele>160.66666666666666</ele><time>2026-05-05T07:50:01Z</time></trkpt><trkpt lat="45.85313141552836" lon="15.39002408723419"><ele>161.0</ele><time>2026-05-05T07:50:02Z</time></trkpt><trkpt lat="45.85313245700794" lon="15.389782115987648"><ele>162.0</ele><time>2026-05-05T07:50:03Z</time></trkpt><trkpt lat="45.85315933509522" lon="15.389547870636795"><ele>163.0</ele><time>2026-05-05T07:50:04Z</time></trkpt><trkpt lat="45.853174916748046" lon="15.389305663816964"><ele>164.0</ele><time>2026-05-05T07:50:05Z</time></trkpt><trkpt lat="45.85320556295595" lon="15.389069287058376"><ele>164.33333333333331</ele><time>2026-05-05T07:50:06Z</time></trkpt><trkpt lat="45.85324324789224" lon="15.388831281763995"><ele>164.66666666666666</ele><time>2026-05-05T07:50:07Z</time></trkpt><trkpt lat="45.853283010756584" lon="15.388586539595565"><ele>165.0</ele><time>2026-05-05T07:50:08Z</time></trkpt><trkpt lat="45.85330903737033" lon="15.388344001111461"><ele>165.0</ele><time>2026-05-05T07:50:09Z</time></trkpt><trkpt lat="45.85334978493564" lon="15.388110471014327"><ele>165.0</ele><time>2026-05-05T07:50:10Z</time></trkpt><trkpt lat="45.8533856702644" lon="15.387879455323375"><ele>165.0</ele><time>2026-05-05T07:50:11Z</time></trkpt><trkpt lat="45.85343485476631" lon="15.387652679323038"><ele>165.66666666666666</ele><time>2026-05-05T07:50:12Z</time></trkpt><trkpt lat="45.85344632251659" lon="15.387414292651927"><ele>166.33333333333331</ele><time>2026-05-05T07:50:13Z</time></trkpt><trkpt lat="45.85346995943685" lon="15.387171687825626"><ele>167.0</ele><time>2026-05-05T07:50:14Z</time></trkpt><trkpt lat="45.85349406446906" lon="15.386930665991944"><ele>164.66666666666666</ele><time>2026-05-05T07:50:15Z</time></trkpt><trkpt lat="45.853518844377355" lon="15.386680043926395"><ele>162.33333333333334</ele><time>2026-05-05T07:50:16Z</time></trkpt><trkpt lat="45.85354197041219" lon="15.386432961131478"><ele>160.0</ele><time>2026-05-05T07:50:17Z</time></trkpt><trkpt lat="45.85356515430159" lon="15.386188378120464"><ele>160.0</ele><time>2026-05-05T07:50:18Z</time></trkpt><trkpt lat="45.85358914890392" lon="15.385952189163012"><ele>160.0</ele><time>2026-05-05T07:50:19Z</time></trkpt><trkpt lat="45.853608683652574" lon="15.385713255832803"><ele>160.0</ele><time>2026-05-05T07:50:20Z</time></trkpt><trkpt lat="45.853623275527525" lon="15.385474795921844"><ele>160.0</ele><time>2026-05-05T07:50:21Z</time></trkpt><trkpt lat="45.853633142018886" lon="15.385242094733227"><ele>160.0</ele><time>2026-05-05T07:50:22Z</time></trkpt><trkpt lat="45.853643834803286" lon="15.385010918727108"><ele>160.0</ele><time>2026-05-05T07:50:23Z</time></trkpt><trkpt lat="45.853650523562024" lon="15.384779992246054"><ele>160.0</ele><time>2026-05-05T07:50:24Z</time></trkpt><trkpt lat="45.85366046496076" lon="15.384547485266722"><ele>160.0</ele><time>2026-05-05T07:50:25Z</time></trkpt><trkpt lat="45.85366799860428" lon="15.384311369372094"><ele>160.0</ele><time>2026-05-05T07:50:26Z</time></trkpt><trkpt lat="45.85369246802728" lon="15.384069532413468"><ele>160.0</ele><time>2026-05-05T07:50:27Z</time></trkpt><trkpt lat="45.853689916924445" lon="15.383824449925642"><ele>160.0</ele><time>2026-05-05T07:50:28Z</time></trkpt><trkpt lat="45.85369978302959" lon="15.383575152770854"><ele>160.0</ele><time>2026-05-05T07:50:29Z</time></trkpt><trkpt lat="45.85370639680125" lon="15.383322872503058"><ele>160.0</ele><time>2026-05-05T07:50:30Z</time></trkpt><trkpt lat="45.85371656646448" lon="15.383066997350111"><ele>160.0</ele><time>2026-05-05T07:50:31Z</time></trkpt><trkpt lat="45.85372503675389" lon="15.382809377502138"><ele>160.0</ele><time>2026-05-05T07:50:32Z</time></trkpt><trkpt lat="45.853735074651276" lon="15.382551133540767"><ele>160.0</ele><time>2026-05-05T07:50:33Z</time></trkpt><trkpt lat="45.853741229130264" lon="15.38230129550343"><ele>160.0</ele><time>2026-05-05T07:50:34Z</time></trkpt><trkpt lat="45.85374882477489" lon="15.382057270155409"><ele>160.0</ele><time>2026-05-05T07:50:35Z</time></trkpt><trkpt lat="45.85375701477945" lon="15.381818102761926"><ele>159.66666666666669</ele><time>2026-05-05T07:50:36Z</time></trkpt><trkpt lat="45.85375711564288" lon="15.381579944745669"><ele>159.33333333333334</ele><time>2026-05-05T07:50:37Z</time></trkpt><trkpt lat="45.853738844318706" lon="15.38135141223853"><ele>159.0</ele><time>2026-05-05T07:50:38Z</time></trkpt><trkpt lat="45.853696691491976" lon="15.381127448325188"><ele>159.0</ele><time>2026-05-05T07:50:39Z</time></trkpt><trkpt lat="45.85363992450938" lon="15.380908884161238"><ele>159.0</ele><time>2026-05-05T07:50:40Z</time></trkpt><trkpt lat="45.85358160724097" lon="15.38069466937385"><ele>159.0</ele><time>2026-05-05T07:50:41Z</time></trkpt><trkpt lat="45.85352704226842" lon="15.38047044940964"><ele>159.0</ele><time>2026-05-05T07:50:42Z</time></trkpt><trkpt lat="45.85347559499609" lon="15.380247896397377"><ele>159.0</ele><time>2026-05-05T07:50:43Z</time></trkpt><trkpt lat="45.853426076921735" lon="15.380026568367594"><ele>159.0</ele><time>2026-05-05T07:50:44Z</time></trkpt><trkpt lat="45.8533743989671" lon="15.379800479501034"><ele>159.0</ele><time>2026-05-05T07:50:45Z</time></trkpt><trkpt lat="45.85332233557264" lon="15.379572736407725"><ele>159.0</ele><time>2026-05-05T07:50:46Z</time></trkpt><trkpt lat="45.853269731730514" lon="15.379345252939807"><ele>159.0</ele><time>2026-05-05T07:50:47Z</time></trkpt><trkpt lat="45.85321783061779" lon="15.379120344437975"><ele>159.0</ele><time>2026-05-05T07:50:48Z</time></trkpt><trkpt lat="45.85316317602177" lon="15.37889624279584"><ele>159.0</ele><time>2026-05-05T07:50:49Z</time></trkpt><trkpt lat="45.8531117090022" lon="15.3786737131133"><ele>159.0</ele><time>2026-05-05T07:50:50Z</time></trkpt><trkpt lat="45.85305905749163" lon="15.37844887701905"><ele>159.0</ele><time>2026-05-05T07:50:51Z</time></trkpt><trkpt lat="45.85300692190297" lon="15.378216990784848"><ele>159.0</ele><time>2026-05-05T07:50:52Z</time></trkpt><trkpt lat="45.85295203424087" lon="15.377985288782732"><ele>159.0</ele><time>2026-05-05T07:50:53Z</time></trkpt><trkpt lat="45.85289825275516" lon="15.377751988146583"><ele>159.0</ele><time>2026-05-05T07:50:54Z</time></trkpt><trkpt lat="45.85284320668089" lon="15.377517014416934"><ele>159.0</ele><time>2026-05-05T07:50:55Z</time></trkpt><trkpt lat="45.85278527495459" lon="15.377278828417406"><ele>159.0</ele><time>2026-05-05T07:50:56Z</time></trkpt><trkpt lat="45.85272888238613" lon="15.377041402129445"><ele>159.0</ele><time>2026-05-05T07:50:57Z</time></trkpt><trkpt lat="45.85268077092236" lon="15.376808134774974"><ele>159.0</ele><time>2026-05-05T07:50:58Z</time></trkpt><trkpt lat="45.85263491008405" lon="15.376587620903512"><ele>159.0</ele><time>2026-05-05T07:50:59Z</time></trkpt><trkpt lat="45.852584868602115" lon="15.376397220375656"><ele>159.0</ele><time>2026-05-05T07:51:00Z</time></trkpt><trkpt lat="45.85253429499716" lon="15.376204257463215"><ele>159.0</ele><time>2026-05-05T07:51:01Z</time></trkpt><trkpt lat="45.85248810417798" lon="15.376012539686188"><ele>159.0</ele><time>2026-05-05T07:51:02Z</time></trkpt><trkpt lat="45.85244312515555" lon="15.375817340272842"><ele>159.0</ele><time>2026-05-05T07:51:03Z</time></trkpt><trkpt lat="45.85239703385593" lon="15.375618280618855"><ele>159.0</ele><time>2026-05-05T07:51:04Z</time></trkpt><trkpt lat="45.8523483291526" lon="15.375418715399254"><ele>159.0</ele><time>2026-05-05T07:51:05Z</time></trkpt><trkpt lat="45.85230075798673" lon="15.375212912743912"><ele>159.0</ele><time>2026-05-05T07:51:06Z</time></trkpt><trkpt lat="45.85225221611453" lon="15.375002817093861"><ele>159.0</ele><time>2026-05-05T07:51:07Z</time></trkpt><trkpt lat="45.85219939013643" lon="15.374795824187533"><ele>159.0</ele><time>2026-05-05T07:51:08Z</time></trkpt><trkpt lat="45.85214927069004" lon="15.374570265384426"><ele>159.0</ele><time>2026-05-05T07:51:09Z</time></trkpt><trkpt lat="45.852101247519954" lon="15.374339156772491"><ele>159.33333333333334</ele><time>2026-05-05T07:51:10Z</time></trkpt><trkpt lat="45.85205313669155" lon="15.374106303203519"><ele>159.66666666666669</ele><time>2026-05-05T07:51:11Z</time></trkpt><trkpt lat="45.85199787608352" lon="15.373864329476389"><ele>160.0</ele><time>2026-05-05T07:51:12Z</time></trkpt><trkpt lat="45.851930357475084" lon="15.373607802262784"><ele>160.33333333333334</ele><time>2026-05-05T07:51:13Z</time></trkpt><trkpt lat="45.85185473215898" lon="15.373330667868471"><ele>160.66666666666666</ele><time>2026-05-05T07:51:14Z</time></trkpt><trkpt lat="45.851781005646224" lon="15.373031038788099"><ele>161.0</ele><time>2026-05-05T07:51:15Z</time></trkpt><trkpt lat="45.85170891765093" lon="15.372720355116805"><ele>161.0</ele><time>2026-05-05T07:51:16Z</time></trkpt><trkpt lat="45.85163386653372" lon="15.372408148822876"><ele>161.0</ele><time>2026-05-05T07:51:17Z</time></trkpt><trkpt lat="45.8515556022767" lon="15.372085935979367"><ele>161.0</ele><time>2026-05-05T07:51:18Z</time></trkpt><trkpt lat="45.85147838202405" lon="15.371760807808261"><ele>161.0</ele><time>2026-05-05T07:51:19Z</time></trkpt><trkpt lat="45.85140085520738" lon="15.371434745055538"><ele>161.0</ele><time>2026-05-05T07:51:20Z</time></trkpt><trkpt lat="45.85132414170101" lon="15.371110956409145"><ele>161.0</ele><time>2026-05-05T07:51:21Z</time></trkpt><trkpt lat="45.851247530539766" lon="15.370786207680872"><ele>162.0</ele><time>2026-05-05T07:51:22Z</time></trkpt><trkpt lat="45.85117026125142" lon="15.370459971405657"><ele>163.0</ele><time>2026-05-05T07:51:23Z</time></trkpt><trkpt lat="45.8510928074316" lon="15.370133143912796"><ele>163.0</ele><time>2026-05-05T07:51:24Z</time></trkpt><trkpt lat="45.85101495674773" lon="15.369803507209749"><ele>163.0</ele><time>2026-05-05T07:51:25Z</time></trkpt><trkpt lat="45.850936228127935" lon="15.369468180925768"><ele>163.5</ele><time>2026-05-05T07:51:26Z</time></trkpt><trkpt lat="45.850852156827116" lon="15.369112594759905"><ele>164.0</ele><time>2026-05-05T07:51:27Z</time></trkpt><trkpt lat="45.85076753384229" lon="15.368758829557908"><ele>164.0</ele><time>2026-05-05T07:51:28Z</time></trkpt><trkpt lat="45.85070055483874" lon="15.36840162713753"><ele>164.0</ele><time>2026-05-05T07:51:29Z</time></trkpt><trkpt lat="45.85061990032391" lon="15.36806235094004"><ele>164.0</ele><time>2026-05-05T07:51:30Z</time></trkpt><trkpt lat="45.85054236854604" lon="15.367733811462681"><ele>164.0</ele><time>2026-05-05T07:51:31Z</time></trkpt><trkpt lat="45.85047038233844" lon="15.367428349646415"><ele>164.33333333333331</ele><time>2026-05-05T07:51:32Z</time></trkpt><trkpt lat="45.850388545610045" lon="15.367154345445558"><ele>164.66666666666666</ele><time>2026-05-05T07:51:33Z</time></trkpt><trkpt lat="45.85034223647501" lon="15.366884583639491"><ele>165.0</ele><time>2026-05-05T07:51:34Z</time></trkpt><trkpt lat="45.85028450637623" lon="15.366639615372847"><ele>165.0</ele><time>2026-05-05T07:51:35Z</time></trkpt><trkpt lat="45.850230045522345" lon="15.36640851964836"><ele>165.0</ele><time>2026-05-05T07:51:36Z</time></trkpt><trkpt lat="45.85015950317107" lon="15.366181746686404"><ele>165.0</ele><time>2026-05-05T07:51:37Z</time></trkpt><trkpt lat="45.850106777713506" lon="15.365951174520294"><ele>165.66666666666666</ele><time>2026-05-05T07:51:38Z</time></trkpt><trkpt lat="45.85005635333652" lon="15.365731733327914"><ele>166.33333333333331</ele><time>2026-05-05T07:51:39Z</time></trkpt><trkpt lat="45.850004773205505" lon="15.365519389953391"><ele>167.0</ele><time>2026-05-05T07:51:40Z</time></trkpt><trkpt lat="45.84996841608617" lon="15.365298966704449"><ele>167.0</ele><time>2026-05-05T07:51:41Z</time></trkpt><trkpt lat="45.84992030089628" lon="15.365094505918176"><ele>167.0</ele><time>2026-05-05T07:51:42Z</time></trkpt><trkpt lat="45.84987474134223" lon="15.364899450340317"><ele>167.0</ele><time>2026-05-05T07:51:43Z</time></trkpt><trkpt lat="45.849832512756954" lon="15.364718655788286"><ele>167.0</ele><time>2026-05-05T07:51:44Z</time></trkpt><trkpt lat="45.84979389266078" lon="15.364554743710018"><ele>167.0</ele><time>2026-05-05T07:51:45Z</time></trkpt><trkpt lat="45.849759746265846" lon="15.36441336629589"><ele>167.0</ele><time>2026-05-05T07:51:46Z</time></trkpt><trkpt lat="45.84972746828147" lon="15.364279724698616"><ele>167.0</ele><time>2026-05-05T07:51:47Z</time></trkpt><trkpt lat="45.84969745625513" lon="15.364154006717989"><ele>167.0</ele><time>2026-05-05T07:51:48Z</time></trkpt><trkpt lat="45.84966804311004" lon="15.364028103389336"><ele>167.0</ele><time>2026-05-05T07:51:49Z</time></trkpt><trkpt lat="45.849639036801996" lon="15.363903043430254"><ele>166.8</ele><time>2026-05-05T07:51:50Z</time></trkpt><trkpt lat="45.84960898460687" lon="15.363773186499788"><ele>166.6</ele><time>2026-05-05T07:51:51Z</time></trkpt><trkpt lat="45.84957831445144" lon="15.363640659335474"><ele>166.4</ele><time>2026-05-05T07:51:52Z</time></trkpt><trkpt lat="45.84954495578609" lon="15.363504906209409"><ele>166.20000000000002</ele><time>2026-05-05T07:51:53Z</time></trkpt><trkpt lat="45.84951010581621" lon="15.363363429608654"><ele>166.0</ele><time>2026-05-05T07:51:54Z</time></trkpt><trkpt lat="45.84947367513358" lon="15.363215535954334"><ele>166.0</ele><time>2026-05-05T07:51:55Z</time></trkpt><trkpt lat="45.84943902716445" lon="15.36306734071491"><ele>166.0</ele><time>2026-05-05T07:51:56Z</time></trkpt><trkpt lat="45.849404594063" lon="15.362923050999179"><ele>166.0</ele><time>2026-05-05T07:51:57Z</time></trkpt><trkpt lat="45.84937017484511" lon="15.362779071616231"><ele>166.0</ele><time>2026-05-05T07:51:58Z</time></trkpt><trkpt lat="45.849336151154645" lon="15.362636746735102"><ele>166.0</ele><time>2026-05-05T07:51:59Z</time></trkpt><trkpt lat="45.84930326945852" lon="15.362498301594979"><ele>166.20000000000002</ele><time>2026-05-05T07:52:00Z</time></trkpt><trkpt lat="45.84927345637777" lon="15.36237169167981"><ele>166.4</ele><time>2026-05-05T07:52:01Z</time></trkpt><trkpt lat="45.8492450602146" lon="15.362251099067999"><ele>166.6</ele><time>2026-05-05T07:52:02Z</time></trkpt><trkpt lat="45.84921292867758" lon="15.36211464026172"><ele>166.8</ele><time>2026-05-05T07:52:03Z</time></trkpt><trkpt lat="45.849174509513055" lon="15.361951478648157"><ele>167.0</ele><time>2026-05-05T07:52:04Z</time></trkpt><trkpt lat="45.84910882071518" lon="15.361780833507666"><ele>167.0</ele><time>2026-05-05T07:52:05Z</time></trkpt><trkpt lat="45.84904363259683" lon="15.361580066268202"><ele>167.0</ele><time>2026-05-05T07:52:06Z</time></trkpt><trkpt lat="45.84897955305051" lon="15.361341015136848"><ele>167.0</ele><time>2026-05-05T07:52:07Z</time></trkpt><trkpt lat="45.848921783242034" lon="15.361041852957067"><ele>167.0</ele><time>2026-05-05T07:52:08Z</time></trkpt><trkpt lat="45.84885515940983" lon="15.36069201618291"><ele>167.0</ele><time>2026-05-05T07:52:09Z</time></trkpt><trkpt lat="45.84876117126302" lon="15.36027692567934"><ele>167.5</ele><time>2026-05-05T07:52:10Z</time></trkpt><trkpt lat="45.84865828365294" lon="15.3598416536919"><ele>168.0</ele><time>2026-05-05T07:52:11Z</time></trkpt><trkpt lat="45.84855052594742" lon="15.359394830300307"><ele>168.5</ele><time>2026-05-05T07:52:12Z</time></trkpt><trkpt lat="45.848446630149034" lon="15.358962013541708"><ele>169.0</ele><time>2026-05-05T07:52:13Z</time></trkpt><trkpt lat="45.84835069724134" lon="15.358548027073391"><ele>169.0</ele><time>2026-05-05T07:52:14Z</time></trkpt><trkpt lat="45.84825817011719" lon="15.358152456802106"><ele>169.0</ele><time>2026-05-05T07:52:15Z</time></trkpt><trkpt lat="45.848167195029575" lon="15.35776946863988"><ele>170.0</ele><time>2026-05-05T07:52:16Z</time></trkpt><trkpt lat="45.84808081504464" lon="15.357399614175414"><ele>171.0</ele><time>2026-05-05T07:52:17Z</time></trkpt><trkpt lat="45.847997430487844" lon="15.357038923214736"><ele>171.0</ele><time>2026-05-05T07:52:18Z</time></trkpt><trkpt lat="45.84791617953466" lon="15.356685340363722"><ele>171.0</ele><time>2026-05-05T07:52:19Z</time></trkpt><trkpt lat="45.847835571154796" lon="15.35634232096994"><ele>172.0</ele><time>2026-05-05T07:52:20Z</time></trkpt><trkpt lat="45.84775623031513" lon="15.356005953844933"><ele>173.0</ele><time>2026-05-05T07:52:21Z</time></trkpt><trkpt lat="45.84767640618084" lon="15.355676946875779"><ele>172.5</ele><time>2026-05-05T07:52:22Z</time></trkpt><trkpt lat="45.84760002345717" lon="15.355349580716029"><ele>172.0</ele><time>2026-05-05T07:52:23Z</time></trkpt><trkpt lat="45.84752406623936" lon="15.355025727306936"><ele>172.0</ele><time>2026-05-05T07:52:24Z</time></trkpt><trkpt lat="45.84744956121378" lon="15.354705676366475"><ele>172.0</ele><time>2026-05-05T07:52:25Z</time></trkpt><trkpt lat="45.84737206453634" lon="15.35438104265282"><ele>172.0</ele><time>2026-05-05T07:52:26Z</time></trkpt><trkpt lat="45.84729527013215" lon="15.354062041787747"><ele>172.0</ele><time>2026-05-05T07:52:27Z</time></trkpt><trkpt lat="45.84721882320605" lon="15.353742924560729"><ele>172.0</ele><time>2026-05-05T07:52:28Z</time></trkpt><trkpt lat="45.847141621788026" lon="15.353418621634903"><ele>172.0</ele><time>2026-05-05T07:52:29Z</time></trkpt><trkpt lat="45.84706644813917" lon="15.35309371007211"><ele>172.5</ele><time>2026-05-05T07:52:30Z</time></trkpt><trkpt lat="45.84698877833923" lon="15.352768413361552"><ele>173.0</ele><time>2026-05-05T07:52:31Z</time></trkpt><trkpt lat="45.84691024479694" lon="15.352444108919928"><ele>172.5</ele><time>2026-05-05T07:52:32Z</time></trkpt><trkpt lat="45.84682881066564" lon="15.352118410926975"><ele>172.0</ele><time>2026-05-05T07:52:33Z</time></trkpt><trkpt lat="45.84675024724713" lon="15.351790421953288"><ele>173.0</ele><time>2026-05-05T07:52:34Z</time></trkpt><trkpt lat="45.84667361246273" lon="15.351461627601484"><ele>174.0</ele><time>2026-05-05T07:52:35Z</time></trkpt><trkpt lat="45.84660018084339" lon="15.35114162766153"><ele>174.0</ele><time>2026-05-05T07:52:36Z</time></trkpt><trkpt lat="45.846528753964364" lon="15.350834141898586"><ele>174.0</ele><time>2026-05-05T07:52:37Z</time></trkpt><trkpt lat="45.84645909091826" lon="15.350532136641355"><ele>174.0</ele><time>2026-05-05T07:52:38Z</time></trkpt><trkpt lat="45.84638989827378" lon="15.35023017482905"><ele>174.66666666666666</ele><time>2026-05-05T07:52:39Z</time></trkpt><trkpt lat="45.84631888856596" lon="15.349925258157983"><ele>175.33333333333331</ele><time>2026-05-05T07:52:40Z</time></trkpt><trkpt lat="45.846245628738274" lon="15.349620150434713"><ele>176.0</ele><time>2026-05-05T07:52:41Z</time></trkpt><trkpt lat="45.846169023497275" lon="15.349316343172926"><ele>176.5</ele><time>2026-05-05T07:52:42Z</time></trkpt><trkpt lat="45.84609366750163" lon="15.349009858140732"><ele>177.0</ele><time>2026-05-05T07:52:43Z</time></trkpt><trkpt lat="45.846020487130325" lon="15.348699424525114"><ele>178.0</ele><time>2026-05-05T07:52:44Z</time></trkpt><trkpt lat="45.84594763631303" lon="15.34839063663001"><ele>179.0</ele><time>2026-05-05T07:52:45Z</time></trkpt><trkpt lat="45.845877432038016" lon="15.348086098464035"><ele>179.66666666666666</ele><time>2026-05-05T07:52:46Z</time></trkpt><trkpt lat="45.84580610896288" lon="15.347784950079328"><ele>180.33333333333334</ele><time>2026-05-05T07:52:47Z</time></trkpt><trkpt lat="45.84573642096324" lon="15.347485389628003"><ele>181.0</ele><time>2026-05-05T07:52:48Z</time></trkpt><trkpt lat="45.8456665527921" lon="15.347183559342902"><ele>181.33333333333334</ele><time>2026-05-05T07:52:49Z</time></trkpt><trkpt lat="45.845596982623476" lon="15.346881528970153"><ele>181.66666666666666</ele><time>2026-05-05T07:52:50Z</time></trkpt><trkpt lat="45.84552666723488" lon="15.346581762999444"><ele>182.0</ele><time>2026-05-05T07:52:51Z</time></trkpt><trkpt lat="45.84547208455044" lon="15.346278584971138"><ele>182.0</ele><time>2026-05-05T07:52:52Z</time></trkpt><trkpt lat="45.84538955632097" lon="15.345998692521984"><ele>182.0</ele><time>2026-05-05T07:52:53Z</time></trkpt><trkpt lat="45.8453240064431" lon="15.345711298553772"><ele>182.0</ele><time>2026-05-05T07:52:54Z</time></trkpt><trkpt lat="45.84525909450674" lon="15.345436949497003"><ele>182.33333333333331</ele><time>2026-05-05T07:52:55Z</time></trkpt><trkpt lat="45.84521093516697" lon="15.345167359029674"><ele>182.66666666666666</ele><time>2026-05-05T07:52:56Z</time></trkpt><trkpt lat="45.84515225484787" lon="15.34492186637745"><ele>183.0</ele><time>2026-05-05T07:52:57Z</time></trkpt><trkpt lat="45.84509722249402" lon="15.344691632413006"><ele>183.25</ele><time>2026-05-05T07:52:58Z</time></trkpt><trkpt lat="45.84504423466864" lon="15.344464286707495"><ele>183.5</ele><time>2026-05-05T07:52:59Z</time></trkpt><trkpt lat="45.84499755637589" lon="15.344268025060948"><ele>183.75</ele><time>2026-05-05T07:53:00Z</time></trkpt><trkpt lat="45.844955922651806" lon="15.344092973583074"><ele>184.0</ele><time>2026-05-05T07:53:01Z</time></trkpt><trkpt lat="45.8449182741304" lon="15.343934676133932"><ele>183.79999999999998</ele><time>2026-05-05T07:53:02Z</time></trkpt><trkpt lat="45.844884179126204" lon="15.343787810915035"><ele>183.6</ele><time>2026-05-05T07:53:03Z</time></trkpt><trkpt lat="45.844851669504465" lon="15.343648938743888"><ele>183.4</ele><time>2026-05-05T07:53:04Z</time></trkpt><trkpt lat="45.844820983971616" lon="15.343517858127877"><ele>183.2</ele><time>2026-05-05T07:53:05Z</time></trkpt><trkpt lat="45.84479374575496" lon="15.343401503684571"><ele>183.0</ele><time>2026-05-05T07:53:06Z</time></trkpt><trkpt lat="45.84476896976949" lon="15.34329566729363"><ele>183.0</ele><time>2026-05-05T07:53:07Z</time></trkpt><trkpt lat="45.844737855869255" lon="15.343209029390925"><ele>183.0</ele><time>2026-05-05T07:53:08Z</time></trkpt><trkpt lat="45.84470277870485" lon="15.343075664156558"><ele>183.0</ele><time>2026-05-05T07:53:10Z</time></trkpt><trkpt lat="45.844678328460915" lon="15.342971193225273"><ele>183.0</ele><time>2026-05-05T07:53:12Z</time></trkpt><trkpt lat="45.84464563199296" lon="15.342819119588253"><ele>183.0</ele><time>2026-05-05T07:53:14Z</time></trkpt><trkpt lat="45.844622434038016" lon="15.342716570479787"><ele>183.0</ele><time>2026-05-05T07:53:15Z</time></trkpt><trkpt lat="45.84459275486461" lon="15.34258635747964"><ele>182.75</ele><time>2026-05-05T07:53:16Z</time></trkpt><trkpt lat="45.84455753685509" lon="15.342439352185085"><ele>182.5</ele><time>2026-05-05T07:53:17Z</time></trkpt><trkpt lat="45.84451709662031" lon="15.3422771203325"><ele>182.25</ele><time>2026-05-05T07:53:18Z</time></trkpt><trkpt lat="45.84447343223105" lon="15.342104604523817"><ele>182.0</ele><time>2026-05-05T07:53:19Z</time></trkpt><trkpt lat="45.844431034093176" lon="15.341923659170389"><ele>182.75</ele><time>2026-05-05T07:53:20Z</time></trkpt><trkpt lat="45.84438778723572" lon="15.341740106992416"><ele>183.5</ele><time>2026-05-05T07:53:21Z</time></trkpt><trkpt lat="45.84434605198684" lon="15.341554516874387"><ele>184.25</ele><time>2026-05-05T07:53:22Z</time></trkpt><trkpt lat="45.84430586978042" lon="15.341375248219423"><ele>185.0</ele><time>2026-05-05T07:53:23Z</time></trkpt><trkpt lat="45.84426374254975" lon="15.341199243153092"><ele>185.25</ele><time>2026-05-05T07:53:24Z</time></trkpt><trkpt lat="45.84422228839291" lon="15.34102127186727"><ele>185.5</ele><time>2026-05-05T07:53:25Z</time></trkpt><trkpt lat="45.84418341296575" lon="15.3408516262549"><ele>185.75</ele><time>2026-05-05T07:53:26Z</time></trkpt><trkpt lat="45.84414647053706" lon="15.340698247870106"><ele>186.0</ele><time>2026-05-05T07:53:27Z</time></trkpt><trkpt lat="45.844113618476" lon="15.340555148644196"><ele>185.8</ele><time>2026-05-05T07:53:28Z</time></trkpt><trkpt lat="45.844083290042356" lon="15.340420547910103"><ele>185.60000000000002</ele><time>2026-05-05T07:53:29Z</time></trkpt><trkpt lat="45.844054863343956" lon="15.340296741920586"><ele>185.4</ele><time>2026-05-05T07:53:30Z</time></trkpt><trkpt lat="45.844028601300145" lon="15.340180509318232"><ele>185.2</ele><time>2026-05-05T07:53:31Z</time></trkpt><trkpt lat="45.8439996440792" lon="15.340063822903142"><ele>185.0</ele><time>2026-05-05T07:53:32Z</time></trkpt><trkpt lat="45.84396604422457" lon="15.33993688172551"><ele>185.0</ele><time>2026-05-05T07:53:33Z</time></trkpt><trkpt lat="45.843930528513056" lon="15.339803245536496"><ele>185.0</ele><time>2026-05-05T07:53:34Z</time></trkpt><trkpt lat="45.84389227353273" lon="15.339677980554091"><ele>185.0</ele><time>2026-05-05T07:53:35Z</time></trkpt><trkpt lat="45.84386737535069" lon="15.339547268273671"><ele>185.0</ele><time>2026-05-05T07:53:36Z</time></trkpt><trkpt lat="45.843836174374594" lon="15.339419175907471"><ele>185.0</ele><time>2026-05-05T07:53:37Z</time></trkpt><trkpt lat="45.84380492351836" lon="15.339287877940063"><ele>185.0</ele><time>2026-05-05T07:53:38Z</time></trkpt><trkpt lat="45.84377530198051" lon="15.339159871235053"><ele>185.0</ele><time>2026-05-05T07:53:39Z</time></trkpt><trkpt lat="45.84374545462615" lon="15.339030230197887"><ele>185.0</ele><time>2026-05-05T07:53:40Z</time></trkpt><trkpt lat="45.8437134986264" lon="15.338901450227139"><ele>185.0</ele><time>2026-05-05T07:53:41Z</time></trkpt><trkpt lat="45.84369027691956" lon="15.338779030486327"><ele>185.0</ele><time>2026-05-05T07:53:42Z</time></trkpt><trkpt lat="45.84366465774675" lon="15.338679016659178"><ele>185.0</ele><time>2026-05-05T07:53:43Z</time></trkpt><trkpt lat="45.84362970284881" lon="15.338529938551183"><ele>185.0</ele><time>2026-05-05T07:53:45Z</time></trkpt><trkpt lat="45.843603382966116" lon="15.338432431641014"><ele>185.0</ele><time>2026-05-05T07:53:48Z</time></trkpt><trkpt lat="45.84359376664694" lon="15.338325778719675"><ele>185.0</ele><time>2026-05-05T07:54:10Z</time></trkpt><trkpt lat="45.84356466321085" lon="15.338204857628822"><ele>185.0</ele><time>2026-05-05T07:54:12Z</time></trkpt><trkpt lat="45.84352631794051" lon="15.33806560858625"><ele>185.0</ele><time>2026-05-05T07:54:14Z</time></trkpt><trkpt lat="45.843546505331275" lon="15.337969490808685"><ele>185.0</ele><time>2026-05-05T07:54:17Z</time></trkpt><trkpt lat="45.843637587008025" lon="15.33794735608784"><ele>185.0</ele><time>2026-05-05T07:54:18Z</time></trkpt><trkpt lat="45.843706905509436" lon="15.337950853894004"><ele>185.0</ele><time>2026-05-05T07:54:19Z</time></trkpt><trkpt lat="45.84378627460998" lon="15.337953891602025"><ele>185.0</ele><time>2026-05-05T07:54:20Z</time></trkpt><trkpt lat="45.84387991420917" lon="15.337949077192693"><ele>185.0</ele><time>2026-05-05T07:54:21Z</time></trkpt><trkpt lat="45.84398213542208" lon="15.337939926580164"><ele>185.0</ele><time>2026-05-05T07:54:22Z</time></trkpt><trkpt lat="45.84408242385232" lon="15.3379449150781"><ele>185.0</ele><time>2026-05-05T07:54:23Z</time></trkpt><trkpt lat="45.8441820275099" lon="15.337944868288037"><ele>185.0</ele><time>2026-05-05T07:54:24Z</time></trkpt><trkpt lat="45.844277733489434" lon="15.337941021109"><ele>185.0</ele><time>2026-05-05T07:54:25Z</time></trkpt><trkpt lat="45.844365025514136" lon="15.337938894548953"><ele>185.0</ele><time>2026-05-05T07:54:26Z</time></trkpt><trkpt lat="45.844452817382916" lon="15.337917684804"><ele>185.0</ele><time>2026-05-05T07:54:27Z</time></trkpt><trkpt lat="45.844534250438656" lon="15.337882825178564"><ele>185.0</ele><time>2026-05-05T07:54:28Z</time></trkpt><trkpt lat="45.84461275569922" lon="15.3378378824421"><ele>185.0</ele><time>2026-05-05T07:54:29Z</time></trkpt><trkpt lat="45.84469011232503" lon="15.337796469304214"><ele>184.5</ele><time>2026-05-05T07:54:30Z</time></trkpt><trkpt lat="45.84477004264668" lon="15.337754965908521"><ele>184.0</ele><time>2026-05-05T07:54:31Z</time></trkpt><trkpt lat="45.844847515617296" lon="15.337716057075355"><ele>183.5</ele><time>2026-05-05T07:54:32Z</time></trkpt><trkpt lat="45.844928967044765" lon="15.33768270067275"><ele>183.0</ele><time>2026-05-05T07:54:33Z</time></trkpt><trkpt lat="45.84501450157269" lon="15.337654781097847"><ele>182.5</ele><time>2026-05-05T07:54:34Z</time></trkpt><trkpt lat="45.845106212131064" lon="15.337636319949464"><ele>182.0</ele><time>2026-05-05T07:54:35Z</time></trkpt><trkpt lat="45.845204243485696" lon="15.337632594328797"><ele>181.6</ele><time>2026-05-05T07:54:36Z</time></trkpt><trkpt lat="45.8453035840839" lon="15.33763311224003"><ele>181.2</ele><time>2026-05-05T07:54:37Z</time></trkpt><trkpt lat="45.84539935807922" lon="15.337627431537488"><ele>180.8</ele><time>2026-05-05T07:54:38Z</time></trkpt><trkpt lat="45.84548750789602" lon="15.337614790419527"><ele>180.4</ele><time>2026-05-05T07:54:39Z</time></trkpt><trkpt lat="45.84557142627672" lon="15.337597790955225"><ele>180.0</ele><time>2026-05-05T07:54:40Z</time></trkpt><trkpt lat="45.84565697964343" lon="15.33757546118109"><ele>180.0</ele><time>2026-05-05T07:54:41Z</time></trkpt><trkpt lat="45.84574444454173" lon="15.337541299640524"><ele>180.0</ele><time>2026-05-05T07:54:42Z</time></trkpt><trkpt lat="45.84583182292484" lon="15.337505355437052"><ele>180.0</ele><time>2026-05-05T07:54:43Z</time></trkpt><trkpt lat="45.845919523880646" lon="15.337475853362305"><ele>180.0</ele><time>2026-05-05T07:54:44Z</time></trkpt><trkpt lat="45.84601512188305" lon="15.337442785504429"><ele>180.0</ele><time>2026-05-05T07:54:45Z</time></trkpt><trkpt lat="45.846105973766846" lon="15.337404822019328"><ele>179.8</ele><time>2026-05-05T07:54:46Z</time></trkpt><trkpt lat="45.84619819365026" lon="15.337364037643018"><ele>179.6</ele><time>2026-05-05T07:54:47Z</time></trkpt><trkpt lat="45.846283374402944" lon="15.337326594707646"><ele>179.39999999999998</ele><time>2026-05-05T07:54:48Z</time></trkpt><trkpt lat="45.846370741571576" lon="15.337278349276044"><ele>179.2</ele><time>2026-05-05T07:54:49Z</time></trkpt><trkpt lat="45.84646838587216" lon="15.337226646365583"><ele>179.0</ele><time>2026-05-05T07:54:50Z</time></trkpt><trkpt lat="45.84658103457078" lon="15.337189763325835"><ele>178.75</ele><time>2026-05-05T07:54:51Z</time></trkpt><trkpt lat="45.84669014236353" lon="15.337104205925415"><ele>178.5</ele><time>2026-05-05T07:54:52Z</time></trkpt><trkpt lat="45.84681456948104" lon="15.33703659774168"><ele>178.25</ele><time>2026-05-05T07:54:53Z</time></trkpt><trkpt lat="45.84693954675026" lon="15.336966835091898"><ele>178.0</ele><time>2026-05-05T07:54:54Z</time></trkpt><trkpt lat="45.84706453806615" lon="15.336893330908488"><ele>177.75</ele><time>2026-05-05T07:54:55Z</time></trkpt><trkpt lat="45.84718301208489" lon="15.336815235706583"><ele>177.5</ele><time>2026-05-05T07:54:56Z</time></trkpt><trkpt lat="45.84729436730134" lon="15.33674465124777"><ele>177.25</ele><time>2026-05-05T07:54:57Z</time></trkpt><trkpt lat="45.84739992535021" lon="15.336686761089217"><ele>177.0</ele><time>2026-05-05T07:54:58Z</time></trkpt><trkpt lat="45.8475046878602" lon="15.336647526036053"><ele>177.0</ele><time>2026-05-05T07:54:59Z</time></trkpt><trkpt lat="45.847615246786056" lon="15.3366459985243"><ele>177.0</ele><time>2026-05-05T07:55:00Z</time></trkpt><trkpt lat="45.8477224267912" lon="15.33662482999422"><ele>177.0</ele><time>2026-05-05T07:55:01Z</time></trkpt><trkpt lat="45.847838103898724" lon="15.336525159274048"><ele>177.0</ele><time>2026-05-05T07:55:02Z</time></trkpt><trkpt lat="45.8479212868489" lon="15.336314299792058"><ele>176.75</ele><time>2026-05-05T07:55:04Z</time></trkpt><trkpt lat="45.84804531404886" lon="15.336236535015484"><ele>176.5</ele><time>2026-05-05T07:55:05Z</time></trkpt><trkpt lat="45.84818378409547" lon="15.33617544246664"><ele>176.25</ele><time>2026-05-05T07:55:06Z</time></trkpt><trkpt lat="45.84832841349666" lon="15.336105560468367"><ele>176.0</ele><time>2026-05-05T07:55:07Z</time></trkpt><trkpt lat="45.84849758977563" lon="15.336068978328655"><ele>175.66666666666666</ele><time>2026-05-05T07:55:08Z</time></trkpt><trkpt lat="45.84867769362208" lon="15.33602696254588"><ele>175.33333333333334</ele><time>2026-05-05T07:55:09Z</time></trkpt><trkpt lat="45.84886658313695" lon="15.33599033027992"><ele>175.0</ele><time>2026-05-05T07:55:10Z</time></trkpt><trkpt lat="45.849066472958164" lon="15.335980021570135"><ele>175.0</ele><time>2026-05-05T07:55:11Z</time></trkpt><trkpt lat="45.849270053739986" lon="15.335969799367723"><ele>175.0</ele><time>2026-05-05T07:55:12Z</time></trkpt><trkpt lat="45.84947979697976" lon="15.335987195775889"><ele>175.0</ele><time>2026-05-05T07:55:13Z</time></trkpt><trkpt lat="45.849691067670015" lon="15.33605168890558"><ele>174.0</ele><time>2026-05-05T07:55:14Z</time></trkpt><trkpt lat="45.849915673566905" lon="15.336105837401735"><ele>173.0</ele><time>2026-05-05T07:55:15Z</time></trkpt><trkpt lat="45.85013666478079" lon="15.336150232763435"><ele>172.33333333333331</ele><time>2026-05-05T07:55:16Z</time></trkpt><trkpt lat="45.85035390984386" lon="15.33620659591225"><ele>171.66666666666666</ele><time>2026-05-05T07:55:17Z</time></trkpt><trkpt lat="45.850572731796774" lon="15.336257159906584"><ele>171.0</ele><time>2026-05-05T07:55:18Z</time></trkpt><trkpt lat="45.850794607784586" lon="15.336306653143845"><ele>170.5</ele><time>2026-05-05T07:55:19Z</time></trkpt><trkpt lat="45.85102082985478" lon="15.336360251497787"><ele>170.0</ele><time>2026-05-05T07:55:20Z</time></trkpt><trkpt lat="45.85124833497332" lon="15.336413629303035"><ele>171.0</ele><time>2026-05-05T07:55:21Z</time></trkpt><trkpt lat="45.85147835782011" lon="15.3364679125523"><ele>172.0</ele><time>2026-05-05T07:55:22Z</time></trkpt><trkpt lat="45.85170961163679" lon="15.336527529930795"><ele>170.5</ele><time>2026-05-05T07:55:23Z</time></trkpt><trkpt lat="45.85194574985743" lon="15.336588187790365"><ele>169.0</ele><time>2026-05-05T07:55:24Z</time></trkpt><trkpt lat="45.85219025713276" lon="15.336646099607353"><ele>169.0</ele><time>2026-05-05T07:55:25Z</time></trkpt><trkpt lat="45.85243339928681" lon="15.336697921263909"><ele>169.0</ele><time>2026-05-05T07:55:26Z</time></trkpt><trkpt lat="45.85269204137008" lon="15.336731919135914"><ele>168.5</ele><time>2026-05-05T07:55:27Z</time></trkpt><trkpt lat="45.85295598645222" lon="15.336751660935258"><ele>168.0</ele><time>2026-05-05T07:55:28Z</time></trkpt><trkpt lat="45.85322693386268" lon="15.336764615048715"><ele>167.5</ele><time>2026-05-05T07:55:29Z</time></trkpt><trkpt lat="45.85350066136252" lon="15.33676017893213"><ele>167.0</ele><time>2026-05-05T07:55:30Z</time></trkpt><trkpt lat="45.853772021314626" lon="15.336728213227284"><ele>167.0</ele><time>2026-05-05T07:55:31Z</time></trkpt><trkpt lat="45.85404890885124" lon="15.336680785992227"><ele>167.0</ele><time>2026-05-05T07:55:32Z</time></trkpt><trkpt lat="45.854335478764774" lon="15.336618422508945"><ele>167.0</ele><time>2026-05-05T07:55:33Z</time></trkpt><trkpt lat="45.85463624082365" lon="15.336560283685687"><ele>167.0</ele><time>2026-05-05T07:55:34Z</time></trkpt><trkpt lat="45.85494845956377" lon="15.336499838760991"><ele>167.0</ele><time>2026-05-05T07:55:35Z</time></trkpt><trkpt lat="45.85525316003725" lon="15.336455403489229"><ele>167.0</ele><time>2026-05-05T07:55:36Z</time></trkpt><trkpt lat="45.855562003219134" lon="15.336420826973816"><ele>167.0</ele><time>2026-05-05T07:55:37Z</time></trkpt><trkpt lat="45.85586480052664" lon="15.336391429895762"><ele>167.0</ele><time>2026-05-05T07:55:38Z</time></trkpt><trkpt lat="45.856160088982584" lon="15.336365256658947"><ele>166.0</ele><time>2026-05-05T07:55:39Z</time></trkpt><trkpt lat="45.85643353007114" lon="15.336339000546861"><ele>165.0</ele><time>2026-05-05T07:55:40Z</time></trkpt><trkpt lat="45.85669128755792" lon="15.3363228248404"><ele>165.0</ele><time>2026-05-05T07:55:41Z</time></trkpt><trkpt lat="45.856933805433854" lon="15.336310763076458"><ele>165.0</ele><time>2026-05-05T07:55:42Z</time></trkpt><trkpt lat="45.85716401595293" lon="15.336296751150302"><ele>165.0</ele><time>2026-05-05T07:55:43Z</time></trkpt><trkpt lat="45.85737932477298" lon="15.336288149629095"><ele>165.0</ele><time>2026-05-05T07:55:44Z</time></trkpt><trkpt lat="45.85758280218948" lon="15.336284048627224"><ele>165.0</ele><time>2026-05-05T07:55:45Z</time></trkpt><trkpt lat="45.85778196503942" lon="15.336281506193568"><ele>164.33333333333334</ele><time>2026-05-05T07:55:46Z</time></trkpt><trkpt lat="45.857979623284045" lon="15.336292369240413"><ele>163.66666666666669</ele><time>2026-05-05T07:55:47Z</time></trkpt><trkpt lat="45.85817651024008" lon="15.336324039096533"><ele>163.0</ele><time>2026-05-05T07:55:48Z</time></trkpt><trkpt lat="45.85837519128167" lon="15.33635832669917"><ele>162.66666666666669</ele><time>2026-05-05T07:55:49Z</time></trkpt><trkpt lat="45.85857132660171" lon="15.336380507133798"><ele>162.33333333333334</ele><time>2026-05-05T07:55:50Z</time></trkpt><trkpt lat="45.8587688863042" lon="15.336389163910734"><ele>162.0</ele><time>2026-05-05T07:55:51Z</time></trkpt><trkpt lat="45.85896135011566" lon="15.336383602395227"><ele>162.0</ele><time>2026-05-05T07:55:52Z</time></trkpt><trkpt lat="45.8591523163728" lon="15.33636619343056"><ele>162.0</ele><time>2026-05-05T07:55:53Z</time></trkpt><trkpt lat="45.859340506922166" lon="15.336339175800248"><ele>162.0</ele><time>2026-05-05T07:55:54Z</time></trkpt><trkpt lat="45.859528416007244" lon="15.33630230491704"><ele>161.33333333333334</ele><time>2026-05-05T07:55:55Z</time></trkpt><trkpt lat="45.859710899874244" lon="15.336261726175564"><ele>160.66666666666669</ele><time>2026-05-05T07:55:56Z</time></trkpt><trkpt lat="45.85989521471924" lon="15.336217621445675"><ele>160.0</ele><time>2026-05-05T07:55:57Z</time></trkpt><trkpt lat="45.860078075416936" lon="15.336172869326289"><ele>159.33333333333334</ele><time>2026-05-05T07:55:58Z</time></trkpt><trkpt lat="45.860259682709454" lon="15.33613361764958"><ele>158.66666666666666</ele><time>2026-05-05T07:55:59Z</time></trkpt><trkpt lat="45.86044478204489" lon="15.336100787123087"><ele>158.0</ele><time>2026-05-05T07:56:00Z</time></trkpt><trkpt lat="45.86063307022023" lon="15.33607358874997"><ele>158.0</ele><time>2026-05-05T07:56:01Z</time></trkpt><trkpt lat="45.86082556986087" lon="15.336046928154522"><ele>158.0</ele><time>2026-05-05T07:56:02Z</time></trkpt><trkpt lat="45.86101806648765" lon="15.336040408817116"><ele>158.0</ele><time>2026-05-05T07:56:03Z</time></trkpt><trkpt lat="45.8612142747308" lon="15.336042728103394"><ele>158.33333333333331</ele><time>2026-05-05T07:56:04Z</time></trkpt><trkpt lat="45.86140314790434" lon="15.336049083099937"><ele>158.66666666666666</ele><time>2026-05-05T07:56:05Z</time></trkpt><trkpt lat="45.86157737343285" lon="15.336054101083109"><ele>159.0</ele><time>2026-05-05T07:56:06Z</time></trkpt><trkpt lat="45.861744353931385" lon="15.336048430479753"><ele>159.0</ele><time>2026-05-05T07:56:07Z</time></trkpt><trkpt lat="45.86190098495805" lon="15.336041772362277"><ele>159.0</ele><time>2026-05-05T07:56:08Z</time></trkpt><trkpt lat="45.86204947181705" lon="15.336034220765708"><ele>159.0</ele><time>2026-05-05T07:56:09Z</time></trkpt><trkpt lat="45.86220276612631" lon="15.336007533553579"><ele>159.0</ele><time>2026-05-05T07:56:10Z</time></trkpt><trkpt lat="45.86236078099639" lon="15.335968635438967"><ele>159.0</ele><time>2026-05-05T07:56:11Z</time></trkpt><trkpt lat="45.86252978043412" lon="15.335890538898846"><ele>159.0</ele><time>2026-05-05T07:56:12Z</time></trkpt><trkpt lat="45.86271175093941" lon="15.335785213635623"><ele>158.0</ele><time>2026-05-05T07:56:13Z</time></trkpt><trkpt lat="45.86290220756673" lon="15.335661705651315"><ele>157.0</ele><time>2026-05-05T07:56:14Z</time></trkpt><trkpt lat="45.863115305072384" lon="15.33551322984352"><ele>156.0</ele><time>2026-05-05T07:56:15Z</time></trkpt><trkpt lat="45.86335071402017" lon="15.335339706580891"><ele>155.0</ele><time>2026-05-05T07:56:16Z</time></trkpt><trkpt lat="45.86359360783628" lon="15.335171365560416"><ele>154.0</ele><time>2026-05-05T07:56:17Z</time></trkpt><trkpt lat="45.863835751717644" lon="15.335008782860736"><ele>154.0</ele><time>2026-05-05T07:56:18Z</time></trkpt><trkpt lat="45.86407134718924" lon="15.334855476817092"><ele>154.0</ele><time>2026-05-05T07:56:19Z</time></trkpt><trkpt lat="45.864298866283434" lon="15.334710572617004"><ele>154.0</ele><time>2026-05-05T07:56:20Z</time></trkpt><trkpt lat="45.86452749544114" lon="15.3345678263171"><ele>154.0</ele><time>2026-05-05T07:56:21Z</time></trkpt><trkpt lat="45.86475707032394" lon="15.334425247808605"><ele>154.0</ele><time>2026-05-05T07:56:22Z</time></trkpt><trkpt lat="45.86498307000222" lon="15.33429502218953"><ele>154.0</ele><time>2026-05-05T07:56:23Z</time></trkpt><trkpt lat="45.86522086953044" lon="15.334185624194676"><ele>154.0</ele><time>2026-05-05T07:56:24Z</time></trkpt><trkpt lat="45.865466608219975" lon="15.334121748795203"><ele>154.0</ele><time>2026-05-05T07:56:25Z</time></trkpt><trkpt lat="45.86571372088659" lon="15.33409661860565"><ele>154.0</ele><time>2026-05-05T07:56:26Z</time></trkpt><trkpt lat="45.86594889607732" lon="15.33408126948116"><ele>154.0</ele><time>2026-05-05T07:56:27Z</time></trkpt><trkpt lat="45.86616228912458" lon="15.334064047777499"><ele>154.0</ele><time>2026-05-05T07:56:28Z</time></trkpt><trkpt lat="45.86636001415297" lon="15.334041618591804"><ele>154.0</ele><time>2026-05-05T07:56:29Z</time></trkpt><trkpt lat="45.86655332682319" lon="15.334017816762962"><ele>154.0</ele><time>2026-05-05T07:56:30Z</time></trkpt><trkpt lat="45.866743494090585" lon="15.334007368368923"><ele>154.0</ele><time>2026-05-05T07:56:31Z</time></trkpt><trkpt lat="45.866933546127406" lon="15.33402812414208"><ele>154.0</ele><time>2026-05-05T07:56:32Z</time></trkpt><trkpt lat="45.86712628140752" lon="15.334079739225572"><ele>154.0</ele><time>2026-05-05T07:56:33Z</time></trkpt><trkpt lat="45.8673227464229" lon="15.33415721897229"><ele>154.0</ele><time>2026-05-05T07:56:34Z</time></trkpt><trkpt lat="45.86752089469088" lon="15.334245830667932"><ele>154.0</ele><time>2026-05-05T07:56:35Z</time></trkpt><trkpt lat="45.867721021086034" lon="15.334339525246905"><ele>154.0</ele><time>2026-05-05T07:56:36Z</time></trkpt><trkpt lat="45.86792279978348" lon="15.334425124288057"><ele>154.0</ele><time>2026-05-05T07:56:37Z</time></trkpt><trkpt lat="45.86812283130441" lon="15.334511243540842"><ele>154.0</ele><time>2026-05-05T07:56:38Z</time></trkpt><trkpt lat="45.86831715584519" lon="15.33459754160718"><ele>154.0</ele><time>2026-05-05T07:56:39Z</time></trkpt><trkpt lat="45.86850566349911" lon="15.33469086094411"><ele>154.0</ele><time>2026-05-05T07:56:40Z</time></trkpt><trkpt lat="45.86868958869233" lon="15.334799043224075"><ele>153.66666666666669</ele><time>2026-05-05T07:56:41Z</time></trkpt><trkpt lat="45.8688652819297" lon="15.334924195952013"><ele>153.33333333333334</ele><time>2026-05-05T07:56:42Z</time></trkpt><trkpt lat="45.86903247756007" lon="15.335067650524184"><ele>153.0</ele><time>2026-05-05T07:56:43Z</time></trkpt><trkpt lat="45.869191756244675" lon="15.335228139585912"><ele>152.66666666666666</ele><time>2026-05-05T07:56:44Z</time></trkpt><trkpt lat="45.86934519979092" lon="15.335383421244078"><ele>152.33333333333331</ele><time>2026-05-05T07:56:45Z</time></trkpt><trkpt lat="45.86950627151212" lon="15.335521247157539"><ele>152.0</ele><time>2026-05-05T07:56:46Z</time></trkpt><trkpt lat="45.86967684447401" lon="15.335614474798042"><ele>151.66666666666666</ele><time>2026-05-05T07:56:47Z</time></trkpt><trkpt lat="45.869857894004504" lon="15.335651524916551"><ele>151.33333333333334</ele><time>2026-05-05T07:56:48Z</time></trkpt><trkpt lat="45.870041110873494" lon="15.33564935501262"><ele>151.0</ele><time>2026-05-05T07:56:49Z</time></trkpt><trkpt lat="45.87022611941603" lon="15.335608791662473"><ele>151.33333333333334</ele><time>2026-05-05T07:56:50Z</time></trkpt><trkpt lat="45.870406165913565" lon="15.335546397785196"><ele>151.66666666666666</ele><time>2026-05-05T07:56:51Z</time></trkpt><trkpt lat="45.87058019570038" lon="15.33546674877645"><ele>152.0</ele><time>2026-05-05T07:56:52Z</time></trkpt><trkpt lat="45.87075237867273" lon="15.335361687710128"><ele>152.0</ele><time>2026-05-05T07:56:53Z</time></trkpt><trkpt lat="45.87091757181975" lon="15.335230141026415"><ele>152.0</ele><time>2026-05-05T07:56:54Z</time></trkpt><trkpt lat="45.87107780179739" lon="15.335076123284813"><ele>152.0</ele><time>2026-05-05T07:56:55Z</time></trkpt><trkpt lat="45.87123804656954" lon="15.334912487108939"><ele>151.33333333333331</ele><time>2026-05-05T07:56:56Z</time></trkpt><trkpt lat="45.87138557787309" lon="15.334758242800426"><ele>150.66666666666666</ele><time>2026-05-05T07:56:57Z</time></trkpt><trkpt lat="45.87151950067432" lon="15.334618220436017"><ele>150.0</ele><time>2026-05-05T07:56:58Z</time></trkpt><trkpt lat="45.87164979611035" lon="15.33448638003121"><ele>149.75</ele><time>2026-05-05T07:56:59Z</time></trkpt><trkpt lat="45.87178561313532" lon="15.334379587325428"><ele>149.5</ele><time>2026-05-05T07:57:00Z</time></trkpt><trkpt lat="45.87190816154867" lon="15.334276208927113"><ele>149.25</ele><time>2026-05-05T07:57:01Z</time></trkpt><trkpt lat="45.872028409628804" lon="15.334185324254602"><ele>149.0</ele><time>2026-05-05T07:57:02Z</time></trkpt><trkpt lat="45.87214777044289" lon="15.334102658213856"><ele>149.0</ele><time>2026-05-05T07:57:03Z</time></trkpt><trkpt lat="45.87225868400521" lon="15.334006400021112"><ele>149.0</ele><time>2026-05-05T07:57:04Z</time></trkpt><trkpt lat="45.8723674603259" lon="15.33394069788638"><ele>149.0</ele><time>2026-05-05T07:57:05Z</time></trkpt><trkpt lat="45.87246873682915" lon="15.333882430842547"><ele>149.0</ele><time>2026-05-05T07:57:06Z</time></trkpt><trkpt lat="45.872567451649395" lon="15.333825743444706"><ele>149.2</ele><time>2026-05-05T07:57:07Z</time></trkpt><trkpt lat="45.87266526611027" lon="15.333762940923481"><ele>149.4</ele><time>2026-05-05T07:57:08Z</time></trkpt><trkpt lat="45.872763700181785" lon="15.333692938290199"><ele>149.6</ele><time>2026-05-05T07:57:09Z</time></trkpt><trkpt lat="45.872862607396996" lon="15.333626085025765"><ele>149.8</ele><time>2026-05-05T07:57:10Z</time></trkpt><trkpt lat="45.872945254619104" lon="15.333545660863996"><ele>150.0</ele><time>2026-05-05T07:57:11Z</time></trkpt><trkpt lat="45.873018814166315" lon="15.333475439975418"><ele>150.0</ele><time>2026-05-05T07:57:12Z</time></trkpt><trkpt lat="45.87308267477612" lon="15.33340638327398"><ele>150.0</ele><time>2026-05-05T07:57:13Z</time></trkpt><trkpt lat="45.87314715410311" lon="15.33336058504958"><ele>150.0</ele><time>2026-05-05T07:57:14Z</time></trkpt><trkpt lat="45.87322892422012" lon="15.333256256041041"><ele>150.0</ele><time>2026-05-05T07:57:16Z</time></trkpt><trkpt lat="45.87330447648389" lon="15.333117018180532"><ele>150.0</ele><time>2026-05-05T07:57:18Z</time></trkpt><trkpt lat="45.87334975329595" lon="15.333047919874858"><ele>149.8</ele><time>2026-05-05T07:57:19Z</time></trkpt><trkpt lat="45.87339546787762" lon="15.332954562184288"><ele>149.6</ele><time>2026-05-05T07:57:20Z</time></trkpt><trkpt lat="45.87344356142022" lon="15.332854454920216"><ele>149.4</ele><time>2026-05-05T07:57:21Z</time></trkpt><trkpt lat="45.87349350173249" lon="15.332745118599162"><ele>149.2</ele><time>2026-05-05T07:57:22Z</time></trkpt><trkpt lat="45.87354062562958" lon="15.332624055416384"><ele>149.0</ele><time>2026-05-05T07:57:23Z</time></trkpt><trkpt lat="45.87358158488812" lon="15.332492930191743"><ele>149.0</ele><time>2026-05-05T07:57:24Z</time></trkpt><trkpt lat="45.87361994830025" lon="15.332353712174605"><ele>149.0</ele><time>2026-05-05T07:57:25Z</time></trkpt><trkpt lat="45.87365407531778" lon="15.332204908753141"><ele>149.0</ele><time>2026-05-05T07:57:26Z</time></trkpt><trkpt lat="45.87368465712402" lon="15.332057340023479"><ele>149.0</ele><time>2026-05-05T07:57:27Z</time></trkpt><trkpt lat="45.873711944556696" lon="15.331908286920676"><ele>149.0</ele><time>2026-05-05T07:57:28Z</time></trkpt><trkpt lat="45.87373882850221" lon="15.33175635793644"><ele>149.0</ele><time>2026-05-05T07:57:29Z</time></trkpt><trkpt lat="45.87376514218798" lon="15.331603812898633"><ele>149.0</ele><time>2026-05-05T07:57:30Z</time></trkpt><trkpt lat="45.87379027893902" lon="15.33145169435551"><ele>149.0</ele><time>2026-05-05T07:57:31Z</time></trkpt><trkpt lat="45.873812720462276" lon="15.33130694760275"><ele>149.0</ele><time>2026-05-05T07:57:32Z</time></trkpt><trkpt lat="45.87383355147231" lon="15.331163680276342"><ele>149.0</ele><time>2026-05-05T07:57:33Z</time></trkpt><trkpt lat="45.87385664798084" lon="15.331018559788815"><ele>149.0</ele><time>2026-05-05T07:57:34Z</time></trkpt><trkpt lat="45.8738791642637" lon="15.330873921177668"><ele>149.0</ele><time>2026-05-05T07:57:35Z</time></trkpt><trkpt lat="45.87390091716494" lon="15.33072262781888"><ele>149.0</ele><time>2026-05-05T07:57:36Z</time></trkpt><trkpt lat="45.87392346934005" lon="15.330568099060326"><ele>149.0</ele><time>2026-05-05T07:57:37Z</time></trkpt><trkpt lat="45.873945890659414" lon="15.330412644785522"><ele>149.0</ele><time>2026-05-05T07:57:38Z</time></trkpt><trkpt lat="45.873969972582536" lon="15.330253818504392"><ele>149.0</ele><time>2026-05-05T07:57:39Z</time></trkpt><trkpt lat="45.87399655708831" lon="15.33010449336976"><ele>149.0</ele><time>2026-05-05T07:57:40Z</time></trkpt><trkpt lat="45.87401972246176" lon="15.329962014489968"><ele>149.0</ele><time>2026-05-05T07:57:41Z</time></trkpt><trkpt lat="45.87404386385284" lon="15.329820018969912"><ele>149.0</ele><time>2026-05-05T07:57:42Z</time></trkpt><trkpt lat="45.87406869866325" lon="15.329674238787804"><ele>149.0</ele><time>2026-05-05T07:57:43Z</time></trkpt><trkpt lat="45.87408984519242" lon="15.329538993560751"><ele>149.4</ele><time>2026-05-05T07:57:44Z</time></trkpt><trkpt lat="45.874110268950005" lon="15.329402664823872"><ele>149.8</ele><time>2026-05-05T07:57:45Z</time></trkpt><trkpt lat="45.87412716100017" lon="15.329261189683146"><ele>150.2</ele><time>2026-05-05T07:57:46Z</time></trkpt><trkpt lat="45.87415128424879" lon="15.329115078477408"><ele>150.6</ele><time>2026-05-05T07:57:47Z</time></trkpt><trkpt lat="45.874174490198556" lon="15.32897103533925"><ele>151.0</ele><time>2026-05-05T07:57:48Z</time></trkpt><trkpt lat="45.87419754854893" lon="15.32882684200142"><ele>151.2</ele><time>2026-05-05T07:57:49Z</time></trkpt><trkpt lat="45.87422061263599" lon="15.328683403989949"><ele>151.39999999999998</ele><time>2026-05-05T07:57:50Z</time></trkpt><trkpt lat="45.87424848549181" lon="15.32854142209951"><ele>151.6</ele><time>2026-05-05T07:57:51Z</time></trkpt><trkpt lat="45.874271224348156" lon="15.328397191913092"><ele>151.79999999999998</ele><time>2026-05-05T07:57:52Z</time></trkpt><trkpt lat="45.87429493494698" lon="15.32825073289529"><ele>152.0</ele><time>2026-05-05T07:57:53Z</time></trkpt><trkpt lat="45.87431578741251" lon="15.3280997893491"><ele>152.2</ele><time>2026-05-05T07:57:54Z</time></trkpt><trkpt lat="45.874338642175125" lon="15.327949736555828"><ele>152.39999999999998</ele><time>2026-05-05T07:57:55Z</time></trkpt><trkpt lat="45.874359700066385" lon="15.327797330348352"><ele>152.60000000000002</ele><time>2026-05-05T07:57:56Z</time></trkpt><trkpt lat="45.874383896677244" lon="15.327649165777672"><ele>152.8</ele><time>2026-05-05T07:57:57Z</time></trkpt><trkpt lat="45.87440957187466" lon="15.327510840233398"><ele>153.0</ele><time>2026-05-05T07:57:58Z</time></trkpt><trkpt lat="45.874427792668726" lon="15.327393643584134"><ele>153.0</ele><time>2026-05-05T07:57:59Z</time></trkpt><trkpt lat="45.874454139362555" lon="15.327243105949911"><ele>153.0</ele><time>2026-05-05T07:58:01Z</time></trkpt><trkpt lat="45.87447306121919" lon="15.32712799770077"><ele>153.0</ele><time>2026-05-05T07:58:03Z</time></trkpt><trkpt lat="45.87449232881" lon="15.32700126633421"><ele>153.0</ele><time>2026-05-05T07:58:05Z</time></trkpt><trkpt lat="45.87451093419088" lon="15.326865278175411"><ele>153.0</ele><time>2026-05-05T07:58:07Z</time></trkpt><trkpt lat="45.874539881331735" lon="15.326751628958334"><ele>153.25</ele><time>2026-05-05T07:58:08Z</time></trkpt><trkpt lat="45.8745609167604" lon="15.32660492191589"><ele>153.5</ele><time>2026-05-05T07:58:09Z</time></trkpt><trkpt lat="45.87458461748322" lon="15.326428221903386"><ele>153.75</ele><time>2026-05-05T07:58:10Z</time></trkpt><trkpt lat="45.87459953098416" lon="15.326221425076168"><ele>154.0</ele><time>2026-05-05T07:58:11Z</time></trkpt><trkpt lat="45.874609830626405" lon="15.325997533457983"><ele>154.33333333333334</ele><time>2026-05-05T07:58:12Z</time></trkpt><trkpt lat="45.87461983060993" lon="15.325755224169953"><ele>154.66666666666666</ele><time>2026-05-05T07:58:13Z</time></trkpt><trkpt lat="45.87462977497417" lon="15.325502531821376"><ele>155.0</ele><time>2026-05-05T07:58:14Z</time></trkpt><trkpt lat="45.87464199627926" lon="15.325253917553004"><ele>155.0</ele><time>2026-05-05T07:58:15Z</time></trkpt><trkpt lat="45.874657477443094" lon="15.325000879025723"><ele>155.0</ele><time>2026-05-05T07:58:16Z</time></trkpt><trkpt lat="45.874681125728515" lon="15.324755808302465"><ele>155.0</ele><time>2026-05-05T07:58:17Z</time></trkpt><trkpt lat="45.87469905695598" lon="15.324524900709495"><ele>155.0</ele><time>2026-05-05T07:58:18Z</time></trkpt><trkpt lat="45.87473394793581" lon="15.324319313780668"><ele>155.0</ele><time>2026-05-05T07:58:19Z</time></trkpt><trkpt lat="45.8747648590163" lon="15.324130404376312"><ele>155.0</ele><time>2026-05-05T07:58:20Z</time></trkpt><trkpt lat="45.87479408426695" lon="15.323939444520061"><ele>155.0</ele><time>2026-05-05T07:58:21Z</time></trkpt><trkpt lat="45.874820561723645" lon="15.323738366534046"><ele>155.25</ele><time>2026-05-05T07:58:22Z</time></trkpt><trkpt lat="45.87485231800141" lon="15.323543830563167"><ele>155.5</ele><time>2026-05-05T07:58:23Z</time></trkpt><trkpt lat="45.87488662009076" lon="15.323350715630538"><ele>155.75</ele><time>2026-05-05T07:58:24Z</time></trkpt><trkpt lat="45.87488626858749" lon="15.323151243186103"><ele>156.0</ele><time>2026-05-05T07:58:25Z</time></trkpt><trkpt lat="45.874867095256796" lon="15.32294841497681"><ele>156.66666666666666</ele><time>2026-05-05T07:58:26Z</time></trkpt><trkpt lat="45.874841006669484" lon="15.322710768813888"><ele>157.33333333333331</ele><time>2026-05-05T07:58:27Z</time></trkpt><trkpt lat="45.87479909681819" lon="15.322448886612507"><ele>158.0</ele><time>2026-05-05T07:58:28Z</time></trkpt><trkpt lat="45.8747556797621" lon="15.322177894570721"><ele>158.0</ele><time>2026-05-05T07:58:29Z</time></trkpt><trkpt lat="45.87469878201202" lon="15.321926042382913"><ele>158.0</ele><time>2026-05-05T07:58:30Z</time></trkpt><trkpt lat="45.874667641301265" lon="15.321685735126598"><ele>158.0</ele><time>2026-05-05T07:58:31Z</time></trkpt><trkpt lat="45.87463681947516" lon="15.321456038767025"><ele>157.66666666666666</ele><time>2026-05-05T07:58:32Z</time></trkpt><trkpt lat="45.87460265233029" lon="15.321231304875875"><ele>157.33333333333334</ele><time>2026-05-05T07:58:33Z</time></trkpt><trkpt lat="45.87456769939982" lon="15.321017029644553"><ele>157.0</ele><time>2026-05-05T07:58:34Z</time></trkpt><trkpt lat="45.874534743546995" lon="15.32080375137243"><ele>157.0</ele><time>2026-05-05T07:58:35Z</time></trkpt><trkpt lat="45.874519320257164" lon="15.320602754831981"><ele>157.0</ele><time>2026-05-05T07:58:36Z</time></trkpt><trkpt lat="45.87452811291616" lon="15.320415615460607"><ele>157.0</ele><time>2026-05-05T07:58:37Z</time></trkpt><trkpt lat="45.87455780470161" lon="15.320231843289871"><ele>157.0</ele><time>2026-05-05T07:58:38Z</time></trkpt><trkpt lat="45.874626737809976" lon="15.32006898245759"><ele>157.25</ele><time>2026-05-05T07:58:39Z</time></trkpt><trkpt lat="45.87469425708899" lon="15.319904338123527"><ele>157.5</ele><time>2026-05-05T07:58:40Z</time></trkpt><trkpt lat="45.8747734472669" lon="15.319751480677828"><ele>157.75</ele><time>2026-05-05T07:58:41Z</time></trkpt><trkpt lat="45.87484326439488" lon="15.319590781230636"><ele>158.0</ele><time>2026-05-05T07:58:42Z</time></trkpt><trkpt lat="45.87492245431186" lon="15.319441536649105"><ele>158.0</ele><time>2026-05-05T07:58:43Z</time></trkpt><trkpt lat="45.875000849154716" lon="15.319287661026454"><ele>158.0</ele><time>2026-05-05T07:58:44Z</time></trkpt><trkpt lat="45.87507743400629" lon="15.319141181828435"><ele>158.0</ele><time>2026-05-05T07:58:45Z</time></trkpt><trkpt lat="45.8751516891627" lon="15.318996741907004"><ele>158.0</ele><time>2026-05-05T07:58:46Z</time></trkpt><trkpt lat="45.87522591473835" lon="15.318844834337128"><ele>157.5</ele><time>2026-05-05T07:58:47Z</time></trkpt><trkpt lat="45.87530636931211" lon="15.318694152621976"><ele>157.0</ele><time>2026-05-05T07:58:48Z</time></trkpt><trkpt lat="45.87538468058986" lon="15.318535691537843"><ele>156.5</ele><time>2026-05-05T07:58:49Z</time></trkpt><trkpt lat="45.875466215620825" lon="15.318384179836384"><ele>156.0</ele><time>2026-05-05T07:58:50Z</time></trkpt><trkpt lat="45.87554581926958" lon="15.318233821158078"><ele>156.0</ele><time>2026-05-05T07:58:51Z</time></trkpt><trkpt lat="45.875625437092616" lon="15.318078796925926"><ele>156.0</ele><time>2026-05-05T07:58:52Z</time></trkpt><trkpt lat="45.87570468739573" lon="15.317920474323568"><ele>156.0</ele><time>2026-05-05T07:58:53Z</time></trkpt><trkpt lat="45.87578206627802" lon="15.317762157617375"><ele>156.0</ele><time>2026-05-05T07:58:54Z</time></trkpt><trkpt lat="45.875880074813956" lon="15.317609851145402"><ele>156.33333333333334</ele><time>2026-05-05T07:58:55Z</time></trkpt><trkpt lat="45.875945053488806" lon="15.317408666487648"><ele>156.66666666666669</ele><time>2026-05-05T07:58:56Z</time></trkpt><trkpt lat="45.876037257570864" lon="15.3172142199919"><ele>157.0</ele><time>2026-05-05T07:58:57Z</time></trkpt><trkpt lat="45.87614119127515" lon="15.317012949836078"><ele>157.33333333333334</ele><time>2026-05-05T07:58:58Z</time></trkpt><trkpt lat="45.87625360698057" lon="15.31680461459115"><ele>157.66666666666666</ele><time>2026-05-05T07:58:59Z</time></trkpt><trkpt lat="45.87639127649949" lon="15.316608868480895"><ele>158.0</ele><time>2026-05-05T07:59:00Z</time></trkpt><trkpt lat="45.87650877541117" lon="15.31637413659789"><ele>157.33333333333331</ele><time>2026-05-05T07:59:01Z</time></trkpt><trkpt lat="45.876619737160205" lon="15.316124567309025"><ele>156.66666666666666</ele><time>2026-05-05T07:59:02Z</time></trkpt><trkpt lat="45.876745645432564" lon="15.31588584284288"><ele>156.0</ele><time>2026-05-05T07:59:03Z</time></trkpt><trkpt lat="45.87687160005743" lon="15.315638523296323"><ele>156.33333333333334</ele><time>2026-05-05T07:59:04Z</time></trkpt><trkpt lat="45.876995215186334" lon="15.315397767432993"><ele>156.66666666666669</ele><time>2026-05-05T07:59:05Z</time></trkpt><trkpt lat="45.87712154329016" lon="15.31515793407245"><ele>157.0</ele><time>2026-05-05T07:59:06Z</time></trkpt><trkpt lat="45.87724165685114" lon="15.314918753569023"><ele>156.66666666666669</ele><time>2026-05-05T07:59:07Z</time></trkpt><trkpt lat="45.87735649718815" lon="15.314693070019116"><ele>156.33333333333334</ele><time>2026-05-05T07:59:08Z</time></trkpt><trkpt lat="45.87746522960975" lon="15.314482003994717"><ele>156.0</ele><time>2026-05-05T07:59:09Z</time></trkpt><trkpt lat="45.87756854151587" lon="15.314292274067673"><ele>156.25</ele><time>2026-05-05T07:59:10Z</time></trkpt><trkpt lat="45.87766999256384" lon="15.31412584652014"><ele>156.5</ele><time>2026-05-05T07:59:11Z</time></trkpt><trkpt lat="45.877760422065336" lon="15.313958143757016"><ele>156.75</ele><time>2026-05-05T07:59:12Z</time></trkpt><trkpt lat="45.87784028877493" lon="15.31380478123236"><ele>157.0</ele><time>2026-05-05T07:59:13Z</time></trkpt><trkpt lat="45.877909476894125" lon="15.313670716562148"><ele>157.0</ele><time>2026-05-05T07:59:14Z</time></trkpt><trkpt lat="45.877810909200335" lon="15.31338672827198"><ele>157.0</ele><time>2026-05-05T07:59:15Z</time></trkpt><trkpt lat="45.87779186435847" lon="15.313230131506538"><ele>157.0</ele><time>2026-05-05T07:59:16Z</time></trkpt><trkpt lat="45.877774237825136" lon="15.31308878253376"><ele>157.0</ele><time>2026-05-05T07:59:17Z</time></trkpt><trkpt lat="45.877734403950726" lon="15.312948877103599"><ele>157.0</ele><time>2026-05-05T07:59:18Z</time></trkpt><trkpt lat="45.87763979647597" lon="15.312825132218125"><ele>157.0</ele><time>2026-05-05T07:59:19Z</time></trkpt><trkpt lat="45.877557416647726" lon="15.312677620386467"><ele>157.0</ele><time>2026-05-05T07:59:20Z</time></trkpt><trkpt lat="45.877465694712505" lon="15.312532124443045"><ele>157.0</ele><time>2026-05-05T07:59:21Z</time></trkpt><trkpt lat="45.87738805938175" lon="15.312367243258313"><ele>156.66666666666669</ele><time>2026-05-05T07:59:22Z</time></trkpt><trkpt lat="45.877294550653986" lon="15.312206833427247"><ele>156.33333333333334</ele><time>2026-05-05T07:59:23Z</time></trkpt><trkpt lat="45.877181218458276" lon="15.312053241840532"><ele>156.0</ele><time>2026-05-05T07:59:24Z</time></trkpt><trkpt lat="45.87708921836154" lon="15.311884421086496"><ele>156.0</ele><time>2026-05-05T07:59:25Z</time></trkpt><trkpt lat="45.87699668119481" lon="15.311724913382774"><ele>156.0</ele><time>2026-05-05T07:59:26Z</time></trkpt><trkpt lat="45.87690021030876" lon="15.311555427313166"><ele>156.0</ele><time>2026-05-05T07:59:27Z</time></trkpt><trkpt lat="45.87679979518128" lon="15.311375708479648"><ele>155.66666666666666</ele><time>2026-05-05T07:59:28Z</time></trkpt><trkpt lat="45.87669579645815" lon="15.311193846491365"><ele>155.33333333333331</ele><time>2026-05-05T07:59:29Z</time></trkpt><trkpt lat="45.876589297601605" lon="15.311003289983738"><ele>155.0</ele><time>2026-05-05T07:59:30Z</time></trkpt><trkpt lat="45.87648505956089" lon="15.310809309829725"><ele>155.0</ele><time>2026-05-05T07:59:31Z</time></trkpt><trkpt lat="45.876382965341755" lon="15.310615488492132"><ele>155.0</ele><time>2026-05-05T07:59:32Z</time></trkpt><trkpt lat="45.87628073819554" lon="15.31042590473165"><ele>155.0</ele><time>2026-05-05T07:59:33Z</time></trkpt><trkpt lat="45.87617434449185" lon="15.310234362065291"><ele>155.33333333333331</ele><time>2026-05-05T07:59:34Z</time></trkpt><trkpt lat="45.876069258812215" lon="15.310038509365091"><ele>155.66666666666666</ele><time>2026-05-05T07:59:35Z</time></trkpt><trkpt lat="45.87596272214307" lon="15.309845078651005"><ele>156.0</ele><time>2026-05-05T07:59:36Z</time></trkpt><trkpt lat="45.875858275595796" lon="15.3096474647202"><ele>155.33333333333334</ele><time>2026-05-05T07:59:37Z</time></trkpt><trkpt lat="45.87575255894548" lon="15.309448887273861"><ele>154.66666666666669</ele><time>2026-05-05T07:59:38Z</time></trkpt><trkpt lat="45.87564712381241" lon="15.309251449658447"><ele>154.0</ele><time>2026-05-05T07:59:39Z</time></trkpt><trkpt lat="45.87553995513685" lon="15.30905573417422"><ele>154.0</ele><time>2026-05-05T07:59:40Z</time></trkpt><trkpt lat="45.875436907270725" lon="15.30885786035607"><ele>154.0</ele><time>2026-05-05T07:59:41Z</time></trkpt><trkpt lat="45.87533177041564" lon="15.308659450723521"><ele>154.0</ele><time>2026-05-05T07:59:42Z</time></trkpt><trkpt lat="45.87522795871179" lon="15.308465542745532"><ele>154.0</ele><time>2026-05-05T07:59:43Z</time></trkpt><trkpt lat="45.875125334517854" lon="15.308275723574788"><ele>154.0</ele><time>2026-05-05T07:59:44Z</time></trkpt><trkpt lat="45.87504806317605" lon="15.308069494242051"><ele>154.0</ele><time>2026-05-05T07:59:45Z</time></trkpt><trkpt lat="45.87497939715421" lon="15.307869308498862"><ele>155.0</ele><time>2026-05-05T07:59:46Z</time></trkpt><trkpt lat="45.87493276599969" lon="15.30765693482653"><ele>156.0</ele><time>2026-05-05T07:59:47Z</time></trkpt><trkpt lat="45.87489620721306" lon="15.307439669850925"><ele>157.0</ele><time>2026-05-05T07:59:48Z</time></trkpt><trkpt lat="45.8748605565068" lon="15.307215809613659"><ele>158.0</ele><time>2026-05-05T07:59:49Z</time></trkpt><trkpt lat="45.87482260934194" lon="15.30698653293417"><ele>159.0</ele><time>2026-05-05T07:59:50Z</time></trkpt><trkpt lat="45.87478315626357" lon="15.306758131930904"><ele>160.0</ele><time>2026-05-05T07:59:51Z</time></trkpt><trkpt lat="45.87475010225686" lon="15.306525220261117"><ele>159.33333333333334</ele><time>2026-05-05T07:59:52Z</time></trkpt><trkpt lat="45.874725642423364" lon="15.306288391645825"><ele>158.66666666666666</ele><time>2026-05-05T07:59:53Z</time></trkpt><trkpt lat="45.87469743810479" lon="15.306046939968748"><ele>158.0</ele><time>2026-05-05T07:59:54Z</time></trkpt><trkpt lat="45.87466876750029" lon="15.305806973183248"><ele>157.66666666666666</ele><time>2026-05-05T07:59:55Z</time></trkpt><trkpt lat="45.874638264456046" lon="15.30556757441353"><ele>157.33333333333334</ele><time>2026-05-05T07:59:56Z</time></trkpt><trkpt lat="45.87460655097228" lon="15.30532099634245"><ele>157.0</ele><time>2026-05-05T07:59:57Z</time></trkpt><trkpt lat="45.874582645227306" lon="15.305071407084691"><ele>157.0</ele><time>2026-05-05T07:59:58Z</time></trkpt><trkpt lat="45.87451840490226" lon="15.304827464676357"><ele>157.0</ele><time>2026-05-05T07:59:59Z</time></trkpt><trkpt lat="45.874445379759386" lon="15.304590100430705"><ele>157.0</ele><time>2026-05-05T08:00:00Z</time></trkpt><trkpt lat="45.87433699848473" lon="15.304371321151706"><ele>157.33333333333334</ele><time>2026-05-05T08:00:01Z</time></trkpt><trkpt lat="45.87417870607306" lon="15.304203128133027"><ele>157.66666666666666</ele><time>2026-05-05T08:00:02Z</time></trkpt><trkpt lat="45.873995718063654" lon="15.304075436767642"><ele>158.0</ele><time>2026-05-05T08:00:03Z</time></trkpt><trkpt lat="45.87383585718709" lon="15.303918588066079"><ele>158.33333333333331</ele><time>2026-05-05T08:00:04Z</time></trkpt><trkpt lat="45.87369550632297" lon="15.303734042217735"><ele>158.66666666666666</ele><time>2026-05-05T08:00:05Z</time></trkpt><trkpt lat="45.873573819001884" lon="15.303500015421202"><ele>159.0</ele><time>2026-05-05T08:00:06Z</time></trkpt><trkpt lat="45.87346469143283" lon="15.303233000461749"><ele>158.0</ele><time>2026-05-05T08:00:07Z</time></trkpt><trkpt lat="45.87339829500729" lon="15.30293332110714"><ele>157.0</ele><time>2026-05-05T08:00:08Z</time></trkpt><trkpt lat="45.873309874490374" lon="15.302630413463671"><ele>156.0</ele><time>2026-05-05T08:00:09Z</time></trkpt><trkpt lat="45.87321174055624" lon="15.302326577953588"><ele>155.5</ele><time>2026-05-05T08:00:10Z</time></trkpt><trkpt lat="45.873043444797254" lon="15.30204683385102"><ele>155.0</ele><time>2026-05-05T08:00:11Z</time></trkpt><trkpt lat="45.87283921524022" lon="15.301774892998337"><ele>155.0</ele><time>2026-05-05T08:00:12Z</time></trkpt><trkpt lat="45.872646065532344" lon="15.301522369687218"><ele>155.0</ele><time>2026-05-05T08:00:13Z</time></trkpt><trkpt lat="45.872470489560165" lon="15.301295068391113"><ele>155.66666666666666</ele><time>2026-05-05T08:00:14Z</time></trkpt><trkpt lat="45.87230169036964" lon="15.301097674262248"><ele>156.33333333333334</ele><time>2026-05-05T08:00:15Z</time></trkpt><trkpt lat="45.87213252765959" lon="15.300940972439182"><ele>157.0</ele><time>2026-05-05T08:00:16Z</time></trkpt><trkpt lat="45.87195796560743" lon="15.300825074222548"><ele>157.0</ele><time>2026-05-05T08:00:17Z</time></trkpt><trkpt lat="45.87179007123089" lon="15.300730138070952"><ele>157.0</ele><time>2026-05-05T08:00:18Z</time></trkpt><trkpt lat="45.8716325195754" lon="15.300627087304322"><ele>157.0</ele><time>2026-05-05T08:00:19Z</time></trkpt><trkpt lat="45.871510850312994" lon="15.300468528816793"><ele>157.33333333333334</ele><time>2026-05-05T08:00:20Z</time></trkpt><trkpt lat="45.871411674891526" lon="15.300285679798577"><ele>157.66666666666666</ele><time>2026-05-05T08:00:21Z</time></trkpt><trkpt lat="45.8713504629156" lon="15.300060286556812"><ele>158.0</ele><time>2026-05-05T08:00:22Z</time></trkpt><trkpt lat="45.87133351415028" lon="15.2998284651841"><ele>158.33333333333331</ele><time>2026-05-05T08:00:23Z</time></trkpt><trkpt lat="45.87134969789969" lon="15.299584745852398"><ele>158.66666666666666</ele><time>2026-05-05T08:00:24Z</time></trkpt><trkpt lat="45.87141517763623" lon="15.299338703602032"><ele>159.0</ele><time>2026-05-05T08:00:25Z</time></trkpt><trkpt lat="45.8714945549544" lon="15.299081692569976"><ele>159.66666666666666</ele><time>2026-05-05T08:00:26Z</time></trkpt><trkpt lat="45.87155717972402" lon="15.298830416209807"><ele>160.33333333333331</ele><time>2026-05-05T08:00:27Z</time></trkpt><trkpt lat="45.87163197432444" lon="15.29861016182923"><ele>161.0</ele><time>2026-05-05T08:00:28Z</time></trkpt><trkpt lat="45.87170105945903" lon="15.29838981618891"><ele>161.0</ele><time>2026-05-05T08:00:29Z</time></trkpt><trkpt lat="45.871767002066775" lon="15.298177717442721"><ele>161.0</ele><time>2026-05-05T08:00:30Z</time></trkpt><trkpt lat="45.87183030377583" lon="15.297975967377358"><ele>161.0</ele><time>2026-05-05T08:00:31Z</time></trkpt><trkpt lat="45.87188001593733" lon="15.297760708096357"><ele>167.33333333333331</ele><time>2026-05-05T08:00:32Z</time></trkpt><trkpt lat="45.8719086243233" lon="15.297530424155964"><ele>173.66666666666666</ele><time>2026-05-05T08:00:33Z</time></trkpt><trkpt lat="45.871906119876066" lon="15.297283955632277"><ele>180.0</ele><time>2026-05-05T08:00:34Z</time></trkpt><trkpt lat="45.87186588170594" lon="15.297021808102883"><ele>180.0</ele><time>2026-05-05T08:00:35Z</time></trkpt><trkpt lat="45.871790025430045" lon="15.296743797843353"><ele>180.0</ele><time>2026-05-05T08:00:36Z</time></trkpt><trkpt lat="45.87168061723058" lon="15.296434072391875"><ele>171.5</ele><time>2026-05-05T08:00:37Z</time></trkpt><trkpt lat="45.87156512743589" lon="15.296071858628773"><ele>163.0</ele><time>2026-05-05T08:00:38Z</time></trkpt><trkpt lat="45.87145614810016" lon="15.29568076986176"><ele>163.0</ele><time>2026-05-05T08:00:39Z</time></trkpt><trkpt lat="45.871372282695766" lon="15.29524947201585"><ele>163.0</ele><time>2026-05-05T08:00:40Z</time></trkpt><trkpt lat="45.87129917210638" lon="15.29478651024758"><ele>163.0</ele><time>2026-05-05T08:00:41Z</time></trkpt><trkpt lat="45.87122141942722" lon="15.29430115381285"><ele>163.0</ele><time>2026-05-05T08:00:42Z</time></trkpt><trkpt lat="45.87112429845564" lon="15.293833649099943"><ele>160.5</ele><time>2026-05-05T08:00:43Z</time></trkpt><trkpt lat="45.87103029833323" lon="15.293384002898541"><ele>158.0</ele><time>2026-05-05T08:00:44Z</time></trkpt><trkpt lat="45.87091897789078" lon="15.29295477971392"><ele>158.0</ele><time>2026-05-05T08:00:45Z</time></trkpt><trkpt lat="45.87081199693724" lon="15.292530278144966"><ele>158.0</ele><time>2026-05-05T08:00:46Z</time></trkpt><trkpt lat="45.870699403632614" lon="15.292115349068323"><ele>160.0</ele><time>2026-05-05T08:00:47Z</time></trkpt><trkpt lat="45.87060045101174" lon="15.29170185629915"><ele>162.0</ele><time>2026-05-05T08:00:48Z</time></trkpt><trkpt lat="45.87053171090873" lon="15.291275737096276"><ele>164.0</ele><time>2026-05-05T08:00:49Z</time></trkpt><trkpt lat="45.87049056183729" lon="15.290827914499928"><ele>166.0</ele><time>2026-05-05T08:00:50Z</time></trkpt><trkpt lat="45.870449752262594" lon="15.290369605589534"><ele>169.5</ele><time>2026-05-05T08:00:51Z</time></trkpt><trkpt lat="45.87039642458373" lon="15.28993119578023"><ele>173.0</ele><time>2026-05-05T08:00:52Z</time></trkpt><trkpt lat="45.87039040024236" lon="15.289528619092424"><ele>174.5</ele><time>2026-05-05T08:00:53Z</time></trkpt><trkpt lat="45.87039407591318" lon="15.289176320300742"><ele>176.0</ele><time>2026-05-05T08:00:54Z</time></trkpt><trkpt lat="45.87038700713629" lon="15.288857488548093"><ele>177.0</ele><time>2026-05-05T08:00:55Z</time></trkpt><trkpt lat="45.87039853614393" lon="15.288577051844195"><ele>178.0</ele><time>2026-05-05T08:00:56Z</time></trkpt><trkpt lat="45.87040301778592" lon="15.288328535326471"><ele>179.0</ele><time>2026-05-05T08:00:57Z</time></trkpt><trkpt lat="45.870340224672766" lon="15.288112684977671"><ele>182.66666666666666</ele><time>2026-05-05T08:00:58Z</time></trkpt><trkpt lat="45.87026340125826" lon="15.287911129764522"><ele>186.33333333333334</ele><time>2026-05-05T08:00:59Z</time></trkpt><trkpt lat="45.87015483504287" lon="15.287738722737993"><ele>190.0</ele><time>2026-05-05T08:01:00Z</time></trkpt><trkpt lat="45.870018919692015" lon="15.287594885316969"><ele>181.33333333333334</ele><time>2026-05-05T08:01:01Z</time></trkpt><trkpt lat="45.86986332781275" lon="15.28749719344176"><ele>172.66666666666666</ele><time>2026-05-05T08:01:02Z</time></trkpt><trkpt lat="45.86971367294761" lon="15.28740882619829"><ele>164.0</ele><time>2026-05-05T08:01:03Z</time></trkpt><trkpt lat="45.86956573340056" lon="15.287307457690527"><ele>166.33333333333331</ele><time>2026-05-05T08:01:04Z</time></trkpt><trkpt lat="45.8693934699124" lon="15.28722318003604"><ele>168.66666666666666</ele><time>2026-05-05T08:01:05Z</time></trkpt><trkpt lat="45.869266588843224" lon="15.287069903924014"><ele>171.0</ele><time>2026-05-05T08:01:06Z</time></trkpt><trkpt lat="45.86917582877112" lon="15.28688087736636"><ele>166.0</ele><time>2026-05-05T08:01:07Z</time></trkpt><trkpt lat="45.86912613147234" lon="15.286648633099093"><ele>161.0</ele><time>2026-05-05T08:01:08Z</time></trkpt><trkpt lat="45.86910698915043" lon="15.286388173351847"><ele>156.0</ele><time>2026-05-05T08:01:09Z</time></trkpt><trkpt lat="45.869101477789194" lon="15.28611622250379"><ele>156.0</ele><time>2026-05-05T08:01:10Z</time></trkpt><trkpt lat="45.86909588180224" lon="15.285831482808506"><ele>156.0</ele><time>2026-05-05T08:01:11Z</time></trkpt><trkpt lat="45.869082023910224" lon="15.2855458274344"><ele>156.0</ele><time>2026-05-05T08:01:12Z</time></trkpt><trkpt lat="45.86906048514449" lon="15.285300047606565"><ele>156.0</ele><time>2026-05-05T08:01:13Z</time></trkpt><trkpt lat="45.86903666457686" lon="15.2850879342547"><ele>156.0</ele><time>2026-05-05T08:01:14Z</time></trkpt><trkpt lat="45.86900489384319" lon="15.284899561347913"><ele>156.0</ele><time>2026-05-05T08:01:15Z</time></trkpt><trkpt lat="45.868966960014575" lon="15.284725083235779"><ele>156.0</ele><time>2026-05-05T08:01:16Z</time></trkpt><trkpt lat="45.868922727795876" lon="15.284556103783872"><ele>156.0</ele><time>2026-05-05T08:01:17Z</time></trkpt><trkpt lat="45.86887600661475" lon="15.284380078908637"><ele>156.0</ele><time>2026-05-05T08:01:18Z</time></trkpt><trkpt lat="45.86882479681901" lon="15.284202157743328"><ele>156.0</ele><time>2026-05-05T08:01:19Z</time></trkpt><trkpt lat="45.8687675278784" lon="15.284022149005619"><ele>156.0</ele><time>2026-05-05T08:01:20Z</time></trkpt><trkpt lat="45.868708783091876" lon="15.283845620126847"><ele>158.25</ele><time>2026-05-05T08:01:21Z</time></trkpt><trkpt lat="45.86864163384135" lon="15.28365619496126"><ele>160.5</ele><time>2026-05-05T08:01:22Z</time></trkpt><trkpt lat="45.86857786450296" lon="15.283468818957394"><ele>162.75</ele><time>2026-05-05T08:01:23Z</time></trkpt><trkpt lat="45.86851693887569" lon="15.283278206607529"><ele>165.0</ele><time>2026-05-05T08:01:24Z</time></trkpt><trkpt lat="45.868456688914755" lon="15.283088799829807"><ele>162.0</ele><time>2026-05-05T08:01:25Z</time></trkpt><trkpt lat="45.86838949775974" lon="15.28290050260697"><ele>159.0</ele><time>2026-05-05T08:01:26Z</time></trkpt><trkpt lat="45.86832277588833" lon="15.282705382363023"><ele>156.0</ele><time>2026-05-05T08:01:27Z</time></trkpt><trkpt lat="45.86825127486944" lon="15.282509855382534"><ele>156.0</ele><time>2026-05-05T08:01:28Z</time></trkpt><trkpt lat="45.86817395322776" lon="15.282311357341833"><ele>156.0</ele><time>2026-05-05T08:01:29Z</time></trkpt><trkpt lat="45.86808340814006" lon="15.282102721980891"><ele>156.0</ele><time>2026-05-05T08:01:30Z</time></trkpt><trkpt lat="45.867990862096065" lon="15.281886795831417"><ele>158.33333333333334</ele><time>2026-05-05T08:01:31Z</time></trkpt><trkpt lat="45.867894004521546" lon="15.281664379903544"><ele>160.66666666666669</ele><time>2026-05-05T08:01:32Z</time></trkpt><trkpt lat="45.867790626807846" lon="15.281437985635177"><ele>163.0</ele><time>2026-05-05T08:01:33Z</time></trkpt><trkpt lat="45.86768283350785" lon="15.281209720242604"><ele>161.66666666666669</ele><time>2026-05-05T08:01:34Z</time></trkpt><trkpt lat="45.86757582296136" lon="15.280984986557012"><ele>160.33333333333334</ele><time>2026-05-05T08:01:35Z</time></trkpt><trkpt lat="45.86747299344035" lon="15.280763703494816"><ele>159.0</ele><time>2026-05-05T08:01:36Z</time></trkpt><trkpt lat="45.86737076028704" lon="15.280539595884003"><ele>159.0</ele><time>2026-05-05T08:01:37Z</time></trkpt><trkpt lat="45.86726777746827" lon="15.280308831036866"><ele>159.0</ele><time>2026-05-05T08:01:38Z</time></trkpt><trkpt lat="45.86716339462109" lon="15.280079803157836"><ele>159.0</ele><time>2026-05-05T08:01:39Z</time></trkpt><trkpt lat="45.86705894649311" lon="15.279849808943457"><ele>159.33333333333334</ele><time>2026-05-05T08:01:40Z</time></trkpt><trkpt lat="45.86695358808346" lon="15.279618411100385"><ele>159.66666666666669</ele><time>2026-05-05T08:01:41Z</time></trkpt><trkpt lat="45.86684494081532" lon="15.279384405762805"><ele>160.0</ele><time>2026-05-05T08:01:42Z</time></trkpt><trkpt lat="45.86673207763395" lon="15.279149751272044"><ele>159.0</ele><time>2026-05-05T08:01:43Z</time></trkpt><trkpt lat="45.86662073716582" lon="15.278916948368868"><ele>158.0</ele><time>2026-05-05T08:01:44Z</time></trkpt><trkpt lat="45.86650680530353" lon="15.278676502816836"><ele>157.0</ele><time>2026-05-05T08:01:45Z</time></trkpt><trkpt lat="45.86638586194611" lon="15.278413443303178"><ele>157.0</ele><time>2026-05-05T08:01:46Z</time></trkpt><trkpt lat="45.86625604635091" lon="15.278129353543395"><ele>157.0</ele><time>2026-05-05T08:01:47Z</time></trkpt><trkpt lat="45.86612658934654" lon="15.277840135859545"><ele>157.0</ele><time>2026-05-05T08:01:48Z</time></trkpt><trkpt lat="45.86599479667823" lon="15.277538069114543"><ele>157.0</ele><time>2026-05-05T08:01:49Z</time></trkpt><trkpt lat="45.86585652764829" lon="15.277213813938797"><ele>157.0</ele><time>2026-05-05T08:01:50Z</time></trkpt><trkpt lat="45.865715109736975" lon="15.276871580743192"><ele>157.0</ele><time>2026-05-05T08:01:51Z</time></trkpt><trkpt lat="45.865569463555076" lon="15.276509731426236"><ele>160.0</ele><time>2026-05-05T08:01:52Z</time></trkpt><trkpt lat="45.86542137730332" lon="15.276126535010155"><ele>163.0</ele><time>2026-05-05T08:01:53Z</time></trkpt><trkpt lat="45.86527067269542" lon="15.27573233979303"><ele>164.5</ele><time>2026-05-05T08:01:54Z</time></trkpt><trkpt lat="45.865119367972646" lon="15.275329728619978"><ele>166.0</ele><time>2026-05-05T08:01:55Z</time></trkpt><trkpt lat="45.864970495190924" lon="15.274917399089405"><ele>160.0</ele><time>2026-05-05T08:01:56Z</time></trkpt><trkpt lat="45.8648264507555" lon="15.274495192639481"><ele>154.0</ele><time>2026-05-05T08:01:57Z</time></trkpt><trkpt lat="45.86468492123929" lon="15.274061408868656"><ele>154.5</ele><time>2026-05-05T08:01:58Z</time></trkpt><trkpt lat="45.86455063225962" lon="15.273628763464803"><ele>155.0</ele><time>2026-05-05T08:01:59Z</time></trkpt><trkpt lat="45.86442077313619" lon="15.273192702432624"><ele>155.0</ele><time>2026-05-05T08:02:00Z</time></trkpt><trkpt lat="45.86429495053279" lon="15.272757951711986"><ele>155.0</ele><time>2026-05-05T08:02:01Z</time></trkpt><trkpt lat="45.86417014546568" lon="15.272328342102346"><ele>155.0</ele><time>2026-05-05T08:02:02Z</time></trkpt><trkpt lat="45.864050944768486" lon="15.271889342262103"><ele>155.0</ele><time>2026-05-05T08:02:03Z</time></trkpt><trkpt lat="45.86393625564014" lon="15.271439966522966"><ele>156.5</ele><time>2026-05-05T08:02:04Z</time></trkpt><trkpt lat="45.863826281473926" lon="15.270990142883878"><ele>158.0</ele><time>2026-05-05T08:02:05Z</time></trkpt><trkpt lat="45.86371948787275" lon="15.270534985692983"><ele>161.5</ele><time>2026-05-05T08:02:06Z</time></trkpt><trkpt lat="45.86361215972817" lon="15.270077593569189"><ele>165.0</ele><time>2026-05-05T08:02:07Z</time></trkpt><trkpt lat="45.86351523833841" lon="15.26962568845356"><ele>160.5</ele><time>2026-05-05T08:02:08Z</time></trkpt><trkpt lat="45.863425353428056" lon="15.26917708541726"><ele>156.0</ele><time>2026-05-05T08:02:09Z</time></trkpt><trkpt lat="45.8633465465177" lon="15.268751995657658"><ele>156.0</ele><time>2026-05-05T08:02:10Z</time></trkpt><trkpt lat="45.863277759526554" lon="15.268366486046288"><ele>156.0</ele><time>2026-05-05T08:02:11Z</time></trkpt><trkpt lat="45.86321931235344" lon="15.268022567569812"><ele>156.0</ele><time>2026-05-05T08:02:12Z</time></trkpt><trkpt lat="45.86315080138031" lon="15.267708619259015"><ele>156.0</ele><time>2026-05-05T08:02:13Z</time></trkpt><trkpt lat="45.86306763017562" lon="15.26744001267652"><ele>156.0</ele><time>2026-05-05T08:02:14Z</time></trkpt><trkpt lat="45.86295382821604" lon="15.267196065190374"><ele>156.33333333333334</ele><time>2026-05-05T08:02:15Z</time></trkpt><trkpt lat="45.86281418941762" lon="15.266968445361304"><ele>156.66666666666669</ele><time>2026-05-05T08:02:16Z</time></trkpt><trkpt lat="45.86265571186873" lon="15.266750184724799"><ele>157.0</ele><time>2026-05-05T08:02:17Z</time></trkpt><trkpt lat="45.862489140909815" lon="15.266526188554625"><ele>155.5</ele><time>2026-05-05T08:02:18Z</time></trkpt><trkpt lat="45.86232559256681" lon="15.266283536257188"><ele>154.0</ele><time>2026-05-05T08:02:19Z</time></trkpt><trkpt lat="45.862200793531386" lon="15.26598376392545"><ele>154.0</ele><time>2026-05-05T08:02:20Z</time></trkpt><trkpt lat="45.8620924789965" lon="15.265678613778528"><ele>154.0</ele><time>2026-05-05T08:02:21Z</time></trkpt><trkpt lat="45.86202362404287" lon="15.26538050356475"><ele>154.0</ele><time>2026-05-05T08:02:22Z</time></trkpt><trkpt lat="45.86197042262922" lon="15.265096301864526"><ele>154.0</ele><time>2026-05-05T08:02:23Z</time></trkpt><trkpt lat="45.86192140221377" lon="15.26483115846244"><ele>154.0</ele><time>2026-05-05T08:02:24Z</time></trkpt><trkpt lat="45.861874441909116" lon="15.26457715786169"><ele>154.66666666666669</ele><time>2026-05-05T08:02:25Z</time></trkpt><trkpt lat="45.861828206632985" lon="15.264332701820955"><ele>155.33333333333334</ele><time>2026-05-05T08:02:26Z</time></trkpt><trkpt lat="45.861784168022005" lon="15.264097315886437"><ele>156.0</ele><time>2026-05-05T08:02:27Z</time></trkpt><trkpt lat="45.861749898989245" lon="15.263874341012992"><ele>156.0</ele><time>2026-05-05T08:02:28Z</time></trkpt><trkpt lat="45.861726851782215" lon="15.26366086736171"><ele>156.0</ele><time>2026-05-05T08:02:29Z</time></trkpt><trkpt lat="45.86171609834606" lon="15.263440725708884"><ele>156.0</ele><time>2026-05-05T08:02:30Z</time></trkpt><trkpt lat="45.86170710599146" lon="15.263213079706615"><ele>155.33333333333334</ele><time>2026-05-05T08:02:31Z</time></trkpt><trkpt lat="45.86169689867335" lon="15.26298920547985"><ele>154.66666666666669</ele><time>2026-05-05T08:02:32Z</time></trkpt><trkpt lat="45.86166885061412" lon="15.262773826194522"><ele>154.0</ele><time>2026-05-05T08:02:33Z</time></trkpt><trkpt lat="45.86164029451121" lon="15.26256201828323"><ele>154.0</ele><time>2026-05-05T08:02:34Z</time></trkpt><trkpt lat="45.861623170951546" lon="15.262342261162322"><ele>154.0</ele><time>2026-05-05T08:02:35Z</time></trkpt><trkpt lat="45.861574575612245" lon="15.26212492113465"><ele>154.0</ele><time>2026-05-05T08:02:36Z</time></trkpt><trkpt lat="45.86150232037697" lon="15.261922912047618"><ele>154.33333333333334</ele><time>2026-05-05T08:02:37Z</time></trkpt><trkpt lat="45.861396861787426" lon="15.261754059494999"><ele>154.66666666666666</ele><time>2026-05-05T08:02:38Z</time></trkpt><trkpt lat="45.86128353179181" lon="15.261602683252141"><ele>155.0</ele><time>2026-05-05T08:02:39Z</time></trkpt><trkpt lat="45.86115837714269" lon="15.261472394786663"><ele>156.0</ele><time>2026-05-05T08:02:40Z</time></trkpt><trkpt lat="45.861049058531606" lon="15.261315514462243"><ele>157.0</ele><time>2026-05-05T08:02:41Z</time></trkpt><trkpt lat="45.860932785815976" lon="15.261170750157044"><ele>158.0</ele><time>2026-05-05T08:02:42Z</time></trkpt><trkpt lat="45.86082037381904" lon="15.26102473383027"><ele>158.33333333333331</ele><time>2026-05-05T08:02:43Z</time></trkpt><trkpt lat="45.86071070215822" lon="15.260876094929516"><ele>158.66666666666666</ele><time>2026-05-05T08:02:44Z</time></trkpt><trkpt lat="45.860602080467494" lon="15.260724429201693"><ele>159.0</ele><time>2026-05-05T08:02:45Z</time></trkpt><trkpt lat="45.86049348430837" lon="15.260572643745718"><ele>159.33333333333334</ele><time>2026-05-05T08:02:46Z</time></trkpt><trkpt lat="45.86038408623707" lon="15.260421985772675"><ele>159.66666666666669</ele><time>2026-05-05T08:02:47Z</time></trkpt><trkpt lat="45.86027802601613" lon="15.260267390213121"><ele>160.0</ele><time>2026-05-05T08:02:48Z</time></trkpt><trkpt lat="45.86017075502861" lon="15.26010938587497"><ele>160.0</ele><time>2026-05-05T08:02:49Z</time></trkpt><trkpt lat="45.86006630519297" lon="15.25994665795694"><ele>160.0</ele><time>2026-05-05T08:02:50Z</time></trkpt><trkpt lat="45.85995142198176" lon="15.259793887970208"><ele>160.0</ele><time>2026-05-05T08:02:51Z</time></trkpt><trkpt lat="45.85985264321796" lon="15.259624621689621"><ele>160.0</ele><time>2026-05-05T08:02:52Z</time></trkpt><trkpt lat="45.859755792464796" lon="15.25945783613557"><ele>160.0</ele><time>2026-05-05T08:02:53Z</time></trkpt><trkpt lat="45.859655197882745" lon="15.259294077886148"><ele>160.0</ele><time>2026-05-05T08:02:54Z</time></trkpt><trkpt lat="45.85955390432069" lon="15.259138148302464"><ele>160.0</ele><time>2026-05-05T08:02:55Z</time></trkpt><trkpt lat="45.85945877316253" lon="15.258974224960848"><ele>160.0</ele><time>2026-05-05T08:02:56Z</time></trkpt><trkpt lat="45.859379465567734" lon="15.258792139167532"><ele>160.0</ele><time>2026-05-05T08:02:57Z</time></trkpt><trkpt lat="45.859344459629135" lon="15.25857749211275"><ele>160.0</ele><time>2026-05-05T08:02:58Z</time></trkpt><trkpt lat="45.85931153334118" lon="15.258360178831808"><ele>160.0</ele><time>2026-05-05T08:02:59Z</time></trkpt><trkpt lat="45.85926936999225" lon="15.258133617055668"><ele>160.0</ele><time>2026-05-05T08:03:00Z</time></trkpt><trkpt lat="45.859191770530096" lon="15.257929628825122"><ele>159.0</ele><time>2026-05-05T08:03:01Z</time></trkpt><trkpt lat="45.85911757311222" lon="15.257735505101293"><ele>158.0</ele><time>2026-05-05T08:03:02Z</time></trkpt><trkpt lat="45.85902323122257" lon="15.257556317406056"><ele>157.0</ele><time>2026-05-05T08:03:03Z</time></trkpt><trkpt lat="45.85892749515258" lon="15.25738346292046"><ele>157.33333333333334</ele><time>2026-05-05T08:03:04Z</time></trkpt><trkpt lat="45.858830955973716" lon="15.257210353411406"><ele>157.66666666666666</ele><time>2026-05-05T08:03:05Z</time></trkpt><trkpt lat="45.85873719660667" lon="15.257028718618576"><ele>158.0</ele><time>2026-05-05T08:03:06Z</time></trkpt><trkpt lat="45.858656403835" lon="15.256829468311473"><ele>158.0</ele><time>2026-05-05T08:03:07Z</time></trkpt><trkpt lat="45.8585915573626" lon="15.256618054550826"><ele>158.0</ele><time>2026-05-05T08:03:08Z</time></trkpt><trkpt lat="45.85857292263888" lon="15.256382300139254"><ele>158.0</ele><time>2026-05-05T08:03:09Z</time></trkpt><trkpt lat="45.858511924236886" lon="15.256167375264383"><ele>157.66666666666666</ele><time>2026-05-05T08:03:10Z</time></trkpt><trkpt lat="45.85845732628107" lon="15.25595339170786"><ele>157.33333333333334</ele><time>2026-05-05T08:03:11Z</time></trkpt><trkpt lat="45.858370815366605" lon="15.255760933905671"><ele>157.0</ele><time>2026-05-05T08:03:12Z</time></trkpt><trkpt lat="45.858264062267885" lon="15.255590873463445"><ele>158.66666666666669</ele><time>2026-05-05T08:03:13Z</time></trkpt><trkpt lat="45.858142779316" lon="15.255434680862836"><ele>160.33333333333334</ele><time>2026-05-05T08:03:14Z</time></trkpt><trkpt lat="45.85801568737729" lon="15.255291768379804"><ele>162.0</ele><time>2026-05-05T08:03:15Z</time></trkpt><trkpt lat="45.857878615159855" lon="15.255152196442397"><ele>162.0</ele><time>2026-05-05T08:03:16Z</time></trkpt><trkpt lat="45.85773123544199" lon="15.255016640380607"><ele>162.0</ele><time>2026-05-05T08:03:17Z</time></trkpt><trkpt lat="45.857570319104695" lon="15.254879812038116"><ele>162.0</ele><time>2026-05-05T08:03:18Z</time></trkpt><trkpt lat="45.85740076425402" lon="15.254733377365328"><ele>159.66666666666666</ele><time>2026-05-05T08:03:19Z</time></trkpt><trkpt lat="45.857219699771335" lon="15.254573616460283"><ele>157.33333333333331</ele><time>2026-05-05T08:03:20Z</time></trkpt><trkpt lat="45.85702660692929" lon="15.254419421142272"><ele>155.0</ele><time>2026-05-05T08:03:21Z</time></trkpt><trkpt lat="45.85682801769751" lon="15.25427997604116"><ele>156.66666666666666</ele><time>2026-05-05T08:03:22Z</time></trkpt><trkpt lat="45.85662957596958" lon="15.254164695837108"><ele>158.33333333333334</ele><time>2026-05-05T08:03:23Z</time></trkpt><trkpt lat="45.85643350377198" lon="15.254071189319864"><ele>160.0</ele><time>2026-05-05T08:03:24Z</time></trkpt><trkpt lat="45.85624264910364" lon="15.253988125270162"><ele>160.66666666666669</ele><time>2026-05-05T08:03:25Z</time></trkpt><trkpt lat="45.856063913391615" lon="15.253912145107188"><ele>161.33333333333334</ele><time>2026-05-05T08:03:26Z</time></trkpt><trkpt lat="45.855880893504576" lon="15.253839260428668"><ele>162.0</ele><time>2026-05-05T08:03:27Z</time></trkpt><trkpt lat="45.85569542237295" lon="15.253768445927497"><ele>162.0</ele><time>2026-05-05T08:03:28Z</time></trkpt><trkpt lat="45.855509734636534" lon="15.2537143634118"><ele>162.0</ele><time>2026-05-05T08:03:29Z</time></trkpt><trkpt lat="45.85532019575304" lon="15.25368004357334"><ele>162.0</ele><time>2026-05-05T08:03:30Z</time></trkpt><trkpt lat="45.85513244839902" lon="15.253668253861514"><ele>162.33333333333334</ele><time>2026-05-05T08:03:31Z</time></trkpt><trkpt lat="45.854941244365314" lon="15.253662465566933"><ele>162.66666666666669</ele><time>2026-05-05T08:03:32Z</time></trkpt><trkpt lat="45.85474935906742" lon="15.253666081509078"><ele>163.0</ele><time>2026-05-05T08:03:33Z</time></trkpt><trkpt lat="45.85456100191066" lon="15.253677876113521"><ele>163.0</ele><time>2026-05-05T08:03:34Z</time></trkpt><trkpt lat="45.85437535299949" lon="15.253679904802894"><ele>163.0</ele><time>2026-05-05T08:03:35Z</time></trkpt><trkpt lat="45.854202247345604" lon="15.253676382786093"><ele>163.0</ele><time>2026-05-05T08:03:36Z</time></trkpt><trkpt lat="45.854046824601554" lon="15.25367425116236"><ele>163.75</ele><time>2026-05-05T08:03:37Z</time></trkpt><trkpt lat="45.85389742491825" lon="15.253664234075698"><ele>164.5</ele><time>2026-05-05T08:03:38Z</time></trkpt><trkpt lat="45.85375737701549" lon="15.253649432048629"><ele>165.25</ele><time>2026-05-05T08:03:39Z</time></trkpt><trkpt lat="45.853619339668356" lon="15.253629705150283"><ele>166.0</ele><time>2026-05-05T08:03:40Z</time></trkpt><trkpt lat="45.85348259135826" lon="15.253613306570225"><ele>165.0</ele><time>2026-05-05T08:03:41Z</time></trkpt><trkpt lat="45.85333752407904" lon="15.253596225799924"><ele>164.0</ele><time>2026-05-05T08:03:42Z</time></trkpt><trkpt lat="45.85318807362846" lon="15.253576624177633"><ele>163.0</ele><time>2026-05-05T08:03:43Z</time></trkpt><trkpt lat="45.853033379959854" lon="15.253551453929955"><ele>163.0</ele><time>2026-05-05T08:03:44Z</time></trkpt><trkpt lat="45.85287207043143" lon="15.253516041472903"><ele>163.0</ele><time>2026-05-05T08:03:45Z</time></trkpt><trkpt lat="45.852700816198606" lon="15.25347373397886"><ele>163.0</ele><time>2026-05-05T08:03:46Z</time></trkpt><trkpt lat="45.8525247765917" lon="15.25342102502055"><ele>162.33333333333334</ele><time>2026-05-05T08:03:47Z</time></trkpt><trkpt lat="45.852343599185886" lon="15.253357482425876"><ele>161.66666666666666</ele><time>2026-05-05T08:03:48Z</time></trkpt><trkpt lat="45.85216269657257" lon="15.253282351336303"><ele>161.0</ele><time>2026-05-05T08:03:49Z</time></trkpt><trkpt lat="45.85198814830437" lon="15.253201184363807"><ele>161.66666666666666</ele><time>2026-05-05T08:03:50Z</time></trkpt><trkpt lat="45.85182955079506" lon="15.25311909398361"><ele>162.33333333333334</ele><time>2026-05-05T08:03:51Z</time></trkpt><trkpt lat="45.851687430777005" lon="15.253042346767222"><ele>163.0</ele><time>2026-05-05T08:03:52Z</time></trkpt><trkpt lat="45.851551413765506" lon="15.252965297151107"><ele>161.75</ele><time>2026-05-05T08:03:53Z</time></trkpt><trkpt lat="45.85141986501043" lon="15.252886133175236"><ele>160.5</ele><time>2026-05-05T08:03:54Z</time></trkpt><trkpt lat="45.85129371315874" lon="15.252806658068392"><ele>159.25</ele><time>2026-05-05T08:03:55Z</time></trkpt><trkpt lat="45.8511762820515" lon="15.252724557088927"><ele>158.0</ele><time>2026-05-05T08:03:56Z</time></trkpt><trkpt lat="45.85107006193107" lon="15.252643590735039"><ele>158.0</ele><time>2026-05-05T08:03:57Z</time></trkpt><trkpt lat="45.85097978999557" lon="15.252566813535873"><ele>158.0</ele><time>2026-05-05T08:03:58Z</time></trkpt><trkpt lat="45.85090662661247" lon="15.252488902244911"><ele>158.0</ele><time>2026-05-05T08:03:59Z</time></trkpt><trkpt lat="45.85085518627302" lon="15.252386109058902"><ele>158.0</ele><time>2026-05-05T08:04:00Z</time></trkpt><trkpt lat="45.85082745246697" lon="15.252271081118028"><ele>158.0</ele><time>2026-05-05T08:04:01Z</time></trkpt><trkpt lat="45.850798485261365" lon="15.252173240904932"><ele>158.0</ele><time>2026-05-05T08:04:02Z</time></trkpt><trkpt lat="45.85074316093929" lon="15.252101865936023"><ele>158.0</ele><time>2026-05-05T08:04:03Z</time></trkpt><trkpt lat="45.850661672131416" lon="15.252074478203586"><ele>158.0</ele><time>2026-05-05T08:04:04Z</time></trkpt><trkpt lat="45.85057403931672" lon="15.252097363502413"><ele>158.0</ele><time>2026-05-05T08:04:05Z</time></trkpt><trkpt lat="45.85050559760395" lon="15.252179806485927"><ele>158.0</ele><time>2026-05-05T08:04:06Z</time></trkpt><trkpt lat="45.85040094738846" lon="15.252126121865805"><ele>158.0</ele><time>2026-05-05T08:04:07Z</time></trkpt><trkpt lat="45.85029036753439" lon="15.252074488180103"><ele>158.0</ele><time>2026-05-05T08:04:08Z</time></trkpt><trkpt lat="45.850171121592844" lon="15.251916085838081"><ele>158.0</ele><time>2026-05-05T08:04:09Z</time></trkpt><trkpt lat="45.85003737191298" lon="15.251791910018083"><ele>158.0</ele><time>2026-05-05T08:04:10Z</time></trkpt><trkpt lat="45.84990491596563" lon="15.25166804498575"><ele>158.0</ele><time>2026-05-05T08:04:11Z</time></trkpt><trkpt lat="45.84978140442424" lon="15.251549264967425"><ele>158.0</ele><time>2026-05-05T08:04:12Z</time></trkpt><trkpt lat="45.84966314441782" lon="15.251431889306566"><ele>158.0</ele><time>2026-05-05T08:04:13Z</time></trkpt><trkpt lat="45.849550870869614" lon="15.251319038675632"><ele>158.0</ele><time>2026-05-05T08:04:14Z</time></trkpt><trkpt lat="45.849443425276114" lon="15.251202684965367"><ele>158.25</ele><time>2026-05-05T08:04:15Z</time></trkpt><trkpt lat="45.84933680616776" lon="15.251085819546157"><ele>158.5</ele><time>2026-05-05T08:04:16Z</time></trkpt><trkpt lat="45.84923478056041" lon="15.250977620671419"><ele>158.75</ele><time>2026-05-05T08:04:17Z</time></trkpt><trkpt lat="45.84913428244" lon="15.250864148367208"><ele>159.0</ele><time>2026-05-05T08:04:18Z</time></trkpt><trkpt lat="45.84903304953913" lon="15.250755383193095"><ele>159.0</ele><time>2026-05-05T08:04:19Z</time></trkpt><trkpt lat="45.8489347296174" lon="15.25063767052007"><ele>159.0</ele><time>2026-05-05T08:04:20Z</time></trkpt><trkpt lat="45.84883535214387" lon="15.250521225573873"><ele>159.0</ele><time>2026-05-05T08:04:21Z</time></trkpt><trkpt lat="45.8487388477814" lon="15.25039623485437"><ele>159.0</ele><time>2026-05-05T08:04:22Z</time></trkpt><trkpt lat="45.84864157582247" lon="15.250279029213994"><ele>159.5</ele><time>2026-05-05T08:04:23Z</time></trkpt><trkpt lat="45.84854276018487" lon="15.25015266420512"><ele>160.0</ele><time>2026-05-05T08:04:24Z</time></trkpt><trkpt lat="45.84844796163481" lon="15.250022853559548"><ele>160.5</ele><time>2026-05-05T08:04:25Z</time></trkpt><trkpt lat="45.84834859631306" lon="15.249892150462008"><ele>161.0</ele><time>2026-05-05T08:04:26Z</time></trkpt><trkpt lat="45.84825090084485" lon="15.249763436163894"><ele>161.0</ele><time>2026-05-05T08:04:27Z</time></trkpt><trkpt lat="45.848150501045026" lon="15.249633913110397"><ele>161.0</ele><time>2026-05-05T08:04:28Z</time></trkpt><trkpt lat="45.84804456231537" lon="15.249496107644573"><ele>161.0</ele><time>2026-05-05T08:04:29Z</time></trkpt><trkpt lat="45.8479281375021" lon="15.249342579947772"><ele>161.0</ele><time>2026-05-05T08:04:30Z</time></trkpt><trkpt lat="45.847799316449894" lon="15.249171303331313"><ele>161.0</ele><time>2026-05-05T08:04:31Z</time></trkpt><trkpt lat="45.84766228444104" lon="15.248995936859984"><ele>161.0</ele><time>2026-05-05T08:04:32Z</time></trkpt><trkpt lat="45.84752258139999" lon="15.248811228645714"><ele>161.0</ele><time>2026-05-05T08:04:33Z</time></trkpt><trkpt lat="45.84737825950259" lon="15.248616297177545"><ele>161.66666666666666</ele><time>2026-05-05T08:04:34Z</time></trkpt><trkpt lat="45.847227133050495" lon="15.24841650517175"><ele>162.33333333333334</ele><time>2026-05-05T08:04:35Z</time></trkpt><trkpt lat="45.847071954506475" lon="15.24821654503991"><ele>163.0</ele><time>2026-05-05T08:04:36Z</time></trkpt><trkpt lat="45.84692428662139" lon="15.248025302094677"><ele>161.0</ele><time>2026-05-05T08:04:37Z</time></trkpt><trkpt lat="45.84677111203049" lon="15.247828419060106"><ele>159.0</ele><time>2026-05-05T08:04:38Z</time></trkpt><trkpt lat="45.84661805988551" lon="15.247644241983956"><ele>157.0</ele><time>2026-05-05T08:04:39Z</time></trkpt><trkpt lat="45.846457890405844" lon="15.247459691147817"><ele>158.0</ele><time>2026-05-05T08:04:40Z</time></trkpt><trkpt lat="45.846285691868516" lon="15.247266314300228"><ele>159.0</ele><time>2026-05-05T08:04:41Z</time></trkpt><trkpt lat="45.84609693380128" lon="15.24705873701747"><ele>158.5</ele><time>2026-05-05T08:04:42Z</time></trkpt><trkpt lat="45.845897034795485" lon="15.246841965997477"><ele>158.0</ele><time>2026-05-05T08:04:43Z</time></trkpt><trkpt lat="45.84567556045242" lon="15.246617240332181"><ele>162.0</ele><time>2026-05-05T08:04:44Z</time></trkpt><trkpt lat="45.84541385806386" lon="15.24637262629622"><ele>166.0</ele><time>2026-05-05T08:04:45Z</time></trkpt><trkpt lat="45.84513179209867" lon="15.246132999367372"><ele>163.0</ele><time>2026-05-05T08:04:46Z</time></trkpt><trkpt lat="45.84484653843945" lon="15.24590278341854"><ele>160.0</ele><time>2026-05-05T08:04:47Z</time></trkpt><trkpt lat="45.844569735160604" lon="15.245684884993793"><ele>162.5</ele><time>2026-05-05T08:04:48Z</time></trkpt><trkpt lat="45.844309337819176" lon="15.245488003601414"><ele>165.0</ele><time>2026-05-05T08:04:49Z</time></trkpt><trkpt lat="45.844065745137165" lon="15.245305623185875"><ele>165.0</ele><time>2026-05-05T08:04:50Z</time></trkpt><trkpt lat="45.84384033318881" lon="15.245135761228289"><ele>165.0</ele><time>2026-05-05T08:04:51Z</time></trkpt><trkpt lat="45.84362228378955" lon="15.244963725429448"><ele>166.0</ele><time>2026-05-05T08:04:52Z</time></trkpt><trkpt lat="45.843404047817224" lon="15.244793593651346"><ele>167.0</ele><time>2026-05-05T08:04:53Z</time></trkpt><trkpt lat="45.8431980819005" lon="15.244627406762827"><ele>167.0</ele><time>2026-05-05T08:04:54Z</time></trkpt><trkpt lat="45.8430043489801" lon="15.24445176482845"><ele>167.0</ele><time>2026-05-05T08:04:55Z</time></trkpt><trkpt lat="45.84281756500566" lon="15.24426850711237"><ele>166.5</ele><time>2026-05-05T08:04:56Z</time></trkpt><trkpt lat="45.84262828355408" lon="15.244082370897905"><ele>166.0</ele><time>2026-05-05T08:04:57Z</time></trkpt><trkpt lat="45.84243992721572" lon="15.24387415037717"><ele>166.0</ele><time>2026-05-05T08:04:58Z</time></trkpt><trkpt lat="45.84223845495629" lon="15.2436473952924"><ele>166.0</ele><time>2026-05-05T08:04:59Z</time></trkpt><trkpt lat="45.842006055965506" lon="15.243380093757137"><ele>165.5</ele><time>2026-05-05T08:05:00Z</time></trkpt><trkpt lat="45.84178027244842" lon="15.243033586888941"><ele>165.0</ele><time>2026-05-05T08:05:01Z</time></trkpt><trkpt lat="45.84157124671355" lon="15.242669863212296"><ele>165.0</ele><time>2026-05-05T08:05:02Z</time></trkpt><trkpt lat="45.84136412103353" lon="15.242303569978432"><ele>165.0</ele><time>2026-05-05T08:05:03Z</time></trkpt><trkpt lat="45.841168236847864" lon="15.241941092260875"><ele>165.0</ele><time>2026-05-05T08:05:04Z</time></trkpt><trkpt lat="45.84099135424416" lon="15.241592832246397"><ele>165.0</ele><time>2026-05-05T08:05:05Z</time></trkpt><trkpt lat="45.84083088133308" lon="15.241245581737875"><ele>165.0</ele><time>2026-05-05T08:05:06Z</time></trkpt><trkpt lat="45.84068931427412" lon="15.24089478475229"><ele>165.0</ele><time>2026-05-05T08:05:07Z</time></trkpt><trkpt lat="45.84056127154161" lon="15.240536116498811"><ele>165.0</ele><time>2026-05-05T08:05:08Z</time></trkpt><trkpt lat="45.84045015347631" lon="15.240171812642167"><ele>165.0</ele><time>2026-05-05T08:05:09Z</time></trkpt><trkpt lat="45.840347896616784" lon="15.239805357422556"><ele>164.5</ele><time>2026-05-05T08:05:10Z</time></trkpt><trkpt lat="45.840254622312834" lon="15.23943360539918"><ele>164.0</ele><time>2026-05-05T08:05:11Z</time></trkpt><trkpt lat="45.840177051764165" lon="15.239059363682186"><ele>162.5</ele><time>2026-05-05T08:05:12Z</time></trkpt><trkpt lat="45.84011562357796" lon="15.238678773227806"><ele>161.0</ele><time>2026-05-05T08:05:13Z</time></trkpt><trkpt lat="45.840069247711384" lon="15.238301211833154"><ele>163.0</ele><time>2026-05-05T08:05:14Z</time></trkpt><trkpt lat="45.84003488274546" lon="15.23793216268089"><ele>165.0</ele><time>2026-05-05T08:05:15Z</time></trkpt><trkpt lat="45.84000615157045" lon="15.237566049398193"><ele>165.5</ele><time>2026-05-05T08:05:16Z</time></trkpt><trkpt lat="45.83997856849003" lon="15.2372134887284"><ele>166.0</ele><time>2026-05-05T08:05:17Z</time></trkpt><trkpt lat="45.83994882633809" lon="15.236868157318746"><ele>166.0</ele><time>2026-05-05T08:05:18Z</time></trkpt><trkpt lat="45.83991629762587" lon="15.236555979146644"><ele>166.0</ele><time>2026-05-05T08:05:19Z</time></trkpt><trkpt lat="45.83988594584815" lon="15.236270334455062"><ele>166.0</ele><time>2026-05-05T08:05:20Z</time></trkpt><trkpt lat="45.83985100646602" lon="15.235989704533807"><ele>166.0</ele><time>2026-05-05T08:05:21Z</time></trkpt><trkpt lat="45.839810196885686" lon="15.235700047239876"><ele>166.0</ele><time>2026-05-05T08:05:22Z</time></trkpt><trkpt lat="45.839760385847434" lon="15.235402799702237"><ele>166.0</ele><time>2026-05-05T08:05:23Z</time></trkpt><trkpt lat="45.83970679795922" lon="15.235099169836305"><ele>168.0</ele><time>2026-05-05T08:05:24Z</time></trkpt><trkpt lat="45.83964644007178" lon="15.23478117088692"><ele>170.0</ele><time>2026-05-05T08:05:25Z</time></trkpt><trkpt lat="45.8395822196049" lon="15.234458656891425"><ele>170.0</ele><time>2026-05-05T08:05:26Z</time></trkpt><trkpt lat="45.83951354274323" lon="15.234138252837385"><ele>170.0</ele><time>2026-05-05T08:05:27Z</time></trkpt><trkpt lat="45.839444896890235" lon="15.233806367033809"><ele>171.0</ele><time>2026-05-05T08:05:28Z</time></trkpt><trkpt lat="45.839381985299894" lon="15.233466592199099"><ele>172.0</ele><time>2026-05-05T08:05:29Z</time></trkpt><trkpt lat="45.83932717071391" lon="15.233122185380676"><ele>168.5</ele><time>2026-05-05T08:05:30Z</time></trkpt><trkpt lat="45.8392793164308" lon="15.232779029337154"><ele>165.0</ele><time>2026-05-05T08:05:31Z</time></trkpt><trkpt lat="45.839236091200206" lon="15.232421986113918"><ele>167.0</ele><time>2026-05-05T08:05:32Z</time></trkpt><trkpt lat="45.83920037450133" lon="15.232052571018961"><ele>169.0</ele><time>2026-05-05T08:05:33Z</time></trkpt><trkpt lat="45.839173699025885" lon="15.231682424251149"><ele>170.0</ele><time>2026-05-05T08:05:34Z</time></trkpt><trkpt lat="45.83915949025201" lon="15.231310540021791"><ele>171.0</ele><time>2026-05-05T08:05:35Z</time></trkpt><trkpt lat="45.83915305452252" lon="15.230939873604845"><ele>174.5</ele><time>2026-05-05T08:05:36Z</time></trkpt><trkpt lat="45.83915528073164" lon="15.23057522796807"><ele>178.0</ele><time>2026-05-05T08:05:37Z</time></trkpt><trkpt lat="45.83916159574779" lon="15.230208633104764"><ele>178.0</ele><time>2026-05-05T08:05:38Z</time></trkpt><trkpt lat="45.839172213424206" lon="15.229846508171812"><ele>178.0</ele><time>2026-05-05T08:05:39Z</time></trkpt><trkpt lat="45.83918540467355" lon="15.229473766753655"><ele>178.5</ele><time>2026-05-05T08:05:40Z</time></trkpt><trkpt lat="45.8391949162509" lon="15.229105086824621"><ele>179.0</ele><time>2026-05-05T08:05:41Z</time></trkpt><trkpt lat="45.83919265816398" lon="15.228742683347374"><ele>179.5</ele><time>2026-05-05T08:05:42Z</time></trkpt><trkpt lat="45.83918324809676" lon="15.228379548262563"><ele>180.0</ele><time>2026-05-05T08:05:43Z</time></trkpt><trkpt lat="45.839154539324944" lon="15.22801529053226"><ele>180.0</ele><time>2026-05-05T08:05:44Z</time></trkpt><trkpt lat="45.83910493120801" lon="15.22765222807868"><ele>180.0</ele><time>2026-05-05T08:05:45Z</time></trkpt><trkpt lat="45.839042022595365" lon="15.227298372855795"><ele>182.5</ele><time>2026-05-05T08:05:46Z</time></trkpt><trkpt lat="45.838957000899384" lon="15.226945006335825"><ele>185.0</ele><time>2026-05-05T08:05:47Z</time></trkpt><trkpt lat="45.83884217831979" lon="15.226598193644916"><ele>186.0</ele><time>2026-05-05T08:05:48Z</time></trkpt><trkpt lat="45.83868980477762" lon="15.226255679366473"><ele>187.0</ele><time>2026-05-05T08:05:49Z</time></trkpt><trkpt lat="45.8384969044625" lon="15.225916424823657"><ele>189.0</ele><time>2026-05-05T08:05:50Z</time></trkpt><trkpt lat="45.8382774191998" lon="15.225601071904029"><ele>191.0</ele><time>2026-05-05T08:05:51Z</time></trkpt><trkpt lat="45.838032573964725" lon="15.225309715395461"><ele>191.0</ele><time>2026-05-05T08:05:52Z</time></trkpt><trkpt lat="45.83775561618339" lon="15.225035046699963"><ele>191.0</ele><time>2026-05-05T08:05:53Z</time></trkpt><trkpt lat="45.83745579717775" lon="15.22478522079911"><ele>191.0</ele><time>2026-05-05T08:05:54Z</time></trkpt><trkpt lat="45.83716191097997" lon="15.224560019101064"><ele>191.0</ele><time>2026-05-05T08:05:55Z</time></trkpt><trkpt lat="45.83688591609951" lon="15.22433608345249"><ele>192.5</ele><time>2026-05-05T08:05:56Z</time></trkpt><trkpt lat="45.83663933994641" lon="15.224109849083838"><ele>194.0</ele><time>2026-05-05T08:05:57Z</time></trkpt><trkpt lat="45.83641061246544" lon="15.223870880117556"><ele>194.0</ele><time>2026-05-05T08:05:58Z</time></trkpt><trkpt lat="45.83619329711832" lon="15.223619773397303"><ele>194.0</ele><time>2026-05-05T08:05:59Z</time></trkpt><trkpt lat="45.83599545580726" lon="15.223353991292404"><ele>191.0</ele><time>2026-05-05T08:06:00Z</time></trkpt><trkpt lat="45.83581749718333" lon="15.223075595342241"><ele>188.0</ele><time>2026-05-05T08:06:01Z</time></trkpt><trkpt lat="45.83565498630871" lon="15.222784215566891"><ele>188.0</ele><time>2026-05-05T08:06:02Z</time></trkpt><trkpt lat="45.83550604522724" lon="15.222489263499572"><ele>188.0</ele><time>2026-05-05T08:06:03Z</time></trkpt><trkpt lat="45.835357152945036" lon="15.222190020737042"><ele>190.0</ele><time>2026-05-05T08:06:04Z</time></trkpt><trkpt lat="45.83521001828469" lon="15.221888494617064"><ele>192.0</ele><time>2026-05-05T08:06:05Z</time></trkpt><trkpt lat="45.83507463232676" lon="15.221586695286335"><ele>187.0</ele><time>2026-05-05T08:06:06Z</time></trkpt><trkpt lat="45.83494634191886" lon="15.221286292766449"><ele>182.0</ele><time>2026-05-05T08:06:07Z</time></trkpt><trkpt lat="45.83482353278834" lon="15.220997289550981"><ele>182.0</ele><time>2026-05-05T08:06:08Z</time></trkpt><trkpt lat="45.8347093731435" lon="15.220726345245676"><ele>182.0</ele><time>2026-05-05T08:06:09Z</time></trkpt><trkpt lat="45.8346057553026" lon="15.220464260638515"><ele>182.0</ele><time>2026-05-05T08:06:10Z</time></trkpt><trkpt lat="45.83451381033076" lon="15.220214927742294"><ele>181.66666666666666</ele><time>2026-05-05T08:06:11Z</time></trkpt><trkpt lat="45.8344344060164" lon="15.219991656866503"><ele>181.33333333333334</ele><time>2026-05-05T08:06:12Z</time></trkpt><trkpt lat="45.834369165295705" lon="15.219763816984266"><ele>181.0</ele><time>2026-05-05T08:06:13Z</time></trkpt><trkpt lat="45.834306843729834" lon="15.219591719960937"><ele>180.8</ele><time>2026-05-05T08:06:14Z</time></trkpt><trkpt lat="45.8342613703937" lon="15.219417171577883"><ele>180.60000000000002</ele><time>2026-05-05T08:06:15Z</time></trkpt><trkpt lat="45.83422791604919" lon="15.219261925043941"><ele>180.4</ele><time>2026-05-05T08:06:16Z</time></trkpt><trkpt lat="45.834208778111304" lon="15.219118651028287"><ele>180.2</ele><time>2026-05-05T08:06:17Z</time></trkpt><trkpt lat="45.83420688492243" lon="15.218981046095317"><ele>180.0</ele><time>2026-05-05T08:06:18Z</time></trkpt><trkpt lat="45.83420715450704" lon="15.218863457306353"><ele>180.0</ele><time>2026-05-05T08:06:19Z</time></trkpt><trkpt lat="45.83417449212533" lon="15.2187656795947"><ele>180.0</ele><time>2026-05-05T08:06:20Z</time></trkpt><trkpt lat="45.83411075275153" lon="15.218682658173098"><ele>180.0</ele><time>2026-05-05T08:06:21Z</time></trkpt><trkpt lat="45.83404495682963" lon="15.218576652169084"><ele>180.0</ele><time>2026-05-05T08:06:22Z</time></trkpt><trkpt lat="45.833990389572136" lon="15.218424254624573"><ele>180.0</ele><time>2026-05-05T08:06:23Z</time></trkpt><trkpt lat="45.83394581103673" lon="15.218258060492381"><ele>180.5</ele><time>2026-05-05T08:06:24Z</time></trkpt><trkpt lat="45.83390704178056" lon="15.218089343888845"><ele>181.0</ele><time>2026-05-05T08:06:25Z</time></trkpt><trkpt lat="45.83387067090988" lon="15.21792721323804"><ele>181.5</ele><time>2026-05-05T08:06:26Z</time></trkpt><trkpt lat="45.83383562044713" lon="15.217763858651569"><ele>182.0</ele><time>2026-05-05T08:06:27Z</time></trkpt><trkpt lat="45.83380122162013" lon="15.217598518354576"><ele>182.0</ele><time>2026-05-05T08:06:28Z</time></trkpt><trkpt lat="45.83376558041276" lon="15.217422972611136"><ele>182.0</ele><time>2026-05-05T08:06:29Z</time></trkpt><trkpt lat="45.833728024797466" lon="15.217237385859152"><ele>182.0</ele><time>2026-05-05T08:06:30Z</time></trkpt><trkpt lat="45.83369004827485" lon="15.217041174187102"><ele>182.0</ele><time>2026-05-05T08:06:31Z</time></trkpt><trkpt lat="45.83365323764812" lon="15.216836828299785"><ele>182.66666666666666</ele><time>2026-05-05T08:06:32Z</time></trkpt><trkpt lat="45.833618167690574" lon="15.216620759513651"><ele>183.33333333333334</ele><time>2026-05-05T08:06:33Z</time></trkpt><trkpt lat="45.83358764660559" lon="15.216391505157315"><ele>184.0</ele><time>2026-05-05T08:06:34Z</time></trkpt><trkpt lat="45.83355839610192" lon="15.216151503109549"><ele>183.66666666666669</ele><time>2026-05-05T08:06:35Z</time></trkpt><trkpt lat="45.83353166065843" lon="15.215904008487733"><ele>183.33333333333334</ele><time>2026-05-05T08:06:36Z</time></trkpt><trkpt lat="45.8335094908397" lon="15.215647399292022"><ele>183.0</ele><time>2026-05-05T08:06:37Z</time></trkpt><trkpt lat="45.83349301273109" lon="15.215372559095957"><ele>183.0</ele><time>2026-05-05T08:06:38Z</time></trkpt><trkpt lat="45.833484106882594" lon="15.215091132015651"><ele>183.0</ele><time>2026-05-05T08:06:39Z</time></trkpt><trkpt lat="45.83348165666437" lon="15.214802011566842"><ele>183.0</ele><time>2026-05-05T08:06:40Z</time></trkpt><trkpt lat="45.83348467526673" lon="15.21451047520521"><ele>182.0</ele><time>2026-05-05T08:06:41Z</time></trkpt><trkpt lat="45.833494180813666" lon="15.214220001556372"><ele>181.0</ele><time>2026-05-05T08:06:42Z</time></trkpt><trkpt lat="45.8335132689746" lon="15.213931539513245"><ele>180.0</ele><time>2026-05-05T08:06:43Z</time></trkpt><trkpt lat="45.83354307981949" lon="15.213647818419854"><ele>179.66666666666666</ele><time>2026-05-05T08:06:44Z</time></trkpt><trkpt lat="45.83358108508165" lon="15.213357296367684"><ele>179.33333333333331</ele><time>2026-05-05T08:06:45Z</time></trkpt><trkpt lat="45.83362344871587" lon="15.213059229344307"><ele>179.0</ele><time>2026-05-05T08:06:46Z</time></trkpt><trkpt lat="45.833666522219815" lon="15.212752442216443"><ele>178.66666666666666</ele><time>2026-05-05T08:06:47Z</time></trkpt><trkpt lat="45.83371049402433" lon="15.212439709751877"><ele>178.33333333333334</ele><time>2026-05-05T08:06:48Z</time></trkpt><trkpt lat="45.8337532445105" lon="15.212121144588892"><ele>178.0</ele><time>2026-05-05T08:06:49Z</time></trkpt><trkpt lat="45.833796233465925" lon="15.21180185186977"><ele>177.33333333333334</ele><time>2026-05-05T08:06:50Z</time></trkpt><trkpt lat="45.83382954627386" lon="15.211485821612614"><ele>176.66666666666666</ele><time>2026-05-05T08:06:51Z</time></trkpt><trkpt lat="45.83385491603699" lon="15.211168386630023"><ele>176.0</ele><time>2026-05-05T08:06:52Z</time></trkpt><trkpt lat="45.83386779746249" lon="15.2108508242104"><ele>174.0</ele><time>2026-05-05T08:06:53Z</time></trkpt><trkpt lat="45.8338725567189" lon="15.210528766298221"><ele>172.0</ele><time>2026-05-05T08:06:54Z</time></trkpt><trkpt lat="45.83386784382473" lon="15.210200137000603"><ele>172.0</ele><time>2026-05-05T08:06:55Z</time></trkpt><trkpt lat="45.833849232368195" lon="15.209867130970881"><ele>172.0</ele><time>2026-05-05T08:06:56Z</time></trkpt><trkpt lat="45.833818707413975" lon="15.209529642141822"><ele>172.0</ele><time>2026-05-05T08:06:57Z</time></trkpt><trkpt lat="45.83377796064482" lon="15.20920444645628"><ele>172.0</ele><time>2026-05-05T08:06:58Z</time></trkpt><trkpt lat="45.83372534787708" lon="15.208896727251897"><ele>171.66666666666669</ele><time>2026-05-05T08:06:59Z</time></trkpt><trkpt lat="45.83366744617655" lon="15.208615870853373"><ele>171.33333333333334</ele><time>2026-05-05T08:07:00Z</time></trkpt><trkpt lat="45.83360064919662" lon="15.208348790271994"><ele>171.0</ele><time>2026-05-05T08:07:01Z</time></trkpt><trkpt lat="45.83352503032435" lon="15.208085165888003"><ele>172.66666666666666</ele><time>2026-05-05T08:07:02Z</time></trkpt><trkpt lat="45.83344528489998" lon="15.207820223683889"><ele>174.33333333333331</ele><time>2026-05-05T08:07:03Z</time></trkpt><trkpt lat="45.833362344134386" lon="15.207552127252336"><ele>176.0</ele><time>2026-05-05T08:07:04Z</time></trkpt><trkpt lat="45.833278675199985" lon="15.20728237747589"><ele>177.0</ele><time>2026-05-05T08:07:05Z</time></trkpt><trkpt lat="45.83319560023083" lon="15.207022887550231"><ele>178.0</ele><time>2026-05-05T08:07:06Z</time></trkpt><trkpt lat="45.83311435408005" lon="15.206778098846208"><ele>179.0</ele><time>2026-05-05T08:07:07Z</time></trkpt><trkpt lat="45.8330376747965" lon="15.206551806683867"><ele>180.0</ele><time>2026-05-05T08:07:08Z</time></trkpt><trkpt lat="45.8329802252244" lon="15.206315572073077"><ele>181.0</ele><time>2026-05-05T08:07:09Z</time></trkpt><trkpt lat="45.83289674341961" lon="15.206094705630507"><ele>182.0</ele><time>2026-05-05T08:07:10Z</time></trkpt><trkpt lat="45.8328327209767" lon="15.20586335493357"><ele>183.66666666666666</ele><time>2026-05-05T08:07:11Z</time></trkpt><trkpt lat="45.832772146987615" lon="15.205629877681188"><ele>185.33333333333334</ele><time>2026-05-05T08:07:12Z</time></trkpt><trkpt lat="45.832715355480815" lon="15.205389306572064"><ele>187.0</ele><time>2026-05-05T08:07:13Z</time></trkpt><trkpt lat="45.832662537183644" lon="15.205134670849652"><ele>186.33333333333334</ele><time>2026-05-05T08:07:14Z</time></trkpt><trkpt lat="45.83260862653023" lon="15.20487042076422"><ele>185.66666666666666</ele><time>2026-05-05T08:07:15Z</time></trkpt><trkpt lat="45.83255360428514" lon="15.204598438849471"><ele>185.0</ele><time>2026-05-05T08:07:16Z</time></trkpt><trkpt lat="45.8324972040312" lon="15.204318394909711"><ele>186.33333333333331</ele><time>2026-05-05T08:07:17Z</time></trkpt><trkpt lat="45.8324371666179" lon="15.204034355634402"><ele>187.66666666666666</ele><time>2026-05-05T08:07:18Z</time></trkpt><trkpt lat="45.83237601329308" lon="15.203749761455917"><ele>189.0</ele><time>2026-05-05T08:07:19Z</time></trkpt><trkpt lat="45.83231063665487" lon="15.203462816453609"><ele>190.66666666666669</ele><time>2026-05-05T08:07:20Z</time></trkpt><trkpt lat="45.83223462004019" lon="15.203173600591603"><ele>192.33333333333334</ele><time>2026-05-05T08:07:21Z</time></trkpt><trkpt lat="45.83214743829425" lon="15.202895030785001"><ele>194.0</ele><time>2026-05-05T08:07:22Z</time></trkpt><trkpt lat="45.832048387931145" lon="15.202621440554147"><ele>195.0</ele><time>2026-05-05T08:07:23Z</time></trkpt><trkpt lat="45.83196158303523" lon="15.20233792201634"><ele>196.0</ele><time>2026-05-05T08:07:24Z</time></trkpt><trkpt lat="45.831867391086085" lon="15.202059831564117"><ele>197.0</ele><time>2026-05-05T08:07:25Z</time></trkpt><trkpt lat="45.83177073270694" lon="15.201791469833829"><ele>197.5</ele><time>2026-05-05T08:07:26Z</time></trkpt><trkpt lat="45.831536500761864" lon="15.201629270233669"><ele>198.0</ele><time>2026-05-05T08:07:27Z</time></trkpt><trkpt lat="45.83138296321989" lon="15.201425589928972"><ele>198.0</ele><time>2026-05-05T08:07:28Z</time></trkpt><trkpt lat="45.83122315458498" lon="15.201233381658026"><ele>198.0</ele><time>2026-05-05T08:07:29Z</time></trkpt><trkpt lat="45.83106023431388" lon="15.201060512382812"><ele>198.0</ele><time>2026-05-05T08:07:30Z</time></trkpt><trkpt lat="45.830892047487005" lon="15.20090357097597"><ele>195.33333333333334</ele><time>2026-05-05T08:07:31Z</time></trkpt><trkpt lat="45.83072295129488" lon="15.200768368094018"><ele>192.66666666666669</ele><time>2026-05-05T08:07:32Z</time></trkpt><trkpt lat="45.83056241921785" lon="15.200653565414157"><ele>190.0</ele><time>2026-05-05T08:07:33Z</time></trkpt><trkpt lat="45.830410635001" lon="15.200548764784681"><ele>189.66666666666669</ele><time>2026-05-05T08:07:34Z</time></trkpt><trkpt lat="45.83026145336232" lon="15.200448679514801"><ele>189.33333333333334</ele><time>2026-05-05T08:07:35Z</time></trkpt><trkpt lat="45.83011574763073" lon="15.200349538900166"><ele>189.0</ele><time>2026-05-05T08:07:36Z</time></trkpt><trkpt lat="45.82996630536192" lon="15.200241768218685"><ele>187.33333333333334</ele><time>2026-05-05T08:07:37Z</time></trkpt><trkpt lat="45.82981373749998" lon="15.20013157750175"><ele>185.66666666666669</ele><time>2026-05-05T08:07:38Z</time></trkpt><trkpt lat="45.82966074719978" lon="15.200017536455382"><ele>184.0</ele><time>2026-05-05T08:07:39Z</time></trkpt><trkpt lat="45.82950776509094" lon="15.199899701457099"><ele>184.0</ele><time>2026-05-05T08:07:40Z</time></trkpt><trkpt lat="45.82935800242889" lon="15.19977490291597"><ele>184.0</ele><time>2026-05-05T08:07:41Z</time></trkpt><trkpt lat="45.829224056864675" lon="15.199625222921835"><ele>184.0</ele><time>2026-05-05T08:07:42Z</time></trkpt><trkpt lat="45.829100156080194" lon="15.199454762964315"><ele>184.0</ele><time>2026-05-05T08:07:43Z</time></trkpt><trkpt lat="45.828972354771196" lon="15.199291257557098"><ele>184.0</ele><time>2026-05-05T08:07:44Z</time></trkpt><trkpt lat="45.82885875390172" lon="15.199112397401503"><ele>184.0</ele><time>2026-05-05T08:07:45Z</time></trkpt><trkpt lat="45.828754043363496" lon="15.198920501674223"><ele>184.0</ele><time>2026-05-05T08:07:46Z</time></trkpt><trkpt lat="45.82864346716947" lon="15.198735059766143"><ele>184.0</ele><time>2026-05-05T08:07:47Z</time></trkpt><trkpt lat="45.82854927101226" lon="15.198532181346366"><ele>184.0</ele><time>2026-05-05T08:07:48Z</time></trkpt><trkpt lat="45.82846365414307" lon="15.19832286143256"><ele>184.0</ele><time>2026-05-05T08:07:49Z</time></trkpt><trkpt lat="45.82837814894174" lon="15.198112861100388"><ele>184.0</ele><time>2026-05-05T08:07:50Z</time></trkpt><trkpt lat="45.8283041006324" lon="15.197892447086994"><ele>184.0</ele><time>2026-05-05T08:07:51Z</time></trkpt><trkpt lat="45.828232168494964" lon="15.197667852644242"><ele>184.0</ele><time>2026-05-05T08:07:52Z</time></trkpt><trkpt lat="45.82816121921398" lon="15.19744692987131"><ele>184.0</ele><time>2026-05-05T08:07:53Z</time></trkpt><trkpt lat="45.828089480825746" lon="15.197226239019002"><ele>184.0</ele><time>2026-05-05T08:07:54Z</time></trkpt><trkpt lat="45.82801866899183" lon="15.197006780697675"><ele>185.33333333333334</ele><time>2026-05-05T08:07:55Z</time></trkpt><trkpt lat="45.827947630205244" lon="15.196785135294196"><ele>186.66666666666666</ele><time>2026-05-05T08:07:56Z</time></trkpt><trkpt lat="45.82787924202101" lon="15.196563482250872"><ele>188.0</ele><time>2026-05-05T08:07:57Z</time></trkpt><trkpt lat="45.82781114606353" lon="15.196338768166346"><ele>188.0</ele><time>2026-05-05T08:07:58Z</time></trkpt><trkpt lat="45.82774262267765" lon="15.196114183690307"><ele>188.0</ele><time>2026-05-05T08:07:59Z</time></trkpt><trkpt lat="45.82767610486905" lon="15.19589022081037"><ele>188.0</ele><time>2026-05-05T08:08:00Z</time></trkpt><trkpt lat="45.82761235319081" lon="15.195661501587216"><ele>188.0</ele><time>2026-05-05T08:08:01Z</time></trkpt><trkpt lat="45.82755341094181" lon="15.195432650630467"><ele>188.0</ele><time>2026-05-05T08:08:02Z</time></trkpt><trkpt lat="45.82749658063143" lon="15.195204202115024"><ele>188.0</ele><time>2026-05-05T08:08:03Z</time></trkpt><trkpt lat="45.82743628484134" lon="15.194975011081986"><ele>189.66666666666666</ele><time>2026-05-05T08:08:04Z</time></trkpt><trkpt lat="45.827379694362435" lon="15.1947435013812"><ele>191.33333333333331</ele><time>2026-05-05T08:08:05Z</time></trkpt><trkpt lat="45.82732993861063" lon="15.19451049156739"><ele>193.0</ele><time>2026-05-05T08:08:06Z</time></trkpt><trkpt lat="45.82728562412164" lon="15.19427659794784"><ele>193.0</ele><time>2026-05-05T08:08:07Z</time></trkpt><trkpt lat="45.827246233881816" lon="15.194042866240412"><ele>193.0</ele><time>2026-05-05T08:08:08Z</time></trkpt><trkpt lat="45.82720696152541" lon="15.193805399683438"><ele>193.0</ele><time>2026-05-05T08:08:09Z</time></trkpt><trkpt lat="45.827177345564955" lon="15.193565562356207"><ele>193.66666666666666</ele><time>2026-05-05T08:08:10Z</time></trkpt><trkpt lat="45.827151199053674" lon="15.193328784902642"><ele>194.33333333333331</ele><time>2026-05-05T08:08:11Z</time></trkpt><trkpt lat="45.82713013346982" lon="15.193086333333168"><ele>195.0</ele><time>2026-05-05T08:08:12Z</time></trkpt><trkpt lat="45.827110770015736" lon="15.192845816811307"><ele>195.0</ele><time>2026-05-05T08:08:13Z</time></trkpt><trkpt lat="45.82709757132897" lon="15.192625342679225"><ele>195.0</ele><time>2026-05-05T08:08:14Z</time></trkpt><trkpt lat="45.82707455458876" lon="15.192409728967329"><ele>195.0</ele><time>2026-05-05T08:08:15Z</time></trkpt><trkpt lat="45.82706891692676" lon="15.192213257883996"><ele>195.0</ele><time>2026-05-05T08:08:16Z</time></trkpt><trkpt lat="45.827062236257504" lon="15.19202536401583"><ele>193.75</ele><time>2026-05-05T08:08:17Z</time></trkpt><trkpt lat="45.82705510514457" lon="15.191850078095454"><ele>192.5</ele><time>2026-05-05T08:08:18Z</time></trkpt><trkpt lat="45.827047851017" lon="15.191679013459645"><ele>191.25</ele><time>2026-05-05T08:08:19Z</time></trkpt><trkpt lat="45.8270441958117" lon="15.191518995021607"><ele>190.0</ele><time>2026-05-05T08:08:20Z</time></trkpt><trkpt lat="45.82704645012892" lon="15.191365840053834"><ele>188.83333333333334</ele><time>2026-05-05T08:08:21Z</time></trkpt><trkpt lat="45.82704088544304" lon="15.19122535979068"><ele>187.66666666666669</ele><time>2026-05-05T08:08:22Z</time></trkpt><trkpt lat="45.8270367754682" lon="15.19109994980083"><ele>186.5</ele><time>2026-05-05T08:08:23Z</time></trkpt><trkpt lat="45.827028800541676" lon="15.190998394452743"><ele>185.33333333333334</ele><time>2026-05-05T08:08:24Z</time></trkpt><trkpt lat="45.827023365865756" lon="15.190907511572519"><ele>184.16666666666666</ele><time>2026-05-05T08:08:25Z</time></trkpt><trkpt lat="45.8270161255379" lon="15.190781225515584"><ele>183.0</ele><time>2026-05-05T08:08:27Z</time></trkpt><trkpt lat="45.82701353133636" lon="15.19065976820978"><ele>182.83333333333334</ele><time>2026-05-05T08:08:29Z</time></trkpt><trkpt lat="45.82700794410885" lon="15.190521162570677"><ele>182.66666666666666</ele><time>2026-05-05T08:08:31Z</time></trkpt><trkpt lat="45.82702318667061" lon="15.190365418036343"><ele>182.5</ele><time>2026-05-05T08:08:33Z</time></trkpt><trkpt lat="45.82704995957066" lon="15.190281193234508"><ele>182.33333333333331</ele><time>2026-05-05T08:08:34Z</time></trkpt><trkpt lat="45.82707499964536" lon="15.190195281886249"><ele>182.16666666666666</ele><time>2026-05-05T08:08:35Z</time></trkpt><trkpt lat="45.82707438353891" lon="15.190099096405236"><ele>182.0</ele><time>2026-05-05T08:08:36Z</time></trkpt><trkpt lat="45.82704905664811" lon="15.190001494134973"><ele>182.0</ele><time>2026-05-05T08:08:37Z</time></trkpt><trkpt lat="45.82700251539335" lon="15.189917636902397"><ele>182.0</ele><time>2026-05-05T08:08:38Z</time></trkpt><trkpt lat="45.826938576856264" lon="15.18984052607133"><ele>182.0</ele><time>2026-05-05T08:08:39Z</time></trkpt><trkpt lat="45.82689404347762" lon="15.189735747775492"><ele>182.0</ele><time>2026-05-05T08:08:40Z</time></trkpt><trkpt lat="45.826857973629856" lon="15.18960776874432"><ele>182.0</ele><time>2026-05-05T08:08:41Z</time></trkpt><trkpt lat="45.826822351058595" lon="15.18947185794836"><ele>182.0</ele><time>2026-05-05T08:08:42Z</time></trkpt><trkpt lat="45.82678544388917" lon="15.189330253441177"><ele>182.5</ele><time>2026-05-05T08:08:43Z</time></trkpt><trkpt lat="45.8267464070196" lon="15.189186296704484"><ele>183.0</ele><time>2026-05-05T08:08:44Z</time></trkpt><trkpt lat="45.826703448888175" lon="15.18903386703146"><ele>183.5</ele><time>2026-05-05T08:08:45Z</time></trkpt><trkpt lat="45.82665212754816" lon="15.188854302297308"><ele>184.0</ele><time>2026-05-05T08:08:46Z</time></trkpt><trkpt lat="45.82659794288027" lon="15.188657142096968"><ele>184.0</ele><time>2026-05-05T08:08:47Z</time></trkpt><trkpt lat="45.826541118709" lon="15.188450773159154"><ele>184.0</ele><time>2026-05-05T08:08:48Z</time></trkpt><trkpt lat="45.82648322214345" lon="15.188235973060422"><ele>184.0</ele><time>2026-05-05T08:08:49Z</time></trkpt><trkpt lat="45.82642862657812" lon="15.188026864145113"><ele>184.0</ele><time>2026-05-05T08:08:50Z</time></trkpt><trkpt lat="45.826378535484025" lon="15.18782317700398"><ele>184.0</ele><time>2026-05-05T08:08:51Z</time></trkpt><trkpt lat="45.826334543383545" lon="15.187620651477472"><ele>184.0</ele><time>2026-05-05T08:08:52Z</time></trkpt><trkpt lat="45.82629669469357" lon="15.187417408614532"><ele>184.0</ele><time>2026-05-05T08:08:53Z</time></trkpt><trkpt lat="45.8262669970394" lon="15.1872158066652"><ele>184.0</ele><time>2026-05-05T08:08:54Z</time></trkpt><trkpt lat="45.82623895919935" lon="15.187013951011494"><ele>184.0</ele><time>2026-05-05T08:08:55Z</time></trkpt><trkpt lat="45.82620894608405" lon="15.186812708319087"><ele>184.0</ele><time>2026-05-05T08:08:56Z</time></trkpt><trkpt lat="45.826178004769666" lon="15.186608658541866"><ele>184.0</ele><time>2026-05-05T08:08:57Z</time></trkpt><trkpt lat="45.82615191658465" lon="15.186405403931865"><ele>184.0</ele><time>2026-05-05T08:08:58Z</time></trkpt><trkpt lat="45.82612963886262" lon="15.186197864150321"><ele>184.0</ele><time>2026-05-05T08:08:59Z</time></trkpt><trkpt lat="45.826112937476985" lon="15.185992069749444"><ele>184.0</ele><time>2026-05-05T08:09:00Z</time></trkpt><trkpt lat="45.82610006529436" lon="15.18578537391201"><ele>184.0</ele><time>2026-05-05T08:09:01Z</time></trkpt><trkpt lat="45.826093167144606" lon="15.185575473717972"><ele>184.75</ele><time>2026-05-05T08:09:02Z</time></trkpt><trkpt lat="45.82609349018178" lon="15.185364276203149"><ele>185.5</ele><time>2026-05-05T08:09:03Z</time></trkpt><trkpt lat="45.82609467389628" lon="15.185155582681045"><ele>186.25</ele><time>2026-05-05T08:09:04Z</time></trkpt><trkpt lat="45.82609784495936" lon="15.184952516698951"><ele>187.0</ele><time>2026-05-05T08:09:05Z</time></trkpt><trkpt lat="45.82612016787425" lon="15.18476614401481"><ele>188.2</ele><time>2026-05-05T08:09:06Z</time></trkpt><trkpt lat="45.82612537523506" lon="15.184594090048279"><ele>189.39999999999998</ele><time>2026-05-05T08:09:07Z</time></trkpt><trkpt lat="45.826129540646164" lon="15.184439378147733"><ele>190.60000000000002</ele><time>2026-05-05T08:09:08Z</time></trkpt><trkpt lat="45.82613190079885" lon="15.184306611144539"><ele>191.8</ele><time>2026-05-05T08:09:09Z</time></trkpt><trkpt lat="45.82613361135876" lon="15.184211980515197"><ele>193.0</ele><time>2026-05-05T08:09:10Z</time></trkpt><trkpt lat="45.826135390502884" lon="15.18411355569262"><ele>192.99999999999997</ele><time>2026-05-05T08:09:12Z</time></trkpt><trkpt lat="45.82613719051084" lon="15.184013977267732"><ele>193.0</ele><time>2026-05-05T08:09:14Z</time></trkpt><trkpt lat="45.826151203065315" lon="15.183902947799298"><ele>193.0</ele><time>2026-05-05T08:09:17Z</time></trkpt><trkpt lat="45.82617991229811" lon="15.183804860060674"><ele>193.0</ele><time>2026-05-05T08:09:19Z</time></trkpt><trkpt lat="45.826255369127644" lon="15.183728144875886"><ele>192.99999999999997</ele><time>2026-05-05T08:09:21Z</time></trkpt><trkpt lat="45.826293538511905" lon="15.183654807308384"><ele>193.0</ele><time>2026-05-05T08:09:22Z</time></trkpt><trkpt lat="45.826345016627016" lon="15.1835824898222"><ele>192.83333333333331</ele><time>2026-05-05T08:09:23Z</time></trkpt><trkpt lat="45.82637563998258" lon="15.18349655718979"><ele>192.66666666666666</ele><time>2026-05-05T08:09:24Z</time></trkpt><trkpt lat="45.826338855837534" lon="15.183369898274105"><ele>192.5</ele><time>2026-05-05T08:09:25Z</time></trkpt><trkpt lat="45.826298800673435" lon="15.183278524447422"><ele>192.33333333333331</ele><time>2026-05-05T08:09:26Z</time></trkpt><trkpt lat="45.826242617969314" lon="15.183189163622288"><ele>192.16666666666666</ele><time>2026-05-05T08:09:27Z</time></trkpt><trkpt lat="45.826148635921236" lon="15.183166693803352"><ele>192.0</ele><time>2026-05-05T08:09:28Z</time></trkpt><trkpt lat="45.826077298716875" lon="15.183109769744146"><ele>191.6</ele><time>2026-05-05T08:09:29Z</time></trkpt><trkpt lat="45.82603985983105" lon="15.182993236229283"><ele>191.2</ele><time>2026-05-05T08:09:30Z</time></trkpt><trkpt lat="45.82600905944914" lon="15.182871212960086"><ele>190.8</ele><time>2026-05-05T08:09:31Z</time></trkpt><trkpt lat="45.825981532620574" lon="15.182742583070969"><ele>190.4</ele><time>2026-05-05T08:09:32Z</time></trkpt><trkpt lat="45.825951033666364" lon="15.182603447891212"><ele>190.0</ele><time>2026-05-05T08:09:33Z</time></trkpt><trkpt lat="45.82591445858127" lon="15.182458435772952"><ele>188.0</ele><time>2026-05-05T08:09:34Z</time></trkpt><trkpt lat="45.825877168111745" lon="15.182305939992055"><ele>186.0</ele><time>2026-05-05T08:09:35Z</time></trkpt><trkpt lat="45.82583859288222" lon="15.182146612913293"><ele>184.0</ele><time>2026-05-05T08:09:36Z</time></trkpt><trkpt lat="45.8258040627665" lon="15.181997454316642"><ele>182.0</ele><time>2026-05-05T08:09:37Z</time></trkpt><trkpt lat="45.82576228151236" lon="15.181833475967899"><ele>182.0</ele><time>2026-05-05T08:09:38Z</time></trkpt><trkpt lat="45.825730313129576" lon="15.181663805943389"><ele>182.0</ele><time>2026-05-05T08:09:39Z</time></trkpt><trkpt lat="45.82568713047452" lon="15.181496776239715"><ele>182.0</ele><time>2026-05-05T08:09:40Z</time></trkpt><trkpt lat="45.82565904334685" lon="15.181322626030385"><ele>182.0</ele><time>2026-05-05T08:09:41Z</time></trkpt><trkpt lat="45.825624073506994" lon="15.18116076406489"><ele>182.39999999999998</ele><time>2026-05-05T08:09:42Z</time></trkpt><trkpt lat="45.8255907931081" lon="15.180999443067194"><ele>182.79999999999998</ele><time>2026-05-05T08:09:43Z</time></trkpt><trkpt lat="45.82556416839042" lon="15.180843806633845"><ele>183.2</ele><time>2026-05-05T08:09:44Z</time></trkpt><trkpt lat="45.82554368900295" lon="15.180694470970927"><ele>183.6</ele><time>2026-05-05T08:09:45Z</time></trkpt><trkpt lat="45.8255273110393" lon="15.180559156349632"><ele>184.0</ele><time>2026-05-05T08:09:46Z</time></trkpt><trkpt lat="45.825500694752435" lon="15.180442665923245"><ele>184.83333333333334</ele><time>2026-05-05T08:09:47Z</time></trkpt><trkpt lat="45.82549461479012" lon="15.180334914551198"><ele>185.66666666666669</ele><time>2026-05-05T08:09:48Z</time></trkpt><trkpt lat="45.82550226812941" lon="15.1802368318022"><ele>186.5</ele><time>2026-05-05T08:09:49Z</time></trkpt><trkpt lat="45.82547652054434" lon="15.180084824458765"><ele>187.33333333333334</ele><time>2026-05-05T08:09:51Z</time></trkpt><trkpt lat="45.825481155232616" lon="15.179973490874357"><ele>188.16666666666666</ele><time>2026-05-05T08:09:53Z</time></trkpt><trkpt lat="45.82552761236334" lon="15.179860821516918"><ele>189.0</ele><time>2026-05-05T08:09:55Z</time></trkpt><trkpt lat="45.82558269765369" lon="15.179796286158602"><ele>189.75</ele><time>2026-05-05T08:09:56Z</time></trkpt><trkpt lat="45.82564961639823" lon="15.179731831389958"><ele>190.5</ele><time>2026-05-05T08:09:57Z</time></trkpt><trkpt lat="45.82572249166457" lon="15.17966951651943"><ele>191.25</ele><time>2026-05-05T08:09:58Z</time></trkpt><trkpt lat="45.825921284132725" lon="15.179706533290775"><ele>192.0</ele><time>2026-05-05T08:10:00Z</time></trkpt><trkpt lat="45.82602188454527" lon="15.179786562280622"><ele>193.75</ele><time>2026-05-05T08:10:01Z</time></trkpt><trkpt lat="45.82612808541699" lon="15.179856079217277"><ele>195.5</ele><time>2026-05-05T08:10:02Z</time></trkpt><trkpt lat="45.82624190541516" lon="15.179926223695016"><ele>197.25</ele><time>2026-05-05T08:10:03Z</time></trkpt><trkpt lat="45.82636769828463" lon="15.179997724569237"><ele>199.0</ele><time>2026-05-05T08:10:04Z</time></trkpt><trkpt lat="45.82649507851107" lon="15.180075227680602"><ele>199.0</ele><time>2026-05-05T08:10:05Z</time></trkpt><trkpt lat="45.826630529670275" lon="15.18015035356316"><ele>199.0</ele><time>2026-05-05T08:10:06Z</time></trkpt><trkpt lat="45.82677230106114" lon="15.180229094348384"><ele>199.0</ele><time>2026-05-05T08:10:07Z</time></trkpt><trkpt lat="45.82691771056106" lon="15.180308991609765"><ele>203.0</ele><time>2026-05-05T08:10:08Z</time></trkpt><trkpt lat="45.82707366462387" lon="15.180390548102984"><ele>207.0</ele><time>2026-05-05T08:10:09Z</time></trkpt><trkpt lat="45.82723574137131" lon="15.180467872952743"><ele>211.0</ele><time>2026-05-05T08:10:10Z</time></trkpt><trkpt lat="45.82740499074559" lon="15.180543618524279"><ele>211.0</ele><time>2026-05-05T08:10:11Z</time></trkpt><trkpt lat="45.82757411071416" lon="15.180615715841965"><ele>211.0</ele><time>2026-05-05T08:10:12Z</time></trkpt><trkpt lat="45.827749604033336" lon="15.180679085367554"><ele>211.0</ele><time>2026-05-05T08:10:13Z</time></trkpt><trkpt lat="45.82793328961693" lon="15.18072651537487"><ele>212.0</ele><time>2026-05-05T08:10:14Z</time></trkpt><trkpt lat="45.828119470885866" lon="15.180756932520248"><ele>213.0</ele><time>2026-05-05T08:10:15Z</time></trkpt><trkpt lat="45.828305497011" lon="15.180771517445162"><ele>214.0</ele><time>2026-05-05T08:10:16Z</time></trkpt><trkpt lat="45.8284903455431" lon="15.18077665264559"><ele>214.0</ele><time>2026-05-05T08:10:17Z</time></trkpt><trkpt lat="45.828678168564295" lon="15.180769364300021"><ele>214.0</ele><time>2026-05-05T08:10:18Z</time></trkpt><trkpt lat="45.82886825604532" lon="15.180746457957918"><ele>214.0</ele><time>2026-05-05T08:10:19Z</time></trkpt><trkpt lat="45.8290548359742" lon="15.18070744509033"><ele>213.0</ele><time>2026-05-05T08:10:20Z</time></trkpt><trkpt lat="45.829239951351695" lon="15.180651887291386"><ele>212.0</ele><time>2026-05-05T08:10:21Z</time></trkpt><trkpt lat="45.82941319554753" lon="15.180588197656471"><ele>211.0</ele><time>2026-05-05T08:10:22Z</time></trkpt><trkpt lat="45.82958661393957" lon="15.18055564435337"><ele>214.0</ele><time>2026-05-05T08:10:23Z</time></trkpt><trkpt lat="45.82975357004048" lon="15.180492297365383"><ele>217.0</ele><time>2026-05-05T08:10:24Z</time></trkpt><trkpt lat="45.82991246413488" lon="15.18040601910187"><ele>220.0</ele><time>2026-05-05T08:10:25Z</time></trkpt><trkpt lat="45.83008572566712" lon="15.180316549090508"><ele>222.0</ele><time>2026-05-05T08:10:26Z</time></trkpt><trkpt lat="45.830254605309314" lon="15.180229863755763"><ele>224.0</ele><time>2026-05-05T08:10:27Z</time></trkpt><trkpt lat="45.83041958983509" lon="15.180126279183135"><ele>226.0</ele><time>2026-05-05T08:10:28Z</time></trkpt><trkpt lat="45.83057996558772" lon="15.18001351028128"><ele>226.0</ele><time>2026-05-05T08:10:29Z</time></trkpt><trkpt lat="45.83073924103793" lon="15.17989366682083"><ele>226.0</ele><time>2026-05-05T08:10:30Z</time></trkpt><trkpt lat="45.830896447254226" lon="15.17977231723621"><ele>226.0</ele><time>2026-05-05T08:10:31Z</time></trkpt><trkpt lat="45.83104839978488" lon="15.179639249781285"><ele>225.33333333333331</ele><time>2026-05-05T08:10:32Z</time></trkpt><trkpt lat="45.8311951325176" lon="15.179514078550582"><ele>224.66666666666669</ele><time>2026-05-05T08:10:33Z</time></trkpt><trkpt lat="45.83133648591543" lon="15.17938882690789"><ele>224.0</ele><time>2026-05-05T08:10:34Z</time></trkpt><trkpt lat="45.8314676020778" lon="15.179257822989443"><ele>224.0</ele><time>2026-05-05T08:10:35Z</time></trkpt><trkpt lat="45.8315952812348" lon="15.179126784083026"><ele>224.0</ele><time>2026-05-05T08:10:36Z</time></trkpt><trkpt lat="45.83172294913046" lon="15.178990962198021"><ele>224.0</ele><time>2026-05-05T08:10:37Z</time></trkpt><trkpt lat="45.83185011096821" lon="15.178849998623832"><ele>227.66666666666669</ele><time>2026-05-05T08:10:38Z</time></trkpt><trkpt lat="45.83197233382718" lon="15.17870418123464"><ele>231.33333333333331</ele><time>2026-05-05T08:10:39Z</time></trkpt><trkpt lat="45.83209082058221" lon="15.178552732702572"><ele>235.0</ele><time>2026-05-05T08:10:40Z</time></trkpt><trkpt lat="45.832208622717935" lon="15.17838898259686"><ele>235.0</ele><time>2026-05-05T08:10:41Z</time></trkpt><trkpt lat="45.832323275599755" lon="15.178212491898252"><ele>235.0</ele><time>2026-05-05T08:10:42Z</time></trkpt><trkpt lat="45.832437584597926" lon="15.178026848353758"><ele>235.0</ele><time>2026-05-05T08:10:43Z</time></trkpt><trkpt lat="45.83256003871602" lon="15.177840420606092"><ele>236.66666666666666</ele><time>2026-05-05T08:10:44Z</time></trkpt><trkpt lat="45.83268983375786" lon="15.177648229608064"><ele>238.33333333333331</ele><time>2026-05-05T08:10:45Z</time></trkpt><trkpt lat="45.83281443564287" lon="15.177450558233296"><ele>240.0</ele><time>2026-05-05T08:10:46Z</time></trkpt><trkpt lat="45.83293999119503" lon="15.177248473795675"><ele>240.0</ele><time>2026-05-05T08:10:47Z</time></trkpt><trkpt lat="45.83306579328735" lon="15.1770393048987"><ele>240.0</ele><time>2026-05-05T08:10:48Z</time></trkpt><trkpt lat="45.833187949086366" lon="15.176823451132638"><ele>240.0</ele><time>2026-05-05T08:10:49Z</time></trkpt><trkpt lat="45.83330690182242" lon="15.176600145181794"><ele>239.66666666666669</ele><time>2026-05-05T08:10:50Z</time></trkpt><trkpt lat="45.83341674284776" lon="15.176367821577418"><ele>239.33333333333334</ele><time>2026-05-05T08:10:51Z</time></trkpt><trkpt lat="45.833516718623194" lon="15.1761310913612"><ele>239.0</ele><time>2026-05-05T08:10:52Z</time></trkpt><trkpt lat="45.833608449039524" lon="15.175884730697412"><ele>238.0</ele><time>2026-05-05T08:10:53Z</time></trkpt><trkpt lat="45.8336969064227" lon="15.175635802751168"><ele>237.0</ele><time>2026-05-05T08:10:54Z</time></trkpt><trkpt lat="45.83378085057419" lon="15.175386444428781"><ele>236.0</ele><time>2026-05-05T08:10:55Z</time></trkpt><trkpt lat="45.833857432552584" lon="15.175131187731273"><ele>236.0</ele><time>2026-05-05T08:10:56Z</time></trkpt><trkpt lat="45.83392362004652" lon="15.174869496519532"><ele>236.0</ele><time>2026-05-05T08:10:57Z</time></trkpt><trkpt lat="45.83398939472119" lon="15.174600329366935"><ele>236.0</ele><time>2026-05-05T08:10:58Z</time></trkpt><trkpt lat="45.83405199854206" lon="15.174325993603118"><ele>235.66666666666669</ele><time>2026-05-05T08:10:59Z</time></trkpt><trkpt lat="45.834112868499375" lon="15.17405033572232"><ele>235.33333333333331</ele><time>2026-05-05T08:11:00Z</time></trkpt><trkpt lat="45.83417843197402" lon="15.173772541991074"><ele>235.0</ele><time>2026-05-05T08:11:01Z</time></trkpt><trkpt lat="45.834239476462" lon="15.173490638531613"><ele>235.33333333333331</ele><time>2026-05-05T08:11:02Z</time></trkpt><trkpt lat="45.83431789402364" lon="15.173210570774128"><ele>235.66666666666669</ele><time>2026-05-05T08:11:03Z</time></trkpt><trkpt lat="45.834392860587116" lon="15.172931763505357"><ele>236.0</ele><time>2026-05-05T08:11:04Z</time></trkpt><trkpt lat="45.834473915249426" lon="15.17265382446995"><ele>236.0</ele><time>2026-05-05T08:11:05Z</time></trkpt><trkpt lat="45.83456213248875" lon="15.172377998196573"><ele>236.0</ele><time>2026-05-05T08:11:06Z</time></trkpt><trkpt lat="45.834655063466286" lon="15.17210044615859"><ele>236.0</ele><time>2026-05-05T08:11:07Z</time></trkpt><trkpt lat="45.8347525973807" lon="15.17182809445817"><ele>235.66666666666669</ele><time>2026-05-05T08:11:08Z</time></trkpt><trkpt lat="45.8348570256115" lon="15.171553896575121"><ele>235.33333333333331</ele><time>2026-05-05T08:11:09Z</time></trkpt><trkpt lat="45.834968030551174" lon="15.171284187152802"><ele>235.0</ele><time>2026-05-05T08:11:10Z</time></trkpt><trkpt lat="45.83508719189402" lon="15.171012806403692"><ele>239.0</ele><time>2026-05-05T08:11:11Z</time></trkpt><trkpt lat="45.83521352317319" lon="15.17074251367138"><ele>243.0</ele><time>2026-05-05T08:11:12Z</time></trkpt><trkpt lat="45.83534815576319" lon="15.170472267549686"><ele>244.5</ele><time>2026-05-05T08:11:13Z</time></trkpt><trkpt lat="45.83549151107417" lon="15.170204323778007"><ele>246.0</ele><time>2026-05-05T08:11:14Z</time></trkpt><trkpt lat="45.83564344760364" lon="15.169937801873568"><ele>245.5</ele><time>2026-05-05T08:11:15Z</time></trkpt><trkpt lat="45.8358045209373" lon="15.169676903727542"><ele>245.0</ele><time>2026-05-05T08:11:16Z</time></trkpt><trkpt lat="45.835966149681845" lon="15.169413788712575"><ele>248.5</ele><time>2026-05-05T08:11:17Z</time></trkpt><trkpt lat="45.83613068962987" lon="15.169149096090791"><ele>252.0</ele><time>2026-05-05T08:11:18Z</time></trkpt><trkpt lat="45.83629391193282" lon="15.16887864001153"><ele>252.0</ele><time>2026-05-05T08:11:19Z</time></trkpt><trkpt lat="45.836453518136" lon="15.168604281011293"><ele>252.0</ele><time>2026-05-05T08:11:20Z</time></trkpt><trkpt lat="45.836602955619995" lon="15.168324344915417"><ele>251.0</ele><time>2026-05-05T08:11:21Z</time></trkpt><trkpt lat="45.836742285016676" lon="15.168041374271482"><ele>250.0</ele><time>2026-05-05T08:11:22Z</time></trkpt><trkpt lat="45.83687328445062" lon="15.16775860324679"><ele>255.5</ele><time>2026-05-05T08:11:23Z</time></trkpt><trkpt lat="45.8370005661239" lon="15.167475573205882"><ele>261.0</ele><time>2026-05-05T08:11:24Z</time></trkpt><trkpt lat="45.837119866024835" lon="15.16719250654396"><ele>261.5</ele><time>2026-05-05T08:11:25Z</time></trkpt><trkpt lat="45.83723000813665" lon="15.166904780119078"><ele>262.0</ele><time>2026-05-05T08:11:26Z</time></trkpt><trkpt lat="45.83733301970977" lon="15.166611730959078"><ele>262.0</ele><time>2026-05-05T08:11:27Z</time></trkpt><trkpt lat="45.837428915488765" lon="15.166320226801183"><ele>262.0</ele><time>2026-05-05T08:11:28Z</time></trkpt><trkpt lat="45.83751325901539" lon="15.16602939722253"><ele>262.0</ele><time>2026-05-05T08:11:29Z</time></trkpt><trkpt lat="45.837593426537545" lon="15.165735342649734"><ele>265.0</ele><time>2026-05-05T08:11:30Z</time></trkpt><trkpt lat="45.83766966776076" lon="15.165439044434677"><ele>268.0</ele><time>2026-05-05T08:11:31Z</time></trkpt><trkpt lat="45.8377430916558" lon="15.165142703458612"><ele>271.0</ele><time>2026-05-05T08:11:32Z</time></trkpt><trkpt lat="45.837814721264806" lon="15.16485231094534"><ele>271.0</ele><time>2026-05-05T08:11:33Z</time></trkpt><trkpt lat="45.837887511968276" lon="15.164563820203036"><ele>271.0</ele><time>2026-05-05T08:11:34Z</time></trkpt><trkpt lat="45.83795991390259" lon="15.164283014662498"><ele>271.0</ele><time>2026-05-05T08:11:35Z</time></trkpt><trkpt lat="45.838034085362196" lon="15.16400146286746"><ele>271.0</ele><time>2026-05-05T08:11:36Z</time></trkpt><trkpt lat="45.8381063837295" lon="15.163724347474778"><ele>271.0</ele><time>2026-05-05T08:11:37Z</time></trkpt><trkpt lat="45.83818248267617" lon="15.163451490094939"><ele>271.0</ele><time>2026-05-05T08:11:38Z</time></trkpt><trkpt lat="45.83825689949402" lon="15.163195672660905"><ele>271.0</ele><time>2026-05-05T08:11:39Z</time></trkpt><trkpt lat="45.838337258175734" lon="15.162944246010692"><ele>271.0</ele><time>2026-05-05T08:11:40Z</time></trkpt><trkpt lat="45.838420069245316" lon="15.162703269020534"><ele>271.0</ele><time>2026-05-05T08:11:41Z</time></trkpt><trkpt lat="45.838510487935984" lon="15.162458580082719"><ele>273.66666666666663</ele><time>2026-05-05T08:11:42Z</time></trkpt><trkpt lat="45.83860223345425" lon="15.162221386348744"><ele>276.3333333333333</ele><time>2026-05-05T08:11:43Z</time></trkpt><trkpt lat="45.838699760045685" lon="15.161983419791817"><ele>279.0</ele><time>2026-05-05T08:11:44Z</time></trkpt><trkpt lat="45.838795777374855" lon="15.161752307090412"><ele>279.3333333333333</ele><time>2026-05-05T08:11:45Z</time></trkpt><trkpt lat="45.83889805447119" lon="15.1615168174478"><ele>279.66666666666663</ele><time>2026-05-05T08:11:46Z</time></trkpt><trkpt lat="45.839008584714385" lon="15.161287555332011"><ele>280.0</ele><time>2026-05-05T08:11:47Z</time></trkpt><trkpt lat="45.839123108425596" lon="15.161058974589018"><ele>280.0</ele><time>2026-05-05T08:11:48Z</time></trkpt><trkpt lat="45.83924902042331" lon="15.160838911718532"><ele>280.0</ele><time>2026-05-05T08:11:49Z</time></trkpt><trkpt lat="45.83938760827663" lon="15.16061756325632"><ele>280.0</ele><time>2026-05-05T08:11:50Z</time></trkpt><trkpt lat="45.83953095872087" lon="15.160392263594048"><ele>281.0</ele><time>2026-05-05T08:11:51Z</time></trkpt><trkpt lat="45.83968393613428" lon="15.160151441179066"><ele>282.0</ele><time>2026-05-05T08:11:52Z</time></trkpt><trkpt lat="45.839848923793106" lon="15.159906074917458"><ele>280.0</ele><time>2026-05-05T08:11:53Z</time></trkpt><trkpt lat="45.84001472523285" lon="15.159662295496412"><ele>278.0</ele><time>2026-05-05T08:11:54Z</time></trkpt><trkpt lat="45.84018894995001" lon="15.159429036036485"><ele>283.0</ele><time>2026-05-05T08:11:55Z</time></trkpt><trkpt lat="45.840367832521366" lon="15.15920167313501"><ele>288.0</ele><time>2026-05-05T08:11:56Z</time></trkpt><trkpt lat="45.84055802239716" lon="15.158989038503544"><ele>288.0</ele><time>2026-05-05T08:11:57Z</time></trkpt><trkpt lat="45.84076129090621" lon="15.158794534653133"><ele>288.0</ele><time>2026-05-05T08:11:58Z</time></trkpt><trkpt lat="45.84097536872262" lon="15.15861036376915"><ele>290.0</ele><time>2026-05-05T08:11:59Z</time></trkpt><trkpt lat="45.841201956412085" lon="15.158431736586701"><ele>292.0</ele><time>2026-05-05T08:12:00Z</time></trkpt><trkpt lat="45.84142689217675" lon="15.1582699785075"><ele>291.0</ele><time>2026-05-05T08:12:01Z</time></trkpt><trkpt lat="45.8416559624594" lon="15.158131325660403"><ele>290.0</ele><time>2026-05-05T08:12:02Z</time></trkpt><trkpt lat="45.84188684440323" lon="15.158011153122315"><ele>290.0</ele><time>2026-05-05T08:12:03Z</time></trkpt><trkpt lat="45.84211424713601" lon="15.15790313287968"><ele>290.0</ele><time>2026-05-05T08:12:04Z</time></trkpt><trkpt lat="45.842343746211355" lon="15.157800117582862"><ele>290.0</ele><time>2026-05-05T08:12:05Z</time></trkpt><trkpt lat="45.842571840630896" lon="15.157717425452589"><ele>290.0</ele><time>2026-05-05T08:12:06Z</time></trkpt><trkpt lat="45.84280675468299" lon="15.157677186630524"><ele>293.6666666666667</ele><time>2026-05-05T08:12:07Z</time></trkpt><trkpt lat="45.84302845163257" lon="15.157692602929574"><ele>297.3333333333333</ele><time>2026-05-05T08:12:08Z</time></trkpt><trkpt lat="45.84322054957142" lon="15.157738011581"><ele>301.0</ele><time>2026-05-05T08:12:09Z</time></trkpt><trkpt lat="45.84339102985446" lon="15.15779869549397"><ele>301.0</ele><time>2026-05-05T08:12:10Z</time></trkpt><trkpt lat="45.843535930448155" lon="15.157861306602578"><ele>301.0</ele><time>2026-05-05T08:12:11Z</time></trkpt><trkpt lat="45.84366342237245" lon="15.157906555074856"><ele>301.0</ele><time>2026-05-05T08:12:12Z</time></trkpt><trkpt lat="45.84378369959721" lon="15.157911906634002"><ele>301.0</ele><time>2026-05-05T08:12:13Z</time></trkpt><trkpt lat="45.843898324687935" lon="15.157865296520741"><ele>301.0</ele><time>2026-05-05T08:12:14Z</time></trkpt><trkpt lat="45.84399578009293" lon="15.157772295539198"><ele>301.0</ele><time>2026-05-05T08:12:15Z</time></trkpt><trkpt lat="45.844073667082846" lon="15.157644479675623"><ele>301.0</ele><time>2026-05-05T08:12:16Z</time></trkpt><trkpt lat="45.844125768902025" lon="15.157497321367517"><ele>301.0</ele><time>2026-05-05T08:12:17Z</time></trkpt><trkpt lat="45.8441451563561" lon="15.15733799209111"><ele>300.8</ele><time>2026-05-05T08:12:18Z</time></trkpt><trkpt lat="45.844142137596045" lon="15.157174195858842"><ele>300.6</ele><time>2026-05-05T08:12:19Z</time></trkpt><trkpt lat="45.84412955436953" lon="15.157024163303035"><ele>300.4</ele><time>2026-05-05T08:12:20Z</time></trkpt><trkpt lat="45.84410713767319" lon="15.156886706456483"><ele>300.2</ele><time>2026-05-05T08:12:21Z</time></trkpt><trkpt lat="45.844092512051354" lon="15.156767114197295"><ele>300.0</ele><time>2026-05-05T08:12:22Z</time></trkpt><trkpt lat="45.84410783679741" lon="15.156665382586272"><ele>300.0</ele><time>2026-05-05T08:12:23Z</time></trkpt><trkpt lat="45.84415216385683" lon="15.156583940320665"><ele>300.0</ele><time>2026-05-05T08:12:24Z</time></trkpt><trkpt lat="45.84420737546391" lon="15.156510192755242"><ele>300.0</ele><time>2026-05-05T08:12:25Z</time></trkpt><trkpt lat="45.84428743372022" lon="15.156408444921246"><ele>300.0</ele><time>2026-05-05T08:12:26Z</time></trkpt><trkpt lat="45.84440021134231" lon="15.156274883184281"><ele>300.0</ele><time>2026-05-05T08:12:27Z</time></trkpt><trkpt lat="45.84453360620205" lon="15.156128070285716"><ele>299.6666666666667</ele><time>2026-05-05T08:12:28Z</time></trkpt><trkpt lat="45.84467060262931" lon="15.155962010043265"><ele>299.33333333333337</ele><time>2026-05-05T08:12:29Z</time></trkpt><trkpt lat="45.84481457178467" lon="15.155774610847764"><ele>299.0</ele><time>2026-05-05T08:12:30Z</time></trkpt><trkpt lat="45.84495804788145" lon="15.155567897088993"><ele>299.0</ele><time>2026-05-05T08:12:31Z</time></trkpt><trkpt lat="45.845099695229536" lon="15.155331229349967"><ele>299.0</ele><time>2026-05-05T08:12:32Z</time></trkpt><trkpt lat="45.8452526462491" lon="15.155092351117757"><ele>299.0</ele><time>2026-05-05T08:12:33Z</time></trkpt><trkpt lat="45.84538863153738" lon="15.154835016254022"><ele>299.6666666666667</ele><time>2026-05-05T08:12:34Z</time></trkpt><trkpt lat="45.84551761801275" lon="15.15457404045644"><ele>300.3333333333333</ele><time>2026-05-05T08:12:35Z</time></trkpt><trkpt lat="45.84563013500161" lon="15.154294523522951"><ele>301.0</ele><time>2026-05-05T08:12:36Z</time></trkpt><trkpt lat="45.84570477083335" lon="15.153997983707093"><ele>301.0</ele><time>2026-05-05T08:12:37Z</time></trkpt><trkpt lat="45.84576820808129" lon="15.153713542658405"><ele>301.0</ele><time>2026-05-05T08:12:38Z</time></trkpt><trkpt lat="45.84582062508855" lon="15.153433633988316"><ele>301.0</ele><time>2026-05-05T08:12:39Z</time></trkpt><trkpt lat="45.84585801807902" lon="15.153141411539883"><ele>302.66666666666663</ele><time>2026-05-05T08:12:40Z</time></trkpt><trkpt lat="45.845888216787976" lon="15.152840247066052"><ele>304.3333333333333</ele><time>2026-05-05T08:12:41Z</time></trkpt><trkpt lat="45.84590680053937" lon="15.152544685630252"><ele>306.0</ele><time>2026-05-05T08:12:42Z</time></trkpt><trkpt lat="45.84592306982685" lon="15.152245202969809"><ele>307.3333333333333</ele><time>2026-05-05T08:12:43Z</time></trkpt><trkpt lat="45.84593753624326" lon="15.151945295966431"><ele>308.66666666666663</ele><time>2026-05-05T08:12:44Z</time></trkpt><trkpt lat="45.84598333544877" lon="15.151647841898756"><ele>310.0</ele><time>2026-05-05T08:12:45Z</time></trkpt><trkpt lat="45.846014273181325" lon="15.151350339478748"><ele>313.0</ele><time>2026-05-05T08:12:46Z</time></trkpt><trkpt lat="45.84605271527889" lon="15.151052802251614"><ele>316.0</ele><time>2026-05-05T08:12:47Z</time></trkpt><trkpt lat="45.84611005945899" lon="15.15076759145804"><ele>319.0</ele><time>2026-05-05T08:12:48Z</time></trkpt><trkpt lat="45.846189010569766" lon="15.15049756015424"><ele>319.0</ele><time>2026-05-05T08:12:49Z</time></trkpt><trkpt lat="45.846292115147115" lon="15.150231212406744"><ele>319.0</ele><time>2026-05-05T08:12:50Z</time></trkpt><trkpt lat="45.84641288685744" lon="15.149985663220948"><ele>319.0</ele><time>2026-05-05T08:12:51Z</time></trkpt><trkpt lat="45.84655073335434" lon="15.149752005531203"><ele>317.0</ele><time>2026-05-05T08:12:52Z</time></trkpt><trkpt lat="45.84669514113569" lon="15.149536965886051"><ele>315.0</ele><time>2026-05-05T08:12:53Z</time></trkpt><trkpt lat="45.84684083574807" lon="15.149324408887413"><ele>313.0</ele><time>2026-05-05T08:12:54Z</time></trkpt><trkpt lat="45.84697871283893" lon="15.149103934338608"><ele>315.66666666666663</ele><time>2026-05-05T08:12:55Z</time></trkpt><trkpt lat="45.84713512022736" lon="15.148908093398518"><ele>318.3333333333333</ele><time>2026-05-05T08:12:56Z</time></trkpt><trkpt lat="45.84730537074149" lon="15.14874755001269"><ele>321.0</ele><time>2026-05-05T08:12:57Z</time></trkpt><trkpt lat="45.84747323273249" lon="15.148557335777651"><ele>322.0</ele><time>2026-05-05T08:12:58Z</time></trkpt><trkpt lat="45.84765749071372" lon="15.14840775404732"><ele>323.0</ele><time>2026-05-05T08:12:59Z</time></trkpt><trkpt lat="45.84784952007843" lon="15.148273022913832"><ele>324.0</ele><time>2026-05-05T08:13:00Z</time></trkpt><trkpt lat="45.84804601080983" lon="15.148149051738903"><ele>324.0</ele><time>2026-05-05T08:13:01Z</time></trkpt><trkpt lat="45.84824292238536" lon="15.148031372883212"><ele>324.0</ele><time>2026-05-05T08:13:02Z</time></trkpt><trkpt lat="45.84844178886324" lon="15.14790944309013"><ele>324.0</ele><time>2026-05-05T08:13:03Z</time></trkpt><trkpt lat="45.84864227142227" lon="15.147781535032035"><ele>325.0</ele><time>2026-05-05T08:13:04Z</time></trkpt><trkpt lat="45.84884948810005" lon="15.147642373228376"><ele>326.0</ele><time>2026-05-05T08:13:05Z</time></trkpt><trkpt lat="45.84906874489613" lon="15.147497832340212"><ele>325.0</ele><time>2026-05-05T08:13:06Z</time></trkpt><trkpt lat="45.849290418890796" lon="15.147357767349932"><ele>324.0</ele><time>2026-05-05T08:13:07Z</time></trkpt><trkpt lat="45.849513432300554" lon="15.147219593449691"><ele>322.5</ele><time>2026-05-05T08:13:08Z</time></trkpt><trkpt lat="45.84973303843371" lon="15.147083111525623"><ele>321.0</ele><time>2026-05-05T08:13:09Z</time></trkpt><trkpt lat="45.84994942049089" lon="15.146948734703518"><ele>321.5</ele><time>2026-05-05T08:13:10Z</time></trkpt><trkpt lat="45.85016524394261" lon="15.146818147831084"><ele>322.0</ele><time>2026-05-05T08:13:11Z</time></trkpt><trkpt lat="45.85037988340821" lon="15.146690967122117"><ele>322.0</ele><time>2026-05-05T08:13:12Z</time></trkpt><trkpt lat="45.8505936733385" lon="15.14656336744591"><ele>322.0</ele><time>2026-05-05T08:13:13Z</time></trkpt><trkpt lat="45.85080523554674" lon="15.146427997426626"><ele>318.5</ele><time>2026-05-05T08:13:14Z</time></trkpt><trkpt lat="45.851013914780886" lon="15.146283764610112"><ele>315.0</ele><time>2026-05-05T08:13:15Z</time></trkpt><trkpt lat="45.851217775050685" lon="15.146128532882154"><ele>315.0</ele><time>2026-05-05T08:13:16Z</time></trkpt><trkpt lat="45.851421556822466" lon="15.14595322364309"><ele>315.0</ele><time>2026-05-05T08:13:17Z</time></trkpt><trkpt lat="45.85161680937658" lon="15.145754666097092"><ele>313.5</ele><time>2026-05-05T08:13:18Z</time></trkpt><trkpt lat="45.851803053887664" lon="15.145540210206285"><ele>312.0</ele><time>2026-05-05T08:13:19Z</time></trkpt><trkpt lat="45.851986505584875" lon="15.145317022041523"><ele>312.0</ele><time>2026-05-05T08:13:20Z</time></trkpt><trkpt lat="45.852163986317954" lon="15.14509005795863"><ele>312.0</ele><time>2026-05-05T08:13:21Z</time></trkpt><trkpt lat="45.85233719701594" lon="15.144863138443185"><ele>312.0</ele><time>2026-05-05T08:13:22Z</time></trkpt><trkpt lat="45.85251296028565" lon="15.144637588573678"><ele>312.0</ele><time>2026-05-05T08:13:23Z</time></trkpt><trkpt lat="45.85268950958527" lon="15.14442038009331"><ele>312.0</ele><time>2026-05-05T08:13:24Z</time></trkpt><trkpt lat="45.85286590673723" lon="15.144212617004241"><ele>312.0</ele><time>2026-05-05T08:13:25Z</time></trkpt><trkpt lat="45.853048174105226" lon="15.144010382164032"><ele>313.0</ele><time>2026-05-05T08:13:26Z</time></trkpt><trkpt lat="45.85323635607288" lon="15.143820439661619"><ele>314.0</ele><time>2026-05-05T08:13:27Z</time></trkpt><trkpt lat="45.85343090736976" lon="15.14364830541872"><ele>315.5</ele><time>2026-05-05T08:13:28Z</time></trkpt><trkpt lat="45.853629621740126" lon="15.143491077921874"><ele>317.0</ele><time>2026-05-05T08:13:29Z</time></trkpt><trkpt lat="45.85383256313243" lon="15.14334949502486"><ele>317.0</ele><time>2026-05-05T08:13:30Z</time></trkpt><trkpt lat="45.85404122495549" lon="15.143218743098435"><ele>317.0</ele><time>2026-05-05T08:13:31Z</time></trkpt><trkpt lat="45.85424943015172" lon="15.143102546497849"><ele>314.6666666666667</ele><time>2026-05-05T08:13:32Z</time></trkpt><trkpt lat="45.85445924593466" lon="15.142992215227723"><ele>312.3333333333333</ele><time>2026-05-05T08:13:33Z</time></trkpt><trkpt lat="45.854673189550425" lon="15.142898212592762"><ele>310.0</ele><time>2026-05-05T08:13:34Z</time></trkpt><trkpt lat="45.85489124266757" lon="15.142820618360014"><ele>310.0</ele><time>2026-05-05T08:13:35Z</time></trkpt><trkpt lat="45.85510838974099" lon="15.14276149260105"><ele>310.0</ele><time>2026-05-05T08:13:36Z</time></trkpt><trkpt lat="45.855327257664506" lon="15.142716631296253"><ele>310.0</ele><time>2026-05-05T08:13:37Z</time></trkpt><trkpt lat="45.85554815856154" lon="15.14268432006506"><ele>308.66666666666663</ele><time>2026-05-05T08:13:38Z</time></trkpt><trkpt lat="45.85576935453644" lon="15.142661328722784"><ele>307.3333333333333</ele><time>2026-05-05T08:13:39Z</time></trkpt><trkpt lat="45.85599501978243" lon="15.142647237427767"><ele>306.0</ele><time>2026-05-05T08:13:40Z</time></trkpt><trkpt lat="45.85622271584298" lon="15.142633281796666"><ele>305.0</ele><time>2026-05-05T08:13:41Z</time></trkpt><trkpt lat="45.856451151292" lon="15.142616382832337"><ele>304.0</ele><time>2026-05-05T08:13:42Z</time></trkpt><trkpt lat="45.8566879306328" lon="15.142598796222513"><ele>301.5</ele><time>2026-05-05T08:13:43Z</time></trkpt><trkpt lat="45.85692783323769" lon="15.142577287478339"><ele>299.0</ele><time>2026-05-05T08:13:44Z</time></trkpt><trkpt lat="45.85716930958811" lon="15.14254990422203"><ele>299.0</ele><time>2026-05-05T08:13:45Z</time></trkpt><trkpt lat="45.85740666075634" lon="15.142516151255991"><ele>299.0</ele><time>2026-05-05T08:13:46Z</time></trkpt><trkpt lat="45.8576427807266" lon="15.142479957843745"><ele>296.5</ele><time>2026-05-05T08:13:47Z</time></trkpt><trkpt lat="45.85787533722091" lon="15.142439242432438"><ele>294.0</ele><time>2026-05-05T08:13:48Z</time></trkpt><trkpt lat="45.85810534755897" lon="15.142403921219444"><ele>283.5</ele><time>2026-05-05T08:13:49Z</time></trkpt><trkpt lat="45.85833303937103" lon="15.142373453399253"><ele>273.0</ele><time>2026-05-05T08:13:50Z</time></trkpt><trkpt lat="45.85855787390951" lon="15.14235742842651"><ele>270.0</ele><time>2026-05-05T08:13:51Z</time></trkpt><trkpt lat="45.85878244258141" lon="15.142357023357533"><ele>267.0</ele><time>2026-05-05T08:13:52Z</time></trkpt><trkpt lat="45.859013311495815" lon="15.142380585645249"><ele>272.5</ele><time>2026-05-05T08:13:53Z</time></trkpt><trkpt lat="45.85924190240996" lon="15.14241264954507"><ele>278.0</ele><time>2026-05-05T08:13:54Z</time></trkpt><trkpt lat="45.859468705004446" lon="15.142444265828074"><ele>278.0</ele><time>2026-05-05T08:13:55Z</time></trkpt><trkpt lat="45.85969665552838" lon="15.142453443342589"><ele>278.0</ele><time>2026-05-05T08:13:56Z</time></trkpt><trkpt lat="45.859925593534705" lon="15.142431040915072"><ele>279.5</ele><time>2026-05-05T08:13:57Z</time></trkpt><trkpt lat="45.86015446967166" lon="15.1423855886685"><ele>281.0</ele><time>2026-05-05T08:13:58Z</time></trkpt><trkpt lat="45.8603774632734" lon="15.142303676282843"><ele>274.0</ele><time>2026-05-05T08:13:59Z</time></trkpt><trkpt lat="45.86059342580959" lon="15.142195536440008"><ele>267.0</ele><time>2026-05-05T08:14:00Z</time></trkpt><trkpt lat="45.86080681961034" lon="15.142064007850026"><ele>267.0</ele><time>2026-05-05T08:14:01Z</time></trkpt><trkpt lat="45.86101063023257" lon="15.141914808824216"><ele>267.0</ele><time>2026-05-05T08:14:02Z</time></trkpt><trkpt lat="45.86120494664847" lon="15.141748524510652"><ele>267.0</ele><time>2026-05-05T08:14:03Z</time></trkpt><trkpt lat="45.86138881811572" lon="15.14156635003532"><ele>267.0</ele><time>2026-05-05T08:14:04Z</time></trkpt><trkpt lat="45.861562941047524" lon="15.141363808453093"><ele>267.0</ele><time>2026-05-05T08:14:05Z</time></trkpt><trkpt lat="45.86173109072954" lon="15.14114158810206"><ele>267.0</ele><time>2026-05-05T08:14:06Z</time></trkpt><trkpt lat="45.861893818718045" lon="15.140913607446988"><ele>267.0</ele><time>2026-05-05T08:14:07Z</time></trkpt><trkpt lat="45.8620528966571" lon="15.140678335832835"><ele>262.5</ele><time>2026-05-05T08:14:08Z</time></trkpt><trkpt lat="45.86221050191586" lon="15.140433247514961"><ele>258.0</ele><time>2026-05-05T08:14:09Z</time></trkpt><trkpt lat="45.86236420984915" lon="15.140171924538022"><ele>258.0</ele><time>2026-05-05T08:14:10Z</time></trkpt><trkpt lat="45.86251415758041" lon="15.139907350886945"><ele>258.0</ele><time>2026-05-05T08:14:11Z</time></trkpt><trkpt lat="45.86265822903144" lon="15.139641997717083"><ele>258.0</ele><time>2026-05-05T08:14:12Z</time></trkpt><trkpt lat="45.86279651897478" lon="15.13937237755157"><ele>258.0</ele><time>2026-05-05T08:14:13Z</time></trkpt><trkpt lat="45.86293225706039" lon="15.139093286334859"><ele>253.5</ele><time>2026-05-05T08:14:14Z</time></trkpt><trkpt lat="45.863062221337564" lon="15.138811219455066"><ele>249.0</ele><time>2026-05-05T08:14:15Z</time></trkpt><trkpt lat="45.863189699224854" lon="15.138524036300055"><ele>249.0</ele><time>2026-05-05T08:14:16Z</time></trkpt><trkpt lat="45.86331125545549" lon="15.138235967531157"><ele>249.0</ele><time>2026-05-05T08:14:17Z</time></trkpt><trkpt lat="45.86342916568939" lon="15.137945353281282"><ele>248.0</ele><time>2026-05-05T08:14:18Z</time></trkpt><trkpt lat="45.86354363660675" lon="15.137648596130406"><ele>247.0</ele><time>2026-05-05T08:14:19Z</time></trkpt><trkpt lat="45.8636519705395" lon="15.13735655516273"><ele>247.0</ele><time>2026-05-05T08:14:20Z</time></trkpt><trkpt lat="45.863757772208096" lon="15.13705902628112"><ele>247.0</ele><time>2026-05-05T08:14:21Z</time></trkpt><trkpt lat="45.86385702974423" lon="15.13675612505735"><ele>243.5</ele><time>2026-05-05T08:14:22Z</time></trkpt><trkpt lat="45.86394916743178" lon="15.13645130159363"><ele>240.0</ele><time>2026-05-05T08:14:23Z</time></trkpt><trkpt lat="45.864032103627686" lon="15.136139132824836"><ele>240.0</ele><time>2026-05-05T08:14:24Z</time></trkpt><trkpt lat="45.86410526772908" lon="15.135820915813417"><ele>240.0</ele><time>2026-05-05T08:14:25Z</time></trkpt><trkpt lat="45.86416443727788" lon="15.13550598642409"><ele>239.33333333333331</ele><time>2026-05-05T08:14:26Z</time></trkpt><trkpt lat="45.864212006758166" lon="15.13519195887726"><ele>238.66666666666666</ele><time>2026-05-05T08:14:27Z</time></trkpt><trkpt lat="45.86425139551215" lon="15.134876737904209"><ele>238.0</ele><time>2026-05-05T08:14:28Z</time></trkpt><trkpt lat="45.864281784795196" lon="15.134554529352188"><ele>242.66666666666666</ele><time>2026-05-05T08:14:29Z</time></trkpt><trkpt lat="45.86430350686842" lon="15.13423909187459"><ele>247.33333333333331</ele><time>2026-05-05T08:14:30Z</time></trkpt><trkpt lat="45.86431836011193" lon="15.133920122035807"><ele>252.0</ele><time>2026-05-05T08:14:31Z</time></trkpt><trkpt lat="45.86432946970403" lon="15.133597447045732"><ele>252.0</ele><time>2026-05-05T08:14:32Z</time></trkpt><trkpt lat="45.86432969457757" lon="15.133275921727812"><ele>252.0</ele><time>2026-05-05T08:14:33Z</time></trkpt><trkpt lat="45.864329790784936" lon="15.132955928912088"><ele>252.0</ele><time>2026-05-05T08:14:34Z</time></trkpt><trkpt lat="45.86432585091682" lon="15.132635834829314"><ele>248.5</ele><time>2026-05-05T08:14:35Z</time></trkpt><trkpt lat="45.864325775644865" lon="15.132311003024006"><ele>245.0</ele><time>2026-05-05T08:14:36Z</time></trkpt><trkpt lat="45.86433110404538" lon="15.131987411006197"><ele>245.0</ele><time>2026-05-05T08:14:37Z</time></trkpt><trkpt lat="45.86433884370889" lon="15.131667173535472"><ele>245.0</ele><time>2026-05-05T08:14:38Z</time></trkpt><trkpt lat="45.86435183766359" lon="15.131346358485212"><ele>245.0</ele><time>2026-05-05T08:14:39Z</time></trkpt><trkpt lat="45.86437217181903" lon="15.131019001658595"><ele>242.5</ele><time>2026-05-05T08:14:40Z</time></trkpt><trkpt lat="45.864400803976544" lon="15.130698859223374"><ele>240.0</ele><time>2026-05-05T08:14:41Z</time></trkpt><trkpt lat="45.86443334379904" lon="15.130379351623066"><ele>240.0</ele><time>2026-05-05T08:14:42Z</time></trkpt><trkpt lat="45.86447497604774" lon="15.130057537029362"><ele>240.0</ele><time>2026-05-05T08:14:43Z</time></trkpt><trkpt lat="45.86452394503783" lon="15.1297392511637"><ele>240.0</ele><time>2026-05-05T08:14:44Z</time></trkpt><trkpt lat="45.86458808955512" lon="15.129425710271578"><ele>240.0</ele><time>2026-05-05T08:14:45Z</time></trkpt><trkpt lat="45.86466194028387" lon="15.129117759005636"><ele>239.0</ele><time>2026-05-05T08:14:46Z</time></trkpt><trkpt lat="45.86475063543438" lon="15.128813849548331"><ele>238.0</ele><time>2026-05-05T08:14:47Z</time></trkpt><trkpt lat="45.86485245417981" lon="15.128518054131932"><ele>237.5</ele><time>2026-05-05T08:14:48Z</time></trkpt><trkpt lat="45.864975100745475" lon="15.12822401605984"><ele>237.0</ele><time>2026-05-05T08:14:49Z</time></trkpt><trkpt lat="45.86512047000614" lon="15.127935739452266"><ele>240.5</ele><time>2026-05-05T08:14:50Z</time></trkpt><trkpt lat="45.865279271653755" lon="15.127661687630487"><ele>244.0</ele><time>2026-05-05T08:14:51Z</time></trkpt><trkpt lat="45.865451581827614" lon="15.127399262090064"><ele>240.0</ele><time>2026-05-05T08:14:52Z</time></trkpt><trkpt lat="45.86563603506952" lon="15.127151147876555"><ele>236.0</ele><time>2026-05-05T08:14:53Z</time></trkpt><trkpt lat="45.86583001286184" lon="15.126917170151751"><ele>237.0</ele><time>2026-05-05T08:14:54Z</time></trkpt><trkpt lat="45.866030734067365" lon="15.12670079690486"><ele>238.0</ele><time>2026-05-05T08:14:55Z</time></trkpt><trkpt lat="45.86623003002761" lon="15.126497109451208"><ele>238.0</ele><time>2026-05-05T08:14:56Z</time></trkpt><trkpt lat="45.866430650751546" lon="15.126289636595605"><ele>238.0</ele><time>2026-05-05T08:14:57Z</time></trkpt><trkpt lat="45.86662421621141" lon="15.12608061727103"><ele>240.5</ele><time>2026-05-05T08:14:58Z</time></trkpt><trkpt lat="45.866811249362954" lon="15.125859284558794"><ele>243.0</ele><time>2026-05-05T08:14:59Z</time></trkpt><trkpt lat="45.866993499486576" lon="15.125628671102547"><ele>243.0</ele><time>2026-05-05T08:15:00Z</time></trkpt><trkpt lat="45.867169051418024" lon="15.125386964190152"><ele>243.0</ele><time>2026-05-05T08:15:01Z</time></trkpt><trkpt lat="45.86733307659215" lon="15.125129268020533"><ele>243.0</ele><time>2026-05-05T08:15:02Z</time></trkpt><trkpt lat="45.867481954115895" lon="15.124861257421845"><ele>243.0</ele><time>2026-05-05T08:15:03Z</time></trkpt><trkpt lat="45.86761847169249" lon="15.12457288112801"><ele>249.0</ele><time>2026-05-05T08:15:04Z</time></trkpt><trkpt lat="45.867739511872436" lon="15.124277726808256"><ele>255.0</ele><time>2026-05-05T08:15:05Z</time></trkpt><trkpt lat="45.86784512300835" lon="15.123974048239193"><ele>255.0</ele><time>2026-05-05T08:15:06Z</time></trkpt><trkpt lat="45.86793637110178" lon="15.123660453536427"><ele>255.0</ele><time>2026-05-05T08:15:07Z</time></trkpt><trkpt lat="45.868014617829054" lon="15.12334557151125"><ele>255.0</ele><time>2026-05-05T08:15:08Z</time></trkpt><trkpt lat="45.868102395451295" lon="15.123037232433202"><ele>255.0</ele><time>2026-05-05T08:15:09Z</time></trkpt><trkpt lat="45.8681443400944" lon="15.1227103679503"><ele>253.5</ele><time>2026-05-05T08:15:10Z</time></trkpt><trkpt lat="45.86819574132845" lon="15.122383545588596"><ele>252.0</ele><time>2026-05-05T08:15:11Z</time></trkpt><trkpt lat="45.86823031985574" lon="15.122052651557887"><ele>252.0</ele><time>2026-05-05T08:15:12Z</time></trkpt><trkpt lat="45.868252844903004" lon="15.121716495182179"><ele>252.0</ele><time>2026-05-05T08:15:13Z</time></trkpt><trkpt lat="45.868259768012145" lon="15.121377098285816"><ele>249.0</ele><time>2026-05-05T08:15:14Z</time></trkpt><trkpt lat="45.86825914953313" lon="15.12103780827163"><ele>246.0</ele><time>2026-05-05T08:15:15Z</time></trkpt><trkpt lat="45.86825449806139" lon="15.120695656559487"><ele>245.0</ele><time>2026-05-05T08:15:16Z</time></trkpt><trkpt lat="45.86825053007567" lon="15.1203522928924"><ele>244.0</ele><time>2026-05-05T08:15:17Z</time></trkpt><trkpt lat="45.86825401152721" lon="15.120007872245194"><ele>245.5</ele><time>2026-05-05T08:15:18Z</time></trkpt><trkpt lat="45.86826690775452" lon="15.119661608148164"><ele>247.0</ele><time>2026-05-05T08:15:19Z</time></trkpt><trkpt lat="45.868294580374474" lon="15.1193115934538"><ele>248.5</ele><time>2026-05-05T08:15:20Z</time></trkpt><trkpt lat="45.868340412202976" lon="15.118963129515796"><ele>250.0</ele><time>2026-05-05T08:15:21Z</time></trkpt><trkpt lat="45.86840371432649" lon="15.118623829418315"><ele>252.0</ele><time>2026-05-05T08:15:22Z</time></trkpt><trkpt lat="45.86848184284132" lon="15.118294284147703"><ele>254.0</ele><time>2026-05-05T08:15:23Z</time></trkpt><trkpt lat="45.86857797451776" lon="15.117973289064256"><ele>254.0</ele><time>2026-05-05T08:15:24Z</time></trkpt><trkpt lat="45.86868399006731" lon="15.117662490892467"><ele>254.0</ele><time>2026-05-05T08:15:25Z</time></trkpt><trkpt lat="45.868803385390876" lon="15.117360896746622"><ele>249.5</ele><time>2026-05-05T08:15:26Z</time></trkpt><trkpt lat="45.86895206589035" lon="15.117089829335198"><ele>245.0</ele><time>2026-05-05T08:15:27Z</time></trkpt><trkpt lat="45.86908552910403" lon="15.11681157778983"><ele>243.5</ele><time>2026-05-05T08:15:28Z</time></trkpt><trkpt lat="45.86924565592005" lon="15.116558264330218"><ele>242.0</ele><time>2026-05-05T08:15:29Z</time></trkpt><trkpt lat="45.86941466193408" lon="15.116322784643463"><ele>245.5</ele><time>2026-05-05T08:15:30Z</time></trkpt><trkpt lat="45.86959247909094" lon="15.116097526492789"><ele>249.0</ele><time>2026-05-05T08:15:31Z</time></trkpt><trkpt lat="45.869773110348504" lon="15.115883592851954"><ele>248.5</ele><time>2026-05-05T08:15:32Z</time></trkpt><trkpt lat="45.86995786748082" lon="15.115676649653565"><ele>248.0</ele><time>2026-05-05T08:15:33Z</time></trkpt><trkpt lat="45.87013942696827" lon="15.115470321997323"><ele>252.0</ele><time>2026-05-05T08:15:34Z</time></trkpt><trkpt lat="45.87031808870773" lon="15.115254915861264"><ele>256.0</ele><time>2026-05-05T08:15:35Z</time></trkpt><trkpt lat="45.87049103493601" lon="15.115031682616253"><ele>252.5</ele><time>2026-05-05T08:15:36Z</time></trkpt><trkpt lat="45.87066105746871" lon="15.114798044477594"><ele>249.0</ele><time>2026-05-05T08:15:37Z</time></trkpt><trkpt lat="45.87081815554929" lon="15.114547787082351"><ele>252.5</ele><time>2026-05-05T08:15:38Z</time></trkpt><trkpt lat="45.87096660962879" lon="15.114287919014682"><ele>256.0</ele><time>2026-05-05T08:15:39Z</time></trkpt><trkpt lat="45.87110980245747" lon="15.114015612317514"><ele>256.0</ele><time>2026-05-05T08:15:40Z</time></trkpt><trkpt lat="45.87125304943843" lon="15.113734584683035"><ele>256.0</ele><time>2026-05-05T08:15:41Z</time></trkpt><trkpt lat="45.87137941418114" lon="15.113444781227935"><ele>254.5</ele><time>2026-05-05T08:15:42Z</time></trkpt><trkpt lat="45.87150033766339" lon="15.113145819434948"><ele>253.0</ele><time>2026-05-05T08:15:43Z</time></trkpt><trkpt lat="45.87161797910918" lon="15.112843973045194"><ele>253.0</ele><time>2026-05-05T08:15:44Z</time></trkpt><trkpt lat="45.87173232124865" lon="15.112538380393346"><ele>253.0</ele><time>2026-05-05T08:15:45Z</time></trkpt><trkpt lat="45.871842247630084" lon="15.112236130388185"><ele>255.5</ele><time>2026-05-05T08:15:46Z</time></trkpt><trkpt lat="45.87195243190995" lon="15.111943043392523"><ele>258.0</ele><time>2026-05-05T08:15:47Z</time></trkpt><trkpt lat="45.872065693967755" lon="15.111658206507597"><ele>257.3333333333333</ele><time>2026-05-05T08:15:48Z</time></trkpt><trkpt lat="45.8721844234824" lon="15.111385450140705"><ele>256.66666666666663</ele><time>2026-05-05T08:15:49Z</time></trkpt><trkpt lat="45.87230877146484" lon="15.111122103130056"><ele>256.0</ele><time>2026-05-05T08:15:50Z</time></trkpt><trkpt lat="45.87243162991902" lon="15.110872355134491"><ele>256.3333333333333</ele><time>2026-05-05T08:15:51Z</time></trkpt><trkpt lat="45.87255796201539" lon="15.110628566660399"><ele>256.6666666666667</ele><time>2026-05-05T08:15:52Z</time></trkpt><trkpt lat="45.87268298416581" lon="15.110394236475338"><ele>257.0</ele><time>2026-05-05T08:15:53Z</time></trkpt><trkpt lat="45.87281118092025" lon="15.110169093218456"><ele>257.0</ele><time>2026-05-05T08:15:54Z</time></trkpt><trkpt lat="45.872938569111106" lon="15.109942082256977"><ele>257.0</ele><time>2026-05-05T08:15:55Z</time></trkpt><trkpt lat="45.87306780224026" lon="15.109720827213561"><ele>257.0</ele><time>2026-05-05T08:15:56Z</time></trkpt><trkpt lat="45.87319569382935" lon="15.109502248748353"><ele>257.0</ele><time>2026-05-05T08:15:57Z</time></trkpt><trkpt lat="45.873318363950595" lon="15.10928720050416"><ele>257.0</ele><time>2026-05-05T08:15:58Z</time></trkpt><trkpt lat="45.873436002447036" lon="15.109056287602284"><ele>257.0</ele><time>2026-05-05T08:15:59Z</time></trkpt><trkpt lat="45.87354459083573" lon="15.108822437845348"><ele>258.0</ele><time>2026-05-05T08:16:00Z</time></trkpt><trkpt lat="45.87363824166466" lon="15.108613786322785"><ele>259.0</ele><time>2026-05-05T08:16:01Z</time></trkpt><trkpt lat="45.8737167853017" lon="15.108434763116902"><ele>260.0</ele><time>2026-05-05T08:16:02Z</time></trkpt><trkpt lat="45.873790292389884" lon="15.10826120193965"><ele>259.5</ele><time>2026-05-05T08:16:03Z</time></trkpt><trkpt lat="45.87386414383976" lon="15.108086123718378"><ele>259.0</ele><time>2026-05-05T08:16:04Z</time></trkpt><trkpt lat="45.873951388181034" lon="15.107903730872012"><ele>258.5</ele><time>2026-05-05T08:16:05Z</time></trkpt><trkpt lat="45.87403290459497" lon="15.107720559760326"><ele>258.0</ele><time>2026-05-05T08:16:06Z</time></trkpt><trkpt lat="45.87411162443837" lon="15.107539568090242"><ele>258.0</ele><time>2026-05-05T08:16:07Z</time></trkpt><trkpt lat="45.87418970863353" lon="15.107365365204917"><ele>258.0</ele><time>2026-05-05T08:16:08Z</time></trkpt><trkpt lat="45.87426840338565" lon="15.10719751640702"><ele>258.0</ele><time>2026-05-05T08:16:09Z</time></trkpt><trkpt lat="45.874351364257784" lon="15.107039035560238"><ele>258.0</ele><time>2026-05-05T08:16:10Z</time></trkpt><trkpt lat="45.874436074056646" lon="15.106901293285512"><ele>258.25</ele><time>2026-05-05T08:16:11Z</time></trkpt><trkpt lat="45.87452508038948" lon="15.10676425197837"><ele>258.5</ele><time>2026-05-05T08:16:12Z</time></trkpt><trkpt lat="45.874615350484476" lon="15.106616637656748"><ele>258.75</ele><time>2026-05-05T08:16:13Z</time></trkpt><trkpt lat="45.87471315936291" lon="15.106468248635895"><ele>259.0</ele><time>2026-05-05T08:16:14Z</time></trkpt><trkpt lat="45.874821367273825" lon="15.106319247170797"><ele>258.0</ele><time>2026-05-05T08:16:15Z</time></trkpt><trkpt lat="45.874940663393474" lon="15.106165753761607"><ele>257.0</ele><time>2026-05-05T08:16:16Z</time></trkpt><trkpt lat="45.87507210800752" lon="15.106006345305733"><ele>256.0</ele><time>2026-05-05T08:16:17Z</time></trkpt><trkpt lat="45.875215028019646" lon="15.10584933343325"><ele>256.0</ele><time>2026-05-05T08:16:18Z</time></trkpt><trkpt lat="45.87536835871529" lon="15.10568921018528"><ele>256.0</ele><time>2026-05-05T08:16:19Z</time></trkpt><trkpt lat="45.8755296954304" lon="15.10553099249174"><ele>256.0</ele><time>2026-05-05T08:16:20Z</time></trkpt><trkpt lat="45.87569992994453" lon="15.105370818411032"><ele>256.0</ele><time>2026-05-05T08:16:21Z</time></trkpt><trkpt lat="45.8758754262088" lon="15.105203641275496"><ele>256.0</ele><time>2026-05-05T08:16:22Z</time></trkpt><trkpt lat="45.87605546601842" lon="15.105032314107396"><ele>256.0</ele><time>2026-05-05T08:16:23Z</time></trkpt><trkpt lat="45.876239196071566" lon="15.104862959889196"><ele>256.3333333333333</ele><time>2026-05-05T08:16:24Z</time></trkpt><trkpt lat="45.876427598049915" lon="15.1047018069838"><ele>256.6666666666667</ele><time>2026-05-05T08:16:25Z</time></trkpt><trkpt lat="45.87662029344158" lon="15.104557849725099"><ele>257.0</ele><time>2026-05-05T08:16:26Z</time></trkpt><trkpt lat="45.87681297480999" lon="15.104432827754108"><ele>258.6666666666667</ele><time>2026-05-05T08:16:27Z</time></trkpt><trkpt lat="45.87700250690642" lon="15.104319985578819"><ele>260.3333333333333</ele><time>2026-05-05T08:16:28Z</time></trkpt><trkpt lat="45.87718737803746" lon="15.104224475777842"><ele>262.0</ele><time>2026-05-05T08:16:29Z</time></trkpt><trkpt lat="45.87737402767048" lon="15.104143325947666"><ele>262.3333333333333</ele><time>2026-05-05T08:16:30Z</time></trkpt><trkpt lat="45.87756080285925" lon="15.104077545740576"><ele>262.6666666666667</ele><time>2026-05-05T08:16:31Z</time></trkpt><trkpt lat="45.8777476426412" lon="15.104026804956392"><ele>263.0</ele><time>2026-05-05T08:16:32Z</time></trkpt><trkpt lat="45.87792925694004" lon="15.10398157955615"><ele>263.0</ele><time>2026-05-05T08:16:33Z</time></trkpt><trkpt lat="45.878115333389665" lon="15.103943696180417"><ele>263.0</ele><time>2026-05-05T08:16:34Z</time></trkpt><trkpt lat="45.87831175272247" lon="15.10391230847636"><ele>263.0</ele><time>2026-05-05T08:16:35Z</time></trkpt><trkpt lat="45.87850735388023" lon="15.103888183099158"><ele>264.0</ele><time>2026-05-05T08:16:36Z</time></trkpt><trkpt lat="45.87870970034703" lon="15.10385960321063"><ele>265.0</ele><time>2026-05-05T08:16:37Z</time></trkpt><trkpt lat="45.87891322449047" lon="15.103829219538293"><ele>266.0</ele><time>2026-05-05T08:16:38Z</time></trkpt><trkpt lat="45.87911534669179" lon="15.103790811371319"><ele>265.33333333333337</ele><time>2026-05-05T08:16:39Z</time></trkpt><trkpt lat="45.87932163080648" lon="15.103745276196857"><ele>264.6666666666667</ele><time>2026-05-05T08:16:40Z</time></trkpt><trkpt lat="45.87952817547145" lon="15.103698354792414"><ele>264.0</ele><time>2026-05-05T08:16:41Z</time></trkpt><trkpt lat="45.87973709384628" lon="15.103637431371972"><ele>264.0</ele><time>2026-05-05T08:16:42Z</time></trkpt><trkpt lat="45.879945746877695" lon="15.10356703135763"><ele>264.0</ele><time>2026-05-05T08:16:43Z</time></trkpt><trkpt lat="45.88015192686566" lon="15.103489141855192"><ele>264.0</ele><time>2026-05-05T08:16:44Z</time></trkpt><trkpt lat="45.880348968005286" lon="15.10340366677509"><ele>267.0</ele><time>2026-05-05T08:16:45Z</time></trkpt><trkpt lat="45.88054191177336" lon="15.10332319742131"><ele>270.0</ele><time>2026-05-05T08:16:46Z</time></trkpt><trkpt lat="45.88071780387015" lon="15.103242217381686"><ele>273.0</ele><time>2026-05-05T08:16:47Z</time></trkpt><trkpt lat="45.880889872000864" lon="15.103161154348179"><ele>273.6666666666667</ele><time>2026-05-05T08:16:48Z</time></trkpt><trkpt lat="45.8810662869639" lon="15.103075615100426"><ele>274.33333333333337</ele><time>2026-05-05T08:16:49Z</time></trkpt><trkpt lat="45.88124393694137" lon="15.102988841876808"><ele>275.0</ele><time>2026-05-05T08:16:50Z</time></trkpt><trkpt lat="45.88141982801042" lon="15.102899049052946"><ele>275.0</ele><time>2026-05-05T08:16:51Z</time></trkpt><trkpt lat="45.88159633231886" lon="15.10280530691151"><ele>275.0</ele><time>2026-05-05T08:16:52Z</time></trkpt><trkpt lat="45.88177695299028" lon="15.102702314140442"><ele>275.0</ele><time>2026-05-05T08:16:53Z</time></trkpt><trkpt lat="45.881965167690616" lon="15.102593702729308"><ele>276.6666666666667</ele><time>2026-05-05T08:16:54Z</time></trkpt><trkpt lat="45.88216795742947" lon="15.102471203796082"><ele>278.3333333333333</ele><time>2026-05-05T08:16:55Z</time></trkpt><trkpt lat="45.882372597356216" lon="15.102345884491513"><ele>280.0</ele><time>2026-05-05T08:16:56Z</time></trkpt><trkpt lat="45.88256546525435" lon="15.102219644359753"><ele>282.3333333333333</ele><time>2026-05-05T08:16:57Z</time></trkpt><trkpt lat="45.882757568239576" lon="15.102089859645572"><ele>284.6666666666667</ele><time>2026-05-05T08:16:58Z</time></trkpt><trkpt lat="45.882961888455135" lon="15.101972384438943"><ele>287.0</ele><time>2026-05-05T08:16:59Z</time></trkpt><trkpt lat="45.8831794548327" lon="15.101822642194382"><ele>287.0</ele><time>2026-05-05T08:17:00Z</time></trkpt><trkpt lat="45.88340528250925" lon="15.101655552402034"><ele>287.0</ele><time>2026-05-05T08:17:01Z</time></trkpt><trkpt lat="45.883623972085424" lon="15.10148913141792"><ele>287.5</ele><time>2026-05-05T08:17:02Z</time></trkpt><trkpt lat="45.88383015791663" lon="15.101330905729009"><ele>288.0</ele><time>2026-05-05T08:17:03Z</time></trkpt><trkpt lat="45.884026663214044" lon="15.101174851638326"><ele>288.0</ele><time>2026-05-05T08:17:04Z</time></trkpt><trkpt lat="45.88420657794415" lon="15.10100256945003"><ele>288.0</ele><time>2026-05-05T08:17:05Z</time></trkpt><trkpt lat="45.884386567724206" lon="15.100848711475397"><ele>288.0</ele><time>2026-05-05T08:17:06Z</time></trkpt><trkpt lat="45.88455523764112" lon="15.100695186758138"><ele>287.3333333333333</ele><time>2026-05-05T08:17:07Z</time></trkpt><trkpt lat="45.88472200797358" lon="15.10054945356628"><ele>286.66666666666663</ele><time>2026-05-05T08:17:08Z</time></trkpt><trkpt lat="45.88488821593879" lon="15.10040357019654"><ele>286.0</ele><time>2026-05-05T08:17:09Z</time></trkpt><trkpt lat="45.88504238478397" lon="15.100235586745727"><ele>290.3333333333333</ele><time>2026-05-05T08:17:10Z</time></trkpt><trkpt lat="45.885197090647495" lon="15.100053733815018"><ele>294.6666666666667</ele><time>2026-05-05T08:17:11Z</time></trkpt><trkpt lat="45.88535963812354" lon="15.099858677842215"><ele>299.0</ele><time>2026-05-05T08:17:12Z</time></trkpt><trkpt lat="45.885529834834394" lon="15.09963456115141"><ele>299.0</ele><time>2026-05-05T08:17:13Z</time></trkpt><trkpt lat="45.8857300354885" lon="15.099386997647178"><ele>299.0</ele><time>2026-05-05T08:17:13.999Z</time></trkpt><trkpt lat="45.88593503359566" lon="15.09907976996009"><ele>305.0</ele><time>2026-05-05T08:17:14.999Z</time></trkpt><trkpt lat="45.88611894655679" lon="15.098728533490274"><ele>311.0</ele><time>2026-05-05T08:17:15.999Z</time></trkpt><trkpt lat="45.88631609990628" lon="15.098397409190827"><ele>309.0</ele><time>2026-05-05T08:17:16.999Z</time></trkpt><trkpt lat="45.88649508349243" lon="15.098043349911837"><ele>307.0</ele><time>2026-05-05T08:17:17.999Z</time></trkpt><trkpt lat="45.886655462569365" lon="15.097667870644871"><ele>313.0</ele><time>2026-05-05T08:17:18.999Z</time></trkpt><trkpt lat="45.8867981085343" lon="15.097283243466412"><ele>319.0</ele><time>2026-05-05T08:17:19.999Z</time></trkpt><trkpt lat="45.886920391293835" lon="15.096897531819748"><ele>319.5</ele><time>2026-05-05T08:17:20.999Z</time></trkpt><trkpt lat="45.88703100035288" lon="15.096508293307059"><ele>320.0</ele><time>2026-05-05T08:17:21.999Z</time></trkpt><trkpt lat="45.88712575915687" lon="15.096125358565612"><ele>325.0</ele><time>2026-05-05T08:17:22.999Z</time></trkpt><trkpt lat="45.88720348005813" lon="15.095748893846322"><ele>330.0</ele><time>2026-05-05T08:17:23.999Z</time></trkpt><trkpt lat="45.88726578351777" lon="15.095375283814713"><ele>330.0</ele><time>2026-05-05T08:17:24.999Z</time></trkpt><trkpt lat="45.88732931995348" lon="15.095005352160578"><ele>330.0</ele><time>2026-05-05T08:17:25.999Z</time></trkpt><trkpt lat="45.887399219610984" lon="15.094648729644664"><ele>330.0</ele><time>2026-05-05T08:17:26.999Z</time></trkpt><trkpt lat="45.88748324845193" lon="15.094308199849191"><ele>330.0</ele><time>2026-05-05T08:17:27.999Z</time></trkpt><trkpt lat="45.88758304145111" lon="15.093981028375275"><ele>338.5</ele><time>2026-05-05T08:17:28.999Z</time></trkpt><trkpt lat="45.88769485860783" lon="15.093666351770342"><ele>347.0</ele><time>2026-05-05T08:17:29.999Z</time></trkpt><trkpt lat="45.887818086748894" lon="15.093363486522888"><ele>341.0</ele><time>2026-05-05T08:17:30.999Z</time></trkpt><trkpt lat="45.887953335296714" lon="15.093064124950384"><ele>335.0</ele><time>2026-05-05T08:17:31.999Z</time></trkpt><trkpt lat="45.88810138270451" lon="15.092779596134877"><ele>335.0</ele><time>2026-05-05T08:17:32.999Z</time></trkpt><trkpt lat="45.888256955845655" lon="15.092497279304418"><ele>335.0</ele><time>2026-05-05T08:17:33.999Z</time></trkpt><trkpt lat="45.88842573049439" lon="15.092242268457495"><ele>333.5</ele><time>2026-05-05T08:17:34.999Z</time></trkpt><trkpt lat="45.88861185535135" lon="15.09201067674305"><ele>332.0</ele><time>2026-05-05T08:17:35.999Z</time></trkpt><trkpt lat="45.88879923680831" lon="15.091783797358126"><ele>333.0</ele><time>2026-05-05T08:17:36.999Z</time></trkpt><trkpt lat="45.8889934335289" lon="15.091572775299774"><ele>334.0</ele><time>2026-05-05T08:17:37.999Z</time></trkpt><trkpt lat="45.889193584696024" lon="15.091379453460593"><ele>332.5</ele><time>2026-05-05T08:17:38.999Z</time></trkpt><trkpt lat="45.88940341833062" lon="15.091209851040073"><ele>331.0</ele><time>2026-05-05T08:17:39.999Z</time></trkpt><trkpt lat="45.88960702049986" lon="15.091065918984409"><ele>331.0</ele><time>2026-05-05T08:17:40.999Z</time></trkpt><trkpt lat="45.88979457921436" lon="15.090939909693164"><ele>331.0</ele><time>2026-05-05T08:17:41.999Z</time></trkpt><trkpt lat="45.88996796948613" lon="15.090830511597375"><ele>331.0</ele><time>2026-05-05T08:17:42.999Z</time></trkpt><trkpt lat="45.89012942284441" lon="15.090715774469103"><ele>330.66666666666663</ele><time>2026-05-05T08:17:43.999Z</time></trkpt><trkpt lat="45.890279932644084" lon="15.090609199010624"><ele>330.3333333333333</ele><time>2026-05-05T08:17:44.999Z</time></trkpt><trkpt lat="45.89041917839114" lon="15.090499044503966"><ele>330.0</ele><time>2026-05-05T08:17:45.999Z</time></trkpt><trkpt lat="45.890550236374814" lon="15.09039564376843"><ele>330.0</ele><time>2026-05-05T08:17:46.999Z</time></trkpt><trkpt lat="45.89067611036255" lon="15.09029228954947"><ele>330.0</ele><time>2026-05-05T08:17:47.999Z</time></trkpt><trkpt lat="45.89079476926983" lon="15.090192462570505"><ele>330.0</ele><time>2026-05-05T08:17:48.999Z</time></trkpt><trkpt lat="45.8909061010952" lon="15.090095782712558"><ele>330.0</ele><time>2026-05-05T08:17:49.999Z</time></trkpt><trkpt lat="45.891010047142295" lon="15.090009918037483"><ele>329.4</ele><time>2026-05-05T08:17:50.999Z</time></trkpt><trkpt lat="45.89111231408255" lon="15.089955952539112"><ele>328.8</ele><time>2026-05-05T08:17:51.999Z</time></trkpt><trkpt lat="45.89121644099058" lon="15.089975371952505"><ele>328.20000000000005</ele><time>2026-05-05T08:17:52.999Z</time></trkpt><trkpt lat="45.89129844807001" lon="15.089943930966392"><ele>327.6</ele><time>2026-05-05T08:17:53.999Z</time></trkpt><trkpt lat="45.891372452547934" lon="15.089819745130674"><ele>327.0</ele><time>2026-05-05T08:17:54.999Z</time></trkpt><trkpt lat="45.89141550007185" lon="15.089673711130745"><ele>327.0</ele><time>2026-05-05T08:17:55.999Z</time></trkpt><trkpt lat="45.89146832141515" lon="15.089515291770955"><ele>327.0</ele><time>2026-05-05T08:17:56.999Z</time></trkpt><trkpt lat="45.89158626565" lon="15.089402637754658"><ele>327.0</ele><time>2026-05-05T08:17:57.999Z</time></trkpt><trkpt lat="45.89170740337009" lon="15.089262194841911"><ele>327.0</ele><time>2026-05-05T08:17:58.999Z</time></trkpt><trkpt lat="45.891844136333525" lon="15.08909767867585"><ele>325.6666666666667</ele><time>2026-05-05T08:17:59.999Z</time></trkpt><trkpt lat="45.89197999918059" lon="15.088905442915374"><ele>324.33333333333337</ele><time>2026-05-05T08:18:00.999Z</time></trkpt><trkpt lat="45.892136380464805" lon="15.088727769801629"><ele>323.0</ele><time>2026-05-05T08:18:01.999Z</time></trkpt><trkpt lat="45.89229636650605" lon="15.088539349161378"><ele>323.0</ele><time>2026-05-05T08:18:02.999Z</time></trkpt><trkpt lat="45.892459061450275" lon="15.088351402927174"><ele>323.0</ele><time>2026-05-05T08:18:03.999Z</time></trkpt><trkpt lat="45.8926347365619" lon="15.088161461886049"><ele>323.0</ele><time>2026-05-05T08:18:04.999Z</time></trkpt><trkpt lat="45.89282123801166" lon="15.087967973419143"><ele>325.5</ele><time>2026-05-05T08:18:05.999Z</time></trkpt><trkpt lat="45.89301605450614" lon="15.087773429564205"><ele>328.0</ele><time>2026-05-05T08:18:06.999Z</time></trkpt><trkpt lat="45.893218881130124" lon="15.08758533573137"><ele>330.0</ele><time>2026-05-05T08:18:07.999Z</time></trkpt><trkpt lat="45.89342750764608" lon="15.087408760060555"><ele>332.0</ele><time>2026-05-05T08:18:08.999Z</time></trkpt><trkpt lat="45.89364247441967" lon="15.087245049364883"><ele>332.0</ele><time>2026-05-05T08:18:09.999Z</time></trkpt><trkpt lat="45.89386425799254" lon="15.087089266019882"><ele>332.0</ele><time>2026-05-05T08:18:10.999Z</time></trkpt><trkpt lat="45.89408912565178" lon="15.086943428175767"><ele>333.5</ele><time>2026-05-05T08:18:11.999Z</time></trkpt><trkpt lat="45.8943164556838" lon="15.086804531549653"><ele>335.0</ele><time>2026-05-05T08:18:12.999Z</time></trkpt><trkpt lat="45.89454729848945" lon="15.086666940609401"><ele>338.5</ele><time>2026-05-05T08:18:13.999Z</time></trkpt><trkpt lat="45.89477775559747" lon="15.086531792862656"><ele>342.0</ele><time>2026-05-05T08:18:14.999Z</time></trkpt><trkpt lat="45.89501006618908" lon="15.086396307022927"><ele>346.5</ele><time>2026-05-05T08:18:15.999Z</time></trkpt><trkpt lat="45.89524576768793" lon="15.086251795552378"><ele>351.0</ele><time>2026-05-05T08:18:16.999Z</time></trkpt><trkpt lat="45.89548252235378" lon="15.086096683048508"><ele>351.0</ele><time>2026-05-05T08:18:17.999Z</time></trkpt><trkpt lat="45.89571743829212" lon="15.085931736284346"><ele>351.0</ele><time>2026-05-05T08:18:18.999Z</time></trkpt><trkpt lat="45.89595483618145" lon="15.085749397778015"><ele>354.0</ele><time>2026-05-05T08:18:19.999Z</time></trkpt><trkpt lat="45.89618374741422" lon="15.085550566629445"><ele>357.0</ele><time>2026-05-05T08:18:20.999Z</time></trkpt><trkpt lat="45.8964121697899" lon="15.085330722392058"><ele>357.0</ele><time>2026-05-05T08:18:21.999Z</time></trkpt><trkpt lat="45.89663142434591" lon="15.085089000840362"><ele>357.0</ele><time>2026-05-05T08:18:22.999Z</time></trkpt><trkpt lat="45.89683846422971" lon="15.084846171901253"><ele>352.0</ele><time>2026-05-05T08:18:23.999Z</time></trkpt><trkpt lat="45.89703552738948" lon="15.084607038493212"><ele>347.0</ele><time>2026-05-05T08:18:24.999Z</time></trkpt><trkpt lat="45.89721653806357" lon="15.084378533448994"><ele>347.0</ele><time>2026-05-05T08:18:25.999Z</time></trkpt><trkpt lat="45.89738441739129" lon="15.084157142408445"><ele>347.0</ele><time>2026-05-05T08:18:26.999Z</time></trkpt><trkpt lat="45.89753761214453" lon="15.083923239430945"><ele>343.0</ele><time>2026-05-05T08:18:27.999Z</time></trkpt><trkpt lat="45.8976917336473" lon="15.083688092543643"><ele>339.0</ele><time>2026-05-05T08:18:28.999Z</time></trkpt><trkpt lat="45.897840102255934" lon="15.083438313423459"><ele>336.5</ele><time>2026-05-05T08:18:29.999Z</time></trkpt><trkpt lat="45.89798319358629" lon="15.083181152295495"><ele>334.0</ele><time>2026-05-05T08:18:30.999Z</time></trkpt><trkpt lat="45.89812680807338" lon="15.082917433430206"><ele>334.0</ele><time>2026-05-05T08:18:31.999Z</time></trkpt><trkpt lat="45.89826089998492" lon="15.08265566108071"><ele>334.0</ele><time>2026-05-05T08:18:32.999Z</time></trkpt><trkpt lat="45.898391437768225" lon="15.082388825587211"><ele>326.5</ele><time>2026-05-05T08:18:33.999Z</time></trkpt><trkpt lat="45.898524577636536" lon="15.082122328181534"><ele>319.0</ele><time>2026-05-05T08:18:34.999Z</time></trkpt><trkpt lat="45.898647045384415" lon="15.081847557756062"><ele>322.0</ele><time>2026-05-05T08:18:35.999Z</time></trkpt><trkpt lat="45.89876235432492" lon="15.08156914236936"><ele>325.0</ele><time>2026-05-05T08:18:36.999Z</time></trkpt><trkpt lat="45.89888043186375" lon="15.081291637518401"><ele>325.0</ele><time>2026-05-05T08:18:37.999Z</time></trkpt><trkpt lat="45.898993368310315" lon="15.081014078210128"><ele>325.0</ele><time>2026-05-05T08:18:38.999Z</time></trkpt><trkpt lat="45.89910028692196" lon="15.080731393203296"><ele>325.0</ele><time>2026-05-05T08:18:39.999Z</time></trkpt><trkpt lat="45.899208142204216" lon="15.080444398393048"><ele>315.0</ele><time>2026-05-05T08:18:40.999Z</time></trkpt><trkpt lat="45.89930526079264" lon="15.080144330377866"><ele>305.0</ele><time>2026-05-05T08:18:41.999Z</time></trkpt><trkpt lat="45.89940053071363" lon="15.079846092999116"><ele>304.5</ele><time>2026-05-05T08:18:42.999Z</time></trkpt><trkpt lat="45.899494596463185" lon="15.079541785512138"><ele>304.0</ele><time>2026-05-05T08:18:43.999Z</time></trkpt><trkpt lat="45.8995720141384" lon="15.079237318010032"><ele>302.5</ele><time>2026-05-05T08:18:44.999Z</time></trkpt><trkpt lat="45.89964974987125" lon="15.078928327799986"><ele>301.0</ele><time>2026-05-05T08:18:45.999Z</time></trkpt><trkpt lat="45.899724122944136" lon="15.07861959126587"><ele>301.0</ele><time>2026-05-05T08:18:46.999Z</time></trkpt><trkpt lat="45.899796795821295" lon="15.078305032740172"><ele>301.0</ele><time>2026-05-05T08:18:47.999Z</time></trkpt><trkpt lat="45.899865214998066" lon="15.077987368875396"><ele>300.0</ele><time>2026-05-05T08:18:48.999Z</time></trkpt><trkpt lat="45.89993114900528" lon="15.077666554289852"><ele>299.0</ele><time>2026-05-05T08:18:49.999Z</time></trkpt><trkpt lat="45.89998808397583" lon="15.077339376282945"><ele>298.0</ele><time>2026-05-05T08:18:50.999Z</time></trkpt><trkpt lat="45.900040308398445" lon="15.077008320946097"><ele>297.0</ele><time>2026-05-05T08:18:51.999Z</time></trkpt><trkpt lat="45.900088590894725" lon="15.076672685270129"><ele>298.5</ele><time>2026-05-05T08:18:52.999Z</time></trkpt><trkpt lat="45.90013676041174" lon="15.076319311103322"><ele>300.0</ele><time>2026-05-05T08:18:53.999Z</time></trkpt><trkpt lat="45.90018530148439" lon="15.075945546365167"><ele>299.0</ele><time>2026-05-05T08:18:54.999Z</time></trkpt><trkpt lat="45.900230545018836" lon="15.07553907297668"><ele>298.0</ele><time>2026-05-05T08:18:55.999Z</time></trkpt><trkpt lat="45.900264614301776" lon="15.07508917110429"><ele>297.5</ele><time>2026-05-05T08:18:56.999Z</time></trkpt><trkpt lat="45.90032527932067" lon="15.074626722744085"><ele>297.0</ele><time>2026-05-05T08:18:57.999Z</time></trkpt><trkpt lat="45.90037105502784" lon="15.074151544908378"><ele>295.5</ele><time>2026-05-05T08:18:58.999Z</time></trkpt><trkpt lat="45.900413150390364" lon="15.07369281590637"><ele>294.0</ele><time>2026-05-05T08:18:59.999Z</time></trkpt><trkpt lat="45.90040677397123" lon="15.073236183663617"><ele>293.0</ele><time>2026-05-05T08:19:00.999Z</time></trkpt><trkpt lat="45.900435863244724" lon="15.072790487647652"><ele>292.0</ele><time>2026-05-05T08:19:01.999Z</time></trkpt><trkpt lat="45.900453567173386" lon="15.072349704905148"><ele>291.0</ele><time>2026-05-05T08:19:02.999Z</time></trkpt><trkpt lat="45.90046283711098" lon="15.071916673692979"><ele>290.0</ele><time>2026-05-05T08:19:03.999Z</time></trkpt><trkpt lat="45.900464992109946" lon="15.071486287617542"><ele>289.0</ele><time>2026-05-05T08:19:04.999Z</time></trkpt><trkpt lat="45.90046145302051" lon="15.07105430124601"><ele>288.0</ele><time>2026-05-05T08:19:05.999Z</time></trkpt><trkpt lat="45.900453140828446" lon="15.070625627924336"><ele>287.5</ele><time>2026-05-05T08:19:06.999Z</time></trkpt><trkpt lat="45.900437907337675" lon="15.070196773772473"><ele>287.0</ele><time>2026-05-05T08:19:07.999Z</time></trkpt><trkpt lat="45.900417879496615" lon="15.069763417370984"><ele>287.0</ele><time>2026-05-05T08:19:08.999Z</time></trkpt><trkpt lat="45.900390759979075" lon="15.069324374219686"><ele>287.0</ele><time>2026-05-05T08:19:09.999Z</time></trkpt><trkpt lat="45.90035968355914" lon="15.068876736991257"><ele>287.0</ele><time>2026-05-05T08:19:10.999Z</time></trkpt><trkpt lat="45.90032013732924" lon="15.068426882379383"><ele>287.0</ele><time>2026-05-05T08:19:11.999Z</time></trkpt><trkpt lat="45.900275700445555" lon="15.067971575721872"><ele>287.5</ele><time>2026-05-05T08:19:12.999Z</time></trkpt><trkpt lat="45.90022626721719" lon="15.067507097922265"><ele>288.0</ele><time>2026-05-05T08:19:14Z</time></trkpt><trkpt lat="45.900176204920896" lon="15.067044760901577"><ele>290.5</ele><time>2026-05-05T08:19:15Z</time></trkpt><trkpt lat="45.90012812901853" lon="15.066596177807785"><ele>293.0</ele><time>2026-05-05T08:19:16Z</time></trkpt><trkpt lat="45.90008463199803" lon="15.066160660696367"><ele>288.5</ele><time>2026-05-05T08:19:17Z</time></trkpt><trkpt lat="45.900047610981694" lon="15.06572421394434"><ele>284.0</ele><time>2026-05-05T08:19:18Z</time></trkpt><trkpt lat="45.90002235155318" lon="15.065304144606921"><ele>282.0</ele><time>2026-05-05T08:19:19Z</time></trkpt><trkpt lat="45.90000321590376" lon="15.064880090382541"><ele>280.0</ele><time>2026-05-05T08:19:20Z</time></trkpt><trkpt lat="45.899989988914975" lon="15.06447974238003"><ele>279.5</ele><time>2026-05-05T08:19:21Z</time></trkpt><trkpt lat="45.89998398687728" lon="15.064100240122594"><ele>279.0</ele><time>2026-05-05T08:19:22Z</time></trkpt><trkpt lat="45.899984466072574" lon="15.063725973838766"><ele>279.0</ele><time>2026-05-05T08:19:23Z</time></trkpt><trkpt lat="45.8999919953103" lon="15.063356984029436"><ele>279.0</ele><time>2026-05-05T08:19:24Z</time></trkpt><trkpt lat="45.90000312708515" lon="15.062987845463416"><ele>279.5</ele><time>2026-05-05T08:19:25Z</time></trkpt><trkpt lat="45.90001974941164" lon="15.062617482288863"><ele>280.0</ele><time>2026-05-05T08:19:26Z</time></trkpt><trkpt lat="45.900040504670876" lon="15.062252633230955"><ele>280.5</ele><time>2026-05-05T08:19:27Z</time></trkpt><trkpt lat="45.90006332313889" lon="15.061892803237717"><ele>281.0</ele><time>2026-05-05T08:19:28Z</time></trkpt><trkpt lat="45.90008798869138" lon="15.061549488925833"><ele>281.0</ele><time>2026-05-05T08:19:29Z</time></trkpt><trkpt lat="45.900116033096474" lon="15.061219083929418"><ele>281.0</ele><time>2026-05-05T08:19:30Z</time></trkpt><trkpt lat="45.90014910208892" lon="15.06089589926609"><ele>280.33333333333337</ele><time>2026-05-05T08:19:31Z</time></trkpt><trkpt lat="45.90018798730399" lon="15.060577082057012"><ele>279.6666666666667</ele><time>2026-05-05T08:19:32Z</time></trkpt><trkpt lat="45.90022629810058" lon="15.060275007066698"><ele>279.0</ele><time>2026-05-05T08:19:33Z</time></trkpt><trkpt lat="45.90026843530201" lon="15.059984797857954"><ele>278.3333333333333</ele><time>2026-05-05T08:19:34Z</time></trkpt><trkpt lat="45.90031187553584" lon="15.059702031400057"><ele>277.66666666666663</ele><time>2026-05-05T08:19:35Z</time></trkpt><trkpt lat="45.90035899094943" lon="15.059432164003798"><ele>277.0</ele><time>2026-05-05T08:19:36Z</time></trkpt><trkpt lat="45.900406994869165" lon="15.059177532506322"><ele>275.66666666666663</ele><time>2026-05-05T08:19:37Z</time></trkpt><trkpt lat="45.90045585285865" lon="15.05893978880919"><ele>274.3333333333333</ele><time>2026-05-05T08:19:38Z</time></trkpt><trkpt lat="45.90050554572053" lon="15.058706537937496"><ele>273.0</ele><time>2026-05-05T08:19:39Z</time></trkpt><trkpt lat="45.90055093718689" lon="15.058486923506129"><ele>273.0</ele><time>2026-05-05T08:19:40Z</time></trkpt><trkpt lat="45.900593270462494" lon="15.05827526560618"><ele>273.0</ele><time>2026-05-05T08:19:41Z</time></trkpt><trkpt lat="45.900635676888754" lon="15.058071296143499"><ele>273.0</ele><time>2026-05-05T08:19:42Z</time></trkpt><trkpt lat="45.900679961075575" lon="15.057875936613835"><ele>273.0</ele><time>2026-05-05T08:19:43Z</time></trkpt><trkpt lat="45.900723137751804" lon="15.05768987521259"><ele>273.0</ele><time>2026-05-05T08:19:44Z</time></trkpt><trkpt lat="45.90076648793975" lon="15.057510398079394"><ele>273.0</ele><time>2026-05-05T08:19:45Z</time></trkpt><trkpt lat="45.90081058016878" lon="15.05735359485425"><ele>273.0</ele><time>2026-05-05T08:19:46Z</time></trkpt><trkpt lat="45.90086641903913" lon="15.05721644602942"><ele>273.0</ele><time>2026-05-05T08:19:47Z</time></trkpt><trkpt lat="45.900939886913676" lon="15.057109991425854"><ele>274.4</ele><time>2026-05-05T08:19:48Z</time></trkpt><trkpt lat="45.901003668023385" lon="15.057007868178928"><ele>275.8</ele><time>2026-05-05T08:19:49Z</time></trkpt><trkpt lat="45.90103254827255" lon="15.056885351376186"><ele>277.2</ele><time>2026-05-05T08:19:50Z</time></trkpt><trkpt lat="45.90102027972879" lon="15.056764028678398"><ele>278.6</ele><time>2026-05-05T08:19:51Z</time></trkpt><trkpt lat="45.90098833225173" lon="15.056640404885496"><ele>280.0</ele><time>2026-05-05T08:19:52Z</time></trkpt><trkpt lat="45.90096848740377" lon="15.056505700835798"><ele>282.0</ele><time>2026-05-05T08:19:53Z</time></trkpt><trkpt lat="45.90098209974089" lon="15.056349177182005"><ele>284.0</ele><time>2026-05-05T08:19:54Z</time></trkpt><trkpt lat="45.90100663068929" lon="15.056182291900079"><ele>286.0</ele><time>2026-05-05T08:19:55Z</time></trkpt><trkpt lat="45.901027096246914" lon="15.056017680534824"><ele>288.0</ele><time>2026-05-05T08:19:56Z</time></trkpt><trkpt lat="45.901048458045395" lon="15.055847315909455"><ele>288.0</ele><time>2026-05-05T08:19:57Z</time></trkpt><trkpt lat="45.90107381274268" lon="15.055669785557003"><ele>288.0</ele><time>2026-05-05T08:19:58Z</time></trkpt><trkpt lat="45.90110060568847" lon="15.055483921792085"><ele>288.0</ele><time>2026-05-05T08:19:59Z</time></trkpt><trkpt lat="45.90111922196026" lon="15.055286792549827"><ele>288.0</ele><time>2026-05-05T08:20:00Z</time></trkpt><trkpt lat="45.901148491039145" lon="15.055077920232355"><ele>287.3333333333333</ele><time>2026-05-05T08:20:01Z</time></trkpt><trkpt lat="45.90116737238525" lon="15.054870481309536"><ele>286.66666666666663</ele><time>2026-05-05T08:20:02Z</time></trkpt><trkpt lat="45.90118577332537" lon="15.054652992441108"><ele>286.0</ele><time>2026-05-05T08:20:03Z</time></trkpt><trkpt lat="45.901182774841175" lon="15.054413587488588"><ele>286.0</ele><time>2026-05-05T08:20:04Z</time></trkpt><trkpt lat="45.9011920671368" lon="15.054179255345028"><ele>286.0</ele><time>2026-05-05T08:20:05Z</time></trkpt><trkpt lat="45.90120163926228" lon="15.053930059500832"><ele>286.0</ele><time>2026-05-05T08:20:06Z</time></trkpt><trkpt lat="45.90120969776208" lon="15.053666269813798"><ele>284.3333333333333</ele><time>2026-05-05T08:20:07Z</time></trkpt><trkpt lat="45.901215914852635" lon="15.053386687400284"><ele>282.6666666666667</ele><time>2026-05-05T08:20:08Z</time></trkpt><trkpt lat="45.90121530993989" lon="15.053114596625068"><ele>281.0</ele><time>2026-05-05T08:20:09Z</time></trkpt><trkpt lat="45.90121398695532" lon="15.0528394738999"><ele>279.33333333333337</ele><time>2026-05-05T08:20:10Z</time></trkpt><trkpt lat="45.90120416187751" lon="15.05255101527571"><ele>277.6666666666667</ele><time>2026-05-05T08:20:11Z</time></trkpt><trkpt lat="45.90120171195009" lon="15.052264710990132"><ele>276.0</ele><time>2026-05-05T08:20:12Z</time></trkpt><trkpt lat="45.901194997958676" lon="15.051971053351359"><ele>275.3333333333333</ele><time>2026-05-05T08:20:13Z</time></trkpt><trkpt lat="45.901191894772495" lon="15.051677561511893"><ele>274.66666666666663</ele><time>2026-05-05T08:20:14Z</time></trkpt><trkpt lat="45.901189561653645" lon="15.051379476805138"><ele>274.0</ele><time>2026-05-05T08:20:15Z</time></trkpt><trkpt lat="45.901193389275186" lon="15.051077561147833"><ele>274.3333333333333</ele><time>2026-05-05T08:20:16Z</time></trkpt><trkpt lat="45.901198904116924" lon="15.050761991960053"><ele>274.6666666666667</ele><time>2026-05-05T08:20:17Z</time></trkpt><trkpt lat="45.901212079855476" lon="15.050448497594964"><ele>275.0</ele><time>2026-05-05T08:20:18Z</time></trkpt><trkpt lat="45.90123392970572" lon="15.050133105911513"><ele>275.33333333333337</ele><time>2026-05-05T08:20:19Z</time></trkpt><trkpt lat="45.90126504025744" lon="15.049816690853651"><ele>275.6666666666667</ele><time>2026-05-05T08:20:20Z</time></trkpt><trkpt lat="45.90129682280727" lon="15.049499136568405"><ele>276.0</ele><time>2026-05-05T08:20:21Z</time></trkpt><trkpt lat="45.901336378708905" lon="15.049181694180115"><ele>274.5</ele><time>2026-05-05T08:20:22Z</time></trkpt><trkpt lat="45.901379744411585" lon="15.048864651690872"><ele>273.0</ele><time>2026-05-05T08:20:23Z</time></trkpt><trkpt lat="45.90142122394446" lon="15.048543297763079"><ele>274.0</ele><time>2026-05-05T08:20:24Z</time></trkpt><trkpt lat="45.90146100784127" lon="15.048224487230993"><ele>275.0</ele><time>2026-05-05T08:20:25Z</time></trkpt><trkpt lat="45.901494579818895" lon="15.047904644138452"><ele>275.0</ele><time>2026-05-05T08:20:26Z</time></trkpt><trkpt lat="45.90151819444843" lon="15.047587452223862"><ele>275.0</ele><time>2026-05-05T08:20:27Z</time></trkpt><trkpt lat="45.90152930985639" lon="15.047265841487588"><ele>275.0</ele><time>2026-05-05T08:20:28Z</time></trkpt><trkpt lat="45.901528013352" lon="15.046947621467154"><ele>275.33333333333337</ele><time>2026-05-05T08:20:29Z</time></trkpt><trkpt lat="45.90151416656789" lon="15.046632238357967"><ele>275.6666666666667</ele><time>2026-05-05T08:20:30Z</time></trkpt><trkpt lat="45.901487390436564" lon="15.046315971593941"><ele>276.0</ele><time>2026-05-05T08:20:31Z</time></trkpt><trkpt lat="45.901448690936355" lon="15.046006229993754"><ele>277.3333333333333</ele><time>2026-05-05T08:20:32Z</time></trkpt><trkpt lat="45.90139313650695" lon="15.04569740028337"><ele>278.66666666666663</ele><time>2026-05-05T08:20:33Z</time></trkpt><trkpt lat="45.9013252772044" lon="15.04539429474638"><ele>280.0</ele><time>2026-05-05T08:20:34Z</time></trkpt><trkpt lat="45.901255695147896" lon="15.045086359005039"><ele>281.5</ele><time>2026-05-05T08:20:35Z</time></trkpt><trkpt lat="45.90117885468875" lon="15.044782513589732"><ele>283.0</ele><time>2026-05-05T08:20:36Z</time></trkpt><trkpt lat="45.90110110620141" lon="15.044476439994453"><ele>283.0</ele><time>2026-05-05T08:20:37Z</time></trkpt><trkpt lat="45.90102839213319" lon="15.044180737781462"><ele>283.0</ele><time>2026-05-05T08:20:38Z</time></trkpt><trkpt lat="45.90094680006882" lon="15.043883965858146"><ele>283.0</ele><time>2026-05-05T08:20:39Z</time></trkpt><trkpt lat="45.90087266952438" lon="15.043593692908066"><ele>283.0</ele><time>2026-05-05T08:20:40Z</time></trkpt><trkpt lat="45.90080237215781" lon="15.043306064981092"><ele>283.0</ele><time>2026-05-05T08:20:41Z</time></trkpt><trkpt lat="45.900733227678614" lon="15.043015480248803"><ele>283.0</ele><time>2026-05-05T08:20:42Z</time></trkpt><trkpt lat="45.90066534650652" lon="15.042731134665855"><ele>283.0</ele><time>2026-05-05T08:20:43Z</time></trkpt><trkpt lat="45.900603241113636" lon="15.042441746760447"><ele>283.0</ele><time>2026-05-05T08:20:44Z</time></trkpt><trkpt lat="45.90053585779176" lon="15.042154114690463"><ele>283.0</ele><time>2026-05-05T08:20:45Z</time></trkpt><trkpt lat="45.90047262769948" lon="15.041857446772692"><ele>286.0</ele><time>2026-05-05T08:20:46Z</time></trkpt><trkpt lat="45.90041746181302" lon="15.04155971924264"><ele>289.0</ele><time>2026-05-05T08:20:47Z</time></trkpt><trkpt lat="45.900362437751255" lon="15.041260146695889"><ele>292.0</ele><time>2026-05-05T08:20:48Z</time></trkpt><trkpt lat="45.900308558545646" lon="15.040954074370728"><ele>291.5</ele><time>2026-05-05T08:20:49Z</time></trkpt><trkpt lat="45.90025326738331" lon="15.040641477599596"><ele>291.0</ele><time>2026-05-05T08:20:50Z</time></trkpt><trkpt lat="45.900193430344466" lon="15.040325756995356"><ele>291.0</ele><time>2026-05-05T08:20:51Z</time></trkpt><trkpt lat="45.90013564109399" lon="15.040009703788833"><ele>291.0</ele><time>2026-05-05T08:20:52Z</time></trkpt><trkpt lat="45.900076628082104" lon="15.039687674904224"><ele>278.5</ele><time>2026-05-05T08:20:53Z</time></trkpt><trkpt lat="45.900025052879464" lon="15.039363010748973"><ele>266.0</ele><time>2026-05-05T08:20:54Z</time></trkpt><trkpt lat="45.89997893173709" lon="15.039032716696772"><ele>266.0</ele><time>2026-05-05T08:20:55Z</time></trkpt><trkpt lat="45.899931751193385" lon="15.038679337429869"><ele>266.0</ele><time>2026-05-05T08:20:56Z</time></trkpt><trkpt lat="45.89990622113205" lon="15.038353857345369"><ele>268.0</ele><time>2026-05-05T08:20:57Z</time></trkpt><trkpt lat="45.89987963113874" lon="15.038015770717532"><ele>270.0</ele><time>2026-05-05T08:20:58Z</time></trkpt><trkpt lat="45.899863493762034" lon="15.0376772277365"><ele>273.5</ele><time>2026-05-05T08:20:59Z</time></trkpt><trkpt lat="45.899860467631704" lon="15.037339081814082"><ele>277.0</ele><time>2026-05-05T08:21:00Z</time></trkpt><trkpt lat="45.89987110779866" lon="15.037001911390421"><ele>277.0</ele><time>2026-05-05T08:21:01Z</time></trkpt><trkpt lat="45.89989780968999" lon="15.036658187776231"><ele>277.0</ele><time>2026-05-05T08:21:02Z</time></trkpt><trkpt lat="45.899941331817196" lon="15.036322179679914"><ele>278.0</ele><time>2026-05-05T08:21:03Z</time></trkpt><trkpt lat="45.89999062825083" lon="15.035987285170826"><ele>279.0</ele><time>2026-05-05T08:21:04Z</time></trkpt><trkpt lat="45.90006814965375" lon="15.035660891242758"><ele>271.0</ele><time>2026-05-05T08:21:05Z</time></trkpt><trkpt lat="45.900162394995576" lon="15.035343106398031"><ele>263.0</ele><time>2026-05-05T08:21:06Z</time></trkpt><trkpt lat="45.90027576023204" lon="15.035034052577451"><ele>264.5</ele><time>2026-05-05T08:21:07Z</time></trkpt><trkpt lat="45.90040272633085" lon="15.03473961815921"><ele>266.0</ele><time>2026-05-05T08:21:08Z</time></trkpt><trkpt lat="45.90054702161184" lon="15.034455032194629"><ele>266.0</ele><time>2026-05-05T08:21:09Z</time></trkpt><trkpt lat="45.90069943151023" lon="15.034187286728443"><ele>266.0</ele><time>2026-05-05T08:21:10Z</time></trkpt><trkpt lat="45.90086277183727" lon="15.033927894685407"><ele>266.0</ele><time>2026-05-05T08:21:11Z</time></trkpt><trkpt lat="45.90102721748778" lon="15.03366742340637"><ele>266.0</ele><time>2026-05-05T08:21:12Z</time></trkpt><trkpt lat="45.90118767891217" lon="15.033405588592021"><ele>267.0</ele><time>2026-05-05T08:21:13Z</time></trkpt><trkpt lat="45.901341873201865" lon="15.033137820685807"><ele>268.0</ele><time>2026-05-05T08:21:14Z</time></trkpt><trkpt lat="45.90148410413234" lon="15.032862989726473"><ele>268.0</ele><time>2026-05-05T08:21:15Z</time></trkpt><trkpt lat="45.90161699418457" lon="15.032576136351071"><ele>268.0</ele><time>2026-05-05T08:21:16Z</time></trkpt><trkpt lat="45.90173903472081" lon="15.032280752652419"><ele>268.5</ele><time>2026-05-05T08:21:17Z</time></trkpt><trkpt lat="45.901852079975725" lon="15.031974401421376"><ele>269.0</ele><time>2026-05-05T08:21:18Z</time></trkpt><trkpt lat="45.90194904399014" lon="15.031653018511976"><ele>267.0</ele><time>2026-05-05T08:21:19Z</time></trkpt><trkpt lat="45.90203125688364" lon="15.031323696875424"><ele>265.0</ele><time>2026-05-05T08:21:20Z</time></trkpt><trkpt lat="45.902101774605484" lon="15.030991439994306"><ele>265.5</ele><time>2026-05-05T08:21:21Z</time></trkpt><trkpt lat="45.90216294076423" lon="15.03066198700862"><ele>266.0</ele><time>2026-05-05T08:21:22Z</time></trkpt><trkpt lat="45.902218105937116" lon="15.030339442898125"><ele>266.0</ele><time>2026-05-05T08:21:23Z</time></trkpt><trkpt lat="45.90227636430789" lon="15.030019059886467"><ele>266.0</ele><time>2026-05-05T08:21:24Z</time></trkpt><trkpt lat="45.90233957464732" lon="15.02970392279091"><ele>265.5</ele><time>2026-05-05T08:21:25Z</time></trkpt><trkpt lat="45.9024100818562" lon="15.029394192958664"><ele>265.0</ele><time>2026-05-05T08:21:26Z</time></trkpt><trkpt lat="45.902489804634456" lon="15.029086248214835"><ele>265.0</ele><time>2026-05-05T08:21:27Z</time></trkpt><trkpt lat="45.90257353549159" lon="15.02878978537157"><ele>265.0</ele><time>2026-05-05T08:21:28Z</time></trkpt><trkpt lat="45.9026600233192" lon="15.028499893879388"><ele>265.0</ele><time>2026-05-05T08:21:29Z</time></trkpt><trkpt lat="45.90275091340745" lon="15.028213361017412"><ele>265.3333333333333</ele><time>2026-05-05T08:21:30Z</time></trkpt><trkpt lat="45.902848986172536" lon="15.027931754029062"><ele>265.6666666666667</ele><time>2026-05-05T08:21:31Z</time></trkpt><trkpt lat="45.902947871705656" lon="15.02766658499168"><ele>266.0</ele><time>2026-05-05T08:21:32Z</time></trkpt><trkpt lat="45.903050717373226" lon="15.027412972485308"><ele>266.0</ele><time>2026-05-05T08:21:33Z</time></trkpt><trkpt lat="45.90315490785045" lon="15.027166750608055"><ele>266.0</ele><time>2026-05-05T08:21:34Z</time></trkpt><trkpt lat="45.90326043636202" lon="15.026919087809889"><ele>266.0</ele><time>2026-05-05T08:21:35Z</time></trkpt><trkpt lat="45.9033673519246" lon="15.02666831463876"><ele>265.6666666666667</ele><time>2026-05-05T08:21:36Z</time></trkpt><trkpt lat="45.90347380239588" lon="15.026410134493464"><ele>265.3333333333333</ele><time>2026-05-05T08:21:37Z</time></trkpt><trkpt lat="45.90357635239261" lon="15.026145893486985"><ele>265.0</ele><time>2026-05-05T08:21:38Z</time></trkpt><trkpt lat="45.90367426707068" lon="15.025876046140755"><ele>266.0</ele><time>2026-05-05T08:21:39Z</time></trkpt><trkpt lat="45.90376921131172" lon="15.025601130075051"><ele>267.0</ele><time>2026-05-05T08:21:40Z</time></trkpt><trkpt lat="45.90385663270111" lon="15.02532786556491"><ele>268.0</ele><time>2026-05-05T08:21:41Z</time></trkpt><trkpt lat="45.90393432306466" lon="15.025059502893503"><ele>269.0</ele><time>2026-05-05T08:21:42Z</time></trkpt><trkpt lat="45.90400046898438" lon="15.024814142592739"><ele>270.0</ele><time>2026-05-05T08:21:43Z</time></trkpt><trkpt lat="45.90405613615603" lon="15.024595223130651"><ele>271.0</ele><time>2026-05-05T08:21:44Z</time></trkpt><trkpt lat="45.90410708820441" lon="15.024394274337338"><ele>271.0</ele><time>2026-05-05T08:21:45Z</time></trkpt><trkpt lat="45.904152277915166" lon="15.024213491086027"><ele>271.0</ele><time>2026-05-05T08:21:46Z</time></trkpt><trkpt lat="45.904195845199965" lon="15.024050569919948"><ele>271.0</ele><time>2026-05-05T08:21:47Z</time></trkpt><trkpt lat="45.90423823134657" lon="15.023916784840669"><ele>271.0</ele><time>2026-05-05T08:21:48Z</time></trkpt><trkpt lat="45.904304390548994" lon="15.023816686359998"><ele>269.8</ele><time>2026-05-05T08:21:49Z</time></trkpt><trkpt lat="45.90437864805554" lon="15.023743954461997"><ele>268.6</ele><time>2026-05-05T08:21:50Z</time></trkpt><trkpt lat="45.90442550539965" lon="15.023629873200907"><ele>267.4</ele><time>2026-05-05T08:21:51Z</time></trkpt><trkpt lat="45.90442577384408" lon="15.023461564292335"><ele>266.2</ele><time>2026-05-05T08:21:52Z</time></trkpt><trkpt lat="45.904388890659334" lon="15.023277049385872"><ele>265.0</ele><time>2026-05-05T08:21:53Z</time></trkpt><trkpt lat="45.904373909023604" lon="15.023072493583406"><ele>265.0</ele><time>2026-05-05T08:21:54Z</time></trkpt><trkpt lat="45.90440129831152" lon="15.022856650612725"><ele>265.0</ele><time>2026-05-05T08:21:55Z</time></trkpt><trkpt lat="45.90444621567646" lon="15.02262736786425"><ele>265.0</ele><time>2026-05-05T08:21:56Z</time></trkpt><trkpt lat="45.90448777925888" lon="15.022383042531741"><ele>265.3333333333333</ele><time>2026-05-05T08:21:57Z</time></trkpt><trkpt lat="45.90452598239105" lon="15.022119590283031"><ele>265.6666666666667</ele><time>2026-05-05T08:21:58Z</time></trkpt><trkpt lat="45.90456373732181" lon="15.021848621983548"><ele>266.0</ele><time>2026-05-05T08:21:59Z</time></trkpt><trkpt lat="45.90459974650538" lon="15.021564049398288"><ele>266.0</ele><time>2026-05-05T08:22:00Z</time></trkpt><trkpt lat="45.904633600798405" lon="15.021269505458443"><ele>266.0</ele><time>2026-05-05T08:22:01Z</time></trkpt><trkpt lat="45.9046812968541" lon="15.020963620876092"><ele>266.0</ele><time>2026-05-05T08:22:02Z</time></trkpt><trkpt lat="45.90471206016416" lon="15.020641956555409"><ele>266.0</ele><time>2026-05-05T08:22:03Z</time></trkpt><trkpt lat="45.904739958054" lon="15.020320762236928"><ele>266.0</ele><time>2026-05-05T08:22:04Z</time></trkpt><trkpt lat="45.90476699629979" lon="15.019996187496469"><ele>266.5</ele><time>2026-05-05T08:22:05Z</time></trkpt><trkpt lat="45.90479404221366" lon="15.01966210458021"><ele>267.0</ele><time>2026-05-05T08:22:06Z</time></trkpt><trkpt lat="45.90482242308819" lon="15.019311294712695"><ele>268.0</ele><time>2026-05-05T08:22:07Z</time></trkpt><trkpt lat="45.90485106569078" lon="15.018947867804997"><ele>269.0</ele><time>2026-05-05T08:22:08Z</time></trkpt><trkpt lat="45.904878181054386" lon="15.018575948988003"><ele>269.5</ele><time>2026-05-05T08:22:09Z</time></trkpt><trkpt lat="45.90490506854739" lon="15.018199761358012"><ele>270.0</ele><time>2026-05-05T08:22:10Z</time></trkpt><trkpt lat="45.904930055178774" lon="15.017833035761189"><ele>269.0</ele><time>2026-05-05T08:22:11Z</time></trkpt><trkpt lat="45.90495566394009" lon="15.017456695167647"><ele>268.0</ele><time>2026-05-05T08:22:12Z</time></trkpt><trkpt lat="45.90496321557426" lon="15.017077648017946"><ele>268.0</ele><time>2026-05-05T08:22:13Z</time></trkpt><trkpt lat="45.90498823859981" lon="15.01670453720839"><ele>268.0</ele><time>2026-05-05T08:22:14Z</time></trkpt><trkpt lat="45.90500920494304" lon="15.016325543215899"><ele>267.5</ele><time>2026-05-05T08:22:15Z</time></trkpt><trkpt lat="45.90502801577829" lon="15.015942672984146"><ele>267.0</ele><time>2026-05-05T08:22:16Z</time></trkpt><trkpt lat="45.90506493431131" lon="15.015555133398204"><ele>266.5</ele><time>2026-05-05T08:22:17Z</time></trkpt><trkpt lat="45.90508352032487" lon="15.015164984593094"><ele>266.0</ele><time>2026-05-05T08:22:18Z</time></trkpt><trkpt lat="45.905101520219226" lon="15.014775295976527"><ele>266.0</ele><time>2026-05-05T08:22:19Z</time></trkpt><trkpt lat="45.90510313919386" lon="15.014376275447646"><ele>266.0</ele><time>2026-05-05T08:22:20Z</time></trkpt><trkpt lat="45.90512080309631" lon="15.013978757779919"><ele>266.0</ele><time>2026-05-05T08:22:21Z</time></trkpt><trkpt lat="45.90513493377705" lon="15.013588855766505"><ele>266.0</ele><time>2026-05-05T08:22:22Z</time></trkpt><trkpt lat="45.905150398955165" lon="15.013206486235624"><ele>268.0</ele><time>2026-05-05T08:22:23Z</time></trkpt><trkpt lat="45.90516383239841" lon="15.012830766092057"><ele>270.0</ele><time>2026-05-05T08:22:24Z</time></trkpt><trkpt lat="45.90517743398399" lon="15.012457232245357"><ele>270.0</ele><time>2026-05-05T08:22:25Z</time></trkpt><trkpt lat="45.905187662846004" lon="15.012091729117278"><ele>270.0</ele><time>2026-05-05T08:22:26Z</time></trkpt><trkpt lat="45.90519905250845" lon="15.01173530275128"><ele>270.0</ele><time>2026-05-05T08:22:27Z</time></trkpt><trkpt lat="45.90520827290625" lon="15.011389305156923"><ele>270.0</ele><time>2026-05-05T08:22:28Z</time></trkpt><trkpt lat="45.90521454784488" lon="15.01104583247159"><ele>270.5</ele><time>2026-05-05T08:22:29Z</time></trkpt><trkpt lat="45.905221900855466" lon="15.010704531541116"><ele>271.0</ele><time>2026-05-05T08:22:30Z</time></trkpt><trkpt lat="45.905226206476236" lon="15.010365525185367"><ele>271.0</ele><time>2026-05-05T08:22:31Z</time></trkpt><trkpt lat="45.90522865061076" lon="15.01003136384891"><ele>271.0</ele><time>2026-05-05T08:22:32Z</time></trkpt><trkpt lat="45.90522849715826" lon="15.009710864734291"><ele>271.0</ele><time>2026-05-05T08:22:33Z</time></trkpt><trkpt lat="45.90522503937583" lon="15.009395203201288"><ele>271.0</ele><time>2026-05-05T08:22:34Z</time></trkpt><trkpt lat="45.90521915675981" lon="15.00909386268851"><ele>271.0</ele><time>2026-05-05T08:22:35Z</time></trkpt><trkpt lat="45.90523222237352" lon="15.008802610791376"><ele>271.0</ele><time>2026-05-05T08:22:36Z</time></trkpt><trkpt lat="45.905228949476474" lon="15.008521959829256"><ele>271.0</ele><time>2026-05-05T08:22:37Z</time></trkpt><trkpt lat="45.905208534349484" lon="15.008248962143654"><ele>271.0</ele><time>2026-05-05T08:22:38Z</time></trkpt><trkpt lat="45.905206306542055" lon="15.007995130098486"><ele>270.75</ele><time>2026-05-05T08:22:39Z</time></trkpt><trkpt lat="45.90520419683097" lon="15.007762679231666"><ele>270.5</ele><time>2026-05-05T08:22:40Z</time></trkpt><trkpt lat="45.90520110315108" lon="15.007554338218494"><ele>270.25</ele><time>2026-05-05T08:22:41Z</time></trkpt><trkpt lat="45.905196065159096" lon="15.007361107710775"><ele>270.0</ele><time>2026-05-05T08:22:42Z</time></trkpt><trkpt lat="45.90518823038835" lon="15.00718597344936"><ele>269.8333333333333</ele><time>2026-05-05T08:22:43Z</time></trkpt><trkpt lat="45.905183170289845" lon="15.00702644927312"><ele>269.6666666666667</ele><time>2026-05-05T08:22:44Z</time></trkpt><trkpt lat="45.90517959421868" lon="15.006888267772688"><ele>269.5</ele><time>2026-05-05T08:22:45Z</time></trkpt><trkpt lat="45.90517877314208" lon="15.006782333745504"><ele>269.33333333333337</ele><time>2026-05-05T08:22:46Z</time></trkpt><trkpt lat="45.905181007974605" lon="15.006674441949436"><ele>269.1666666666667</ele><time>2026-05-05T08:22:48Z</time></trkpt><trkpt lat="45.90518821837293" lon="15.006581693822302"><ele>269.0</ele><time>2026-05-05T08:22:52Z</time></trkpt><trkpt lat="45.90521797509399" lon="15.006445823729182"><ele>269.0</ele><time>2026-05-05T08:22:55Z</time></trkpt><trkpt lat="45.90527189906108" lon="15.006352795552493"><ele>269.0</ele><time>2026-05-05T08:22:57Z</time></trkpt><trkpt lat="45.90530013562928" lon="15.006240235747828"><ele>269.0</ele><time>2026-05-05T08:22:59Z</time></trkpt><trkpt lat="45.905277404086554" lon="15.006124277759536"><ele>269.0</ele><time>2026-05-05T08:23:01Z</time></trkpt><trkpt lat="45.905213535119536" lon="15.00601418475944"><ele>269.0</ele><time>2026-05-05T08:23:03Z</time></trkpt><trkpt lat="45.90515470776268" lon="15.005843515053776"><ele>269.1666666666667</ele><time>2026-05-05T08:23:05Z</time></trkpt><trkpt lat="45.90514121081722" lon="15.005734412563612"><ele>269.33333333333337</ele><time>2026-05-05T08:23:06Z</time></trkpt><trkpt lat="45.905129737339365" lon="15.005626602312526"><ele>269.5</ele><time>2026-05-05T08:23:07Z</time></trkpt><trkpt lat="45.90512240011369" lon="15.005513878657347"><ele>269.6666666666667</ele><time>2026-05-05T08:23:08Z</time></trkpt><trkpt lat="45.90511591240532" lon="15.005397927231003"><ele>269.8333333333333</ele><time>2026-05-05T08:23:09Z</time></trkpt><trkpt lat="45.90510893603517" lon="15.005273354648049"><ele>270.0</ele><time>2026-05-05T08:23:10Z</time></trkpt><trkpt lat="45.90509988833053" lon="15.005145559587602"><ele>270.0</ele><time>2026-05-05T08:23:11Z</time></trkpt><trkpt lat="45.905093081954774" lon="15.005005627535256"><ele>270.0</ele><time>2026-05-05T08:23:12Z</time></trkpt><trkpt lat="45.905084698593434" lon="15.004860855896217"><ele>270.0</ele><time>2026-05-05T08:23:13Z</time></trkpt><trkpt lat="45.90507766503371" lon="15.004704564265284"><ele>270.0</ele><time>2026-05-05T08:23:14Z</time></trkpt><trkpt lat="45.90506995589704" lon="15.00454089787869"><ele>270.0</ele><time>2026-05-05T08:23:15Z</time></trkpt><trkpt lat="45.905063635182366" lon="15.004376094426183"><ele>269.75</ele><time>2026-05-05T08:23:16Z</time></trkpt><trkpt lat="45.905056477323214" lon="15.004202423494995"><ele>269.5</ele><time>2026-05-05T08:23:17Z</time></trkpt><trkpt lat="45.90504851947643" lon="15.004021053162413"><ele>269.25</ele><time>2026-05-05T08:23:18Z</time></trkpt><trkpt lat="45.905037005073346" lon="15.003831292228398"><ele>269.0</ele><time>2026-05-05T08:23:19Z</time></trkpt><trkpt lat="45.905026967108995" lon="15.003638083800597"><ele>269.0</ele><time>2026-05-05T08:23:20Z</time></trkpt><trkpt lat="45.905016001668386" lon="15.003447204719496"><ele>269.0</ele><time>2026-05-05T08:23:21Z</time></trkpt><trkpt lat="45.90500376880629" lon="15.003275906564607"><ele>269.0</ele><time>2026-05-05T08:23:22Z</time></trkpt><trkpt lat="45.905011736941745" lon="15.003137589460486"><ele>269.0</ele><time>2026-05-05T08:23:23Z</time></trkpt><trkpt lat="45.90501099913453" lon="15.003028688508046"><ele>269.0</ele><time>2026-05-05T08:23:24Z</time></trkpt><trkpt lat="45.90499650401247" lon="15.00289120073653"><ele>269.5</ele><time>2026-05-05T08:23:26Z</time></trkpt><trkpt lat="45.90481591200962" lon="15.002886786893058"><ele>270.0</ele><time>2026-05-05T08:23:27Z</time></trkpt><trkpt lat="45.90472729691432" lon="15.002863003502679"><ele>270.5</ele><time>2026-05-05T08:23:28Z</time></trkpt><trkpt lat="45.9046213680796" lon="15.002866399262548"><ele>271.0</ele><time>2026-05-05T08:23:29Z</time></trkpt><trkpt lat="45.9045009596093" lon="15.002870259195305"><ele>271.0</ele><time>2026-05-05T08:23:30Z</time></trkpt><trkpt lat="45.904371783607566" lon="15.00283314777288"><ele>271.0</ele><time>2026-05-05T08:23:31Z</time></trkpt><trkpt lat="45.904224336485406" lon="15.002807502592333"><ele>271.0</ele><time>2026-05-05T08:23:32Z</time></trkpt><trkpt lat="45.90407765006216" lon="15.002708247471423"><ele>271.0</ele><time>2026-05-05T08:23:33Z</time></trkpt><trkpt lat="45.90392847421249" lon="15.002566400916136"><ele>272.66666666666663</ele><time>2026-05-05T08:23:34Z</time></trkpt><trkpt lat="45.90379060804005" lon="15.002387955839895"><ele>274.3333333333333</ele><time>2026-05-05T08:23:35Z</time></trkpt><trkpt lat="45.903656272013556" lon="15.002180890680052"><ele>276.0</ele><time>2026-05-05T08:23:36Z</time></trkpt><trkpt lat="45.903540158256774" lon="15.00194622483387"><ele>276.0</ele><time>2026-05-05T08:23:37Z</time></trkpt><trkpt lat="45.90344367528105" lon="15.001685599161696"><ele>276.0</ele><time>2026-05-05T08:23:38Z</time></trkpt><trkpt lat="45.90335885349521" lon="15.001412314179998"><ele>276.0</ele><time>2026-05-05T08:23:39Z</time></trkpt><trkpt lat="45.90327639146089" lon="15.001134849305938"><ele>279.6666666666667</ele><time>2026-05-05T08:23:40Z</time></trkpt><trkpt lat="45.9031930805912" lon="15.000862032945626"><ele>283.33333333333337</ele><time>2026-05-05T08:23:41Z</time></trkpt><trkpt lat="45.90310342796727" lon="15.000586549591498"><ele>287.0</ele><time>2026-05-05T08:23:42Z</time></trkpt><trkpt lat="45.90301339648105" lon="15.000309825731325"><ele>287.0</ele><time>2026-05-05T08:23:43Z</time></trkpt><trkpt lat="45.90292829608503" lon="15.0000292254114"><ele>287.0</ele><time>2026-05-05T08:23:44Z</time></trkpt><trkpt lat="45.902842744749144" lon="14.99975043065003"><ele>287.0</ele><time>2026-05-05T08:23:45Z</time></trkpt><trkpt lat="45.90277106324817" lon="14.999463874261208"><ele>287.0</ele><time>2026-05-05T08:23:46Z</time></trkpt><trkpt lat="45.902687005661015" lon="14.99919242154115"><ele>287.0</ele><time>2026-05-05T08:23:47Z</time></trkpt><trkpt lat="45.902604232372994" lon="14.99891840199526"><ele>287.0</ele><time>2026-05-05T08:23:48Z</time></trkpt><trkpt lat="45.90251922800558" lon="14.998652936787135"><ele>293.33333333333337</ele><time>2026-05-05T08:23:49Z</time></trkpt><trkpt lat="45.902406049409386" lon="14.998421568066243"><ele>299.6666666666667</ele><time>2026-05-05T08:23:50Z</time></trkpt><trkpt lat="45.90227818801852" lon="14.99820814941674"><ele>306.0</ele><time>2026-05-05T08:23:51Z</time></trkpt><trkpt lat="45.90216356936708" lon="14.998031594398762"><ele>306.0</ele><time>2026-05-05T08:23:52Z</time></trkpt><trkpt lat="45.9021433083968" lon="14.997823474256329"><ele>306.0</ele><time>2026-05-05T08:23:53Z</time></trkpt><trkpt lat="45.902139103602266" lon="14.997591844522702"><ele>306.0</ele><time>2026-05-05T08:23:54Z</time></trkpt><trkpt lat="45.90215266564463" lon="14.997352661669808"><ele>305.6666666666667</ele><time>2026-05-05T08:23:55Z</time></trkpt><trkpt lat="45.902139034252656" lon="14.997113936305439"><ele>305.33333333333337</ele><time>2026-05-05T08:23:56Z</time></trkpt><trkpt lat="45.9021154795789" lon="14.996883392320171"><ele>305.0</ele><time>2026-05-05T08:23:57Z</time></trkpt><trkpt lat="45.90204034564609" lon="14.996664781691118"><ele>304.6666666666667</ele><time>2026-05-05T08:23:58Z</time></trkpt><trkpt lat="45.90192960197118" lon="14.996460024806675"><ele>304.3333333333333</ele><time>2026-05-05T08:23:59Z</time></trkpt><trkpt lat="45.90179588466892" lon="14.996277144803303"><ele>304.0</ele><time>2026-05-05T08:24:00Z</time></trkpt><trkpt lat="45.90166558868266" lon="14.996102346858043"><ele>311.66666666666663</ele><time>2026-05-05T08:24:01Z</time></trkpt><trkpt lat="45.90156139967622" lon="14.99590790476469"><ele>319.3333333333333</ele><time>2026-05-05T08:24:02Z</time></trkpt><trkpt lat="45.90153358676976" lon="14.995661291305275"><ele>327.0</ele><time>2026-05-05T08:24:03Z</time></trkpt><trkpt lat="45.90153389921837" lon="14.995451964540042"><ele>328.0</ele><time>2026-05-05T08:24:04Z</time></trkpt><trkpt lat="45.90154876006873" lon="14.995204577260706"><ele>329.0</ele><time>2026-05-05T08:24:05Z</time></trkpt><trkpt lat="45.90155630888962" lon="14.994922105920208"><ele>330.0</ele><time>2026-05-05T08:24:06Z</time></trkpt><trkpt lat="45.901562162628615" lon="14.994633204508"><ele>332.6666666666667</ele><time>2026-05-05T08:24:07Z</time></trkpt><trkpt lat="45.90152052994859" lon="14.994339945599457"><ele>335.33333333333337</ele><time>2026-05-05T08:24:08Z</time></trkpt><trkpt lat="45.90145120852429" lon="14.99405083148381"><ele>338.0</ele><time>2026-05-05T08:24:09Z</time></trkpt><trkpt lat="45.90137586920458" lon="14.993745619630714"><ele>341.5</ele><time>2026-05-05T08:24:10Z</time></trkpt><trkpt lat="45.901317959294765" lon="14.99342803362091"><ele>345.0</ele><time>2026-05-05T08:24:11Z</time></trkpt><trkpt lat="45.90126713857981" lon="14.993096231692368"><ele>347.5</ele><time>2026-05-05T08:24:12Z</time></trkpt><trkpt lat="45.901224707457246" lon="14.992756090436178"><ele>350.0</ele><time>2026-05-05T08:24:13Z</time></trkpt><trkpt lat="45.90118475404299" lon="14.992427128944518"><ele>352.5</ele><time>2026-05-05T08:24:14Z</time></trkpt><trkpt lat="45.90117397684996" lon="14.992095983612087"><ele>355.0</ele><time>2026-05-05T08:24:15Z</time></trkpt><trkpt lat="45.90114547623032" lon="14.991768540976368"><ele>356.3333333333333</ele><time>2026-05-05T08:24:16Z</time></trkpt><trkpt lat="45.901118538904726" lon="14.991453152001208"><ele>357.6666666666667</ele><time>2026-05-05T08:24:17Z</time></trkpt><trkpt lat="45.90109456935506" lon="14.991156286351446"><ele>359.0</ele><time>2026-05-05T08:24:18Z</time></trkpt><trkpt lat="45.90107102363664" lon="14.990873279377235"><ele>361.6666666666667</ele><time>2026-05-05T08:24:19Z</time></trkpt><trkpt lat="45.90103205255163" lon="14.990607773700782"><ele>364.3333333333333</ele><time>2026-05-05T08:24:20Z</time></trkpt><trkpt lat="45.901016291591404" lon="14.990337327214629"><ele>367.0</ele><time>2026-05-05T08:24:21Z</time></trkpt><trkpt lat="45.90102803486712" lon="14.990076520726106"><ele>369.66666666666663</ele><time>2026-05-05T08:24:22Z</time></trkpt><trkpt lat="45.90104936170014" lon="14.98983856200619"><ele>372.3333333333333</ele><time>2026-05-05T08:24:23Z</time></trkpt><trkpt lat="45.901078600595504" lon="14.989598450321873"><ele>375.0</ele><time>2026-05-05T08:24:24Z</time></trkpt><trkpt lat="45.90110427254768" lon="14.989368959024134"><ele>377.0</ele><time>2026-05-05T08:24:25Z</time></trkpt><trkpt lat="45.901108882242426" lon="14.989141929155153"><ele>379.0</ele><time>2026-05-05T08:24:26Z</time></trkpt><trkpt lat="45.90111303625594" lon="14.98893330585073"><ele>381.0</ele><time>2026-05-05T08:24:27Z</time></trkpt><trkpt lat="45.9011120060466" lon="14.988745597349286"><ele>383.0</ele><time>2026-05-05T08:24:28Z</time></trkpt><trkpt lat="45.901084152568814" lon="14.988555489651363"><ele>383.0</ele><time>2026-05-05T08:24:29Z</time></trkpt><trkpt lat="45.90102762745693" lon="14.988367167749004"><ele>383.0</ele><time>2026-05-05T08:24:30Z</time></trkpt><trkpt lat="45.90096989666896" lon="14.988157560220177"><ele>383.0</ele><time>2026-05-05T08:24:31Z</time></trkpt><trkpt lat="45.90093666598217" lon="14.987926057838362"><ele>390.0</ele><time>2026-05-05T08:24:32Z</time></trkpt><trkpt lat="45.900887828981375" lon="14.987687618303026"><ele>397.0</ele><time>2026-05-05T08:24:33Z</time></trkpt><trkpt lat="45.900842481297644" lon="14.987458416284497"><ele>404.0</ele><time>2026-05-05T08:24:34Z</time></trkpt><trkpt lat="45.90078739020963" lon="14.98725288028336"><ele>405.0</ele><time>2026-05-05T08:24:35Z</time></trkpt><trkpt lat="45.90072473289161" lon="14.987050281324468"><ele>406.0</ele><time>2026-05-05T08:24:36Z</time></trkpt><trkpt lat="45.90063331434083" lon="14.986868380535656"><ele>407.0</ele><time>2026-05-05T08:24:37Z</time></trkpt><trkpt lat="45.90050698656363" lon="14.986700270720267"><ele>406.5</ele><time>2026-05-05T08:24:38Z</time></trkpt><trkpt lat="45.90034304947448" lon="14.98649953288104"><ele>406.0</ele><time>2026-05-05T08:24:39Z</time></trkpt><trkpt lat="45.900137394305126" lon="14.986302163918959"><ele>410.33333333333337</ele><time>2026-05-05T08:24:40Z</time></trkpt><trkpt lat="45.899955287943364" lon="14.98607576834274"><ele>414.66666666666663</ele><time>2026-05-05T08:24:41Z</time></trkpt><trkpt lat="45.89978683159921" lon="14.985919015494591"><ele>419.0</ele><time>2026-05-05T08:24:42Z</time></trkpt><trkpt lat="45.89959265737277" lon="14.985836742428363"><ele>419.0</ele><time>2026-05-05T08:24:43Z</time></trkpt><trkpt lat="45.89937488170205" lon="14.985813075980648"><ele>419.0</ele><time>2026-05-05T08:24:44Z</time></trkpt><trkpt lat="45.89911673615569" lon="14.985841224169764"><ele>424.0</ele><time>2026-05-05T08:24:45Z</time></trkpt><trkpt lat="45.89886091806152" lon="14.985835823761601"><ele>429.0</ele><time>2026-05-05T08:24:46Z</time></trkpt><trkpt lat="45.898644027939746" lon="14.98579898494467"><ele>429.0</ele><time>2026-05-05T08:24:47Z</time></trkpt><trkpt lat="45.89847134432684" lon="14.985726580733834"><ele>429.0</ele><time>2026-05-05T08:24:48Z</time></trkpt><trkpt lat="45.8983419309206" lon="14.985631543345047"><ele>429.0</ele><time>2026-05-05T08:24:49Z</time></trkpt><trkpt lat="45.89825641527315" lon="14.985512707436575"><ele>429.0</ele><time>2026-05-05T08:24:50Z</time></trkpt><trkpt lat="45.898236113606984" lon="14.9853673377008"><ele>429.2</ele><time>2026-05-05T08:24:51Z</time></trkpt><trkpt lat="45.898260143148846" lon="14.98523200055991"><ele>429.4</ele><time>2026-05-05T08:24:52Z</time></trkpt><trkpt lat="45.898319411951846" lon="14.985087847994985"><ele>429.6</ele><time>2026-05-05T08:24:53Z</time></trkpt><trkpt lat="45.898345864233484" lon="14.984932132284506"><ele>429.8</ele><time>2026-05-05T08:24:54Z</time></trkpt><trkpt lat="45.8983653278035" lon="14.984803265521109"><ele>430.0</ele><time>2026-05-05T08:24:55Z</time></trkpt><trkpt lat="45.89836207665667" lon="14.984678208918623"><ele>429.5</ele><time>2026-05-05T08:24:56Z</time></trkpt><trkpt lat="45.89832347686582" lon="14.984561748270293"><ele>429.0</ele><time>2026-05-05T08:24:57Z</time></trkpt><trkpt lat="45.8982421935932" lon="14.984444352794121"><ele>428.5</ele><time>2026-05-05T08:24:58Z</time></trkpt><trkpt lat="45.898129458410075" lon="14.98432044942174"><ele>428.0</ele><time>2026-05-05T08:24:59Z</time></trkpt><trkpt lat="45.89801147098278" lon="14.984204611061545"><ele>428.75</ele><time>2026-05-05T08:25:00Z</time></trkpt><trkpt lat="45.89789809072636" lon="14.984088863963871"><ele>429.5</ele><time>2026-05-05T08:25:01Z</time></trkpt><trkpt lat="45.89780735622662" lon="14.983957117640657"><ele>430.25</ele><time>2026-05-05T08:25:02Z</time></trkpt><trkpt lat="45.89772120666974" lon="14.983853454181721"><ele>431.0</ele><time>2026-05-05T08:25:03Z</time></trkpt><trkpt lat="45.8976392082755" lon="14.983771435902876"><ele>433.0</ele><time>2026-05-05T08:25:04Z</time></trkpt><trkpt lat="45.89756694413966" lon="14.983683710291924"><ele>435.0</ele><time>2026-05-05T08:25:05Z</time></trkpt><trkpt lat="45.897484114269176" lon="14.983607217048066"><ele>437.0</ele><time>2026-05-05T08:25:06Z</time></trkpt><trkpt lat="45.8973910590648" lon="14.983532608446932"><ele>439.0</ele><time>2026-05-05T08:25:07Z</time></trkpt><trkpt lat="45.89729808804279" lon="14.98346130406409"><ele>441.0</ele><time>2026-05-05T08:25:08Z</time></trkpt><trkpt lat="45.897201732961776" lon="14.98341403170184"><ele>441.0</ele><time>2026-05-05T08:25:09Z</time></trkpt><trkpt lat="45.89708710579182" lon="14.983400157941755"><ele>441.0</ele><time>2026-05-05T08:25:10Z</time></trkpt><trkpt lat="45.89696636090599" lon="14.983418587233798"><ele>441.0</ele><time>2026-05-05T08:25:11Z</time></trkpt><trkpt lat="45.896834498733995" lon="14.983404629119962"><ele>441.0</ele><time>2026-05-05T08:25:12Z</time></trkpt><trkpt lat="45.89669790760288" lon="14.983379338667786"><ele>439.5</ele><time>2026-05-05T08:25:13Z</time></trkpt><trkpt lat="45.896572795739665" lon="14.98329516247334"><ele>438.0</ele><time>2026-05-05T08:25:14Z</time></trkpt><trkpt lat="45.896450973325166" lon="14.983226092448017"><ele>436.5</ele><time>2026-05-05T08:25:15Z</time></trkpt><trkpt lat="45.89631597103861" lon="14.983172682010483"><ele>435.0</ele><time>2026-05-05T08:25:16Z</time></trkpt><trkpt lat="45.896188167260746" lon="14.983080161609614"><ele>435.0</ele><time>2026-05-05T08:25:17Z</time></trkpt><trkpt lat="45.896073645700774" lon="14.983013018857074"><ele>435.0</ele><time>2026-05-05T08:25:18Z</time></trkpt><trkpt lat="45.895980640075834" lon="14.982944960372338"><ele>435.0</ele><time>2026-05-05T08:25:19Z</time></trkpt><trkpt lat="45.89588442454261" lon="14.982848642965774"><ele>435.0</ele><time>2026-05-05T08:25:20Z</time></trkpt><trkpt lat="45.895778636986165" lon="14.982719616219317"><ele>434.25</ele><time>2026-05-05T08:25:21Z</time></trkpt><trkpt lat="45.8956489978239" lon="14.98262145134292"><ele>433.5</ele><time>2026-05-05T08:25:22Z</time></trkpt><trkpt lat="45.895524691181926" lon="14.982531845545152"><ele>432.75</ele><time>2026-05-05T08:25:23Z</time></trkpt><trkpt lat="45.89540577179021" lon="14.982451416179734"><ele>432.0</ele><time>2026-05-05T08:25:24Z</time></trkpt><trkpt lat="45.895300778989196" lon="14.982368731225014"><ele>432.0</ele><time>2026-05-05T08:25:25Z</time></trkpt><trkpt lat="45.895207116728365" lon="14.982289959662227"><ele>432.0</ele><time>2026-05-05T08:25:26Z</time></trkpt><trkpt lat="45.895105054476964" lon="14.982225743865204"><ele>432.0</ele><time>2026-05-05T08:25:27Z</time></trkpt><trkpt lat="45.89499106585411" lon="14.982185962355647"><ele>432.0</ele><time>2026-05-05T08:25:28Z</time></trkpt><trkpt lat="45.89486381785369" lon="14.982162332813191"><ele>433.5</ele><time>2026-05-05T08:25:29Z</time></trkpt><trkpt lat="45.89474170017855" lon="14.982144922997202"><ele>435.0</ele><time>2026-05-05T08:25:30Z</time></trkpt><trkpt lat="45.89462553886173" lon="14.982143074348716"><ele>436.5</ele><time>2026-05-05T08:25:31Z</time></trkpt><trkpt lat="45.89450958729297" lon="14.98216887526797"><ele>438.0</ele><time>2026-05-05T08:25:32Z</time></trkpt><trkpt lat="45.89440018726126" lon="14.98222319444294"><ele>438.0</ele><time>2026-05-05T08:25:33Z</time></trkpt><trkpt lat="45.89431193560983" lon="14.98229636864682"><ele>437.99999999999994</ele><time>2026-05-05T08:25:34Z</time></trkpt><trkpt lat="45.89421870961158" lon="14.982355095799651"><ele>437.99999999999994</ele><time>2026-05-05T08:25:35Z</time></trkpt><trkpt lat="45.89411589556954" lon="14.982373143876965"><ele>438.0</ele><time>2026-05-05T08:25:36Z</time></trkpt><trkpt lat="45.894019853357456" lon="14.982290802227595"><ele>438.0</ele><time>2026-05-05T08:25:37Z</time></trkpt><trkpt lat="45.893924555676726" lon="14.982217160203586"><ele>438.79999999999995</ele><time>2026-05-05T08:25:38Z</time></trkpt><trkpt lat="45.89382514050266" lon="14.982136235940247"><ele>439.59999999999997</ele><time>2026-05-05T08:25:39Z</time></trkpt><trkpt lat="45.89374249467839" lon="14.98204047147859"><ele>440.40000000000003</ele><time>2026-05-05T08:25:40Z</time></trkpt><trkpt lat="45.89368270422324" lon="14.98193672042899"><ele>441.20000000000005</ele><time>2026-05-05T08:25:41Z</time></trkpt><trkpt lat="45.893643845510276" lon="14.98181918091094"><ele>442.0</ele><time>2026-05-05T08:25:42Z</time></trkpt><trkpt lat="45.89359696887183" lon="14.981707528082099"><ele>440.20000000000005</ele><time>2026-05-05T08:25:43Z</time></trkpt><trkpt lat="45.893547045552324" lon="14.98159137386863"><ele>438.40000000000003</ele><time>2026-05-05T08:25:44Z</time></trkpt><trkpt lat="45.893465109432036" lon="14.981514011412655"><ele>436.59999999999997</ele><time>2026-05-05T08:25:45Z</time></trkpt><trkpt lat="45.89335100422271" lon="14.98148120602071"><ele>434.79999999999995</ele><time>2026-05-05T08:25:46Z</time></trkpt><trkpt lat="45.89322705187603" lon="14.981481186028539"><ele>433.0</ele><time>2026-05-05T08:25:47Z</time></trkpt><trkpt lat="45.89310334027597" lon="14.981477456136547"><ele>433.0</ele><time>2026-05-05T08:25:48Z</time></trkpt><trkpt lat="45.89297577952607" lon="14.981420861407647"><ele>433.0</ele><time>2026-05-05T08:25:49Z</time></trkpt><trkpt lat="45.89284434259772" lon="14.981403861662548"><ele>433.0</ele><time>2026-05-05T08:25:50Z</time></trkpt><trkpt lat="45.89271234153884" lon="14.981408777832332"><ele>433.0</ele><time>2026-05-05T08:25:51Z</time></trkpt><trkpt lat="45.89257940340368" lon="14.981421599261044"><ele>432.25</ele><time>2026-05-05T08:25:52Z</time></trkpt><trkpt lat="45.892454929394994" lon="14.981376947618156"><ele>431.5</ele><time>2026-05-05T08:25:53Z</time></trkpt><trkpt lat="45.89232538263967" lon="14.981378468609137"><ele>430.75</ele><time>2026-05-05T08:25:54Z</time></trkpt><trkpt lat="45.89218650313317" lon="14.98139176446184"><ele>430.0</ele><time>2026-05-05T08:25:55Z</time></trkpt><trkpt lat="45.8920436808213" lon="14.981408058283309"><ele>430.0</ele><time>2026-05-05T08:25:56Z</time></trkpt><trkpt lat="45.891906980796776" lon="14.981459648543291"><ele>430.0</ele><time>2026-05-05T08:25:57Z</time></trkpt><trkpt lat="45.89176763961227" lon="14.98154082861609"><ele>430.0</ele><time>2026-05-05T08:25:58Z</time></trkpt><trkpt lat="45.891649507065935" lon="14.981624603342686"><ele>430.0</ele><time>2026-05-05T08:25:59Z</time></trkpt><trkpt lat="45.89150064856467" lon="14.981682944031288"><ele>430.0</ele><time>2026-05-05T08:26:00Z</time></trkpt><trkpt lat="45.89135874371988" lon="14.981717120056219"><ele>430.0</ele><time>2026-05-05T08:26:01Z</time></trkpt><trkpt lat="45.891211779361136" lon="14.981741516618207"><ele>430.0</ele><time>2026-05-05T08:26:02Z</time></trkpt><trkpt lat="45.89107323331694" lon="14.98176093477379"><ele>430.0</ele><time>2026-05-05T08:26:03Z</time></trkpt><trkpt lat="45.89093292603255" lon="14.98178080355392"><ele>426.25</ele><time>2026-05-05T08:26:04Z</time></trkpt><trkpt lat="45.89078137434641" lon="14.981819224643736"><ele>422.5</ele><time>2026-05-05T08:26:05Z</time></trkpt><trkpt lat="45.89064261622809" lon="14.981866337140968"><ele>418.75</ele><time>2026-05-05T08:26:06Z</time></trkpt><trkpt lat="45.89049629239654" lon="14.981877407544689"><ele>415.0</ele><time>2026-05-05T08:26:07Z</time></trkpt><trkpt lat="45.89035630510946" lon="14.981834131791384"><ele>415.0</ele><time>2026-05-05T08:26:08Z</time></trkpt><trkpt lat="45.89021782991364" lon="14.981790026863255"><ele>415.0</ele><time>2026-05-05T08:26:09Z</time></trkpt><trkpt lat="45.89007636187743" lon="14.981819154867948"><ele>415.0</ele><time>2026-05-05T08:26:10Z</time></trkpt><trkpt lat="45.88993645305773" lon="14.981881350712088"><ele>415.0</ele><time>2026-05-05T08:26:11Z</time></trkpt><trkpt lat="45.88978349049196" lon="14.981892997790727"><ele>410.5</ele><time>2026-05-05T08:26:12Z</time></trkpt><trkpt lat="45.88963600947215" lon="14.98188190611346"><ele>406.0</ele><time>2026-05-05T08:26:13Z</time></trkpt><trkpt lat="45.8894909524252" lon="14.98187650876848"><ele>401.5</ele><time>2026-05-05T08:26:14Z</time></trkpt><trkpt lat="45.88935175757337" lon="14.9819093415472"><ele>397.0</ele><time>2026-05-05T08:26:15Z</time></trkpt><trkpt lat="45.88922055040888" lon="14.981952857890088"><ele>394.5</ele><time>2026-05-05T08:26:16Z</time></trkpt><trkpt lat="45.889100491885" lon="14.982005363473489"><ele>392.0</ele><time>2026-05-05T08:26:17Z</time></trkpt><trkpt lat="45.88897487564863" lon="14.982027079965508"><ele>389.5</ele><time>2026-05-05T08:26:18Z</time></trkpt><trkpt lat="45.88884827484616" lon="14.981992776319272"><ele>387.0</ele><time>2026-05-05T08:26:19Z</time></trkpt><trkpt lat="45.88872638635434" lon="14.9819240667982"><ele>387.0</ele><time>2026-05-05T08:26:20Z</time></trkpt><trkpt lat="45.88861685965855" lon="14.981824327695982"><ele>387.0</ele><time>2026-05-05T08:26:21Z</time></trkpt><trkpt lat="45.88850132971564" lon="14.981735486284592"><ele>387.0</ele><time>2026-05-05T08:26:22Z</time></trkpt><trkpt lat="45.88839198626919" lon="14.981666169574549"><ele>387.0</ele><time>2026-05-05T08:26:23Z</time></trkpt><trkpt lat="45.88826929855175" lon="14.981610826911835"><ele>383.0</ele><time>2026-05-05T08:26:24Z</time></trkpt><trkpt lat="45.888142005727836" lon="14.981558171905975"><ele>379.0</ele><time>2026-05-05T08:26:25Z</time></trkpt><trkpt lat="45.88802256168137" lon="14.981518802478567"><ele>375.0</ele><time>2026-05-05T08:26:26Z</time></trkpt><trkpt lat="45.88791240657335" lon="14.981457569650182"><ele>371.0</ele><time>2026-05-05T08:26:27Z</time></trkpt><trkpt lat="45.88781226347278" lon="14.981383819025773"><ele>371.0</ele><time>2026-05-05T08:26:28Z</time></trkpt><trkpt lat="45.88770706804644" lon="14.981302074362036"><ele>371.0</ele><time>2026-05-05T08:26:29Z</time></trkpt><trkpt lat="45.88760525209826" lon="14.981217016081477"><ele>371.0</ele><time>2026-05-05T08:26:30Z</time></trkpt><trkpt lat="45.88750693594221" lon="14.981141366536553"><ele>371.0</ele><time>2026-05-05T08:26:31Z</time></trkpt><trkpt lat="45.88741207757267" lon="14.981070734326142"><ele>370.20000000000005</ele><time>2026-05-05T08:26:32Z</time></trkpt><trkpt lat="45.887321245310794" lon="14.98099989054954"><ele>369.40000000000003</ele><time>2026-05-05T08:26:33Z</time></trkpt><trkpt lat="45.88722957177374" lon="14.980926275753227"><ele>368.6</ele><time>2026-05-05T08:26:34Z</time></trkpt><trkpt lat="45.887138978246675" lon="14.980840417978587"><ele>367.8</ele><time>2026-05-05T08:26:35Z</time></trkpt><trkpt lat="45.88705868495657" lon="14.980731905713942"><ele>367.0</ele><time>2026-05-05T08:26:36Z</time></trkpt><trkpt lat="45.88698137318862" lon="14.980611034254837"><ele>363.5</ele><time>2026-05-05T08:26:37Z</time></trkpt><trkpt lat="45.886894142703994" lon="14.980504648883059"><ele>360.0</ele><time>2026-05-05T08:26:38Z</time></trkpt><trkpt lat="45.88679407154001" lon="14.980428044140817"><ele>356.5</ele><time>2026-05-05T08:26:39Z</time></trkpt><trkpt lat="45.88668853101045" lon="14.980351388948215"><ele>353.0</ele><time>2026-05-05T08:26:40Z</time></trkpt><trkpt lat="45.88658912421775" lon="14.980290369061334"><ele>353.0</ele><time>2026-05-05T08:26:41Z</time></trkpt><trkpt lat="45.88650479920766" lon="14.980161016847036"><ele>353.0</ele><time>2026-05-05T08:26:42Z</time></trkpt><trkpt lat="45.886408999179615" lon="14.980079217401002"><ele>353.0</ele><time>2026-05-05T08:26:43Z</time></trkpt><trkpt lat="45.88631945501143" lon="14.979994423556803"><ele>353.0</ele><time>2026-05-05T08:26:44Z</time></trkpt><trkpt lat="45.886218921074416" lon="14.97992247179364"><ele>347.5</ele><time>2026-05-05T08:26:45Z</time></trkpt><trkpt lat="45.88611133080611" lon="14.979858977807341"><ele>342.0</ele><time>2026-05-05T08:26:46Z</time></trkpt><trkpt lat="45.88599559487247" lon="14.979807293000853"><ele>336.5</ele><time>2026-05-05T08:26:47Z</time></trkpt><trkpt lat="45.88588019565988" lon="14.979752578240685"><ele>331.0</ele><time>2026-05-05T08:26:48Z</time></trkpt><trkpt lat="45.8857561198097" lon="14.979672743869683"><ele>330.3333333333333</ele><time>2026-05-05T08:26:49Z</time></trkpt><trkpt lat="45.88560738517739" lon="14.979631501664533"><ele>329.6666666666667</ele><time>2026-05-05T08:26:50Z</time></trkpt><trkpt lat="45.88546176780638" lon="14.979563260810474"><ele>329.0</ele><time>2026-05-05T08:26:51Z</time></trkpt><trkpt lat="45.88530953449562" lon="14.97952631570692"><ele>329.0</ele><time>2026-05-05T08:26:52Z</time></trkpt><trkpt lat="45.88516284987994" lon="14.979501618803756"><ele>329.0</ele><time>2026-05-05T08:26:53Z</time></trkpt><trkpt lat="45.8850094258176" lon="14.979447052082914"><ele>329.0</ele><time>2026-05-05T08:26:54Z</time></trkpt><trkpt lat="45.88484798026714" lon="14.97942002295588"><ele>327.33333333333337</ele><time>2026-05-05T08:26:55Z</time></trkpt><trkpt lat="45.8846827885779" lon="14.979433149325398"><ele>325.6666666666667</ele><time>2026-05-05T08:26:56Z</time></trkpt><trkpt lat="45.88453351002881" lon="14.979458169102422"><ele>324.0</ele><time>2026-05-05T08:26:57Z</time></trkpt><trkpt lat="45.88437026859366" lon="14.979526621260591"><ele>319.0</ele><time>2026-05-05T08:26:58Z</time></trkpt><trkpt lat="45.884219929639386" lon="14.979577978696764"><ele>314.0</ele><time>2026-05-05T08:26:59Z</time></trkpt><trkpt lat="45.88406740790779" lon="14.979614987242996"><ele>309.0</ele><time>2026-05-05T08:27:00Z</time></trkpt><trkpt lat="45.88390915134938" lon="14.97968912137895"><ele>309.0</ele><time>2026-05-05T08:27:01Z</time></trkpt><trkpt lat="45.88376926697802" lon="14.979726281355886"><ele>309.0</ele><time>2026-05-05T08:27:02Z</time></trkpt><trkpt lat="45.88358773407167" lon="14.979759446885392"><ele>309.0</ele><time>2026-05-05T08:27:03Z</time></trkpt><trkpt lat="45.88341925246236" lon="14.979731762072957"><ele>302.3333333333333</ele><time>2026-05-05T08:27:04Z</time></trkpt><trkpt lat="45.88325762310955" lon="14.979754152142942"><ele>295.66666666666663</ele><time>2026-05-05T08:27:05Z</time></trkpt><trkpt lat="45.88309682750671" lon="14.979779435156876"><ele>289.0</ele><time>2026-05-05T08:27:06Z</time></trkpt><trkpt lat="45.882942592606746" lon="14.9798053162343"><ele>289.0</ele><time>2026-05-05T08:27:07Z</time></trkpt><trkpt lat="45.8827775471707" lon="14.97980631451426"><ele>289.0</ele><time>2026-05-05T08:27:08Z</time></trkpt><trkpt lat="45.88261890444939" lon="14.979771808167888"><ele>289.0</ele><time>2026-05-05T08:27:09Z</time></trkpt><trkpt lat="45.88248296524951" lon="14.979670348043452"><ele>286.75</ele><time>2026-05-05T08:27:10Z</time></trkpt><trkpt lat="45.882367051683445" lon="14.97955046618107"><ele>284.5</ele><time>2026-05-05T08:27:11Z</time></trkpt><trkpt lat="45.8822510420628" lon="14.979408548405923"><ele>282.25</ele><time>2026-05-05T08:27:12Z</time></trkpt><trkpt lat="45.88213581653758" lon="14.979279985246075"><ele>280.0</ele><time>2026-05-05T08:27:13Z</time></trkpt><trkpt lat="45.88204602270318" lon="14.979130283239563"><ele>278.75</ele><time>2026-05-05T08:27:14Z</time></trkpt><trkpt lat="45.882003088606474" lon="14.97894405844452"><ele>277.5</ele><time>2026-05-05T08:27:15Z</time></trkpt><trkpt lat="45.8819378383264" lon="14.978776121341028"><ele>276.25</ele><time>2026-05-05T08:27:16Z</time></trkpt><trkpt lat="45.88188638403458" lon="14.978597364618565"><ele>275.0</ele><time>2026-05-05T08:27:17Z</time></trkpt><trkpt lat="45.881829889678194" lon="14.97843511088922"><ele>274.0</ele><time>2026-05-05T08:27:18Z</time></trkpt><trkpt lat="45.88176359712522" lon="14.97827683706564"><ele>273.0</ele><time>2026-05-05T08:27:19Z</time></trkpt><trkpt lat="45.88168461364376" lon="14.978121193373486"><ele>272.0</ele><time>2026-05-05T08:27:20Z</time></trkpt><trkpt lat="45.88159290003572" lon="14.977978082002645"><ele>271.0</ele><time>2026-05-05T08:27:21Z</time></trkpt><trkpt lat="45.88149058619444" lon="14.977861324512963"><ele>271.0</ele><time>2026-05-05T08:27:22Z</time></trkpt><trkpt lat="45.88138313312836" lon="14.977761841979422"><ele>271.0</ele><time>2026-05-05T08:27:23Z</time></trkpt><trkpt lat="45.881307193531306" lon="14.977633495657683"><ele>271.0</ele><time>2026-05-05T08:27:24Z</time></trkpt><trkpt lat="45.88123651905484" lon="14.977480756949008"><ele>271.0</ele><time>2026-05-05T08:27:25Z</time></trkpt><trkpt lat="45.88114857504057" lon="14.977341380839006"><ele>269.0</ele><time>2026-05-05T08:27:26Z</time></trkpt><trkpt lat="45.88105864046783" lon="14.97720123849751"><ele>267.0</ele><time>2026-05-05T08:27:27Z</time></trkpt><trkpt lat="45.88097481134167" lon="14.977071638448704"><ele>265.0</ele><time>2026-05-05T08:27:28Z</time></trkpt><trkpt lat="45.880899791715464" lon="14.97695624532137"><ele>263.0</ele><time>2026-05-05T08:27:29Z</time></trkpt><trkpt lat="45.880807945305804" lon="14.976853263452313"><ele>263.0</ele><time>2026-05-05T08:27:30Z</time></trkpt><trkpt lat="45.88070377610641" lon="14.97676731170558"><ele>263.0</ele><time>2026-05-05T08:27:31Z</time></trkpt><trkpt lat="45.880599734448595" lon="14.976691284942625"><ele>263.0</ele><time>2026-05-05T08:27:32Z</time></trkpt><trkpt lat="45.88049420208783" lon="14.976619949959172"><ele>263.0</ele><time>2026-05-05T08:27:33Z</time></trkpt><trkpt lat="45.88038463614945" lon="14.976554489918414"><ele>260.0</ele><time>2026-05-05T08:27:34Z</time></trkpt><trkpt lat="45.880272324242576" lon="14.976506508042148"><ele>257.0</ele><time>2026-05-05T08:27:35Z</time></trkpt><trkpt lat="45.88016357627161" lon="14.976471621521265"><ele>254.0</ele><time>2026-05-05T08:27:36Z</time></trkpt><trkpt lat="45.88006041216047" lon="14.976440999865684"><ele>251.0</ele><time>2026-05-05T08:27:37Z</time></trkpt><trkpt lat="45.87995522003182" lon="14.97641748848186"><ele>248.0</ele><time>2026-05-05T08:27:38Z</time></trkpt><trkpt lat="45.87985392494062" lon="14.976425695674035"><ele>247.50000000000003</ele><time>2026-05-05T08:27:39Z</time></trkpt><trkpt lat="45.87976090885641" lon="14.976456785157007"><ele>247.0</ele><time>2026-05-05T08:27:40Z</time></trkpt><trkpt lat="45.87967793019334" lon="14.976489467609362"><ele>246.5</ele><time>2026-05-05T08:27:41Z</time></trkpt><trkpt lat="45.87960073282651" lon="14.976514277075033"><ele>246.0</ele><time>2026-05-05T08:27:42Z</time></trkpt><trkpt lat="45.87952103545044" lon="14.976515015584168"><ele>245.50000000000003</ele><time>2026-05-05T08:27:43Z</time></trkpt><trkpt lat="45.8794341907935" lon="14.97657194334144"><ele>245.0</ele><time>2026-05-05T08:27:44Z</time></trkpt><trkpt lat="45.8793384901192" lon="14.9766292970796"><ele>246.25</ele><time>2026-05-05T08:27:45Z</time></trkpt><trkpt lat="45.87922840845401" lon="14.976703012627677"><ele>247.5</ele><time>2026-05-05T08:27:46Z</time></trkpt><trkpt lat="45.87911175599156" lon="14.976784197362498"><ele>248.75</ele><time>2026-05-05T08:27:47Z</time></trkpt><trkpt lat="45.87898996481668" lon="14.976852403865317"><ele>250.0</ele><time>2026-05-05T08:27:48Z</time></trkpt><trkpt lat="45.87891391923573" lon="14.976879257172797"><ele>249.99999999999997</ele><time>2026-05-05T08:27:49Z</time></trkpt><trkpt lat="45.878846954973106" lon="14.976950190212927"><ele>250.0</ele><time>2026-05-05T08:27:50Z</time></trkpt><trkpt lat="45.878749575457704" lon="14.977029015107528"><ele>250.0</ele><time>2026-05-05T08:27:52Z</time></trkpt><trkpt lat="45.878681283675405" lon="14.977033396172594"><ele>250.0</ele><time>2026-05-05T08:27:53Z</time></trkpt><trkpt lat="45.87860898656397" lon="14.976975020133068"><ele>249.99999999999997</ele><time>2026-05-05T08:27:54Z</time></trkpt><trkpt lat="45.87852373497272" lon="14.976962638576715"><ele>250.0</ele><time>2026-05-05T08:27:55Z</time></trkpt><trkpt lat="45.87843909625747" lon="14.976925808270037"><ele>249.6</ele><time>2026-05-05T08:27:56Z</time></trkpt><trkpt lat="45.87834549614928" lon="14.976911513129023"><ele>249.2</ele><time>2026-05-05T08:27:57Z</time></trkpt><trkpt lat="45.87824452220021" lon="14.976905516082137"><ele>248.8</ele><time>2026-05-05T08:27:58Z</time></trkpt><trkpt lat="45.87813658241486" lon="14.976907846947155"><ele>248.4</ele><time>2026-05-05T08:27:59Z</time></trkpt><trkpt lat="45.87802490070201" lon="14.976921014068616"><ele>248.0</ele><time>2026-05-05T08:28:00Z</time></trkpt><trkpt lat="45.87790957474326" lon="14.976947739338176"><ele>248.0</ele><time>2026-05-05T08:28:01Z</time></trkpt><trkpt lat="45.87779441184301" lon="14.976973701261747"><ele>248.0</ele><time>2026-05-05T08:28:02Z</time></trkpt><trkpt lat="45.87768279649405" lon="14.976994317572718"><ele>248.0</ele><time>2026-05-05T08:28:03Z</time></trkpt><trkpt lat="45.8775737296275" lon="14.977010633258875"><ele>248.0</ele><time>2026-05-05T08:28:04Z</time></trkpt><trkpt lat="45.877470834642374" lon="14.977020655541379"><ele>248.0</ele><time>2026-05-05T08:28:05Z</time></trkpt><trkpt lat="45.87737557942637" lon="14.977028019641281"><ele>247.16666666666669</ele><time>2026-05-05T08:28:06Z</time></trkpt><trkpt lat="45.87728404514412" lon="14.977039542903507"><ele>246.33333333333334</ele><time>2026-05-05T08:28:07Z</time></trkpt><trkpt lat="45.87720089308622" lon="14.977055895834745"><ele>245.5</ele><time>2026-05-05T08:28:08Z</time></trkpt><trkpt lat="45.87713415714058" lon="14.977076241403989"><ele>244.66666666666669</ele><time>2026-05-05T08:28:09Z</time></trkpt><trkpt lat="45.877053664119885" lon="14.977074869977002"><ele>243.83333333333334</ele><time>2026-05-05T08:28:11Z</time></trkpt><trkpt lat="45.876949025204915" lon="14.977034547956091"><ele>243.0</ele><time>2026-05-05T08:28:15Z</time></trkpt><trkpt lat="45.876870286232005" lon="14.977199899570834"><ele>243.0</ele><time>2026-05-05T08:28:16Z</time></trkpt><trkpt lat="45.876791454228815" lon="14.977269234654297"><ele>243.0</ele><time>2026-05-05T08:28:17Z</time></trkpt><trkpt lat="45.876696294493314" lon="14.977332055583073"><ele>243.0</ele><time>2026-05-05T08:28:18Z</time></trkpt><trkpt lat="45.8766082459963" lon="14.977396273520352"><ele>243.0</ele><time>2026-05-05T08:28:19Z</time></trkpt><trkpt lat="45.8765410841336" lon="14.977450181257563"><ele>243.0</ele><time>2026-05-05T08:28:20Z</time></trkpt><trkpt lat="45.87648335464604" lon="14.977496263224928"><ele>243.0</ele><time>2026-05-05T08:28:21Z</time></trkpt><trkpt lat="45.87636250927214" lon="14.977519370404039"><ele>242.60000000000002</ele><time>2026-05-05T08:28:23Z</time></trkpt><trkpt lat="45.87630528223492" lon="14.977477162023828"><ele>242.20000000000002</ele><time>2026-05-05T08:28:24Z</time></trkpt><trkpt lat="45.87627071147608" lon="14.977371183568254"><ele>241.8</ele><time>2026-05-05T08:28:25Z</time></trkpt><trkpt lat="45.876247447027446" lon="14.977235028166975"><ele>241.4</ele><time>2026-05-05T08:28:26Z</time></trkpt><trkpt lat="45.87621288091782" lon="14.977090472228355"><ele>241.0</ele><time>2026-05-05T08:28:27Z</time></trkpt><trkpt lat="45.87617661077242" lon="14.976920245993083"><ele>241.0</ele><time>2026-05-05T08:28:28Z</time></trkpt><trkpt lat="45.876141053334905" lon="14.976744539654321"><ele>241.0</ele><time>2026-05-05T08:28:29Z</time></trkpt><trkpt lat="45.87610740514931" lon="14.976578687574921"><ele>241.0</ele><time>2026-05-05T08:28:30Z</time></trkpt><trkpt lat="45.87606729022764" lon="14.976431437548134"><ele>241.0</ele><time>2026-05-05T08:28:31Z</time></trkpt><trkpt lat="45.87601715629023" lon="14.976294361520614"><ele>240.33333333333331</ele><time>2026-05-05T08:28:32Z</time></trkpt><trkpt lat="45.875876704989494" lon="14.976026863628674"><ele>239.66666666666669</ele><time>2026-05-05T08:28:34Z</time></trkpt><trkpt lat="45.875789812383104" lon="14.97589801266685"><ele>239.0</ele><time>2026-05-05T08:28:35Z</time></trkpt><trkpt lat="45.87569575921913" lon="14.9757709487563"><ele>238.0</ele><time>2026-05-05T08:28:36Z</time></trkpt><trkpt lat="45.87559403447849" lon="14.975636842701215"><ele>237.0</ele><time>2026-05-05T08:28:37Z</time></trkpt><trkpt lat="45.87548905479214" lon="14.975493457549435"><ele>236.0</ele><time>2026-05-05T08:28:38Z</time></trkpt><trkpt lat="45.875384359307134" lon="14.975342412911079"><ele>235.0</ele><time>2026-05-05T08:28:39Z</time></trkpt><trkpt lat="45.875282555262146" lon="14.975185357469112"><ele>235.0</ele><time>2026-05-05T08:28:40Z</time></trkpt><trkpt lat="45.87518221071793" lon="14.97502405819902"><ele>235.0</ele><time>2026-05-05T08:28:41Z</time></trkpt><trkpt lat="45.87507811101426" lon="14.97485489069879"><ele>235.0</ele><time>2026-05-05T08:28:42Z</time></trkpt><trkpt lat="45.87497124814117" lon="14.974679632087776"><ele>235.0</ele><time>2026-05-05T08:28:43Z</time></trkpt><trkpt lat="45.87486203437325" lon="14.974492940872652"><ele>235.0</ele><time>2026-05-05T08:28:44Z</time></trkpt><trkpt lat="45.87475142839952" lon="14.974298280743877"><ele>235.0</ele><time>2026-05-05T08:28:45Z</time></trkpt><trkpt lat="45.87463462351903" lon="14.974094668632727"><ele>234.66666666666666</ele><time>2026-05-05T08:28:46Z</time></trkpt><trkpt lat="45.87451308737854" lon="14.973892805155842"><ele>234.33333333333331</ele><time>2026-05-05T08:28:47Z</time></trkpt><trkpt lat="45.874377790483685" lon="14.973694210434907"><ele>234.0</ele><time>2026-05-05T08:28:48Z</time></trkpt><trkpt lat="45.87422813727139" lon="14.973508971713768"><ele>233.33333333333331</ele><time>2026-05-05T08:28:49Z</time></trkpt><trkpt lat="45.874061596902365" lon="14.973343246802298"><ele>232.66666666666666</ele><time>2026-05-05T08:28:50Z</time></trkpt><trkpt lat="45.873882017541504" lon="14.973200215162938"><ele>232.0</ele><time>2026-05-05T08:28:51Z</time></trkpt><trkpt lat="45.87369507833476" lon="14.973075207447156"><ele>232.0</ele><time>2026-05-05T08:28:52Z</time></trkpt><trkpt lat="45.87351034994057" lon="14.972968557183417"><ele>232.0</ele><time>2026-05-05T08:28:53Z</time></trkpt><trkpt lat="45.873326292811186" lon="14.972888749574574"><ele>232.0</ele><time>2026-05-05T08:28:54Z</time></trkpt><trkpt lat="45.87313772137044" lon="14.972846197844436"><ele>232.33333333333331</ele><time>2026-05-05T08:28:55Z</time></trkpt><trkpt lat="45.87295948738681" lon="14.972837185873976"><ele>232.66666666666669</ele><time>2026-05-05T08:28:56Z</time></trkpt><trkpt lat="45.872792814081485" lon="14.972835537444656"><ele>233.0</ele><time>2026-05-05T08:28:57Z</time></trkpt><trkpt lat="45.87263844940848" lon="14.972833014857471"><ele>233.5</ele><time>2026-05-05T08:28:58Z</time></trkpt><trkpt lat="45.87249338957285" lon="14.97282746458932"><ele>234.0</ele><time>2026-05-05T08:28:59Z</time></trkpt><trkpt lat="45.87236035067438" lon="14.972819754148164"><ele>234.5</ele><time>2026-05-05T08:29:00Z</time></trkpt><trkpt lat="45.87223272897206" lon="14.972801226153443"><ele>235.0</ele><time>2026-05-05T08:29:01Z</time></trkpt><trkpt lat="45.87212297314601" lon="14.972721270845554"><ele>235.0</ele><time>2026-05-05T08:29:02Z</time></trkpt><trkpt lat="45.87203044441365" lon="14.97260547698066"><ele>235.0</ele><time>2026-05-05T08:29:03Z</time></trkpt><trkpt lat="45.87198119482847" lon="14.972433317800457"><ele>235.0</ele><time>2026-05-05T08:29:04Z</time></trkpt><trkpt lat="45.871943589920676" lon="14.972248025161662"><ele>235.0</ele><time>2026-05-05T08:29:05Z</time></trkpt><trkpt lat="45.87189593126936" lon="14.97205935884946"><ele>235.0</ele><time>2026-05-05T08:29:06Z</time></trkpt><trkpt lat="45.87186115437925" lon="14.971861700421067"><ele>235.0</ele><time>2026-05-05T08:29:07Z</time></trkpt><trkpt lat="45.871829146814854" lon="14.971697661054609"><ele>235.0</ele><time>2026-05-05T08:29:08Z</time></trkpt><trkpt lat="45.871752570918844" lon="14.97152533386243"><ele>235.0</ele><time>2026-05-05T08:29:09Z</time></trkpt><trkpt lat="45.871686867381186" lon="14.971355438545256"><ele>236.0</ele><time>2026-05-05T08:29:10Z</time></trkpt><trkpt lat="45.871615726682876" lon="14.971191568517947"><ele>237.0</ele><time>2026-05-05T08:29:11Z</time></trkpt><trkpt lat="45.871531267941705" lon="14.97103594022388"><ele>238.0</ele><time>2026-05-05T08:29:12Z</time></trkpt><trkpt lat="45.87142992199714" lon="14.970892972454848"><ele>239.0</ele><time>2026-05-05T08:29:13Z</time></trkpt><trkpt lat="45.87131920567243" lon="14.970762859718155"><ele>239.0</ele><time>2026-05-05T08:29:14Z</time></trkpt><trkpt lat="45.87119468739838" lon="14.970647941387739"><ele>239.0</ele><time>2026-05-05T08:29:15Z</time></trkpt><trkpt lat="45.87106647799145" lon="14.970548681750428"><ele>239.0</ele><time>2026-05-05T08:29:16Z</time></trkpt><trkpt lat="45.8709384728136" lon="14.970470573365134"><ele>239.0</ele><time>2026-05-05T08:29:17Z</time></trkpt><trkpt lat="45.87081119236397" lon="14.970388179702532"><ele>240.25</ele><time>2026-05-05T08:29:18Z</time></trkpt><trkpt lat="45.87068871430614" lon="14.97028408622368"><ele>241.5</ele><time>2026-05-05T08:29:19Z</time></trkpt><trkpt lat="45.87061156309255" lon="14.970120043002401"><ele>242.75</ele><time>2026-05-05T08:29:20Z</time></trkpt><trkpt lat="45.87052897440704" lon="14.969980910917439"><ele>244.0</ele><time>2026-05-05T08:29:21Z</time></trkpt><trkpt lat="45.8704374724512" lon="14.96988459912507"><ele>244.0</ele><time>2026-05-05T08:29:22Z</time></trkpt><trkpt lat="45.87035458191282" lon="14.96979541139499"><ele>244.0</ele><time>2026-05-05T08:29:23Z</time></trkpt><trkpt lat="45.870253227936686" lon="14.969726151975514"><ele>244.0</ele><time>2026-05-05T08:29:24Z</time></trkpt><trkpt lat="45.87013061395876" lon="14.969683621866645"><ele>244.0</ele><time>2026-05-05T08:29:25Z</time></trkpt><trkpt lat="45.87000202675659" lon="14.969657072479809"><ele>248.25</ele><time>2026-05-05T08:29:26Z</time></trkpt><trkpt lat="45.8698703175705" lon="14.969645412574858"><ele>252.5</ele><time>2026-05-05T08:29:27Z</time></trkpt><trkpt lat="45.8697425167405" lon="14.969648802424105"><ele>256.75</ele><time>2026-05-05T08:29:28Z</time></trkpt><trkpt lat="45.86961451983464" lon="14.969661490366969"><ele>261.0</ele><time>2026-05-05T08:29:29Z</time></trkpt><trkpt lat="45.869494261694655" lon="14.969688466736146"><ele>261.0</ele><time>2026-05-05T08:29:30Z</time></trkpt><trkpt lat="45.86937423317473" lon="14.969732602876634"><ele>261.0</ele><time>2026-05-05T08:29:31Z</time></trkpt><trkpt lat="45.869245480302" lon="14.969811300810736"><ele>261.0</ele><time>2026-05-05T08:29:32Z</time></trkpt><trkpt lat="45.86910898151548" lon="14.969953824952729"><ele>261.0</ele><time>2026-05-05T08:29:33Z</time></trkpt><trkpt lat="45.86898353153393" lon="14.970087722959772"><ele>263.0</ele><time>2026-05-05T08:29:34Z</time></trkpt><trkpt lat="45.8688671642774" lon="14.970220760122677"><ele>265.0</ele><time>2026-05-05T08:29:35Z</time></trkpt><trkpt lat="45.86875682278181" lon="14.970341662880848"><ele>267.0</ele><time>2026-05-05T08:29:36Z</time></trkpt><trkpt lat="45.868643182155296" lon="14.970441653148571"><ele>269.0</ele><time>2026-05-05T08:29:37Z</time></trkpt><trkpt lat="45.86851897630014" lon="14.970518395473652"><ele>264.6666666666667</ele><time>2026-05-05T08:29:38Z</time></trkpt><trkpt lat="45.868384092109004" lon="14.970568534163347"><ele>260.3333333333333</ele><time>2026-05-05T08:29:39Z</time></trkpt><trkpt lat="45.86823353862447" lon="14.970604688314653"><ele>256.0</ele><time>2026-05-05T08:29:40Z</time></trkpt><trkpt lat="45.868070543645636" lon="14.970627338664647"><ele>256.0</ele><time>2026-05-05T08:29:41Z</time></trkpt><trkpt lat="45.867901769481065" lon="14.97065624888873"><ele>256.0</ele><time>2026-05-05T08:29:42Z</time></trkpt><trkpt lat="45.86772676299892" lon="14.970685114146262"><ele>256.0</ele><time>2026-05-05T08:29:43Z</time></trkpt><trkpt lat="45.86755855222637" lon="14.970707980883846"><ele>254.33333333333331</ele><time>2026-05-05T08:29:44Z</time></trkpt><trkpt lat="45.86739350239074" lon="14.970721550856714"><ele>252.66666666666669</ele><time>2026-05-05T08:29:45Z</time></trkpt><trkpt lat="45.86720919572396" lon="14.970728998713556"><ele>251.0</ele><time>2026-05-05T08:29:46Z</time></trkpt><trkpt lat="45.8670073506251" lon="14.970735619771661"><ele>251.0</ele><time>2026-05-05T08:29:47Z</time></trkpt><trkpt lat="45.866778085931195" lon="14.97069544554198"><ele>251.0</ele><time>2026-05-05T08:29:48Z</time></trkpt><trkpt lat="45.86652376364126" lon="14.970656598802526"><ele>248.5</ele><time>2026-05-05T08:29:49Z</time></trkpt><trkpt lat="45.86624711954307" lon="14.970628208057903"><ele>246.0</ele><time>2026-05-05T08:29:50Z</time></trkpt><trkpt lat="45.86597429171618" lon="14.97061254939602"><ele>244.5</ele><time>2026-05-05T08:29:51Z</time></trkpt><trkpt lat="45.865697911168986" lon="14.970610153577548"><ele>243.0</ele><time>2026-05-05T08:29:52Z</time></trkpt><trkpt lat="45.86540313811955" lon="14.970641154929412"><ele>242.5</ele><time>2026-05-05T08:29:53Z</time></trkpt><trkpt lat="45.86510464795483" lon="14.970697856579116"><ele>242.0</ele><time>2026-05-05T08:29:54Z</time></trkpt><trkpt lat="45.864839053254755" lon="14.97075717323659"><ele>242.0</ele><time>2026-05-05T08:29:55Z</time></trkpt><trkpt lat="45.8645967589501" lon="14.97081565167295"><ele>242.0</ele><time>2026-05-05T08:29:56Z</time></trkpt><trkpt lat="45.864366877461165" lon="14.970883930207137"><ele>240.66666666666669</ele><time>2026-05-05T08:29:57Z</time></trkpt><trkpt lat="45.86415549616644" lon="14.970964177379606"><ele>239.33333333333331</ele><time>2026-05-05T08:29:58Z</time></trkpt><trkpt lat="45.863955442395046" lon="14.971044884944465"><ele>238.0</ele><time>2026-05-05T08:29:59Z</time></trkpt><trkpt lat="45.86377148758073" lon="14.971113408585778"><ele>238.0</ele><time>2026-05-05T08:30:00Z</time></trkpt><trkpt lat="45.86359353223732" lon="14.971173942826358"><ele>238.0</ele><time>2026-05-05T08:30:01Z</time></trkpt><trkpt lat="45.86342357261663" lon="14.971232146260736"><ele>238.0</ele><time>2026-05-05T08:30:02Z</time></trkpt><trkpt lat="45.86325095415055" lon="14.971295267125322"><ele>238.0</ele><time>2026-05-05T08:30:03Z</time></trkpt><trkpt lat="45.86307621780052" lon="14.971364664425462"><ele>238.0</ele><time>2026-05-05T08:30:04Z</time></trkpt><trkpt lat="45.86290510384588" lon="14.97143892352517"><ele>238.0</ele><time>2026-05-05T08:30:05Z</time></trkpt><trkpt lat="45.86274633868692" lon="14.97150564684245"><ele>239.25</ele><time>2026-05-05T08:30:06Z</time></trkpt><trkpt lat="45.86259929923679" lon="14.971552656976316"><ele>240.5</ele><time>2026-05-05T08:30:07Z</time></trkpt><trkpt lat="45.86246530657505" lon="14.971574411300848"><ele>241.75</ele><time>2026-05-05T08:30:08Z</time></trkpt><trkpt lat="45.86233508257141" lon="14.971564863355937"><ele>243.0</ele><time>2026-05-05T08:30:09Z</time></trkpt><trkpt lat="45.86220902318866" lon="14.971522441625247"><ele>243.0</ele><time>2026-05-05T08:30:10Z</time></trkpt><trkpt lat="45.86207762293854" lon="14.971462302422449"><ele>243.0</ele><time>2026-05-05T08:30:11Z</time></trkpt><trkpt lat="45.86194027107238" lon="14.97139863786668"><ele>243.0</ele><time>2026-05-05T08:30:12Z</time></trkpt><trkpt lat="45.861789974243834" lon="14.971338131788508"><ele>243.0</ele><time>2026-05-05T08:30:13Z</time></trkpt><trkpt lat="45.86162352106518" lon="14.971278341572392"><ele>243.33333333333331</ele><time>2026-05-05T08:30:14Z</time></trkpt><trkpt lat="45.8614436917655" lon="14.971209432515547"><ele>243.66666666666666</ele><time>2026-05-05T08:30:15Z</time></trkpt><trkpt lat="45.86123432743391" lon="14.971118267149237"><ele>244.0</ele><time>2026-05-05T08:30:16Z</time></trkpt><trkpt lat="45.861026880348426" lon="14.971027424650302"><ele>243.0</ele><time>2026-05-05T08:30:17Z</time></trkpt><trkpt lat="45.86081499742615" lon="14.970938287331009"><ele>242.0</ele><time>2026-05-05T08:30:18Z</time></trkpt><trkpt lat="45.8606076307752" lon="14.97085790161795"><ele>241.0</ele><time>2026-05-05T08:30:19Z</time></trkpt><trkpt lat="45.860417020799936" lon="14.970803271589048"><ele>243.66666666666666</ele><time>2026-05-05T08:30:20Z</time></trkpt><trkpt lat="45.860217438257074" lon="14.970781206192745"><ele>246.33333333333331</ele><time>2026-05-05T08:30:21Z</time></trkpt><trkpt lat="45.86001698111579" lon="14.970796977224111"><ele>249.0</ele><time>2026-05-05T08:30:22Z</time></trkpt><trkpt lat="45.859811435479735" lon="14.970817509785611"><ele>249.0</ele><time>2026-05-05T08:30:23Z</time></trkpt><trkpt lat="45.859610345752394" lon="14.970822922808162"><ele>249.0</ele><time>2026-05-05T08:30:24Z</time></trkpt><trkpt lat="45.85940952329679" lon="14.970813956211558"><ele>249.0</ele><time>2026-05-05T08:30:25Z</time></trkpt><trkpt lat="45.859215645098935" lon="14.970792314428026"><ele>249.0</ele><time>2026-05-05T08:30:26Z</time></trkpt><trkpt lat="45.85902430829649" lon="14.970730029075098"><ele>249.0</ele><time>2026-05-05T08:30:27Z</time></trkpt><trkpt lat="45.85884558990665" lon="14.970741238299583"><ele>249.0</ele><time>2026-05-05T08:30:28Z</time></trkpt><trkpt lat="45.85867566249821" lon="14.970484080347214"><ele>249.0</ele><time>2026-05-05T08:30:29Z</time></trkpt><trkpt lat="45.85850238697881" lon="14.97035155652695"><ele>249.0</ele><time>2026-05-05T08:30:30Z</time></trkpt><trkpt lat="45.858339741117526" lon="14.9702185679899"><ele>249.0</ele><time>2026-05-05T08:30:31Z</time></trkpt><trkpt lat="45.85818641965197" lon="14.97008388602936"><ele>250.33333333333331</ele><time>2026-05-05T08:30:32Z</time></trkpt><trkpt lat="45.85803941276754" lon="14.969951476579334"><ele>251.66666666666666</ele><time>2026-05-05T08:30:33Z</time></trkpt><trkpt lat="45.85789634529621" lon="14.96982101464325"><ele>253.0</ele><time>2026-05-05T08:30:34Z</time></trkpt><trkpt lat="45.85774804500273" lon="14.96968072514814"><ele>251.33333333333331</ele><time>2026-05-05T08:30:35Z</time></trkpt><trkpt lat="45.85759778411145" lon="14.969540678712152"><ele>249.66666666666669</ele><time>2026-05-05T08:30:36Z</time></trkpt><trkpt lat="45.857446761860764" lon="14.969405251806316"><ele>248.0</ele><time>2026-05-05T08:30:37Z</time></trkpt><trkpt lat="45.85729858943593" lon="14.969277447280497"><ele>249.33333333333334</ele><time>2026-05-05T08:30:38Z</time></trkpt><trkpt lat="45.85715002863134" lon="14.969156383755776"><ele>250.66666666666669</ele><time>2026-05-05T08:30:39Z</time></trkpt><trkpt lat="45.857004659384415" lon="14.96903411474102"><ele>252.0</ele><time>2026-05-05T08:30:40Z</time></trkpt><trkpt lat="45.8568617297063" lon="14.9689061670619"><ele>250.33333333333331</ele><time>2026-05-05T08:30:41Z</time></trkpt><trkpt lat="45.85671927034915" lon="14.968779571281134"><ele>248.66666666666666</ele><time>2026-05-05T08:30:42Z</time></trkpt><trkpt lat="45.856574978727316" lon="14.96866031911719"><ele>247.0</ele><time>2026-05-05T08:30:43Z</time></trkpt><trkpt lat="45.85642636463902" lon="14.96856028645053"><ele>247.0</ele><time>2026-05-05T08:30:44Z</time></trkpt><trkpt lat="45.85627250124498" lon="14.968475373004813"><ele>247.0</ele><time>2026-05-05T08:30:45Z</time></trkpt><trkpt lat="45.856123480271805" lon="14.968389678023962"><ele>247.0</ele><time>2026-05-05T08:30:46Z</time></trkpt><trkpt lat="45.85597923332986" lon="14.968297110791"><ele>247.25</ele><time>2026-05-05T08:30:47Z</time></trkpt><trkpt lat="45.85584249878531" lon="14.968202990743244"><ele>247.5</ele><time>2026-05-05T08:30:48Z</time></trkpt><trkpt lat="45.8557164251123" lon="14.968122186881832"><ele>247.75</ele><time>2026-05-05T08:30:49Z</time></trkpt><trkpt lat="45.855604707208634" lon="14.968056209576208"><ele>248.0</ele><time>2026-05-05T08:30:50Z</time></trkpt><trkpt lat="45.855506289400346" lon="14.96799574588718"><ele>248.0</ele><time>2026-05-05T08:30:51Z</time></trkpt><trkpt lat="45.85543032286395" lon="14.967926546094802"><ele>248.0</ele><time>2026-05-05T08:30:52Z</time></trkpt><trkpt lat="45.855377213044754" lon="14.967829542182711"><ele>248.0</ele><time>2026-05-05T08:30:53Z</time></trkpt><trkpt lat="45.85535609524361" lon="14.967695382635151"><ele>248.0</ele><time>2026-05-05T08:30:54Z</time></trkpt><trkpt lat="45.85536962836344" lon="14.967551108868452"><ele>248.0</ele><time>2026-05-05T08:30:55Z</time></trkpt><trkpt lat="45.85538423122669" lon="14.967398890249124"><ele>248.75</ele><time>2026-05-05T08:30:56Z</time></trkpt><trkpt lat="45.855388003126286" lon="14.967231459848664"><ele>249.5</ele><time>2026-05-05T08:30:57Z</time></trkpt><trkpt lat="45.85538011969256" lon="14.967045429744365"><ele>250.25</ele><time>2026-05-05T08:30:58Z</time></trkpt><trkpt lat="45.8553671555138" lon="14.966843271808916"><ele>251.0</ele><time>2026-05-05T08:30:59Z</time></trkpt><trkpt lat="45.85535085203604" lon="14.966624978503289"><ele>251.33333333333334</ele><time>2026-05-05T08:31:00Z</time></trkpt><trkpt lat="45.855340728230004" lon="14.966393315303465"><ele>251.66666666666669</ele><time>2026-05-05T08:31:01Z</time></trkpt><trkpt lat="45.85536878996415" lon="14.966156141859598"><ele>252.0</ele><time>2026-05-05T08:31:02Z</time></trkpt><trkpt lat="45.855437689695954" lon="14.965929403214265"><ele>251.33333333333331</ele><time>2026-05-05T08:31:03Z</time></trkpt><trkpt lat="45.85553125903955" lon="14.96572318379674"><ele>250.66666666666666</ele><time>2026-05-05T08:31:04Z</time></trkpt><trkpt lat="45.855605175705286" lon="14.965512205032644"><ele>250.0</ele><time>2026-05-05T08:31:05Z</time></trkpt><trkpt lat="45.855634544194025" lon="14.965254722072014"><ele>249.0</ele><time>2026-05-05T08:31:06Z</time></trkpt><trkpt lat="45.85562109287845" lon="14.964979079621608"><ele>248.0</ele><time>2026-05-05T08:31:07Z</time></trkpt><trkpt lat="45.85558121891313" lon="14.96470204324409"><ele>247.0</ele><time>2026-05-05T08:31:08Z</time></trkpt><trkpt lat="45.85553282091699" lon="14.964426501171186"><ele>248.0</ele><time>2026-05-05T08:31:09Z</time></trkpt><trkpt lat="45.85546009739087" lon="14.964170336994687"><ele>249.0</ele><time>2026-05-05T08:31:10Z</time></trkpt><trkpt lat="45.85536361371005" lon="14.96393871094456"><ele>250.0</ele><time>2026-05-05T08:31:11Z</time></trkpt><trkpt lat="45.85525886314009" lon="14.963731712571175"><ele>250.0</ele><time>2026-05-05T08:31:12Z</time></trkpt><trkpt lat="45.855165689224165" lon="14.96353601658501"><ele>250.0</ele><time>2026-05-05T08:31:13Z</time></trkpt><trkpt lat="45.85508988801424" lon="14.963317901730276"><ele>250.0</ele><time>2026-05-05T08:31:14Z</time></trkpt><trkpt lat="45.855033995589196" lon="14.963093639097774"><ele>249.75</ele><time>2026-05-05T08:31:15Z</time></trkpt><trkpt lat="45.85498540687056" lon="14.962883212817406"><ele>249.5</ele><time>2026-05-05T08:31:16Z</time></trkpt><trkpt lat="45.854940716243" lon="14.96268578682342"><ele>249.25</ele><time>2026-05-05T08:31:17Z</time></trkpt><trkpt lat="45.85490081131009" lon="14.962492029187072"><ele>249.0</ele><time>2026-05-05T08:31:18Z</time></trkpt><trkpt lat="45.85486581182305" lon="14.962297588916154"><ele>251.25</ele><time>2026-05-05T08:31:19Z</time></trkpt><trkpt lat="45.85484323866138" lon="14.962096252276494"><ele>253.5</ele><time>2026-05-05T08:31:20Z</time></trkpt><trkpt lat="45.85484241341223" lon="14.961878660034062"><ele>255.75</ele><time>2026-05-05T08:31:21Z</time></trkpt><trkpt lat="45.854871972884744" lon="14.961660205294612"><ele>258.0</ele><time>2026-05-05T08:31:22Z</time></trkpt><trkpt lat="45.854918122044026" lon="14.961461473588386"><ele>259.0</ele><time>2026-05-05T08:31:23Z</time></trkpt><trkpt lat="45.85495955378593" lon="14.961261063374117"><ele>260.0</ele><time>2026-05-05T08:31:24Z</time></trkpt><trkpt lat="45.85499397121232" lon="14.961051462955556"><ele>261.0</ele><time>2026-05-05T08:31:25Z</time></trkpt><trkpt lat="45.85501602090003" lon="14.960833918988067"><ele>262.0</ele><time>2026-05-05T08:31:26Z</time></trkpt><trkpt lat="45.85503566354672" lon="14.960611254340138"><ele>263.3333333333333</ele><time>2026-05-05T08:31:27Z</time></trkpt><trkpt lat="45.8550709420317" lon="14.96038742973996"><ele>264.6666666666667</ele><time>2026-05-05T08:31:28Z</time></trkpt><trkpt lat="45.85510976449044" lon="14.960141351682132"><ele>266.0</ele><time>2026-05-05T08:31:29Z</time></trkpt><trkpt lat="45.85514937311646" lon="14.959870364965981"><ele>274.33333333333337</ele><time>2026-05-05T08:31:30Z</time></trkpt><trkpt lat="45.85519765664716" lon="14.959594084117827"><ele>282.6666666666667</ele><time>2026-05-05T08:31:31Z</time></trkpt><trkpt lat="45.85524441186821" lon="14.959323310938016"><ele>291.0</ele><time>2026-05-05T08:31:32Z</time></trkpt><trkpt lat="45.85527204070966" lon="14.95903796486846"><ele>291.3333333333333</ele><time>2026-05-05T08:31:33Z</time></trkpt><trkpt lat="45.855274748943124" lon="14.958738764636966"><ele>291.66666666666663</ele><time>2026-05-05T08:31:34Z</time></trkpt><trkpt lat="45.85524722839465" lon="14.958436118030264"><ele>292.0</ele><time>2026-05-05T08:31:35Z</time></trkpt><trkpt lat="45.85518874586239" lon="14.958138055446106"><ele>280.0</ele><time>2026-05-05T08:31:36Z</time></trkpt><trkpt lat="45.85510704713864" lon="14.95783655686346"><ele>268.0</ele><time>2026-05-05T08:31:37Z</time></trkpt><trkpt lat="45.85500972008848" lon="14.957545439584308"><ele>269.3333333333333</ele><time>2026-05-05T08:31:38Z</time></trkpt><trkpt lat="45.854913617219374" lon="14.957262880211749"><ele>270.6666666666667</ele><time>2026-05-05T08:31:39Z</time></trkpt><trkpt lat="45.85482820415517" lon="14.956975917456324"><ele>272.0</ele><time>2026-05-05T08:31:40Z</time></trkpt><trkpt lat="45.85475471379648" lon="14.956675552314755"><ele>274.0</ele><time>2026-05-05T08:31:41Z</time></trkpt><trkpt lat="45.85469199055585" lon="14.956369910366007"><ele>276.0</ele><time>2026-05-05T08:31:42Z</time></trkpt><trkpt lat="45.8546333759675" lon="14.956051202583541"><ele>277.0</ele><time>2026-05-05T08:31:43Z</time></trkpt><trkpt lat="45.85458378846955" lon="14.955705884696847"><ele>278.0</ele><time>2026-05-05T08:31:44Z</time></trkpt><trkpt lat="45.85455204115411" lon="14.955339962994149"><ele>278.0</ele><time>2026-05-05T08:31:45Z</time></trkpt><trkpt lat="45.8545278984657" lon="14.9549838440024"><ele>278.0</ele><time>2026-05-05T08:31:46Z</time></trkpt><trkpt lat="45.85450907685734" lon="14.954645839905071"><ele>278.0</ele><time>2026-05-05T08:31:47Z</time></trkpt><trkpt lat="45.85449543557858" lon="14.954314621270296"><ele>278.0</ele><time>2026-05-05T08:31:48Z</time></trkpt><trkpt lat="45.854490698476305" lon="14.953992762915677"><ele>276.5</ele><time>2026-05-05T08:31:49Z</time></trkpt><trkpt lat="45.854531213752075" lon="14.95366559144625"><ele>275.0</ele><time>2026-05-05T08:31:50Z</time></trkpt><trkpt lat="45.85458723945836" lon="14.953345727123459"><ele>273.5</ele><time>2026-05-05T08:31:51Z</time></trkpt><trkpt lat="45.854665314454074" lon="14.95302466385523"><ele>272.0</ele><time>2026-05-05T08:31:52Z</time></trkpt><trkpt lat="45.85472913695185" lon="14.952703148833814"><ele>270.0</ele><time>2026-05-05T08:31:53Z</time></trkpt><trkpt lat="45.85480633926164" lon="14.952407090244225"><ele>268.0</ele><time>2026-05-05T08:31:54Z</time></trkpt><trkpt lat="45.85484735834815" lon="14.952098774994807"><ele>266.0</ele><time>2026-05-05T08:31:55Z</time></trkpt><trkpt lat="45.85485465925929" lon="14.951779550851258"><ele>265.6666666666667</ele><time>2026-05-05T08:31:56Z</time></trkpt><trkpt lat="45.85483965411818" lon="14.951464570774625"><ele>265.3333333333333</ele><time>2026-05-05T08:31:57Z</time></trkpt><trkpt lat="45.854794803761536" lon="14.951148493752397"><ele>265.0</ele><time>2026-05-05T08:31:58Z</time></trkpt><trkpt lat="45.85472690367732" lon="14.950846325261255"><ele>265.0</ele><time>2026-05-05T08:31:59Z</time></trkpt><trkpt lat="45.854637492016295" lon="14.95055960722938"><ele>265.0</ele><time>2026-05-05T08:32:00Z</time></trkpt><trkpt lat="45.85451795460643" lon="14.950296961972528"><ele>265.0</ele><time>2026-05-05T08:32:01Z</time></trkpt><trkpt lat="45.854383329331846" lon="14.95006978087122"><ele>266.0</ele><time>2026-05-05T08:32:02Z</time></trkpt><trkpt lat="45.8542314348065" lon="14.949869288600665"><ele>267.0</ele><time>2026-05-05T08:32:03Z</time></trkpt><trkpt lat="45.85406661554841" lon="14.949698011609048"><ele>268.0</ele><time>2026-05-05T08:32:04Z</time></trkpt><trkpt lat="45.8538955738817" lon="14.949548595425998"><ele>268.0</ele><time>2026-05-05T08:32:05Z</time></trkpt><trkpt lat="45.853711755897656" lon="14.94942394173739"><ele>268.0</ele><time>2026-05-05T08:32:06Z</time></trkpt><trkpt lat="45.85351521450962" lon="14.94933898247929"><ele>268.0</ele><time>2026-05-05T08:32:07Z</time></trkpt><trkpt lat="45.85331170311072" lon="14.949274297284383"><ele>267.66666666666663</ele><time>2026-05-05T08:32:08Z</time></trkpt><trkpt lat="45.85311088053078" lon="14.949228544247251"><ele>267.3333333333333</ele><time>2026-05-05T08:32:09Z</time></trkpt><trkpt lat="45.852902926550485" lon="14.949191742569417"><ele>267.0</ele><time>2026-05-05T08:32:10Z</time></trkpt><trkpt lat="45.85269983940303" lon="14.949139968962957"><ele>269.0</ele><time>2026-05-05T08:32:11Z</time></trkpt><trkpt lat="45.85249126675571" lon="14.949074311719398"><ele>271.0</ele><time>2026-05-05T08:32:12Z</time></trkpt><trkpt lat="45.852282729706516" lon="14.948993217370582"><ele>273.0</ele><time>2026-05-05T08:32:13Z</time></trkpt><trkpt lat="45.85207767351497" lon="14.94888002691221"><ele>273.0</ele><time>2026-05-05T08:32:14Z</time></trkpt><trkpt lat="45.851862382093124" lon="14.94878978585889"><ele>273.0</ele><time>2026-05-05T08:32:15Z</time></trkpt><trkpt lat="45.85164650264824" lon="14.948691829769324"><ele>274.6666666666667</ele><time>2026-05-05T08:32:16Z</time></trkpt><trkpt lat="45.85143304666501" lon="14.948616399328673"><ele>276.33333333333337</ele><time>2026-05-05T08:32:17Z</time></trkpt><trkpt lat="45.85122398657767" lon="14.948568137026674"><ele>278.0</ele><time>2026-05-05T08:32:18Z</time></trkpt><trkpt lat="45.851014108192906" lon="14.948545596137283"><ele>277.6666666666667</ele><time>2026-05-05T08:32:19Z</time></trkpt><trkpt lat="45.85080455025" lon="14.948544178370426"><ele>277.3333333333333</ele><time>2026-05-05T08:32:20Z</time></trkpt><trkpt lat="45.850598320550304" lon="14.948560387731192"><ele>277.0</ele><time>2026-05-05T08:32:21Z</time></trkpt><trkpt lat="45.85039451762257" lon="14.948592657725444"><ele>277.0</ele><time>2026-05-05T08:32:22Z</time></trkpt><trkpt lat="45.85019186241641" lon="14.948650630240595"><ele>277.0</ele><time>2026-05-05T08:32:23Z</time></trkpt><trkpt lat="45.84999400469509" lon="14.948727067815854"><ele>277.0</ele><time>2026-05-05T08:32:24Z</time></trkpt><trkpt lat="45.849792285836884" lon="14.948820055053927"><ele>277.0</ele><time>2026-05-05T08:32:25Z</time></trkpt><trkpt lat="45.84958920932391" lon="14.9489265437696"><ele>277.0</ele><time>2026-05-05T08:32:26Z</time></trkpt><trkpt lat="45.84938519929556" lon="14.949042308014837"><ele>277.0</ele><time>2026-05-05T08:32:27Z</time></trkpt><trkpt lat="45.84918250273013" lon="14.949149078843915"><ele>277.0</ele><time>2026-05-05T08:32:28Z</time></trkpt><trkpt lat="45.848980458740044" lon="14.949199286349916"><ele>277.0</ele><time>2026-05-05T08:32:29Z</time></trkpt><trkpt lat="45.84877882252744" lon="14.94921265549327"><ele>277.0</ele><time>2026-05-05T08:32:30Z</time></trkpt><trkpt lat="45.84858441275702" lon="14.94917491636504"><ele>279.66666666666663</ele><time>2026-05-05T08:32:31Z</time></trkpt><trkpt lat="45.848399581842884" lon="14.94910257312361"><ele>282.3333333333333</ele><time>2026-05-05T08:32:32Z</time></trkpt><trkpt lat="45.848240144855424" lon="14.948971467840105"><ele>285.0</ele><time>2026-05-05T08:32:33Z</time></trkpt><trkpt lat="45.8480958062781" lon="14.94881548552049"><ele>285.0</ele><time>2026-05-05T08:32:34Z</time></trkpt><trkpt lat="45.8479746631991" lon="14.948634348583449"><ele>285.0</ele><time>2026-05-05T08:32:35Z</time></trkpt><trkpt lat="45.84787707211103" lon="14.948425043765821"><ele>285.0</ele><time>2026-05-05T08:32:36Z</time></trkpt><trkpt lat="45.84780908986283" lon="14.948204442045645"><ele>283.6666666666667</ele><time>2026-05-05T08:32:37Z</time></trkpt><trkpt lat="45.84776100537901" lon="14.947978333066185"><ele>282.33333333333337</ele><time>2026-05-05T08:32:38Z</time></trkpt><trkpt lat="45.84772790119401" lon="14.947752408069208"><ele>281.0</ele><time>2026-05-05T08:32:39Z</time></trkpt><trkpt lat="45.847697064698835" lon="14.947534709132874"><ele>281.0</ele><time>2026-05-05T08:32:40Z</time></trkpt><trkpt lat="45.847646120042995" lon="14.947319370675906"><ele>281.0</ele><time>2026-05-05T08:32:41Z</time></trkpt><trkpt lat="45.84756379753341" lon="14.947103083476629"><ele>281.0</ele><time>2026-05-05T08:32:42Z</time></trkpt><trkpt lat="45.847452542799445" lon="14.946873802616798"><ele>283.6666666666667</ele><time>2026-05-05T08:32:43Z</time></trkpt><trkpt lat="45.84732803347381" lon="14.946634331026642"><ele>286.3333333333333</ele><time>2026-05-05T08:32:44Z</time></trkpt><trkpt lat="45.84720255276478" lon="14.94638610998699"><ele>289.0</ele><time>2026-05-05T08:32:45Z</time></trkpt><trkpt lat="45.847068243950666" lon="14.946122201602448"><ele>289.5</ele><time>2026-05-05T08:32:46Z</time></trkpt><trkpt lat="45.84692334417892" lon="14.945847912344421"><ele>290.0</ele><time>2026-05-05T08:32:47Z</time></trkpt><trkpt lat="45.84676538250912" lon="14.945588327828176"><ele>296.5</ele><time>2026-05-05T08:32:48Z</time></trkpt><trkpt lat="45.84660572647565" lon="14.945337834795122"><ele>303.0</ele><time>2026-05-05T08:32:49Z</time></trkpt><trkpt lat="45.84645766889797" lon="14.945079147928498"><ele>300.3333333333333</ele><time>2026-05-05T08:32:50Z</time></trkpt><trkpt lat="45.84633015164192" lon="14.944824823711597"><ele>297.66666666666663</ele><time>2026-05-05T08:32:51Z</time></trkpt><trkpt lat="45.84621865539944" lon="14.944572391430208"><ele>295.0</ele><time>2026-05-05T08:32:52Z</time></trkpt><trkpt lat="45.84610399099035" lon="14.944334303199428"><ele>296.0</ele><time>2026-05-05T08:32:53Z</time></trkpt><trkpt lat="45.84597133323597" lon="14.944110435377226"><ele>297.0</ele><time>2026-05-05T08:32:54Z</time></trkpt><trkpt lat="45.84581745140225" lon="14.943918727489368"><ele>298.0</ele><time>2026-05-05T08:32:55Z</time></trkpt><trkpt lat="45.84565266199638" lon="14.943767657735235"><ele>299.0</ele><time>2026-05-05T08:32:56Z</time></trkpt><trkpt lat="45.84547345685421" lon="14.943626851050444"><ele>300.0</ele><time>2026-05-05T08:32:57Z</time></trkpt><trkpt lat="45.84528667766293" lon="14.943496420185465"><ele>301.0</ele><time>2026-05-05T08:32:58Z</time></trkpt><trkpt lat="45.84510739485516" lon="14.943376549999574"><ele>297.0</ele><time>2026-05-05T08:32:59Z</time></trkpt><trkpt lat="45.844938334026956" lon="14.943241993232254"><ele>293.0</ele><time>2026-05-05T08:33:00Z</time></trkpt><trkpt lat="45.844782919866226" lon="14.94302690526556"><ele>289.0</ele><time>2026-05-05T08:33:01Z</time></trkpt><trkpt lat="45.84462380023242" lon="14.942790747255053"><ele>290.5</ele><time>2026-05-05T08:33:02Z</time></trkpt><trkpt lat="45.844467338537015" lon="14.942525470476685"><ele>292.0</ele><time>2026-05-05T08:33:03Z</time></trkpt><trkpt lat="45.844289103595976" lon="14.942255108996248"><ele>282.5</ele><time>2026-05-05T08:33:04Z</time></trkpt><trkpt lat="45.8440764364414" lon="14.94202071412264"><ele>273.0</ele><time>2026-05-05T08:33:05Z</time></trkpt><trkpt lat="45.84387366353221" lon="14.941773363605904"><ele>276.0</ele><time>2026-05-05T08:33:06Z</time></trkpt><trkpt lat="45.84368317818883" lon="14.941526476864052"><ele>279.0</ele><time>2026-05-05T08:33:07Z</time></trkpt><trkpt lat="45.84350523623591" lon="14.941257483172393"><ele>277.5</ele><time>2026-05-05T08:33:08Z</time></trkpt><trkpt lat="45.8433206059673" lon="14.940991557580947"><ele>276.0</ele><time>2026-05-05T08:33:09Z</time></trkpt><trkpt lat="45.84312485555231" lon="14.940758041719654"><ele>276.0</ele><time>2026-05-05T08:33:10Z</time></trkpt><trkpt lat="45.84290400328634" lon="14.9405867253271"><ele>276.0</ele><time>2026-05-05T08:33:11Z</time></trkpt><trkpt lat="45.84266172714015" lon="14.940464976877886"><ele>275.5</ele><time>2026-05-05T08:33:12Z</time></trkpt><trkpt lat="45.84242423816536" lon="14.940339367654616"><ele>275.0</ele><time>2026-05-05T08:33:13Z</time></trkpt><trkpt lat="45.84222863907789" lon="14.940126758527212"><ele>274.5</ele><time>2026-05-05T08:33:14Z</time></trkpt><trkpt lat="45.84204862852625" lon="14.93988024850956"><ele>274.0</ele><time>2026-05-05T08:33:15Z</time></trkpt><trkpt lat="45.84186748469724" lon="14.93964930587313"><ele>275.0</ele><time>2026-05-05T08:33:16Z</time></trkpt><trkpt lat="45.84171807938509" lon="14.939419604777887"><ele>276.0</ele><time>2026-05-05T08:33:17Z</time></trkpt><trkpt lat="45.841559753483715" lon="14.93923621898924"><ele>277.0</ele><time>2026-05-05T08:33:18Z</time></trkpt><trkpt lat="45.841390226825396" lon="14.939106239308142"><ele>277.0</ele><time>2026-05-05T08:33:19Z</time></trkpt><trkpt lat="45.84120797424796" lon="14.939002095243517"><ele>277.0</ele><time>2026-05-05T08:33:20Z</time></trkpt><trkpt lat="45.84102436570322" lon="14.938912191527024"><ele>277.0</ele><time>2026-05-05T08:33:21Z</time></trkpt><trkpt lat="45.84083393119957" lon="14.938844077407712"><ele>279.0</ele><time>2026-05-05T08:33:22Z</time></trkpt><trkpt lat="45.840650828549165" lon="14.938798452254623"><ele>281.0</ele><time>2026-05-05T08:33:23Z</time></trkpt><trkpt lat="45.840492263309734" lon="14.938762421292287"><ele>283.0</ele><time>2026-05-05T08:33:24Z</time></trkpt><trkpt lat="45.84037102914202" lon="14.938649008593378"><ele>283.0</ele><time>2026-05-05T08:33:25Z</time></trkpt><trkpt lat="45.84027823798899" lon="14.938476792318758"><ele>283.0</ele><time>2026-05-05T08:33:26Z</time></trkpt><trkpt lat="45.840166762066985" lon="14.93831122579114"><ele>283.0</ele><time>2026-05-05T08:33:27Z</time></trkpt><trkpt lat="45.84003499109831" lon="14.938151811032014"><ele>285.0</ele><time>2026-05-05T08:33:28Z</time></trkpt><trkpt lat="45.839866699560744" lon="14.938006582423155"><ele>287.0</ele><time>2026-05-05T08:33:29Z</time></trkpt><trkpt lat="45.83970006234798" lon="14.937829393824652"><ele>289.0</ele><time>2026-05-05T08:33:30Z</time></trkpt><trkpt lat="45.83953495851985" lon="14.93764264634587"><ele>288.66666666666663</ele><time>2026-05-05T08:33:31Z</time></trkpt><trkpt lat="45.8393702576335" lon="14.937483045038762"><ele>288.3333333333333</ele><time>2026-05-05T08:33:32Z</time></trkpt><trkpt lat="45.83923566267558" lon="14.93730177464532"><ele>288.0</ele><time>2026-05-05T08:33:33Z</time></trkpt><trkpt lat="45.8391298953694" lon="14.93708481438488"><ele>286.0</ele><time>2026-05-05T08:33:34Z</time></trkpt><trkpt lat="45.838999324761225" lon="14.936897318611141"><ele>284.0</ele><time>2026-05-05T08:33:35Z</time></trkpt><trkpt lat="45.83883824981893" lon="14.936746132490756"><ele>282.0</ele><time>2026-05-05T08:33:36Z</time></trkpt><trkpt lat="45.83864254875894" lon="14.936638575137188"><ele>282.0</ele><time>2026-05-05T08:33:37Z</time></trkpt><trkpt lat="45.838470338336315" lon="14.936565116929927"><ele>282.0</ele><time>2026-05-05T08:33:38Z</time></trkpt><trkpt lat="45.83831391236493" lon="14.936529507918753"><ele>282.0</ele><time>2026-05-05T08:33:39Z</time></trkpt><trkpt lat="45.83816473399092" lon="14.93652405326715"><ele>282.25</ele><time>2026-05-05T08:33:40Z</time></trkpt><trkpt lat="45.83802290510106" lon="14.936532080346884"><ele>282.5</ele><time>2026-05-05T08:33:41Z</time></trkpt><trkpt lat="45.837883254969064" lon="14.936567552191127"><ele>282.75</ele><time>2026-05-05T08:33:42Z</time></trkpt><trkpt lat="45.83774829670337" lon="14.936633362647662"><ele>283.0</ele><time>2026-05-05T08:33:43Z</time></trkpt><trkpt lat="45.83761375897678" lon="14.936722301495859"><ele>283.0</ele><time>2026-05-05T08:33:44Z</time></trkpt><trkpt lat="45.83748456774091" lon="14.936784528232698"><ele>283.0</ele><time>2026-05-05T08:33:45Z</time></trkpt><trkpt lat="45.837355095312496" lon="14.936800359469219"><ele>283.0</ele><time>2026-05-05T08:33:46Z</time></trkpt><trkpt lat="45.83723932062473" lon="14.936743689068761"><ele>283.0</ele><time>2026-05-05T08:33:47Z</time></trkpt><trkpt lat="45.837124600825625" lon="14.93671055302215"><ele>281.5</ele><time>2026-05-05T08:33:48Z</time></trkpt><trkpt lat="45.83701737612079" lon="14.936639866194032"><ele>280.0</ele><time>2026-05-05T08:33:49Z</time></trkpt><trkpt lat="45.8369075719013" lon="14.93657107642907"><ele>278.5</ele><time>2026-05-05T08:33:50Z</time></trkpt><trkpt lat="45.836799537777516" lon="14.936508304387466"><ele>277.0</ele><time>2026-05-05T08:33:51Z</time></trkpt><trkpt lat="45.83670034533166" lon="14.936451241351318"><ele>277.0</ele><time>2026-05-05T08:33:52Z</time></trkpt><trkpt lat="45.83660617308586" lon="14.93638888617471"><ele>277.0</ele><time>2026-05-05T08:33:53Z</time></trkpt><trkpt lat="45.83651683569164" lon="14.936321046863432"><ele>277.0</ele><time>2026-05-05T08:33:54Z</time></trkpt><trkpt lat="45.836432243849686" lon="14.936243317526403"><ele>277.0</ele><time>2026-05-05T08:33:55Z</time></trkpt><trkpt lat="45.83635504219996" lon="14.936151877534577"><ele>277.0</ele><time>2026-05-05T08:33:56Z</time></trkpt><trkpt lat="45.8362822573388" lon="14.936056846622169"><ele>277.0</ele><time>2026-05-05T08:33:57Z</time></trkpt><trkpt lat="45.836219540345155" lon="14.93595483293633"><ele>277.0</ele><time>2026-05-05T08:33:58Z</time></trkpt><trkpt lat="45.83616395947258" lon="14.935845781798605"><ele>277.0</ele><time>2026-05-05T08:33:59Z</time></trkpt><trkpt lat="45.836118834207106" lon="14.935729078089775"><ele>277.0</ele><time>2026-05-05T08:34:00Z</time></trkpt><trkpt lat="45.83607924282093" lon="14.935610769419686"><ele>277.0</ele><time>2026-05-05T08:34:01Z</time></trkpt><trkpt lat="45.836025996638256" lon="14.935497229250863"><ele>277.4</ele><time>2026-05-05T08:34:02Z</time></trkpt><trkpt lat="45.83595540539814" lon="14.935403382291483"><ele>277.79999999999995</ele><time>2026-05-05T08:34:03Z</time></trkpt><trkpt lat="45.83586866100593" lon="14.935319922244288"><ele>278.2</ele><time>2026-05-05T08:34:04Z</time></trkpt><trkpt lat="45.835777871043426" lon="14.93523383031965"><ele>278.59999999999997</ele><time>2026-05-05T08:34:05Z</time></trkpt><trkpt lat="45.835686086804635" lon="14.935135655420789"><ele>279.0</ele><time>2026-05-05T08:34:06Z</time></trkpt><trkpt lat="45.835592152678394" lon="14.935034044942675"><ele>278.0</ele><time>2026-05-05T08:34:07Z</time></trkpt><trkpt lat="45.835487957714285" lon="14.934937320193026"><ele>277.0</ele><time>2026-05-05T08:34:08Z</time></trkpt><trkpt lat="45.835373839849424" lon="14.934848154522504"><ele>276.0</ele><time>2026-05-05T08:34:09Z</time></trkpt><trkpt lat="45.83524800664749" lon="14.934774064867788"><ele>275.0</ele><time>2026-05-05T08:34:10Z</time></trkpt><trkpt lat="45.83510674180636" lon="14.934720570280994"><ele>275.0</ele><time>2026-05-05T08:34:11Z</time></trkpt><trkpt lat="45.834948528575474" lon="14.934665033503382"><ele>275.0</ele><time>2026-05-05T08:34:12Z</time></trkpt><trkpt lat="45.83478934849043" lon="14.934575584220068"><ele>275.0</ele><time>2026-05-05T08:34:13Z</time></trkpt><trkpt lat="45.83463507478191" lon="14.934437419782778"><ele>275.0</ele><time>2026-05-05T08:34:14Z</time></trkpt><trkpt lat="45.83450102613445" lon="14.934281845828888"><ele>275.0</ele><time>2026-05-05T08:34:15Z</time></trkpt><trkpt lat="45.8343948871149" lon="14.9341176726032"><ele>275.0</ele><time>2026-05-05T08:34:16Z</time></trkpt><trkpt lat="45.834291756050845" lon="14.933970760469554"><ele>272.75</ele><time>2026-05-05T08:34:17Z</time></trkpt><trkpt lat="45.834161967588884" lon="14.93388074953524"><ele>270.5</ele><time>2026-05-05T08:34:18Z</time></trkpt><trkpt lat="45.834012382802634" lon="14.933832165547896"><ele>268.25</ele><time>2026-05-05T08:34:19Z</time></trkpt><trkpt lat="45.833867977270046" lon="14.933789451749124"><ele>266.0</ele><time>2026-05-05T08:34:20Z</time></trkpt><trkpt lat="45.833724134454116" lon="14.933741021054816"><ele>266.0</ele><time>2026-05-05T08:34:21Z</time></trkpt><trkpt lat="45.83358468808048" lon="14.933698227992895"><ele>266.0</ele><time>2026-05-05T08:34:22Z</time></trkpt><trkpt lat="45.83344034004432" lon="14.933666855475842"><ele>266.0</ele><time>2026-05-05T08:34:23Z</time></trkpt><trkpt lat="45.833299872153546" lon="14.93366428873764"><ele>266.0</ele><time>2026-05-05T08:34:24Z</time></trkpt><trkpt lat="45.83316249281038" lon="14.933698763543735"><ele>264.75</ele><time>2026-05-05T08:34:25Z</time></trkpt><trkpt lat="45.833038686806425" lon="14.933767265456094"><ele>263.5</ele><time>2026-05-05T08:34:26Z</time></trkpt><trkpt lat="45.83291755110899" lon="14.933831824643462"><ele>262.25</ele><time>2026-05-05T08:34:27Z</time></trkpt><trkpt lat="45.832796417725994" lon="14.93384719055238"><ele>261.0</ele><time>2026-05-05T08:34:28Z</time></trkpt><trkpt lat="45.83267379205729" lon="14.933837037712843"><ele>258.8</ele><time>2026-05-05T08:34:29Z</time></trkpt><trkpt lat="45.832561000621084" lon="14.93382517352573"><ele>256.6</ele><time>2026-05-05T08:34:30Z</time></trkpt><trkpt lat="45.83244932056857" lon="14.933826007367998"><ele>254.4</ele><time>2026-05-05T08:34:31Z</time></trkpt><trkpt lat="45.832347406397126" lon="14.933844197201607"><ele>252.2</ele><time>2026-05-05T08:34:32Z</time></trkpt><trkpt lat="45.83226019783227" lon="14.933879364245481"><ele>250.0</ele><time>2026-05-05T08:34:33Z</time></trkpt><trkpt lat="45.83218789553492" lon="14.933916336596296"><ele>250.0</ele><time>2026-05-05T08:34:34Z</time></trkpt><trkpt lat="45.83212283549589" lon="14.933932337595795"><ele>250.0</ele><time>2026-05-05T08:34:35Z</time></trkpt><trkpt lat="45.83201958720254" lon="14.933811579680215"><ele>250.0</ele><time>2026-05-05T08:34:37Z</time></trkpt><trkpt lat="45.83197401434795" lon="14.933684389993445"><ele>250.0</ele><time>2026-05-05T08:34:38Z</time></trkpt><trkpt lat="45.83191184282851" lon="14.933574802201077"><ele>250.0</ele><time>2026-05-05T08:34:39Z</time></trkpt><trkpt lat="45.83183011070738" lon="14.933499121240892"><ele>248.99999999999997</ele><time>2026-05-05T08:34:40Z</time></trkpt><trkpt lat="45.83174485520123" lon="14.933433601387987"><ele>248.0</ele><time>2026-05-05T08:34:41Z</time></trkpt><trkpt lat="45.831667336148435" lon="14.933359487413167"><ele>247.0</ele><time>2026-05-05T08:34:42Z</time></trkpt><trkpt lat="45.831597054139834" lon="14.933285060530933"><ele>246.0</ele><time>2026-05-05T08:34:43Z</time></trkpt><trkpt lat="45.83153421803163" lon="14.933209444071695"><ele>244.99999999999997</ele><time>2026-05-05T08:34:44Z</time></trkpt><trkpt lat="45.83147625423766" lon="14.933134977004741"><ele>244.0</ele><time>2026-05-05T08:34:45Z</time></trkpt><trkpt lat="45.831409960675174" lon="14.93305187123277"><ele>243.33333333333331</ele><time>2026-05-05T08:34:46Z</time></trkpt><trkpt lat="45.83134360481757" lon="14.932970412064787"><ele>242.66666666666666</ele><time>2026-05-05T08:34:47Z</time></trkpt><trkpt lat="45.83127459162933" lon="14.932887524560627"><ele>242.0</ele><time>2026-05-05T08:34:48Z</time></trkpt><trkpt lat="45.831209398575645" lon="14.932816539446465"><ele>241.33333333333331</ele><time>2026-05-05T08:34:49Z</time></trkpt><trkpt lat="45.83114203829579" lon="14.932758504123775"><ele>240.66666666666666</ele><time>2026-05-05T08:34:50Z</time></trkpt><trkpt lat="45.83108225451799" lon="14.93271268053346"><ele>240.0</ele><time>2026-05-05T08:34:51Z</time></trkpt><trkpt lat="45.831017280513066" lon="14.932666956723843"><ele>238.8</ele><time>2026-05-05T08:34:53Z</time></trkpt><trkpt lat="45.83095977609828" lon="14.93262747655493"><ele>237.6</ele><time>2026-05-05T08:34:57Z</time></trkpt><trkpt lat="45.830895592213636" lon="14.932579890312807"><ele>236.39999999999998</ele><time>2026-05-05T08:35:03Z</time></trkpt><trkpt lat="45.830830826286494" lon="14.932513847761786"><ele>235.2</ele><time>2026-05-05T08:35:25Z</time></trkpt><trkpt lat="45.830740762754125" lon="14.932708410973317"><ele>234.0</ele><time>2026-05-05T08:35:27Z</time></trkpt><trkpt lat="45.8306700673574" lon="14.932834662589528"><ele>234.0</ele><time>2026-05-05T08:35:29Z</time></trkpt><trkpt lat="45.83057620518109" lon="14.932957078031313"><ele>233.99999999999997</ele><time>2026-05-05T08:35:31Z</time></trkpt><trkpt lat="45.83051178177666" lon="14.933032604070213"><ele>233.99999999999997</ele><time>2026-05-05T08:35:32Z</time></trkpt><trkpt lat="45.83043606831209" lon="14.93307806460597"><ele>234.0</ele><time>2026-05-05T08:35:33Z</time></trkpt><trkpt lat="45.830360404387136" lon="14.93311858485364"><ele>234.0</ele><time>2026-05-05T08:35:34Z</time></trkpt><trkpt lat="45.83028961679083" lon="14.933161070903585"><ele>234.0</ele><time>2026-05-05T08:35:35Z</time></trkpt><trkpt lat="45.83022567416333" lon="14.933211680595026"><ele>234.0</ele><time>2026-05-05T08:35:36Z</time></trkpt><trkpt lat="45.83015481465052" lon="14.933253358858572"><ele>234.0</ele><time>2026-05-05T08:35:37Z</time></trkpt><trkpt lat="45.830109684840934" lon="14.933346474289415"><ele>234.0</ele><time>2026-05-05T08:35:38Z</time></trkpt><trkpt lat="45.83008200440332" lon="14.933459102813057"><ele>234.0</ele><time>2026-05-05T08:35:39Z</time></trkpt><trkpt lat="45.830081656125486" lon="14.933587804013415"><ele>234.0</ele><time>2026-05-05T08:35:40Z</time></trkpt><trkpt lat="45.830116932964074" lon="14.933711015166148"><ele>234.16666666666666</ele><time>2026-05-05T08:35:41Z</time></trkpt><trkpt lat="45.8301258355989" lon="14.933837015828043"><ele>234.33333333333331</ele><time>2026-05-05T08:35:42Z</time></trkpt><trkpt lat="45.8301441758915" lon="14.933962140301812"><ele>234.5</ele><time>2026-05-05T08:35:43Z</time></trkpt><trkpt lat="45.830098137558814" lon="14.934069217874345"><ele>234.66666666666666</ele><time>2026-05-05T08:35:44Z</time></trkpt><trkpt lat="45.83001999226098" lon="14.934118068972174"><ele>234.83333333333331</ele><time>2026-05-05T08:35:45Z</time></trkpt><trkpt lat="45.829933761543245" lon="14.93408843292886"><ele>235.0</ele><time>2026-05-05T08:35:46Z</time></trkpt><trkpt lat="45.82986429935884" lon="14.934004398757587"><ele>232.6</ele><time>2026-05-05T08:35:47Z</time></trkpt><trkpt lat="45.829810809345695" lon="14.93389386296758"><ele>230.2</ele><time>2026-05-05T08:35:48Z</time></trkpt><trkpt lat="45.82974134390758" lon="14.933804511571305"><ele>227.8</ele><time>2026-05-05T08:35:49Z</time></trkpt><trkpt lat="45.829646884912755" lon="14.93374403991338"><ele>225.4</ele><time>2026-05-05T08:35:50Z</time></trkpt><trkpt lat="45.829543427864046" lon="14.933729565073246"><ele>223.0</ele><time>2026-05-05T08:35:51Z</time></trkpt><trkpt lat="45.82945590585259" lon="14.933766633797715"><ele>223.0</ele><time>2026-05-05T08:35:52Z</time></trkpt><trkpt lat="45.82938861936097" lon="14.93384284472672"><ele>223.0</ele><time>2026-05-05T08:35:53Z</time></trkpt><trkpt lat="45.82934306806085" lon="14.933956331908545"><ele>223.0</ele><time>2026-05-05T08:35:54Z</time></trkpt><trkpt lat="45.82930628135165" lon="14.934094253572342"><ele>223.0</ele><time>2026-05-05T08:35:55Z</time></trkpt><trkpt lat="45.829273785106174" lon="14.934262314885"><ele>223.0</ele><time>2026-05-05T08:35:56Z</time></trkpt><trkpt lat="45.8292383428142" lon="14.934448199105619"><ele>219.0</ele><time>2026-05-05T08:35:57Z</time></trkpt><trkpt lat="45.82919960930307" lon="14.934657862276016"><ele>215.0</ele><time>2026-05-05T08:35:58Z</time></trkpt><trkpt lat="45.82917127755387" lon="14.934904053667474"><ele>211.0</ele><time>2026-05-05T08:35:59Z</time></trkpt><trkpt lat="45.829166348429034" lon="14.935166757457024"><ele>210.0</ele><time>2026-05-05T08:36:00Z</time></trkpt><trkpt lat="45.82917500824221" lon="14.935457525158906"><ele>209.0</ele><time>2026-05-05T08:36:01Z</time></trkpt><trkpt lat="45.829177059044795" lon="14.935708794253605"><ele>208.0</ele><time>2026-05-05T08:36:02Z</time></trkpt><trkpt lat="45.829175071697065" lon="14.935921257915371"><ele>209.0</ele><time>2026-05-05T08:36:03Z</time></trkpt><trkpt lat="45.82918830930999" lon="14.93610655706263"><ele>210.0</ele><time>2026-05-05T08:36:04Z</time></trkpt><trkpt lat="45.829242494603754" lon="14.936242864478178"><ele>211.0</ele><time>2026-05-05T08:36:05Z</time></trkpt><trkpt lat="45.829347471220686" lon="14.936326768181313"><ele>212.0</ele><time>2026-05-05T08:36:06Z</time></trkpt><trkpt lat="45.82948498830038" lon="14.936383855428382"><ele>212.0</ele><time>2026-05-05T08:36:07Z</time></trkpt><trkpt lat="45.82962469413891" lon="14.936431408129438"><ele>212.0</ele><time>2026-05-05T08:36:08Z</time></trkpt><trkpt lat="45.82975386265424" lon="14.936470207989146"><ele>212.0</ele><time>2026-05-05T08:36:09Z</time></trkpt><trkpt lat="45.82986044388308" lon="14.936487598007766"><ele>212.0</ele><time>2026-05-05T08:36:10Z</time></trkpt><trkpt lat="45.829937662245975" lon="14.936507788830633"><ele>212.0</ele><time>2026-05-05T08:36:11Z</time></trkpt><trkpt lat="45.82997292306539" lon="14.936674875384071"><ele>212.0</ele><time>2026-05-05T08:36:13Z</time></trkpt><trkpt lat="45.82980490214301" lon="14.936792661458302"><ele>212.0</ele><time>2026-05-05T08:36:15Z</time></trkpt><trkpt lat="45.829697673398734" lon="14.93685151716071"><ele>212.0</ele><time>2026-05-05T08:36:16Z</time></trkpt><trkpt lat="45.82956360846241" lon="14.93687207902618"><ele>211.0</ele><time>2026-05-05T08:36:17Z</time></trkpt><trkpt lat="45.82941618597991" lon="14.936910496926957"><ele>210.0</ele><time>2026-05-05T08:36:18Z</time></trkpt><trkpt lat="45.82927406686947" lon="14.936940151571623"><ele>209.0</ele><time>2026-05-05T08:36:19Z</time></trkpt><trkpt lat="45.82914743052207" lon="14.936967424228797"><ele>208.0</ele><time>2026-05-05T08:36:20Z</time></trkpt><trkpt lat="45.82903117260538" lon="14.937021843917538"><ele>206.75</ele><time>2026-05-05T08:36:21Z</time></trkpt><trkpt lat="45.82894526112446" lon="14.937145334580464"><ele>205.5</ele><time>2026-05-05T08:36:22Z</time></trkpt><trkpt lat="45.828891042139624" lon="14.937320541394342"><ele>204.25</ele><time>2026-05-05T08:36:23Z</time></trkpt><trkpt lat="45.82886564180746" lon="14.937532238655779"><ele>203.0</ele><time>2026-05-05T08:36:24Z</time></trkpt><trkpt lat="45.8288625052563" lon="14.937772359864361"><ele>201.66666666666669</ele><time>2026-05-05T08:36:25Z</time></trkpt><trkpt lat="45.82884145606533" lon="14.938027126779565"><ele>200.33333333333331</ele><time>2026-05-05T08:36:26Z</time></trkpt><trkpt lat="45.82885928347213" lon="14.938290677114832"><ele>199.0</ele><time>2026-05-05T08:36:27Z</time></trkpt><trkpt lat="45.8288835701526" lon="14.938559379461523"><ele>199.0</ele><time>2026-05-05T08:36:28Z</time></trkpt><trkpt lat="45.82890637139387" lon="14.938855980174294"><ele>199.0</ele><time>2026-05-05T08:36:29Z</time></trkpt><trkpt lat="45.828899757643434" lon="14.939179815509556"><ele>199.0</ele><time>2026-05-05T08:36:30Z</time></trkpt><trkpt lat="45.82888410656665" lon="14.939523417854824"><ele>198.0</ele><time>2026-05-05T08:36:31Z</time></trkpt><trkpt lat="45.828873563943056" lon="14.9398596703132"><ele>197.0</ele><time>2026-05-05T08:36:32Z</time></trkpt><trkpt lat="45.82886081159004" lon="14.940167823364922"><ele>197.0</ele><time>2026-05-05T08:36:33Z</time></trkpt><trkpt lat="45.82886520344228" lon="14.940450046747873"><ele>197.0</ele><time>2026-05-05T08:36:34Z</time></trkpt><trkpt lat="45.828897653972106" lon="14.940719841378064"><ele>197.0</ele><time>2026-05-05T08:36:35Z</time></trkpt><trkpt lat="45.828961003103664" lon="14.94096029138294"><ele>194.66666666666669</ele><time>2026-05-05T08:36:36Z</time></trkpt><trkpt lat="45.8290514175266" lon="14.941186687148242"><ele>192.33333333333334</ele><time>2026-05-05T08:36:37Z</time></trkpt><trkpt lat="45.829141889278404" lon="14.941417779305482"><ele>190.0</ele><time>2026-05-05T08:36:38Z</time></trkpt><trkpt lat="45.82922053926251" lon="14.941649560365486"><ele>194.66666666666669</ele><time>2026-05-05T08:36:39Z</time></trkpt><trkpt lat="45.829247529372154" lon="14.941882542215051"><ele>199.33333333333334</ele><time>2026-05-05T08:36:40Z</time></trkpt><trkpt lat="45.829246746362706" lon="14.942094018490902"><ele>204.0</ele><time>2026-05-05T08:36:41Z</time></trkpt><trkpt lat="45.829188908947586" lon="14.942284052994214"><ele>204.0</ele><time>2026-05-05T08:36:42Z</time></trkpt><trkpt lat="45.829112263652355" lon="14.9425032264962"><ele>204.0</ele><time>2026-05-05T08:36:43Z</time></trkpt><trkpt lat="45.82903973087109" lon="14.9427348796647"><ele>204.0</ele><time>2026-05-05T08:36:44Z</time></trkpt><trkpt lat="45.82895060813629" lon="14.942962661239294"><ele>211.0</ele><time>2026-05-05T08:36:45Z</time></trkpt><trkpt lat="45.8288434489931" lon="14.943189472574486"><ele>218.0</ele><time>2026-05-05T08:36:46Z</time></trkpt><trkpt lat="45.82868564801918" lon="14.943377895052318"><ele>225.0</ele><time>2026-05-05T08:36:47Z</time></trkpt><trkpt lat="45.828543787765746" lon="14.94360495735676"><ele>221.33333333333331</ele><time>2026-05-05T08:36:48Z</time></trkpt><trkpt lat="45.82840252065045" lon="14.943826953163983"><ele>217.66666666666666</ele><time>2026-05-05T08:36:49Z</time></trkpt><trkpt lat="45.828290036467294" lon="14.944107909578099"><ele>214.0</ele><time>2026-05-05T08:36:50Z</time></trkpt><trkpt lat="45.82819350297235" lon="14.944465644772466"><ele>214.0</ele><time>2026-05-05T08:36:51Z</time></trkpt><trkpt lat="45.82810579132345" lon="14.944882094926896"><ele>214.0</ele><time>2026-05-05T08:36:52Z</time></trkpt><trkpt lat="45.828001655562325" lon="14.94530986343797"><ele>222.0</ele><time>2026-05-05T08:36:53Z</time></trkpt><trkpt lat="45.827894009458724" lon="14.945754153227464"><ele>230.0</ele><time>2026-05-05T08:36:54Z</time></trkpt><trkpt lat="45.82778651015156" lon="14.946192010513577"><ele>222.0</ele><time>2026-05-05T08:36:55Z</time></trkpt><trkpt lat="45.82767567813077" lon="14.946578459335539"><ele>214.0</ele><time>2026-05-05T08:36:56Z</time></trkpt><trkpt lat="45.827571766450255" lon="14.946924714928894"><ele>214.0</ele><time>2026-05-05T08:36:57Z</time></trkpt><trkpt lat="45.827458571856305" lon="14.947224592941547"><ele>214.0</ele><time>2026-05-05T08:36:58Z</time></trkpt><trkpt lat="45.82734472184696" lon="14.94750137185133"><ele>219.66666666666666</ele><time>2026-05-05T08:36:59Z</time></trkpt><trkpt lat="45.827230147801735" lon="14.947777117989727"><ele>225.33333333333331</ele><time>2026-05-05T08:37:00Z</time></trkpt><trkpt lat="45.82712117726446" lon="14.948045816953915"><ele>231.0</ele><time>2026-05-05T08:37:01Z</time></trkpt><trkpt lat="45.8270075525289" lon="14.948294249277954"><ele>226.33333333333331</ele><time>2026-05-05T08:37:02Z</time></trkpt><trkpt lat="45.826873346624865" lon="14.948493894902409"><ele>221.66666666666666</ele><time>2026-05-05T08:37:03Z</time></trkpt><trkpt lat="45.82673753370539" lon="14.948675926887077"><ele>217.0</ele><time>2026-05-05T08:37:04Z</time></trkpt><trkpt lat="45.82657636725906" lon="14.948867302897046"><ele>217.0</ele><time>2026-05-05T08:37:05Z</time></trkpt><trkpt lat="45.8263988245165" lon="14.949074709172264"><ele>217.0</ele><time>2026-05-05T08:37:06Z</time></trkpt><trkpt lat="45.82624391037419" lon="14.949267843636592"><ele>217.0</ele><time>2026-05-05T08:37:07Z</time></trkpt><trkpt lat="45.82610368543557" lon="14.949432540260693"><ele>214.66666666666666</ele><time>2026-05-05T08:37:08Z</time></trkpt><trkpt lat="45.82594505804208" lon="14.94960145752396"><ele>212.33333333333331</ele><time>2026-05-05T08:37:09Z</time></trkpt><trkpt lat="45.8257659476324" lon="14.94980937576049"><ele>210.0</ele><time>2026-05-05T08:37:10Z</time></trkpt><trkpt lat="45.82562205973942" lon="14.950138796023756"><ele>224.0</ele><time>2026-05-05T08:37:11Z</time></trkpt><trkpt lat="45.825415006859984" lon="14.950380048041888"><ele>238.0</ele><time>2026-05-05T08:37:12Z</time></trkpt><trkpt lat="45.825207586897506" lon="14.950653112372544"><ele>229.0</ele><time>2026-05-05T08:37:13Z</time></trkpt><trkpt lat="45.82500529848502" lon="14.950925418256501"><ele>220.0</ele><time>2026-05-05T08:37:14Z</time></trkpt><trkpt lat="45.82481450463777" lon="14.951211241353791"><ele>220.0</ele><time>2026-05-05T08:37:15Z</time></trkpt><trkpt lat="45.824631579959615" lon="14.951517346907192"><ele>220.0</ele><time>2026-05-05T08:37:16Z</time></trkpt><trkpt lat="45.8244579849232" lon="14.951829237380672"><ele>211.0</ele><time>2026-05-05T08:37:17Z</time></trkpt><trkpt lat="45.824291267170324" lon="14.95215486361577"><ele>202.0</ele><time>2026-05-05T08:37:18Z</time></trkpt><trkpt lat="45.82412828662567" lon="14.952478217852752"><ele>213.0</ele><time>2026-05-05T08:37:19Z</time></trkpt><trkpt lat="45.82395997817048" lon="14.952793540233182"><ele>224.0</ele><time>2026-05-05T08:37:20Z</time></trkpt><trkpt lat="45.823779910748314" lon="14.953100143351879"><ele>218.0</ele><time>2026-05-05T08:37:21Z</time></trkpt><trkpt lat="45.823584031842984" lon="14.953387453694326"><ele>212.0</ele><time>2026-05-05T08:37:22Z</time></trkpt><trkpt lat="45.82338066941567" lon="14.953664760359125"><ele>212.0</ele><time>2026-05-05T08:37:23Z</time></trkpt><trkpt lat="45.82316448372727" lon="14.953920488300655"><ele>212.0</ele><time>2026-05-05T08:37:24Z</time></trkpt><trkpt lat="45.82292855160536" lon="14.954136040753733"><ele>216.5</ele><time>2026-05-05T08:37:25Z</time></trkpt><trkpt lat="45.82266983397294" lon="14.954312195965867"><ele>221.0</ele><time>2026-05-05T08:37:26Z</time></trkpt><trkpt lat="45.82239424165016" lon="14.954468951217423"><ele>221.0</ele><time>2026-05-05T08:37:27Z</time></trkpt><trkpt lat="45.822112373997115" lon="14.95460710136508"><ele>221.0</ele><time>2026-05-05T08:37:28Z</time></trkpt><trkpt lat="45.82182878583149" lon="14.954753294910157"><ele>224.0</ele><time>2026-05-05T08:37:29Z</time></trkpt><trkpt lat="45.82155542366386" lon="14.954932317735594"><ele>227.0</ele><time>2026-05-05T08:37:30Z</time></trkpt><trkpt lat="45.82130152091025" lon="14.95514620814555"><ele>227.0</ele><time>2026-05-05T08:37:31Z</time></trkpt><trkpt lat="45.82106353743559" lon="14.955391273019405"><ele>227.0</ele><time>2026-05-05T08:37:32Z</time></trkpt><trkpt lat="45.820830879959125" lon="14.955695018278892"><ele>222.5</ele><time>2026-05-05T08:37:33Z</time></trkpt><trkpt lat="45.820598003476356" lon="14.956053525006947"><ele>218.0</ele><time>2026-05-05T08:37:34Z</time></trkpt><trkpt lat="45.82035853207992" lon="14.956434522964994"><ele>213.5</ele><time>2026-05-05T08:37:35Z</time></trkpt><trkpt lat="45.82013152706249" lon="14.95678278707998"><ele>209.0</ele><time>2026-05-05T08:37:36Z</time></trkpt><trkpt lat="45.819924422819994" lon="14.957078139917368"><ele>209.0</ele><time>2026-05-05T08:37:37Z</time></trkpt><trkpt lat="45.81973493143783" lon="14.957330411954727"><ele>209.0</ele><time>2026-05-05T08:37:38Z</time></trkpt><trkpt lat="45.81955841797949" lon="14.957527833814593"><ele>214.0</ele><time>2026-05-05T08:37:39Z</time></trkpt><trkpt lat="45.81937774715186" lon="14.957655118596241"><ele>219.0</ele><time>2026-05-05T08:37:40Z</time></trkpt><trkpt lat="45.81919925674894" lon="14.957729672904131"><ele>224.0</ele><time>2026-05-05T08:37:41Z</time></trkpt><trkpt lat="45.81902518549087" lon="14.957741157335885"><ele>224.0</ele><time>2026-05-05T08:37:42Z</time></trkpt><trkpt lat="45.81886568999422" lon="14.957704330485607"><ele>224.0</ele><time>2026-05-05T08:37:43Z</time></trkpt><trkpt lat="45.81871172508343" lon="14.957575319438172"><ele>224.0</ele><time>2026-05-05T08:37:44Z</time></trkpt><trkpt lat="45.81856273516944" lon="14.957438850699921"><ele>213.66666666666669</ele><time>2026-05-05T08:37:45Z</time></trkpt><trkpt lat="45.818369547988176" lon="14.957342386170131"><ele>203.33333333333331</ele><time>2026-05-05T08:37:46Z</time></trkpt><trkpt lat="45.81814866008744" lon="14.957291768613667"><ele>193.0</ele><time>2026-05-05T08:37:47Z</time></trkpt><trkpt lat="45.81794189719185" lon="14.957270973694751"><ele>193.0</ele><time>2026-05-05T08:37:48Z</time></trkpt><trkpt lat="45.81775940176688" lon="14.957267907952572"><ele>193.0</ele><time>2026-05-05T08:37:49Z</time></trkpt><trkpt lat="45.81759337581914" lon="14.957308278621904"><ele>193.0</ele><time>2026-05-05T08:37:50Z</time></trkpt><trkpt lat="45.81742856188657" lon="14.957418833315044"><ele>195.0</ele><time>2026-05-05T08:37:51Z</time></trkpt><trkpt lat="45.81729253272557" lon="14.957600740626528"><ele>197.0</ele><time>2026-05-05T08:37:52Z</time></trkpt><trkpt lat="45.81718255181285" lon="14.957835031554776"><ele>199.0</ele><time>2026-05-05T08:37:53Z</time></trkpt><trkpt lat="45.81707708311409" lon="14.958136832862168"><ele>197.0</ele><time>2026-05-05T08:37:54Z</time></trkpt><trkpt lat="45.816947317465285" lon="14.958484102411347"><ele>195.0</ele><time>2026-05-05T08:37:55Z</time></trkpt><trkpt lat="45.81679944907665" lon="14.95887685026934"><ele>201.5</ele><time>2026-05-05T08:37:56Z</time></trkpt><trkpt lat="45.81664967479476" lon="14.959287517415229"><ele>208.0</ele><time>2026-05-05T08:37:57Z</time></trkpt><trkpt lat="45.81648384386946" lon="14.95968938537285"><ele>217.0</ele><time>2026-05-05T08:37:58Z</time></trkpt><trkpt lat="45.81631260873391" lon="14.960047422211137"><ele>226.0</ele><time>2026-05-05T08:37:59Z</time></trkpt><trkpt lat="45.81616232818916" lon="14.96039279942985"><ele>226.0</ele><time>2026-05-05T08:38:00Z</time></trkpt><trkpt lat="45.81604546309045" lon="14.960737844510053"><ele>226.0</ele><time>2026-05-05T08:38:01Z</time></trkpt><trkpt lat="45.81590663770101" lon="14.961066208326875"><ele>220.5</ele><time>2026-05-05T08:38:02Z</time></trkpt><trkpt lat="45.815714842464224" lon="14.96136724316462"><ele>215.0</ele><time>2026-05-05T08:38:03Z</time></trkpt><trkpt lat="45.81550392493067" lon="14.961652329158811"><ele>210.5</ele><time>2026-05-05T08:38:04Z</time></trkpt><trkpt lat="45.815272402905215" lon="14.961899249725956"><ele>206.0</ele><time>2026-05-05T08:38:05Z</time></trkpt><trkpt lat="45.81504676303488" lon="14.96210224406809"><ele>206.0</ele><time>2026-05-05T08:38:06Z</time></trkpt><trkpt lat="45.81483794321572" lon="14.962269719342313"><ele>206.0</ele><time>2026-05-05T08:38:07Z</time></trkpt><trkpt lat="45.81465035109667" lon="14.962447200241662"><ele>212.0</ele><time>2026-05-05T08:38:08Z</time></trkpt><trkpt lat="45.814489835880494" lon="14.96268278677778"><ele>218.0</ele><time>2026-05-05T08:38:09Z</time></trkpt><trkpt lat="45.81435846417439" lon="14.962968975219413"><ele>212.5</ele><time>2026-05-05T08:38:10Z</time></trkpt><trkpt lat="45.814239733504536" lon="14.963253317961637"><ele>207.0</ele><time>2026-05-05T08:38:11Z</time></trkpt><trkpt lat="45.81408832342963" lon="14.963502568994334"><ele>207.0</ele><time>2026-05-05T08:38:12Z</time></trkpt><trkpt lat="45.81389206029169" lon="14.96367385991703"><ele>207.0</ele><time>2026-05-05T08:38:13Z</time></trkpt><trkpt lat="45.81367880281954" lon="14.963813768307245"><ele>207.0</ele><time>2026-05-05T08:38:14Z</time></trkpt><trkpt lat="45.81350132072957" lon="14.963960507211835"><ele>207.0</ele><time>2026-05-05T08:38:15Z</time></trkpt><trkpt lat="45.81334930704815" lon="14.964112582445352"><ele>207.0</ele><time>2026-05-05T08:38:16Z</time></trkpt><trkpt lat="45.813211130501806" lon="14.964256031752456"><ele>206.66666666666669</ele><time>2026-05-05T08:38:17Z</time></trkpt><trkpt lat="45.81307786009951" lon="14.96439819988865"><ele>206.33333333333334</ele><time>2026-05-05T08:38:18Z</time></trkpt><trkpt lat="45.812955313090214" lon="14.964526375993659"><ele>206.0</ele><time>2026-05-05T08:38:19Z</time></trkpt><trkpt lat="45.81283807516133" lon="14.96464693937078"><ele>206.0</ele><time>2026-05-05T08:38:20Z</time></trkpt><trkpt lat="45.81272250625515" lon="14.96476554068355"><ele>206.0</ele><time>2026-05-05T08:38:21Z</time></trkpt><trkpt lat="45.81260952355243" lon="14.964877463230637"><ele>206.0</ele><time>2026-05-05T08:38:22Z</time></trkpt><trkpt lat="45.81249907395965" lon="14.964986119443362"><ele>206.0</ele><time>2026-05-05T08:38:23Z</time></trkpt><trkpt lat="45.81239527803145" lon="14.965089733497877"><ele>207.8</ele><time>2026-05-05T08:38:24Z</time></trkpt><trkpt lat="45.812294960554546" lon="14.965193206707067"><ele>209.60000000000002</ele><time>2026-05-05T08:38:25Z</time></trkpt><trkpt lat="45.81220676511914" lon="14.965280447403922"><ele>211.4</ele><time>2026-05-05T08:38:26Z</time></trkpt><trkpt lat="45.81212808197111" lon="14.965354232015537"><ele>213.2</ele><time>2026-05-05T08:38:27Z</time></trkpt><trkpt lat="45.812051090422614" lon="14.96542325116124"><ele>215.0</ele><time>2026-05-05T08:38:28Z</time></trkpt><trkpt lat="45.81196971319398" lon="14.965491123598456"><ele>215.0</ele><time>2026-05-05T08:38:29Z</time></trkpt><trkpt lat="45.811885284535435" lon="14.965556584749983"><ele>215.0</ele><time>2026-05-05T08:38:30Z</time></trkpt><trkpt lat="45.811797721122744" lon="14.965623407157791"><ele>215.0</ele><time>2026-05-05T08:38:31Z</time></trkpt><trkpt lat="45.81170774332896" lon="14.965682116263691"><ele>215.0</ele><time>2026-05-05T08:38:32Z</time></trkpt><trkpt lat="45.8116116956851" lon="14.9657361444613"><ele>215.0</ele><time>2026-05-05T08:38:33Z</time></trkpt><trkpt lat="45.81151396990537" lon="14.965779264977664"><ele>215.4</ele><time>2026-05-05T08:38:34Z</time></trkpt><trkpt lat="45.81141211920833" lon="14.965813069441817"><ele>215.8</ele><time>2026-05-05T08:38:35Z</time></trkpt><trkpt lat="45.81130963763304" lon="14.965847357118482"><ele>216.2</ele><time>2026-05-05T08:38:36Z</time></trkpt><trkpt lat="45.81120920348008" lon="14.965890299914179"><ele>216.6</ele><time>2026-05-05T08:38:37Z</time></trkpt><trkpt lat="45.81110331627906" lon="14.965941025902362"><ele>217.0</ele><time>2026-05-05T08:38:38Z</time></trkpt><trkpt lat="45.810997094667854" lon="14.965994175938482"><ele>213.39999999999998</ele><time>2026-05-05T08:38:39Z</time></trkpt><trkpt lat="45.810891705730384" lon="14.96605124252904"><ele>209.79999999999998</ele><time>2026-05-05T08:38:40Z</time></trkpt><trkpt lat="45.81078893195223" lon="14.966107369221794"><ele>206.2</ele><time>2026-05-05T08:38:41Z</time></trkpt><trkpt lat="45.810684998051684" lon="14.966164077043448"><ele>202.6</ele><time>2026-05-05T08:38:42Z</time></trkpt><trkpt lat="45.81057944476494" lon="14.966223169709082"><ele>199.0</ele><time>2026-05-05T08:38:43Z</time></trkpt><trkpt lat="45.81047618859394" lon="14.966285131920756"><ele>199.0</ele><time>2026-05-05T08:38:44Z</time></trkpt><trkpt lat="45.810377011554785" lon="14.96635843226444"><ele>199.0</ele><time>2026-05-05T08:38:45Z</time></trkpt><trkpt lat="45.81027556716664" lon="14.966437905770738"><ele>199.0</ele><time>2026-05-05T08:38:46Z</time></trkpt><trkpt lat="45.810175515524186" lon="14.96651398179847"><ele>199.0</ele><time>2026-05-05T08:38:47Z</time></trkpt><trkpt lat="45.81008136046662" lon="14.96659689208544"><ele>199.2</ele><time>2026-05-05T08:38:48Z</time></trkpt><trkpt lat="45.80999204461659" lon="14.966683955214112"><ele>199.39999999999998</ele><time>2026-05-05T08:38:49Z</time></trkpt><trkpt lat="45.80990173869216" lon="14.96677537443711"><ele>199.6</ele><time>2026-05-05T08:38:50Z</time></trkpt><trkpt lat="45.80981017178835" lon="14.966871048962254"><ele>199.8</ele><time>2026-05-05T08:38:51Z</time></trkpt><trkpt lat="45.809719288761585" lon="14.966964222302185"><ele>200.0</ele><time>2026-05-05T08:38:52Z</time></trkpt><trkpt lat="45.809627761981886" lon="14.96705553497333"><ele>200.0</ele><time>2026-05-05T08:38:53Z</time></trkpt><trkpt lat="45.809535202708005" lon="14.967148298279211"><ele>200.0</ele><time>2026-05-05T08:38:54Z</time></trkpt><trkpt lat="45.80943965779877" lon="14.967233344221828"><ele>200.0</ele><time>2026-05-05T08:38:55Z</time></trkpt><trkpt lat="45.809337409976024" lon="14.967300141885854"><ele>200.0</ele><time>2026-05-05T08:38:56Z</time></trkpt><trkpt lat="45.80922719998449" lon="14.967348010877163"><ele>200.0</ele><time>2026-05-05T08:38:57Z</time></trkpt><trkpt lat="45.809113715611524" lon="14.967380628458725"><ele>200.0</ele><time>2026-05-05T08:38:58Z</time></trkpt><trkpt lat="45.809001324955425" lon="14.967418259294245"><ele>200.0</ele><time>2026-05-05T08:38:59Z</time></trkpt><trkpt lat="45.8088911673525" lon="14.967474244933866"><ele>200.0</ele><time>2026-05-05T08:39:00Z</time></trkpt><trkpt lat="45.80878860037805" lon="14.967550773865227"><ele>200.0</ele><time>2026-05-05T08:39:01Z</time></trkpt><trkpt lat="45.80869214758022" lon="14.96764412073994"><ele>200.0</ele><time>2026-05-05T08:39:02Z</time></trkpt><trkpt lat="45.80860242382668" lon="14.967736407080405"><ele>200.0</ele><time>2026-05-05T08:39:03Z</time></trkpt><trkpt lat="45.808525524534396" lon="14.967814712772494"><ele>200.0</ele><time>2026-05-05T08:39:04Z</time></trkpt><trkpt lat="45.80846268413767" lon="14.967850060849633"><ele>200.0</ele><time>2026-05-05T08:39:05Z</time></trkpt><trkpt lat="45.80834951160304" lon="14.967751517861657"><ele>199.4</ele><time>2026-05-05T08:39:07Z</time></trkpt><trkpt lat="45.8083174363345" lon="14.967635798148764"><ele>198.8</ele><time>2026-05-05T08:39:08Z</time></trkpt><trkpt lat="45.8083002566603" lon="14.967503242616948"><ele>198.2</ele><time>2026-05-05T08:39:09Z</time></trkpt><trkpt lat="45.80829210887275" lon="14.967361599846603"><ele>197.6</ele><time>2026-05-05T08:39:10Z</time></trkpt><trkpt lat="45.80830988192783" lon="14.967213552100917"><ele>197.0</ele><time>2026-05-05T08:39:11Z</time></trkpt><trkpt lat="45.80834566802281" lon="14.96704892492209"><ele>196.0</ele><time>2026-05-05T08:39:12Z</time></trkpt><trkpt lat="45.80837713648901" lon="14.966868577283613"><ele>195.0</ele><time>2026-05-05T08:39:13Z</time></trkpt><trkpt lat="45.80839940155952" lon="14.966667245846502"><ele>194.0</ele><time>2026-05-05T08:39:14Z</time></trkpt><trkpt lat="45.808420908925584" lon="14.966457894493667"><ele>193.0</ele><time>2026-05-05T08:39:15Z</time></trkpt><trkpt lat="45.80844511552513" lon="14.966260104526954"><ele>192.25</ele><time>2026-05-05T08:39:16Z</time></trkpt><trkpt lat="45.80846953273669" lon="14.966076041018981"><ele>191.5</ele><time>2026-05-05T08:39:17Z</time></trkpt><trkpt lat="45.808493227240206" lon="14.96589524883963"><ele>190.75</ele><time>2026-05-05T08:39:18Z</time></trkpt><trkpt lat="45.80850599974396" lon="14.965718356045072"><ele>190.0</ele><time>2026-05-05T08:39:19Z</time></trkpt><trkpt lat="45.808471653021485" lon="14.9655371709288"><ele>189.0</ele><time>2026-05-05T08:39:20Z</time></trkpt><trkpt lat="45.80839540741765" lon="14.965374475150456"><ele>188.0</ele><time>2026-05-05T08:39:21Z</time></trkpt><trkpt lat="45.808315787905" lon="14.965205560469547"><ele>187.0</ele><time>2026-05-05T08:39:22Z</time></trkpt><trkpt lat="45.80827071773754" lon="14.9650318718349"><ele>186.0</ele><time>2026-05-05T08:39:23Z</time></trkpt><trkpt lat="45.80823690464396" lon="14.964871545835017"><ele>185.20000000000002</ele><time>2026-05-05T08:39:24Z</time></trkpt><trkpt lat="45.80819668676813" lon="14.96473702752121"><ele>184.4</ele><time>2026-05-05T08:39:25Z</time></trkpt><trkpt lat="45.80812737519599" lon="14.964645117702917"><ele>183.6</ele><time>2026-05-05T08:39:26Z</time></trkpt><trkpt lat="45.808036983349204" lon="14.964603723600998"><ele>182.8</ele><time>2026-05-05T08:39:27Z</time></trkpt><trkpt lat="45.807938095087685" lon="14.96458733061816"><ele>182.0</ele><time>2026-05-05T08:39:28Z</time></trkpt><trkpt lat="45.80784479355161" lon="14.964606373912531"><ele>182.0</ele><time>2026-05-05T08:39:29Z</time></trkpt><trkpt lat="45.80776654849982" lon="14.964643525194548"><ele>182.0</ele><time>2026-05-05T08:39:30Z</time></trkpt><trkpt lat="45.807718338873414" lon="14.964776034454033"><ele>182.0</ele><time>2026-05-05T08:39:31Z</time></trkpt><trkpt lat="45.807657303581365" lon="14.964914838366038"><ele>182.0</ele><time>2026-05-05T08:39:32Z</time></trkpt><trkpt lat="45.807598156732155" lon="14.96505848893639"><ele>182.0</ele><time>2026-05-05T08:39:33Z</time></trkpt><trkpt lat="45.8075309378734" lon="14.965214746823307"><ele>182.5</ele><time>2026-05-05T08:39:34Z</time></trkpt><trkpt lat="45.80745999515031" lon="14.965383779169457"><ele>183.0</ele><time>2026-05-05T08:39:35Z</time></trkpt><trkpt lat="45.807387406665484" lon="14.965544274141697"><ele>183.5</ele><time>2026-05-05T08:39:36Z</time></trkpt><trkpt lat="45.80732248077721" lon="14.96569864244783"><ele>184.0</ele><time>2026-05-05T08:39:37Z</time></trkpt><trkpt lat="45.807279829082965" lon="14.96585028724583"><ele>184.0</ele><time>2026-05-05T08:39:38Z</time></trkpt><trkpt lat="45.80725417016896" lon="14.965982044523516"><ele>184.0</ele><time>2026-05-05T08:39:39Z</time></trkpt><trkpt lat="45.80722855540758" lon="14.966087717383827"><ele>184.0</ele><time>2026-05-05T08:39:40Z</time></trkpt><trkpt lat="45.80709727586955" lon="14.966110426280403"><ele>184.0</ele><time>2026-05-05T08:39:42Z</time></trkpt><trkpt lat="45.8070417526026" lon="14.966027906980367"><ele>184.0</ele><time>2026-05-05T08:39:43Z</time></trkpt><trkpt lat="45.80702492002122" lon="14.965901861625582"><ele>184.0</ele><time>2026-05-05T08:39:44Z</time></trkpt><trkpt lat="45.807078862376024" lon="14.965777385191322"><ele>184.0</ele><time>2026-05-05T08:39:45Z</time></trkpt><trkpt lat="45.80715457056266" lon="14.965661703419444"><ele>184.0</ele><time>2026-05-05T08:39:46Z</time></trkpt><trkpt lat="45.80721699738694" lon="14.965520538070432"><ele>184.0</ele><time>2026-05-05T08:39:47Z</time></trkpt><trkpt lat="45.80729444513616" lon="14.965374231704205"><ele>184.0</ele><time>2026-05-05T08:39:48Z</time></trkpt><trkpt lat="45.80736060495682" lon="14.96521267884743"><ele>184.0</ele><time>2026-05-05T08:39:49Z</time></trkpt><trkpt lat="45.80741850763358" lon="14.965041392499968"><ele>184.0</ele><time>2026-05-05T08:39:50Z</time></trkpt><trkpt lat="45.80747057180115" lon="14.964865127970004"><ele>184.0</ele><time>2026-05-05T08:39:51Z</time></trkpt><trkpt lat="45.80752277253786" lon="14.96467955761889"><ele>184.0</ele><time>2026-05-05T08:39:52Z</time></trkpt><trkpt lat="45.807583568863244" lon="14.964499468847231"><ele>184.0</ele><time>2026-05-05T08:39:53Z</time></trkpt><trkpt lat="45.8076811708205" lon="14.964368561540482"><ele>184.0</ele><time>2026-05-05T08:39:54Z</time></trkpt><trkpt lat="45.80775250718984" lon="14.96422186287111"><ele>184.0</ele><time>2026-05-05T08:39:55Z</time></trkpt><trkpt lat="45.80780849650307" lon="14.964089857962135"><ele>184.0</ele><time>2026-05-05T08:39:56Z</time></trkpt><trkpt lat="45.80780323426869" lon="14.963945272677632"><ele>184.0</ele><time>2026-05-05T08:39:57Z</time></trkpt><trkpt lat="45.807738697906125" lon="14.963805660157227"><ele>184.0</ele><time>2026-05-05T08:39:58Z</time></trkpt><trkpt lat="45.807649042370876" lon="14.96368016043327"><ele>184.0</ele><time>2026-05-05T08:39:59Z</time></trkpt><trkpt lat="45.807573770561014" lon="14.96352670795793"><ele>189.25</ele><time>2026-05-05T08:40:00Z</time></trkpt><trkpt lat="45.807540125393956" lon="14.963344067142513"><ele>194.5</ele><time>2026-05-05T08:40:01Z</time></trkpt><trkpt lat="45.80756766829266" lon="14.963160922509863"><ele>199.75</ele><time>2026-05-05T08:40:02Z</time></trkpt><trkpt lat="45.807562627872905" lon="14.962983273147914"><ele>205.0</ele><time>2026-05-05T08:40:03Z</time></trkpt><trkpt lat="45.80758133188187" lon="14.962841940244065"><ele>205.0</ele><time>2026-05-05T08:40:04Z</time></trkpt><trkpt lat="45.80761782692293" lon="14.96271406494097"><ele>205.0</ele><time>2026-05-05T08:40:05Z</time></trkpt><trkpt lat="45.8076854687174" lon="14.962622204937485"><ele>205.0</ele><time>2026-05-05T08:40:06Z</time></trkpt><trkpt lat="45.80778064476604" lon="14.96256338219551"><ele>205.0</ele><time>2026-05-05T08:40:07Z</time></trkpt><trkpt lat="45.807884541134484" lon="14.96251607188185"><ele>205.0</ele><time>2026-05-05T08:40:08Z</time></trkpt><trkpt lat="45.80799294928556" lon="14.962448059075285"><ele>203.0</ele><time>2026-05-05T08:40:09Z</time></trkpt><trkpt lat="45.808104677603566" lon="14.962355704851854"><ele>201.0</ele><time>2026-05-05T08:40:10Z</time></trkpt><trkpt lat="45.808217834459384" lon="14.962245409428782"><ele>199.0</ele><time>2026-05-05T08:40:11Z</time></trkpt><trkpt lat="45.80832472533207" lon="14.962118182951915"><ele>197.0</ele><time>2026-05-05T08:40:12Z</time></trkpt><trkpt lat="45.808418359020685" lon="14.961990844847477"><ele>197.0</ele><time>2026-05-05T08:40:13Z</time></trkpt><trkpt lat="45.80849660325471" lon="14.96186557055299"><ele>197.0</ele><time>2026-05-05T08:40:14Z</time></trkpt><trkpt lat="45.808550006176716" lon="14.961722777251511"><ele>197.0</ele><time>2026-05-05T08:40:15Z</time></trkpt><trkpt lat="45.80857370972323" lon="14.961557921115238"><ele>197.0</ele><time>2026-05-05T08:40:16Z</time></trkpt><trkpt lat="45.80856326336401" lon="14.961389972198292"><ele>197.0</ele><time>2026-05-05T08:40:17Z</time></trkpt><trkpt lat="45.80850575436825" lon="14.961242995023955"><ele>197.0</ele><time>2026-05-05T08:40:18Z</time></trkpt><trkpt lat="45.80841886499751" lon="14.961108035052773"><ele>197.0</ele><time>2026-05-05T08:40:19Z</time></trkpt><trkpt lat="45.8083040390967" lon="14.960992414220149"><ele>197.0</ele><time>2026-05-05T08:40:20Z</time></trkpt><trkpt lat="45.80818282131149" lon="14.960863918761934"><ele>200.33333333333334</ele><time>2026-05-05T08:40:21Z</time></trkpt><trkpt lat="45.80804690314153" lon="14.96072313332613"><ele>203.66666666666669</ele><time>2026-05-05T08:40:22Z</time></trkpt><trkpt lat="45.80792629141717" lon="14.9605493981032"><ele>207.0</ele><time>2026-05-05T08:40:23Z</time></trkpt><trkpt lat="45.80781630186647" lon="14.960346745440368"><ele>207.0</ele><time>2026-05-05T08:40:24Z</time></trkpt><trkpt lat="45.807726369280296" lon="14.960118143355727"><ele>207.0</ele><time>2026-05-05T08:40:25Z</time></trkpt><trkpt lat="45.8076351963681" lon="14.959880582128033"><ele>207.0</ele><time>2026-05-05T08:40:26Z</time></trkpt><trkpt lat="45.80754528297701" lon="14.959642284753002"><ele>206.66666666666669</ele><time>2026-05-05T08:40:27Z</time></trkpt><trkpt lat="45.80746227191344" lon="14.959408735473716"><ele>206.33333333333334</ele><time>2026-05-05T08:40:28Z</time></trkpt><trkpt lat="45.80737907812322" lon="14.959169340560514"><ele>206.0</ele><time>2026-05-05T08:40:29Z</time></trkpt><trkpt lat="45.80735822581571" lon="14.958895467097218"><ele>205.66666666666669</ele><time>2026-05-05T08:40:30Z</time></trkpt><trkpt lat="45.80736365991361" lon="14.958612878725374"><ele>205.33333333333331</ele><time>2026-05-05T08:40:31Z</time></trkpt><trkpt lat="45.80740615843206" lon="14.958334019743331"><ele>205.0</ele><time>2026-05-05T08:40:32Z</time></trkpt><trkpt lat="45.80746060519715" lon="14.958061205962098"><ele>205.0</ele><time>2026-05-05T08:40:33Z</time></trkpt><trkpt lat="45.80750555992918" lon="14.95778231576169"><ele>205.0</ele><time>2026-05-05T08:40:34Z</time></trkpt><trkpt lat="45.8075646746353" lon="14.957513143963503"><ele>205.0</ele><time>2026-05-05T08:40:35Z</time></trkpt><trkpt lat="45.807613279133896" lon="14.957240725366082"><ele>205.0</ele><time>2026-05-05T08:40:36Z</time></trkpt><trkpt lat="45.807648556475165" lon="14.956964771820548"><ele>205.0</ele><time>2026-05-05T08:40:37Z</time></trkpt><trkpt lat="45.80767016430999" lon="14.956692965515922"><ele>205.0</ele><time>2026-05-05T08:40:38Z</time></trkpt><trkpt lat="45.80767754211024" lon="14.956418484474943"><ele>204.33333333333331</ele><time>2026-05-05T08:40:39Z</time></trkpt><trkpt lat="45.80766658467187" lon="14.956142091520608"><ele>203.66666666666669</ele><time>2026-05-05T08:40:40Z</time></trkpt><trkpt lat="45.80762948904684" lon="14.955864654258658"><ele>203.0</ele><time>2026-05-05T08:40:41Z</time></trkpt><trkpt lat="45.80755482498726" lon="14.955598968075709"><ele>204.33333333333334</ele><time>2026-05-05T08:40:42Z</time></trkpt><trkpt lat="45.807448638154696" lon="14.955355835784326"><ele>205.66666666666669</ele><time>2026-05-05T08:40:43Z</time></trkpt><trkpt lat="45.80729764358483" lon="14.955154161466723"><ele>207.0</ele><time>2026-05-05T08:40:44Z</time></trkpt><trkpt lat="45.80711210036667" lon="14.954982858687552"><ele>207.0</ele><time>2026-05-05T08:40:45Z</time></trkpt><trkpt lat="45.806897844748" lon="14.954853485868002"><ele>207.0</ele><time>2026-05-05T08:40:46Z</time></trkpt><trkpt lat="45.806673887721935" lon="14.954746963457657"><ele>207.0</ele><time>2026-05-05T08:40:47Z</time></trkpt><trkpt lat="45.80646295971605" lon="14.954609526195446"><ele>207.0</ele><time>2026-05-05T08:40:48Z</time></trkpt><trkpt lat="45.80626119328202" lon="14.954488987703117"><ele>207.0</ele><time>2026-05-05T08:40:49Z</time></trkpt><trkpt lat="45.80606980294045" lon="14.95436899956892"><ele>207.0</ele><time>2026-05-05T08:40:50Z</time></trkpt><trkpt lat="45.80588574768471" lon="14.95423934599591"><ele>207.0</ele><time>2026-05-05T08:40:51Z</time></trkpt><trkpt lat="45.80570101708021" lon="14.95411272483047"><ele>208.0</ele><time>2026-05-05T08:40:52Z</time></trkpt><trkpt lat="45.805542984842" lon="14.953910439057745"><ele>209.0</ele><time>2026-05-05T08:40:53Z</time></trkpt><trkpt lat="45.805380278636164" lon="14.953698604122161"><ele>210.0</ele><time>2026-05-05T08:40:54Z</time></trkpt><trkpt lat="45.805215713001026" lon="14.953469216844491"><ele>210.0</ele><time>2026-05-05T08:40:55Z</time></trkpt><trkpt lat="45.80504408512611" lon="14.953249095326608"><ele>210.0</ele><time>2026-05-05T08:40:56Z</time></trkpt><trkpt lat="45.8048905935682" lon="14.953008018329527"><ele>210.0</ele><time>2026-05-05T08:40:57Z</time></trkpt><trkpt lat="45.804741059872185" lon="14.952775595249156"><ele>210.0</ele><time>2026-05-05T08:40:58Z</time></trkpt><trkpt lat="45.80458529960283" lon="14.952559967835859"><ele>210.0</ele><time>2026-05-05T08:40:59Z</time></trkpt><trkpt lat="45.804410722608075" lon="14.952377806295743"><ele>212.0</ele><time>2026-05-05T08:41:00Z</time></trkpt><trkpt lat="45.804208368222575" lon="14.952264120621109"><ele>214.0</ele><time>2026-05-05T08:41:01Z</time></trkpt><trkpt lat="45.803981589611006" lon="14.952220691178477"><ele>216.0</ele><time>2026-05-05T08:41:02Z</time></trkpt><trkpt lat="45.80375607664633" lon="14.952238251292991"><ele>216.0</ele><time>2026-05-05T08:41:03Z</time></trkpt><trkpt lat="45.80353678913322" lon="14.952284374780906"><ele>216.0</ele><time>2026-05-05T08:41:04Z</time></trkpt><trkpt lat="45.80331290759493" lon="14.952341959890802"><ele>216.0</ele><time>2026-05-05T08:41:05Z</time></trkpt><trkpt lat="45.80307157813862" lon="14.952424996462108"><ele>219.0</ele><time>2026-05-05T08:41:06Z</time></trkpt><trkpt lat="45.802812423959416" lon="14.952522752270223"><ele>222.0</ele><time>2026-05-05T08:41:07Z</time></trkpt><trkpt lat="45.802524258611044" lon="14.952612588611638"><ele>222.0</ele><time>2026-05-05T08:41:08Z</time></trkpt><trkpt lat="45.80219899974009" lon="14.952648696703479"><ele>222.0</ele><time>2026-05-05T08:41:09Z</time></trkpt><trkpt lat="45.801866165493976" lon="14.952713895797922"><ele>224.0</ele><time>2026-05-05T08:41:10Z</time></trkpt><trkpt lat="45.801535088394566" lon="14.952739032375666"><ele>226.0</ele><time>2026-05-05T08:41:11Z</time></trkpt><trkpt lat="45.80121156295501" lon="14.952745475946692"><ele>230.0</ele><time>2026-05-05T08:41:12Z</time></trkpt><trkpt lat="45.80089853097938" lon="14.952722350234652"><ele>234.0</ele><time>2026-05-05T08:41:13Z</time></trkpt><trkpt lat="45.800593785310525" lon="14.952668757297053"><ele>234.0</ele><time>2026-05-05T08:41:14Z</time></trkpt><trkpt lat="45.800287665927954" lon="14.952602791752323"><ele>234.0</ele><time>2026-05-05T08:41:15Z</time></trkpt><trkpt lat="45.79997192191105" lon="14.952541990631142"><ele>244.0</ele><time>2026-05-05T08:41:16Z</time></trkpt><trkpt lat="45.79964330461966" lon="14.952535539628727"><ele>254.0</ele><time>2026-05-05T08:41:17Z</time></trkpt><trkpt lat="45.799302475787876" lon="14.952600461149396"><ele>254.0</ele><time>2026-05-05T08:41:18Z</time></trkpt><trkpt lat="45.798954523211854" lon="14.952686248949702"><ele>254.0</ele><time>2026-05-05T08:41:19Z</time></trkpt><trkpt lat="45.798622206828036" lon="14.952715672221363"><ele>257.5</ele><time>2026-05-05T08:41:20Z</time></trkpt><trkpt lat="45.79830699521894" lon="14.952739768562244"><ele>261.0</ele><time>2026-05-05T08:41:21Z</time></trkpt><trkpt lat="45.79802319006771" lon="14.952771560327133"><ele>261.0</ele><time>2026-05-05T08:41:22Z</time></trkpt><trkpt lat="45.79774990154658" lon="14.952797922394922"><ele>261.0</ele><time>2026-05-05T08:41:23Z</time></trkpt><trkpt lat="45.79747319751163" lon="14.95283799608507"><ele>264.5</ele><time>2026-05-05T08:41:24Z</time></trkpt><trkpt lat="45.79722281790221" lon="14.953087907646047"><ele>268.0</ele><time>2026-05-05T08:41:25Z</time></trkpt><trkpt lat="45.796978367253345" lon="14.953294433325457"><ele>270.5</ele><time>2026-05-05T08:41:26Z</time></trkpt><trkpt lat="45.79671884344834" lon="14.953510026765453"><ele>273.0</ele><time>2026-05-05T08:41:27Z</time></trkpt><trkpt lat="45.79645449137828" lon="14.9537091256724"><ele>273.0</ele><time>2026-05-05T08:41:28Z</time></trkpt><trkpt lat="45.79617144612206" lon="14.953928093867548"><ele>273.0</ele><time>2026-05-05T08:41:29Z</time></trkpt><trkpt lat="45.795893201379954" lon="14.954166764894499"><ele>277.0</ele><time>2026-05-05T08:41:30Z</time></trkpt><trkpt lat="45.795631325291986" lon="14.954410512426607"><ele>281.0</ele><time>2026-05-05T08:41:31Z</time></trkpt><trkpt lat="45.79539476520056" lon="14.954629611671555"><ele>281.0</ele><time>2026-05-05T08:41:32Z</time></trkpt><trkpt lat="45.79518368600869" lon="14.95482291399084"><ele>281.0</ele><time>2026-05-05T08:41:33Z</time></trkpt><trkpt lat="45.79500435953699" lon="14.954989083055802"><ele>281.5</ele><time>2026-05-05T08:41:34Z</time></trkpt><trkpt lat="45.79485807423243" lon="14.955127240171736"><ele>282.0</ele><time>2026-05-05T08:41:35Z</time></trkpt><trkpt lat="45.79475116022985" lon="14.955257504804605"><ele>282.5</ele><time>2026-05-05T08:41:36Z</time></trkpt><trkpt lat="45.79467373469551" lon="14.955374799426899"><ele>283.0</ele><time>2026-05-05T08:41:37Z</time></trkpt><trkpt lat="45.79459816898298" lon="14.955455027976255"><ele>283.0</ele><time>2026-05-05T08:41:38Z</time></trkpt><trkpt lat="45.79450717127491" lon="14.955466286269608"><ele>283.0</ele><time>2026-05-05T08:41:39Z</time></trkpt><trkpt lat="45.794426795127485" lon="14.955403612046746"><ele>283.0</ele><time>2026-05-05T08:41:40Z</time></trkpt><trkpt lat="45.79437745488916" lon="14.955284758583616"><ele>283.0</ele><time>2026-05-05T08:41:41Z</time></trkpt><trkpt lat="45.79437470611859" lon="14.955139063217992"><ele>283.0</ele><time>2026-05-05T08:41:42Z</time></trkpt><trkpt lat="45.79442409787138" lon="14.954995824390863"><ele>286.75</ele><time>2026-05-05T08:41:43Z</time></trkpt><trkpt lat="45.79452205484131" lon="14.954884327501741"><ele>290.5</ele><time>2026-05-05T08:41:44Z</time></trkpt><trkpt lat="45.79466100662228" lon="14.954794458297712"><ele>294.25</ele><time>2026-05-05T08:41:45Z</time></trkpt><trkpt lat="45.79481961056863" lon="14.954699685474456"><ele>298.0</ele><time>2026-05-05T08:41:46Z</time></trkpt><trkpt lat="45.79494728302478" lon="14.954549763718584"><ele>298.0</ele><time>2026-05-05T08:41:47Z</time></trkpt><trkpt lat="45.79504109179121" lon="14.954314883082212"><ele>298.0</ele><time>2026-05-05T08:41:48Z</time></trkpt><trkpt lat="45.79509749092094" lon="14.95403378866264"><ele>298.0</ele><time>2026-05-05T08:41:49Z</time></trkpt><trkpt lat="45.79514213361066" lon="14.953695078716846"><ele>300.0</ele><time>2026-05-05T08:41:50Z</time></trkpt><trkpt lat="45.79521225377384" lon="14.953351927506116"><ele>302.0</ele><time>2026-05-05T08:41:51Z</time></trkpt><trkpt lat="45.79534762454793" lon="14.953034437719523"><ele>302.0</ele><time>2026-05-05T08:41:52Z</time></trkpt><trkpt lat="45.795533909172704" lon="14.952762078888822"><ele>302.0</ele><time>2026-05-05T08:41:53Z</time></trkpt><trkpt lat="45.795765980009634" lon="14.952516445712007"><ele>307.0</ele><time>2026-05-05T08:41:54Z</time></trkpt><trkpt lat="45.79601528031149" lon="14.952260926628352"><ele>312.0</ele><time>2026-05-05T08:41:55Z</time></trkpt><trkpt lat="45.79627521516871" lon="14.951979928113822"><ele>312.0</ele><time>2026-05-05T08:41:56Z</time></trkpt><trkpt lat="45.796499507452204" lon="14.951712744041663"><ele>312.0</ele><time>2026-05-05T08:41:57Z</time></trkpt><trkpt lat="45.796703508968456" lon="14.951476589658807"><ele>314.0</ele><time>2026-05-05T08:41:58Z</time></trkpt><trkpt lat="45.79689322131825" lon="14.951255324962007"><ele>316.0</ele><time>2026-05-05T08:41:59Z</time></trkpt><trkpt lat="45.797070061692416" lon="14.951053204044067"><ele>316.0</ele><time>2026-05-05T08:42:00Z</time></trkpt><trkpt lat="45.79723037468329" lon="14.950877698828856"><ele>316.0</ele><time>2026-05-05T08:42:01Z</time></trkpt><trkpt lat="45.797385861332415" lon="14.950735490643895"><ele>316.0</ele><time>2026-05-05T08:42:02Z</time></trkpt><trkpt lat="45.797534904904445" lon="14.95063999650876"><ele>317.4</ele><time>2026-05-05T08:42:03Z</time></trkpt><trkpt lat="45.79767698150882" lon="14.950594709858155"><ele>318.8</ele><time>2026-05-05T08:42:04Z</time></trkpt><trkpt lat="45.79779899346724" lon="14.9505817450501"><ele>320.2</ele><time>2026-05-05T08:42:05Z</time></trkpt><trkpt lat="45.79789314969296" lon="14.950566620200505"><ele>321.59999999999997</ele><time>2026-05-05T08:42:06Z</time></trkpt><trkpt lat="45.79796520992248" lon="14.950505994409609"><ele>323.0</ele><time>2026-05-05T08:42:07Z</time></trkpt><trkpt lat="45.79801022337993" lon="14.950391387603572"><ele>323.0</ele><time>2026-05-05T08:42:08Z</time></trkpt><trkpt lat="45.79802273506008" lon="14.950252557397961"><ele>323.0</ele><time>2026-05-05T08:42:09Z</time></trkpt><trkpt lat="45.797996468743676" lon="14.95012872265219"><ele>323.0</ele><time>2026-05-05T08:42:10Z</time></trkpt><trkpt lat="45.797921275052" lon="14.950044205252011"><ele>323.0</ele><time>2026-05-05T08:42:11Z</time></trkpt><trkpt lat="45.79781889764937" lon="14.950022102299007"><ele>323.0</ele><time>2026-05-05T08:42:12Z</time></trkpt><trkpt lat="45.797706169658035" lon="14.950076467198436"><ele>324.6666666666667</ele><time>2026-05-05T08:42:13Z</time></trkpt><trkpt lat="45.79759779869396" lon="14.950210798436546"><ele>326.3333333333333</ele><time>2026-05-05T08:42:14Z</time></trkpt><trkpt lat="45.797471328864205" lon="14.950385781691127"><ele>328.0</ele><time>2026-05-05T08:42:15Z</time></trkpt><trkpt lat="45.7973002349921" lon="14.950535571667805"><ele>328.0</ele><time>2026-05-05T08:42:16Z</time></trkpt><trkpt lat="45.79707110390815" lon="14.95065392199148"><ele>328.0</ele><time>2026-05-05T08:42:17Z</time></trkpt><trkpt lat="45.796789727315314" lon="14.950749573711764"><ele>329.0</ele><time>2026-05-05T08:42:18Z</time></trkpt><trkpt lat="45.796481914209764" lon="14.950853757765595"><ele>330.0</ele><time>2026-05-05T08:42:19Z</time></trkpt><trkpt lat="45.79614792910893" lon="14.950959612582524"><ele>334.5</ele><time>2026-05-05T08:42:20Z</time></trkpt><trkpt lat="45.795810098477574" lon="14.951070105060442"><ele>339.0</ele><time>2026-05-05T08:42:21Z</time></trkpt><trkpt lat="45.79550381811104" lon="14.951174531639037"><ele>339.0</ele><time>2026-05-05T08:42:22Z</time></trkpt><trkpt lat="45.79524960204347" lon="14.951250386673793"><ele>339.0</ele><time>2026-05-05T08:42:23Z</time></trkpt><trkpt lat="45.79504288317819" lon="14.951276689923365"><ele>342.6666666666667</ele><time>2026-05-05T08:42:24Z</time></trkpt><trkpt lat="45.794842509450966" lon="14.951259807969763"><ele>346.33333333333337</ele><time>2026-05-05T08:42:25Z</time></trkpt><trkpt lat="45.79465628757845" lon="14.95118869228981"><ele>350.0</ele><time>2026-05-05T08:42:26Z</time></trkpt><trkpt lat="45.79446541374109" lon="14.951082340027487"><ele>351.6666666666667</ele><time>2026-05-05T08:42:27Z</time></trkpt><trkpt lat="45.794290055502124" lon="14.950944373375894"><ele>353.3333333333333</ele><time>2026-05-05T08:42:28Z</time></trkpt><trkpt lat="45.79411998011388" lon="14.950764790726533"><ele>355.0</ele><time>2026-05-05T08:42:29Z</time></trkpt><trkpt lat="45.79396064658443" lon="14.950549194942065"><ele>359.5</ele><time>2026-05-05T08:42:30Z</time></trkpt><trkpt lat="45.793792170057635" lon="14.950318547859627"><ele>364.0</ele><time>2026-05-05T08:42:31Z</time></trkpt><trkpt lat="45.793654325329555" lon="14.950055013206361"><ele>364.3333333333333</ele><time>2026-05-05T08:42:32Z</time></trkpt><trkpt lat="45.79352155155754" lon="14.949840075428842"><ele>364.6666666666667</ele><time>2026-05-05T08:42:33Z</time></trkpt><trkpt lat="45.793434278880866" lon="14.949621994580497"><ele>365.0</ele><time>2026-05-05T08:42:34Z</time></trkpt><trkpt lat="45.793350960821186" lon="14.949428549635451"><ele>365.0</ele><time>2026-05-05T08:42:35Z</time></trkpt><trkpt lat="45.793256413105844" lon="14.949277278404876"><ele>365.0</ele><time>2026-05-05T08:42:36Z</time></trkpt><trkpt lat="45.793152038492074" lon="14.949169528603377"><ele>365.0</ele><time>2026-05-05T08:42:37Z</time></trkpt><trkpt lat="45.79304148872363" lon="14.949092582157325"><ele>365.0</ele><time>2026-05-05T08:42:38Z</time></trkpt><trkpt lat="45.79294871753678" lon="14.94899856851935"><ele>367.25</ele><time>2026-05-05T08:42:39Z</time></trkpt><trkpt lat="45.79288420831177" lon="14.948869483570778"><ele>369.5</ele><time>2026-05-05T08:42:40Z</time></trkpt><trkpt lat="45.7928031113944" lon="14.948751828076514"><ele>371.75</ele><time>2026-05-05T08:42:41Z</time></trkpt><trkpt lat="45.79273857708703" lon="14.948607301208511"><ele>374.0</ele><time>2026-05-05T08:42:42Z</time></trkpt><trkpt lat="45.792673351110444" lon="14.948469499781508"><ele>374.0</ele><time>2026-05-05T08:42:43Z</time></trkpt><trkpt lat="45.79260745893266" lon="14.94834068048371"><ele>374.0</ele><time>2026-05-05T08:42:44Z</time></trkpt><trkpt lat="45.79253880702324" lon="14.948211651791926"><ele>374.0</ele><time>2026-05-05T08:42:45Z</time></trkpt><trkpt lat="45.79247047512761" lon="14.94807948676016"><ele>374.0</ele><time>2026-05-05T08:42:46Z</time></trkpt><trkpt lat="45.79238920609149" lon="14.94796830821045"><ele>374.0</ele><time>2026-05-05T08:42:47Z</time></trkpt><trkpt lat="45.79230918466812" lon="14.947879296522107"><ele>374.0</ele><time>2026-05-05T08:42:48Z</time></trkpt><trkpt lat="45.79222933229468" lon="14.947799534524755"><ele>374.0</ele><time>2026-05-05T08:42:49Z</time></trkpt><trkpt lat="45.79214513197512" lon="14.947739621296185"><ele>374.0</ele><time>2026-05-05T08:42:50Z</time></trkpt><trkpt lat="45.79205547832542" lon="14.94769675701146"><ele>374.0</ele><time>2026-05-05T08:42:51Z</time></trkpt><trkpt lat="45.791964416846014" lon="14.947668015499694"><ele>374.0</ele><time>2026-05-05T08:42:52Z</time></trkpt><trkpt lat="45.79187108070953" lon="14.947668012062863"><ele>374.0</ele><time>2026-05-05T08:42:53Z</time></trkpt><trkpt lat="45.79177639277463" lon="14.947697705490166"><ele>374.0</ele><time>2026-05-05T08:42:54Z</time></trkpt><trkpt lat="45.79168050710534" lon="14.9477392318947"><ele>374.0</ele><time>2026-05-05T08:42:55Z</time></trkpt><trkpt lat="45.791577378306535" lon="14.947787533226343"><ele>374.0</ele><time>2026-05-05T08:42:56Z</time></trkpt><trkpt lat="45.7914706307924" lon="14.947843707840715"><ele>374.0</ele><time>2026-05-05T08:42:57Z</time></trkpt><trkpt lat="45.79136260934591" lon="14.947895838641656"><ele>374.0</ele><time>2026-05-05T08:42:58Z</time></trkpt><trkpt lat="45.791255117512996" lon="14.947936437596786"><ele>374.0</ele><time>2026-05-05T08:42:59Z</time></trkpt><trkpt lat="45.791144677530774" lon="14.94795931630466"><ele>374.0</ele><time>2026-05-05T08:43:00Z</time></trkpt><trkpt lat="45.79102951562282" lon="14.94795901898547"><ele>377.0</ele><time>2026-05-05T08:43:01Z</time></trkpt><trkpt lat="45.79091573264385" lon="14.947929885701136"><ele>380.0</ele><time>2026-05-05T08:43:02Z</time></trkpt><trkpt lat="45.79079777024403" lon="14.947876881652274"><ele>383.0</ele><time>2026-05-05T08:43:03Z</time></trkpt><trkpt lat="45.790682143069255" lon="14.947790259336571"><ele>386.0</ele><time>2026-05-05T08:43:04Z</time></trkpt><trkpt lat="45.79056146469961" lon="14.94768367548629"><ele>386.0</ele><time>2026-05-05T08:43:05Z</time></trkpt><trkpt lat="45.79043162130622" lon="14.947575043507978"><ele>386.0</ele><time>2026-05-05T08:43:06Z</time></trkpt><trkpt lat="45.79029506777506" lon="14.947457383037607"><ele>386.0</ele><time>2026-05-05T08:43:07Z</time></trkpt><trkpt lat="45.79014821931718" lon="14.947340753126236"><ele>386.0</ele><time>2026-05-05T08:43:08Z</time></trkpt><trkpt lat="45.789986689243015" lon="14.9472161377752"><ele>386.0</ele><time>2026-05-05T08:43:09Z</time></trkpt><trkpt lat="45.78982222277111" lon="14.94709377763166"><ele>386.0</ele><time>2026-05-05T08:43:10Z</time></trkpt><trkpt lat="45.78965067018055" lon="14.946973057420603"><ele>386.0</ele><time>2026-05-05T08:43:11Z</time></trkpt><trkpt lat="45.78946037296627" lon="14.946858574538457"><ele>386.0</ele><time>2026-05-05T08:43:12Z</time></trkpt><trkpt lat="45.78925825622191" lon="14.946758917288681"><ele>386.0</ele><time>2026-05-05T08:43:13Z</time></trkpt><trkpt lat="45.78906069413469" lon="14.946685006760363"><ele>384.66666666666663</ele><time>2026-05-05T08:43:14Z</time></trkpt><trkpt lat="45.78887340324738" lon="14.946631379908423"><ele>383.3333333333333</ele><time>2026-05-05T08:43:15Z</time></trkpt><trkpt lat="45.78870194295375" lon="14.94658462113442"><ele>382.0</ele><time>2026-05-05T08:43:16Z</time></trkpt><trkpt lat="45.78852315212411" lon="14.946522086675031"><ele>385.66666666666663</ele><time>2026-05-05T08:43:17Z</time></trkpt><trkpt lat="45.78834278052332" lon="14.946417597482798"><ele>389.3333333333333</ele><time>2026-05-05T08:43:18Z</time></trkpt><trkpt lat="45.78817327513418" lon="14.94622780352485"><ele>393.0</ele><time>2026-05-05T08:43:19Z</time></trkpt><trkpt lat="45.78800119973782" lon="14.9460015646823"><ele>393.5</ele><time>2026-05-05T08:43:20Z</time></trkpt><trkpt lat="45.78781339467629" lon="14.945763607143007"><ele>394.0</ele><time>2026-05-05T08:43:21Z</time></trkpt><trkpt lat="45.78763053014959" lon="14.945492953206651"><ele>394.0</ele><time>2026-05-05T08:43:22Z</time></trkpt><trkpt lat="45.787452661243854" lon="14.945231822310406"><ele>394.0</ele><time>2026-05-05T08:43:23Z</time></trkpt><trkpt lat="45.787280365764914" lon="14.944990613368509"><ele>396.33333333333337</ele><time>2026-05-05T08:43:24Z</time></trkpt><trkpt lat="45.787116852965" lon="14.9447663889381"><ele>398.66666666666663</ele><time>2026-05-05T08:43:25Z</time></trkpt><trkpt lat="45.78695919743422" lon="14.94457011531712"><ele>401.0</ele><time>2026-05-05T08:43:26Z</time></trkpt><trkpt lat="45.78678325850561" lon="14.944418424341066"><ele>401.0</ele><time>2026-05-05T08:43:27Z</time></trkpt><trkpt lat="45.78658051208231" lon="14.94431105591872"><ele>401.0</ele><time>2026-05-05T08:43:28Z</time></trkpt><trkpt lat="45.78636119404944" lon="14.944250619189786"><ele>401.0</ele><time>2026-05-05T08:43:29Z</time></trkpt><trkpt lat="45.7861323226982" lon="14.944224832887427"><ele>398.66666666666663</ele><time>2026-05-05T08:43:30Z</time></trkpt><trkpt lat="45.78592188463691" lon="14.944209648078306"><ele>396.33333333333337</ele><time>2026-05-05T08:43:31Z</time></trkpt><trkpt lat="45.78573294785449" lon="14.944161051312113"><ele>394.0</ele><time>2026-05-05T08:43:32Z</time></trkpt><trkpt lat="45.78555477619666" lon="14.944061809784207"><ele>394.0</ele><time>2026-05-05T08:43:33Z</time></trkpt><trkpt lat="45.78539510735424" lon="14.94392140100755"><ele>394.0</ele><time>2026-05-05T08:43:34Z</time></trkpt><trkpt lat="45.78528128992882" lon="14.94371943965477"><ele>394.0</ele><time>2026-05-05T08:43:35Z</time></trkpt><trkpt lat="45.78517687533201" lon="14.943508704768247"><ele>393.6666666666667</ele><time>2026-05-05T08:43:36Z</time></trkpt><trkpt lat="45.78515006721788" lon="14.943241523302063"><ele>393.33333333333337</ele><time>2026-05-05T08:43:37Z</time></trkpt><trkpt lat="45.785156359884844" lon="14.942989997344238"><ele>393.0</ele><time>2026-05-05T08:43:38Z</time></trkpt><trkpt lat="45.785190624067155" lon="14.942732997611653"><ele>390.66666666666663</ele><time>2026-05-05T08:43:39Z</time></trkpt><trkpt lat="45.78523983790876" lon="14.94245852299381"><ele>388.3333333333333</ele><time>2026-05-05T08:43:40Z</time></trkpt><trkpt lat="45.78535642521815" lon="14.9421695302832"><ele>386.0</ele><time>2026-05-05T08:43:41Z</time></trkpt><trkpt lat="45.78552820051285" lon="14.941908975796363"><ele>390.5</ele><time>2026-05-05T08:43:42Z</time></trkpt><trkpt lat="45.7856907505899" lon="14.941609733507144"><ele>395.0</ele><time>2026-05-05T08:43:43Z</time></trkpt><trkpt lat="45.785851360168664" lon="14.94132225458166"><ele>395.0</ele><time>2026-05-05T08:43:44Z</time></trkpt><trkpt lat="45.78598766882086" lon="14.941008559787404"><ele>395.0</ele><time>2026-05-05T08:43:45Z</time></trkpt><trkpt lat="45.78609295828775" lon="14.940673977748428"><ele>397.0</ele><time>2026-05-05T08:43:46Z</time></trkpt><trkpt lat="45.78616731736874" lon="14.940331507749692"><ele>399.0</ele><time>2026-05-05T08:43:47Z</time></trkpt><trkpt lat="45.78621679610957" lon="14.94001370049839"><ele>399.0</ele><time>2026-05-05T08:43:48Z</time></trkpt><trkpt lat="45.78624966110283" lon="14.9397290892425"><ele>399.0</ele><time>2026-05-05T08:43:49Z</time></trkpt><trkpt lat="45.7862666529462" lon="14.939459373609981"><ele>399.0</ele><time>2026-05-05T08:43:50Z</time></trkpt><trkpt lat="45.78624527095945" lon="14.939205339687007"><ele>401.0</ele><time>2026-05-05T08:43:51Z</time></trkpt><trkpt lat="45.78617951765742" lon="14.938962379415857"><ele>403.0</ele><time>2026-05-05T08:43:52Z</time></trkpt><trkpt lat="45.78606721968735" lon="14.938742278143028"><ele>405.0</ele><time>2026-05-05T08:43:53Z</time></trkpt><trkpt lat="45.785917917530966" lon="14.938553264345085"><ele>405.66666666666663</ele><time>2026-05-05T08:43:54Z</time></trkpt><trkpt lat="45.78574488630258" lon="14.938390519646223"><ele>406.3333333333333</ele><time>2026-05-05T08:43:55Z</time></trkpt><trkpt lat="45.78555244206673" lon="14.93826434326234"><ele>407.0</ele><time>2026-05-05T08:43:56Z</time></trkpt><trkpt lat="45.7853536730628" lon="14.938206018258663"><ele>406.3333333333333</ele><time>2026-05-05T08:43:57Z</time></trkpt><trkpt lat="45.78514698549407" lon="14.938220617597084"><ele>405.66666666666663</ele><time>2026-05-05T08:43:58Z</time></trkpt><trkpt lat="45.78493422964766" lon="14.938290119954136"><ele>405.0</ele><time>2026-05-05T08:43:59Z</time></trkpt><trkpt lat="45.78471188896483" lon="14.938398758647805"><ele>411.5</ele><time>2026-05-05T08:44:00Z</time></trkpt><trkpt lat="45.78449561793347" lon="14.938548980810117"><ele>418.0</ele><time>2026-05-05T08:44:01Z</time></trkpt><trkpt lat="45.784259378860376" lon="14.9386968151956"><ele>418.0</ele><time>2026-05-05T08:44:02Z</time></trkpt><trkpt lat="45.78401294247859" lon="14.938805864385113"><ele>418.0</ele><time>2026-05-05T08:44:03Z</time></trkpt><trkpt lat="45.783752224484964" lon="14.938887454394548"><ele>415.0</ele><time>2026-05-05T08:44:04Z</time></trkpt><trkpt lat="45.78345483361662" lon="14.938914531297808"><ele>412.0</ele><time>2026-05-05T08:44:05Z</time></trkpt><trkpt lat="45.78315251573378" lon="14.938928288185476"><ele>412.0</ele><time>2026-05-05T08:44:06Z</time></trkpt><trkpt lat="45.78287675641998" lon="14.938951832491641"><ele>412.0</ele><time>2026-05-05T08:44:07Z</time></trkpt><trkpt lat="45.78262888384784" lon="14.938946821889827"><ele>411.6666666666667</ele><time>2026-05-05T08:44:08Z</time></trkpt><trkpt lat="45.78241495335637" lon="14.938925581910489"><ele>411.33333333333337</ele><time>2026-05-05T08:44:09Z</time></trkpt><trkpt lat="45.78223920395342" lon="14.938831920196012"><ele>411.0</ele><time>2026-05-05T08:44:10Z</time></trkpt><trkpt lat="45.78208463381654" lon="14.938722668396073"><ele>411.0</ele><time>2026-05-05T08:44:11Z</time></trkpt><trkpt lat="45.78195420544303" lon="14.938567388314386"><ele>411.0</ele><time>2026-05-05T08:44:12Z</time></trkpt><trkpt lat="45.781848674839075" lon="14.938354542162296"><ele>411.0</ele><time>2026-05-05T08:44:13Z</time></trkpt><trkpt lat="45.781767900526" lon="14.938079550303492"><ele>413.0</ele><time>2026-05-05T08:44:14Z</time></trkpt><trkpt lat="45.781732718922754" lon="14.937773451725151"><ele>415.0</ele><time>2026-05-05T08:44:15Z</time></trkpt><trkpt lat="45.78174244246017" lon="14.93743771418996"><ele>415.0</ele><time>2026-05-05T08:44:16Z</time></trkpt><trkpt lat="45.781779913769846" lon="14.937052766806168"><ele>415.0</ele><time>2026-05-05T08:44:17Z</time></trkpt><trkpt lat="45.78181262445795" lon="14.936614001896178"><ele>412.0</ele><time>2026-05-05T08:44:18Z</time></trkpt><trkpt lat="45.78187437046904" lon="14.936133332238764"><ele>409.0</ele><time>2026-05-05T08:44:19Z</time></trkpt><trkpt lat="45.78192548719503" lon="14.935643584526154"><ele>408.5</ele><time>2026-05-05T08:44:20Z</time></trkpt><trkpt lat="45.78197307152174" lon="14.935212270765826"><ele>408.0</ele><time>2026-05-05T08:44:21Z</time></trkpt><trkpt lat="45.78201405119186" lon="14.934827801193284"><ele>407.5</ele><time>2026-05-05T08:44:22Z</time></trkpt><trkpt lat="45.78205261367096" lon="14.934469367377169"><ele>407.0</ele><time>2026-05-05T08:44:23Z</time></trkpt><trkpt lat="45.78208855353933" lon="14.934140633521604"><ele>407.66666666666663</ele><time>2026-05-05T08:44:24Z</time></trkpt><trkpt lat="45.78210310634488" lon="14.933839386959496"><ele>408.33333333333337</ele><time>2026-05-05T08:44:25Z</time></trkpt><trkpt lat="45.78208333826569" lon="14.933570392438128"><ele>409.0</ele><time>2026-05-05T08:44:26Z</time></trkpt><trkpt lat="45.782012836414665" lon="14.93331823067634"><ele>409.0</ele><time>2026-05-05T08:44:27Z</time></trkpt><trkpt lat="45.78189115622107" lon="14.933087504238431"><ele>409.0</ele><time>2026-05-05T08:44:28Z</time></trkpt><trkpt lat="45.78173238605566" lon="14.93288947872841"><ele>409.0</ele><time>2026-05-05T08:44:29Z</time></trkpt><trkpt lat="45.78153523861358" lon="14.93274991566618"><ele>411.0</ele><time>2026-05-05T08:44:30Z</time></trkpt><trkpt lat="45.7812908874287" lon="14.932634870643927"><ele>413.0</ele><time>2026-05-05T08:44:31Z</time></trkpt><trkpt lat="45.781028380713465" lon="14.932515529882235"><ele>416.5</ele><time>2026-05-05T08:44:32Z</time></trkpt><trkpt lat="45.780817804838804" lon="14.932365690407668"><ele>420.0</ele><time>2026-05-05T08:44:33Z</time></trkpt><trkpt lat="45.780644000593746" lon="14.932182873435067"><ele>420.0</ele><time>2026-05-05T08:44:34Z</time></trkpt><trkpt lat="45.780501328612395" lon="14.931937530961985"><ele>420.0</ele><time>2026-05-05T08:44:35Z</time></trkpt><trkpt lat="45.7803823013533" lon="14.93163983572937"><ele>423.0</ele><time>2026-05-05T08:44:36Z</time></trkpt><trkpt lat="45.78026547448403" lon="14.93128285353414"><ele>426.0</ele><time>2026-05-05T08:44:37Z</time></trkpt><trkpt lat="45.78011811045766" lon="14.930884781302943"><ele>426.0</ele><time>2026-05-05T08:44:38Z</time></trkpt><trkpt lat="45.77998137928996" lon="14.93046218097153"><ele>426.0</ele><time>2026-05-05T08:44:39Z</time></trkpt><trkpt lat="45.77984853437838" lon="14.930065490613059"><ele>423.0</ele><time>2026-05-05T08:44:40Z</time></trkpt><trkpt lat="45.77972208433193" lon="14.929694546607502"><ele>420.0</ele><time>2026-05-05T08:44:41Z</time></trkpt><trkpt lat="45.779627749145476" lon="14.929336352999588"><ele>418.5</ele><time>2026-05-05T08:44:42Z</time></trkpt><trkpt lat="45.77957847213622" lon="14.92898095120124"><ele>417.0</ele><time>2026-05-05T08:44:43Z</time></trkpt><trkpt lat="45.7795674655677" lon="14.928623191942389"><ele>417.5</ele><time>2026-05-05T08:44:44Z</time></trkpt><trkpt lat="45.77960372186323" lon="14.928275142081231"><ele>418.0</ele><time>2026-05-05T08:44:45Z</time></trkpt><trkpt lat="45.77963310964717" lon="14.927919316003976"><ele>417.5</ele><time>2026-05-05T08:44:46Z</time></trkpt><trkpt lat="45.7796415600933" lon="14.927537504699727"><ele>417.0</ele><time>2026-05-05T08:44:47Z</time></trkpt><trkpt lat="45.779614319860364" lon="14.927135323346201"><ele>417.0</ele><time>2026-05-05T08:44:48Z</time></trkpt><trkpt lat="45.77955918601887" lon="14.926732381932299"><ele>417.0</ele><time>2026-05-05T08:44:49Z</time></trkpt><trkpt lat="45.77950774982794" lon="14.92632538759395"><ele>417.5</ele><time>2026-05-05T08:44:50Z</time></trkpt><trkpt lat="45.779484895586286" lon="14.925914244404185"><ele>418.0</ele><time>2026-05-05T08:44:51Z</time></trkpt><trkpt lat="45.77947946155869" lon="14.925514291371782"><ele>418.5</ele><time>2026-05-05T08:44:52Z</time></trkpt><trkpt lat="45.779467783185844" lon="14.925122232145142"><ele>419.0</ele><time>2026-05-05T08:44:53Z</time></trkpt><trkpt lat="45.77944435061886" lon="14.92475686058278"><ele>419.66666666666663</ele><time>2026-05-05T08:44:54Z</time></trkpt><trkpt lat="45.77941146761502" lon="14.924439978016515"><ele>420.33333333333337</ele><time>2026-05-05T08:44:55Z</time></trkpt><trkpt lat="45.779361642935925" lon="14.92416964111719"><ele>421.0</ele><time>2026-05-05T08:44:56Z</time></trkpt><trkpt lat="45.779274666269565" lon="14.92392268402384"><ele>421.0</ele><time>2026-05-05T08:44:57Z</time></trkpt><trkpt lat="45.779139238370156" lon="14.923696394800816"><ele>421.0</ele><time>2026-05-05T08:44:58Z</time></trkpt><trkpt lat="45.77895875255526" lon="14.923521181234438"><ele>421.0</ele><time>2026-05-05T08:44:59Z</time></trkpt><trkpt lat="45.778741124078884" lon="14.923416929703187"><ele>421.5</ele><time>2026-05-05T08:45:00Z</time></trkpt><trkpt lat="45.77851329277401" lon="14.923377941126303"><ele>422.0</ele><time>2026-05-05T08:45:01Z</time></trkpt><trkpt lat="45.77825643146559" lon="14.923416119866324"><ele>425.5</ele><time>2026-05-05T08:45:02Z</time></trkpt><trkpt lat="45.77797130922477" lon="14.923496849867272"><ele>429.0</ele><time>2026-05-05T08:45:03Z</time></trkpt><trkpt lat="45.777650648475756" lon="14.923593476535586"><ele>431.5</ele><time>2026-05-05T08:45:04Z</time></trkpt><trkpt lat="45.77732133766826" lon="14.923701475691987"><ele>434.0</ele><time>2026-05-05T08:45:05Z</time></trkpt><trkpt lat="45.777025256474815" lon="14.923803981754752"><ele>434.5</ele><time>2026-05-05T08:45:06Z</time></trkpt><trkpt lat="45.77672238491396" lon="14.923864360170308"><ele>435.0</ele><time>2026-05-05T08:45:07Z</time></trkpt><trkpt lat="45.77641580577667" lon="14.923867640657322"><ele>435.0</ele><time>2026-05-05T08:45:08Z</time></trkpt><trkpt lat="45.77613829803046" lon="14.923848371679604"><ele>435.0</ele><time>2026-05-05T08:45:09Z</time></trkpt><trkpt lat="45.775885150258674" lon="14.923863706135101"><ele>435.5</ele><time>2026-05-05T08:45:10Z</time></trkpt><trkpt lat="45.77561741526399" lon="14.923933525504452"><ele>436.0</ele><time>2026-05-05T08:45:11Z</time></trkpt><trkpt lat="45.77534056545163" lon="14.924046616155685"><ele>436.0</ele><time>2026-05-05T08:45:12Z</time></trkpt><trkpt lat="45.77506370958874" lon="14.92417459958317"><ele>436.0</ele><time>2026-05-05T08:45:13Z</time></trkpt><trkpt lat="45.77479421677073" lon="14.924282966320622"><ele>443.0</ele><time>2026-05-05T08:45:14Z</time></trkpt><trkpt lat="45.774524873057935" lon="14.924355845424424"><ele>450.0</ele><time>2026-05-05T08:45:15Z</time></trkpt><trkpt lat="45.77426268033731" lon="14.924379455736"><ele>450.0</ele><time>2026-05-05T08:45:16Z</time></trkpt><trkpt lat="45.773998924137636" lon="14.924356279793063"><ele>450.0</ele><time>2026-05-05T08:45:17Z</time></trkpt><trkpt lat="45.77372989017348" lon="14.924291386485589"><ele>446.5</ele><time>2026-05-05T08:45:18Z</time></trkpt><trkpt lat="45.773459125796386" lon="14.92421076327763"><ele>443.0</ele><time>2026-05-05T08:45:19Z</time></trkpt><trkpt lat="45.77316404511996" lon="14.924133969440279"><ele>443.0</ele><time>2026-05-05T08:45:20Z</time></trkpt><trkpt lat="45.77285044603995" lon="14.924078238005748"><ele>443.0</ele><time>2026-05-05T08:45:21Z</time></trkpt><trkpt lat="45.772534822792245" lon="14.9240423468249"><ele>446.5</ele><time>2026-05-05T08:45:22Z</time></trkpt><trkpt lat="45.77221199215906" lon="14.923994408460835"><ele>450.0</ele><time>2026-05-05T08:45:23Z</time></trkpt><trkpt lat="45.77189271778795" lon="14.923930786789333"><ele>452.5</ele><time>2026-05-05T08:45:24Z</time></trkpt><trkpt lat="45.77159460987114" lon="14.923837076650049"><ele>455.0</ele><time>2026-05-05T08:45:25Z</time></trkpt><trkpt lat="45.77130628716427" lon="14.923739908896117"><ele>458.0</ele><time>2026-05-05T08:45:26Z</time></trkpt><trkpt lat="45.77101173655859" lon="14.923681389337384"><ele>461.0</ele><time>2026-05-05T08:45:27Z</time></trkpt><trkpt lat="45.770684657687596" lon="14.923674133387161"><ele>461.0</ele><time>2026-05-05T08:45:28Z</time></trkpt><trkpt lat="45.77032739674767" lon="14.923705415335558"><ele>461.0</ele><time>2026-05-05T08:45:29Z</time></trkpt><trkpt lat="45.76994145309001" lon="14.923768699961174"><ele>461.0</ele><time>2026-05-05T08:45:30Z</time></trkpt><trkpt lat="45.76956000475934" lon="14.923825823000366"><ele>461.0</ele><time>2026-05-05T08:45:31Z</time></trkpt><trkpt lat="45.769219293984804" lon="14.923864952805253"><ele>459.0</ele><time>2026-05-05T08:45:32Z</time></trkpt><trkpt lat="45.76893570717064" lon="14.92390248683439"><ele>457.0</ele><time>2026-05-05T08:45:33Z</time></trkpt><trkpt lat="45.76869574406966" lon="14.92393512772203"><ele>455.6666666666667</ele><time>2026-05-05T08:45:34Z</time></trkpt><trkpt lat="45.76848250701691" lon="14.923972841433985"><ele>454.33333333333337</ele><time>2026-05-05T08:45:35Z</time></trkpt><trkpt lat="45.76827313422574" lon="14.924043296058207"><ele>453.0</ele><time>2026-05-05T08:45:36Z</time></trkpt><trkpt lat="45.76805453887057" lon="14.924147583887773"><ele>457.0</ele><time>2026-05-05T08:45:37Z</time></trkpt><trkpt lat="45.76783707844671" lon="14.924279048438235"><ele>461.0</ele><time>2026-05-05T08:45:38Z</time></trkpt><trkpt lat="45.76761776072954" lon="14.924408081514512"><ele>461.0</ele><time>2026-05-05T08:45:39Z</time></trkpt><trkpt lat="45.76739154527556" lon="14.924517773889123"><ele>461.0</ele><time>2026-05-05T08:45:40Z</time></trkpt><trkpt lat="45.76715177526307" lon="14.924579650045814"><ele>461.0</ele><time>2026-05-05T08:45:41Z</time></trkpt><trkpt lat="45.76692304298276" lon="14.92456555647041"><ele>461.0</ele><time>2026-05-05T08:45:42Z</time></trkpt><trkpt lat="45.76672254377978" lon="14.92448083360451"><ele>461.0</ele><time>2026-05-05T08:45:43Z</time></trkpt><trkpt lat="45.76653748002486" lon="14.924395137925952"><ele>462.3333333333333</ele><time>2026-05-05T08:45:44Z</time></trkpt><trkpt lat="45.766353583218404" lon="14.924356817204282"><ele>463.66666666666663</ele><time>2026-05-05T08:45:45Z</time></trkpt><trkpt lat="45.76617421784862" lon="14.924377153096737"><ele>465.0</ele><time>2026-05-05T08:45:46Z</time></trkpt><trkpt lat="45.766008852387166" lon="14.924444497367807"><ele>465.0</ele><time>2026-05-05T08:45:47Z</time></trkpt><trkpt lat="45.76584929974165" lon="14.924529328500064"><ele>465.0</ele><time>2026-05-05T08:45:48Z</time></trkpt><trkpt lat="45.765702344806506" lon="14.924645815686732"><ele>465.0</ele><time>2026-05-05T08:45:49Z</time></trkpt><trkpt lat="45.76557451010221" lon="14.92479603593589"><ele>465.0</ele><time>2026-05-05T08:45:50Z</time></trkpt><trkpt lat="45.7654594565594" lon="14.924959384478704"><ele>465.0</ele><time>2026-05-05T08:45:51Z</time></trkpt><trkpt lat="45.76534734035236" lon="14.925126661114497"><ele>465.0</ele><time>2026-05-05T08:45:52Z</time></trkpt><trkpt lat="45.76524219377257" lon="14.925282419877965"><ele>464.25</ele><time>2026-05-05T08:45:53Z</time></trkpt><trkpt lat="45.765145936376626" lon="14.925415234267232"><ele>463.5</ele><time>2026-05-05T08:45:54Z</time></trkpt><trkpt lat="45.765052212090815" lon="14.925549267172542"><ele>462.75</ele><time>2026-05-05T08:45:55Z</time></trkpt><trkpt lat="45.76496556180361" lon="14.925681366249233"><ele>462.0</ele><time>2026-05-05T08:45:56Z</time></trkpt><trkpt lat="45.76487699230076" lon="14.925813336750615"><ele>464.25</ele><time>2026-05-05T08:45:57Z</time></trkpt><trkpt lat="45.764798558517406" lon="14.92595829587722"><ele>466.5</ele><time>2026-05-05T08:45:58Z</time></trkpt><trkpt lat="45.76471873406524" lon="14.926105904849356"><ele>468.75</ele><time>2026-05-05T08:45:59Z</time></trkpt><trkpt lat="45.76464755031811" lon="14.926230069943951"><ele>471.0</ele><time>2026-05-05T08:46:00Z</time></trkpt><trkpt lat="45.764593327258744" lon="14.92633010046999"><ele>471.0</ele><time>2026-05-05T08:46:01Z</time></trkpt><trkpt lat="45.764545380185716" lon="14.92642060416694"><ele>471.0</ele><time>2026-05-05T08:46:02Z</time></trkpt><trkpt lat="45.764503288755414" lon="14.926497314467326"><ele>471.0</ele><time>2026-05-05T08:46:03Z</time></trkpt><trkpt lat="45.76445999496771" lon="14.926576454484927"><ele>471.0</ele><time>2026-05-05T08:46:05Z</time></trkpt><trkpt lat="45.76453076711666" lon="14.926451759462601"><ele>471.0</ele><time>2026-05-05T08:46:10Z</time></trkpt><trkpt lat="45.76461738746664" lon="14.926353974429773"><ele>471.0</ele><time>2026-05-05T08:46:11Z</time></trkpt><trkpt lat="45.764710786956584" lon="14.926165662124685"><ele>471.0</ele><time>2026-05-05T08:46:12Z</time></trkpt><trkpt lat="45.76482519131367" lon="14.925958120020992"><ele>471.0</ele><time>2026-05-05T08:46:13Z</time></trkpt><trkpt lat="45.76494766393097" lon="14.92574968258235"><ele>471.0</ele><time>2026-05-05T08:46:14Z</time></trkpt><trkpt lat="45.76508420608264" lon="14.925543768696631"><ele>472.33333333333337</ele><time>2026-05-05T08:46:15Z</time></trkpt><trkpt lat="45.76522061398928" lon="14.925350876567524"><ele>473.6666666666667</ele><time>2026-05-05T08:46:16Z</time></trkpt><trkpt lat="45.765352721951096" lon="14.925172042072672"><ele>475.0</ele><time>2026-05-05T08:46:17Z</time></trkpt><trkpt lat="45.76547720993992" lon="14.924998212590806"><ele>471.6666666666667</ele><time>2026-05-05T08:46:18Z</time></trkpt><trkpt lat="45.765604622856586" lon="14.924824325978145"><ele>468.33333333333337</ele><time>2026-05-05T08:46:19Z</time></trkpt><trkpt lat="45.76575166291765" lon="14.924650246356892"><ele>465.0</ele><time>2026-05-05T08:46:20Z</time></trkpt><trkpt lat="45.76593651609768" lon="14.924536100652267"><ele>466.33333333333337</ele><time>2026-05-05T08:46:21Z</time></trkpt><trkpt lat="45.76613177557541" lon="14.924447507132614"><ele>467.6666666666667</ele><time>2026-05-05T08:46:22Z</time></trkpt><trkpt lat="45.76633377917965" lon="14.924389578323561"><ele>469.0</ele><time>2026-05-05T08:46:23Z</time></trkpt><trkpt lat="45.76654826157165" lon="14.924412537350486"><ele>469.0</ele><time>2026-05-05T08:46:24Z</time></trkpt><trkpt lat="45.766768398157915" lon="14.92447419675572"><ele>469.0</ele><time>2026-05-05T08:46:25Z</time></trkpt><trkpt lat="45.7669660146066" lon="14.924548624750056"><ele>469.0</ele><time>2026-05-05T08:46:26Z</time></trkpt><trkpt lat="45.76714684463626" lon="14.924594385239986"><ele>467.0</ele><time>2026-05-05T08:46:27Z</time></trkpt><trkpt lat="45.76730824833645" lon="14.92458826852767"><ele>465.0</ele><time>2026-05-05T08:46:28Z</time></trkpt><trkpt lat="45.76743860737805" lon="14.92454289934496"><ele>463.0</ele><time>2026-05-05T08:46:29Z</time></trkpt><trkpt lat="45.76754151468765" lon="14.924486603577874"><ele>461.0</ele><time>2026-05-05T08:46:30Z</time></trkpt><trkpt lat="45.76763197263119" lon="14.924444021000111"><ele>461.0</ele><time>2026-05-05T08:46:31Z</time></trkpt><trkpt lat="45.7676927241973" lon="14.924401311398613"><ele>461.0</ele><time>2026-05-05T08:46:32Z</time></trkpt><trkpt lat="45.76754276116887" lon="14.924219572268614"><ele>461.0</ele><time>2026-05-05T08:46:36Z</time></trkpt><trkpt lat="45.76741393685294" lon="14.924286055454454"><ele>461.0</ele><time>2026-05-05T08:46:37Z</time></trkpt><trkpt lat="45.767282339565746" lon="14.9243318483867"><ele>461.0</ele><time>2026-05-05T08:46:38Z</time></trkpt><trkpt lat="45.76714909057529" lon="14.92435511455198"><ele>461.0</ele><time>2026-05-05T08:46:39Z</time></trkpt><trkpt lat="45.76701969196176" lon="14.924344617455688"><ele>461.0</ele><time>2026-05-05T08:46:40Z</time></trkpt><trkpt lat="45.76689041024303" lon="14.924288166832707"><ele>461.0</ele><time>2026-05-05T08:46:41Z</time></trkpt><trkpt lat="45.76678385052215" lon="14.9241603588253"><ele>459.25</ele><time>2026-05-05T08:46:42Z</time></trkpt><trkpt lat="45.7666872562705" lon="14.924038995031713"><ele>457.5</ele><time>2026-05-05T08:46:43Z</time></trkpt><trkpt lat="45.76666117495643" lon="14.923868853801412"><ele>455.75</ele><time>2026-05-05T08:46:44Z</time></trkpt><trkpt lat="45.76664583020808" lon="14.923696059101482"><ele>454.0</ele><time>2026-05-05T08:46:45Z</time></trkpt><trkpt lat="45.76667312685684" lon="14.923493048231283"><ele>452.25</ele><time>2026-05-05T08:46:46Z</time></trkpt><trkpt lat="45.766694119391545" lon="14.92326547446179"><ele>450.5</ele><time>2026-05-05T08:46:47Z</time></trkpt><trkpt lat="45.766717433180965" lon="14.923065903164348"><ele>448.75</ele><time>2026-05-05T08:46:48Z</time></trkpt><trkpt lat="45.766700622701435" lon="14.922880019481086"><ele>447.0</ele><time>2026-05-05T08:46:49Z</time></trkpt><trkpt lat="45.76666101722181" lon="14.922715359919115"><ele>447.0</ele><time>2026-05-05T08:46:50Z</time></trkpt><trkpt lat="45.76656057657053" lon="14.922635025111102"><ele>447.0</ele><time>2026-05-05T08:46:51Z</time></trkpt><trkpt lat="45.766439548872015" lon="14.92258339937632"><ele>447.0</ele><time>2026-05-05T08:46:52Z</time></trkpt><trkpt lat="45.76629685678799" lon="14.922597524604848"><ele>447.0</ele><time>2026-05-05T08:46:53Z</time></trkpt><trkpt lat="45.76610240829333" lon="14.922651069426482"><ele>446.5</ele><time>2026-05-05T08:46:54Z</time></trkpt><trkpt lat="45.76586423534535" lon="14.922709024934353"><ele>446.0</ele><time>2026-05-05T08:46:55Z</time></trkpt><trkpt lat="45.76560710344829" lon="14.92278250795199"><ele>446.0</ele><time>2026-05-05T08:46:56Z</time></trkpt><trkpt lat="45.765360912559" lon="14.922871772543225"><ele>446.0</ele><time>2026-05-05T08:46:57Z</time></trkpt><trkpt lat="45.76513530274325" lon="14.922942177342875"><ele>444.0</ele><time>2026-05-05T08:46:58Z</time></trkpt><trkpt lat="45.76494963110436" lon="14.923013656831072"><ele>442.0</ele><time>2026-05-05T08:46:59Z</time></trkpt><trkpt lat="45.764803270190534" lon="14.923045150708504"><ele>440.0</ele><time>2026-05-05T08:47:00Z</time></trkpt><trkpt lat="45.76468798728798" lon="14.923013956041299"><ele>440.0</ele><time>2026-05-05T08:47:01Z</time></trkpt><trkpt lat="45.76458373166585" lon="14.922932994989102"><ele>440.0</ele><time>2026-05-05T08:47:02Z</time></trkpt><trkpt lat="45.764483862670325" lon="14.922781517192115"><ele>440.0</ele><time>2026-05-05T08:47:03Z</time></trkpt><trkpt lat="45.7643865954387" lon="14.922564569456286"><ele>440.0</ele><time>2026-05-05T08:47:04Z</time></trkpt><trkpt lat="45.76428131949838" lon="14.922333323248417"><ele>437.75</ele><time>2026-05-05T08:47:05Z</time></trkpt><trkpt lat="45.764196425059815" lon="14.92213127580528"><ele>435.5</ele><time>2026-05-05T08:47:06Z</time></trkpt><trkpt lat="45.76414032610595" lon="14.921950501188261"><ele>433.25</ele><time>2026-05-05T08:47:07Z</time></trkpt><trkpt lat="45.76413111105794" lon="14.921773973841827"><ele>431.0</ele><time>2026-05-05T08:47:08Z</time></trkpt><trkpt lat="45.76417593896658" lon="14.921565659656453"><ele>431.0</ele><time>2026-05-05T08:47:09Z</time></trkpt><trkpt lat="45.764251083123796" lon="14.92130327700116"><ele>431.0</ele><time>2026-05-05T08:47:10Z</time></trkpt><trkpt lat="45.76433579991155" lon="14.921001833648575"><ele>431.0</ele><time>2026-05-05T08:47:11Z</time></trkpt><trkpt lat="45.76447747644079" lon="14.920770357859535"><ele>431.5</ele><time>2026-05-05T08:47:12Z</time></trkpt><trkpt lat="45.7646291552394" lon="14.920525243134968"><ele>432.0</ele><time>2026-05-05T08:47:13Z</time></trkpt><trkpt lat="45.764801202280715" lon="14.920222428198848"><ele>433.5</ele><time>2026-05-05T08:47:14Z</time></trkpt><trkpt lat="45.7650211073058" lon="14.919909751857944"><ele>435.0</ele><time>2026-05-05T08:47:15Z</time></trkpt><trkpt lat="45.76528702473288" lon="14.919619624261431"><ele>435.0</ele><time>2026-05-05T08:47:16Z</time></trkpt><trkpt lat="45.76555846948857" lon="14.9192932255344"><ele>435.0</ele><time>2026-05-05T08:47:17Z</time></trkpt><trkpt lat="45.76584841294856" lon="14.918984341037794"><ele>437.0</ele><time>2026-05-05T08:47:18Z</time></trkpt><trkpt lat="45.76609840217906" lon="14.918716321318403"><ele>439.0</ele><time>2026-05-05T08:47:19Z</time></trkpt><trkpt lat="45.76630461554902" lon="14.91849684863178"><ele>444.0</ele><time>2026-05-05T08:47:20Z</time></trkpt><trkpt lat="45.76648565114045" lon="14.918302594718428"><ele>449.0</ele><time>2026-05-05T08:47:21Z</time></trkpt><trkpt lat="45.7666358927134" lon="14.918133971462646"><ele>454.0</ele><time>2026-05-05T08:47:22Z</time></trkpt><trkpt lat="45.766760075546685" lon="14.917990803867685"><ele>454.00000000000006</ele><time>2026-05-05T08:47:23Z</time></trkpt><trkpt lat="45.766848298949384" lon="14.917885780081765"><ele>454.0</ele><time>2026-05-05T08:47:24Z</time></trkpt><trkpt lat="45.766915600322626" lon="14.917837559863333"><ele>454.0</ele><time>2026-05-05T08:47:25Z</time></trkpt><trkpt lat="45.76697020105508" lon="14.917773847986583"><ele>454.0</ele><time>2026-05-05T08:47:29Z</time></trkpt><trkpt lat="45.766904620026665" lon="14.917785661647894"><ele>454.00000000000006</ele><time>2026-05-05T08:48:54Z</time></trkpt><trkpt lat="45.76694204847576" lon="14.917701591472262"><ele>454.0</ele><time>2026-05-05T08:49:04Z</time></trkpt><trkpt lat="45.76702219031736" lon="14.917662285806175"><ele>454.1666666666667</ele><time>2026-05-05T08:59:27Z</time></trkpt><trkpt lat="45.76707459091656" lon="14.917603168306329"><ele>454.33333333333337</ele><time>2026-05-05T08:59:28Z</time></trkpt><trkpt lat="45.76712882867863" lon="14.917502712020775"><ele>454.5</ele><time>2026-05-05T08:59:29Z</time></trkpt><trkpt lat="45.76715615123363" lon="14.917387427256957"><ele>454.66666666666663</ele><time>2026-05-05T08:59:30Z</time></trkpt><trkpt lat="45.767174320838556" lon="14.917248793412417"><ele>454.8333333333333</ele><time>2026-05-05T08:59:31Z</time></trkpt><trkpt lat="45.76722304836754" lon="14.91711816376956"><ele>455.0</ele><time>2026-05-05T08:59:32Z</time></trkpt><trkpt lat="45.767225821572815" lon="14.916961616335549"><ele>455.0</ele><time>2026-05-05T08:59:33Z</time></trkpt><trkpt lat="45.76722589690432" lon="14.916789090856511"><ele>455.0</ele><time>2026-05-05T08:59:34Z</time></trkpt><trkpt lat="45.76722167753999" lon="14.91664250525471"><ele>455.0</ele><time>2026-05-05T08:59:35Z</time></trkpt><trkpt lat="45.76721089903784" lon="14.916514277373826"><ele>455.0</ele><time>2026-05-05T08:59:36Z</time></trkpt><trkpt lat="45.76718903646184" lon="14.9163684279837"><ele>455.0</ele><time>2026-05-05T08:59:37Z</time></trkpt><trkpt lat="45.767154521313536" lon="14.916250586327301"><ele>456.0</ele><time>2026-05-05T08:59:38Z</time></trkpt><trkpt lat="45.767123662661874" lon="14.916111509694082"><ele>457.0</ele><time>2026-05-05T08:59:39Z</time></trkpt><trkpt lat="45.76707489145902" lon="14.915984681518976"><ele>458.0</ele><time>2026-05-05T08:59:40Z</time></trkpt><trkpt lat="45.76704868398552" lon="14.915848257132835"><ele>459.0</ele><time>2026-05-05T08:59:41Z</time></trkpt><trkpt lat="45.76701903906937" lon="14.915734300081965"><ele>460.0</ele><time>2026-05-05T08:59:42Z</time></trkpt><trkpt lat="45.766991543686196" lon="14.915591221965554"><ele>460.75</ele><time>2026-05-05T08:59:43Z</time></trkpt><trkpt lat="45.766941835425364" lon="14.91543511062565"><ele>461.5</ele><time>2026-05-05T08:59:44Z</time></trkpt><trkpt lat="45.7669004586705" lon="14.915252328492059"><ele>462.25</ele><time>2026-05-05T08:59:45Z</time></trkpt><trkpt lat="45.76685987733889" lon="14.915049410997456"><ele>463.0</ele><time>2026-05-05T08:59:46Z</time></trkpt><trkpt lat="45.76683054284425" lon="14.91484543100749"><ele>462.75</ele><time>2026-05-05T08:59:47Z</time></trkpt><trkpt lat="45.766880596401606" lon="14.91467833207398"><ele>462.5</ele><time>2026-05-05T08:59:48Z</time></trkpt><trkpt lat="45.76693640744935" lon="14.914532154148146"><ele>462.25</ele><time>2026-05-05T08:59:49Z</time></trkpt><trkpt lat="45.766980422526856" lon="14.914362101197192"><ele>462.0</ele><time>2026-05-05T08:59:50Z</time></trkpt><trkpt lat="45.7670274715522" lon="14.914220125275374"><ele>462.8</ele><time>2026-05-05T08:59:51Z</time></trkpt><trkpt lat="45.767031319542625" lon="14.91407000929524"><ele>463.6</ele><time>2026-05-05T08:59:52Z</time></trkpt><trkpt lat="45.76699308763384" lon="14.913924537933005"><ele>464.40000000000003</ele><time>2026-05-05T08:59:53Z</time></trkpt><trkpt lat="45.76692671459502" lon="14.913804010028873"><ele>465.20000000000005</ele><time>2026-05-05T08:59:54Z</time></trkpt><trkpt lat="45.76687366029874" lon="14.913641431264981"><ele>466.0</ele><time>2026-05-05T08:59:55Z</time></trkpt><trkpt lat="45.76680728396153" lon="14.913470240124884"><ele>467.0</ele><time>2026-05-05T08:59:56Z</time></trkpt><trkpt lat="45.766740737879076" lon="14.913284200955271"><ele>468.0</ele><time>2026-05-05T08:59:57Z</time></trkpt><trkpt lat="45.76670574246451" lon="14.913137635558673"><ele>469.0</ele><time>2026-05-05T08:59:58Z</time></trkpt><trkpt lat="45.76668984223516" lon="14.913003883407564"><ele>470.0</ele><time>2026-05-05T08:59:59Z</time></trkpt><trkpt lat="45.76667964303822" lon="14.912852853502242"><ele>470.0</ele><time>2026-05-05T09:00:00Z</time></trkpt><trkpt lat="45.76666032234106" lon="14.912696320806264"><ele>470.0</ele><time>2026-05-05T09:00:01Z</time></trkpt><trkpt lat="45.76661586239156" lon="14.912549814250385"><ele>470.0</ele><time>2026-05-05T09:00:02Z</time></trkpt><trkpt lat="45.766528991645615" lon="14.912433840041098"><ele>470.0</ele><time>2026-05-05T09:00:03Z</time></trkpt><trkpt lat="45.76642083060925" lon="14.912348164548531"><ele>470.5</ele><time>2026-05-05T09:00:04Z</time></trkpt><trkpt lat="45.766300019169854" lon="14.91229794771386"><ele>471.0</ele><time>2026-05-05T09:00:05Z</time></trkpt><trkpt lat="45.76617734538055" lon="14.91233865721807"><ele>471.5</ele><time>2026-05-05T09:00:06Z</time></trkpt><trkpt lat="45.76605545475722" lon="14.912393052916235"><ele>472.0</ele><time>2026-05-05T09:00:07Z</time></trkpt><trkpt lat="45.76590687798355" lon="14.912386919346453"><ele>472.0</ele><time>2026-05-05T09:00:08Z</time></trkpt><trkpt lat="45.765803005756034" lon="14.91233184863004"><ele>472.00000000000006</ele><time>2026-05-05T09:00:09Z</time></trkpt><trkpt lat="45.76572747822241" lon="14.912225566287113"><ele>472.00000000000006</ele><time>2026-05-05T09:00:10Z</time></trkpt><trkpt lat="45.76565501665056" lon="14.912098906555947"><ele>472.0</ele><time>2026-05-05T09:00:11Z</time></trkpt><trkpt lat="45.76562397055871" lon="14.911950227627736"><ele>472.0</ele><time>2026-05-05T09:00:12Z</time></trkpt><trkpt lat="45.76562371252112" lon="14.911801772204958"><ele>470.75</ele><time>2026-05-05T09:00:13Z</time></trkpt><trkpt lat="45.7656699806992" lon="14.911629440875464"><ele>469.5</ele><time>2026-05-05T09:00:14Z</time></trkpt><trkpt lat="45.76573443037697" lon="14.911446327108761"><ele>468.25</ele><time>2026-05-05T09:00:15Z</time></trkpt><trkpt lat="45.765819812366274" lon="14.91126263867289"><ele>467.0</ele><time>2026-05-05T09:00:16Z</time></trkpt><trkpt lat="45.7658805550619" lon="14.911091350212608"><ele>467.0</ele><time>2026-05-05T09:00:17Z</time></trkpt><trkpt lat="45.7659530595083" lon="14.910938042164332"><ele>467.00000000000006</ele><time>2026-05-05T09:00:18Z</time></trkpt><trkpt lat="45.76595098342228" lon="14.910772397012046"><ele>467.00000000000006</ele><time>2026-05-05T09:00:19Z</time></trkpt><trkpt lat="45.765905987841336" lon="14.91064103779978"><ele>467.0</ele><time>2026-05-05T09:00:20Z</time></trkpt><trkpt lat="45.76583526675208" lon="14.910552877017949"><ele>467.0</ele><time>2026-05-05T09:00:21Z</time></trkpt><trkpt lat="45.765754924918106" lon="14.910489524666477"><ele>466.40000000000003</ele><time>2026-05-05T09:00:22Z</time></trkpt><trkpt lat="45.765691819309254" lon="14.910436141127256"><ele>465.80000000000007</ele><time>2026-05-05T09:00:23Z</time></trkpt><trkpt lat="45.765605532207516" lon="14.910362730930274"><ele>465.2</ele><time>2026-05-05T09:00:24Z</time></trkpt><trkpt lat="45.76550396075502" lon="14.910246977661183"><ele>464.6</ele><time>2026-05-05T09:00:25Z</time></trkpt><trkpt lat="45.76538203294849" lon="14.91016237535677"><ele>464.0</ele><time>2026-05-05T09:00:26Z</time></trkpt><trkpt lat="45.7652895929278" lon="14.91004828921493"><ele>465.0</ele><time>2026-05-05T09:00:27Z</time></trkpt><trkpt lat="45.765247783554486" lon="14.909878009507315"><ele>466.0</ele><time>2026-05-05T09:00:28Z</time></trkpt><trkpt lat="45.765266224095875" lon="14.90966707187782"><ele>467.0</ele><time>2026-05-05T09:00:29Z</time></trkpt><trkpt lat="45.76522645861831" lon="14.909473957522357"><ele>468.0</ele><time>2026-05-05T09:00:30Z</time></trkpt><trkpt lat="45.765130024113425" lon="14.909306758938321"><ele>465.25</ele><time>2026-05-05T09:00:31Z</time></trkpt><trkpt lat="45.765029192911676" lon="14.909147205961496"><ele>462.5</ele><time>2026-05-05T09:00:32Z</time></trkpt><trkpt lat="45.7649930828851" lon="14.90899471648643"><ele>459.75</ele><time>2026-05-05T09:00:33Z</time></trkpt><trkpt lat="45.765006959385914" lon="14.908813091262639"><ele>457.0</ele><time>2026-05-05T09:00:34Z</time></trkpt><trkpt lat="45.76503023016107" lon="14.908583309853604"><ele>456.0</ele><time>2026-05-05T09:00:35Z</time></trkpt><trkpt lat="45.76504370162295" lon="14.908331634651713"><ele>455.0</ele><time>2026-05-05T09:00:36Z</time></trkpt><trkpt lat="45.76506821136177" lon="14.908101746000941"><ele>454.0</ele><time>2026-05-05T09:00:37Z</time></trkpt><trkpt lat="45.765123620836015" lon="14.90790751649259"><ele>454.0</ele><time>2026-05-05T09:00:38Z</time></trkpt><trkpt lat="45.76518906477307" lon="14.907720548970596"><ele>454.0</ele><time>2026-05-05T09:00:39Z</time></trkpt><trkpt lat="45.76527236870924" lon="14.907526301915631"><ele>454.0</ele><time>2026-05-05T09:00:40Z</time></trkpt><trkpt lat="45.7653380646384" lon="14.90733235638107"><ele>455.0</ele><time>2026-05-05T09:00:41Z</time></trkpt><trkpt lat="45.765412445588694" lon="14.90714153629863"><ele>456.0</ele><time>2026-05-05T09:00:42Z</time></trkpt><trkpt lat="45.76546643047995" lon="14.906925677882588"><ele>457.0</ele><time>2026-05-05T09:00:43Z</time></trkpt><trkpt lat="45.76550907672857" lon="14.90669723601191"><ele>457.0</ele><time>2026-05-05T09:00:44Z</time></trkpt><trkpt lat="45.76556033826208" lon="14.906466882410232"><ele>457.0</ele><time>2026-05-05T09:00:45Z</time></trkpt><trkpt lat="45.76559759761025" lon="14.906228247094385"><ele>457.0</ele><time>2026-05-05T09:00:46Z</time></trkpt><trkpt lat="45.76563087841261" lon="14.905982695744159"><ele>456.33333333333337</ele><time>2026-05-05T09:00:47Z</time></trkpt><trkpt lat="45.76566071351653" lon="14.905745515585552"><ele>455.66666666666663</ele><time>2026-05-05T09:00:48Z</time></trkpt><trkpt lat="45.76569046579103" lon="14.905531761076015"><ele>455.0</ele><time>2026-05-05T09:00:49Z</time></trkpt><trkpt lat="45.76574345415089" lon="14.90535229054508"><ele>455.0</ele><time>2026-05-05T09:00:50Z</time></trkpt><trkpt lat="45.765827841414335" lon="14.905181386609668"><ele>455.0</ele><time>2026-05-05T09:00:51Z</time></trkpt><trkpt lat="45.76593464327897" lon="14.90505068383466"><ele>455.0</ele><time>2026-05-05T09:00:52Z</time></trkpt><trkpt lat="45.76603427804269" lon="14.904902528831611"><ele>455.0</ele><time>2026-05-05T09:00:53Z</time></trkpt><trkpt lat="45.76613238295443" lon="14.904760469898031"><ele>456.0</ele><time>2026-05-05T09:00:54Z</time></trkpt><trkpt lat="45.766199886407" lon="14.904578407021107"><ele>457.0</ele><time>2026-05-05T09:00:55Z</time></trkpt><trkpt lat="45.76623689481525" lon="14.90436422707996"><ele>458.0</ele><time>2026-05-05T09:00:56Z</time></trkpt><trkpt lat="45.7662553813285" lon="14.904132793418237"><ele>458.0</ele><time>2026-05-05T09:00:57Z</time></trkpt><trkpt lat="45.76629329618856" lon="14.903902436442985"><ele>458.0</ele><time>2026-05-05T09:00:58Z</time></trkpt><trkpt lat="45.76632117959413" lon="14.903658368032968"><ele>458.0</ele><time>2026-05-05T09:00:59Z</time></trkpt><trkpt lat="45.76634979151142" lon="14.903420705338412"><ele>459.66666666666663</ele><time>2026-05-05T09:01:00Z</time></trkpt><trkpt lat="45.76638269904824" lon="14.903170769493231"><ele>461.33333333333337</ele><time>2026-05-05T09:01:01Z</time></trkpt><trkpt lat="45.76642047600096" lon="14.902919311388821"><ele>463.0</ele><time>2026-05-05T09:01:02Z</time></trkpt><trkpt lat="45.76646023736075" lon="14.902667027136607"><ele>461.6666666666667</ele><time>2026-05-05T09:01:03Z</time></trkpt><trkpt lat="45.76648912326302" lon="14.902398001595193"><ele>460.33333333333337</ele><time>2026-05-05T09:01:04Z</time></trkpt><trkpt lat="45.76652806707653" lon="14.902132683433688"><ele>459.0</ele><time>2026-05-05T09:01:05Z</time></trkpt><trkpt lat="45.766587274502086" lon="14.901862839430068"><ele>459.33333333333337</ele><time>2026-05-05T09:01:06Z</time></trkpt><trkpt lat="45.76662502611003" lon="14.901591447972008"><ele>459.6666666666667</ele><time>2026-05-05T09:01:07Z</time></trkpt><trkpt lat="45.766662824041376" lon="14.901328144636546"><ele>460.0</ele><time>2026-05-05T09:01:08Z</time></trkpt><trkpt lat="45.7667066530984" lon="14.901078162781"><ele>459.0</ele><time>2026-05-05T09:01:09Z</time></trkpt><trkpt lat="45.76675834699005" lon="14.900844778075786"><ele>458.0</ele><time>2026-05-05T09:01:10Z</time></trkpt><trkpt lat="45.76681841062291" lon="14.900618747614264"><ele>457.0</ele><time>2026-05-05T09:01:11Z</time></trkpt><trkpt lat="45.76689317337763" lon="14.900410008892012"><ele>459.33333333333337</ele><time>2026-05-05T09:01:12Z</time></trkpt><trkpt lat="45.766986425373936" lon="14.900209301108351"><ele>461.66666666666663</ele><time>2026-05-05T09:01:13Z</time></trkpt><trkpt lat="45.76708757306581" lon="14.900027325201702"><ele>464.0</ele><time>2026-05-05T09:01:14Z</time></trkpt><trkpt lat="45.767194722910965" lon="14.899854251479303"><ele>464.0</ele><time>2026-05-05T09:01:15Z</time></trkpt><trkpt lat="45.767287673537766" lon="14.899665047315617"><ele>464.0</ele><time>2026-05-05T09:01:16Z</time></trkpt><trkpt lat="45.767387381637924" lon="14.899481875592437"><ele>464.0</ele><time>2026-05-05T09:01:17Z</time></trkpt><trkpt lat="45.7674542967573" lon="14.89927656743871"><ele>464.75</ele><time>2026-05-05T09:01:18Z</time></trkpt><trkpt lat="45.76749599697096" lon="14.899092974141608"><ele>465.5</ele><time>2026-05-05T09:01:19Z</time></trkpt><trkpt lat="45.767556604064" lon="14.89893170635692"><ele>466.25</ele><time>2026-05-05T09:01:20Z</time></trkpt><trkpt lat="45.76763664629057" lon="14.898814344172573"><ele>467.0</ele><time>2026-05-05T09:01:21Z</time></trkpt><trkpt lat="45.76774256493496" lon="14.898732626120795"><ele>469.5</ele><time>2026-05-05T09:01:22Z</time></trkpt><trkpt lat="45.76783231599534" lon="14.89860834626102"><ele>472.0</ele><time>2026-05-05T09:01:23Z</time></trkpt><trkpt lat="45.76789709932864" lon="14.898472637432159"><ele>474.5</ele><time>2026-05-05T09:01:24Z</time></trkpt><trkpt lat="45.76792727987494" lon="14.898298532910914"><ele>477.0</ele><time>2026-05-05T09:01:25Z</time></trkpt><trkpt lat="45.767931235661756" lon="14.898105802560655"><ele>477.75</ele><time>2026-05-05T09:01:26Z</time></trkpt><trkpt lat="45.76791030221924" lon="14.897907607682237"><ele>478.5</ele><time>2026-05-05T09:01:27Z</time></trkpt><trkpt lat="45.76785259361655" lon="14.897716131104819"><ele>479.25</ele><time>2026-05-05T09:01:28Z</time></trkpt><trkpt lat="45.76781215579655" lon="14.897518105023357"><ele>480.0</ele><time>2026-05-05T09:01:29Z</time></trkpt><trkpt lat="45.76778196984275" lon="14.897319206821619"><ele>481.66666666666663</ele><time>2026-05-05T09:01:30Z</time></trkpt><trkpt lat="45.76778727998435" lon="14.897112404914735"><ele>483.3333333333333</ele><time>2026-05-05T09:01:31Z</time></trkpt><trkpt lat="45.76781103880331" lon="14.896893877867958"><ele>485.0</ele><time>2026-05-05T09:01:32Z</time></trkpt><trkpt lat="45.76784262853988" lon="14.896646570010967"><ele>484.66666666666663</ele><time>2026-05-05T09:01:33Z</time></trkpt><trkpt lat="45.76788913605993" lon="14.896394032930532"><ele>484.33333333333337</ele><time>2026-05-05T09:01:34Z</time></trkpt><trkpt lat="45.76795065987809" lon="14.896139917624458"><ele>484.0</ele><time>2026-05-05T09:01:35Z</time></trkpt><trkpt lat="45.7680220568919" lon="14.895898938115282"><ele>484.0</ele><time>2026-05-05T09:01:36Z</time></trkpt><trkpt lat="45.76810453301234" lon="14.895664757301622"><ele>484.0</ele><time>2026-05-05T09:01:37Z</time></trkpt><trkpt lat="45.76819888212166" lon="14.895440699290878"><ele>484.0</ele><time>2026-05-05T09:01:38Z</time></trkpt><trkpt lat="45.76827959372502" lon="14.895209004752092"><ele>483.6666666666667</ele><time>2026-05-05T09:01:39Z</time></trkpt><trkpt lat="45.7683478335058" lon="14.894996826598163"><ele>483.33333333333337</ele><time>2026-05-05T09:01:40Z</time></trkpt><trkpt lat="45.76837577132836" lon="14.89476804527069"><ele>483.0</ele><time>2026-05-05T09:01:41Z</time></trkpt><trkpt lat="45.768365220338616" lon="14.894524531455682"><ele>483.0</ele><time>2026-05-05T09:01:42Z</time></trkpt><trkpt lat="45.76836635734637" lon="14.89428545951142"><ele>483.0</ele><time>2026-05-05T09:01:43Z</time></trkpt><trkpt lat="45.76837871178481" lon="14.89406112330875"><ele>483.0</ele><time>2026-05-05T09:01:44Z</time></trkpt><trkpt lat="45.76841742508031" lon="14.893846470492264"><ele>484.0</ele><time>2026-05-05T09:01:45Z</time></trkpt><trkpt lat="45.76849209105219" lon="14.893632990655565"><ele>485.0</ele><time>2026-05-05T09:01:46Z</time></trkpt><trkpt lat="45.76858615692811" lon="14.893422008743046"><ele>486.0</ele><time>2026-05-05T09:01:47Z</time></trkpt><trkpt lat="45.76869143029708" lon="14.893220975348214"><ele>489.66666666666663</ele><time>2026-05-05T09:01:48Z</time></trkpt><trkpt lat="45.7687810533642" lon="14.893008183367257"><ele>493.3333333333333</ele><time>2026-05-05T09:01:49Z</time></trkpt><trkpt lat="45.768887461535904" lon="14.892816469742115"><ele>497.0</ele><time>2026-05-05T09:01:50Z</time></trkpt><trkpt lat="45.76899436295732" lon="14.892620996412166"><ele>497.0</ele><time>2026-05-05T09:01:51Z</time></trkpt><trkpt lat="45.7690977143231" lon="14.892421027161685"><ele>497.0</ele><time>2026-05-05T09:01:52Z</time></trkpt><trkpt lat="45.76918882094505" lon="14.892211397994211"><ele>497.0</ele><time>2026-05-05T09:01:53Z</time></trkpt><trkpt lat="45.76926160717871" lon="14.891983702879825"><ele>497.66666666666663</ele><time>2026-05-05T09:01:54Z</time></trkpt><trkpt lat="45.769313326355736" lon="14.891742930192473"><ele>498.33333333333337</ele><time>2026-05-05T09:01:55Z</time></trkpt><trkpt lat="45.76933916373476" lon="14.891527564152023"><ele>499.0</ele><time>2026-05-05T09:01:56Z</time></trkpt><trkpt lat="45.76933417583397" lon="14.891331491657498"><ele>499.0</ele><time>2026-05-05T09:01:57Z</time></trkpt><trkpt lat="45.769285917677735" lon="14.891168634768345"><ele>499.0</ele><time>2026-05-05T09:01:58Z</time></trkpt><trkpt lat="45.76923654290477" lon="14.891029585538362"><ele>499.0</ele><time>2026-05-05T09:01:59Z</time></trkpt><trkpt lat="45.769138932731664" lon="14.890951085252114"><ele>499.0</ele><time>2026-05-05T09:02:00Z</time></trkpt><trkpt lat="45.76901891643297" lon="14.890926023416997"><ele>499.75</ele><time>2026-05-05T09:02:01Z</time></trkpt><trkpt lat="45.76893001467334" lon="14.890819050705694"><ele>500.5</ele><time>2026-05-05T09:02:02Z</time></trkpt><trkpt lat="45.768860104369814" lon="14.890690189375434"><ele>501.25</ele><time>2026-05-05T09:02:03Z</time></trkpt><trkpt lat="45.76877531253344" lon="14.890534602491886"><ele>502.0</ele><time>2026-05-05T09:02:04Z</time></trkpt><trkpt lat="45.768771763373394" lon="14.890312547531671"><ele>501.33333333333337</ele><time>2026-05-05T09:02:05Z</time></trkpt><trkpt lat="45.76876382409744" lon="14.890090088939775"><ele>500.66666666666663</ele><time>2026-05-05T09:02:06Z</time></trkpt><trkpt lat="45.768757509241844" lon="14.889868298965073"><ele>500.0</ele><time>2026-05-05T09:02:07Z</time></trkpt><trkpt lat="45.768759754974205" lon="14.889656080401537"><ele>500.0</ele><time>2026-05-05T09:02:08Z</time></trkpt><trkpt lat="45.768769976614315" lon="14.889452715556072"><ele>500.0</ele><time>2026-05-05T09:02:09Z</time></trkpt><trkpt lat="45.768793009531535" lon="14.889275679294157"><ele>500.0</ele><time>2026-05-05T09:02:10Z</time></trkpt><trkpt lat="45.76881769236817" lon="14.88911844473973"><ele>500.0</ele><time>2026-05-05T09:02:11Z</time></trkpt><trkpt lat="45.76883626992739" lon="14.88900326817903"><ele>500.4</ele><time>2026-05-05T09:02:12Z</time></trkpt><trkpt lat="45.768857243359" lon="14.888873237761572"><ele>500.8</ele><time>2026-05-05T09:02:14Z</time></trkpt><trkpt lat="45.76887947648432" lon="14.8887353975277"><ele>501.20000000000005</ele><time>2026-05-05T09:02:16Z</time></trkpt><trkpt lat="45.768879047638386" lon="14.888628944212847"><ele>501.6</ele><time>2026-05-05T09:02:17Z</time></trkpt><trkpt lat="45.76890783951347" lon="14.888501813466648"><ele>502.0</ele><time>2026-05-05T09:02:18Z</time></trkpt><trkpt lat="45.768887075095314" lon="14.888337310239756"><ele>502.0</ele><time>2026-05-05T09:02:19Z</time></trkpt><trkpt lat="45.76887690399695" lon="14.888151186363208"><ele>502.0</ele><time>2026-05-05T09:02:20Z</time></trkpt><trkpt lat="45.76888078339082" lon="14.887938463881822"><ele>502.0</ele><time>2026-05-05T09:02:21Z</time></trkpt><trkpt lat="45.76887197661508" lon="14.887712790213651"><ele>502.0</ele><time>2026-05-05T09:02:22Z</time></trkpt><trkpt lat="45.76886098602187" lon="14.887478257947347"><ele>502.0</ele><time>2026-05-05T09:02:23Z</time></trkpt><trkpt lat="45.76882667359712" lon="14.887264411547159"><ele>502.0</ele><time>2026-05-05T09:02:24Z</time></trkpt><trkpt lat="45.76881025813965" lon="14.887051982062788"><ele>502.0</ele><time>2026-05-05T09:02:25Z</time></trkpt><trkpt lat="45.76877171121262" lon="14.886853463676692"><ele>502.0</ele><time>2026-05-05T09:02:26Z</time></trkpt><trkpt lat="45.76868948698713" lon="14.886663734391881"><ele>498.6666666666667</ele><time>2026-05-05T09:02:27Z</time></trkpt><trkpt lat="45.768621010191644" lon="14.88645384530388"><ele>495.33333333333337</ele><time>2026-05-05T09:02:28Z</time></trkpt><trkpt lat="45.76854761369544" lon="14.886244712831859"><ele>492.0</ele><time>2026-05-05T09:02:29Z</time></trkpt><trkpt lat="45.76852629784803" lon="14.886038349790548"><ele>492.66666666666663</ele><time>2026-05-05T09:02:30Z</time></trkpt><trkpt lat="45.76853298182079" lon="14.885809602307718"><ele>493.3333333333333</ele><time>2026-05-05T09:02:31Z</time></trkpt><trkpt lat="45.76852605137503" lon="14.885585531236726"><ele>494.0</ele><time>2026-05-05T09:02:32Z</time></trkpt><trkpt lat="45.768491151994" lon="14.885387288443454"><ele>495.75</ele><time>2026-05-05T09:02:33Z</time></trkpt><trkpt lat="45.76843677044657" lon="14.88520102033432"><ele>497.5</ele><time>2026-05-05T09:02:34Z</time></trkpt><trkpt lat="45.76835715793337" lon="14.885029037861393"><ele>499.25</ele><time>2026-05-05T09:02:35Z</time></trkpt><trkpt lat="45.7682531262465" lon="14.88486427611728"><ele>501.0</ele><time>2026-05-05T09:02:36Z</time></trkpt><trkpt lat="45.7681393765804" lon="14.884699055873266"><ele>501.0</ele><time>2026-05-05T09:02:37Z</time></trkpt><trkpt lat="45.76799575261203" lon="14.884579309353366"><ele>501.0</ele><time>2026-05-05T09:02:38Z</time></trkpt><trkpt lat="45.767857976598485" lon="14.884462329737087"><ele>501.0</ele><time>2026-05-05T09:02:39Z</time></trkpt><trkpt lat="45.76775417477586" lon="14.88432505259007"><ele>501.5</ele><time>2026-05-05T09:02:40Z</time></trkpt><trkpt lat="45.767668481337935" lon="14.884178368731984"><ele>502.0</ele><time>2026-05-05T09:02:41Z</time></trkpt><trkpt lat="45.76759194810734" lon="14.884001324723043"><ele>502.5</ele><time>2026-05-05T09:02:42Z</time></trkpt><trkpt lat="45.767505368778124" lon="14.883801304740127"><ele>503.0</ele><time>2026-05-05T09:02:43Z</time></trkpt><trkpt lat="45.76740937149155" lon="14.883593213697944"><ele>500.3333333333333</ele><time>2026-05-05T09:02:44Z</time></trkpt><trkpt lat="45.76731170563694" lon="14.883382142480878"><ele>497.66666666666663</ele><time>2026-05-05T09:02:45Z</time></trkpt><trkpt lat="45.767217092326476" lon="14.883168695677615"><ele>495.0</ele><time>2026-05-05T09:02:46Z</time></trkpt><trkpt lat="45.767124939452835" lon="14.882951504834057"><ele>495.0</ele><time>2026-05-05T09:02:47Z</time></trkpt><trkpt lat="45.767037575635285" lon="14.882727373256282"><ele>495.0</ele><time>2026-05-05T09:02:48Z</time></trkpt><trkpt lat="45.766956870156285" lon="14.882493627587676"><ele>495.0</ele><time>2026-05-05T09:02:49Z</time></trkpt><trkpt lat="45.76689428927595" lon="14.882244787603433"><ele>494.33333333333337</ele><time>2026-05-05T09:02:50Z</time></trkpt><trkpt lat="45.76685574968141" lon="14.881983871991379"><ele>493.6666666666667</ele><time>2026-05-05T09:02:51Z</time></trkpt><trkpt lat="45.76684814336212" lon="14.881736018833868"><ele>493.0</ele><time>2026-05-05T09:02:52Z</time></trkpt><trkpt lat="45.76688818865321" lon="14.88151074345133"><ele>492.6666666666667</ele><time>2026-05-05T09:02:53Z</time></trkpt><trkpt lat="45.76694830493636" lon="14.881288727017427"><ele>492.33333333333337</ele><time>2026-05-05T09:02:54Z</time></trkpt><trkpt lat="45.767018095183396" lon="14.881093080616852"><ele>492.0</ele><time>2026-05-05T09:02:55Z</time></trkpt><trkpt lat="45.76710571531486" lon="14.880932104909686"><ele>492.0</ele><time>2026-05-05T09:02:56Z</time></trkpt><trkpt lat="45.76722745308245" lon="14.880803046861233"><ele>492.0</ele><time>2026-05-05T09:02:57Z</time></trkpt><trkpt lat="45.7673666161" lon="14.880678422082035"><ele>492.0</ele><time>2026-05-05T09:02:58Z</time></trkpt><trkpt lat="45.7675065437964" lon="14.880529440396893"><ele>492.0</ele><time>2026-05-05T09:02:59Z</time></trkpt><trkpt lat="45.76766736400352" lon="14.880391818978525"><ele>492.0</ele><time>2026-05-05T09:03:00Z</time></trkpt><trkpt lat="45.76783615234145" lon="14.880239669979405"><ele>492.0</ele><time>2026-05-05T09:03:01Z</time></trkpt><trkpt lat="45.76800410638756" lon="14.880081630292683"><ele>494.66666666666663</ele><time>2026-05-05T09:03:02Z</time></trkpt><trkpt lat="45.7681458228451" lon="14.879941179322755"><ele>497.3333333333333</ele><time>2026-05-05T09:03:03Z</time></trkpt><trkpt lat="45.7682648235" lon="14.879804270089906"><ele>500.0</ele><time>2026-05-05T09:03:04Z</time></trkpt><trkpt lat="45.768364282878245" lon="14.879645009873354"><ele>500.0</ele><time>2026-05-05T09:03:05Z</time></trkpt><trkpt lat="45.768439587260616" lon="14.879445977370793"><ele>500.0</ele><time>2026-05-05T09:03:06Z</time></trkpt><trkpt lat="45.76850943397783" lon="14.87923225377123"><ele>500.0</ele><time>2026-05-05T09:03:07Z</time></trkpt><trkpt lat="45.76857948246095" lon="14.87900797511593"><ele>502.66666666666663</ele><time>2026-05-05T09:03:08Z</time></trkpt><trkpt lat="45.76862824868989" lon="14.878779521169841"><ele>505.33333333333337</ele><time>2026-05-05T09:03:09Z</time></trkpt><trkpt lat="45.76865065793509" lon="14.878538245214667"><ele>508.0</ele><time>2026-05-05T09:03:10Z</time></trkpt><trkpt lat="45.768650092830875" lon="14.878290599799774"><ele>509.0</ele><time>2026-05-05T09:03:11Z</time></trkpt><trkpt lat="45.76862340000059" lon="14.87804375383371"><ele>510.0</ele><time>2026-05-05T09:03:12Z</time></trkpt><trkpt lat="45.76855767618932" lon="14.87781232300769"><ele>511.0</ele><time>2026-05-05T09:03:13Z</time></trkpt><trkpt lat="45.76845756916418" lon="14.877594760866975"><ele>507.6666666666667</ele><time>2026-05-05T09:03:14Z</time></trkpt><trkpt lat="45.76834620876512" lon="14.877381841324281"><ele>504.33333333333337</ele><time>2026-05-05T09:03:15Z</time></trkpt><trkpt lat="45.76824094252154" lon="14.877193541003953"><ele>501.0</ele><time>2026-05-05T09:03:16Z</time></trkpt><trkpt lat="45.76814025473476" lon="14.877032163471673"><ele>501.0</ele><time>2026-05-05T09:03:17Z</time></trkpt><trkpt lat="45.76806648473491" lon="14.876874711831372"><ele>501.0</ele><time>2026-05-05T09:03:18Z</time></trkpt><trkpt lat="45.7680143094461" lon="14.876711147229244"><ele>501.0</ele><time>2026-05-05T09:03:19Z</time></trkpt><trkpt lat="45.76798462432114" lon="14.876539543730596"><ele>501.0</ele><time>2026-05-05T09:03:20Z</time></trkpt><trkpt lat="45.76800426833873" lon="14.876357404199368"><ele>502.75</ele><time>2026-05-05T09:03:21Z</time></trkpt><trkpt lat="45.768024920183464" lon="14.876168655665019"><ele>504.5</ele><time>2026-05-05T09:03:22Z</time></trkpt><trkpt lat="45.768125624808626" lon="14.876062904737793"><ele>506.25</ele><time>2026-05-05T09:03:23Z</time></trkpt><trkpt lat="45.76821964246646" lon="14.875945653573625"><ele>508.0</ele><time>2026-05-05T09:03:24Z</time></trkpt><trkpt lat="45.768312638815146" lon="14.875805042172333"><ele>508.0</ele><time>2026-05-05T09:03:25Z</time></trkpt><trkpt lat="45.768403121333385" lon="14.875662867803594"><ele>508.0</ele><time>2026-05-05T09:03:26Z</time></trkpt><trkpt lat="45.76847731548531" lon="14.875482502408248"><ele>508.0</ele><time>2026-05-05T09:03:27Z</time></trkpt><trkpt lat="45.76853546168586" lon="14.875274317423774"><ele>508.0</ele><time>2026-05-05T09:03:28Z</time></trkpt><trkpt lat="45.768583935779255" lon="14.875046901403943"><ele>510.6666666666667</ele><time>2026-05-05T09:03:29Z</time></trkpt><trkpt lat="45.76867234591057" lon="14.874817308728955"><ele>513.3333333333334</ele><time>2026-05-05T09:03:30Z</time></trkpt><trkpt lat="45.76874814655318" lon="14.874578678737963"><ele>516.0</ele><time>2026-05-05T09:03:31Z</time></trkpt><trkpt lat="45.76881808281747" lon="14.874351210986516"><ele>514.0</ele><time>2026-05-05T09:03:32Z</time></trkpt><trkpt lat="45.76888970073202" lon="14.874118273729673"><ele>512.0</ele><time>2026-05-05T09:03:33Z</time></trkpt><trkpt lat="45.76896838823249" lon="14.873883588793086"><ele>510.0</ele><time>2026-05-05T09:03:34Z</time></trkpt><trkpt lat="45.769064198738825" lon="14.873658528516598"><ele>510.0</ele><time>2026-05-05T09:03:35Z</time></trkpt><trkpt lat="45.76918958346436" lon="14.87345579896473"><ele>510.0</ele><time>2026-05-05T09:03:36Z</time></trkpt><trkpt lat="45.76931979566435" lon="14.873236731156004"><ele>510.0</ele><time>2026-05-05T09:03:37Z</time></trkpt><trkpt lat="45.769455351045245" lon="14.873004949377645"><ele>509.33333333333337</ele><time>2026-05-05T09:03:38Z</time></trkpt><trkpt lat="45.7695803733418" lon="14.87276506085475"><ele>508.6666666666667</ele><time>2026-05-05T09:03:39Z</time></trkpt><trkpt lat="45.769711712098186" lon="14.872542544809711"><ele>508.0</ele><time>2026-05-05T09:03:40Z</time></trkpt><trkpt lat="45.76984466726639" lon="14.87230299336681"><ele>507.6666666666667</ele><time>2026-05-05T09:03:41Z</time></trkpt><trkpt lat="45.76998439836259" lon="14.872097175821292"><ele>507.33333333333337</ele><time>2026-05-05T09:03:42Z</time></trkpt><trkpt lat="45.770107698426244" lon="14.871885869205027"><ele>507.0</ele><time>2026-05-05T09:03:43Z</time></trkpt><trkpt lat="45.770213937055985" lon="14.871671506663985"><ele>507.0</ele><time>2026-05-05T09:03:44Z</time></trkpt><trkpt lat="45.77032100084516" lon="14.871470975061621"><ele>507.0</ele><time>2026-05-05T09:03:45Z</time></trkpt><trkpt lat="45.77039560099497" lon="14.871231712103786"><ele>507.0</ele><time>2026-05-05T09:03:46Z</time></trkpt><trkpt lat="45.770454360944846" lon="14.870961816338342"><ele>505.33333333333337</ele><time>2026-05-05T09:03:47Z</time></trkpt><trkpt lat="45.77049549112572" lon="14.870676826207527"><ele>503.6666666666667</ele><time>2026-05-05T09:03:48Z</time></trkpt><trkpt lat="45.770519551862016" lon="14.8703809836197"><ele>502.0</ele><time>2026-05-05T09:03:49Z</time></trkpt><trkpt lat="45.77053776594772" lon="14.870089180384078"><ele>500.33333333333337</ele><time>2026-05-05T09:03:50Z</time></trkpt><trkpt lat="45.77055704631374" lon="14.869793845880139"><ele>498.66666666666663</ele><time>2026-05-05T09:03:51Z</time></trkpt><trkpt lat="45.770578722997314" lon="14.869502356198382"><ele>497.0</ele><time>2026-05-05T09:03:52Z</time></trkpt><trkpt lat="45.77059970574712" lon="14.869216380442381"><ele>495.66666666666663</ele><time>2026-05-05T09:03:53Z</time></trkpt><trkpt lat="45.77064762718019" lon="14.86894340437661"><ele>494.33333333333337</ele><time>2026-05-05T09:03:54Z</time></trkpt><trkpt lat="45.77071709602437" lon="14.86867747064845"><ele>493.0</ele><time>2026-05-05T09:03:55Z</time></trkpt><trkpt lat="45.77082290498547" lon="14.868413808694687"><ele>491.33333333333337</ele><time>2026-05-05T09:03:56Z</time></trkpt><trkpt lat="45.7709442247653" lon="14.868153371517076"><ele>489.66666666666663</ele><time>2026-05-05T09:03:57Z</time></trkpt><trkpt lat="45.77107184798838" lon="14.867893724274253"><ele>488.0</ele><time>2026-05-05T09:03:58Z</time></trkpt><trkpt lat="45.771199170256565" lon="14.86764706396326"><ele>489.66666666666663</ele><time>2026-05-05T09:03:59Z</time></trkpt><trkpt lat="45.77132598358182" lon="14.867415644324147"><ele>491.33333333333337</ele><time>2026-05-05T09:04:00Z</time></trkpt><trkpt lat="45.771458233409994" lon="14.867205295962556"><ele>493.0</ele><time>2026-05-05T09:04:01Z</time></trkpt><trkpt lat="45.77160529736498" lon="14.867021762417508"><ele>493.0</ele><time>2026-05-05T09:04:02Z</time></trkpt><trkpt lat="45.77175759100307" lon="14.866850744112526"><ele>493.0</ele><time>2026-05-05T09:04:03Z</time></trkpt><trkpt lat="45.77191197740916" lon="14.866692935844807"><ele>493.0</ele><time>2026-05-05T09:04:04Z</time></trkpt><trkpt lat="45.77205744589372" lon="14.866510468281357"><ele>492.33333333333337</ele><time>2026-05-05T09:04:05Z</time></trkpt><trkpt lat="45.772201089312915" lon="14.86632074491833"><ele>491.66666666666663</ele><time>2026-05-05T09:04:06Z</time></trkpt><trkpt lat="45.772317465664706" lon="14.866088792511261"><ele>491.0</ele><time>2026-05-05T09:04:07Z</time></trkpt><trkpt lat="45.77240793520552" lon="14.865823714850146"><ele>491.0</ele><time>2026-05-05T09:04:08Z</time></trkpt><trkpt lat="45.772481846567494" lon="14.865565535959044"><ele>491.0</ele><time>2026-05-05T09:04:09Z</time></trkpt><trkpt lat="45.77256771401315" lon="14.865325687443322"><ele>491.0</ele><time>2026-05-05T09:04:10Z</time></trkpt><trkpt lat="45.772644663384064" lon="14.86507859024591"><ele>491.3333333333333</ele><time>2026-05-05T09:04:11Z</time></trkpt><trkpt lat="45.772723159023045" lon="14.86484180124282"><ele>491.66666666666663</ele><time>2026-05-05T09:04:12Z</time></trkpt><trkpt lat="45.77280495708314" lon="14.864605989093192"><ele>492.0</ele><time>2026-05-05T09:04:13Z</time></trkpt><trkpt lat="45.7728778970635" lon="14.86437543226495"><ele>492.33333333333337</ele><time>2026-05-05T09:04:14Z</time></trkpt><trkpt lat="45.77292618981765" lon="14.864130238727611"><ele>492.6666666666667</ele><time>2026-05-05T09:04:15Z</time></trkpt><trkpt lat="45.77295523717906" lon="14.863895520324098"><ele>493.0</ele><time>2026-05-05T09:04:16Z</time></trkpt><trkpt lat="45.772950456828134" lon="14.863673661687171"><ele>493.0</ele><time>2026-05-05T09:04:17Z</time></trkpt><trkpt lat="45.772919604242496" lon="14.86347089592148"><ele>493.0</ele><time>2026-05-05T09:04:18Z</time></trkpt><trkpt lat="45.7729241900441" lon="14.863271812155949"><ele>493.0</ele><time>2026-05-05T09:04:19Z</time></trkpt><trkpt lat="45.772938118950755" lon="14.863095603661735"><ele>493.0</ele><time>2026-05-05T09:04:20Z</time></trkpt><trkpt lat="45.77298232494512" lon="14.862928432583777"><ele>493.25</ele><time>2026-05-05T09:04:21Z</time></trkpt><trkpt lat="45.77305052114193" lon="14.862756236429098"><ele>493.5</ele><time>2026-05-05T09:04:22Z</time></trkpt><trkpt lat="45.77312025215062" lon="14.862572858712346"><ele>493.75</ele><time>2026-05-05T09:04:23Z</time></trkpt><trkpt lat="45.77318406328695" lon="14.862399302199979"><ele>494.0</ele><time>2026-05-05T09:04:24Z</time></trkpt><trkpt lat="45.773246831867326" lon="14.862247652353183"><ele>493.25</ele><time>2026-05-05T09:04:25Z</time></trkpt><trkpt lat="45.77331980409239" lon="14.862128070294816"><ele>492.5</ele><time>2026-05-05T09:04:26Z</time></trkpt><trkpt lat="45.77340767299019" lon="14.862031197971765"><ele>491.75</ele><time>2026-05-05T09:04:27Z</time></trkpt><trkpt lat="45.77351426346183" lon="14.861986666285635"><ele>491.0</ele><time>2026-05-05T09:04:28Z</time></trkpt><trkpt lat="45.77363836233965" lon="14.861943077168053"><ele>491.0</ele><time>2026-05-05T09:04:29Z</time></trkpt><trkpt lat="45.77375613433347" lon="14.861876349128606"><ele>491.0</ele><time>2026-05-05T09:04:30Z</time></trkpt><trkpt lat="45.773869814240385" lon="14.861816800204318"><ele>491.0</ele><time>2026-05-05T09:04:31Z</time></trkpt><trkpt lat="45.77397733828244" lon="14.861729463573242"><ele>491.0</ele><time>2026-05-05T09:04:32Z</time></trkpt><trkpt lat="45.774078421342026" lon="14.861632685734326"><ele>490.4</ele><time>2026-05-05T09:04:33Z</time></trkpt><trkpt lat="45.77417134301162" lon="14.861524650147913"><ele>489.8</ele><time>2026-05-05T09:04:34Z</time></trkpt><trkpt lat="45.774248131132545" lon="14.861419183894238"><ele>489.19999999999993</ele><time>2026-05-05T09:04:35Z</time></trkpt><trkpt lat="45.774305652791654" lon="14.861320129157292"><ele>488.59999999999997</ele><time>2026-05-05T09:04:36Z</time></trkpt><trkpt lat="45.774350940162805" lon="14.861227059126769"><ele>488.0</ele><time>2026-05-05T09:04:37Z</time></trkpt><trkpt lat="45.774396288783855" lon="14.861146622307503"><ele>488.0</ele><time>2026-05-05T09:04:38Z</time></trkpt><trkpt lat="45.7744068697129" lon="14.861032237491584"><ele>487.99999999999994</ele><time>2026-05-05T09:04:39Z</time></trkpt><trkpt lat="45.77439594735344" lon="14.860910121761059"><ele>487.99999999999994</ele><time>2026-05-05T09:04:40Z</time></trkpt><trkpt lat="45.77439003992334" lon="14.860778672703676"><ele>488.0</ele><time>2026-05-05T09:04:41Z</time></trkpt><trkpt lat="45.774381606564" lon="14.86064065668378"><ele>488.0</ele><time>2026-05-05T09:04:42Z</time></trkpt><trkpt lat="45.77437226595165" lon="14.860493783548478"><ele>488.0</ele><time>2026-05-05T09:04:43Z</time></trkpt><trkpt lat="45.774347202505695" lon="14.860351427065229"><ele>487.99999999999994</ele><time>2026-05-05T09:04:44Z</time></trkpt><trkpt lat="45.77435124800632" lon="14.860212048914217"><ele>487.99999999999994</ele><time>2026-05-05T09:04:45Z</time></trkpt><trkpt lat="45.774334194802954" lon="14.8600790335018"><ele>488.0</ele><time>2026-05-05T09:04:46Z</time></trkpt><trkpt lat="45.77430591512656" lon="14.859941651153866"><ele>488.0</ele><time>2026-05-05T09:04:47Z</time></trkpt><trkpt lat="45.77425524576769" lon="14.859816729367791"><ele>488.0</ele><time>2026-05-05T09:04:48Z</time></trkpt><trkpt lat="45.77418448016202" lon="14.859707742493471"><ele>487.99999999999994</ele><time>2026-05-05T09:04:49Z</time></trkpt><trkpt lat="45.77409457980811" lon="14.859624443727972"><ele>487.99999999999994</ele><time>2026-05-05T09:04:50Z</time></trkpt><trkpt lat="45.77400289283482" lon="14.859551537988802"><ele>488.0</ele><time>2026-05-05T09:04:51Z</time></trkpt><trkpt lat="45.773916352295686" lon="14.859473047323451"><ele>488.0</ele><time>2026-05-05T09:04:52Z</time></trkpt><trkpt lat="45.7738302101951" lon="14.85939460385184"><ele>488.0</ele><time>2026-05-05T09:04:53Z</time></trkpt><trkpt lat="45.7737417887856" lon="14.859298090421177"><ele>487.99999999999994</ele><time>2026-05-05T09:04:54Z</time></trkpt><trkpt lat="45.77365982100115" lon="14.859206620927322"><ele>487.99999999999994</ele><time>2026-05-05T09:04:55Z</time></trkpt><trkpt lat="45.77357570969179" lon="14.859109008363653"><ele>488.0</ele><time>2026-05-05T09:04:56Z</time></trkpt><trkpt lat="45.7734903073805" lon="14.859009282048184"><ele>488.0</ele><time>2026-05-05T09:04:57Z</time></trkpt><trkpt lat="45.77342782149153" lon="14.858870261073355"><ele>486.79999999999995</ele><time>2026-05-05T09:04:58Z</time></trkpt><trkpt lat="45.77340319698338" lon="14.858732126536188"><ele>485.59999999999997</ele><time>2026-05-05T09:04:59Z</time></trkpt><trkpt lat="45.773388756428595" lon="14.858582542661578"><ele>484.40000000000003</ele><time>2026-05-05T09:05:00Z</time></trkpt><trkpt lat="45.77341335340876" lon="14.858423446566862"><ele>483.20000000000005</ele><time>2026-05-05T09:05:01Z</time></trkpt><trkpt lat="45.773444550149186" lon="14.858266210749939"><ele>482.0</ele><time>2026-05-05T09:05:02Z</time></trkpt><trkpt lat="45.773481871485174" lon="14.858117055783481"><ele>482.0</ele><time>2026-05-05T09:05:03Z</time></trkpt><trkpt lat="45.77352614498803" lon="14.857974923906971"><ele>482.00000000000006</ele><time>2026-05-05T09:05:04Z</time></trkpt><trkpt lat="45.77357068718948" lon="14.857836535533611"><ele>482.00000000000006</ele><time>2026-05-05T09:05:05Z</time></trkpt><trkpt lat="45.77362140413193" lon="14.857697049096089"><ele>482.0</ele><time>2026-05-05T09:05:06Z</time></trkpt><trkpt lat="45.77368633530737" lon="14.857565698852884"><ele>482.0</ele><time>2026-05-05T09:05:07Z</time></trkpt><trkpt lat="45.77375780413403" lon="14.857443977884701"><ele>481.5</ele><time>2026-05-05T09:05:08Z</time></trkpt><trkpt lat="45.77382720109162" lon="14.857317854063407"><ele>481.0</ele><time>2026-05-05T09:05:09Z</time></trkpt><trkpt lat="45.77389325483798" lon="14.857187010715526"><ele>480.5</ele><time>2026-05-05T09:05:10Z</time></trkpt><trkpt lat="45.77395896296758" lon="14.85705091627939"><ele>480.0</ele><time>2026-05-05T09:05:11Z</time></trkpt><trkpt lat="45.77397365020974" lon="14.85685876301949"><ele>479.25</ele><time>2026-05-05T09:05:12Z</time></trkpt><trkpt lat="45.7739945511463" lon="14.856678804919797"><ele>478.5</ele><time>2026-05-05T09:05:13Z</time></trkpt><trkpt lat="45.77403185665577" lon="14.856485710065193"><ele>477.75</ele><time>2026-05-05T09:05:14Z</time></trkpt><trkpt lat="45.77405835907043" lon="14.856283576309258"><ele>477.0</ele><time>2026-05-05T09:05:15Z</time></trkpt><trkpt lat="45.77408693844229" lon="14.856067009171062"><ele>475.33333333333337</ele><time>2026-05-05T09:05:16Z</time></trkpt><trkpt lat="45.77411200320561" lon="14.85583455946718"><ele>473.6666666666667</ele><time>2026-05-05T09:05:17Z</time></trkpt><trkpt lat="45.77413465565672" lon="14.855593876795954"><ele>472.0</ele><time>2026-05-05T09:05:18Z</time></trkpt><trkpt lat="45.77413551958934" lon="14.85533872822964"><ele>471.0</ele><time>2026-05-05T09:05:19Z</time></trkpt><trkpt lat="45.77414350113827" lon="14.855068959614872"><ele>470.0</ele><time>2026-05-05T09:05:20Z</time></trkpt><trkpt lat="45.77416816661168" lon="14.854787998957566"><ele>469.0</ele><time>2026-05-05T09:05:21Z</time></trkpt><trkpt lat="45.77417718714913" lon="14.854489838091528"><ele>467.33333333333337</ele><time>2026-05-05T09:05:22Z</time></trkpt><trkpt lat="45.77418401043051" lon="14.854184282290097"><ele>465.66666666666663</ele><time>2026-05-05T09:05:23Z</time></trkpt><trkpt lat="45.774194820675305" lon="14.853881506164802"><ele>464.0</ele><time>2026-05-05T09:05:24Z</time></trkpt><trkpt lat="45.77421944492766" lon="14.853601957236338"><ele>462.3333333333333</ele><time>2026-05-05T09:05:25Z</time></trkpt><trkpt lat="45.774269487642854" lon="14.853316202230367"><ele>460.66666666666663</ele><time>2026-05-05T09:05:26Z</time></trkpt><trkpt lat="45.77433344712505" lon="14.853012314825428"><ele>459.0</ele><time>2026-05-05T09:05:27Z</time></trkpt><trkpt lat="45.774402575583494" lon="14.852722226353558"><ele>462.66666666666663</ele><time>2026-05-05T09:05:28Z</time></trkpt><trkpt lat="45.77447071798297" lon="14.852451227118669"><ele>466.3333333333333</ele><time>2026-05-05T09:05:29Z</time></trkpt><trkpt lat="45.77455083224394" lon="14.852201264508942"><ele>470.0</ele><time>2026-05-05T09:05:30Z</time></trkpt><trkpt lat="45.77467031638964" lon="14.851964140494928"><ele>463.0</ele><time>2026-05-05T09:05:31Z</time></trkpt><trkpt lat="45.77482257567383" lon="14.85172183977265"><ele>456.0</ele><time>2026-05-05T09:05:32Z</time></trkpt><trkpt lat="45.77496123418091" lon="14.851459595051338"><ele>456.0</ele><time>2026-05-05T09:05:33Z</time></trkpt><trkpt lat="45.77508182127905" lon="14.851193632852432"><ele>456.0</ele><time>2026-05-05T09:05:34Z</time></trkpt><trkpt lat="45.77516230091673" lon="14.85088637749306"><ele>459.5</ele><time>2026-05-05T09:05:35Z</time></trkpt><trkpt lat="45.775215340798574" lon="14.850556000523213"><ele>463.0</ele><time>2026-05-05T09:05:36Z</time></trkpt><trkpt lat="45.7752759350418" lon="14.850239438815077"><ele>461.0</ele><time>2026-05-05T09:05:37Z</time></trkpt><trkpt lat="45.775315232947" lon="14.849932292579973"><ele>459.0</ele><time>2026-05-05T09:05:38Z</time></trkpt><trkpt lat="45.775354297606334" lon="14.849634397255828"><ele>457.0</ele><time>2026-05-05T09:05:39Z</time></trkpt><trkpt lat="45.77540052676225" lon="14.849345218837183"><ele>454.33333333333337</ele><time>2026-05-05T09:05:40Z</time></trkpt><trkpt lat="45.77545166718698" lon="14.849054891907354"><ele>451.66666666666663</ele><time>2026-05-05T09:05:41Z</time></trkpt><trkpt lat="45.775512492473034" lon="14.848772106599121"><ele>449.0</ele><time>2026-05-05T09:05:42Z</time></trkpt><trkpt lat="45.77558228410788" lon="14.8485024975695"><ele>446.3333333333333</ele><time>2026-05-05T09:05:43Z</time></trkpt><trkpt lat="45.77567194273543" lon="14.84823695304278"><ele>443.66666666666663</ele><time>2026-05-05T09:05:44Z</time></trkpt><trkpt lat="45.775788948803054" lon="14.847988821329565"><ele>441.0</ele><time>2026-05-05T09:05:45Z</time></trkpt><trkpt lat="45.77592304797605" lon="14.847753393482469"><ele>441.66666666666663</ele><time>2026-05-05T09:05:46Z</time></trkpt><trkpt lat="45.776070462807326" lon="14.847519606932874"><ele>442.3333333333333</ele><time>2026-05-05T09:05:47Z</time></trkpt><trkpt lat="45.77622427224909" lon="14.847313688946958"><ele>443.0</ele><time>2026-05-05T09:05:48Z</time></trkpt><trkpt lat="45.77638893843851" lon="14.847128227719283"><ele>443.0</ele><time>2026-05-05T09:05:49Z</time></trkpt><trkpt lat="45.776548689252806" lon="14.846939684148461"><ele>443.0</ele><time>2026-05-05T09:05:50Z</time></trkpt><trkpt lat="45.776678223105144" lon="14.846740172410223"><ele>443.0</ele><time>2026-05-05T09:05:51Z</time></trkpt><trkpt lat="45.77677699614058" lon="14.846490277636573"><ele>442.3333333333333</ele><time>2026-05-05T09:05:52Z</time></trkpt><trkpt lat="45.77683553262963" lon="14.846188928739888"><ele>441.66666666666663</ele><time>2026-05-05T09:05:53Z</time></trkpt><trkpt lat="45.776872035233254" lon="14.845861440128719"><ele>441.0</ele><time>2026-05-05T09:05:54Z</time></trkpt><trkpt lat="45.776931473189634" lon="14.84556277442655"><ele>441.0</ele><time>2026-05-05T09:05:55Z</time></trkpt><trkpt lat="45.77701759222303" lon="14.845320912829271"><ele>441.0</ele><time>2026-05-05T09:05:56Z</time></trkpt><trkpt lat="45.77711354520427" lon="14.845092561956834"><ele>441.0</ele><time>2026-05-05T09:05:57Z</time></trkpt><trkpt lat="45.77722001080805" lon="14.844864701296768"><ele>438.66666666666663</ele><time>2026-05-05T09:05:58Z</time></trkpt><trkpt lat="45.77734326153852" lon="14.844640918594397"><ele>436.3333333333333</ele><time>2026-05-05T09:05:59Z</time></trkpt><trkpt lat="45.77747542143513" lon="14.84442864316371"><ele>434.0</ele><time>2026-05-05T09:06:00Z</time></trkpt><trkpt lat="45.77760021481112" lon="14.844207091235903"><ele>435.3333333333333</ele><time>2026-05-05T09:06:01Z</time></trkpt><trkpt lat="45.77773888458138" lon="14.844006201213107"><ele>436.66666666666663</ele><time>2026-05-05T09:06:02Z</time></trkpt><trkpt lat="45.777841946479505" lon="14.84376338594844"><ele>438.0</ele><time>2026-05-05T09:06:03Z</time></trkpt><trkpt lat="45.777901415581994" lon="14.84348239696578"><ele>435.33333333333337</ele><time>2026-05-05T09:06:04Z</time></trkpt><trkpt lat="45.77795548238944" lon="14.843198667243877"><ele>432.6666666666667</ele><time>2026-05-05T09:06:05Z</time></trkpt><trkpt lat="45.77800491705319" lon="14.842924958017734"><ele>430.0</ele><time>2026-05-05T09:06:06Z</time></trkpt><trkpt lat="45.77808017223097" lon="14.842669680141302"><ele>427.33333333333337</ele><time>2026-05-05T09:06:07Z</time></trkpt><trkpt lat="45.77817200934664" lon="14.84240755204393"><ele>424.66666666666663</ele><time>2026-05-05T09:06:08Z</time></trkpt><trkpt lat="45.77825901547296" lon="14.842124252822693"><ele>422.0</ele><time>2026-05-05T09:06:09Z</time></trkpt><trkpt lat="45.77838361956678" lon="14.84186316429132"><ele>423.66666666666663</ele><time>2026-05-05T09:06:10Z</time></trkpt><trkpt lat="45.77848194187347" lon="14.841584911981492"><ele>425.33333333333337</ele><time>2026-05-05T09:06:11Z</time></trkpt><trkpt lat="45.77862889031935" lon="14.841351699385532"><ele>427.0</ele><time>2026-05-05T09:06:12Z</time></trkpt><trkpt lat="45.77874185760954" lon="14.84111226636151"><ele>422.6666666666667</ele><time>2026-05-05T09:06:13Z</time></trkpt><trkpt lat="45.778852609842126" lon="14.840876163976219"><ele>418.33333333333337</ele><time>2026-05-05T09:06:14Z</time></trkpt><trkpt lat="45.77897339737167" lon="14.840639824025073"><ele>414.0</ele><time>2026-05-05T09:06:15Z</time></trkpt><trkpt lat="45.779111990750266" lon="14.840438559056768"><ele>414.0</ele><time>2026-05-05T09:06:16Z</time></trkpt><trkpt lat="45.77926267956324" lon="14.840271953227527"><ele>414.0</ele><time>2026-05-05T09:06:17Z</time></trkpt><trkpt lat="45.77941604553387" lon="14.840128470191774"><ele>414.0</ele><time>2026-05-05T09:06:18Z</time></trkpt><trkpt lat="45.779544364492565" lon="14.839979706774534"><ele>412.33333333333337</ele><time>2026-05-05T09:06:19Z</time></trkpt><trkpt lat="45.77964222998365" lon="14.839817984590129"><ele>410.6666666666667</ele><time>2026-05-05T09:06:20Z</time></trkpt><trkpt lat="45.77970545170251" lon="14.839627538696774"><ele>409.0</ele><time>2026-05-05T09:06:21Z</time></trkpt><trkpt lat="45.779715014546184" lon="14.83940005457135"><ele>406.0</ele><time>2026-05-05T09:06:22Z</time></trkpt><trkpt lat="45.77968096454152" lon="14.839157745989514"><ele>403.0</ele><time>2026-05-05T09:06:23Z</time></trkpt><trkpt lat="45.7796042302004" lon="14.838915542617864"><ele>400.0</ele><time>2026-05-05T09:06:24Z</time></trkpt><trkpt lat="45.77951016636791" lon="14.838695852354729"><ele>400.0</ele><time>2026-05-05T09:06:25Z</time></trkpt><trkpt lat="45.77942250242281" lon="14.838498381744484"><ele>400.0</ele><time>2026-05-05T09:06:26Z</time></trkpt><trkpt lat="45.77937247505232" lon="14.838301743911368"><ele>400.0</ele><time>2026-05-05T09:06:27Z</time></trkpt><trkpt lat="45.779381885483666" lon="14.838102866357689"><ele>400.0</ele><time>2026-05-05T09:06:28Z</time></trkpt><trkpt lat="45.77944020284862" lon="14.83790297260543"><ele>399.6666666666667</ele><time>2026-05-05T09:06:29Z</time></trkpt><trkpt lat="45.779525187550796" lon="14.837683919660453"><ele>399.33333333333337</ele><time>2026-05-05T09:06:30Z</time></trkpt><trkpt lat="45.779615880201156" lon="14.837453231601502"><ele>399.0</ele><time>2026-05-05T09:06:31Z</time></trkpt><trkpt lat="45.77971115206124" lon="14.837202570654934"><ele>398.33333333333337</ele><time>2026-05-05T09:06:32Z</time></trkpt><trkpt lat="45.77980582964704" lon="14.836933363069836"><ele>397.6666666666667</ele><time>2026-05-05T09:06:33Z</time></trkpt><trkpt lat="45.77989868367986" lon="14.836659348668107"><ele>397.0</ele><time>2026-05-05T09:06:34Z</time></trkpt><trkpt lat="45.779989307858415" lon="14.836391680047214"><ele>397.0</ele><time>2026-05-05T09:06:35Z</time></trkpt><trkpt lat="45.780083288879425" lon="14.836134636181972"><ele>397.0</ele><time>2026-05-05T09:06:36Z</time></trkpt><trkpt lat="45.78019251331209" lon="14.835886044889138"><ele>397.0</ele><time>2026-05-05T09:06:37Z</time></trkpt><trkpt lat="45.78032349639281" lon="14.835651868910203"><ele>398.0</ele><time>2026-05-05T09:06:38Z</time></trkpt><trkpt lat="45.78048111291367" lon="14.835437164630273"><ele>399.0</ele><time>2026-05-05T09:06:39Z</time></trkpt><trkpt lat="45.78067428244972" lon="14.83526581827821"><ele>400.0</ele><time>2026-05-05T09:06:40Z</time></trkpt><trkpt lat="45.78088461809667" lon="14.83512790357963"><ele>401.6666666666667</ele><time>2026-05-05T09:06:41Z</time></trkpt><trkpt lat="45.78108139287716" lon="14.834998878994845"><ele>403.33333333333337</ele><time>2026-05-05T09:06:42Z</time></trkpt><trkpt lat="45.78125521043102" lon="14.834856495416847"><ele>405.0</ele><time>2026-05-05T09:06:43Z</time></trkpt><trkpt lat="45.78141972514667" lon="14.83470863778158"><ele>405.0</ele><time>2026-05-05T09:06:44Z</time></trkpt><trkpt lat="45.78157681278393" lon="14.834542090704863"><ele>405.0</ele><time>2026-05-05T09:06:45Z</time></trkpt><trkpt lat="45.781707245646544" lon="14.834331517139637"><ele>405.0</ele><time>2026-05-05T09:06:46Z</time></trkpt><trkpt lat="45.78181815017929" lon="14.834102862479458"><ele>407.0</ele><time>2026-05-05T09:06:47Z</time></trkpt><trkpt lat="45.781913811153366" lon="14.833864504304252"><ele>409.0</ele><time>2026-05-05T09:06:48Z</time></trkpt><trkpt lat="45.78198475805691" lon="14.833602357838448"><ele>411.0</ele><time>2026-05-05T09:06:49Z</time></trkpt><trkpt lat="45.78203310404162" lon="14.833328655208756"><ele>411.0</ele><time>2026-05-05T09:06:50Z</time></trkpt><trkpt lat="45.782101355665965" lon="14.833063618511266"><ele>411.0</ele><time>2026-05-05T09:06:51Z</time></trkpt><trkpt lat="45.782235566970044" lon="14.832820217152902"><ele>411.0</ele><time>2026-05-05T09:06:52Z</time></trkpt><trkpt lat="45.78242287969221" lon="14.832584478045801"><ele>409.0</ele><time>2026-05-05T09:06:53Z</time></trkpt><trkpt lat="45.7825879247574" lon="14.832380303419235"><ele>407.0</ele><time>2026-05-05T09:06:54Z</time></trkpt><trkpt lat="45.78272980657639" lon="14.832190662534844"><ele>405.0</ele><time>2026-05-05T09:06:55Z</time></trkpt><trkpt lat="45.78286824682603" lon="14.831978553997056"><ele>406.66666666666663</ele><time>2026-05-05T09:06:56Z</time></trkpt><trkpt lat="45.78301236621303" lon="14.831753342667387"><ele>408.3333333333333</ele><time>2026-05-05T09:06:57Z</time></trkpt><trkpt lat="45.783181593952776" lon="14.831566142429837"><ele>410.0</ele><time>2026-05-05T09:06:58Z</time></trkpt><trkpt lat="45.78334327520402" lon="14.83136956444474"><ele>410.0</ele><time>2026-05-05T09:06:59Z</time></trkpt><trkpt lat="45.78350106079142" lon="14.831162883464625"><ele>410.0</ele><time>2026-05-05T09:07:00Z</time></trkpt><trkpt lat="45.78367421401501" lon="14.831023543018594"><ele>410.0</ele><time>2026-05-05T09:07:01Z</time></trkpt><trkpt lat="45.78382227638555" lon="14.830894025732269"><ele>410.66666666666663</ele><time>2026-05-05T09:07:02Z</time></trkpt><trkpt lat="45.78394379494508" lon="14.830745687977995"><ele>411.33333333333337</ele><time>2026-05-05T09:07:03Z</time></trkpt><trkpt lat="45.78403291492457" lon="14.830560570251942"><ele>412.0</ele><time>2026-05-05T09:07:04Z</time></trkpt><trkpt lat="45.78409784027283" lon="14.830356242691375"><ele>412.0</ele><time>2026-05-05T09:07:05Z</time></trkpt><trkpt lat="45.78414961741352" lon="14.83018552782742"><ele>412.0</ele><time>2026-05-05T09:07:06Z</time></trkpt><trkpt lat="45.7842161909311" lon="14.830046658766902"><ele>412.0</ele><time>2026-05-05T09:07:07Z</time></trkpt><trkpt lat="45.784290058190756" lon="14.829936404447928"><ele>412.0</ele><time>2026-05-05T09:07:08Z</time></trkpt><trkpt lat="45.784367398097174" lon="14.829835990048315"><ele>411.25</ele><time>2026-05-05T09:07:09Z</time></trkpt><trkpt lat="45.78445626864656" lon="14.82973935419228"><ele>410.5</ele><time>2026-05-05T09:07:10Z</time></trkpt><trkpt lat="45.78454254235311" lon="14.829636607316779"><ele>409.75</ele><time>2026-05-05T09:07:11Z</time></trkpt><trkpt lat="45.784628454399844" lon="14.829520972225636"><ele>409.0</ele><time>2026-05-05T09:07:12Z</time></trkpt><trkpt lat="45.784717387571845" lon="14.829399411610074"><ele>410.5</ele><time>2026-05-05T09:07:13Z</time></trkpt><trkpt lat="45.784805767234644" lon="14.829280301371158"><ele>412.0</ele><time>2026-05-05T09:07:14Z</time></trkpt><trkpt lat="45.784906739521944" lon="14.829169204759383"><ele>413.5</ele><time>2026-05-05T09:07:15Z</time></trkpt><trkpt lat="45.785011289133465" lon="14.829104458088821"><ele>415.0</ele><time>2026-05-05T09:07:16Z</time></trkpt><trkpt lat="45.78512139643664" lon="14.829125471507135"><ele>415.0</ele><time>2026-05-05T09:07:17Z</time></trkpt><trkpt lat="45.78520733832064" lon="14.829090822086476"><ele>415.0</ele><time>2026-05-05T09:07:18Z</time></trkpt><trkpt lat="45.78527489047088" lon="14.829055521207518"><ele>415.0</ele><time>2026-05-05T09:07:19Z</time></trkpt><trkpt lat="45.78534505277556" lon="14.828961682191133"><ele>415.0</ele><time>2026-05-05T09:07:21Z</time></trkpt><trkpt lat="45.7852380621815" lon="14.828826960995773"><ele>415.0</ele><time>2026-05-05T09:07:22Z</time></trkpt><trkpt lat="45.78506118957006" lon="14.828897359773789"><ele>415.0</ele><time>2026-05-05T09:07:24Z</time></trkpt><trkpt lat="45.78495906367708" lon="14.828971333969038"><ele>415.0</ele><time>2026-05-05T09:07:25Z</time></trkpt><trkpt lat="45.784847921888606" lon="14.828927223099798"><ele>415.0</ele><time>2026-05-05T09:07:26Z</time></trkpt><trkpt lat="45.78474143538245" lon="14.82886936156758"><ele>415.0</ele><time>2026-05-05T09:07:27Z</time></trkpt><trkpt lat="45.784644007545005" lon="14.828791215521136"><ele>415.0</ele><time>2026-05-05T09:07:28Z</time></trkpt><trkpt lat="45.78455040717006" lon="14.828684789336286"><ele>415.0</ele><time>2026-05-05T09:07:29Z</time></trkpt><trkpt lat="45.78449704051288" lon="14.828552116287984"><ele>415.0</ele><time>2026-05-05T09:07:30Z</time></trkpt><trkpt lat="45.78445624806041" lon="14.828407037066587"><ele>415.0</ele><time>2026-05-05T09:07:31Z</time></trkpt><trkpt lat="45.784454684408146" lon="14.828250739360762"><ele>415.0</ele><time>2026-05-05T09:07:32Z</time></trkpt><trkpt lat="45.784456184248704" lon="14.82808734603673"><ele>417.8</ele><time>2026-05-05T09:07:33Z</time></trkpt><trkpt lat="45.78446216354497" lon="14.827925783198879"><ele>420.6</ele><time>2026-05-05T09:07:34Z</time></trkpt><trkpt lat="45.78447050944763" lon="14.82777003602583"><ele>423.4</ele><time>2026-05-05T09:07:35Z</time></trkpt><trkpt lat="45.78449073404612" lon="14.827628182799485"><ele>426.2</ele><time>2026-05-05T09:07:36Z</time></trkpt><trkpt lat="45.784524398564386" lon="14.827510089225864"><ele>429.0</ele><time>2026-05-05T09:07:37Z</time></trkpt><trkpt lat="45.784557904177795" lon="14.827412945718104"><ele>430.0</ele><time>2026-05-05T09:07:38Z</time></trkpt><trkpt lat="45.78457187722397" lon="14.827324552459455"><ele>431.0</ele><time>2026-05-05T09:07:39Z</time></trkpt><trkpt lat="45.78462268765687" lon="14.827207867625896"><ele>432.0</ele><time>2026-05-05T09:07:41Z</time></trkpt><trkpt lat="45.78451927987928" lon="14.827002504333056"><ele>433.0</ele><time>2026-05-05T09:07:43Z</time></trkpt><trkpt lat="45.784454305542454" lon="14.826907796013083"><ele>434.0</ele><time>2026-05-05T09:07:44Z</time></trkpt><trkpt lat="45.78438202700439" lon="14.826801007545527"><ele>434.0</ele><time>2026-05-05T09:07:45Z</time></trkpt><trkpt lat="45.784329076223685" lon="14.826672584679155"><ele>434.0</ele><time>2026-05-05T09:07:46Z</time></trkpt><trkpt lat="45.78428524068541" lon="14.826540860465006"><ele>434.0</ele><time>2026-05-05T09:07:47Z</time></trkpt><trkpt lat="45.78424062048871" lon="14.826392750988893"><ele>434.0</ele><time>2026-05-05T09:07:48Z</time></trkpt><trkpt lat="45.78420399826543" lon="14.826213007410185"><ele>434.0</ele><time>2026-05-05T09:07:49Z</time></trkpt><trkpt lat="45.78416525046141" lon="14.826025842296248"><ele>435.4</ele><time>2026-05-05T09:07:50Z</time></trkpt><trkpt lat="45.784123807722494" lon="14.825858838984958"><ele>436.79999999999995</ele><time>2026-05-05T09:07:51Z</time></trkpt><trkpt lat="45.78404863031963" lon="14.825748303307318"><ele>438.20000000000005</ele><time>2026-05-05T09:07:52Z</time></trkpt><trkpt lat="45.78396289004331" lon="14.825676226406381"><ele>439.6</ele><time>2026-05-05T09:07:53Z</time></trkpt><trkpt lat="45.78386678754596" lon="14.825613951323154"><ele>441.0</ele><time>2026-05-05T09:07:54Z</time></trkpt><trkpt lat="45.78380648431782" lon="14.82549911028508"><ele>441.0</ele><time>2026-05-05T09:07:55Z</time></trkpt><trkpt lat="45.78373936765507" lon="14.825388365058283"><ele>441.0</ele><time>2026-05-05T09:07:56Z</time></trkpt><trkpt lat="45.78366289414137" lon="14.825273583751652"><ele>441.0</ele><time>2026-05-05T09:07:57Z</time></trkpt><trkpt lat="45.783566506446206" lon="14.825178571251978"><ele>441.0</ele><time>2026-05-05T09:07:58Z</time></trkpt><trkpt lat="45.783473144649115" lon="14.825075972037302"><ele>441.0</ele><time>2026-05-05T09:07:59Z</time></trkpt><trkpt lat="45.78340316064023" lon="14.824958076669994"><ele>440.25</ele><time>2026-05-05T09:08:00Z</time></trkpt><trkpt lat="45.783336310595544" lon="14.824838587302748"><ele>439.5</ele><time>2026-05-05T09:08:01Z</time></trkpt><trkpt lat="45.78326708692606" lon="14.824713504773749"><ele>438.75</ele><time>2026-05-05T09:08:02Z</time></trkpt><trkpt lat="45.78319169770915" lon="14.824586587080525"><ele>438.0</ele><time>2026-05-05T09:08:03Z</time></trkpt><trkpt lat="45.78314278678857" lon="14.824431788307468"><ele>438.59999999999997</ele><time>2026-05-05T09:08:04Z</time></trkpt><trkpt lat="45.78307338594" lon="14.82429747771299"><ele>439.19999999999993</ele><time>2026-05-05T09:08:05Z</time></trkpt><trkpt lat="45.78301787827374" lon="14.824164283774873"><ele>439.8</ele><time>2026-05-05T09:08:06Z</time></trkpt><trkpt lat="45.782980836647084" lon="14.82401652101989"><ele>440.4</ele><time>2026-05-05T09:08:07Z</time></trkpt><trkpt lat="45.78293856610547" lon="14.823868671414157"><ele>441.0</ele><time>2026-05-05T09:08:08Z</time></trkpt><trkpt lat="45.78293404779" lon="14.823704257762616"><ele>441.0</ele><time>2026-05-05T09:08:09Z</time></trkpt><trkpt lat="45.78295002854167" lon="14.823544289922536"><ele>441.0</ele><time>2026-05-05T09:08:10Z</time></trkpt><trkpt lat="45.78298283894508" lon="14.82337902561049"><ele>441.0</ele><time>2026-05-05T09:08:11Z</time></trkpt><trkpt lat="45.78302387824833" lon="14.823203287823885"><ele>441.0</ele><time>2026-05-05T09:08:12Z</time></trkpt><trkpt lat="45.78308029964805" lon="14.823012179607648"><ele>441.33333333333337</ele><time>2026-05-05T09:08:13Z</time></trkpt><trkpt lat="45.783157557994265" lon="14.822817703568196"><ele>441.6666666666667</ele><time>2026-05-05T09:08:14Z</time></trkpt><trkpt lat="45.78321046014888" lon="14.82261952902532"><ele>442.0</ele><time>2026-05-05T09:08:15Z</time></trkpt><trkpt lat="45.783259061976466" lon="14.822394354307333"><ele>442.0</ele><time>2026-05-05T09:08:16Z</time></trkpt><trkpt lat="45.78330561614917" lon="14.822152885458996"><ele>442.0</ele><time>2026-05-05T09:08:17Z</time></trkpt><trkpt lat="45.78335057920522" lon="14.821909431124652"><ele>442.0</ele><time>2026-05-05T09:08:18Z</time></trkpt><trkpt lat="45.78338549317282" lon="14.821661946318109"><ele>442.0</ele><time>2026-05-05T09:08:19Z</time></trkpt><trkpt lat="45.783403113124365" lon="14.821422492471655"><ele>442.0</ele><time>2026-05-05T09:08:20Z</time></trkpt><trkpt lat="45.78340585562595" lon="14.821185101379568"><ele>442.0</ele><time>2026-05-05T09:08:21Z</time></trkpt><trkpt lat="45.78338845150366" lon="14.820946592223299"><ele>442.0</ele><time>2026-05-05T09:08:22Z</time></trkpt><trkpt lat="45.78334026163376" lon="14.820715487573702"><ele>442.0</ele><time>2026-05-05T09:08:23Z</time></trkpt><trkpt lat="45.78329278072727" lon="14.820486392496619"><ele>442.0</ele><time>2026-05-05T09:08:24Z</time></trkpt><trkpt lat="45.78323503563665" lon="14.820272570931586"><ele>443.0</ele><time>2026-05-05T09:08:25Z</time></trkpt><trkpt lat="45.78320674182295" lon="14.8200735554005"><ele>444.0</ele><time>2026-05-05T09:08:26Z</time></trkpt><trkpt lat="45.78322044342642" lon="14.819867837121759"><ele>445.0</ele><time>2026-05-05T09:08:27Z</time></trkpt><trkpt lat="45.78321759740056" lon="14.819650255907627"><ele>446.0</ele><time>2026-05-05T09:08:28Z</time></trkpt><trkpt lat="45.78318224013112" lon="14.819433075352716"><ele>449.3333333333333</ele><time>2026-05-05T09:08:29Z</time></trkpt><trkpt lat="45.78316542329144" lon="14.819212783157598"><ele>452.66666666666663</ele><time>2026-05-05T09:08:30Z</time></trkpt><trkpt lat="45.7831343756458" lon="14.818998807951003"><ele>456.0</ele><time>2026-05-05T09:08:31Z</time></trkpt><trkpt lat="45.783102914746095" lon="14.818788364296918"><ele>456.0</ele><time>2026-05-05T09:08:32Z</time></trkpt><trkpt lat="45.783071943142616" lon="14.818579516088846"><ele>456.0</ele><time>2026-05-05T09:08:33Z</time></trkpt><trkpt lat="45.783054988968246" lon="14.818365664618286"><ele>456.0</ele><time>2026-05-05T09:08:34Z</time></trkpt><trkpt lat="45.783057298328266" lon="14.818147536453798"><ele>458.33333333333337</ele><time>2026-05-05T09:08:35Z</time></trkpt><trkpt lat="45.783052883091514" lon="14.81791652859197"><ele>460.6666666666667</ele><time>2026-05-05T09:08:36Z</time></trkpt><trkpt lat="45.78299138417389" lon="14.817690140483146"><ele>463.0</ele><time>2026-05-05T09:08:37Z</time></trkpt><trkpt lat="45.782911915979675" lon="14.817463519668543"><ele>464.33333333333337</ele><time>2026-05-05T09:08:38Z</time></trkpt><trkpt lat="45.78282650188695" lon="14.817256484933882"><ele>465.66666666666663</ele><time>2026-05-05T09:08:39Z</time></trkpt><trkpt lat="45.782823845135404" lon="14.81703786449548"><ele>467.0</ele><time>2026-05-05T09:08:40Z</time></trkpt><trkpt lat="45.782842827268674" lon="14.81682696940342"><ele>469.3333333333333</ele><time>2026-05-05T09:08:41Z</time></trkpt><trkpt lat="45.782897737182026" lon="14.816589240551487"><ele>471.66666666666663</ele><time>2026-05-05T09:08:42Z</time></trkpt><trkpt lat="45.782968549002035" lon="14.816334701508858"><ele>474.0</ele><time>2026-05-05T09:08:43Z</time></trkpt><trkpt lat="45.78303336463979" lon="14.816065616931983"><ele>475.33333333333337</ele><time>2026-05-05T09:08:44Z</time></trkpt><trkpt lat="45.78311249393377" lon="14.815814880791498"><ele>476.6666666666667</ele><time>2026-05-05T09:08:45Z</time></trkpt><trkpt lat="45.7831861033974" lon="14.81557431258139"><ele>478.0</ele><time>2026-05-05T09:08:46Z</time></trkpt><trkpt lat="45.78325058009104" lon="14.815327622861057"><ele>479.6666666666667</ele><time>2026-05-05T09:08:47Z</time></trkpt><trkpt lat="45.78329884479153" lon="14.815072658061517"><ele>481.33333333333337</ele><time>2026-05-05T09:08:48Z</time></trkpt><trkpt lat="45.7833255306776" lon="14.814794211878834"><ele>483.0</ele><time>2026-05-05T09:08:49Z</time></trkpt><trkpt lat="45.78334204757844" lon="14.814502417297193"><ele>484.33333333333337</ele><time>2026-05-05T09:08:50Z</time></trkpt><trkpt lat="45.783380879103056" lon="14.81421450295916"><ele>485.6666666666667</ele><time>2026-05-05T09:08:51Z</time></trkpt><trkpt lat="45.78340535480582" lon="14.813913559572246"><ele>487.0</ele><time>2026-05-05T09:08:52Z</time></trkpt><trkpt lat="45.78343105396057" lon="14.813618931909316"><ele>488.0</ele><time>2026-05-05T09:08:53Z</time></trkpt><trkpt lat="45.783465219006096" lon="14.813328198170892"><ele>489.0</ele><time>2026-05-05T09:08:54Z</time></trkpt><trkpt lat="45.78352598997445" lon="14.81304537834414"><ele>490.0</ele><time>2026-05-05T09:08:55Z</time></trkpt><trkpt lat="45.783568224408185" lon="14.812767680322992"><ele>490.6666666666667</ele><time>2026-05-05T09:08:56Z</time></trkpt><trkpt lat="45.78366447140783" lon="14.81252372368131"><ele>491.33333333333337</ele><time>2026-05-05T09:08:57Z</time></trkpt><trkpt lat="45.78377004717608" lon="14.812276285996013"><ele>492.0</ele><time>2026-05-05T09:08:58Z</time></trkpt><trkpt lat="45.7838458163927" lon="14.812016757522455"><ele>494.33333333333337</ele><time>2026-05-05T09:08:59Z</time></trkpt><trkpt lat="45.78392150987306" lon="14.81174949148869"><ele>496.6666666666667</ele><time>2026-05-05T09:09:00Z</time></trkpt><trkpt lat="45.78398049705043" lon="14.811460152413428"><ele>499.0</ele><time>2026-05-05T09:09:01Z</time></trkpt><trkpt lat="45.7840377434408" lon="14.811164271575711"><ele>500.33333333333337</ele><time>2026-05-05T09:09:02Z</time></trkpt><trkpt lat="45.78408764625659" lon="14.810862734447193"><ele>501.66666666666663</ele><time>2026-05-05T09:09:03Z</time></trkpt><trkpt lat="45.78411108937238" lon="14.810554535748734"><ele>503.0</ele><time>2026-05-05T09:09:04Z</time></trkpt><trkpt lat="45.78413110570482" lon="14.81025501936813"><ele>503.3333333333333</ele><time>2026-05-05T09:09:05Z</time></trkpt><trkpt lat="45.78417922615576" lon="14.8099804954768"><ele>503.66666666666663</ele><time>2026-05-05T09:09:06Z</time></trkpt><trkpt lat="45.78426647395834" lon="14.809703929491434"><ele>504.0</ele><time>2026-05-05T09:09:07Z</time></trkpt><trkpt lat="45.784369333364495" lon="14.809457579138552"><ele>506.0</ele><time>2026-05-05T09:09:08Z</time></trkpt><trkpt lat="45.7844543772076" lon="14.809216817471539"><ele>508.0</ele><time>2026-05-05T09:09:09Z</time></trkpt><trkpt lat="45.78451980192274" lon="14.808987368207164"><ele>510.0</ele><time>2026-05-05T09:09:10Z</time></trkpt><trkpt lat="45.78456006349868" lon="14.808739884548903"><ele>510.0</ele><time>2026-05-05T09:09:11Z</time></trkpt><trkpt lat="45.78463308622549" lon="14.808535010561137"><ele>510.0</ele><time>2026-05-05T09:09:12Z</time></trkpt><trkpt lat="45.784740892647434" lon="14.808343695579584"><ele>510.0</ele><time>2026-05-05T09:09:13Z</time></trkpt><trkpt lat="45.784879126078444" lon="14.808159461224347"><ele>510.33333333333337</ele><time>2026-05-05T09:09:14Z</time></trkpt><trkpt lat="45.78500032683037" lon="14.807971139080307"><ele>510.6666666666667</ele><time>2026-05-05T09:09:15Z</time></trkpt><trkpt lat="45.785109222853926" lon="14.80776286504475"><ele>511.0</ele><time>2026-05-05T09:09:16Z</time></trkpt><trkpt lat="45.78518197248308" lon="14.807518906349"><ele>514.3333333333334</ele><time>2026-05-05T09:09:17Z</time></trkpt><trkpt lat="45.78524476598751" lon="14.807267347932225"><ele>517.6666666666666</ele><time>2026-05-05T09:09:18Z</time></trkpt><trkpt lat="45.785280632558084" lon="14.807009089632283"><ele>521.0</ele><time>2026-05-05T09:09:19Z</time></trkpt><trkpt lat="45.78529497980633" lon="14.806728783139038"><ele>521.0</ele><time>2026-05-05T09:09:20Z</time></trkpt><trkpt lat="45.78529951080523" lon="14.806455378580424"><ele>521.0</ele><time>2026-05-05T09:09:21Z</time></trkpt><trkpt lat="45.78529130828339" lon="14.806169363720606"><ele>521.0</ele><time>2026-05-05T09:09:22Z</time></trkpt><trkpt lat="45.78527170204849" lon="14.805878129862"><ele>521.0</ele><time>2026-05-05T09:09:23Z</time></trkpt><trkpt lat="45.78526485976877" lon="14.805582538311631"><ele>521.0</ele><time>2026-05-05T09:09:24Z</time></trkpt><trkpt lat="45.78522903289573" lon="14.805302013422631"><ele>521.0</ele><time>2026-05-05T09:09:25Z</time></trkpt><trkpt lat="45.785214802888596" lon="14.805058257577299"><ele>521.0</ele><time>2026-05-05T09:09:26Z</time></trkpt><trkpt lat="45.78518970104916" lon="14.804842559786145"><ele>521.0</ele><time>2026-05-05T09:09:27Z</time></trkpt><trkpt lat="45.78514689597076" lon="14.804627150080531"><ele>521.0</ele><time>2026-05-05T09:09:28Z</time></trkpt><trkpt lat="45.785061578429136" lon="14.804417300558946"><ele>521.0</ele><time>2026-05-05T09:09:29Z</time></trkpt><trkpt lat="45.784936502153336" lon="14.804223663341409"><ele>521.0</ele><time>2026-05-05T09:09:30Z</time></trkpt><trkpt lat="45.78480170341523" lon="14.804038401730276"><ele>521.0</ele><time>2026-05-05T09:09:31Z</time></trkpt><trkpt lat="45.78469523543675" lon="14.80383442350793"><ele>521.0</ele><time>2026-05-05T09:09:32Z</time></trkpt><trkpt lat="45.784562342337416" lon="14.803674462591532"><ele>521.0</ele><time>2026-05-05T09:09:33Z</time></trkpt><trkpt lat="45.78442781018846" lon="14.803533663806665"><ele>521.0</ele><time>2026-05-05T09:09:34Z</time></trkpt><trkpt lat="45.78430411722624" lon="14.803371514912582"><ele>523.0</ele><time>2026-05-05T09:09:35Z</time></trkpt><trkpt lat="45.78419385469992" lon="14.803197134537594"><ele>525.0</ele><time>2026-05-05T09:09:36Z</time></trkpt><trkpt lat="45.784082195690665" lon="14.802995006458724"><ele>527.0</ele><time>2026-05-05T09:09:37Z</time></trkpt><trkpt lat="45.78394927834491" lon="14.80280573119745"><ele>529.6666666666666</ele><time>2026-05-05T09:09:38Z</time></trkpt><trkpt lat="45.783822214951755" lon="14.802614368830783"><ele>532.3333333333334</ele><time>2026-05-05T09:09:39Z</time></trkpt><trkpt lat="45.783689187926406" lon="14.802469552700746"><ele>535.0</ele><time>2026-05-05T09:09:40Z</time></trkpt><trkpt lat="45.78357158817552" lon="14.802350933697461"><ele>535.0</ele><time>2026-05-05T09:09:41Z</time></trkpt><trkpt lat="45.78350594706029" lon="14.802216641569002"><ele>535.0</ele><time>2026-05-05T09:09:42Z</time></trkpt><trkpt lat="45.78352950069194" lon="14.802070644452664"><ele>535.0</ele><time>2026-05-05T09:09:43Z</time></trkpt><trkpt lat="45.783583510657465" lon="14.801963306144343"><ele>535.0</ele><time>2026-05-05T09:09:44Z</time></trkpt><trkpt lat="45.783661521139905" lon="14.801849211171605"><ele>535.0</ele><time>2026-05-05T09:09:45Z</time></trkpt><trkpt lat="45.78375863651848" lon="14.801700620722848"><ele>535.75</ele><time>2026-05-05T09:09:46Z</time></trkpt><trkpt lat="45.78385653663852" lon="14.801541606139438"><ele>536.5</ele><time>2026-05-05T09:09:47Z</time></trkpt><trkpt lat="45.78395020418962" lon="14.801414989444224"><ele>537.25</ele><time>2026-05-05T09:09:48Z</time></trkpt><trkpt lat="45.78400037720353" lon="14.801271210429555"><ele>538.0</ele><time>2026-05-05T09:09:49Z</time></trkpt><trkpt lat="45.78401290103677" lon="14.801088245082378"><ele>538.6666666666667</ele><time>2026-05-05T09:09:50Z</time></trkpt><trkpt lat="45.7839871678132" lon="14.800888078957227"><ele>539.3333333333334</ele><time>2026-05-05T09:09:51Z</time></trkpt><trkpt lat="45.783923596751144" lon="14.80069017930462"><ele>540.0</ele><time>2026-05-05T09:09:52Z</time></trkpt><trkpt lat="45.78387156681237" lon="14.800471762554219"><ele>540.0</ele><time>2026-05-05T09:09:53Z</time></trkpt><trkpt lat="45.78380656371959" lon="14.800234471535964"><ele>540.0</ele><time>2026-05-05T09:09:54Z</time></trkpt><trkpt lat="45.7837672266246" lon="14.800039937747547"><ele>540.0</ele><time>2026-05-05T09:09:55Z</time></trkpt><trkpt lat="45.783756077224666" lon="14.799854696439525"><ele>540.0</ele><time>2026-05-05T09:09:56Z</time></trkpt><trkpt lat="45.78371807729577" lon="14.799656775674853"><ele>541.0</ele><time>2026-05-05T09:09:57Z</time></trkpt><trkpt lat="45.78365799495496" lon="14.799461819980847"><ele>542.0</ele><time>2026-05-05T09:09:58Z</time></trkpt><trkpt lat="45.783555121549014" lon="14.79928562733532"><ele>543.0</ele><time>2026-05-05T09:09:59Z</time></trkpt><trkpt lat="45.78342901614646" lon="14.799135880914573"><ele>541.25</ele><time>2026-05-05T09:10:00Z</time></trkpt><trkpt lat="45.78331671724706" lon="14.799003111154324"><ele>539.5</ele><time>2026-05-05T09:10:01Z</time></trkpt><trkpt lat="45.78325786086128" lon="14.798840147301785"><ele>537.75</ele><time>2026-05-05T09:10:02Z</time></trkpt><trkpt lat="45.78323567253754" lon="14.798662839593929"><ele>536.0</ele><time>2026-05-05T09:10:03Z</time></trkpt><trkpt lat="45.78325361768747" lon="14.798473232627751"><ele>536.0</ele><time>2026-05-05T09:10:04Z</time></trkpt><trkpt lat="45.783269896467246" lon="14.798244651429073"><ele>536.0</ele><time>2026-05-05T09:10:05Z</time></trkpt><trkpt lat="45.78327256697724" lon="14.798021699534639"><ele>536.0</ele><time>2026-05-05T09:10:06Z</time></trkpt><trkpt lat="45.78328830564811" lon="14.797805823104941"><ele>536.6666666666666</ele><time>2026-05-05T09:10:07Z</time></trkpt><trkpt lat="45.78329290319049" lon="14.797593157464238"><ele>537.3333333333334</ele><time>2026-05-05T09:10:08Z</time></trkpt><trkpt lat="45.78330280020857" lon="14.797369140231533"><ele>538.0</ele><time>2026-05-05T09:10:09Z</time></trkpt><trkpt lat="45.783303243449005" lon="14.797152958885373"><ele>538.0</ele><time>2026-05-05T09:10:10Z</time></trkpt><trkpt lat="45.78327963160612" lon="14.79694056690952"><ele>538.0</ele><time>2026-05-05T09:10:11Z</time></trkpt><trkpt lat="45.783210071742246" lon="14.796735269873304"><ele>538.0</ele><time>2026-05-05T09:10:12Z</time></trkpt><trkpt lat="45.783119285316175" lon="14.79656482980439"><ele>537.6</ele><time>2026-05-05T09:10:13Z</time></trkpt><trkpt lat="45.78307457440859" lon="14.796396844379306"><ele>537.1999999999999</ele><time>2026-05-05T09:10:14Z</time></trkpt><trkpt lat="45.783072250473104" lon="14.796255508891807"><ele>536.8</ele><time>2026-05-05T09:10:15Z</time></trkpt><trkpt lat="45.783105473931" lon="14.796140859911361"><ele>536.4</ele><time>2026-05-05T09:10:16Z</time></trkpt><trkpt lat="45.78318337956052" lon="14.796064343217836"><ele>536.0</ele><time>2026-05-05T09:10:17Z</time></trkpt><trkpt lat="45.783282089495465" lon="14.796010668017386"><ele>536.25</ele><time>2026-05-05T09:10:18Z</time></trkpt><trkpt lat="45.78339943796057" lon="14.79598882034346"><ele>536.5</ele><time>2026-05-05T09:10:19Z</time></trkpt><trkpt lat="45.783512358731805" lon="14.795926979930378"><ele>536.75</ele><time>2026-05-05T09:10:20Z</time></trkpt><trkpt lat="45.78360526336176" lon="14.795849413072307"><ele>537.0</ele><time>2026-05-05T09:10:21Z</time></trkpt><trkpt lat="45.78365847326064" lon="14.795707546680257"><ele>537.0</ele><time>2026-05-05T09:10:22Z</time></trkpt><trkpt lat="45.783684376032326" lon="14.795538396871212"><ele>537.0</ele><time>2026-05-05T09:10:23Z</time></trkpt><trkpt lat="45.783727511052014" lon="14.795387561742283"><ele>537.0</ele><time>2026-05-05T09:10:24Z</time></trkpt><trkpt lat="45.783798786684144" lon="14.795247193140227"><ele>537.0</ele><time>2026-05-05T09:10:25Z</time></trkpt><trkpt lat="45.783912939668795" lon="14.795148329696866"><ele>535.25</ele><time>2026-05-05T09:10:26Z</time></trkpt><trkpt lat="45.78401608100772" lon="14.795029648507656"><ele>533.5</ele><time>2026-05-05T09:10:27Z</time></trkpt><trkpt lat="45.784108683504925" lon="14.79487744598502"><ele>531.75</ele><time>2026-05-05T09:10:28Z</time></trkpt><trkpt lat="45.78419978062495" lon="14.794710497487202"><ele>530.0</ele><time>2026-05-05T09:10:29Z</time></trkpt><trkpt lat="45.7842829274445" lon="14.794521138021329"><ele>527.3333333333333</ele><time>2026-05-05T09:10:30Z</time></trkpt><trkpt lat="45.78434367368329" lon="14.794305300160264"><ele>524.6666666666666</ele><time>2026-05-05T09:10:31Z</time></trkpt><trkpt lat="45.78437819889455" lon="14.794056786446145"><ele>522.0</ele><time>2026-05-05T09:10:32Z</time></trkpt><trkpt lat="45.784384843148565" lon="14.793789182965318"><ele>527.0</ele><time>2026-05-05T09:10:33Z</time></trkpt><trkpt lat="45.784374791183865" lon="14.793502096681408"><ele>532.0</ele><time>2026-05-05T09:10:34Z</time></trkpt><trkpt lat="45.7844114818838" lon="14.793210176295187"><ele>537.0</ele><time>2026-05-05T09:10:35Z</time></trkpt><trkpt lat="45.78445242660446" lon="14.792903975112829"><ele>534.0</ele><time>2026-05-05T09:10:36Z</time></trkpt><trkpt lat="45.784495032703326" lon="14.792601229618242"><ele>531.0</ele><time>2026-05-05T09:10:37Z</time></trkpt><trkpt lat="45.784534600492286" lon="14.792327839000304"><ele>528.0</ele><time>2026-05-05T09:10:38Z</time></trkpt><trkpt lat="45.78457863307619" lon="14.792081111575975"><ele>528.0</ele><time>2026-05-05T09:10:39Z</time></trkpt><trkpt lat="45.78464366667948" lon="14.791856173189803"><ele>528.0</ele><time>2026-05-05T09:10:40Z</time></trkpt><trkpt lat="45.78473809990853" lon="14.791655018564313"><ele>528.0</ele><time>2026-05-05T09:10:41Z</time></trkpt><trkpt lat="45.78484478694625" lon="14.791436027640886"><ele>524.3333333333334</ele><time>2026-05-05T09:10:42Z</time></trkpt><trkpt lat="45.78495255340174" lon="14.79122093106326"><ele>520.6666666666667</ele><time>2026-05-05T09:10:43Z</time></trkpt><trkpt lat="45.785052123899796" lon="14.790989073539583"><ele>517.0</ele><time>2026-05-05T09:10:44Z</time></trkpt><trkpt lat="45.78516930569462" lon="14.790771334694362"><ele>516.3333333333334</ele><time>2026-05-05T09:10:45Z</time></trkpt><trkpt lat="45.78528153593" lon="14.790543492816823"><ele>515.6666666666666</ele><time>2026-05-05T09:10:46Z</time></trkpt><trkpt lat="45.78536541971629" lon="14.790316369999388"><ele>515.0</ele><time>2026-05-05T09:10:47Z</time></trkpt><trkpt lat="45.78545991602423" lon="14.79013151565073"><ele>512.0</ele><time>2026-05-05T09:10:48Z</time></trkpt><trkpt lat="45.78553607289213" lon="14.789971328355444"><ele>509.0</ele><time>2026-05-05T09:10:49Z</time></trkpt><trkpt lat="45.785576308061856" lon="14.789817334367624"><ele>506.0</ele><time>2026-05-05T09:10:50Z</time></trkpt><trkpt lat="45.785585923125254" lon="14.789642503342183"><ele>503.0</ele><time>2026-05-05T09:10:51Z</time></trkpt><trkpt lat="45.785540061029074" lon="14.789447744552252"><ele>500.66666666666663</ele><time>2026-05-05T09:10:52Z</time></trkpt><trkpt lat="45.78544207418461" lon="14.789264468625104"><ele>498.33333333333337</ele><time>2026-05-05T09:10:53Z</time></trkpt><trkpt lat="45.78529443645529" lon="14.78911420044636"><ele>496.0</ele><time>2026-05-05T09:10:54Z</time></trkpt><trkpt lat="45.78512404890577" lon="14.788986933273952"><ele>496.0</ele><time>2026-05-05T09:10:55Z</time></trkpt><trkpt lat="45.78496551196161" lon="14.788821574324105"><ele>496.0</ele><time>2026-05-05T09:10:56Z</time></trkpt><trkpt lat="45.784796936650125" lon="14.788657881170963"><ele>496.0</ele><time>2026-05-05T09:10:57Z</time></trkpt><trkpt lat="45.784631924652075" lon="14.788497648132946"><ele>494.6666666666667</ele><time>2026-05-05T09:10:58Z</time></trkpt><trkpt lat="45.78447357969665" lon="14.788369526367596"><ele>493.33333333333337</ele><time>2026-05-05T09:10:59Z</time></trkpt><trkpt lat="45.78431320119948" lon="14.788246437388846"><ele>492.0</ele><time>2026-05-05T09:11:00Z</time></trkpt><trkpt lat="45.78413953961721" lon="14.788141927298756"><ele>492.0</ele><time>2026-05-05T09:11:01Z</time></trkpt><trkpt lat="45.7839576917491" lon="14.788055894279953"><ele>492.0</ele><time>2026-05-05T09:11:02Z</time></trkpt><trkpt lat="45.78380418329679" lon="14.787954334206388"><ele>492.0</ele><time>2026-05-05T09:11:03Z</time></trkpt><trkpt lat="45.78368047523176" lon="14.787848616760032"><ele>492.0</ele><time>2026-05-05T09:11:04Z</time></trkpt><trkpt lat="45.78360181545572" lon="14.787743136364309"><ele>492.00000000000006</ele><time>2026-05-05T09:11:05Z</time></trkpt><trkpt lat="45.783573585661735" lon="14.787621744275022"><ele>492.00000000000006</ele><time>2026-05-05T09:11:06Z</time></trkpt><trkpt lat="45.7835740404854" lon="14.787487068890998"><ele>492.0</ele><time>2026-05-05T09:11:07Z</time></trkpt><trkpt lat="45.783554105729145" lon="14.78733506069695"><ele>492.0</ele><time>2026-05-05T09:11:08Z</time></trkpt><trkpt lat="45.78357754042202" lon="14.787168771858019"><ele>490.75</ele><time>2026-05-05T09:11:09Z</time></trkpt><trkpt lat="45.78356569843281" lon="14.786986303917908"><ele>489.5</ele><time>2026-05-05T09:11:10Z</time></trkpt><trkpt lat="45.78351118147445" lon="14.786800770646371"><ele>488.25</ele><time>2026-05-05T09:11:11Z</time></trkpt><trkpt lat="45.78342771776999" lon="14.786626975736473"><ele>487.0</ele><time>2026-05-05T09:11:12Z</time></trkpt><trkpt lat="45.783316363874654" lon="14.786470571977711"><ele>486.75</ele><time>2026-05-05T09:11:13Z</time></trkpt><trkpt lat="45.78321412098034" lon="14.786311769844074"><ele>486.5</ele><time>2026-05-05T09:11:14Z</time></trkpt><trkpt lat="45.78316384896149" lon="14.786121541954099"><ele>486.25</ele><time>2026-05-05T09:11:15Z</time></trkpt><trkpt lat="45.78312718460201" lon="14.785918749181326"><ele>486.0</ele><time>2026-05-05T09:11:16Z</time></trkpt><trkpt lat="45.7830761825048" lon="14.785735100246244"><ele>485.75</ele><time>2026-05-05T09:11:17Z</time></trkpt><trkpt lat="45.78298646367564" lon="14.785554032386054"><ele>485.5</ele><time>2026-05-05T09:11:18Z</time></trkpt><trkpt lat="45.782887973411896" lon="14.785390763621406"><ele>485.25</ele><time>2026-05-05T09:11:19Z</time></trkpt><trkpt lat="45.7827894814421" lon="14.785257943952312"><ele>485.0</ele><time>2026-05-05T09:11:20Z</time></trkpt><trkpt lat="45.78269467102643" lon="14.785177157678635"><ele>482.0</ele><time>2026-05-05T09:11:21Z</time></trkpt><trkpt lat="45.78258346610236" lon="14.785138977874388"><ele>479.0</ele><time>2026-05-05T09:11:22Z</time></trkpt><trkpt lat="45.78244489159532" lon="14.785110774307721"><ele>476.0</ele><time>2026-05-05T09:11:23Z</time></trkpt><trkpt lat="45.78229846101302" lon="14.785083373457729"><ele>473.0</ele><time>2026-05-05T09:11:24Z</time></trkpt><trkpt lat="45.78214309852582" lon="14.785051472432704"><ele>473.0</ele><time>2026-05-05T09:11:25Z</time></trkpt><trkpt lat="45.781986601166615" lon="14.785049565491239"><ele>473.0</ele><time>2026-05-05T09:11:26Z</time></trkpt><trkpt lat="45.781808648594534" lon="14.785054592527977"><ele>473.0</ele><time>2026-05-05T09:11:27Z</time></trkpt><trkpt lat="45.781616680486465" lon="14.785040105842214"><ele>472.66666666666663</ele><time>2026-05-05T09:11:28Z</time></trkpt><trkpt lat="45.78143569001557" lon="14.784985741728695"><ele>472.33333333333337</ele><time>2026-05-05T09:11:29Z</time></trkpt><trkpt lat="45.78125914189509" lon="14.784959460435912"><ele>472.0</ele><time>2026-05-05T09:11:30Z</time></trkpt><trkpt lat="45.78108286917966" lon="14.784968051668802"><ele>472.0</ele><time>2026-05-05T09:11:31Z</time></trkpt><trkpt lat="45.78089998827857" lon="14.784998703739866"><ele>472.0</ele><time>2026-05-05T09:11:32Z</time></trkpt><trkpt lat="45.78071895212325" lon="14.785043881247462"><ele>472.0</ele><time>2026-05-05T09:11:33Z</time></trkpt><trkpt lat="45.78053891901414" lon="14.785119348250635"><ele>473.33333333333337</ele><time>2026-05-05T09:11:34Z</time></trkpt><trkpt lat="45.78036828265055" lon="14.785222373049725"><ele>474.66666666666663</ele><time>2026-05-05T09:11:35Z</time></trkpt><trkpt lat="45.78020049919015" lon="14.78532779243263"><ele>476.0</ele><time>2026-05-05T09:11:36Z</time></trkpt><trkpt lat="45.78004398890903" lon="14.785445517092242"><ele>476.0</ele><time>2026-05-05T09:11:37Z</time></trkpt><trkpt lat="45.77990569358554" lon="14.785574417536456"><ele>476.0</ele><time>2026-05-05T09:11:38Z</time></trkpt><trkpt lat="45.77979660913215" lon="14.785705634314432"><ele>476.0</ele><time>2026-05-05T09:11:39Z</time></trkpt><trkpt lat="45.77971868858554" lon="14.785812035581156"><ele>476.0</ele><time>2026-05-05T09:11:40Z</time></trkpt><trkpt lat="45.77965678570077" lon="14.785871895962904"><ele>476.0</ele><time>2026-05-05T09:11:41Z</time></trkpt><trkpt lat="45.779593069242765" lon="14.7858544437122"><ele>476.0</ele><time>2026-05-05T09:11:42Z</time></trkpt><trkpt lat="45.77953939595307" lon="14.785776891244758"><ele>476.0</ele><time>2026-05-05T09:11:43Z</time></trkpt><trkpt lat="45.77953392968473" lon="14.785658725914136"><ele>476.0</ele><time>2026-05-05T09:11:44Z</time></trkpt><trkpt lat="45.77959316922494" lon="14.785525356187405"><ele>476.0</ele><time>2026-05-05T09:11:45Z</time></trkpt><trkpt lat="45.779701141000416" lon="14.785394740562037"><ele>476.0</ele><time>2026-05-05T09:11:46Z</time></trkpt><trkpt lat="45.77982287090498" lon="14.78525400274775"><ele>476.0</ele><time>2026-05-05T09:11:47Z</time></trkpt><trkpt lat="45.77994054213015" lon="14.785103754433237"><ele>476.0</ele><time>2026-05-05T09:11:48Z</time></trkpt><trkpt lat="45.78004477165512" lon="14.784927365546961"><ele>474.66666666666663</ele><time>2026-05-05T09:11:49Z</time></trkpt><trkpt lat="45.78016582728246" lon="14.784745369296646"><ele>473.33333333333337</ele><time>2026-05-05T09:11:50Z</time></trkpt><trkpt lat="45.78030431280349" lon="14.784583987854061"><ele>472.0</ele><time>2026-05-05T09:11:51Z</time></trkpt><trkpt lat="45.78045363576112" lon="14.784447400817283"><ele>466.33333333333337</ele><time>2026-05-05T09:11:52Z</time></trkpt><trkpt lat="45.78061596808932" lon="14.784339434397351"><ele>460.66666666666663</ele><time>2026-05-05T09:11:53Z</time></trkpt><trkpt lat="45.78079771926397" lon="14.784243373358743"><ele>455.0</ele><time>2026-05-05T09:11:54Z</time></trkpt><trkpt lat="45.78098835720806" lon="14.78415534329859"><ele>456.3333333333333</ele><time>2026-05-05T09:11:55Z</time></trkpt><trkpt lat="45.78118571361991" lon="14.784085095471344"><ele>457.66666666666663</ele><time>2026-05-05T09:11:56Z</time></trkpt><trkpt lat="45.78137545992749" lon="14.7840028416585"><ele>459.0</ele><time>2026-05-05T09:11:57Z</time></trkpt><trkpt lat="45.781543280651306" lon="14.78391046968227"><ele>459.0</ele><time>2026-05-05T09:11:58Z</time></trkpt><trkpt lat="45.7816971512824" lon="14.783802752322716"><ele>459.0</ele><time>2026-05-05T09:11:59Z</time></trkpt><trkpt lat="45.78183378464044" lon="14.783667703460724"><ele>459.0</ele><time>2026-05-05T09:12:00Z</time></trkpt><trkpt lat="45.78196073268228" lon="14.783495195895048"><ele>457.33333333333337</ele><time>2026-05-05T09:12:01Z</time></trkpt><trkpt lat="45.782081852864295" lon="14.783332353766664"><ele>455.6666666666667</ele><time>2026-05-05T09:12:02Z</time></trkpt><trkpt lat="45.78219506672502" lon="14.783188610058899"><ele>454.0</ele><time>2026-05-05T09:12:03Z</time></trkpt><trkpt lat="45.78229186254545" lon="14.783013039065283"><ele>454.0</ele><time>2026-05-05T09:12:04Z</time></trkpt><trkpt lat="45.782353164904045" lon="14.78278475552831"><ele>454.0</ele><time>2026-05-05T09:12:05Z</time></trkpt><trkpt lat="45.78238293901726" lon="14.782522790959808"><ele>454.0</ele><time>2026-05-05T09:12:06Z</time></trkpt><trkpt lat="45.78242336314989" lon="14.782263846539259"><ele>451.0</ele><time>2026-05-05T09:12:07Z</time></trkpt><trkpt lat="45.78246323859241" lon="14.782026488893141"><ele>448.0</ele><time>2026-05-05T09:12:08Z</time></trkpt><trkpt lat="45.782501964821016" lon="14.78180308796797"><ele>445.0</ele><time>2026-05-05T09:12:09Z</time></trkpt><trkpt lat="45.782540222318445" lon="14.781597166904373"><ele>444.5</ele><time>2026-05-05T09:12:10Z</time></trkpt><trkpt lat="45.78257715601871" lon="14.78140335136475"><ele>444.0</ele><time>2026-05-05T09:12:11Z</time></trkpt><trkpt lat="45.78260799502672" lon="14.781223396541286"><ele>443.5</ele><time>2026-05-05T09:12:12Z</time></trkpt><trkpt lat="45.7826439116607" lon="14.781055663880473"><ele>443.0</ele><time>2026-05-05T09:12:13Z</time></trkpt><trkpt lat="45.78271024158882" lon="14.780899436693039"><ele>443.0</ele><time>2026-05-05T09:12:14Z</time></trkpt><trkpt lat="45.78280336723595" lon="14.78076275356808"><ele>443.0</ele><time>2026-05-05T09:12:15Z</time></trkpt><trkpt lat="45.78290122346718" lon="14.780635622630964"><ele>443.0</ele><time>2026-05-05T09:12:16Z</time></trkpt><trkpt lat="45.78297050088956" lon="14.780476104620929"><ele>443.0</ele><time>2026-05-05T09:12:17Z</time></trkpt><trkpt lat="45.7830156757008" lon="14.780285822291988"><ele>442.5</ele><time>2026-05-05T09:12:18Z</time></trkpt><trkpt lat="45.78304320193725" lon="14.780089775416823"><ele>442.0</ele><time>2026-05-05T09:12:19Z</time></trkpt><trkpt lat="45.78305803205577" lon="14.779904311256294"><ele>441.5</ele><time>2026-05-05T09:12:20Z</time></trkpt><trkpt lat="45.78303584720893" lon="14.779720087335598"><ele>441.0</ele><time>2026-05-05T09:12:21Z</time></trkpt><trkpt lat="45.782963289100586" lon="14.779541545931727"><ele>441.33333333333337</ele><time>2026-05-05T09:12:22Z</time></trkpt><trkpt lat="45.782878976798095" lon="14.779350218982525"><ele>441.6666666666667</ele><time>2026-05-05T09:12:23Z</time></trkpt><trkpt lat="45.78283074306874" lon="14.779120878557102"><ele>442.0</ele><time>2026-05-05T09:12:24Z</time></trkpt><trkpt lat="45.782806869104895" lon="14.778871169809294"><ele>442.0</ele><time>2026-05-05T09:12:25Z</time></trkpt><trkpt lat="45.78278572236279" lon="14.778626581541577"><ele>442.0</ele><time>2026-05-05T09:12:26Z</time></trkpt><trkpt lat="45.78278270381123" lon="14.778384185289093"><ele>442.0</ele><time>2026-05-05T09:12:27Z</time></trkpt><trkpt lat="45.782814082483156" lon="14.77813702897945"><ele>441.6666666666667</ele><time>2026-05-05T09:12:28Z</time></trkpt><trkpt lat="45.78285674435553" lon="14.777904766249568"><ele>441.33333333333337</ele><time>2026-05-05T09:12:29Z</time></trkpt><trkpt lat="45.78287230060418" lon="14.777672849465295"><ele>441.0</ele><time>2026-05-05T09:12:30Z</time></trkpt><trkpt lat="45.7828594570471" lon="14.77744629223346"><ele>439.5</ele><time>2026-05-05T09:12:31Z</time></trkpt><trkpt lat="45.78284030843013" lon="14.77724156709322"><ele>438.0</ele><time>2026-05-05T09:12:32Z</time></trkpt><trkpt lat="45.7828242167977" lon="14.77704190667083"><ele>436.5</ele><time>2026-05-05T09:12:33Z</time></trkpt><trkpt lat="45.78279922386383" lon="14.776847729303574"><ele>435.0</ele><time>2026-05-05T09:12:34Z</time></trkpt><trkpt lat="45.782762211828796" lon="14.776654938305107"><ele>434.0</ele><time>2026-05-05T09:12:35Z</time></trkpt><trkpt lat="45.78271662118124" lon="14.77649710435854"><ele>433.0</ele><time>2026-05-05T09:12:36Z</time></trkpt><trkpt lat="45.78264986286204" lon="14.776374520922031"><ele>432.0</ele><time>2026-05-05T09:12:37Z</time></trkpt><trkpt lat="45.782580746670604" lon="14.77631317614612"><ele>431.0</ele><time>2026-05-05T09:12:38Z</time></trkpt><trkpt lat="45.78248962888202" lon="14.77625987202906"><ele>430.0</ele><time>2026-05-05T09:12:40Z</time></trkpt><trkpt lat="45.78243498031149" lon="14.776213919612054"><ele>429.00000000000006</ele><time>2026-05-05T09:12:43Z</time></trkpt><trkpt lat="45.78237527834754" lon="14.776162438451271"><ele>428.0</ele><time>2026-05-05T09:13:58Z</time></trkpt><trkpt lat="45.78231910288262" lon="14.77609899840752"><ele>427.0</ele><time>2026-05-05T09:14:00Z</time></trkpt><trkpt lat="45.78225528317738" lon="14.776021443192962"><ele>426.0</ele><time>2026-05-05T09:14:02Z</time></trkpt><trkpt lat="45.78218798646969" lon="14.775940673210398"><ele>425.00000000000006</ele><time>2026-05-05T09:14:04Z</time></trkpt><trkpt lat="45.78213540320077" lon="14.775843076872807"><ele>424.0</ele><time>2026-05-05T09:14:06Z</time></trkpt><trkpt lat="45.78213470509813" lon="14.775720842986887"><ele>423.50000000000006</ele><time>2026-05-05T09:14:08Z</time></trkpt><trkpt lat="45.782203475147156" lon="14.775612980277085"><ele>423.0</ele><time>2026-05-05T09:14:10Z</time></trkpt><trkpt lat="45.782264252635095" lon="14.775522587557065"><ele>422.5</ele><time>2026-05-05T09:14:11Z</time></trkpt><trkpt lat="45.78232178331119" lon="14.775436247400766"><ele>422.0</ele><time>2026-05-05T09:14:12Z</time></trkpt><trkpt lat="45.78237228049989" lon="14.775373250664984"><ele>421.50000000000006</ele><time>2026-05-05T09:14:13Z</time></trkpt><trkpt lat="45.78242785330856" lon="14.775313366383676"><ele>421.0</ele><time>2026-05-05T09:14:14Z</time></trkpt><trkpt lat="45.78248056165941" lon="14.77523713796247"><ele>420.8</ele><time>2026-05-05T09:14:15Z</time></trkpt><trkpt lat="45.782545402054936" lon="14.775135710077238"><ele>420.6</ele><time>2026-05-05T09:14:16Z</time></trkpt><trkpt lat="45.78262660770362" lon="14.77502552878532"><ele>420.4</ele><time>2026-05-05T09:14:17Z</time></trkpt><trkpt lat="45.782688677314034" lon="14.774948106550335"><ele>420.2</ele><time>2026-05-05T09:14:18Z</time></trkpt><trkpt lat="45.78274054285498" lon="14.774891410056165"><ele>420.0</ele><time>2026-05-05T09:14:19Z</time></trkpt><trkpt lat="45.78282404865983" lon="14.774781302634286"><ele>420.0</ele><time>2026-05-05T09:14:21Z</time></trkpt><trkpt lat="45.782915607866016" lon="14.774657032151005"><ele>420.0</ele><time>2026-05-05T09:14:23Z</time></trkpt><trkpt lat="45.782971936273526" lon="14.774594881361724"><ele>420.0</ele><time>2026-05-05T09:14:24Z</time></trkpt><trkpt lat="45.78303186046142" lon="14.774537851216444"><ele>420.0</ele><time>2026-05-05T09:14:25Z</time></trkpt><trkpt lat="45.7830961267317" lon="14.774463699585134"><ele>420.0</ele><time>2026-05-05T09:14:26Z</time></trkpt><trkpt lat="45.78316274121052" lon="14.77438418440018"><ele>420.0</ele><time>2026-05-05T09:14:27Z</time></trkpt><trkpt lat="45.78323501216272" lon="14.774303092571365"><ele>419.8333333333333</ele><time>2026-05-05T09:14:28Z</time></trkpt><trkpt lat="45.78330482297543" lon="14.77423324101804"><ele>419.66666666666663</ele><time>2026-05-05T09:14:29Z</time></trkpt><trkpt lat="45.78337295004427" lon="14.774169577718213"><ele>419.5</ele><time>2026-05-05T09:14:30Z</time></trkpt><trkpt lat="45.7834326388874" lon="14.774097865995829"><ele>419.3333333333333</ele><time>2026-05-05T09:14:31Z</time></trkpt><trkpt lat="45.78349621877812" lon="14.774012750321223"><ele>419.16666666666663</ele><time>2026-05-05T09:14:32Z</time></trkpt><trkpt lat="45.78355780648731" lon="14.77393696878662"><ele>419.0</ele><time>2026-05-05T09:14:33Z</time></trkpt><trkpt lat="45.78364173513071" lon="14.773857301765183"><ele>419.0</ele><time>2026-05-05T09:14:34Z</time></trkpt><trkpt lat="45.78370969917232" lon="14.773778688859382"><ele>419.0</ele><time>2026-05-05T09:14:35Z</time></trkpt><trkpt lat="45.78377752016062" lon="14.773700875998134"><ele>419.0</ele><time>2026-05-05T09:14:36Z</time></trkpt><trkpt lat="45.78385100150808" lon="14.773624137104123"><ele>419.0</ele><time>2026-05-05T09:14:37Z</time></trkpt><trkpt lat="45.78393380720488" lon="14.773544558813153"><ele>419.0</ele><time>2026-05-05T09:14:38Z</time></trkpt><trkpt lat="45.78402535113525" lon="14.773448505554232"><ele>419.0</ele><time>2026-05-05T09:14:39Z</time></trkpt><trkpt lat="45.78412354555713" lon="14.773332983479031"><ele>419.0</ele><time>2026-05-05T09:14:40Z</time></trkpt><trkpt lat="45.78421179795003" lon="14.773213911907595"><ele>419.0</ele><time>2026-05-05T09:14:41Z</time></trkpt><trkpt lat="45.78430308120987" lon="14.773071133531225"><ele>419.0</ele><time>2026-05-05T09:14:42Z</time></trkpt><trkpt lat="45.784400696696984" lon="14.772920038179874"><ele>418.75</ele><time>2026-05-05T09:14:43Z</time></trkpt><trkpt lat="45.784501082630364" lon="14.77277024843427"><ele>418.5</ele><time>2026-05-05T09:14:44Z</time></trkpt><trkpt lat="45.78460842410458" lon="14.77262649986156"><ele>418.25</ele><time>2026-05-05T09:14:45Z</time></trkpt><trkpt lat="45.78471739309629" lon="14.77247470154551"><ele>418.0</ele><time>2026-05-05T09:14:46Z</time></trkpt><trkpt lat="45.784825405029096" lon="14.772319241158682"><ele>418.0</ele><time>2026-05-05T09:14:47Z</time></trkpt><trkpt lat="45.784933675425705" lon="14.772160898945026"><ele>418.0</ele><time>2026-05-05T09:14:48Z</time></trkpt><trkpt lat="45.785043928455664" lon="14.771999401818785"><ele>418.0</ele><time>2026-05-05T09:14:49Z</time></trkpt><trkpt lat="45.78514399143582" lon="14.771843301025395"><ele>418.75</ele><time>2026-05-05T09:14:50Z</time></trkpt><trkpt lat="45.785230076115106" lon="14.771675351251465"><ele>419.5</ele><time>2026-05-05T09:14:51Z</time></trkpt><trkpt lat="45.78529351445414" lon="14.771490424601476"><ele>420.25</ele><time>2026-05-05T09:14:52Z</time></trkpt><trkpt lat="45.78535204175462" lon="14.77128927194087"><ele>421.0</ele><time>2026-05-05T09:14:53Z</time></trkpt><trkpt lat="45.78541290606277" lon="14.7710990104482"><ele>420.5</ele><time>2026-05-05T09:14:54Z</time></trkpt><trkpt lat="45.785485911821176" lon="14.77092189181124"><ele>420.0</ele><time>2026-05-05T09:14:55Z</time></trkpt><trkpt lat="45.78556850654296" lon="14.770761586662129"><ele>419.5</ele><time>2026-05-05T09:14:56Z</time></trkpt><trkpt lat="45.785668168505616" lon="14.7706158901796"><ele>419.0</ele><time>2026-05-05T09:14:57Z</time></trkpt><trkpt lat="45.7857834615692" lon="14.770483218343392"><ele>419.0</ele><time>2026-05-05T09:14:58Z</time></trkpt><trkpt lat="45.78591237607119" lon="14.770356110953204"><ele>419.0</ele><time>2026-05-05T09:14:59Z</time></trkpt><trkpt lat="45.786031286993" lon="14.770229673402964"><ele>419.0</ele><time>2026-05-05T09:15:00Z</time></trkpt><trkpt lat="45.7861336651821" lon="14.77010819770771"><ele>419.0</ele><time>2026-05-05T09:15:01Z</time></trkpt><trkpt lat="45.78621837240358" lon="14.769957600501812"><ele>420.0</ele><time>2026-05-05T09:15:02Z</time></trkpt><trkpt lat="45.78628337833887" lon="14.769759796647836"><ele>421.0</ele><time>2026-05-05T09:15:03Z</time></trkpt><trkpt lat="45.786329224272286" lon="14.769528684820592"><ele>422.0</ele><time>2026-05-05T09:15:04Z</time></trkpt><trkpt lat="45.78639690320766" lon="14.769301212036549"><ele>422.0</ele><time>2026-05-05T09:15:05Z</time></trkpt><trkpt lat="45.78646995256577" lon="14.769054213245251"><ele>422.0</ele><time>2026-05-05T09:15:06Z</time></trkpt><trkpt lat="45.78655444605396" lon="14.768821172064587"><ele>422.0</ele><time>2026-05-05T09:15:07Z</time></trkpt><trkpt lat="45.78664969200437" lon="14.768592803607888"><ele>421.0</ele><time>2026-05-05T09:15:08Z</time></trkpt><trkpt lat="45.78675129418908" lon="14.768358763048596"><ele>420.0</ele><time>2026-05-05T09:15:09Z</time></trkpt><trkpt lat="45.78683835041667" lon="14.768118092046345"><ele>419.0</ele><time>2026-05-05T09:15:10Z</time></trkpt><trkpt lat="45.78693581436175" lon="14.767886760079616"><ele>425.66666666666663</ele><time>2026-05-05T09:15:11Z</time></trkpt><trkpt lat="45.787027628980944" lon="14.767655862147915"><ele>432.33333333333337</ele><time>2026-05-05T09:15:12Z</time></trkpt><trkpt lat="45.787108631679125" lon="14.767424862735984"><ele>439.0</ele><time>2026-05-05T09:15:13Z</time></trkpt><trkpt lat="45.78717448861329" lon="14.76719933173618"><ele>439.0</ele><time>2026-05-05T09:15:14Z</time></trkpt><trkpt lat="45.78722936514598" lon="14.766968512230713"><ele>439.0</ele><time>2026-05-05T09:15:15Z</time></trkpt><trkpt lat="45.78727003411282" lon="14.766709584958699"><ele>439.0</ele><time>2026-05-05T09:15:16Z</time></trkpt><trkpt lat="45.78729274671429" lon="14.766447520674237"><ele>437.33333333333337</ele><time>2026-05-05T09:15:17Z</time></trkpt><trkpt lat="45.78736391972091" lon="14.766212739084462"><ele>435.66666666666663</ele><time>2026-05-05T09:15:18Z</time></trkpt><trkpt lat="45.787460300935145" lon="14.765977331271655"><ele>434.0</ele><time>2026-05-05T09:15:19Z</time></trkpt><trkpt lat="45.78757027349156" lon="14.765729308992132"><ele>431.66666666666663</ele><time>2026-05-05T09:15:20Z</time></trkpt><trkpt lat="45.787662882689375" lon="14.765478888971952"><ele>429.33333333333337</ele><time>2026-05-05T09:15:21Z</time></trkpt><trkpt lat="45.78774717901795" lon="14.765221520322541"><ele>427.0</ele><time>2026-05-05T09:15:22Z</time></trkpt><trkpt lat="45.78780356475908" lon="14.7649559080234"><ele>430.6666666666667</ele><time>2026-05-05T09:15:23Z</time></trkpt><trkpt lat="45.78784883493782" lon="14.764695828332908"><ele>434.33333333333337</ele><time>2026-05-05T09:15:24Z</time></trkpt><trkpt lat="45.7879404508005" lon="14.764446287632008"><ele>438.0</ele><time>2026-05-05T09:15:25Z</time></trkpt><trkpt lat="45.78802444227297" lon="14.764181692114503"><ele>438.0</ele><time>2026-05-05T09:15:26Z</time></trkpt><trkpt lat="45.788073595821835" lon="14.763902474266503"><ele>438.0</ele><time>2026-05-05T09:15:27Z</time></trkpt><trkpt lat="45.78810026965107" lon="14.763627466826582"><ele>438.0</ele><time>2026-05-05T09:15:28Z</time></trkpt><trkpt lat="45.78810507118346" lon="14.763367155656988"><ele>437.25</ele><time>2026-05-05T09:15:29Z</time></trkpt><trkpt lat="45.78809819827929" lon="14.763129968811251"><ele>436.5</ele><time>2026-05-05T09:15:30Z</time></trkpt><trkpt lat="45.78810921436174" lon="14.762921325603296"><ele>435.75</ele><time>2026-05-05T09:15:31Z</time></trkpt><trkpt lat="45.78814874898456" lon="14.76275456368984"><ele>435.0</ele><time>2026-05-05T09:15:32Z</time></trkpt><trkpt lat="45.788224398861274" lon="14.762616645160232"><ele>432.66666666666663</ele><time>2026-05-05T09:15:33Z</time></trkpt><trkpt lat="45.788307551982626" lon="14.762453990797676"><ele>430.3333333333333</ele><time>2026-05-05T09:15:34Z</time></trkpt><trkpt lat="45.78840514307149" lon="14.762277661634583"><ele>428.0</ele><time>2026-05-05T09:15:35Z</time></trkpt><trkpt lat="45.788495491475985" lon="14.762076629096716"><ele>432.66666666666663</ele><time>2026-05-05T09:15:36Z</time></trkpt><trkpt lat="45.78859073286354" lon="14.761861115432405"><ele>437.33333333333337</ele><time>2026-05-05T09:15:37Z</time></trkpt><trkpt lat="45.78869441857095" lon="14.761655939158725"><ele>442.0</ele><time>2026-05-05T09:15:38Z</time></trkpt><trkpt lat="45.78883211426162" lon="14.761482226498263"><ele>442.0</ele><time>2026-05-05T09:15:39Z</time></trkpt><trkpt lat="45.788980273204274" lon="14.761299473937205"><ele>442.0</ele><time>2026-05-05T09:15:40Z</time></trkpt><trkpt lat="45.78912102700634" lon="14.761091391482529"><ele>442.0</ele><time>2026-05-05T09:15:41Z</time></trkpt><trkpt lat="45.789270500162225" lon="14.760887697282566"><ele>443.6666666666667</ele><time>2026-05-05T09:15:42Z</time></trkpt><trkpt lat="45.78940937109507" lon="14.76066753963692"><ele>445.33333333333337</ele><time>2026-05-05T09:15:43Z</time></trkpt><trkpt lat="45.789529278991495" lon="14.76042179408083"><ele>447.0</ele><time>2026-05-05T09:15:44Z</time></trkpt><trkpt lat="45.789635375104446" lon="14.760169535620937"><ele>447.0</ele><time>2026-05-05T09:15:45Z</time></trkpt><trkpt lat="45.78973995180532" lon="14.75989963884764"><ele>447.0</ele><time>2026-05-05T09:15:46Z</time></trkpt><trkpt lat="45.789822761321304" lon="14.759610146325326"><ele>447.0</ele><time>2026-05-05T09:15:47Z</time></trkpt><trkpt lat="45.789893383823944" lon="14.75930399040581"><ele>443.66666666666663</ele><time>2026-05-05T09:15:48Z</time></trkpt><trkpt lat="45.78995323140973" lon="14.758994426765868"><ele>440.3333333333333</ele><time>2026-05-05T09:15:49Z</time></trkpt><trkpt lat="45.79004671007837" lon="14.75870279855985"><ele>437.0</ele><time>2026-05-05T09:15:50Z</time></trkpt><trkpt lat="45.79012873572429" lon="14.7584140860323"><ele>443.66666666666663</ele><time>2026-05-05T09:15:51Z</time></trkpt><trkpt lat="45.790211552674485" lon="14.758135283203886"><ele>450.33333333333337</ele><time>2026-05-05T09:15:52Z</time></trkpt><trkpt lat="45.79029542002265" lon="14.757853282143781"><ele>457.0</ele><time>2026-05-05T09:15:53Z</time></trkpt><trkpt lat="45.790383603545514" lon="14.757572138438686"><ele>457.0</ele><time>2026-05-05T09:15:54Z</time></trkpt><trkpt lat="45.79048476757591" lon="14.757303946097505"><ele>457.0</ele><time>2026-05-05T09:15:55Z</time></trkpt><trkpt lat="45.79060283499554" lon="14.757042878927068"><ele>457.0</ele><time>2026-05-05T09:15:56Z</time></trkpt><trkpt lat="45.79072004514051" lon="14.756778735972237"><ele>457.0</ele><time>2026-05-05T09:15:57Z</time></trkpt><trkpt lat="45.79082441477919" lon="14.75651276627021"><ele>457.0</ele><time>2026-05-05T09:15:58Z</time></trkpt><trkpt lat="45.79094447814949" lon="14.756265669746565"><ele>457.0</ele><time>2026-05-05T09:15:59Z</time></trkpt><trkpt lat="45.79105865193634" lon="14.756021692769266"><ele>457.0</ele><time>2026-05-05T09:16:00Z</time></trkpt><trkpt lat="45.79117371267699" lon="14.755772703036417"><ele>457.0</ele><time>2026-05-05T09:16:01Z</time></trkpt><trkpt lat="45.79128738588659" lon="14.755522555487953"><ele>457.0</ele><time>2026-05-05T09:16:02Z</time></trkpt><trkpt lat="45.791422333923805" lon="14.75528993023665"><ele>450.0</ele><time>2026-05-05T09:16:03Z</time></trkpt><trkpt lat="45.791554417178844" lon="14.755048996732837"><ele>443.0</ele><time>2026-05-05T09:16:04Z</time></trkpt><trkpt lat="45.791691241744815" lon="14.754823988651372"><ele>436.0</ele><time>2026-05-05T09:16:05Z</time></trkpt><trkpt lat="45.79182340475462" lon="14.754610649515433"><ele>438.33333333333337</ele><time>2026-05-05T09:16:06Z</time></trkpt><trkpt lat="45.7919562306069" lon="14.754393000097226"><ele>440.66666666666663</ele><time>2026-05-05T09:16:07Z</time></trkpt><trkpt lat="45.7920707301045" lon="14.754155670537877"><ele>443.0</ele><time>2026-05-05T09:16:08Z</time></trkpt><trkpt lat="45.79219585458145" lon="14.753926152520803"><ele>443.0</ele><time>2026-05-05T09:16:09Z</time></trkpt><trkpt lat="45.79231661435202" lon="14.753691471998694"><ele>443.0</ele><time>2026-05-05T09:16:10Z</time></trkpt><trkpt lat="45.792439228111725" lon="14.753454940971432"><ele>443.0</ele><time>2026-05-05T09:16:11Z</time></trkpt><trkpt lat="45.792584918850395" lon="14.75324237362476"><ele>441.66666666666663</ele><time>2026-05-05T09:16:12Z</time></trkpt><trkpt lat="45.792726393977624" lon="14.753020433573173"><ele>440.33333333333337</ele><time>2026-05-05T09:16:13Z</time></trkpt><trkpt lat="45.792866263225704" lon="14.75280587721023"><ele>439.0</ele><time>2026-05-05T09:16:14Z</time></trkpt><trkpt lat="45.79299507969941" lon="14.752575904850183"><ele>439.0</ele><time>2026-05-05T09:16:15Z</time></trkpt><trkpt lat="45.7931469193712" lon="14.752375953136239"><ele>439.0</ele><time>2026-05-05T09:16:16Z</time></trkpt><trkpt lat="45.79328386373451" lon="14.75216353918386"><ele>439.0</ele><time>2026-05-05T09:16:17Z</time></trkpt><trkpt lat="45.79342432163305" lon="14.751945675414158"><ele>441.6666666666667</ele><time>2026-05-05T09:16:18Z</time></trkpt><trkpt lat="45.79356372291722" lon="14.751734694011715"><ele>444.33333333333337</ele><time>2026-05-05T09:16:19Z</time></trkpt><trkpt lat="45.793712305058136" lon="14.751534652078064"><ele>447.0</ele><time>2026-05-05T09:16:20Z</time></trkpt><trkpt lat="45.79387931052443" lon="14.75133806332511"><ele>447.0</ele><time>2026-05-05T09:16:21Z</time></trkpt><trkpt lat="45.79405921517991" lon="14.751159589636373"><ele>447.0</ele><time>2026-05-05T09:16:22Z</time></trkpt><trkpt lat="45.794238580177016" lon="14.750983577609217"><ele>447.0</ele><time>2026-05-05T09:16:23Z</time></trkpt><trkpt lat="45.79440819219744" lon="14.75080045498549"><ele>446.33333333333337</ele><time>2026-05-05T09:16:24Z</time></trkpt><trkpt lat="45.79455005635449" lon="14.75058403967315"><ele>445.6666666666667</ele><time>2026-05-05T09:16:25Z</time></trkpt><trkpt lat="45.79468210942187" lon="14.75037655130863"><ele>445.0</ele><time>2026-05-05T09:16:26Z</time></trkpt><trkpt lat="45.794793498025285" lon="14.750140253531569"><ele>444.33333333333337</ele><time>2026-05-05T09:16:27Z</time></trkpt><trkpt lat="45.79492726668498" lon="14.7499294663162"><ele>443.66666666666663</ele><time>2026-05-05T09:16:28Z</time></trkpt><trkpt lat="45.79507321087406" lon="14.74973342884119"><ele>443.0</ele><time>2026-05-05T09:16:29Z</time></trkpt><trkpt lat="45.79522555238319" lon="14.749544621819185"><ele>438.3333333333333</ele><time>2026-05-05T09:16:30Z</time></trkpt><trkpt lat="45.795371148449554" lon="14.749365896071403"><ele>433.66666666666663</ele><time>2026-05-05T09:16:31Z</time></trkpt><trkpt lat="45.79550705666293" lon="14.749191784063827"><ele>429.0</ele><time>2026-05-05T09:16:32Z</time></trkpt><trkpt lat="45.79564294445839" lon="14.748997693537442"><ele>429.0</ele><time>2026-05-05T09:16:33Z</time></trkpt><trkpt lat="45.795758267646306" lon="14.74877502473766"><ele>429.0</ele><time>2026-05-05T09:16:34Z</time></trkpt><trkpt lat="45.79587656148953" lon="14.748564598811205"><ele>429.0</ele><time>2026-05-05T09:16:35Z</time></trkpt><trkpt lat="45.7960010498342" lon="14.74836715172783"><ele>428.66666666666663</ele><time>2026-05-05T09:16:36Z</time></trkpt><trkpt lat="45.79611955318274" lon="14.748150352941742"><ele>428.3333333333333</ele><time>2026-05-05T09:16:37Z</time></trkpt><trkpt lat="45.79623683012012" lon="14.747935797843615"><ele>428.0</ele><time>2026-05-05T09:16:38Z</time></trkpt><trkpt lat="45.796253905896286" lon="14.74761503067979"><ele>427.3333333333333</ele><time>2026-05-05T09:16:39Z</time></trkpt><trkpt lat="45.796340937752035" lon="14.747365870044641"><ele>426.66666666666663</ele><time>2026-05-05T09:16:40Z</time></trkpt><trkpt lat="45.796446811605925" lon="14.747126524330124"><ele>426.0</ele><time>2026-05-05T09:16:41Z</time></trkpt><trkpt lat="45.79656511753305" lon="14.74690154212605"><ele>425.33333333333337</ele><time>2026-05-05T09:16:42Z</time></trkpt><trkpt lat="45.79668243901103" lon="14.746677420092738"><ele>424.6666666666667</ele><time>2026-05-05T09:16:43Z</time></trkpt><trkpt lat="45.796791236258976" lon="14.746447291527312"><ele>424.0</ele><time>2026-05-05T09:16:44Z</time></trkpt><trkpt lat="45.79690031338619" lon="14.746211303841685"><ele>423.6666666666667</ele><time>2026-05-05T09:16:45Z</time></trkpt><trkpt lat="45.79701053979221" lon="14.74597446331269"><ele>423.33333333333337</ele><time>2026-05-05T09:16:46Z</time></trkpt><trkpt lat="45.79713282547201" lon="14.745745583562584"><ele>423.0</ele><time>2026-05-05T09:16:47Z</time></trkpt><trkpt lat="45.79726798728594" lon="14.745534801992706"><ele>423.0</ele><time>2026-05-05T09:16:48Z</time></trkpt><trkpt lat="45.79740908134834" lon="14.745328658783995"><ele>423.0</ele><time>2026-05-05T09:16:49Z</time></trkpt><trkpt lat="45.797546691630934" lon="14.745123124219994"><ele>423.0</ele><time>2026-05-05T09:16:50Z</time></trkpt><trkpt lat="45.79768289641922" lon="14.744913665501171"><ele>423.33333333333337</ele><time>2026-05-05T09:16:51Z</time></trkpt><trkpt lat="45.797815360185744" lon="14.744707269413984"><ele>423.6666666666667</ele><time>2026-05-05T09:16:52Z</time></trkpt><trkpt lat="45.797947414138164" lon="14.74450175556436"><ele>424.0</ele><time>2026-05-05T09:16:53Z</time></trkpt><trkpt lat="45.7980791662262" lon="14.744292078563152"><ele>424.0</ele><time>2026-05-05T09:16:54Z</time></trkpt><trkpt lat="45.79820760796571" lon="14.744075588494828"><ele>424.0</ele><time>2026-05-05T09:16:55Z</time></trkpt><trkpt lat="45.79832997348906" lon="14.743855443643385"><ele>424.0</ele><time>2026-05-05T09:16:56Z</time></trkpt><trkpt lat="45.79845774351938" lon="14.743632734517464"><ele>425.33333333333337</ele><time>2026-05-05T09:16:57Z</time></trkpt><trkpt lat="45.79859175102746" lon="14.743424450921106"><ele>426.66666666666663</ele><time>2026-05-05T09:16:58Z</time></trkpt><trkpt lat="45.79873248000528" lon="14.743238822533014"><ele>428.0</ele><time>2026-05-05T09:16:59Z</time></trkpt><trkpt lat="45.79888279224322" lon="14.743086868930959"><ele>428.0</ele><time>2026-05-05T09:17:00Z</time></trkpt><trkpt lat="45.79904080962192" lon="14.742950096398936"><ele>428.0</ele><time>2026-05-05T09:17:01Z</time></trkpt><trkpt lat="45.79920323858572" lon="14.742820962171537"><ele>428.0</ele><time>2026-05-05T09:17:02Z</time></trkpt><trkpt lat="45.79938188431433" lon="14.742713935510281"><ele>428.3333333333333</ele><time>2026-05-05T09:17:03Z</time></trkpt><trkpt lat="45.799564166670045" lon="14.742613287497148"><ele>428.66666666666663</ele><time>2026-05-05T09:17:04Z</time></trkpt><trkpt lat="45.799744802899845" lon="14.742533307204944"><ele>429.0</ele><time>2026-05-05T09:17:05Z</time></trkpt><trkpt lat="45.79992887540955" lon="14.742473219428472"><ele>429.0</ele><time>2026-05-05T09:17:06Z</time></trkpt><trkpt lat="45.800105333507396" lon="14.742416268558932"><ele>429.0</ele><time>2026-05-05T09:17:07Z</time></trkpt><trkpt lat="45.800281416693075" lon="14.742328592185928"><ele>429.0</ele><time>2026-05-05T09:17:08Z</time></trkpt><trkpt lat="45.80045095746351" lon="14.742208972326907"><ele>430.0</ele><time>2026-05-05T09:17:09Z</time></trkpt><trkpt lat="45.80061125040312" lon="14.742052538890933"><ele>431.0</ele><time>2026-05-05T09:17:10Z</time></trkpt><trkpt lat="45.80077007899222" lon="14.741878690621663"><ele>432.0</ele><time>2026-05-05T09:17:11Z</time></trkpt><trkpt lat="45.80092180027055" lon="14.741696987642307"><ele>433.0</ele><time>2026-05-05T09:17:12Z</time></trkpt><trkpt lat="45.8010654721408" lon="14.741517765260802"><ele>434.0</ele><time>2026-05-05T09:17:13Z</time></trkpt><trkpt lat="45.80121908302469" lon="14.74133860580742"><ele>435.0</ele><time>2026-05-05T09:17:14Z</time></trkpt><trkpt lat="45.80137301063935" lon="14.74117004951848"><ele>435.33333333333337</ele><time>2026-05-05T09:17:15Z</time></trkpt><trkpt lat="45.80153080841653" lon="14.741009263138272"><ele>435.6666666666667</ele><time>2026-05-05T09:17:16Z</time></trkpt><trkpt lat="45.80170412760253" lon="14.740862936861094"><ele>436.0</ele><time>2026-05-05T09:17:17Z</time></trkpt><trkpt lat="45.80188973455584" lon="14.740748517636174"><ele>436.0</ele><time>2026-05-05T09:17:18Z</time></trkpt><trkpt lat="45.80208597128186" lon="14.740676353954926"><ele>436.0</ele><time>2026-05-05T09:17:19Z</time></trkpt><trkpt lat="45.80227552632617" lon="14.74059341540969"><ele>436.0</ele><time>2026-05-05T09:17:20Z</time></trkpt><trkpt lat="45.80244853677984" lon="14.740463689429355"><ele>436.0</ele><time>2026-05-05T09:17:21Z</time></trkpt><trkpt lat="45.80260069760986" lon="14.740288156496849"><ele>436.0</ele><time>2026-05-05T09:17:22Z</time></trkpt><trkpt lat="45.802741761599655" lon="14.740073395131992"><ele>436.0</ele><time>2026-05-05T09:17:23Z</time></trkpt><trkpt lat="45.802869607655744" lon="14.739850554560228"><ele>435.6666666666667</ele><time>2026-05-05T09:17:24Z</time></trkpt><trkpt lat="45.80298870804058" lon="14.739617923055564"><ele>435.33333333333337</ele><time>2026-05-05T09:17:25Z</time></trkpt><trkpt lat="45.8031038011465" lon="14.739376412644592"><ele>435.0</ele><time>2026-05-05T09:17:26Z</time></trkpt><trkpt lat="45.80321457524652" lon="14.73912605485268"><ele>433.0</ele><time>2026-05-05T09:17:27Z</time></trkpt><trkpt lat="45.803314113518255" lon="14.738870482032912"><ele>431.0</ele><time>2026-05-05T09:17:28Z</time></trkpt><trkpt lat="45.80340722012996" lon="14.738590607412778"><ele>429.0</ele><time>2026-05-05T09:17:29Z</time></trkpt><trkpt lat="45.803490523757404" lon="14.738322666367234"><ele>430.0</ele><time>2026-05-05T09:17:30Z</time></trkpt><trkpt lat="45.8035672328607" lon="14.738049503314265"><ele>431.0</ele><time>2026-05-05T09:17:31Z</time></trkpt><trkpt lat="45.80364736663857" lon="14.737767523889014"><ele>432.0</ele><time>2026-05-05T09:17:32Z</time></trkpt><trkpt lat="45.803729225485604" lon="14.73748027716829"><ele>432.0</ele><time>2026-05-05T09:17:33Z</time></trkpt><trkpt lat="45.803814242146366" lon="14.737188036199175"><ele>432.0</ele><time>2026-05-05T09:17:34Z</time></trkpt><trkpt lat="45.80390036616011" lon="14.736901110095225"><ele>432.0</ele><time>2026-05-05T09:17:35Z</time></trkpt><trkpt lat="45.803989618151036" lon="14.736610819510298"><ele>432.0</ele><time>2026-05-05T09:17:36Z</time></trkpt><trkpt lat="45.80409437225051" lon="14.73633345163505"><ele>432.0</ele><time>2026-05-05T09:17:37Z</time></trkpt><trkpt lat="45.80422696254723" lon="14.736086788594134"><ele>432.0</ele><time>2026-05-05T09:17:38Z</time></trkpt><trkpt lat="45.804380742089485" lon="14.735876623932432"><ele>431.66666666666663</ele><time>2026-05-05T09:17:39Z</time></trkpt><trkpt lat="45.80454071611022" lon="14.735686555802603"><ele>431.3333333333333</ele><time>2026-05-05T09:17:40Z</time></trkpt><trkpt lat="45.804701812750515" lon="14.735500358160756"><ele>431.0</ele><time>2026-05-05T09:17:41Z</time></trkpt><trkpt lat="45.80486733393878" lon="14.735322481930531"><ele>431.66666666666663</ele><time>2026-05-05T09:17:42Z</time></trkpt><trkpt lat="45.805038989805" lon="14.735145629283984"><ele>432.33333333333337</ele><time>2026-05-05T09:17:43Z</time></trkpt><trkpt lat="45.80520954593992" lon="14.73497876998844"><ele>433.0</ele><time>2026-05-05T09:17:44Z</time></trkpt><trkpt lat="45.80536823016015" lon="14.734807082896998"><ele>431.6666666666667</ele><time>2026-05-05T09:17:45Z</time></trkpt><trkpt lat="45.80550178344016" lon="14.734596721739647"><ele>430.33333333333337</ele><time>2026-05-05T09:17:46Z</time></trkpt><trkpt lat="45.80559551175642" lon="14.734343858573494"><ele>429.0</ele><time>2026-05-05T09:17:47Z</time></trkpt><trkpt lat="45.80565075759603" lon="14.73406176379394"><ele>429.0</ele><time>2026-05-05T09:17:48Z</time></trkpt><trkpt lat="45.80572860898919" lon="14.733791449466269"><ele>429.0</ele><time>2026-05-05T09:17:49Z</time></trkpt><trkpt lat="45.80583705892261" lon="14.733537589691116"><ele>429.0</ele><time>2026-05-05T09:17:50Z</time></trkpt><trkpt lat="45.80596257534973" lon="14.733294466880505"><ele>427.0</ele><time>2026-05-05T09:17:51Z</time></trkpt><trkpt lat="45.80609899290412" lon="14.73306678926142"><ele>425.0</ele><time>2026-05-05T09:17:52Z</time></trkpt><trkpt lat="45.80620956202611" lon="14.732827337941467"><ele>423.0</ele><time>2026-05-05T09:17:53Z</time></trkpt><trkpt lat="45.80631038978758" lon="14.73260047061449"><ele>423.0</ele><time>2026-05-05T09:17:54Z</time></trkpt><trkpt lat="45.806383322758926" lon="14.732357274934653"><ele>423.0</ele><time>2026-05-05T09:17:55Z</time></trkpt><trkpt lat="45.80644522613314" lon="14.732115010240976"><ele>423.0</ele><time>2026-05-05T09:17:56Z</time></trkpt><trkpt lat="45.80651330206447" lon="14.731875717596505"><ele>423.0</ele><time>2026-05-05T09:17:57Z</time></trkpt><trkpt lat="45.80658829824837" lon="14.731637208689968"><ele>423.0</ele><time>2026-05-05T09:17:58Z</time></trkpt><trkpt lat="45.806666780664756" lon="14.731404353705868"><ele>423.0</ele><time>2026-05-05T09:17:59Z</time></trkpt><trkpt lat="45.80678076516086" lon="14.731208317318309"><ele>423.0</ele><time>2026-05-05T09:18:00Z</time></trkpt><trkpt lat="45.80689200590831" lon="14.731018493907012"><ele>423.0</ele><time>2026-05-05T09:18:01Z</time></trkpt><trkpt lat="45.80700449866818" lon="14.73082706310251"><ele>423.0</ele><time>2026-05-05T09:18:02Z</time></trkpt><trkpt lat="45.80710304619012" lon="14.730613279037728"><ele>423.0</ele><time>2026-05-05T09:18:03Z</time></trkpt><trkpt lat="45.807205509102445" lon="14.730410869202016"><ele>423.0</ele><time>2026-05-05T09:18:04Z</time></trkpt><trkpt lat="45.80731162766644" lon="14.730210214729277"><ele>423.0</ele><time>2026-05-05T09:18:05Z</time></trkpt><trkpt lat="45.80745069924061" lon="14.73004725105215"><ele>423.0</ele><time>2026-05-05T09:18:06Z</time></trkpt><trkpt lat="45.8075866074534" lon="14.729880048043883"><ele>423.0</ele><time>2026-05-05T09:18:07Z</time></trkpt><trkpt lat="45.80771620560594" lon="14.729694765758973"><ele>423.0</ele><time>2026-05-05T09:18:08Z</time></trkpt><trkpt lat="45.80784717421538" lon="14.729518403290541"><ele>423.0</ele><time>2026-05-05T09:18:09Z</time></trkpt><trkpt lat="45.80797476591264" lon="14.72932493950582"><ele>423.0</ele><time>2026-05-05T09:18:10Z</time></trkpt><trkpt lat="45.80808855492096" lon="14.729118731595594"><ele>423.0</ele><time>2026-05-05T09:18:11Z</time></trkpt><trkpt lat="45.80819399454574" lon="14.728909899882156"><ele>423.0</ele><time>2026-05-05T09:18:12Z</time></trkpt><trkpt lat="45.808299298082986" lon="14.728714067100881"><ele>423.0</ele><time>2026-05-05T09:18:13Z</time></trkpt><trkpt lat="45.80841509584164" lon="14.728518084809972"><ele>423.0</ele><time>2026-05-05T09:18:14Z</time></trkpt><trkpt lat="45.80852074084289" lon="14.728324995987926"><ele>423.0</ele><time>2026-05-05T09:18:15Z</time></trkpt><trkpt lat="45.80861736824196" lon="14.728113921052673"><ele>423.0</ele><time>2026-05-05T09:18:16Z</time></trkpt><trkpt lat="45.80870202126266" lon="14.727892261665303"><ele>423.0</ele><time>2026-05-05T09:18:17Z</time></trkpt><trkpt lat="45.8087768289385" lon="14.727654129076974"><ele>424.0</ele><time>2026-05-05T09:18:18Z</time></trkpt><trkpt lat="45.80885669203764" lon="14.727403589677447"><ele>425.0</ele><time>2026-05-05T09:18:19Z</time></trkpt><trkpt lat="45.80893902395735" lon="14.727145329958104"><ele>426.0</ele><time>2026-05-05T09:18:20Z</time></trkpt><trkpt lat="45.80901944592325" lon="14.726876506696076"><ele>426.0</ele><time>2026-05-05T09:18:21Z</time></trkpt><trkpt lat="45.809103434298336" lon="14.726599787708327"><ele>426.0</ele><time>2026-05-05T09:18:22Z</time></trkpt><trkpt lat="45.80919196443236" lon="14.726319766434612"><ele>426.0</ele><time>2026-05-05T09:18:23Z</time></trkpt><trkpt lat="45.809291248232526" lon="14.726035471031585"><ele>426.66666666666663</ele><time>2026-05-05T09:18:24Z</time></trkpt><trkpt lat="45.80939662768813" lon="14.725765113575763"><ele>427.3333333333333</ele><time>2026-05-05T09:18:25Z</time></trkpt><trkpt lat="45.809506803094955" lon="14.725503944041874"><ele>428.0</ele><time>2026-05-05T09:18:26Z</time></trkpt><trkpt lat="45.80964336779581" lon="14.725281007765096"><ele>427.3333333333333</ele><time>2026-05-05T09:18:27Z</time></trkpt><trkpt lat="45.80979191509082" lon="14.72507983332042"><ele>426.66666666666663</ele><time>2026-05-05T09:18:28Z</time></trkpt><trkpt lat="45.80995543640164" lon="14.724889839843444"><ele>426.0</ele><time>2026-05-05T09:18:29Z</time></trkpt><trkpt lat="45.8101244208346" lon="14.724710592005914"><ele>425.66666666666663</ele><time>2026-05-05T09:18:30Z</time></trkpt><trkpt lat="45.81029723815066" lon="14.724534063067313"><ele>425.3333333333333</ele><time>2026-05-05T09:18:31Z</time></trkpt><trkpt lat="45.81045761093854" lon="14.724331974365692"><ele>425.0</ele><time>2026-05-05T09:18:32Z</time></trkpt><trkpt lat="45.81062149865904" lon="14.724124306759004"><ele>425.0</ele><time>2026-05-05T09:18:33Z</time></trkpt><trkpt lat="45.81077885439528" lon="14.723905012045046"><ele>425.0</ele><time>2026-05-05T09:18:34Z</time></trkpt><trkpt lat="45.81093199649272" lon="14.72368289867385"><ele>425.0</ele><time>2026-05-05T09:18:35Z</time></trkpt><trkpt lat="45.81108262067055" lon="14.723452152606084"><ele>425.3333333333333</ele><time>2026-05-05T09:18:36Z</time></trkpt><trkpt lat="45.81122477456503" lon="14.72320836206871"><ele>425.66666666666663</ele><time>2026-05-05T09:18:37Z</time></trkpt><trkpt lat="45.811351185054335" lon="14.722944791840185"><ele>426.0</ele><time>2026-05-05T09:18:38Z</time></trkpt><trkpt lat="45.81145989013786" lon="14.722661407511174"><ele>426.0</ele><time>2026-05-05T09:18:39Z</time></trkpt><trkpt lat="45.81154475007323" lon="14.722360974814565"><ele>426.0</ele><time>2026-05-05T09:18:40Z</time></trkpt><trkpt lat="45.8116138793476" lon="14.722056877551063"><ele>426.0</ele><time>2026-05-05T09:18:41Z</time></trkpt><trkpt lat="45.81169246353735" lon="14.721765868638428"><ele>425.66666666666663</ele><time>2026-05-05T09:18:42Z</time></trkpt><trkpt lat="45.811780593608034" lon="14.721499897538447"><ele>425.3333333333333</ele><time>2026-05-05T09:18:43Z</time></trkpt><trkpt lat="45.811874756765974" lon="14.721232522391615"><ele>425.0</ele><time>2026-05-05T09:18:44Z</time></trkpt><trkpt lat="45.81199682575276" lon="14.720987177225469"><ele>426.0</ele><time>2026-05-05T09:18:45Z</time></trkpt><trkpt lat="45.81211789463692" lon="14.720733802867352"><ele>427.0</ele><time>2026-05-05T09:18:46Z</time></trkpt><trkpt lat="45.81222835392473" lon="14.720474441505255"><ele>428.0</ele><time>2026-05-05T09:18:47Z</time></trkpt><trkpt lat="45.812348943084245" lon="14.72023636898197"><ele>428.0</ele><time>2026-05-05T09:18:48Z</time></trkpt><trkpt lat="45.81246583976527" lon="14.7200027983601"><ele>428.0</ele><time>2026-05-05T09:18:49Z</time></trkpt><trkpt lat="45.812588827341685" lon="14.719770841334237"><ele>428.0</ele><time>2026-05-05T09:18:50Z</time></trkpt><trkpt lat="45.812738174706254" lon="14.719589946011501"><ele>427.3333333333333</ele><time>2026-05-05T09:18:51Z</time></trkpt><trkpt lat="45.81289034978372" lon="14.719408147869174"><ele>426.66666666666663</ele><time>2026-05-05T09:18:52Z</time></trkpt><trkpt lat="45.813042036477945" lon="14.719243556610698"><ele>426.0</ele><time>2026-05-05T09:18:53Z</time></trkpt><trkpt lat="45.813191532925394" lon="14.719062105607236"><ele>426.0</ele><time>2026-05-05T09:18:54Z</time></trkpt><trkpt lat="45.81334190426209" lon="14.718891070085496"><ele>426.0</ele><time>2026-05-05T09:18:55Z</time></trkpt><trkpt lat="45.81347878154841" lon="14.718697918009548"><ele>426.0</ele><time>2026-05-05T09:18:56Z</time></trkpt><trkpt lat="45.81359609928514" lon="14.7184989185974"><ele>426.33333333333337</ele><time>2026-05-05T09:18:57Z</time></trkpt><trkpt lat="45.81371659911374" lon="14.71830829524342"><ele>426.6666666666667</ele><time>2026-05-05T09:18:58Z</time></trkpt><trkpt lat="45.81386733178607" lon="14.71816605101236"><ele>427.0</ele><time>2026-05-05T09:18:59Z</time></trkpt><trkpt lat="45.81400659275096" lon="14.718045935901396"><ele>427.0</ele><time>2026-05-05T09:19:00Z</time></trkpt><trkpt lat="45.81416404885946" lon="14.717951013571044"><ele>427.0</ele><time>2026-05-05T09:19:01Z</time></trkpt><trkpt lat="45.81431869400509" lon="14.717843483891745"><ele>427.0</ele><time>2026-05-05T09:19:02Z</time></trkpt><trkpt lat="45.8144801530854" lon="14.717771677394301"><ele>427.33333333333337</ele><time>2026-05-05T09:19:03Z</time></trkpt><trkpt lat="45.81463099961506" lon="14.717686599544777"><ele>427.66666666666663</ele><time>2026-05-05T09:19:04Z</time></trkpt><trkpt lat="45.81477848561872" lon="14.717586288545185"><ele>428.0</ele><time>2026-05-05T09:19:05Z</time></trkpt><trkpt lat="45.814922852140775" lon="14.717465128260894"><ele>428.0</ele><time>2026-05-05T09:19:06Z</time></trkpt><trkpt lat="45.81504952231801" lon="14.717312889931659"><ele>428.0</ele><time>2026-05-05T09:19:07Z</time></trkpt><trkpt lat="45.81516114538219" lon="14.717131078380694"><ele>428.0</ele><time>2026-05-05T09:19:08Z</time></trkpt><trkpt lat="45.815274292630235" lon="14.716943580769627"><ele>428.3333333333333</ele><time>2026-05-05T09:19:09Z</time></trkpt><trkpt lat="45.81538537156952" lon="14.716761446796992"><ele>428.66666666666663</ele><time>2026-05-05T09:19:10Z</time></trkpt><trkpt lat="45.81549707750037" lon="14.71658559681757"><ele>429.0</ele><time>2026-05-05T09:19:11Z</time></trkpt><trkpt lat="45.8156100513326" lon="14.716416314348876"><ele>429.0</ele><time>2026-05-05T09:19:12Z</time></trkpt><trkpt lat="45.81571460548314" lon="14.716263220427193"><ele>429.0</ele><time>2026-05-05T09:19:13Z</time></trkpt><trkpt lat="45.8158093800815" lon="14.716129232524796"><ele>429.0</ele><time>2026-05-05T09:19:14Z</time></trkpt><trkpt lat="45.8158937550084" lon="14.716012927556314"><ele>429.0</ele><time>2026-05-05T09:19:15Z</time></trkpt><trkpt lat="45.815971965499294" lon="14.71590808501026"><ele>429.25</ele><time>2026-05-05T09:19:16Z</time></trkpt><trkpt lat="45.81605017588443" lon="14.715797152292668"><ele>429.5</ele><time>2026-05-05T09:19:17Z</time></trkpt><trkpt lat="45.816131312260616" lon="14.715678834912437"><ele>429.75</ele><time>2026-05-05T09:19:18Z</time></trkpt><trkpt lat="45.81621603029916" lon="14.715555256241885"><ele>430.0</ele><time>2026-05-05T09:19:19Z</time></trkpt><trkpt lat="45.81629897214788" lon="14.715429289574947"><ele>430.0</ele><time>2026-05-05T09:19:20Z</time></trkpt><trkpt lat="45.81638396515003" lon="14.715304400274746"><ele>430.0</ele><time>2026-05-05T09:19:21Z</time></trkpt><trkpt lat="45.816483961349476" lon="14.715203016368468"><ele>430.0</ele><time>2026-05-05T09:19:22Z</time></trkpt><trkpt lat="45.81656302991587" lon="14.715073760779122"><ele>430.0</ele><time>2026-05-05T09:19:23Z</time></trkpt><trkpt lat="45.81664741173062" lon="14.714963455567927"><ele>430.2</ele><time>2026-05-05T09:19:24Z</time></trkpt><trkpt lat="45.81673143333196" lon="14.71486080104777"><ele>430.4</ele><time>2026-05-05T09:19:25Z</time></trkpt><trkpt lat="45.81681064333845" lon="14.714748073293201"><ele>430.6</ele><time>2026-05-05T09:19:26Z</time></trkpt><trkpt lat="45.81688151025383" lon="14.714628278305389"><ele>430.8</ele><time>2026-05-05T09:19:27Z</time></trkpt><trkpt lat="45.81695350696966" lon="14.714508077276793"><ele>431.0</ele><time>2026-05-05T09:19:28Z</time></trkpt><trkpt lat="45.81702402476479" lon="14.714381355596343"><ele>431.0</ele><time>2026-05-05T09:19:29Z</time></trkpt><trkpt lat="45.81711318403995" lon="14.714276640516374"><ele>431.0</ele><time>2026-05-05T09:19:30Z</time></trkpt><trkpt lat="45.817218145309106" lon="14.714203728145884"><ele>431.0</ele><time>2026-05-05T09:19:31Z</time></trkpt><trkpt lat="45.81733341683461" lon="14.714167542855723"><ele>431.0</ele><time>2026-05-05T09:19:32Z</time></trkpt><trkpt lat="45.81744733968087" lon="14.714161436665194"><ele>431.0</ele><time>2026-05-05T09:19:33Z</time></trkpt><trkpt lat="45.81756855428583" lon="14.714186618507552"><ele>431.0</ele><time>2026-05-05T09:19:34Z</time></trkpt><trkpt lat="45.81768427675015" lon="14.714239694243583"><ele>431.0</ele><time>2026-05-05T09:19:35Z</time></trkpt><trkpt lat="45.81779851660512" lon="14.714321628612174"><ele>431.0</ele><time>2026-05-05T09:19:36Z</time></trkpt><trkpt lat="45.817894156779644" lon="14.71443421857915"><ele>431.0</ele><time>2026-05-05T09:19:37Z</time></trkpt><trkpt lat="45.81797206309451" lon="14.714576826448582"><ele>431.0</ele><time>2026-05-05T09:19:38Z</time></trkpt><trkpt lat="45.818031151382044" lon="14.714722218312085"><ele>431.0</ele><time>2026-05-05T09:19:39Z</time></trkpt><trkpt lat="45.818087762846424" lon="14.714844210305264"><ele>431.0</ele><time>2026-05-05T09:19:40Z</time></trkpt><trkpt lat="45.81817222241539" lon="14.7149243086757"><ele>431.0</ele><time>2026-05-05T09:19:41Z</time></trkpt><trkpt lat="45.81829006175761" lon="14.714962639693672"><ele>431.0</ele><time>2026-05-05T09:19:42Z</time></trkpt><trkpt lat="45.81842411682973" lon="14.714948585768393"><ele>431.0</ele><time>2026-05-05T09:19:43Z</time></trkpt><trkpt lat="45.81855934509291" lon="14.714884469982284"><ele>431.0</ele><time>2026-05-05T09:19:44Z</time></trkpt><trkpt lat="45.81869721338399" lon="14.714802912849095"><ele>431.0</ele><time>2026-05-05T09:19:45Z</time></trkpt><trkpt lat="45.81884265681588" lon="14.714713295974516"><ele>430.66666666666663</ele><time>2026-05-05T09:19:46Z</time></trkpt><trkpt lat="45.818992598490965" lon="14.714613654555288"><ele>430.33333333333337</ele><time>2026-05-05T09:19:47Z</time></trkpt><trkpt lat="45.81915514805147" lon="14.714526809197773"><ele>430.0</ele><time>2026-05-05T09:19:48Z</time></trkpt><trkpt lat="45.8193115983989" lon="14.714427078726299"><ele>430.0</ele><time>2026-05-05T09:19:49Z</time></trkpt><trkpt lat="45.8194661483602" lon="14.714313358237334"><ele>430.0</ele><time>2026-05-05T09:19:50Z</time></trkpt><trkpt lat="45.81963151461817" lon="14.7142618401355"><ele>430.0</ele><time>2026-05-05T09:19:51Z</time></trkpt><trkpt lat="45.819794524237246" lon="14.71418835628018"><ele>430.0</ele><time>2026-05-05T09:19:52Z</time></trkpt><trkpt lat="45.81995405008409" lon="14.714095088553506"><ele>430.0</ele><time>2026-05-05T09:19:53Z</time></trkpt><trkpt lat="45.82011936122235" lon="14.71402128956608"><ele>430.0</ele><time>2026-05-05T09:19:54Z</time></trkpt><trkpt lat="45.820284002816166" lon="14.713942458312783"><ele>430.33333333333337</ele><time>2026-05-05T09:19:55Z</time></trkpt><trkpt lat="45.82045118246847" lon="14.71385893760846"><ele>430.66666666666663</ele><time>2026-05-05T09:19:56Z</time></trkpt><trkpt lat="45.820617933691494" lon="14.713771549626564"><ele>431.0</ele><time>2026-05-05T09:19:57Z</time></trkpt><trkpt lat="45.820796567592446" lon="14.71367310037973"><ele>431.0</ele><time>2026-05-05T09:19:58Z</time></trkpt><trkpt lat="45.82097306264525" lon="14.713599786063735"><ele>431.0</ele><time>2026-05-05T09:19:59Z</time></trkpt><trkpt lat="45.82113146206072" lon="14.713468798773242"><ele>431.0</ele><time>2026-05-05T09:20:00Z</time></trkpt><trkpt lat="45.82128136424402" lon="14.71333221475955"><ele>430.3333333333333</ele><time>2026-05-05T09:20:01Z</time></trkpt><trkpt lat="45.8214128598213" lon="14.713159381299468"><ele>429.66666666666663</ele><time>2026-05-05T09:20:02Z</time></trkpt><trkpt lat="45.82153434077071" lon="14.712944483386401"><ele>429.0</ele><time>2026-05-05T09:20:03Z</time></trkpt><trkpt lat="45.82163896056819" lon="14.71270401785866"><ele>429.0</ele><time>2026-05-05T09:20:04Z</time></trkpt><trkpt lat="45.82176213291398" lon="14.712498343767923"><ele>429.0</ele><time>2026-05-05T09:20:05Z</time></trkpt><trkpt lat="45.82189826695257" lon="14.712320031675652"><ele>429.0</ele><time>2026-05-05T09:20:06Z</time></trkpt><trkpt lat="45.822050404016785" lon="14.712216666891635"><ele>428.66666666666663</ele><time>2026-05-05T09:20:07Z</time></trkpt><trkpt lat="45.82222708646515" lon="14.712112805343358"><ele>428.3333333333333</ele><time>2026-05-05T09:20:08Z</time></trkpt><trkpt lat="45.82240555282124" lon="14.712022326988922"><ele>428.0</ele><time>2026-05-05T09:20:09Z</time></trkpt><trkpt lat="45.822588428141685" lon="14.711935306343436"><ele>428.66666666666663</ele><time>2026-05-05T09:20:10Z</time></trkpt><trkpt lat="45.82276452896708" lon="14.711836189474049"><ele>429.33333333333337</ele><time>2026-05-05T09:20:11Z</time></trkpt><trkpt lat="45.82293782449946" lon="14.711748320609352"><ele>430.0</ele><time>2026-05-05T09:20:12Z</time></trkpt><trkpt lat="45.82309428210197" lon="14.711639647840485"><ele>430.0</ele><time>2026-05-05T09:20:13Z</time></trkpt><trkpt lat="45.82324047573148" lon="14.711503472007193"><ele>430.0</ele><time>2026-05-05T09:20:14Z</time></trkpt><trkpt lat="45.82337925341586" lon="14.711345109087244"><ele>430.0</ele><time>2026-05-05T09:20:15Z</time></trkpt><trkpt lat="45.82350194206618" lon="14.711162124718397"><ele>429.6666666666667</ele><time>2026-05-05T09:20:16Z</time></trkpt><trkpt lat="45.823606475989685" lon="14.710978293476813"><ele>429.33333333333337</ele><time>2026-05-05T09:20:17Z</time></trkpt><trkpt lat="45.8236996307879" lon="14.710812147650424"><ele>429.0</ele><time>2026-05-05T09:20:18Z</time></trkpt><trkpt lat="45.823810915619305" lon="14.710678920447458"><ele>429.0</ele><time>2026-05-05T09:20:19Z</time></trkpt><trkpt lat="45.82392366605974" lon="14.710540312067344"><ele>429.0</ele><time>2026-05-05T09:20:20Z</time></trkpt><trkpt lat="45.82404217635958" lon="14.710424142972856"><ele>429.0</ele><time>2026-05-05T09:20:21Z</time></trkpt><trkpt lat="45.8241527313185" lon="14.710316749692465"><ele>429.0</ele><time>2026-05-05T09:20:22Z</time></trkpt><trkpt lat="45.824250948029274" lon="14.710187678462063"><ele>429.25</ele><time>2026-05-05T09:20:23Z</time></trkpt><trkpt lat="45.824355409711586" lon="14.710079274108216"><ele>429.5</ele><time>2026-05-05T09:20:24Z</time></trkpt><trkpt lat="45.82445787389871" lon="14.709967865672093"><ele>429.75</ele><time>2026-05-05T09:20:25Z</time></trkpt><trkpt lat="45.82455191064299" lon="14.709848153280594"><ele>430.0</ele><time>2026-05-05T09:20:26Z</time></trkpt><trkpt lat="45.82465399331024" lon="14.70973071666713"><ele>430.0</ele><time>2026-05-05T09:20:27Z</time></trkpt><trkpt lat="45.82476506527556" lon="14.709612880690175"><ele>430.0</ele><time>2026-05-05T09:20:28Z</time></trkpt><trkpt lat="45.82488178704454" lon="14.709502683604446"><ele>430.0</ele><time>2026-05-05T09:20:29Z</time></trkpt><trkpt lat="45.825011261225725" lon="14.709408051120032"><ele>430.0</ele><time>2026-05-05T09:20:30Z</time></trkpt><trkpt lat="45.825160654497836" lon="14.709329940695115"><ele>430.33333333333337</ele><time>2026-05-05T09:20:31Z</time></trkpt><trkpt lat="45.82532587440158" lon="14.709258300943123"><ele>430.66666666666663</ele><time>2026-05-05T09:20:32Z</time></trkpt><trkpt lat="45.82549690969053" lon="14.709171794677461"><ele>431.0</ele><time>2026-05-05T09:20:33Z</time></trkpt><trkpt lat="45.82567159664617" lon="14.709073220374375"><ele>431.0</ele><time>2026-05-05T09:20:34Z</time></trkpt><trkpt lat="45.82585150453356" lon="14.708968444757149"><ele>431.0</ele><time>2026-05-05T09:20:35Z</time></trkpt><trkpt lat="45.826039776223475" lon="14.708853217786846"><ele>431.0</ele><time>2026-05-05T09:20:36Z</time></trkpt><trkpt lat="45.826233141693976" lon="14.708730755895436"><ele>430.66666666666663</ele><time>2026-05-05T09:20:37Z</time></trkpt><trkpt lat="45.826431506236645" lon="14.708611515232398"><ele>430.33333333333337</ele><time>2026-05-05T09:20:38Z</time></trkpt><trkpt lat="45.82664370711362" lon="14.708505310824616"><ele>430.0</ele><time>2026-05-05T09:20:39Z</time></trkpt><trkpt lat="45.82685994261638" lon="14.708463404581272"><ele>430.0</ele><time>2026-05-05T09:20:40Z</time></trkpt><trkpt lat="45.827080626257356" lon="14.708388164971243"><ele>430.0</ele><time>2026-05-05T09:20:41Z</time></trkpt><trkpt lat="45.82730563782743" lon="14.708345860909452"><ele>430.0</ele><time>2026-05-05T09:20:42Z</time></trkpt><trkpt lat="45.827542657610195" lon="14.70829889658648"><ele>430.0</ele><time>2026-05-05T09:20:43Z</time></trkpt><trkpt lat="45.827791678001816" lon="14.708238973333177"><ele>431.5</ele><time>2026-05-05T09:20:44Z</time></trkpt><trkpt lat="45.828034805942096" lon="14.708160073905445"><ele>433.0</ele><time>2026-05-05T09:20:45Z</time></trkpt><trkpt lat="45.82827108722515" lon="14.708046910846264"><ele>432.5</ele><time>2026-05-05T09:20:46Z</time></trkpt><trkpt lat="45.82850225503792" lon="14.707915882467598"><ele>432.0</ele><time>2026-05-05T09:20:47Z</time></trkpt><trkpt lat="45.82873670863123" lon="14.7077852264144"><ele>431.5</ele><time>2026-05-05T09:20:48Z</time></trkpt><trkpt lat="45.8289847748164" lon="14.707705577222336"><ele>431.0</ele><time>2026-05-05T09:20:49Z</time></trkpt><trkpt lat="45.82923127507592" lon="14.707620319000785"><ele>432.0</ele><time>2026-05-05T09:20:50Z</time></trkpt><trkpt lat="45.82947954193269" lon="14.707512036514581"><ele>433.0</ele><time>2026-05-05T09:20:51Z</time></trkpt><trkpt lat="45.829727573736974" lon="14.70743356494143"><ele>433.0</ele><time>2026-05-05T09:20:52Z</time></trkpt><trkpt lat="45.829976586316114" lon="14.707350094714462"><ele>433.0</ele><time>2026-05-05T09:20:53Z</time></trkpt><trkpt lat="45.83022440847126" lon="14.70726137129841"><ele>432.0</ele><time>2026-05-05T09:20:54Z</time></trkpt><trkpt lat="45.83047212350399" lon="14.70716981644704"><ele>431.0</ele><time>2026-05-05T09:20:55Z</time></trkpt><trkpt lat="45.83071536802562" lon="14.707066362515178"><ele>431.0</ele><time>2026-05-05T09:20:56Z</time></trkpt><trkpt lat="45.83095990344423" lon="14.706945319278084"><ele>431.0</ele><time>2026-05-05T09:20:57Z</time></trkpt><trkpt lat="45.83120364600262" lon="14.70681114367961"><ele>431.5</ele><time>2026-05-05T09:20:58Z</time></trkpt><trkpt lat="45.83144640131436" lon="14.706671762471107"><ele>432.0</ele><time>2026-05-05T09:20:59Z</time></trkpt><trkpt lat="45.83168684023219" lon="14.70653051963047"><ele>432.0</ele><time>2026-05-05T09:21:00Z</time></trkpt><trkpt lat="45.83192773943756" lon="14.706371954346555"><ele>432.0</ele><time>2026-05-05T09:21:01Z</time></trkpt><trkpt lat="45.832154200226086" lon="14.706186449521743"><ele>432.0</ele><time>2026-05-05T09:21:02Z</time></trkpt><trkpt lat="45.83237108522147" lon="14.705980302378109"><ele>432.0</ele><time>2026-05-05T09:21:03Z</time></trkpt><trkpt lat="45.83257381494386" lon="14.705756758238985"><ele>431.5</ele><time>2026-05-05T09:21:04Z</time></trkpt><trkpt lat="45.83277295050789" lon="14.70553600212809"><ele>431.0</ele><time>2026-05-05T09:21:05Z</time></trkpt><trkpt lat="45.83298365517058" lon="14.705341027538623"><ele>431.0</ele><time>2026-05-05T09:21:06Z</time></trkpt><trkpt lat="45.83317326989544" lon="14.705112612007522"><ele>431.0</ele><time>2026-05-05T09:21:07Z</time></trkpt><trkpt lat="45.8333830235489" lon="14.704939455614271"><ele>431.0</ele><time>2026-05-05T09:21:08Z</time></trkpt><trkpt lat="45.83358368098197" lon="14.70476003487012"><ele>431.0</ele><time>2026-05-05T09:21:09Z</time></trkpt><trkpt lat="45.83378696983957" lon="14.704598497761062"><ele>431.0</ele><time>2026-05-05T09:21:10Z</time></trkpt><trkpt lat="45.83399049970706" lon="14.70444802732149"><ele>431.0</ele><time>2026-05-05T09:21:11Z</time></trkpt><trkpt lat="45.83418803077952" lon="14.704273961198682"><ele>431.5</ele><time>2026-05-05T09:21:12Z</time></trkpt><trkpt lat="45.83439387626804" lon="14.704121963153664"><ele>432.0</ele><time>2026-05-05T09:21:13Z</time></trkpt><trkpt lat="45.83460255410601" lon="14.703960887830874"><ele>432.0</ele><time>2026-05-05T09:21:14Z</time></trkpt><trkpt lat="45.83480692685417" lon="14.703777863786957"><ele>432.0</ele><time>2026-05-05T09:21:15Z</time></trkpt><trkpt lat="45.834994936306494" lon="14.703561337664521"><ele>433.0</ele><time>2026-05-05T09:21:16Z</time></trkpt><trkpt lat="45.83516949269828" lon="14.703308900321185"><ele>434.0</ele><time>2026-05-05T09:21:17Z</time></trkpt><trkpt lat="45.83533466690701" lon="14.703038036589968"><ele>434.0</ele><time>2026-05-05T09:21:18Z</time></trkpt><trkpt lat="45.835496063376524" lon="14.702775692613487"><ele>434.0</ele><time>2026-05-05T09:21:19Z</time></trkpt><trkpt lat="45.83565770821956" lon="14.702518513996557"><ele>434.0</ele><time>2026-05-05T09:21:20Z</time></trkpt><trkpt lat="45.835817038110385" lon="14.702263749726106"><ele>434.0</ele><time>2026-05-05T09:21:21Z</time></trkpt><trkpt lat="45.835973934116765" lon="14.70201511270075"><ele>434.0</ele><time>2026-05-05T09:21:22Z</time></trkpt><trkpt lat="45.836128864669355" lon="14.70177380047849"><ele>434.0</ele><time>2026-05-05T09:21:23Z</time></trkpt><trkpt lat="45.83627985254443" lon="14.701535384787599"><ele>434.0</ele><time>2026-05-05T09:21:24Z</time></trkpt><trkpt lat="45.83642818384571" lon="14.701309986260574"><ele>434.0</ele><time>2026-05-05T09:21:25Z</time></trkpt><trkpt lat="45.83658143647758" lon="14.701104860269908"><ele>434.0</ele><time>2026-05-05T09:21:26Z</time></trkpt><trkpt lat="45.83675064061632" lon="14.700928164118368"><ele>434.3333333333333</ele><time>2026-05-05T09:21:27Z</time></trkpt><trkpt lat="45.83692983619287" lon="14.70078483606407"><ele>434.66666666666663</ele><time>2026-05-05T09:21:28Z</time></trkpt><trkpt lat="45.837104758324614" lon="14.70064616990542"><ele>435.0</ele><time>2026-05-05T09:21:29Z</time></trkpt><trkpt lat="45.83728000472499" lon="14.700511521208725"><ele>435.0</ele><time>2026-05-05T09:21:30Z</time></trkpt><trkpt lat="45.83746723419989" lon="14.70037258507892"><ele>435.0</ele><time>2026-05-05T09:21:31Z</time></trkpt><trkpt lat="45.83765297951831" lon="14.700242960747271"><ele>435.0</ele><time>2026-05-05T09:21:32Z</time></trkpt><trkpt lat="45.83783696318257" lon="14.700125462471355"><ele>434.66666666666663</ele><time>2026-05-05T09:21:33Z</time></trkpt><trkpt lat="45.838023614070224" lon="14.70001053619999"><ele>434.3333333333333</ele><time>2026-05-05T09:21:34Z</time></trkpt><trkpt lat="45.83820106191911" lon="14.699898836651371"><ele>434.0</ele><time>2026-05-05T09:21:35Z</time></trkpt><trkpt lat="45.83837406922889" lon="14.699780824817724"><ele>434.66666666666663</ele><time>2026-05-05T09:21:36Z</time></trkpt><trkpt lat="45.8385397115153" lon="14.699657285889103"><ele>435.33333333333337</ele><time>2026-05-05T09:21:37Z</time></trkpt><trkpt lat="45.83869498428796" lon="14.69953103348296"><ele>436.0</ele><time>2026-05-05T09:21:38Z</time></trkpt><trkpt lat="45.83884550281628" lon="14.699402615854995"><ele>436.33333333333337</ele><time>2026-05-05T09:21:39Z</time></trkpt><trkpt lat="45.838997553624516" lon="14.699266930743992"><ele>436.66666666666663</ele><time>2026-05-05T09:21:40Z</time></trkpt><trkpt lat="45.839132788505744" lon="14.699135416986651"><ele>437.0</ele><time>2026-05-05T09:21:41Z</time></trkpt><trkpt lat="45.83926505229963" lon="14.69900544715769"><ele>437.3333333333333</ele><time>2026-05-05T09:21:42Z</time></trkpt><trkpt lat="45.83939705093121" lon="14.698877116268362"><ele>437.66666666666663</ele><time>2026-05-05T09:21:43Z</time></trkpt><trkpt lat="45.83953405385077" lon="14.698742099550536"><ele>438.0</ele><time>2026-05-05T09:21:44Z</time></trkpt><trkpt lat="45.839680720714846" lon="14.698614156500705"><ele>437.66666666666663</ele><time>2026-05-05T09:21:45Z</time></trkpt><trkpt lat="45.83983277401342" lon="14.698496568613038"><ele>437.3333333333333</ele><time>2026-05-05T09:21:46Z</time></trkpt><trkpt lat="45.8399860806327" lon="14.698386534828288"><ele>437.0</ele><time>2026-05-05T09:21:47Z</time></trkpt><trkpt lat="45.84014903581758" lon="14.698285683873191"><ele>437.66666666666663</ele><time>2026-05-05T09:21:48Z</time></trkpt><trkpt lat="45.8403116569041" lon="14.698187911506128"><ele>438.33333333333337</ele><time>2026-05-05T09:21:49Z</time></trkpt><trkpt lat="45.84047965055671" lon="14.698090226964004"><ele>439.0</ele><time>2026-05-05T09:21:50Z</time></trkpt><trkpt lat="45.8406464248257" lon="14.697991316811295"><ele>439.0</ele><time>2026-05-05T09:21:51Z</time></trkpt><trkpt lat="45.84081947825745" lon="14.697884869526463"><ele>439.0</ele><time>2026-05-05T09:21:52Z</time></trkpt><trkpt lat="45.84100017084298" lon="14.697769075308091"><ele>439.0</ele><time>2026-05-05T09:21:53Z</time></trkpt><trkpt lat="45.84119394046404" lon="14.69764032957959"><ele>439.0</ele><time>2026-05-05T09:21:54Z</time></trkpt><trkpt lat="45.841404550370534" lon="14.697502125156834"><ele>439.0</ele><time>2026-05-05T09:21:55Z</time></trkpt><trkpt lat="45.84162690206438" lon="14.697358419565578"><ele>439.33333333333337</ele><time>2026-05-05T09:21:56Z</time></trkpt><trkpt lat="45.841831186892385" lon="14.69723418522789"><ele>439.66666666666663</ele><time>2026-05-05T09:21:57Z</time></trkpt><trkpt lat="45.842028282587684" lon="14.697114347793558"><ele>440.0</ele><time>2026-05-05T09:21:58Z</time></trkpt><trkpt lat="45.84224413939832" lon="14.696972517812625"><ele>440.0</ele><time>2026-05-05T09:21:59Z</time></trkpt><trkpt lat="45.842457287405175" lon="14.696817120225123"><ele>440.0</ele><time>2026-05-05T09:22:00Z</time></trkpt><trkpt lat="45.842670950717505" lon="14.696651449190425"><ele>440.0</ele><time>2026-05-05T09:22:01Z</time></trkpt><trkpt lat="45.84288646791135" lon="14.696485615411879"><ele>440.0</ele><time>2026-05-05T09:22:02Z</time></trkpt><trkpt lat="45.8431095309459" lon="14.696346771983475"><ele>440.0</ele><time>2026-05-05T09:22:03Z</time></trkpt><trkpt lat="45.843326841517936" lon="14.696212414996149"><ele>440.0</ele><time>2026-05-05T09:22:04Z</time></trkpt><trkpt lat="45.84353665083116" lon="14.69607592499084"><ele>440.3333333333333</ele><time>2026-05-05T09:22:05Z</time></trkpt><trkpt lat="45.84373529483058" lon="14.695936121118415"><ele>440.66666666666663</ele><time>2026-05-05T09:22:06Z</time></trkpt><trkpt lat="45.84392459238857" lon="14.695794208930181"><ele>441.0</ele><time>2026-05-05T09:22:07Z</time></trkpt><trkpt lat="45.84410726573791" lon="14.695655593284961"><ele>441.0</ele><time>2026-05-05T09:22:08Z</time></trkpt><trkpt lat="45.84429398315128" lon="14.695516067895028"><ele>441.0</ele><time>2026-05-05T09:22:09Z</time></trkpt><trkpt lat="45.84448427187904" lon="14.695378209097218"><ele>441.0</ele><time>2026-05-05T09:22:10Z</time></trkpt><trkpt lat="45.84467033453688" lon="14.695247506355251"><ele>441.33333333333337</ele><time>2026-05-05T09:22:11Z</time></trkpt><trkpt lat="45.844857389819374" lon="14.695131730190683"><ele>441.6666666666667</ele><time>2026-05-05T09:22:12Z</time></trkpt><trkpt lat="45.84503176358387" lon="14.69504525179384"><ele>442.0</ele><time>2026-05-05T09:22:13Z</time></trkpt><trkpt lat="45.84519935611788" lon="14.694980711380117"><ele>443.0</ele><time>2026-05-05T09:22:14Z</time></trkpt><trkpt lat="45.84536154053266" lon="14.694931883375313"><ele>444.0</ele><time>2026-05-05T09:22:15Z</time></trkpt><trkpt lat="45.845520533684116" lon="14.694887797037898"><ele>445.0</ele><time>2026-05-05T09:22:16Z</time></trkpt><trkpt lat="45.84567264148151" lon="14.69485629682291"><ele>445.0</ele><time>2026-05-05T09:22:17Z</time></trkpt><trkpt lat="45.84581016181282" lon="14.69483049461566"><ele>445.0</ele><time>2026-05-05T09:22:18Z</time></trkpt><trkpt lat="45.845938586533684" lon="14.694802711796457"><ele>445.0</ele><time>2026-05-05T09:22:19Z</time></trkpt><trkpt lat="45.84606734001976" lon="14.694773837311898"><ele>445.0</ele><time>2026-05-05T09:22:20Z</time></trkpt><trkpt lat="45.84619408119076" lon="14.694747411094061"><ele>444.75</ele><time>2026-05-05T09:22:21Z</time></trkpt><trkpt lat="45.846327847946284" lon="14.694726307384634"><ele>444.5</ele><time>2026-05-05T09:22:22Z</time></trkpt><trkpt lat="45.84646392734154" lon="14.69471181158705"><ele>444.25</ele><time>2026-05-05T09:22:23Z</time></trkpt><trkpt lat="45.846596778324816" lon="14.694705995433448"><ele>444.0</ele><time>2026-05-05T09:22:24Z</time></trkpt><trkpt lat="45.846727476632346" lon="14.694704376948565"><ele>444.5</ele><time>2026-05-05T09:22:25Z</time></trkpt><trkpt lat="45.84685665046792" lon="14.694708299918663"><ele>445.0</ele><time>2026-05-05T09:22:26Z</time></trkpt><trkpt lat="45.84698941000104" lon="14.694709270281258"><ele>445.5</ele><time>2026-05-05T09:22:27Z</time></trkpt><trkpt lat="45.84712176438406" lon="14.694706208549878"><ele>446.0</ele><time>2026-05-05T09:22:28Z</time></trkpt><trkpt lat="45.84725598880415" lon="14.694701140745448"><ele>446.0</ele><time>2026-05-05T09:22:29Z</time></trkpt><trkpt lat="45.84738914797331" lon="14.694699275472159"><ele>446.0</ele><time>2026-05-05T09:22:30Z</time></trkpt><trkpt lat="45.8475124350373" lon="14.694701703311715"><ele>446.0</ele><time>2026-05-05T09:22:31Z</time></trkpt><trkpt lat="45.847614088904365" lon="14.694763846572735"><ele>446.0</ele><time>2026-05-05T09:22:32Z</time></trkpt><trkpt lat="45.847705715820965" lon="14.694813395359194"><ele>445.8333333333333</ele><time>2026-05-05T09:22:33Z</time></trkpt><trkpt lat="45.84778839913424" lon="14.694846421316011"><ele>445.66666666666663</ele><time>2026-05-05T09:22:34Z</time></trkpt><trkpt lat="45.8478592845643" lon="14.694902492525339"><ele>445.5</ele><time>2026-05-05T09:22:35Z</time></trkpt><trkpt lat="45.84793642051556" lon="14.694933130969762"><ele>445.33333333333337</ele><time>2026-05-05T09:22:36Z</time></trkpt><trkpt lat="45.848012849670006" lon="14.694968270091312"><ele>445.1666666666667</ele><time>2026-05-05T09:22:37Z</time></trkpt><trkpt lat="45.84810185760582" lon="14.694902988714537"><ele>445.0</ele><time>2026-05-05T09:22:38Z</time></trkpt><trkpt lat="45.84819251780562" lon="14.694881981217685"><ele>445.0</ele><time>2026-05-05T09:22:39Z</time></trkpt><trkpt lat="45.84828370972983" lon="14.69486613400325"><ele>445.0</ele><time>2026-05-05T09:22:40Z</time></trkpt><trkpt lat="45.84838030082955" lon="14.694849843579783"><ele>445.0</ele><time>2026-05-05T09:22:41Z</time></trkpt><trkpt lat="45.84847833076337" lon="14.694831350429387"><ele>445.0</ele><time>2026-05-05T09:22:42Z</time></trkpt><trkpt lat="45.84857571572866" lon="14.694808823649076"><ele>445.0</ele><time>2026-05-05T09:22:43Z</time></trkpt><trkpt lat="45.84867634739128" lon="14.694787803591847"><ele>445.0</ele><time>2026-05-05T09:22:44Z</time></trkpt><trkpt lat="45.84877573169257" lon="14.694772939528262"><ele>445.0</ele><time>2026-05-05T09:22:45Z</time></trkpt><trkpt lat="45.848876389331835" lon="14.694757515709492"><ele>445.0</ele><time>2026-05-05T09:22:46Z</time></trkpt><trkpt lat="45.848978663622205" lon="14.694734844253482"><ele>445.0</ele><time>2026-05-05T09:22:47Z</time></trkpt><trkpt lat="45.84908006310307" lon="14.694706570310368"><ele>445.0</ele><time>2026-05-05T09:22:48Z</time></trkpt><trkpt lat="45.849184344627915" lon="14.694679550669955"><ele>443.75</ele><time>2026-05-05T09:22:49Z</time></trkpt><trkpt lat="45.849296470086465" lon="14.694650414386135"><ele>442.5</ele><time>2026-05-05T09:22:50Z</time></trkpt><trkpt lat="45.84940202840291" lon="14.694610697585349"><ele>441.25</ele><time>2026-05-05T09:22:51Z</time></trkpt><trkpt lat="45.84950313411634" lon="14.69453726594078"><ele>440.0</ele><time>2026-05-05T09:22:52Z</time></trkpt><trkpt lat="45.84959042693523" lon="14.694426938368824"><ele>439.75</ele><time>2026-05-05T09:22:53Z</time></trkpt><trkpt lat="45.84965380355062" lon="14.694281450996302"><ele>439.5</ele><time>2026-05-05T09:22:54Z</time></trkpt><trkpt lat="45.84971993888486" lon="14.694128774562103"><ele>439.25</ele><time>2026-05-05T09:22:55Z</time></trkpt><trkpt lat="45.84979195315878" lon="14.69399041219398"><ele>439.0</ele><time>2026-05-05T09:22:56Z</time></trkpt><trkpt lat="45.84987583549352" lon="14.693858873480828"><ele>439.0</ele><time>2026-05-05T09:22:57Z</time></trkpt><trkpt lat="45.84997996300125" lon="14.693766047419198"><ele>439.0</ele><time>2026-05-05T09:22:58Z</time></trkpt><trkpt lat="45.85007308718054" lon="14.693643701090972"><ele>439.0</ele><time>2026-05-05T09:22:59Z</time></trkpt><trkpt lat="45.85019298508916" lon="14.693590535613014"><ele>439.0</ele><time>2026-05-05T09:23:00Z</time></trkpt><trkpt lat="45.8503054039976" lon="14.693517358644238"><ele>440.0</ele><time>2026-05-05T09:23:01Z</time></trkpt><trkpt lat="45.85042154536002" lon="14.693489021958438"><ele>441.0</ele><time>2026-05-05T09:23:02Z</time></trkpt><trkpt lat="45.85053624944201" lon="14.69346494225301"><ele>442.0</ele><time>2026-05-05T09:23:03Z</time></trkpt><trkpt lat="45.850654776980505" lon="14.693439580720455"><ele>443.0</ele><time>2026-05-05T09:23:04Z</time></trkpt><trkpt lat="45.850775564806646" lon="14.693410214288148"><ele>443.0</ele><time>2026-05-05T09:23:05Z</time></trkpt><trkpt lat="45.85089301899967" lon="14.693374028741449"><ele>443.0</ele><time>2026-05-05T09:23:06Z</time></trkpt><trkpt lat="45.85100443358455" lon="14.693315363810457"><ele>443.0</ele><time>2026-05-05T09:23:07Z</time></trkpt><trkpt lat="45.851102199008146" lon="14.693210463553989"><ele>443.0</ele><time>2026-05-05T09:23:08Z</time></trkpt><trkpt lat="45.85118320617635" lon="14.693066025972044"><ele>443.0</ele><time>2026-05-05T09:23:09Z</time></trkpt><trkpt lat="45.85125496418663" lon="14.692911228474816"><ele>443.0</ele><time>2026-05-05T09:23:10Z</time></trkpt><trkpt lat="45.8512767033261" lon="14.692718871914149"><ele>443.0</ele><time>2026-05-05T09:23:11Z</time></trkpt><trkpt lat="45.851280788480274" lon="14.69252883859043"><ele>443.0</ele><time>2026-05-05T09:23:12Z</time></trkpt><trkpt lat="45.85128073258173" lon="14.692351776391648"><ele>442.75</ele><time>2026-05-05T09:23:13Z</time></trkpt><trkpt lat="45.85127855586435" lon="14.692152089503182"><ele>442.5</ele><time>2026-05-05T09:23:14Z</time></trkpt><trkpt lat="45.8512728542027" lon="14.691941658266812"><ele>442.25</ele><time>2026-05-05T09:23:15Z</time></trkpt><trkpt lat="45.8512626739587" lon="14.691714488323125"><ele>442.0</ele><time>2026-05-05T09:23:16Z</time></trkpt><trkpt lat="45.851260838409715" lon="14.691500771089762"><ele>442.0</ele><time>2026-05-05T09:23:17Z</time></trkpt><trkpt lat="45.851255922617" lon="14.691293965960115"><ele>442.0</ele><time>2026-05-05T09:23:18Z</time></trkpt><trkpt lat="45.85124902164931" lon="14.691090837126424"><ele>442.0</ele><time>2026-05-05T09:23:19Z</time></trkpt><trkpt lat="45.851230455773795" lon="14.690892497491705"><ele>442.0</ele><time>2026-05-05T09:23:20Z</time></trkpt><trkpt lat="45.85123606215078" lon="14.690692838159302"><ele>442.0</ele><time>2026-05-05T09:23:21Z</time></trkpt><trkpt lat="45.851252293652955" lon="14.69048705353818"><ele>442.0</ele><time>2026-05-05T09:23:22Z</time></trkpt><trkpt lat="45.851286411252715" lon="14.690277666677822"><ele>442.0</ele><time>2026-05-05T09:23:23Z</time></trkpt><trkpt lat="45.851354785640986" lon="14.690061297187176"><ele>442.33333333333337</ele><time>2026-05-05T09:23:24Z</time></trkpt><trkpt lat="45.85143992536113" lon="14.68982881313458"><ele>442.66666666666663</ele><time>2026-05-05T09:23:25Z</time></trkpt><trkpt lat="45.851518569968434" lon="14.689559874816716"><ele>443.0</ele><time>2026-05-05T09:23:26Z</time></trkpt><trkpt lat="45.851583620653436" lon="14.689244773990369"><ele>443.5</ele><time>2026-05-05T09:23:27Z</time></trkpt><trkpt lat="45.85161830744575" lon="14.688910309585406"><ele>444.0</ele><time>2026-05-05T09:23:28Z</time></trkpt><trkpt lat="45.851625468465954" lon="14.688565778311556"><ele>443.0</ele><time>2026-05-05T09:23:29Z</time></trkpt><trkpt lat="45.85164196712832" lon="14.688221644941404"><ele>442.0</ele><time>2026-05-05T09:23:30Z</time></trkpt><trkpt lat="45.8516582112485" lon="14.687884387193352"><ele>442.33333333333337</ele><time>2026-05-05T09:23:31Z</time></trkpt><trkpt lat="45.85167996052475" lon="14.687563758938854"><ele>442.66666666666663</ele><time>2026-05-05T09:23:32Z</time></trkpt><trkpt lat="45.85171136633125" lon="14.687252843385775"><ele>443.0</ele><time>2026-05-05T09:23:33Z</time></trkpt><trkpt lat="45.85175564233711" lon="14.686960862308593"><ele>443.66666666666663</ele><time>2026-05-05T09:23:34Z</time></trkpt><trkpt lat="45.85181198514027" lon="14.686677298435567"><ele>444.33333333333337</ele><time>2026-05-05T09:23:35Z</time></trkpt><trkpt lat="45.85189336815494" lon="14.686402124866936"><ele>445.0</ele><time>2026-05-05T09:23:36Z</time></trkpt><trkpt lat="45.851964856002624" lon="14.686110474440921"><ele>445.6666666666667</ele><time>2026-05-05T09:23:37Z</time></trkpt><trkpt lat="45.85201524366192" lon="14.685807901734554"><ele>446.33333333333337</ele><time>2026-05-05T09:23:38Z</time></trkpt><trkpt lat="45.85207995225582" lon="14.685596884595324"><ele>447.0</ele><time>2026-05-05T09:23:39Z</time></trkpt><trkpt lat="45.852156040780336" lon="14.685354202575407"><ele>446.66666666666663</ele><time>2026-05-05T09:23:40Z</time></trkpt><trkpt lat="45.85225628066345" lon="14.68512344991707"><ele>446.3333333333333</ele><time>2026-05-05T09:23:41Z</time></trkpt><trkpt lat="45.852414984615244" lon="14.684961468744179"><ele>446.0</ele><time>2026-05-05T09:23:42Z</time></trkpt><trkpt lat="45.852589299485494" lon="14.684837535923267"><ele>445.66666666666663</ele><time>2026-05-05T09:23:43Z</time></trkpt><trkpt lat="45.85277272039514" lon="14.684769189561068"><ele>445.33333333333337</ele><time>2026-05-05T09:23:44Z</time></trkpt><trkpt lat="45.852944425482846" lon="14.68470774823137"><ele>445.0</ele><time>2026-05-05T09:23:45Z</time></trkpt><trkpt lat="45.853110465050136" lon="14.684620301141772"><ele>445.0</ele><time>2026-05-05T09:23:46Z</time></trkpt><trkpt lat="45.853283213493064" lon="14.684533643551744"><ele>445.0</ele><time>2026-05-05T09:23:47Z</time></trkpt><trkpt lat="45.85361421658338" lon="14.684296175829493"><ele>445.0</ele><time>2026-05-05T09:23:49Z</time></trkpt><trkpt lat="45.85377810466597" lon="14.684149906907363"><ele>445.0</ele><time>2026-05-05T09:23:50Z</time></trkpt><trkpt lat="45.85393167105365" lon="14.683962338771853"><ele>445.0</ele><time>2026-05-05T09:23:51Z</time></trkpt><trkpt lat="45.85407048165256" lon="14.683741464963644"><ele>444.6666666666667</ele><time>2026-05-05T09:23:52Z</time></trkpt><trkpt lat="45.8541994446331" lon="14.68351057957675"><ele>444.33333333333337</ele><time>2026-05-05T09:23:53Z</time></trkpt><trkpt lat="45.85434548862936" lon="14.68331083727288"><ele>444.0</ele><time>2026-05-05T09:23:54Z</time></trkpt><trkpt lat="45.85450522179679" lon="14.683129749931913"><ele>444.0</ele><time>2026-05-05T09:23:55Z</time></trkpt><trkpt lat="45.854673616484405" lon="14.682935915502838"><ele>444.0</ele><time>2026-05-05T09:23:56Z</time></trkpt><trkpt lat="45.854819924920626" lon="14.682706726099422"><ele>444.0</ele><time>2026-05-05T09:23:57Z</time></trkpt><trkpt lat="45.854960590377914" lon="14.682472455741397"><ele>444.0</ele><time>2026-05-05T09:23:58Z</time></trkpt><trkpt lat="45.855080192904786" lon="14.682216277440471"><ele>444.0</ele><time>2026-05-05T09:23:59Z</time></trkpt><trkpt lat="45.855194499117935" lon="14.681949001545311"><ele>444.0</ele><time>2026-05-05T09:24:00Z</time></trkpt><trkpt lat="45.85532811077382" lon="14.681705535652346"><ele>444.66666666666663</ele><time>2026-05-05T09:24:01Z</time></trkpt><trkpt lat="45.855466666490976" lon="14.681471005799027"><ele>445.3333333333333</ele><time>2026-05-05T09:24:02Z</time></trkpt><trkpt lat="45.85561263381022" lon="14.681243987814701"><ele>446.0</ele><time>2026-05-05T09:24:03Z</time></trkpt><trkpt lat="45.85576267073931" lon="14.681014445658827"><ele>446.0</ele><time>2026-05-05T09:24:04Z</time></trkpt><trkpt lat="45.85590490916467" lon="14.680772271383779"><ele>446.0</ele><time>2026-05-05T09:24:05Z</time></trkpt><trkpt lat="45.85606301628412" lon="14.680548813085371"><ele>446.0</ele><time>2026-05-05T09:24:06Z</time></trkpt><trkpt lat="45.85621812852336" lon="14.680319479962451"><ele>446.66666666666663</ele><time>2026-05-05T09:24:07Z</time></trkpt><trkpt lat="45.85637221636511" lon="14.680085369469458"><ele>447.33333333333337</ele><time>2026-05-05T09:24:08Z</time></trkpt><trkpt lat="45.85652554656135" lon="14.679853642724225"><ele>448.0</ele><time>2026-05-05T09:24:09Z</time></trkpt><trkpt lat="45.85669494697122" lon="14.679643122130788"><ele>449.0</ele><time>2026-05-05T09:24:10Z</time></trkpt><trkpt lat="45.85686484070366" lon="14.679441465440387"><ele>450.0</ele><time>2026-05-05T09:24:11Z</time></trkpt><trkpt lat="45.857035510814086" lon="14.679254095980484"><ele>451.0</ele><time>2026-05-05T09:24:12Z</time></trkpt><trkpt lat="45.857208151517426" lon="14.679092435913422"><ele>451.0</ele><time>2026-05-05T09:24:13Z</time></trkpt><trkpt lat="45.857402692938535" lon="14.679001822778053"><ele>451.0</ele><time>2026-05-05T09:24:14Z</time></trkpt><trkpt lat="45.8576033202044" lon="14.678940873645876"><ele>451.0</ele><time>2026-05-05T09:24:15Z</time></trkpt><trkpt lat="45.857806633755324" lon="14.678868859102582"><ele>451.0</ele><time>2026-05-05T09:24:16Z</time></trkpt><trkpt lat="45.85800434171538" lon="14.678756592695622"><ele>451.0</ele><time>2026-05-05T09:24:17Z</time></trkpt><trkpt lat="45.85817797704873" lon="14.678602427338019"><ele>451.0</ele><time>2026-05-05T09:24:18Z</time></trkpt><trkpt lat="45.858318847699834" lon="14.678433000664239"><ele>451.0</ele><time>2026-05-05T09:24:19Z</time></trkpt><trkpt lat="45.85844172493061" lon="14.678270331440627"><ele>451.0</ele><time>2026-05-05T09:24:20Z</time></trkpt><trkpt lat="45.85855573617961" lon="14.678115622881418"><ele>451.0</ele><time>2026-05-05T09:24:21Z</time></trkpt><trkpt lat="45.85864394063326" lon="14.677962566020046"><ele>451.0</ele><time>2026-05-05T09:24:22Z</time></trkpt><trkpt lat="45.85871318610438" lon="14.67780643287154"><ele>451.0</ele><time>2026-05-05T09:24:23Z</time></trkpt><trkpt lat="45.85875665662376" lon="14.677610371548619"><ele>451.0</ele><time>2026-05-05T09:24:24Z</time></trkpt><trkpt lat="45.858785470950494" lon="14.677388296929415"><ele>451.0</ele><time>2026-05-05T09:24:25Z</time></trkpt><trkpt lat="45.85880438993604" lon="14.677161056412587"><ele>451.0</ele><time>2026-05-05T09:24:26Z</time></trkpt><trkpt lat="45.85881729742861" lon="14.676937768902752"><ele>451.0</ele><time>2026-05-05T09:24:27Z</time></trkpt><trkpt lat="45.8588254285411" lon="14.676722743691235"><ele>451.0</ele><time>2026-05-05T09:24:28Z</time></trkpt><trkpt lat="45.858844601833994" lon="14.67651356796463"><ele>451.33333333333337</ele><time>2026-05-05T09:24:29Z</time></trkpt><trkpt lat="45.85887173500764" lon="14.676304788597344"><ele>451.66666666666663</ele><time>2026-05-05T09:24:30Z</time></trkpt><trkpt lat="45.85892984964156" lon="14.676100820775428"><ele>452.0</ele><time>2026-05-05T09:24:31Z</time></trkpt><trkpt lat="45.85901862761923" lon="14.675908362096601"><ele>452.0</ele><time>2026-05-05T09:24:32Z</time></trkpt><trkpt lat="45.85910793338976" lon="14.67571154870735"><ele>452.0</ele><time>2026-05-05T09:24:33Z</time></trkpt><trkpt lat="45.8591795710226" lon="14.675505878080902"><ele>452.0</ele><time>2026-05-05T09:24:34Z</time></trkpt><trkpt lat="45.8592400312043" lon="14.675288382396312"><ele>453.0</ele><time>2026-05-05T09:24:35Z</time></trkpt><trkpt lat="45.85930123061192" lon="14.675070408552497"><ele>454.0</ele><time>2026-05-05T09:24:36Z</time></trkpt><trkpt lat="45.859376610501926" lon="14.674860638181045"><ele>455.0</ele><time>2026-05-05T09:24:37Z</time></trkpt><trkpt lat="45.859471421245395" lon="14.674663523257731"><ele>455.0</ele><time>2026-05-05T09:24:38Z</time></trkpt><trkpt lat="45.859584165335534" lon="14.674482564252642"><ele>455.0</ele><time>2026-05-05T09:24:39Z</time></trkpt><trkpt lat="45.85971044171108" lon="14.674309352126667"><ele>455.0</ele><time>2026-05-05T09:24:40Z</time></trkpt><trkpt lat="45.85983481491737" lon="14.674130316643609"><ele>455.3333333333333</ele><time>2026-05-05T09:24:41Z</time></trkpt><trkpt lat="45.85994967148285" lon="14.673927878432783"><ele>455.66666666666663</ele><time>2026-05-05T09:24:42Z</time></trkpt><trkpt lat="45.86005098655381" lon="14.67370368712262"><ele>456.0</ele><time>2026-05-05T09:24:43Z</time></trkpt><trkpt lat="45.860142701295885" lon="14.673465156240143"><ele>456.0</ele><time>2026-05-05T09:24:44Z</time></trkpt><trkpt lat="45.86022458814987" lon="14.673212937893972"><ele>456.0</ele><time>2026-05-05T09:24:45Z</time></trkpt><trkpt lat="45.86029722827296" lon="14.67297040130038"><ele>456.0</ele><time>2026-05-05T09:24:46Z</time></trkpt><trkpt lat="45.86036902883844" lon="14.672711234170048"><ele>456.0</ele><time>2026-05-05T09:24:47Z</time></trkpt><trkpt lat="45.86043177901136" lon="14.672454620401664"><ele>456.0</ele><time>2026-05-05T09:24:48Z</time></trkpt><trkpt lat="45.86049271503002" lon="14.67218933527023"><ele>456.0</ele><time>2026-05-05T09:24:49Z</time></trkpt><trkpt lat="45.860547121937714" lon="14.671922977355866"><ele>456.33333333333337</ele><time>2026-05-05T09:24:50Z</time></trkpt><trkpt lat="45.860595598529635" lon="14.671657042417534"><ele>456.6666666666667</ele><time>2026-05-05T09:24:51Z</time></trkpt><trkpt lat="45.860643489976695" lon="14.671390104500238"><ele>457.0</ele><time>2026-05-05T09:24:52Z</time></trkpt><trkpt lat="45.860694708245376" lon="14.671119543951315"><ele>457.0</ele><time>2026-05-05T09:24:53Z</time></trkpt><trkpt lat="45.86076061816028" lon="14.670856914372886"><ele>457.0</ele><time>2026-05-05T09:24:54Z</time></trkpt><trkpt lat="45.86086654052605" lon="14.670612679312608"><ele>457.0</ele><time>2026-05-05T09:24:55Z</time></trkpt><trkpt lat="45.86100729228783" lon="14.670410622460953"><ele>459.0</ele><time>2026-05-05T09:24:56Z</time></trkpt><trkpt lat="45.861154891221744" lon="14.670213724403144"><ele>461.0</ele><time>2026-05-05T09:24:57Z</time></trkpt><trkpt lat="45.86128591420288" lon="14.670007495424057"><ele>463.0</ele><time>2026-05-05T09:24:58Z</time></trkpt><trkpt lat="45.861385806242176" lon="14.6697886268427"><ele>463.0</ele><time>2026-05-05T09:24:59Z</time></trkpt><trkpt lat="45.86144672530691" lon="14.669557263375799"><ele>463.0</ele><time>2026-05-05T09:25:00Z</time></trkpt><trkpt lat="45.86147320691761" lon="14.669321743888917"><ele>463.0</ele><time>2026-05-05T09:25:01Z</time></trkpt><trkpt lat="45.86147429967613" lon="14.669102895527153"><ele>462.5</ele><time>2026-05-05T09:25:02Z</time></trkpt><trkpt lat="45.861465391042906" lon="14.668894899435445"><ele>462.0</ele><time>2026-05-05T09:25:03Z</time></trkpt><trkpt lat="45.86146086919223" lon="14.668704954202045"><ele>461.5</ele><time>2026-05-05T09:25:04Z</time></trkpt><trkpt lat="45.861461835339995" lon="14.66851822163046"><ele>461.0</ele><time>2026-05-05T09:25:05Z</time></trkpt><trkpt lat="45.86147963513793" lon="14.668330812090153"><ele>460.75</ele><time>2026-05-05T09:25:06Z</time></trkpt><trkpt lat="45.86151750029566" lon="14.668151846560779"><ele>460.5</ele><time>2026-05-05T09:25:07Z</time></trkpt><trkpt lat="45.86156318438454" lon="14.667962107678076"><ele>460.25</ele><time>2026-05-05T09:25:08Z</time></trkpt><trkpt lat="45.86160917163383" lon="14.66775762419222"><ele>460.0</ele><time>2026-05-05T09:25:09Z</time></trkpt><trkpt lat="45.86164952692374" lon="14.667534817279597"><ele>460.0</ele><time>2026-05-05T09:25:10Z</time></trkpt><trkpt lat="45.86168029598524" lon="14.667294619511136"><ele>460.0</ele><time>2026-05-05T09:25:11Z</time></trkpt><trkpt lat="45.86170279209432" lon="14.667038090350102"><ele>460.0</ele><time>2026-05-05T09:25:12Z</time></trkpt><trkpt lat="45.86172368176499" lon="14.666770688454752"><ele>460.0</ele><time>2026-05-05T09:25:13Z</time></trkpt><trkpt lat="45.86174202577316" lon="14.666511511184895"><ele>460.0</ele><time>2026-05-05T09:25:14Z</time></trkpt><trkpt lat="45.86175393983705" lon="14.666262261654085"><ele>460.0</ele><time>2026-05-05T09:25:15Z</time></trkpt><trkpt lat="45.86175499594534" lon="14.666013095018334"><ele>460.33333333333337</ele><time>2026-05-05T09:25:16Z</time></trkpt><trkpt lat="45.861730286906706" lon="14.665768971836513"><ele>460.66666666666663</ele><time>2026-05-05T09:25:17Z</time></trkpt><trkpt lat="45.86168220239641" lon="14.665539441288086"><ele>461.0</ele><time>2026-05-05T09:25:18Z</time></trkpt><trkpt lat="45.86164548055966" lon="14.665312130133108"><ele>460.0</ele><time>2026-05-05T09:25:19Z</time></trkpt><trkpt lat="45.861617773624886" lon="14.665096573613798"><ele>459.0</ele><time>2026-05-05T09:25:20Z</time></trkpt><trkpt lat="45.861627887792125" lon="14.66487547523649"><ele>458.0</ele><time>2026-05-05T09:25:21Z</time></trkpt><trkpt lat="45.861650332301714" lon="14.66465481679591"><ele>457.5</ele><time>2026-05-05T09:25:22Z</time></trkpt><trkpt lat="45.86165495921239" lon="14.66444232927382"><ele>457.0</ele><time>2026-05-05T09:25:23Z</time></trkpt><trkpt lat="45.8616540077438" lon="14.664235054939153"><ele>456.5</ele><time>2026-05-05T09:25:24Z</time></trkpt><trkpt lat="45.86161192905686" lon="14.664023584274869"><ele>456.0</ele><time>2026-05-05T09:25:25Z</time></trkpt><trkpt lat="45.861530522435245" lon="14.663824913710236"><ele>456.0</ele><time>2026-05-05T09:25:26Z</time></trkpt><trkpt lat="45.861424840230896" lon="14.66363022331426"><ele>456.0</ele><time>2026-05-05T09:25:27Z</time></trkpt><trkpt lat="45.86131130978076" lon="14.663438943297022"><ele>456.0</ele><time>2026-05-05T09:25:28Z</time></trkpt><trkpt lat="45.86120633210023" lon="14.663246795433334"><ele>456.0</ele><time>2026-05-05T09:25:29Z</time></trkpt><trkpt lat="45.86115640215231" lon="14.663031274578861"><ele>456.0</ele><time>2026-05-05T09:25:30Z</time></trkpt><trkpt lat="45.861112702666766" lon="14.662817734305293"><ele>456.0</ele><time>2026-05-05T09:25:31Z</time></trkpt><trkpt lat="45.86105192315578" lon="14.662600355399599"><ele>456.0</ele><time>2026-05-05T09:25:32Z</time></trkpt><trkpt lat="45.86101709173465" lon="14.66238867065829"><ele>456.0</ele><time>2026-05-05T09:25:33Z</time></trkpt><trkpt lat="45.86096893943385" lon="14.662190542084783"><ele>456.0</ele><time>2026-05-05T09:25:34Z</time></trkpt><trkpt lat="45.860912562997946" lon="14.661994018570029"><ele>456.0</ele><time>2026-05-05T09:25:35Z</time></trkpt><trkpt lat="45.86085520402334" lon="14.661793071764889"><ele>456.0</ele><time>2026-05-05T09:25:36Z</time></trkpt><trkpt lat="45.86079065488606" lon="14.66159653197961"><ele>456.0</ele><time>2026-05-05T09:25:37Z</time></trkpt><trkpt lat="45.86070396542464" lon="14.66141334078005"><ele>456.0</ele><time>2026-05-05T09:25:38Z</time></trkpt><trkpt lat="45.860594604542435" lon="14.66125688336086"><ele>456.0</ele><time>2026-05-05T09:25:39Z</time></trkpt><trkpt lat="45.86047144163028" lon="14.661116292308455"><ele>456.0</ele><time>2026-05-05T09:25:40Z</time></trkpt><trkpt lat="45.86034982857586" lon="14.660965108778239"><ele>456.0</ele><time>2026-05-05T09:25:41Z</time></trkpt><trkpt lat="45.8602165086291" lon="14.660807496074385"><ele>456.66666666666663</ele><time>2026-05-05T09:25:42Z</time></trkpt><trkpt lat="45.86005442580163" lon="14.660626986914924"><ele>457.3333333333333</ele><time>2026-05-05T09:25:43Z</time></trkpt><trkpt lat="45.8598658697228" lon="14.660470689575876"><ele>458.0</ele><time>2026-05-05T09:25:44Z</time></trkpt><trkpt lat="45.859699010988415" lon="14.66030412585703"><ele>458.3333333333333</ele><time>2026-05-05T09:25:45Z</time></trkpt><trkpt lat="45.85956924791128" lon="14.660073807299433"><ele>458.66666666666663</ele><time>2026-05-05T09:25:46Z</time></trkpt><trkpt lat="45.85947851125017" lon="14.659799271797405"><ele>459.0</ele><time>2026-05-05T09:25:47Z</time></trkpt><trkpt lat="45.859443528192585" lon="14.65950509741165"><ele>459.0</ele><time>2026-05-05T09:25:48Z</time></trkpt><trkpt lat="45.859452878963175" lon="14.659197482676843"><ele>459.0</ele><time>2026-05-05T09:25:49Z</time></trkpt><trkpt lat="45.859470052425216" lon="14.658895672088086"><ele>459.0</ele><time>2026-05-05T09:25:50Z</time></trkpt><trkpt lat="45.859498441888654" lon="14.658625762448558"><ele>458.66666666666663</ele><time>2026-05-05T09:25:51Z</time></trkpt><trkpt lat="45.85951769932154" lon="14.65835825213522"><ele>458.3333333333333</ele><time>2026-05-05T09:25:52Z</time></trkpt><trkpt lat="45.859565733095614" lon="14.658095516794756"><ele>458.0</ele><time>2026-05-05T09:25:53Z</time></trkpt><trkpt lat="45.859619341517615" lon="14.657843838812097"><ele>458.66666666666663</ele><time>2026-05-05T09:25:54Z</time></trkpt><trkpt lat="45.85967538181939" lon="14.657598100843163"><ele>459.33333333333337</ele><time>2026-05-05T09:25:55Z</time></trkpt><trkpt lat="45.859758823034646" lon="14.657373681264504"><ele>460.0</ele><time>2026-05-05T09:25:56Z</time></trkpt><trkpt lat="45.85984076253258" lon="14.657148507089845"><ele>460.33333333333337</ele><time>2026-05-05T09:25:57Z</time></trkpt><trkpt lat="45.85991603682359" lon="14.656903246233487"><ele>460.66666666666663</ele><time>2026-05-05T09:25:58Z</time></trkpt><trkpt lat="45.86000250868825" lon="14.656673687697857"><ele>461.0</ele><time>2026-05-05T09:25:59Z</time></trkpt><trkpt lat="45.86008719646977" lon="14.656440042263275"><ele>461.0</ele><time>2026-05-05T09:26:00Z</time></trkpt><trkpt lat="45.86015604020405" lon="14.656189920609583"><ele>461.0</ele><time>2026-05-05T09:26:01Z</time></trkpt><trkpt lat="45.860219746733065" lon="14.655939005247982"><ele>461.0</ele><time>2026-05-05T09:26:02Z</time></trkpt><trkpt lat="45.86029801878744" lon="14.655692095992654"><ele>461.0</ele><time>2026-05-05T09:26:03Z</time></trkpt><trkpt lat="45.860388387601446" lon="14.6554479275738"><ele>461.0</ele><time>2026-05-05T09:26:04Z</time></trkpt><trkpt lat="45.86046708261981" lon="14.65519224358276"><ele>461.0</ele><time>2026-05-05T09:26:05Z</time></trkpt><trkpt lat="45.86050667575648" lon="14.654917274571778"><ele>461.0</ele><time>2026-05-05T09:26:06Z</time></trkpt><trkpt lat="45.86053441891819" lon="14.65435108586428"><ele>461.0</ele><time>2026-05-05T09:26:08Z</time></trkpt><trkpt lat="45.860605313338404" lon="14.654089629443021"><ele>461.0</ele><time>2026-05-05T09:26:09Z</time></trkpt><trkpt lat="45.86071017106045" lon="14.653849020006373"><ele>461.0</ele><time>2026-05-05T09:26:10Z</time></trkpt><trkpt lat="45.86079141583144" lon="14.65363536467816"><ele>461.0</ele><time>2026-05-05T09:26:11Z</time></trkpt><trkpt lat="45.86083640906645" lon="14.653434644050177"><ele>461.75</ele><time>2026-05-05T09:26:12Z</time></trkpt><trkpt lat="45.8608694274225" lon="14.653236054762509"><ele>462.5</ele><time>2026-05-05T09:26:13Z</time></trkpt><trkpt lat="45.86087948863808" lon="14.653033724880567"><ele>463.25</ele><time>2026-05-05T09:26:14Z</time></trkpt><trkpt lat="45.86087607722566" lon="14.652846885572961"><ele>464.0</ele><time>2026-05-05T09:26:15Z</time></trkpt><trkpt lat="45.86086942687554" lon="14.652676188159386"><ele>464.49999999999994</ele><time>2026-05-05T09:26:16Z</time></trkpt><trkpt lat="45.86086578005441" lon="14.652520985874522"><ele>465.0</ele><time>2026-05-05T09:26:17Z</time></trkpt><trkpt lat="45.86086585729717" lon="14.652381145105325"><ele>465.5</ele><time>2026-05-05T09:26:18Z</time></trkpt><trkpt lat="45.86085675995289" lon="14.652259908324643"><ele>466.0</ele><time>2026-05-05T09:26:19Z</time></trkpt><trkpt lat="45.860822307189764" lon="14.652164763240991"><ele>466.49999999999994</ele><time>2026-05-05T09:26:20Z</time></trkpt><trkpt lat="45.86075636133849" lon="14.652106976436256"><ele>467.0</ele><time>2026-05-05T09:26:21Z</time></trkpt><trkpt lat="45.8606571261655" lon="14.652121391175434"><ele>467.0</ele><time>2026-05-05T09:26:22Z</time></trkpt><trkpt lat="45.86055067677118" lon="14.652170823695936"><ele>467.00000000000006</ele><time>2026-05-05T09:26:23Z</time></trkpt><trkpt lat="45.860445613363964" lon="14.652207813378334"><ele>467.00000000000006</ele><time>2026-05-05T09:26:24Z</time></trkpt><trkpt lat="45.860343755142154" lon="14.652197062621962"><ele>467.0</ele><time>2026-05-05T09:26:25Z</time></trkpt><trkpt lat="45.86025328798954" lon="14.65210149097025"><ele>467.0</ele><time>2026-05-05T09:26:26Z</time></trkpt><trkpt lat="45.860193667885895" lon="14.65194709077411"><ele>466.0</ele><time>2026-05-05T09:26:27Z</time></trkpt><trkpt lat="45.86010770780834" lon="14.651822187926287"><ele>465.0</ele><time>2026-05-05T09:26:28Z</time></trkpt><trkpt lat="45.860021528279724" lon="14.651688410882945"><ele>464.0</ele><time>2026-05-05T09:26:29Z</time></trkpt><trkpt lat="45.85992466174554" lon="14.651551504199087"><ele>463.0</ele><time>2026-05-05T09:26:30Z</time></trkpt><trkpt lat="45.859835711902655" lon="14.65139222705917"><ele>463.0</ele><time>2026-05-05T09:26:31Z</time></trkpt><trkpt lat="45.85976378700536" lon="14.651201647051753"><ele>463.0</ele><time>2026-05-05T09:26:32Z</time></trkpt><trkpt lat="45.859729387379474" lon="14.650985215627921"><ele>463.0</ele><time>2026-05-05T09:26:33Z</time></trkpt><trkpt lat="45.85969940332546" lon="14.650767814316579"><ele>463.6666666666667</ele><time>2026-05-05T09:26:34Z</time></trkpt><trkpt lat="45.859734815057436" lon="14.650558268351837"><ele>464.33333333333337</ele><time>2026-05-05T09:26:35Z</time></trkpt><trkpt lat="45.85976531287558" lon="14.650332251279071"><ele>465.0</ele><time>2026-05-05T09:26:36Z</time></trkpt><trkpt lat="45.85977462239528" lon="14.650104192270076"><ele>465.33333333333337</ele><time>2026-05-05T09:26:37Z</time></trkpt><trkpt lat="45.85978718126312" lon="14.649865897065647"><ele>465.6666666666667</ele><time>2026-05-05T09:26:38Z</time></trkpt><trkpt lat="45.859780506919435" lon="14.649625618699611"><ele>466.0</ele><time>2026-05-05T09:26:39Z</time></trkpt><trkpt lat="45.859774469072825" lon="14.649387475305813"><ele>466.33333333333337</ele><time>2026-05-05T09:26:40Z</time></trkpt><trkpt lat="45.85976411791108" lon="14.649153655212269"><ele>466.66666666666663</ele><time>2026-05-05T09:26:41Z</time></trkpt><trkpt lat="45.859752830972724" lon="14.648927488325747"><ele>467.0</ele><time>2026-05-05T09:26:42Z</time></trkpt><trkpt lat="45.85974392572762" lon="14.648704372836427"><ele>467.75</ele><time>2026-05-05T09:26:43Z</time></trkpt><trkpt lat="45.85973502202105" lon="14.64850840570855"><ele>468.5</ele><time>2026-05-05T09:26:44Z</time></trkpt><trkpt lat="45.859732574226825" lon="14.648317617420338"><ele>469.25</ele><time>2026-05-05T09:26:45Z</time></trkpt><trkpt lat="45.85972626729186" lon="14.648127247340657"><ele>470.0</ele><time>2026-05-05T09:26:46Z</time></trkpt><trkpt lat="45.85972004976922" lon="14.647933635636232"><ele>470.0</ele><time>2026-05-05T09:26:47Z</time></trkpt><trkpt lat="45.85970361415608" lon="14.647740639199599"><ele>470.0</ele><time>2026-05-05T09:26:48Z</time></trkpt><trkpt lat="45.859678619748905" lon="14.64754862543901"><ele>470.0</ele><time>2026-05-05T09:26:49Z</time></trkpt><trkpt lat="45.859657293532315" lon="14.647361379179781"><ele>470.0</ele><time>2026-05-05T09:26:50Z</time></trkpt><trkpt lat="45.85964213980757" lon="14.647173285451847"><ele>470.0</ele><time>2026-05-05T09:26:51Z</time></trkpt><trkpt lat="45.859640065072" lon="14.646973059982626"><ele>470.0</ele><time>2026-05-05T09:26:52Z</time></trkpt><trkpt lat="45.85960141403426" lon="14.646778380307278"><ele>470.0</ele><time>2026-05-05T09:26:53Z</time></trkpt><trkpt lat="45.859529994592954" lon="14.646590470303147"><ele>470.0</ele><time>2026-05-05T09:26:54Z</time></trkpt><trkpt lat="45.85943000675192" lon="14.646417390457437"><ele>470.0</ele><time>2026-05-05T09:26:55Z</time></trkpt><trkpt lat="45.85933659739466" lon="14.646245210426608"><ele>470.0</ele><time>2026-05-05T09:26:56Z</time></trkpt><trkpt lat="45.8592565265223" lon="14.64606070354251"><ele>470.0</ele><time>2026-05-05T09:26:57Z</time></trkpt><trkpt lat="45.85918492845324" lon="14.645872628578358"><ele>470.0</ele><time>2026-05-05T09:26:58Z</time></trkpt><trkpt lat="45.859116534795234" lon="14.64568174431556"><ele>470.0</ele><time>2026-05-05T09:26:59Z</time></trkpt><trkpt lat="45.85907309955135" lon="14.645473589645642"><ele>470.0</ele><time>2026-05-05T09:27:00Z</time></trkpt><trkpt lat="45.85900873174368" lon="14.645288073227235"><ele>470.0</ele><time>2026-05-05T09:27:01Z</time></trkpt><trkpt lat="45.85896445666013" lon="14.645096068580214"><ele>470.25</ele><time>2026-05-05T09:27:02Z</time></trkpt><trkpt lat="45.85891759286563" lon="14.644902280576307"><ele>470.5</ele><time>2026-05-05T09:27:03Z</time></trkpt><trkpt lat="45.858881670240464" lon="14.644703346743466"><ele>470.75</ele><time>2026-05-05T09:27:04Z</time></trkpt><trkpt lat="45.85887886720161" lon="14.644499409537206"><ele>471.0</ele><time>2026-05-05T09:27:05Z</time></trkpt><trkpt lat="45.85887319636733" lon="14.644297941667718"><ele>471.0</ele><time>2026-05-05T09:27:06Z</time></trkpt><trkpt lat="45.85884865929599" lon="14.64410074613962"><ele>471.0</ele><time>2026-05-05T09:27:07Z</time></trkpt><trkpt lat="45.85883019987218" lon="14.643925108525083"><ele>471.0</ele><time>2026-05-05T09:27:08Z</time></trkpt><trkpt lat="45.85879616025245" lon="14.643771373281114"><ele>471.0</ele><time>2026-05-05T09:27:09Z</time></trkpt><trkpt lat="45.85876802674989" lon="14.643638815042564"><ele>471.0</ele><time>2026-05-05T09:27:10Z</time></trkpt><trkpt lat="45.85877469165275" lon="14.64351169607148"><ele>471.0</ele><time>2026-05-05T09:27:11Z</time></trkpt><trkpt lat="45.858829383706095" lon="14.643419956647033"><ele>471.0</ele><time>2026-05-05T09:27:12Z</time></trkpt><trkpt lat="45.85888173936734" lon="14.64331452623091"><ele>471.0</ele><time>2026-05-05T09:27:13Z</time></trkpt><trkpt lat="45.85894641831325" lon="14.643213192696734"><ele>471.0</ele><time>2026-05-05T09:27:14Z</time></trkpt><trkpt lat="45.85900488888115" lon="14.643093930659493"><ele>471.0</ele><time>2026-05-05T09:27:15Z</time></trkpt><trkpt lat="45.85907130559705" lon="14.643002236683406"><ele>471.0</ele><time>2026-05-05T09:27:16Z</time></trkpt><trkpt lat="45.85913057527907" lon="14.64290431956868"><ele>471.0</ele><time>2026-05-05T09:27:17Z</time></trkpt><trkpt lat="45.85919023954792" lon="14.642800217497893"><ele>471.0</ele><time>2026-05-05T09:27:18Z</time></trkpt><trkpt lat="45.85924448513123" lon="14.642691028382908"><ele>471.0</ele><time>2026-05-05T09:27:19Z</time></trkpt><trkpt lat="45.859288160166116" lon="14.642574716104143"><ele>471.5</ele><time>2026-05-05T09:27:20Z</time></trkpt><trkpt lat="45.85931653917104" lon="14.64246539629151"><ele>472.0</ele><time>2026-05-05T09:27:21Z</time></trkpt><trkpt lat="45.85933567235275" lon="14.64236371165855"><ele>472.5</ele><time>2026-05-05T09:27:22Z</time></trkpt><trkpt lat="45.85934705966622" lon="14.642252057181352"><ele>473.0</ele><time>2026-05-05T09:27:23Z</time></trkpt><trkpt lat="45.85934940552003" lon="14.642125598416623"><ele>473.5</ele><time>2026-05-05T09:27:24Z</time></trkpt><trkpt lat="45.859345654934565" lon="14.641994013715848"><ele>474.0</ele><time>2026-05-05T09:27:25Z</time></trkpt><trkpt lat="45.85934550842986" lon="14.641855459970087"><ele>474.6</ele><time>2026-05-05T09:27:26Z</time></trkpt><trkpt lat="45.859359259932404" lon="14.6417093945088"><ele>475.2</ele><time>2026-05-05T09:27:27Z</time></trkpt><trkpt lat="45.85939328566801" lon="14.641561299788695"><ele>475.80000000000007</ele><time>2026-05-05T09:27:28Z</time></trkpt><trkpt lat="45.859462432023456" lon="14.64143651562606"><ele>476.40000000000003</ele><time>2026-05-05T09:27:29Z</time></trkpt><trkpt lat="45.85953853021794" lon="14.641342151825674"><ele>477.0</ele><time>2026-05-05T09:27:30Z</time></trkpt><trkpt lat="45.8595765598837" lon="14.641218886826008"><ele>476.8</ele><time>2026-05-05T09:27:31Z</time></trkpt><trkpt lat="45.85961599312309" lon="14.641096175763073"><ele>476.6</ele><time>2026-05-05T09:27:32Z</time></trkpt><trkpt lat="45.85963447795329" lon="14.640952945471726"><ele>476.40000000000003</ele><time>2026-05-05T09:27:33Z</time></trkpt><trkpt lat="45.85963488861222" lon="14.64079863896511"><ele>476.20000000000005</ele><time>2026-05-05T09:27:34Z</time></trkpt><trkpt lat="45.859636413466575" lon="14.640641352498093"><ele>476.0</ele><time>2026-05-05T09:27:35Z</time></trkpt><trkpt lat="45.85963772723745" lon="14.64048686239194"><ele>476.0</ele><time>2026-05-05T09:27:36Z</time></trkpt><trkpt lat="45.85963653113022" lon="14.640334610572452"><ele>476.0</ele><time>2026-05-05T09:27:37Z</time></trkpt><trkpt lat="45.85961684129358" lon="14.640177107622911"><ele>476.0</ele><time>2026-05-05T09:27:38Z</time></trkpt><trkpt lat="45.859574885604424" lon="14.640015424134171"><ele>476.0</ele><time>2026-05-05T09:27:39Z</time></trkpt><trkpt lat="45.85951568213993" lon="14.63986757174111"><ele>476.66666666666663</ele><time>2026-05-05T09:27:40Z</time></trkpt><trkpt lat="45.85943300083398" lon="14.639708545712574"><ele>477.33333333333337</ele><time>2026-05-05T09:27:41Z</time></trkpt><trkpt lat="45.859346128442624" lon="14.639508253891647"><ele>478.0</ele><time>2026-05-05T09:27:42Z</time></trkpt><trkpt lat="45.859236003102474" lon="14.639293217244182"><ele>478.0</ele><time>2026-05-05T09:27:43Z</time></trkpt><trkpt lat="45.85912252117953" lon="14.639075333345863"><ele>478.0</ele><time>2026-05-05T09:27:44Z</time></trkpt><trkpt lat="45.859000035435635" lon="14.638853852327635"><ele>478.0</ele><time>2026-05-05T09:27:45Z</time></trkpt><trkpt lat="45.858877356905396" lon="14.638650230037"><ele>479.33333333333337</ele><time>2026-05-05T09:27:46Z</time></trkpt><trkpt lat="45.85874036458728" lon="14.63848817187443"><ele>480.66666666666663</ele><time>2026-05-05T09:27:47Z</time></trkpt><trkpt lat="45.85858433128589" lon="14.63834181810496"><ele>482.0</ele><time>2026-05-05T09:27:48Z</time></trkpt><trkpt lat="45.85841749564336" lon="14.638190311049433"><ele>482.0</ele><time>2026-05-05T09:27:49Z</time></trkpt><trkpt lat="45.85823283576177" lon="14.638022051962436"><ele>482.0</ele><time>2026-05-05T09:27:50Z</time></trkpt><trkpt lat="45.85803128317767" lon="14.637845206889903"><ele>483.66666666666663</ele><time>2026-05-05T09:27:51Z</time></trkpt><trkpt lat="45.857848823969775" lon="14.63767250010008"><ele>485.33333333333337</ele><time>2026-05-05T09:27:52Z</time></trkpt><trkpt lat="45.857672831151646" lon="14.637495499100062"><ele>487.0</ele><time>2026-05-05T09:27:53Z</time></trkpt><trkpt lat="45.85752696580589" lon="14.637267582327278"><ele>487.0</ele><time>2026-05-05T09:27:54Z</time></trkpt><trkpt lat="45.85739289134122" lon="14.637026655542893"><ele>487.0</ele><time>2026-05-05T09:27:55Z</time></trkpt><trkpt lat="45.85725788397846" lon="14.636775628726655"><ele>487.0</ele><time>2026-05-05T09:27:56Z</time></trkpt><trkpt lat="45.85713935196055" lon="14.636504935986768"><ele>487.0</ele><time>2026-05-05T09:27:57Z</time></trkpt><trkpt lat="45.857037927167326" lon="14.636212441898515"><ele>487.0</ele><time>2026-05-05T09:27:58Z</time></trkpt><trkpt lat="45.856945848390936" lon="14.63590453999128"><ele>486.0</ele><time>2026-05-05T09:27:59Z</time></trkpt><trkpt lat="45.856857473598325" lon="14.635616500820143"><ele>485.0</ele><time>2026-05-05T09:28:00Z</time></trkpt><trkpt lat="45.85675080783844" lon="14.635375220690655"><ele>484.0</ele><time>2026-05-05T09:28:01Z</time></trkpt><trkpt lat="45.856626781164984" lon="14.635157584683368"><ele>484.0</ele><time>2026-05-05T09:28:02Z</time></trkpt><trkpt lat="45.85647255864584" lon="14.634976840337798"><ele>484.0</ele><time>2026-05-05T09:28:03Z</time></trkpt><trkpt lat="45.85629683256744" lon="14.63482463301306"><ele>484.0</ele><time>2026-05-05T09:28:04Z</time></trkpt><trkpt lat="45.85610229944176" lon="14.63470987878336"><ele>482.0</ele><time>2026-05-05T09:28:05Z</time></trkpt><trkpt lat="45.855896277175155" lon="14.63464401375258"><ele>480.0</ele><time>2026-05-05T09:28:06Z</time></trkpt><trkpt lat="45.85568057123176" lon="14.63461876294905"><ele>478.0</ele><time>2026-05-05T09:28:07Z</time></trkpt><trkpt lat="45.85545252834413" lon="14.634613504323806"><ele>478.0</ele><time>2026-05-05T09:28:08Z</time></trkpt><trkpt lat="45.85523136905312" lon="14.634608725427503"><ele>478.0</ele><time>2026-05-05T09:28:09Z</time></trkpt><trkpt lat="45.85501895648525" lon="14.634584685233534"><ele>478.0</ele><time>2026-05-05T09:28:10Z</time></trkpt><trkpt lat="45.85482112566108" lon="14.63448264141978"><ele>477.6666666666667</ele><time>2026-05-05T09:28:11Z</time></trkpt><trkpt lat="45.854625508492546" lon="14.634386625603748"><ele>477.33333333333337</ele><time>2026-05-05T09:28:12Z</time></trkpt><trkpt lat="45.85443243142362" lon="14.634306235866767"><ele>477.0</ele><time>2026-05-05T09:28:13Z</time></trkpt><trkpt lat="45.8542469024082" lon="14.634185154393172"><ele>477.0</ele><time>2026-05-05T09:28:14Z</time></trkpt><trkpt lat="45.85410417172006" lon="14.634006656196473"><ele>477.0</ele><time>2026-05-05T09:28:15Z</time></trkpt><trkpt lat="45.854022963711785" lon="14.633814766013979"><ele>477.0</ele><time>2026-05-05T09:28:16Z</time></trkpt><trkpt lat="45.853982692173204" lon="14.633612795649091"><ele>478.33333333333337</ele><time>2026-05-05T09:28:17Z</time></trkpt><trkpt lat="45.85395074886448" lon="14.633382293811737"><ele>479.6666666666667</ele><time>2026-05-05T09:28:18Z</time></trkpt><trkpt lat="45.853918443157895" lon="14.633142121632261"><ele>481.0</ele><time>2026-05-05T09:28:19Z</time></trkpt><trkpt lat="45.85388718108898" lon="14.632881368240678"><ele>483.0</ele><time>2026-05-05T09:28:20Z</time></trkpt><trkpt lat="45.85384888777733" lon="14.632596072242022"><ele>485.0</ele><time>2026-05-05T09:28:21Z</time></trkpt><trkpt lat="45.853811897313705" lon="14.632319152802854"><ele>487.0</ele><time>2026-05-05T09:28:22Z</time></trkpt><trkpt lat="45.85378582877916" lon="14.63205680455613"><ele>487.33333333333337</ele><time>2026-05-05T09:28:23Z</time></trkpt><trkpt lat="45.853779245880695" lon="14.631793752379805"><ele>487.66666666666663</ele><time>2026-05-05T09:28:24Z</time></trkpt><trkpt lat="45.85379407791168" lon="14.631544019461534"><ele>488.0</ele><time>2026-05-05T09:28:25Z</time></trkpt><trkpt lat="45.85382031426673" lon="14.631314142995148"><ele>488.5</ele><time>2026-05-05T09:28:26Z</time></trkpt><trkpt lat="45.853849594121016" lon="14.631094480642233"><ele>489.0</ele><time>2026-05-05T09:28:27Z</time></trkpt><trkpt lat="45.853883281027365" lon="14.630888704989703"><ele>489.5</ele><time>2026-05-05T09:28:28Z</time></trkpt><trkpt lat="45.85391816710298" lon="14.63070117896206"><ele>490.0</ele><time>2026-05-05T09:28:29Z</time></trkpt><trkpt lat="45.85396285141753" lon="14.630517568092655"><ele>490.0</ele><time>2026-05-05T09:28:30Z</time></trkpt><trkpt lat="45.85400689557415" lon="14.630354841260797"><ele>490.0</ele><time>2026-05-05T09:28:31Z</time></trkpt><trkpt lat="45.85405446441978" lon="14.630185439957401"><ele>490.0</ele><time>2026-05-05T09:28:32Z</time></trkpt><trkpt lat="45.85410496649004" lon="14.629999191865997"><ele>490.0</ele><time>2026-05-05T09:28:33Z</time></trkpt><trkpt lat="45.85414892395704" lon="14.629812197973855"><ele>489.5</ele><time>2026-05-05T09:28:34Z</time></trkpt><trkpt lat="45.85416737400502" lon="14.62962359599857"><ele>489.0</ele><time>2026-05-05T09:28:35Z</time></trkpt><trkpt lat="45.85414681446186" lon="14.629441821001542"><ele>488.5</ele><time>2026-05-05T09:28:36Z</time></trkpt><trkpt lat="45.8541006969686" lon="14.62927162666033"><ele>488.0</ele><time>2026-05-05T09:28:37Z</time></trkpt><trkpt lat="45.854041512689896" lon="14.62911852557243"><ele>487.75</ele><time>2026-05-05T09:28:38Z</time></trkpt><trkpt lat="45.85397432795768" lon="14.628971818610381"><ele>487.5</ele><time>2026-05-05T09:28:39Z</time></trkpt><trkpt lat="45.85391161918569" lon="14.628817142841772"><ele>487.25</ele><time>2026-05-05T09:28:40Z</time></trkpt><trkpt lat="45.85384673287527" lon="14.628654344268742"><ele>487.0</ele><time>2026-05-05T09:28:41Z</time></trkpt><trkpt lat="45.85377634086157" lon="14.62846342534088"><ele>488.75</ele><time>2026-05-05T09:28:42Z</time></trkpt><trkpt lat="45.853726347860594" lon="14.628295150065632"><ele>490.5</ele><time>2026-05-05T09:28:43Z</time></trkpt><trkpt lat="45.85370367096278" lon="14.628143415131735"><ele>492.25</ele><time>2026-05-05T09:28:44Z</time></trkpt><trkpt lat="45.853689507785674" lon="14.627977525756508"><ele>494.0</ele><time>2026-05-05T09:28:45Z</time></trkpt><trkpt lat="45.85367879214073" lon="14.627798489280288"><ele>494.5</ele><time>2026-05-05T09:28:46Z</time></trkpt><trkpt lat="45.853677559324964" lon="14.627610116508926"><ele>495.0</ele><time>2026-05-05T09:28:47Z</time></trkpt><trkpt lat="45.85367439724281" lon="14.62741595168492"><ele>495.5</ele><time>2026-05-05T09:28:48Z</time></trkpt><trkpt lat="45.853657338344846" lon="14.627228228559181"><ele>496.0</ele><time>2026-05-05T09:28:49Z</time></trkpt><trkpt lat="45.85362118299949" lon="14.627063324315467"><ele>496.25</ele><time>2026-05-05T09:28:50Z</time></trkpt><trkpt lat="45.853565856383746" lon="14.626914690803657"><ele>496.5</ele><time>2026-05-05T09:28:51Z</time></trkpt><trkpt lat="45.853495742552056" lon="14.626775006712254"><ele>496.75</ele><time>2026-05-05T09:28:52Z</time></trkpt><trkpt lat="45.853404266142086" lon="14.626654578142901"><ele>497.0</ele><time>2026-05-05T09:28:53Z</time></trkpt><trkpt lat="45.85330787981991" lon="14.626542324456967"><ele>495.5</ele><time>2026-05-05T09:28:54Z</time></trkpt><trkpt lat="45.853204384291224" lon="14.626438061653337"><ele>494.0</ele><time>2026-05-05T09:28:55Z</time></trkpt><trkpt lat="45.85309799126869" lon="14.626341786648297"><ele>492.5</ele><time>2026-05-05T09:28:56Z</time></trkpt><trkpt lat="45.852988230283074" lon="14.626246234569358"><ele>491.0</ele><time>2026-05-05T09:28:57Z</time></trkpt><trkpt lat="45.85287959344066" lon="14.62613898389739"><ele>491.0</ele><time>2026-05-05T09:28:58Z</time></trkpt><trkpt lat="45.85277306879176" lon="14.626026761030333"><ele>491.0</ele><time>2026-05-05T09:28:59Z</time></trkpt><trkpt lat="45.85267668505085" lon="14.625914022857708"><ele>491.0</ele><time>2026-05-05T09:29:00Z</time></trkpt><trkpt lat="45.85258850350147" lon="14.625802048081535"><ele>491.0</ele><time>2026-05-05T09:29:01Z</time></trkpt><trkpt lat="45.852503910788315" lon="14.625683365165036"><ele>489.5</ele><time>2026-05-05T09:29:02Z</time></trkpt><trkpt lat="45.85242410303583" lon="14.625558154512458"><ele>488.0</ele><time>2026-05-05T09:29:03Z</time></trkpt><trkpt lat="45.85235475015918" lon="14.62543926270122"><ele>486.5</ele><time>2026-05-05T09:29:04Z</time></trkpt><trkpt lat="45.852284358662054" lon="14.625316911714272"><ele>485.0</ele><time>2026-05-05T09:29:05Z</time></trkpt><trkpt lat="45.852208017673135" lon="14.625196203102202"><ele>484.99999999999994</ele><time>2026-05-05T09:29:06Z</time></trkpt><trkpt lat="45.85214262873903" lon="14.625093077575226"><ele>485.0</ele><time>2026-05-05T09:29:07Z</time></trkpt><trkpt lat="45.85208118818404" lon="14.624996654286353"><ele>485.0</ele><time>2026-05-05T09:29:08Z</time></trkpt><trkpt lat="45.85201879732508" lon="14.624914937983917"><ele>485.0</ele><time>2026-05-05T09:29:09Z</time></trkpt><trkpt lat="45.85194742690423" lon="14.624845741642302"><ele>484.99999999999994</ele><time>2026-05-05T09:29:10Z</time></trkpt><trkpt lat="45.85188156886078" lon="14.624785535554471"><ele>485.0</ele><time>2026-05-05T09:29:11Z</time></trkpt><trkpt lat="45.85182677819561" lon="14.624737785274329"><ele>483.8333333333333</ele><time>2026-05-05T09:29:12Z</time></trkpt><trkpt lat="45.85174791835575" lon="14.624667800781317"><ele>482.66666666666663</ele><time>2026-05-05T09:29:14Z</time></trkpt><trkpt lat="45.85168550182721" lon="14.62462282222338"><ele>481.5</ele><time>2026-05-05T09:29:16Z</time></trkpt><trkpt lat="45.851612655205265" lon="14.624581415115962"><ele>480.33333333333337</ele><time>2026-05-05T09:29:20Z</time></trkpt><trkpt lat="45.85149697030712" lon="14.6245751792576"><ele>479.1666666666667</ele><time>2026-05-05T09:29:22Z</time></trkpt><trkpt lat="45.851434029727514" lon="14.624561611813405"><ele>478.0</ele><time>2026-05-05T09:29:23Z</time></trkpt><trkpt lat="45.85136537728611" lon="14.624496245331565"><ele>478.2</ele><time>2026-05-05T09:29:26Z</time></trkpt><trkpt lat="45.85130460598458" lon="14.624380107677952"><ele>478.4</ele><time>2026-05-05T09:29:43Z</time></trkpt><trkpt lat="45.851217274375486" lon="14.6242874591064"><ele>478.59999999999997</ele><time>2026-05-05T09:29:45Z</time></trkpt><trkpt lat="45.85113736950701" lon="14.624265166059102"><ele>478.79999999999995</ele><time>2026-05-05T09:29:46Z</time></trkpt><trkpt lat="45.851047120592725" lon="14.62424218106695"><ele>479.0</ele><time>2026-05-05T09:29:47Z</time></trkpt><trkpt lat="45.85094869552846" lon="14.624221592199545"><ele>478.0</ele><time>2026-05-05T09:29:48Z</time></trkpt><trkpt lat="45.85083399686812" lon="14.62419973173614"><ele>477.0</ele><time>2026-05-05T09:29:49Z</time></trkpt><trkpt lat="45.850709518370415" lon="14.624182833567945"><ele>476.0</ele><time>2026-05-05T09:29:50Z</time></trkpt><trkpt lat="45.85057283661131" lon="14.624177214876111"><ele>475.0</ele><time>2026-05-05T09:29:51Z</time></trkpt><trkpt lat="45.8504169873353" lon="14.624184359189984"><ele>475.0</ele><time>2026-05-05T09:29:52Z</time></trkpt><trkpt lat="45.850257914573994" lon="14.624196665354475"><ele>475.0</ele><time>2026-05-05T09:29:53Z</time></trkpt><trkpt lat="45.850106018629816" lon="14.624205988495087"><ele>475.0</ele><time>2026-05-05T09:29:54Z</time></trkpt><trkpt lat="45.849955653459226" lon="14.62421074458716"><ele>475.6666666666667</ele><time>2026-05-05T09:29:55Z</time></trkpt><trkpt lat="45.849807046584644" lon="14.62422435106366"><ele>476.33333333333337</ele><time>2026-05-05T09:29:56Z</time></trkpt><trkpt lat="45.84964881681197" lon="14.624249112052393"><ele>477.0</ele><time>2026-05-05T09:29:57Z</time></trkpt><trkpt lat="45.849486109383626" lon="14.624277846229257"><ele>477.0</ele><time>2026-05-05T09:29:58Z</time></trkpt><trkpt lat="45.849311913644904" lon="14.624311578246047"><ele>477.0</ele><time>2026-05-05T09:29:59Z</time></trkpt><trkpt lat="45.849145349739196" lon="14.624356635641945"><ele>477.0</ele><time>2026-05-05T09:30:00Z</time></trkpt><trkpt lat="45.84898583902419" lon="14.624406907000122"><ele>476.66666666666663</ele><time>2026-05-05T09:30:01Z</time></trkpt><trkpt lat="45.84883388678576" lon="14.624468122318723"><ele>476.3333333333333</ele><time>2026-05-05T09:30:02Z</time></trkpt><trkpt lat="45.848688954451575" lon="14.624532686302121"><ele>476.0</ele><time>2026-05-05T09:30:03Z</time></trkpt><trkpt lat="45.84854535732174" lon="14.624607643462017"><ele>477.0</ele><time>2026-05-05T09:30:04Z</time></trkpt><trkpt lat="45.848397953333524" lon="14.624690148152064"><ele>478.0</ele><time>2026-05-05T09:30:05Z</time></trkpt><trkpt lat="45.848247821865975" lon="14.624789811998195"><ele>479.0</ele><time>2026-05-05T09:30:06Z</time></trkpt><trkpt lat="45.84810433207834" lon="14.62490476215973"><ele>479.0</ele><time>2026-05-05T09:30:07Z</time></trkpt><trkpt lat="45.84796192598066" lon="14.62503204344778"><ele>479.0</ele><time>2026-05-05T09:30:08Z</time></trkpt><trkpt lat="45.84781224242362" lon="14.62517143751782"><ele>479.0</ele><time>2026-05-05T09:30:09Z</time></trkpt><trkpt lat="45.847655036819084" lon="14.625320695911963"><ele>481.0</ele><time>2026-05-05T09:30:10Z</time></trkpt><trkpt lat="45.8474943063909" lon="14.625479284650332"><ele>483.0</ele><time>2026-05-05T09:30:11Z</time></trkpt><trkpt lat="45.84733870744016" lon="14.625647318917698"><ele>485.0</ele><time>2026-05-05T09:30:12Z</time></trkpt><trkpt lat="45.84719487286724" lon="14.625819400487972"><ele>485.0</ele><time>2026-05-05T09:30:13Z</time></trkpt><trkpt lat="45.847058524597124" lon="14.626005531243749"><ele>485.0</ele><time>2026-05-05T09:30:14Z</time></trkpt><trkpt lat="45.846929872751794" lon="14.626203918824705"><ele>485.0</ele><time>2026-05-05T09:30:15Z</time></trkpt><trkpt lat="45.846810151061135" lon="14.626411760356682"><ele>485.0</ele><time>2026-05-05T09:30:16Z</time></trkpt><trkpt lat="45.84669845869855" lon="14.626631122656898"><ele>485.0</ele><time>2026-05-05T09:30:17Z</time></trkpt><trkpt lat="45.84659382572567" lon="14.626860475161227"><ele>485.0</ele><time>2026-05-05T09:30:18Z</time></trkpt><trkpt lat="45.84650023082841" lon="14.627091954715986"><ele>488.0</ele><time>2026-05-05T09:30:19Z</time></trkpt><trkpt lat="45.84640720331593" lon="14.627330117801598"><ele>491.0</ele><time>2026-05-05T09:30:20Z</time></trkpt><trkpt lat="45.84630301843876" lon="14.627564745125309"><ele>494.0</ele><time>2026-05-05T09:30:21Z</time></trkpt><trkpt lat="45.84618788042808" lon="14.627797278400863"><ele>493.3333333333333</ele><time>2026-05-05T09:30:22Z</time></trkpt><trkpt lat="45.846068714125" lon="14.6280238274814"><ele>492.66666666666663</ele><time>2026-05-05T09:30:23Z</time></trkpt><trkpt lat="45.84592700419589" lon="14.628246661656192"><ele>492.0</ele><time>2026-05-05T09:30:24Z</time></trkpt><trkpt lat="45.845765597685904" lon="14.628460038909246"><ele>493.33333333333337</ele><time>2026-05-05T09:30:25Z</time></trkpt><trkpt lat="45.84559178938336" lon="14.628654712860724"><ele>494.6666666666667</ele><time>2026-05-05T09:30:26Z</time></trkpt><trkpt lat="45.84541415774509" lon="14.628834403828382"><ele>496.0</ele><time>2026-05-05T09:30:27Z</time></trkpt><trkpt lat="45.84523243731923" lon="14.62901109874807"><ele>495.33333333333337</ele><time>2026-05-05T09:30:28Z</time></trkpt><trkpt lat="45.84505236319732" lon="14.629168924195032"><ele>494.66666666666663</ele><time>2026-05-05T09:30:29Z</time></trkpt><trkpt lat="45.84487227378683" lon="14.629317036747086"><ele>494.0</ele><time>2026-05-05T09:30:30Z</time></trkpt><trkpt lat="45.844692434233444" lon="14.629458415932888"><ele>496.0</ele><time>2026-05-05T09:30:31Z</time></trkpt><trkpt lat="45.84451446723797" lon="14.629585970762472"><ele>498.0</ele><time>2026-05-05T09:30:32Z</time></trkpt><trkpt lat="45.84433822846335" lon="14.62970610166888"><ele>500.0</ele><time>2026-05-05T09:30:33Z</time></trkpt><trkpt lat="45.84415822877968" lon="14.629823900850782"><ele>502.0</ele><time>2026-05-05T09:30:34Z</time></trkpt><trkpt lat="45.84398052378782" lon="14.629940071464787"><ele>504.0</ele><time>2026-05-05T09:30:35Z</time></trkpt><trkpt lat="45.843804268458136" lon="14.630060191679021"><ele>506.0</ele><time>2026-05-05T09:30:36Z</time></trkpt><trkpt lat="45.843636009275876" lon="14.63018173472546"><ele>507.0</ele><time>2026-05-05T09:30:37Z</time></trkpt><trkpt lat="45.84347506412211" lon="14.630313793165222"><ele>508.0</ele><time>2026-05-05T09:30:38Z</time></trkpt><trkpt lat="45.843327588083945" lon="14.630454799306097"><ele>509.0</ele><time>2026-05-05T09:30:39Z</time></trkpt><trkpt lat="45.843190131940304" lon="14.63058941377369"><ele>510.3333333333333</ele><time>2026-05-05T09:30:40Z</time></trkpt><trkpt lat="45.84305541360845" lon="14.630721038496837"><ele>511.66666666666663</ele><time>2026-05-05T09:30:41Z</time></trkpt><trkpt lat="45.84292260087491" lon="14.63084786668649"><ele>513.0</ele><time>2026-05-05T09:30:42Z</time></trkpt><trkpt lat="45.842788311877605" lon="14.630982889429953"><ele>513.0</ele><time>2026-05-05T09:30:43Z</time></trkpt><trkpt lat="45.84264515742271" lon="14.631125608001994"><ele>513.0</ele><time>2026-05-05T09:30:44Z</time></trkpt><trkpt lat="45.84250061737421" lon="14.63126584618906"><ele>513.0</ele><time>2026-05-05T09:30:45Z</time></trkpt><trkpt lat="45.84234941157931" lon="14.631412172754649"><ele>512.0</ele><time>2026-05-05T09:30:46Z</time></trkpt><trkpt lat="45.8421966414381" lon="14.63155735701868"><ele>511.0</ele><time>2026-05-05T09:30:47Z</time></trkpt><trkpt lat="45.84203755815392" lon="14.631703045769683"><ele>510.0</ele><time>2026-05-05T09:30:48Z</time></trkpt><trkpt lat="45.84187333140369" lon="14.631846619517562"><ele>508.33333333333337</ele><time>2026-05-05T09:30:49Z</time></trkpt><trkpt lat="45.8417030737215" lon="14.631981493490198"><ele>506.6666666666667</ele><time>2026-05-05T09:30:50Z</time></trkpt><trkpt lat="45.84152587476117" lon="14.632111074833984"><ele>505.0</ele><time>2026-05-05T09:30:51Z</time></trkpt><trkpt lat="45.84134257901499" lon="14.632238343434642"><ele>505.0</ele><time>2026-05-05T09:30:52Z</time></trkpt><trkpt lat="45.84116337146324" lon="14.632358919126423"><ele>505.0</ele><time>2026-05-05T09:30:53Z</time></trkpt><trkpt lat="45.840982036852246" lon="14.632476013706842"><ele>505.0</ele><time>2026-05-05T09:30:54Z</time></trkpt><trkpt lat="45.84079456414635" lon="14.632595174394199"><ele>505.6666666666667</ele><time>2026-05-05T09:30:55Z</time></trkpt><trkpt lat="45.84059679795647" lon="14.632711753460132"><ele>506.33333333333337</ele><time>2026-05-05T09:30:56Z</time></trkpt><trkpt lat="45.84038650003008" lon="14.632829416229383"><ele>507.0</ele><time>2026-05-05T09:30:57Z</time></trkpt><trkpt lat="45.84017242501604" lon="14.63294581426267"><ele>505.5</ele><time>2026-05-05T09:30:58Z</time></trkpt><trkpt lat="45.839954430942996" lon="14.633058953142758"><ele>504.0</ele><time>2026-05-05T09:30:59Z</time></trkpt><trkpt lat="45.83973473217901" lon="14.633171071625297"><ele>504.0</ele><time>2026-05-05T09:31:00Z</time></trkpt><trkpt lat="45.839513773885415" lon="14.633278303726795"><ele>504.0</ele><time>2026-05-05T09:31:01Z</time></trkpt><trkpt lat="45.83929382064434" lon="14.63337578915402"><ele>504.0</ele><time>2026-05-05T09:31:02Z</time></trkpt><trkpt lat="45.83907456929477" lon="14.633476727088974"><ele>504.0</ele><time>2026-05-05T09:31:03Z</time></trkpt><trkpt lat="45.83885639515382" lon="14.633578898683572"><ele>504.0</ele><time>2026-05-05T09:31:04Z</time></trkpt><trkpt lat="45.83864105113851" lon="14.633678216152258"><ele>504.0</ele><time>2026-05-05T09:31:05Z</time></trkpt><trkpt lat="45.83842959629083" lon="14.633776695085531"><ele>504.0</ele><time>2026-05-05T09:31:06Z</time></trkpt><trkpt lat="45.83822174968254" lon="14.633875511480797"><ele>505.33333333333337</ele><time>2026-05-05T09:31:07Z</time></trkpt><trkpt lat="45.83801351867392" lon="14.633972700259438"><ele>506.6666666666667</ele><time>2026-05-05T09:31:08Z</time></trkpt><trkpt lat="45.83780531459331" lon="14.634068575002406"><ele>508.0</ele><time>2026-05-05T09:31:09Z</time></trkpt><trkpt lat="45.83759622578618" lon="14.634169107099284"><ele>508.6666666666667</ele><time>2026-05-05T09:31:10Z</time></trkpt><trkpt lat="45.83738896384133" lon="14.634273630162376"><ele>509.33333333333337</ele><time>2026-05-05T09:31:11Z</time></trkpt><trkpt lat="45.83717775890795" lon="14.634389778420394"><ele>510.0</ele><time>2026-05-05T09:31:12Z</time></trkpt><trkpt lat="45.836966107536036" lon="14.63451290692463"><ele>513.0</ele><time>2026-05-05T09:31:13Z</time></trkpt><trkpt lat="45.836755909780656" lon="14.634640428507113"><ele>516.0</ele><time>2026-05-05T09:31:14Z</time></trkpt><trkpt lat="45.83654613915337" lon="14.634774401433006"><ele>516.0</ele><time>2026-05-05T09:31:15Z</time></trkpt><trkpt lat="45.83634114526352" lon="14.63492094896971"><ele>516.0</ele><time>2026-05-05T09:31:16Z</time></trkpt><trkpt lat="45.83614225198759" lon="14.63507805738385"><ele>518.0</ele><time>2026-05-05T09:31:17Z</time></trkpt><trkpt lat="45.835964352292514" lon="14.635235889273515"><ele>520.0</ele><time>2026-05-05T09:31:18Z</time></trkpt><trkpt lat="45.83581082114165" lon="14.63538950118883"><ele>522.0</ele><time>2026-05-05T09:31:19Z</time></trkpt><trkpt lat="45.835674644901346" lon="14.635543692244728"><ele>522.25</ele><time>2026-05-05T09:31:20Z</time></trkpt><trkpt lat="45.83555194292839" lon="14.635688200236915"><ele>522.5</ele><time>2026-05-05T09:31:21Z</time></trkpt><trkpt lat="45.83543720707131" lon="14.635812947855113"><ele>522.75</ele><time>2026-05-05T09:31:22Z</time></trkpt><trkpt lat="45.83533861906306" lon="14.635925473280047"><ele>523.0</ele><time>2026-05-05T09:31:23Z</time></trkpt><trkpt lat="45.835248553489436" lon="14.636041776438121"><ele>523.5</ele><time>2026-05-05T09:31:24Z</time></trkpt><trkpt lat="45.83515998085805" lon="14.636165506789968"><ele>524.0</ele><time>2026-05-05T09:31:25Z</time></trkpt><trkpt lat="45.83507168297933" lon="14.636280094582702"><ele>524.5</ele><time>2026-05-05T09:31:26Z</time></trkpt><trkpt lat="45.834982466418055" lon="14.636384876885376"><ele>525.0</ele><time>2026-05-05T09:31:27Z</time></trkpt><trkpt lat="45.83488912163733" lon="14.636458538037033"><ele>526.2</ele><time>2026-05-05T09:31:28Z</time></trkpt><trkpt lat="45.83478839728323" lon="14.63651281355221"><ele>527.4</ele><time>2026-05-05T09:31:29Z</time></trkpt><trkpt lat="45.834677408167735" lon="14.636539422434725"><ele>528.6</ele><time>2026-05-05T09:31:30Z</time></trkpt><trkpt lat="45.83456676443631" lon="14.636566054868727"><ele>529.8</ele><time>2026-05-05T09:31:31Z</time></trkpt><trkpt lat="45.83445520318045" lon="14.63657953796967"><ele>531.0</ele><time>2026-05-05T09:31:32Z</time></trkpt><trkpt lat="45.83434250495352" lon="14.636575741584197"><ele>531.8333333333334</ele><time>2026-05-05T09:31:33Z</time></trkpt><trkpt lat="45.83424063597594" lon="14.636560700062894"><ele>532.6666666666666</ele><time>2026-05-05T09:31:34Z</time></trkpt><trkpt lat="45.83416129320813" lon="14.636550635989705"><ele>533.5</ele><time>2026-05-05T09:31:35Z</time></trkpt><trkpt lat="45.83409842682343" lon="14.63653845015806"><ele>534.3333333333333</ele><time>2026-05-05T09:31:36Z</time></trkpt><trkpt lat="45.83397851168759" lon="14.636496640333704"><ele>535.1666666666666</ele><time>2026-05-05T09:31:38Z</time></trkpt><trkpt lat="45.83391561258533" lon="14.636462043844489"><ele>536.0</ele><time>2026-05-05T09:31:39Z</time></trkpt><trkpt lat="45.83385096068531" lon="14.636421926189067"><ele>536.0</ele><time>2026-05-05T09:31:40Z</time></trkpt><trkpt lat="45.83378495448906" lon="14.636371133440585"><ele>536.0</ele><time>2026-05-05T09:31:41Z</time></trkpt><trkpt lat="45.83371946766625" lon="14.636309421634488"><ele>536.0</ele><time>2026-05-05T09:31:42Z</time></trkpt><trkpt lat="45.83365804200148" lon="14.63623689433384"><ele>536.0</ele><time>2026-05-05T09:31:43Z</time></trkpt><trkpt lat="45.8335864924014" lon="14.636176361974561"><ele>536.0</ele><time>2026-05-05T09:31:44Z</time></trkpt><trkpt lat="45.833497299915074" lon="14.636134844685378"><ele>536.0</ele><time>2026-05-05T09:31:45Z</time></trkpt><trkpt lat="45.83341077755845" lon="14.636098245547046"><ele>536.6</ele><time>2026-05-05T09:31:46Z</time></trkpt><trkpt lat="45.833321880815156" lon="14.636044498127614"><ele>537.2</ele><time>2026-05-05T09:31:47Z</time></trkpt><trkpt lat="45.83322894821429" lon="14.636003790906114"><ele>537.8</ele><time>2026-05-05T09:31:48Z</time></trkpt><trkpt lat="45.83312743161356" lon="14.635957438433666"><ele>538.4</ele><time>2026-05-05T09:31:49Z</time></trkpt><trkpt lat="45.833015534301225" lon="14.63590214966845"><ele>539.0</ele><time>2026-05-05T09:31:50Z</time></trkpt><trkpt lat="45.832889316256235" lon="14.635847810171414"><ele>539.0</ele><time>2026-05-05T09:31:51Z</time></trkpt><trkpt lat="45.832757553871325" lon="14.635792019040837"><ele>539.0</ele><time>2026-05-05T09:31:52Z</time></trkpt><trkpt lat="45.832626949247256" lon="14.635736696076755"><ele>539.0</ele><time>2026-05-05T09:31:53Z</time></trkpt><trkpt lat="45.832487325583756" lon="14.635674732027464"><ele>539.0</ele><time>2026-05-05T09:31:54Z</time></trkpt><trkpt lat="45.832344004306215" lon="14.635619047730888"><ele>537.25</ele><time>2026-05-05T09:31:55Z</time></trkpt><trkpt lat="45.83219246973265" lon="14.635568090813175"><ele>535.5</ele><time>2026-05-05T09:31:56Z</time></trkpt><trkpt lat="45.83204196164121" lon="14.63554965635154"><ele>533.75</ele><time>2026-05-05T09:31:57Z</time></trkpt><trkpt lat="45.83190136317958" lon="14.63556182773373"><ele>532.0</ele><time>2026-05-05T09:31:58Z</time></trkpt><trkpt lat="45.831759570728465" lon="14.635597412602452"><ele>530.5</ele><time>2026-05-05T09:31:59Z</time></trkpt><trkpt lat="45.831625251343" lon="14.635655504271245"><ele>529.0</ele><time>2026-05-05T09:32:00Z</time></trkpt><trkpt lat="45.831499482506075" lon="14.635733628253925"><ele>527.5</ele><time>2026-05-05T09:32:01Z</time></trkpt><trkpt lat="45.83138360670654" lon="14.635817776932162"><ele>526.0</ele><time>2026-05-05T09:32:02Z</time></trkpt><trkpt lat="45.83126848739204" lon="14.63585546463029"><ele>526.0</ele><time>2026-05-05T09:32:03Z</time></trkpt><trkpt lat="45.831173151325196" lon="14.635760681499347"><ele>526.0</ele><time>2026-05-05T09:32:04Z</time></trkpt><trkpt lat="45.83105680890979" lon="14.63572806614246"><ele>526.0</ele><time>2026-05-05T09:32:05Z</time></trkpt><trkpt lat="45.8309389985082" lon="14.635749184210257"><ele>526.0</ele><time>2026-05-05T09:32:06Z</time></trkpt><trkpt lat="45.83081732728196" lon="14.635772545105587"><ele>525.25</ele><time>2026-05-05T09:32:07Z</time></trkpt><trkpt lat="45.83068404811431" lon="14.635809376286643"><ele>524.5</ele><time>2026-05-05T09:32:08Z</time></trkpt><trkpt lat="45.83054701116312" lon="14.635863570461952"><ele>523.75</ele><time>2026-05-05T09:32:09Z</time></trkpt><trkpt lat="45.830403290079495" lon="14.635939582668325"><ele>523.0</ele><time>2026-05-05T09:32:10Z</time></trkpt><trkpt lat="45.83025664030364" lon="14.636048994682847"><ele>522.6666666666667</ele><time>2026-05-05T09:32:11Z</time></trkpt><trkpt lat="45.83012112450063" lon="14.636207065541306"><ele>522.3333333333334</ele><time>2026-05-05T09:32:12Z</time></trkpt><trkpt lat="45.830005001205755" lon="14.636397835232152"><ele>522.0</ele><time>2026-05-05T09:32:13Z</time></trkpt><trkpt lat="45.829902619299546" lon="14.636616182122628"><ele>522.0</ele><time>2026-05-05T09:32:14Z</time></trkpt><trkpt lat="45.82980025290751" lon="14.636824209793001"><ele>522.0</ele><time>2026-05-05T09:32:15Z</time></trkpt><trkpt lat="45.82967624307184" lon="14.636962069538866"><ele>522.0</ele><time>2026-05-05T09:32:16Z</time></trkpt><trkpt lat="45.82954523640363" lon="14.637047119339229"><ele>521.5</ele><time>2026-05-05T09:32:17Z</time></trkpt><trkpt lat="45.82941528656991" lon="14.637053168884137"><ele>521.0</ele><time>2026-05-05T09:32:18Z</time></trkpt><trkpt lat="45.82928632228028" lon="14.637053664107178"><ele>520.5</ele><time>2026-05-05T09:32:19Z</time></trkpt><trkpt lat="45.82913984623718" lon="14.636993474023361"><ele>520.0</ele><time>2026-05-05T09:32:20Z</time></trkpt><trkpt lat="45.828985581006336" lon="14.636923710362526"><ele>521.0</ele><time>2026-05-05T09:32:21Z</time></trkpt><trkpt lat="45.82882033414884" lon="14.636849324997339"><ele>522.0</ele><time>2026-05-05T09:32:22Z</time></trkpt><trkpt lat="45.828639774773045" lon="14.636777953597909"><ele>523.0</ele><time>2026-05-05T09:32:23Z</time></trkpt><trkpt lat="45.82844319529397" lon="14.636706347372039"><ele>523.0</ele><time>2026-05-05T09:32:24Z</time></trkpt><trkpt lat="45.82823413459615" lon="14.636640189465924"><ele>523.0</ele><time>2026-05-05T09:32:25Z</time></trkpt><trkpt lat="45.82801555879378" lon="14.636565703704"><ele>523.0</ele><time>2026-05-05T09:32:26Z</time></trkpt><trkpt lat="45.827789970450056" lon="14.636481525956334"><ele>521.5</ele><time>2026-05-05T09:32:27Z</time></trkpt><trkpt lat="45.82755116191837" lon="14.636386346030491"><ele>520.0</ele><time>2026-05-05T09:32:28Z</time></trkpt><trkpt lat="45.827308546263566" lon="14.636289680004074"><ele>520.0</ele><time>2026-05-05T09:32:29Z</time></trkpt><trkpt lat="45.827071075137695" lon="14.636195849266802"><ele>520.0</ele><time>2026-05-05T09:32:30Z</time></trkpt><trkpt lat="45.82683950145527" lon="14.636102307522043"><ele>524.0</ele><time>2026-05-05T09:32:31Z</time></trkpt><trkpt lat="45.82662364598061" lon="14.636012933251928"><ele>528.0</ele><time>2026-05-05T09:32:32Z</time></trkpt><trkpt lat="45.826420695294104" lon="14.635898112163021"><ele>532.0</ele><time>2026-05-05T09:32:33Z</time></trkpt><trkpt lat="45.826238290087716" lon="14.63575170102027"><ele>532.0</ele><time>2026-05-05T09:32:34Z</time></trkpt><trkpt lat="45.826087713930605" lon="14.635571284441424"><ele>532.0</ele><time>2026-05-05T09:32:35Z</time></trkpt><trkpt lat="45.82594346855504" lon="14.635391010079037"><ele>532.0</ele><time>2026-05-05T09:32:36Z</time></trkpt><trkpt lat="45.825835012700395" lon="14.635176545954524"><ele>531.3333333333334</ele><time>2026-05-05T09:32:37Z</time></trkpt><trkpt lat="45.825731412348155" lon="14.63493960998175"><ele>530.6666666666666</ele><time>2026-05-05T09:32:38Z</time></trkpt><trkpt lat="45.825637279790165" lon="14.634705530174557"><ele>530.0</ele><time>2026-05-05T09:32:39Z</time></trkpt><trkpt lat="45.8256010618316" lon="14.63443580703071"><ele>532.6666666666666</ele><time>2026-05-05T09:32:40Z</time></trkpt><trkpt lat="45.82556229284041" lon="14.634179625339451"><ele>535.3333333333334</ele><time>2026-05-05T09:32:41Z</time></trkpt><trkpt lat="45.82551928580663" lon="14.633919393557523"><ele>538.0</ele><time>2026-05-05T09:32:42Z</time></trkpt><trkpt lat="45.825487873025416" lon="14.633654838827741"><ele>540.3333333333334</ele><time>2026-05-05T09:32:43Z</time></trkpt><trkpt lat="45.825449235267605" lon="14.633407418010123"><ele>542.6666666666666</ele><time>2026-05-05T09:32:44Z</time></trkpt><trkpt lat="45.82540636679918" lon="14.633154277892633"><ele>545.0</ele><time>2026-05-05T09:32:45Z</time></trkpt><trkpt lat="45.825351406908716" lon="14.632890459300913"><ele>546.6666666666666</ele><time>2026-05-05T09:32:46Z</time></trkpt><trkpt lat="45.82527564320989" lon="14.632632011387404"><ele>548.3333333333334</ele><time>2026-05-05T09:32:47Z</time></trkpt><trkpt lat="45.82518481020892" lon="14.632363753794012"><ele>550.0</ele><time>2026-05-05T09:32:48Z</time></trkpt><trkpt lat="45.82508442039223" lon="14.632101713660932"><ele>545.0</ele><time>2026-05-05T09:32:49Z</time></trkpt><trkpt lat="45.82496943726127" lon="14.631846874941054"><ele>540.0</ele><time>2026-05-05T09:32:50Z</time></trkpt><trkpt lat="45.824853615749966" lon="14.631618715312513"><ele>535.0</ele><time>2026-05-05T09:32:51Z</time></trkpt><trkpt lat="45.82472028927741" lon="14.631412541857356"><ele>535.0</ele><time>2026-05-05T09:32:52Z</time></trkpt><trkpt lat="45.82456055046406" lon="14.631200263098775"><ele>535.0</ele><time>2026-05-05T09:32:53Z</time></trkpt><trkpt lat="45.82437849411347" lon="14.630978263081994"><ele>531.5</ele><time>2026-05-05T09:32:54Z</time></trkpt><trkpt lat="45.8241918164014" lon="14.630742485243422"><ele>528.0</ele><time>2026-05-05T09:32:55Z</time></trkpt><trkpt lat="45.82405250061385" lon="14.63048209812052"><ele>532.3333333333334</ele><time>2026-05-05T09:32:56Z</time></trkpt><trkpt lat="45.82395492817298" lon="14.630233551070559"><ele>536.6666666666667</ele><time>2026-05-05T09:32:57Z</time></trkpt><trkpt lat="45.8239115970698" lon="14.62998279517016"><ele>541.0</ele><time>2026-05-05T09:32:58Z</time></trkpt><trkpt lat="45.823891062415164" lon="14.629695158485438"><ele>541.5</ele><time>2026-05-05T09:32:59Z</time></trkpt><trkpt lat="45.823860202839484" lon="14.629358685645377"><ele>542.0</ele><time>2026-05-05T09:33:00Z</time></trkpt><trkpt lat="45.823850437930304" lon="14.628992899171203"><ele>542.0</ele><time>2026-05-05T09:33:01Z</time></trkpt><trkpt lat="45.82383371576446" lon="14.628673204098122"><ele>542.0</ele><time>2026-05-05T09:33:02Z</time></trkpt><trkpt lat="45.823803173077906" lon="14.628411637649315"><ele>542.0</ele><time>2026-05-05T09:33:03Z</time></trkpt><trkpt lat="45.82374478471326" lon="14.62819754772054"><ele>540.6666666666666</ele><time>2026-05-05T09:33:04Z</time></trkpt><trkpt lat="45.82364033925722" lon="14.628003254510986"><ele>539.3333333333334</ele><time>2026-05-05T09:33:05Z</time></trkpt><trkpt lat="45.82350017394762" lon="14.627811536386883"><ele>538.0</ele><time>2026-05-05T09:33:06Z</time></trkpt><trkpt lat="45.823343152031136" lon="14.627615199835443"><ele>538.0</ele><time>2026-05-05T09:33:07Z</time></trkpt><trkpt lat="45.82316479062818" lon="14.627459991456353"><ele>538.0</ele><time>2026-05-05T09:33:08Z</time></trkpt><trkpt lat="45.822961640880976" lon="14.627365559673423"><ele>538.0</ele><time>2026-05-05T09:33:09Z</time></trkpt><trkpt lat="45.82274564397173" lon="14.627325975517959"><ele>545.0</ele><time>2026-05-05T09:33:10Z</time></trkpt><trkpt lat="45.822515237785375" lon="14.627313763346178"><ele>552.0</ele><time>2026-05-05T09:33:11Z</time></trkpt><trkpt lat="45.8222784182787" lon="14.62730623646246"><ele>552.0</ele><time>2026-05-05T09:33:12Z</time></trkpt><trkpt lat="45.82204958108333" lon="14.627192655629234"><ele>552.0</ele><time>2026-05-05T09:33:13Z</time></trkpt><trkpt lat="45.82181741297558" lon="14.62708507228605"><ele>547.5</ele><time>2026-05-05T09:33:14Z</time></trkpt><trkpt lat="45.82159186132227" lon="14.626985130209148"><ele>543.0</ele><time>2026-05-05T09:33:15Z</time></trkpt><trkpt lat="45.82135305209504" lon="14.626944340834793"><ele>543.0</ele><time>2026-05-05T09:33:16Z</time></trkpt><trkpt lat="45.82111259823751" lon="14.626916162422486"><ele>543.0</ele><time>2026-05-05T09:33:17Z</time></trkpt><trkpt lat="45.82087899063573" lon="14.626884315132708"><ele>544.0</ele><time>2026-05-05T09:33:18Z</time></trkpt><trkpt lat="45.820646933454185" lon="14.626847532650753"><ele>545.0</ele><time>2026-05-05T09:33:19Z</time></trkpt><trkpt lat="45.820417987076176" lon="14.626820279527395"><ele>545.0</ele><time>2026-05-05T09:33:20Z</time></trkpt><trkpt lat="45.82019387880851" lon="14.626811117945337"><ele>545.0</ele><time>2026-05-05T09:33:21Z</time></trkpt><trkpt lat="45.8199681715988" lon="14.626813424335744"><ele>546.6666666666666</ele><time>2026-05-05T09:33:22Z</time></trkpt><trkpt lat="45.81974192629988" lon="14.626828478509266"><ele>548.3333333333334</ele><time>2026-05-05T09:33:23Z</time></trkpt><trkpt lat="45.81951896060077" lon="14.626825872605197"><ele>550.0</ele><time>2026-05-05T09:33:24Z</time></trkpt><trkpt lat="45.819293694271956" lon="14.626750667156145"><ele>552.0</ele><time>2026-05-05T09:33:25Z</time></trkpt><trkpt lat="45.81906378434917" lon="14.626702879846562"><ele>554.0</ele><time>2026-05-05T09:33:26Z</time></trkpt><trkpt lat="45.81883952365687" lon="14.626631107240383"><ele>554.0</ele><time>2026-05-05T09:33:27Z</time></trkpt><trkpt lat="45.81861502047951" lon="14.62656135833667"><ele>554.0</ele><time>2026-05-05T09:33:28Z</time></trkpt><trkpt lat="45.818394329272586" lon="14.626498338140143"><ele>562.5</ele><time>2026-05-05T09:33:29Z</time></trkpt><trkpt lat="45.818173602059694" lon="14.626443665564775"><ele>571.0</ele><time>2026-05-05T09:33:30Z</time></trkpt><trkpt lat="45.817950006504" lon="14.62639180524836"><ele>571.0</ele><time>2026-05-05T09:33:31Z</time></trkpt><trkpt lat="45.8177399464824" lon="14.626335948836731"><ele>571.0</ele><time>2026-05-05T09:33:32Z</time></trkpt><trkpt lat="45.81753253241592" lon="14.626330792137765"><ele>571.0</ele><time>2026-05-05T09:33:33Z</time></trkpt><trkpt lat="45.817345744492116" lon="14.62639629565275"><ele>572.3333333333334</ele><time>2026-05-05T09:33:34Z</time></trkpt><trkpt lat="45.817159988492655" lon="14.626504331511635"><ele>573.6666666666666</ele><time>2026-05-05T09:33:35Z</time></trkpt><trkpt lat="45.81698156177821" lon="14.626642575834369"><ele>575.0</ele><time>2026-05-05T09:33:36Z</time></trkpt><trkpt lat="45.81678838897132" lon="14.626725228963341"><ele>571.3333333333333</ele><time>2026-05-05T09:33:37Z</time></trkpt><trkpt lat="45.816622680980416" lon="14.626862379576838"><ele>567.6666666666666</ele><time>2026-05-05T09:33:38Z</time></trkpt><trkpt lat="45.816434495585156" lon="14.626892985087117"><ele>564.0</ele><time>2026-05-05T09:33:39Z</time></trkpt><trkpt lat="45.81625026674951" lon="14.626870788499184"><ele>564.0</ele><time>2026-05-05T09:33:40Z</time></trkpt><trkpt lat="45.816078393605366" lon="14.62680068250907"><ele>564.0</ele><time>2026-05-05T09:33:41Z</time></trkpt><trkpt lat="45.81593060836046" lon="14.626681054642177"><ele>564.0</ele><time>2026-05-05T09:33:42Z</time></trkpt><trkpt lat="45.81578740626781" lon="14.626518945012405"><ele>565.3333333333334</ele><time>2026-05-05T09:33:43Z</time></trkpt><trkpt lat="45.815659426711385" lon="14.62633466694579"><ele>566.6666666666667</ele><time>2026-05-05T09:33:44Z</time></trkpt><trkpt lat="45.815539782409964" lon="14.626164342528972"><ele>568.0</ele><time>2026-05-05T09:33:45Z</time></trkpt><trkpt lat="45.81542020617393" lon="14.626014765201182"><ele>569.3333333333334</ele><time>2026-05-05T09:33:46Z</time></trkpt><trkpt lat="45.81527925156674" lon="14.62591009383609"><ele>570.6666666666666</ele><time>2026-05-05T09:33:47Z</time></trkpt><trkpt lat="45.81511668891567" lon="14.625820094854545"><ele>572.0</ele><time>2026-05-05T09:33:48Z</time></trkpt><trkpt lat="45.81493353544242" lon="14.625691443015368"><ele>572.0</ele><time>2026-05-05T09:33:49Z</time></trkpt><trkpt lat="45.814817325030475" lon="14.625595127404843"><ele>572.0</ele><time>2026-05-05T09:33:50Z</time></trkpt><trkpt lat="45.814706233652466" lon="14.625435855697557"><ele>572.0</ele><time>2026-05-05T09:33:51Z</time></trkpt><trkpt lat="45.8146140592521" lon="14.625248682318604"><ele>572.3333333333333</ele><time>2026-05-05T09:33:52Z</time></trkpt><trkpt lat="45.81451900288096" lon="14.625051487708957"><ele>572.6666666666666</ele><time>2026-05-05T09:33:53Z</time></trkpt><trkpt lat="45.81440712725208" lon="14.624873664953546"><ele>573.0</ele><time>2026-05-05T09:33:54Z</time></trkpt><trkpt lat="45.81427250817806" lon="14.624712914267894"><ele>573.0</ele><time>2026-05-05T09:33:55Z</time></trkpt><trkpt lat="45.81411253096482" lon="14.624576533613773"><ele>573.0</ele><time>2026-05-05T09:33:56Z</time></trkpt><trkpt lat="45.8139256492994" lon="14.62448546444905"><ele>573.0</ele><time>2026-05-05T09:33:57Z</time></trkpt><trkpt lat="45.81370683571417" lon="14.624462639502633"><ele>572.5</ele><time>2026-05-05T09:33:58Z</time></trkpt><trkpt lat="45.81346070214177" lon="14.62450576550471"><ele>572.0</ele><time>2026-05-05T09:33:59Z</time></trkpt><trkpt lat="45.81319179222351" lon="14.62458562272867"><ele>572.0</ele><time>2026-05-05T09:34:00Z</time></trkpt><trkpt lat="45.81293615445328" lon="14.624656213660773"><ele>572.0</ele><time>2026-05-05T09:34:01Z</time></trkpt><trkpt lat="45.81268899527878" lon="14.624704003896262"><ele>575.5</ele><time>2026-05-05T09:34:02Z</time></trkpt><trkpt lat="45.81246317404495" lon="14.624761706753736"><ele>579.0</ele><time>2026-05-05T09:34:03Z</time></trkpt><trkpt lat="45.81224468879067" lon="14.62488516368273"><ele>579.0</ele><time>2026-05-05T09:34:04Z</time></trkpt><trkpt lat="45.812056461274395" lon="14.625065919315396"><ele>579.0</ele><time>2026-05-05T09:34:05Z</time></trkpt><trkpt lat="45.811875986328886" lon="14.62522574286543"><ele>579.0</ele><time>2026-05-05T09:34:06Z</time></trkpt><trkpt lat="45.8116847364457" lon="14.625325077360154"><ele>579.0</ele><time>2026-05-05T09:34:07Z</time></trkpt><trkpt lat="45.811478718394" lon="14.625369629564654"><ele>579.0</ele><time>2026-05-05T09:34:08Z</time></trkpt><trkpt lat="45.811265300639405" lon="14.625397723462468"><ele>579.0</ele><time>2026-05-05T09:34:09Z</time></trkpt><trkpt lat="45.81106318847674" lon="14.62542782919909"><ele>581.3333333333334</ele><time>2026-05-05T09:34:10Z</time></trkpt><trkpt lat="45.810868752857495" lon="14.625496390215927"><ele>583.6666666666667</ele><time>2026-05-05T09:34:11Z</time></trkpt><trkpt lat="45.810694865804706" lon="14.625634614145946"><ele>586.0</ele><time>2026-05-05T09:34:12Z</time></trkpt><trkpt lat="45.81054259948814" lon="14.625848491862824"><ele>586.0</ele><time>2026-05-05T09:34:13Z</time></trkpt><trkpt lat="45.81040879587084" lon="14.626078942487316"><ele>586.0</ele><time>2026-05-05T09:34:14Z</time></trkpt><trkpt lat="45.81028293205984" lon="14.626261563730614"><ele>586.0</ele><time>2026-05-05T09:34:15Z</time></trkpt><trkpt lat="45.81013731369757" lon="14.626386108132959"><ele>586.6666666666667</ele><time>2026-05-05T09:34:16Z</time></trkpt><trkpt lat="45.80996700633868" lon="14.626449656203873"><ele>587.3333333333334</ele><time>2026-05-05T09:34:17Z</time></trkpt><trkpt lat="45.8097938202762" lon="14.626442516962566"><ele>588.0</ele><time>2026-05-05T09:34:18Z</time></trkpt><trkpt lat="45.809621949364114" lon="14.626384824751538"><ele>588.0</ele><time>2026-05-05T09:34:19Z</time></trkpt><trkpt lat="45.80946140814369" lon="14.626276467075057"><ele>588.0</ele><time>2026-05-05T09:34:20Z</time></trkpt><trkpt lat="45.80932214970843" lon="14.62613985283169"><ele>588.0</ele><time>2026-05-05T09:34:21Z</time></trkpt><trkpt lat="45.80920014137322" lon="14.625974786862262"><ele>589.3333333333334</ele><time>2026-05-05T09:34:22Z</time></trkpt><trkpt lat="45.80909153400146" lon="14.625817328512845"><ele>590.6666666666667</ele><time>2026-05-05T09:34:23Z</time></trkpt><trkpt lat="45.80897991524985" lon="14.625660936262342"><ele>592.0</ele><time>2026-05-05T09:34:24Z</time></trkpt><trkpt lat="45.808855754333685" lon="14.625511162335073"><ele>592.0</ele><time>2026-05-05T09:34:25Z</time></trkpt><trkpt lat="45.8087248197954" lon="14.625372788814724"><ele>592.0</ele><time>2026-05-05T09:34:26Z</time></trkpt><trkpt lat="45.80860419795475" lon="14.6252429694414"><ele>592.0</ele><time>2026-05-05T09:34:27Z</time></trkpt><trkpt lat="45.80851470724613" lon="14.625111205024464"><ele>592.0</ele><time>2026-05-05T09:34:28Z</time></trkpt><trkpt lat="45.80846077863295" lon="14.62496158913876"><ele>592.5</ele><time>2026-05-05T09:34:29Z</time></trkpt><trkpt lat="45.80844530998377" lon="14.62480115218608"><ele>593.0</ele><time>2026-05-05T09:34:30Z</time></trkpt><trkpt lat="45.808456565295316" lon="14.624631820003412"><ele>593.5</ele><time>2026-05-05T09:34:31Z</time></trkpt><trkpt lat="45.80850288673553" lon="14.624466301006423"><ele>594.0</ele><time>2026-05-05T09:34:32Z</time></trkpt><trkpt lat="45.80859093874005" lon="14.62432528110869"><ele>594.0</ele><time>2026-05-05T09:34:33Z</time></trkpt><trkpt lat="45.808710048835074" lon="14.624240251528878"><ele>594.0</ele><time>2026-05-05T09:34:34Z</time></trkpt><trkpt lat="45.80884454064112" lon="14.624174458839754"><ele>594.0</ele><time>2026-05-05T09:34:35Z</time></trkpt><trkpt lat="45.80897675338077" lon="14.624084040235537"><ele>594.0</ele><time>2026-05-05T09:34:36Z</time></trkpt><trkpt lat="45.80909924080492" lon="14.623947616595796"><ele>594.0</ele><time>2026-05-05T09:34:37Z</time></trkpt><trkpt lat="45.8092288189841" lon="14.623822909824067"><ele>594.0</ele><time>2026-05-05T09:34:38Z</time></trkpt><trkpt lat="45.809380932678145" lon="14.623714464689309"><ele>594.0</ele><time>2026-05-05T09:34:39Z</time></trkpt><trkpt lat="45.809533078933875" lon="14.623593243940856"><ele>593.0</ele><time>2026-05-05T09:34:40Z</time></trkpt><trkpt lat="45.809664374532694" lon="14.623435108976459"><ele>592.0</ele><time>2026-05-05T09:34:41Z</time></trkpt><trkpt lat="45.80978768279987" lon="14.623282539714197"><ele>591.0</ele><time>2026-05-05T09:34:42Z</time></trkpt><trkpt lat="45.80990172591357" lon="14.62314357141254"><ele>591.0</ele><time>2026-05-05T09:34:43Z</time></trkpt><trkpt lat="45.80998860382616" lon="14.622982679598683"><ele>591.0</ele><time>2026-05-05T09:34:44Z</time></trkpt><trkpt lat="45.810039086478135" lon="14.622785963852467"><ele>591.0</ele><time>2026-05-05T09:34:45Z</time></trkpt><trkpt lat="45.810037236988144" lon="14.622553673724191"><ele>589.0</ele><time>2026-05-05T09:34:46Z</time></trkpt><trkpt lat="45.81003497574271" lon="14.622296572974456"><ele>587.0</ele><time>2026-05-05T09:34:47Z</time></trkpt><trkpt lat="45.81008645811867" lon="14.622054722312507"><ele>585.0</ele><time>2026-05-05T09:34:48Z</time></trkpt><trkpt lat="45.810142563192" lon="14.621846625670042"><ele>585.0</ele><time>2026-05-05T09:34:49Z</time></trkpt><trkpt lat="45.810172706894186" lon="14.621666026669171"><ele>585.0</ele><time>2026-05-05T09:34:50Z</time></trkpt><trkpt lat="45.81017325369309" lon="14.621485250869585"><ele>585.0</ele><time>2026-05-05T09:34:51Z</time></trkpt><trkpt lat="45.81010027718669" lon="14.62129291938636"><ele>585.0</ele><time>2026-05-05T09:34:52Z</time></trkpt><trkpt lat="45.8099836293928" lon="14.621105244666573"><ele>587.6666666666666</ele><time>2026-05-05T09:34:53Z</time></trkpt><trkpt lat="45.80987717944641" lon="14.620917412278683"><ele>590.3333333333333</ele><time>2026-05-05T09:34:54Z</time></trkpt><trkpt lat="45.8097853619416" lon="14.620739491171307"><ele>593.0</ele><time>2026-05-05T09:34:55Z</time></trkpt><trkpt lat="45.809689064706745" lon="14.6205880900594"><ele>593.0</ele><time>2026-05-05T09:34:56Z</time></trkpt><trkpt lat="45.80956564450815" lon="14.620483055313152"><ele>593.0</ele><time>2026-05-05T09:34:57Z</time></trkpt><trkpt lat="45.80941091567805" lon="14.620459403259671"><ele>593.0</ele><time>2026-05-05T09:34:58Z</time></trkpt><trkpt lat="45.8092425461788" lon="14.620489408060344"><ele>589.6666666666666</ele><time>2026-05-05T09:34:59Z</time></trkpt><trkpt lat="45.80907502599492" lon="14.620496035824539"><ele>586.3333333333334</ele><time>2026-05-05T09:35:00Z</time></trkpt><trkpt lat="45.8088827954235" lon="14.62039123498667"><ele>583.0</ele><time>2026-05-05T09:35:01Z</time></trkpt><trkpt lat="45.808689436611886" lon="14.620359486303002"><ele>582.6666666666667</ele><time>2026-05-05T09:35:02Z</time></trkpt><trkpt lat="45.80848753954424" lon="14.620344071510464"><ele>582.3333333333334</ele><time>2026-05-05T09:35:03Z</time></trkpt><trkpt lat="45.808299611153366" lon="14.620359406127392"><ele>582.0</ele><time>2026-05-05T09:35:04Z</time></trkpt><trkpt lat="45.80813548745614" lon="14.620297738402094"><ele>582.0</ele><time>2026-05-05T09:35:05Z</time></trkpt><trkpt lat="45.80801461305813" lon="14.620153192921633"><ele>582.0</ele><time>2026-05-05T09:35:06Z</time></trkpt><trkpt lat="45.80792187855193" lon="14.619970742006178"><ele>582.0</ele><time>2026-05-05T09:35:07Z</time></trkpt><trkpt lat="45.807849795209385" lon="14.619757702097369"><ele>582.0</ele><time>2026-05-05T09:35:08Z</time></trkpt><trkpt lat="45.80781447283304" lon="14.619509456154502"><ele>582.0</ele><time>2026-05-05T09:35:09Z</time></trkpt><trkpt lat="45.80777702079857" lon="14.6192541170008"><ele>582.0</ele><time>2026-05-05T09:35:10Z</time></trkpt><trkpt lat="45.80771270255179" lon="14.6190483007347"><ele>577.0</ele><time>2026-05-05T09:35:11Z</time></trkpt><trkpt lat="45.80759980542694" lon="14.618899774140367"><ele>572.0</ele><time>2026-05-05T09:35:12Z</time></trkpt><trkpt lat="45.807439898764" lon="14.618825393480206"><ele>567.0</ele><time>2026-05-05T09:35:13Z</time></trkpt><trkpt lat="45.80726909906152" lon="14.618785336163741"><ele>567.0</ele><time>2026-05-05T09:35:14Z</time></trkpt><trkpt lat="45.80711904309995" lon="14.618720695674739"><ele>567.0</ele><time>2026-05-05T09:35:15Z</time></trkpt><trkpt lat="45.807004954383046" lon="14.618592578056937"><ele>567.0</ele><time>2026-05-05T09:35:16Z</time></trkpt><trkpt lat="45.806916167470625" lon="14.618421401897546"><ele>565.3333333333334</ele><time>2026-05-05T09:35:17Z</time></trkpt><trkpt lat="45.80685478447528" lon="14.618197956131405"><ele>563.6666666666667</ele><time>2026-05-05T09:35:18Z</time></trkpt><trkpt lat="45.80676255472808" lon="14.61800836395009"><ele>562.0</ele><time>2026-05-05T09:35:19Z</time></trkpt><trkpt lat="45.80666033808022" lon="14.617816270943663"><ele>562.0</ele><time>2026-05-05T09:35:20Z</time></trkpt><trkpt lat="45.806563759456004" lon="14.617605355547063"><ele>562.0</ele><time>2026-05-05T09:35:21Z</time></trkpt><trkpt lat="45.8064892931095" lon="14.61737378834476"><ele>562.0</ele><time>2026-05-05T09:35:22Z</time></trkpt><trkpt lat="45.80645763627402" lon="14.617111623566657"><ele>560.6666666666667</ele><time>2026-05-05T09:35:23Z</time></trkpt><trkpt lat="45.80638578009956" lon="14.616878448435358"><ele>559.3333333333334</ele><time>2026-05-05T09:35:24Z</time></trkpt><trkpt lat="45.80631550462427" lon="14.616663338188193"><ele>558.0</ele><time>2026-05-05T09:35:25Z</time></trkpt><trkpt lat="45.806284905958556" lon="14.616444056626241"><ele>558.0</ele><time>2026-05-05T09:35:26Z</time></trkpt><trkpt lat="45.80631897697665" lon="14.616252150260925"><ele>558.0</ele><time>2026-05-05T09:35:27Z</time></trkpt><trkpt lat="45.80641328602572" lon="14.61609424867734"><ele>558.0</ele><time>2026-05-05T09:35:28Z</time></trkpt><trkpt lat="45.806520607335536" lon="14.615937575677789"><ele>558.0</ele><time>2026-05-05T09:35:29Z</time></trkpt><trkpt lat="45.80661950340736" lon="14.615761002476209"><ele>554.6666666666666</ele><time>2026-05-05T09:35:30Z</time></trkpt><trkpt lat="45.80668072212771" lon="14.615551366825095"><ele>551.3333333333333</ele><time>2026-05-05T09:35:31Z</time></trkpt><trkpt lat="45.80670917288326" lon="14.61533423362211"><ele>548.0</ele><time>2026-05-05T09:35:32Z</time></trkpt><trkpt lat="45.80676654286339" lon="14.615149151786316"><ele>544.5</ele><time>2026-05-05T09:35:33Z</time></trkpt><trkpt lat="45.80687148302405" lon="14.615028153249265"><ele>541.0</ele><time>2026-05-05T09:35:34Z</time></trkpt><trkpt lat="45.80700294558587" lon="14.614946199884887"><ele>537.5</ele><time>2026-05-05T09:35:35Z</time></trkpt><trkpt lat="45.80714948503918" lon="14.614911921427124"><ele>534.0</ele><time>2026-05-05T09:35:36Z</time></trkpt><trkpt lat="45.807308103698354" lon="14.614875745537732"><ele>534.0</ele><time>2026-05-05T09:35:37Z</time></trkpt><trkpt lat="45.80745748038897" lon="14.614848628404685"><ele>534.0</ele><time>2026-05-05T09:35:38Z</time></trkpt><trkpt lat="45.80758897562513" lon="14.614738627436063"><ele>534.0</ele><time>2026-05-05T09:35:39Z</time></trkpt><trkpt lat="45.80768345428958" lon="14.61454583173454"><ele>534.0</ele><time>2026-05-05T09:35:40Z</time></trkpt><trkpt lat="45.80774193145915" lon="14.614319382853626"><ele>534.0</ele><time>2026-05-05T09:35:41Z</time></trkpt><trkpt lat="45.80774893159701" lon="14.614071018027103"><ele>534.0</ele><time>2026-05-05T09:35:42Z</time></trkpt><trkpt lat="45.8077226244182" lon="14.613815844409633"><ele>532.3333333333334</ele><time>2026-05-05T09:35:43Z</time></trkpt><trkpt lat="45.80770743330591" lon="14.61354696481774"><ele>530.6666666666667</ele><time>2026-05-05T09:35:44Z</time></trkpt><trkpt lat="45.80777021228561" lon="14.613289264477098"><ele>529.0</ele><time>2026-05-05T09:35:45Z</time></trkpt><trkpt lat="45.80785450218664" lon="14.613048081983095"><ele>527.3333333333334</ele><time>2026-05-05T09:35:46Z</time></trkpt><trkpt lat="45.80796335932762" lon="14.612822584903526"><ele>525.6666666666666</ele><time>2026-05-05T09:35:47Z</time></trkpt><trkpt lat="45.8080713825065" lon="14.612584668244256"><ele>524.0</ele><time>2026-05-05T09:35:48Z</time></trkpt><trkpt lat="45.80819035090697" lon="14.61235433889392"><ele>524.0</ele><time>2026-05-05T09:35:49Z</time></trkpt><trkpt lat="45.8083018299166" lon="14.612132652849324"><ele>524.0</ele><time>2026-05-05T09:35:50Z</time></trkpt><trkpt lat="45.80842996558285" lon="14.611968033818526"><ele>524.0</ele><time>2026-05-05T09:35:51Z</time></trkpt><trkpt lat="45.80856058362946" lon="14.611833446526035"><ele>522.75</ele><time>2026-05-05T09:35:52Z</time></trkpt><trkpt lat="45.808692434256" lon="14.611741492049793"><ele>521.5</ele><time>2026-05-05T09:35:53Z</time></trkpt><trkpt lat="45.808793810608755" lon="14.611617013541617"><ele>520.25</ele><time>2026-05-05T09:35:54Z</time></trkpt><trkpt lat="45.808866148549306" lon="14.611465021400313"><ele>519.0</ele><time>2026-05-05T09:35:55Z</time></trkpt><trkpt lat="45.80889177882759" lon="14.611256147550456"><ele>517.3333333333334</ele><time>2026-05-05T09:35:56Z</time></trkpt><trkpt lat="45.80887524469035" lon="14.611022670857917"><ele>515.6666666666667</ele><time>2026-05-05T09:35:57Z</time></trkpt><trkpt lat="45.80882395434548" lon="14.610767675990003"><ele>514.0</ele><time>2026-05-05T09:35:58Z</time></trkpt><trkpt lat="45.80876337814992" lon="14.610506964741706"><ele>514.3333333333334</ele><time>2026-05-05T09:35:59Z</time></trkpt><trkpt lat="45.808742106194586" lon="14.61022663607258"><ele>514.6666666666666</ele><time>2026-05-05T09:36:00Z</time></trkpt><trkpt lat="45.808717248216226" lon="14.609945825366712"><ele>515.0</ele><time>2026-05-05T09:36:01Z</time></trkpt><trkpt lat="45.80871585690667" lon="14.609664105877766"><ele>515.6666666666666</ele><time>2026-05-05T09:36:02Z</time></trkpt><trkpt lat="45.80874333575113" lon="14.609391093323996"><ele>516.3333333333334</ele><time>2026-05-05T09:36:03Z</time></trkpt><trkpt lat="45.80879833739883" lon="14.609141800208581"><ele>517.0</ele><time>2026-05-05T09:36:04Z</time></trkpt><trkpt lat="45.80887020621984" lon="14.608913766506744"><ele>517.0</ele><time>2026-05-05T09:36:05Z</time></trkpt><trkpt lat="45.80893928262345" lon="14.608691316993106"><ele>517.0</ele><time>2026-05-05T09:36:06Z</time></trkpt><trkpt lat="45.80904974090336" lon="14.608522737492228"><ele>517.0</ele><time>2026-05-05T09:36:07Z</time></trkpt><trkpt lat="45.80914149521241" lon="14.608359402105316"><ele>517.0</ele><time>2026-05-05T09:36:08Z</time></trkpt><trkpt lat="45.809240526189306" lon="14.608229212396381"><ele>517.0</ele><time>2026-05-05T09:36:09Z</time></trkpt><trkpt lat="45.80930970941392" lon="14.608087041371453"><ele>517.0</ele><time>2026-05-05T09:36:10Z</time></trkpt><trkpt lat="45.8093397733498" lon="14.60790992483031"><ele>517.0</ele><time>2026-05-05T09:36:11Z</time></trkpt><trkpt lat="45.809353414917176" lon="14.607718550077802"><ele>516.3333333333334</ele><time>2026-05-05T09:36:12Z</time></trkpt><trkpt lat="45.80933812416891" lon="14.607518078066374"><ele>515.6666666666666</ele><time>2026-05-05T09:36:13Z</time></trkpt><trkpt lat="45.80927481475821" lon="14.607310034717926"><ele>515.0</ele><time>2026-05-05T09:36:14Z</time></trkpt><trkpt lat="45.80917294782378" lon="14.607110318270157"><ele>514.6666666666666</ele><time>2026-05-05T09:36:15Z</time></trkpt><trkpt lat="45.80905448049912" lon="14.606905821054267"><ele>514.3333333333334</ele><time>2026-05-05T09:36:16Z</time></trkpt><trkpt lat="45.808939692370174" lon="14.606692536219082"><ele>514.0</ele><time>2026-05-05T09:36:17Z</time></trkpt><trkpt lat="45.80884146544419" lon="14.606484267733782"><ele>514.0</ele><time>2026-05-05T09:36:18Z</time></trkpt><trkpt lat="45.80874761710321" lon="14.606284234311577"><ele>514.0</ele><time>2026-05-05T09:36:19Z</time></trkpt><trkpt lat="45.80865819387105" lon="14.606096714752901"><ele>514.0</ele><time>2026-05-05T09:36:20Z</time></trkpt><trkpt lat="45.80857860320744" lon="14.60592749691835"><ele>514.4</ele><time>2026-05-05T09:36:21Z</time></trkpt><trkpt lat="45.808511344946034" lon="14.605779994592854"><ele>514.8</ele><time>2026-05-05T09:36:22Z</time></trkpt><trkpt lat="45.80845120165256" lon="14.605644784304843"><ele>515.2</ele><time>2026-05-05T09:36:23Z</time></trkpt><trkpt lat="45.80839291662059" lon="14.60551883864282"><ele>515.6</ele><time>2026-05-05T09:36:24Z</time></trkpt><trkpt lat="45.80833741043573" lon="14.605399924131222"><ele>516.0</ele><time>2026-05-05T09:36:25Z</time></trkpt><trkpt lat="45.80827690518873" lon="14.605273851705608"><ele>518.0</ele><time>2026-05-05T09:36:26Z</time></trkpt><trkpt lat="45.80821454790547" lon="14.605141249907328"><ele>520.0</ele><time>2026-05-05T09:36:27Z</time></trkpt><trkpt lat="45.808141359745264" lon="14.605010200899974"><ele>522.0</ele><time>2026-05-05T09:36:28Z</time></trkpt><trkpt lat="45.8080510533143" lon="14.604893490197746"><ele>524.0</ele><time>2026-05-05T09:36:29Z</time></trkpt><trkpt lat="45.80794280898063" lon="14.60479372740279"><ele>524.0</ele><time>2026-05-05T09:36:30Z</time></trkpt><trkpt lat="45.807828797030545" lon="14.604700773324625"><ele>524.0</ele><time>2026-05-05T09:36:31Z</time></trkpt><trkpt lat="45.807710374867966" lon="14.60461968173189"><ele>524.0</ele><time>2026-05-05T09:36:32Z</time></trkpt><trkpt lat="45.80758162600952" lon="14.604563368407492"><ele>524.0</ele><time>2026-05-05T09:36:33Z</time></trkpt><trkpt lat="45.80744672622421" lon="14.604534037681631"><ele>525.0</ele><time>2026-05-05T09:36:34Z</time></trkpt><trkpt lat="45.80731336681677" lon="14.604531464393661"><ele>526.0</ele><time>2026-05-05T09:36:35Z</time></trkpt><trkpt lat="45.80718348904128" lon="14.604539115727594"><ele>527.0</ele><time>2026-05-05T09:36:36Z</time></trkpt><trkpt lat="45.80707453146808" lon="14.604500581979273"><ele>528.0</ele><time>2026-05-05T09:36:37Z</time></trkpt><trkpt lat="45.80699354558881" lon="14.604419317816768"><ele>531.0</ele><time>2026-05-05T09:36:38Z</time></trkpt><trkpt lat="45.806919738184035" lon="14.60432906100289"><ele>534.0</ele><time>2026-05-05T09:36:39Z</time></trkpt><trkpt lat="45.80691630502699" lon="14.60414226755627"><ele>537.0</ele><time>2026-05-05T09:36:40Z</time></trkpt><trkpt lat="45.80687767212916" lon="14.603933188996672"><ele>540.0</ele><time>2026-05-05T09:36:41Z</time></trkpt><trkpt lat="45.80684873314743" lon="14.603679069790523"><ele>533.0</ele><time>2026-05-05T09:36:42Z</time></trkpt><trkpt lat="45.8068124941568" lon="14.603384163157632"><ele>526.0</ele><time>2026-05-05T09:36:43Z</time></trkpt><trkpt lat="45.80677451285165" lon="14.603040549333295"><ele>525.5</ele><time>2026-05-05T09:36:44Z</time></trkpt><trkpt lat="45.806716305463304" lon="14.602656786233535"><ele>525.0</ele><time>2026-05-05T09:36:45Z</time></trkpt><trkpt lat="45.80665395797267" lon="14.602244568348443"><ele>526.0</ele><time>2026-05-05T09:36:46Z</time></trkpt><trkpt lat="45.80657991155295" lon="14.601809312796231"><ele>527.0</ele><time>2026-05-05T09:36:47Z</time></trkpt><trkpt lat="45.80647246066374" lon="14.601343154704225"><ele>531.5</ele><time>2026-05-05T09:36:48Z</time></trkpt><trkpt lat="45.806358505034666" lon="14.600885752935616"><ele>536.0</ele><time>2026-05-05T09:36:49Z</time></trkpt><trkpt lat="45.80629476317302" lon="14.600471886811233"><ele>540.0</ele><time>2026-05-05T09:36:50Z</time></trkpt><trkpt lat="45.806225662267494" lon="14.600104140983282"><ele>544.0</ele><time>2026-05-05T09:36:51Z</time></trkpt><trkpt lat="45.80617364252789" lon="14.599756226378085"><ele>548.0</ele><time>2026-05-05T09:36:52Z</time></trkpt><trkpt lat="45.806112518452515" lon="14.599431190036297"><ele>552.0</ele><time>2026-05-05T09:36:53Z</time></trkpt><trkpt lat="45.80605352256825" lon="14.599123584413771"><ele>552.0</ele><time>2026-05-05T09:36:54Z</time></trkpt><trkpt lat="45.806007065279196" lon="14.598807805374504"><ele>552.0</ele><time>2026-05-05T09:36:55Z</time></trkpt><trkpt lat="45.80596945797613" lon="14.598484094872784"><ele>542.0</ele><time>2026-05-05T09:36:56Z</time></trkpt><trkpt lat="45.80590787766254" lon="14.598171071246774"><ele>532.0</ele><time>2026-05-05T09:36:57Z</time></trkpt><trkpt lat="45.80581398779746" lon="14.597868330625996"><ele>533.5</ele><time>2026-05-05T09:36:58Z</time></trkpt><trkpt lat="45.80571561726291" lon="14.597549307644451"><ele>535.0</ele><time>2026-05-05T09:36:59Z</time></trkpt><trkpt lat="45.80563351731795" lon="14.59724200793506"><ele>536.3333333333334</ele><time>2026-05-05T09:37:00Z</time></trkpt><trkpt lat="45.80556988078133" lon="14.596958177748377"><ele>537.6666666666666</ele><time>2026-05-05T09:37:01Z</time></trkpt><trkpt lat="45.80545143241255" lon="14.596715552262141"><ele>539.0</ele><time>2026-05-05T09:37:02Z</time></trkpt><trkpt lat="45.80532343768771" lon="14.596496634426618"><ele>539.0</ele><time>2026-05-05T09:37:03Z</time></trkpt><trkpt lat="45.80518086393845" lon="14.59629255493574"><ele>539.0</ele><time>2026-05-05T09:37:04Z</time></trkpt><trkpt lat="45.805081013906204" lon="14.596030901757661"><ele>539.0</ele><time>2026-05-05T09:37:05Z</time></trkpt><trkpt lat="45.80496381609608" lon="14.595776808045082"><ele>540.3333333333333</ele><time>2026-05-05T09:37:06Z</time></trkpt><trkpt lat="45.80488582770628" lon="14.595491343539768"><ele>541.6666666666666</ele><time>2026-05-05T09:37:07Z</time></trkpt><trkpt lat="45.804863357677334" lon="14.595194120726537"><ele>543.0</ele><time>2026-05-05T09:37:08Z</time></trkpt><trkpt lat="45.80481951829467" lon="14.59489848355355"><ele>543.0</ele><time>2026-05-05T09:37:09Z</time></trkpt><trkpt lat="45.80480756175361" lon="14.594610187927973"><ele>543.0</ele><time>2026-05-05T09:37:10Z</time></trkpt><trkpt lat="45.80479399477168" lon="14.594317619987402"><ele>543.0</ele><time>2026-05-05T09:37:11Z</time></trkpt><trkpt lat="45.80476624896841" lon="14.594030091014755"><ele>546.0</ele><time>2026-05-05T09:37:12Z</time></trkpt><trkpt lat="45.80471681624521" lon="14.593729826743001"><ele>549.0</ele><time>2026-05-05T09:37:13Z</time></trkpt><trkpt lat="45.804640273777075" lon="14.593438631069223"><ele>552.0</ele><time>2026-05-05T09:37:14Z</time></trkpt><trkpt lat="45.80455118051463" lon="14.593179120948797"><ele>551.6666666666666</ele><time>2026-05-05T09:37:15Z</time></trkpt><trkpt lat="45.804510034090434" lon="14.592902198066131"><ele>551.3333333333333</ele><time>2026-05-05T09:37:16Z</time></trkpt><trkpt lat="45.804490439073305" lon="14.59260073709586"><ele>551.0</ele><time>2026-05-05T09:37:17Z</time></trkpt><trkpt lat="45.804443036814675" lon="14.592301079844223"><ele>551.0</ele><time>2026-05-05T09:37:18Z</time></trkpt><trkpt lat="45.804402536653484" lon="14.592012423087402"><ele>551.0</ele><time>2026-05-05T09:37:19Z</time></trkpt><trkpt lat="45.80435515174587" lon="14.59173971547694"><ele>551.0</ele><time>2026-05-05T09:37:20Z</time></trkpt><trkpt lat="45.80431991801928" lon="14.591466213525074"><ele>548.3333333333333</ele><time>2026-05-05T09:37:21Z</time></trkpt><trkpt lat="45.80432128977689" lon="14.591189334972494"><ele>545.6666666666666</ele><time>2026-05-05T09:37:22Z</time></trkpt><trkpt lat="45.80436128338301" lon="14.590939632294427"><ele>543.0</ele><time>2026-05-05T09:37:23Z</time></trkpt><trkpt lat="45.804397437564" lon="14.590706713339952"><ele>543.0</ele><time>2026-05-05T09:37:24Z</time></trkpt><trkpt lat="45.80439953481764" lon="14.590466763490815"><ele>543.0</ele><time>2026-05-05T09:37:25Z</time></trkpt><trkpt lat="45.80437632508946" lon="14.590225441550174"><ele>543.0</ele><time>2026-05-05T09:37:26Z</time></trkpt><trkpt lat="45.80434608699809" lon="14.589995696238882"><ele>543.6666666666666</ele><time>2026-05-05T09:37:27Z</time></trkpt><trkpt lat="45.80432395668538" lon="14.589762082086219"><ele>544.3333333333333</ele><time>2026-05-05T09:37:28Z</time></trkpt><trkpt lat="45.804318056864574" lon="14.589532101422494"><ele>545.0</ele><time>2026-05-05T09:37:29Z</time></trkpt><trkpt lat="45.80432454998671" lon="14.589293782695242"><ele>554.3333333333333</ele><time>2026-05-05T09:37:30Z</time></trkpt><trkpt lat="45.804331506593" lon="14.589031066597526"><ele>563.6666666666666</ele><time>2026-05-05T09:37:31Z</time></trkpt><trkpt lat="45.804361774236206" lon="14.588718073977606"><ele>573.0</ele><time>2026-05-05T09:37:32Z</time></trkpt><trkpt lat="45.80441071015608" lon="14.588357110457757"><ele>574.5</ele><time>2026-05-05T09:37:33Z</time></trkpt><trkpt lat="45.80444913384927" lon="14.58797393946486"><ele>576.0</ele><time>2026-05-05T09:37:34Z</time></trkpt><trkpt lat="45.80448724549372" lon="14.587582734321849"><ele>576.0</ele><time>2026-05-05T09:37:35Z</time></trkpt><trkpt lat="45.80454356635869" lon="14.58719410659512"><ele>576.0</ele><time>2026-05-05T09:37:36Z</time></trkpt><trkpt lat="45.804611389944405" lon="14.586795958969208"><ele>572.0</ele><time>2026-05-05T09:37:37Z</time></trkpt><trkpt lat="45.804657144208676" lon="14.58640517445497"><ele>568.0</ele><time>2026-05-05T09:37:38Z</time></trkpt><trkpt lat="45.80467009057053" lon="14.586009040589502"><ele>568.0</ele><time>2026-05-05T09:37:39Z</time></trkpt><trkpt lat="45.804667593126844" lon="14.585640118563603"><ele>568.0</ele><time>2026-05-05T09:37:40Z</time></trkpt><trkpt lat="45.8046695659814" lon="14.58530931868461"><ele>566.5</ele><time>2026-05-05T09:37:41Z</time></trkpt><trkpt lat="45.80467945625929" lon="14.584975566539192"><ele>565.0</ele><time>2026-05-05T09:37:42Z</time></trkpt><trkpt lat="45.804713343495514" lon="14.584639747586722"><ele>561.5</ele><time>2026-05-05T09:37:43Z</time></trkpt><trkpt lat="45.80477625213874" lon="14.584319398145347"><ele>558.0</ele><time>2026-05-05T09:37:44Z</time></trkpt><trkpt lat="45.80483153080571" lon="14.584002163574512"><ele>558.0</ele><time>2026-05-05T09:37:45Z</time></trkpt><trkpt lat="45.80486301692829" lon="14.583695522785927"><ele>558.0</ele><time>2026-05-05T09:37:46Z</time></trkpt><trkpt lat="45.80489890130179" lon="14.583402289704045"><ele>558.0</ele><time>2026-05-05T09:37:47Z</time></trkpt><trkpt lat="45.80493609938436" lon="14.583117541155545"><ele>555.3333333333334</ele><time>2026-05-05T09:37:48Z</time></trkpt><trkpt lat="45.804969411203516" lon="14.58284164077727"><ele>552.6666666666667</ele><time>2026-05-05T09:37:49Z</time></trkpt><trkpt lat="45.80500532103143" lon="14.58256993722925"><ele>550.0</ele><time>2026-05-05T09:37:50Z</time></trkpt><trkpt lat="45.805048238920115" lon="14.582301937099803"><ele>550.0</ele><time>2026-05-05T09:37:51Z</time></trkpt><trkpt lat="45.80508569758705" lon="14.582060550731645"><ele>550.0</ele><time>2026-05-05T09:37:52Z</time></trkpt><trkpt lat="45.805111228347954" lon="14.581853177322056"><ele>550.0</ele><time>2026-05-05T09:37:53Z</time></trkpt><trkpt lat="45.80510604947982" lon="14.581663385524404"><ele>551.25</ele><time>2026-05-05T09:37:54Z</time></trkpt><trkpt lat="45.805060887334555" lon="14.581480324805604"><ele>552.5</ele><time>2026-05-05T09:37:55Z</time></trkpt><trkpt lat="45.80498050524275" lon="14.581296799371664"><ele>553.75</ele><time>2026-05-05T09:37:56Z</time></trkpt><trkpt lat="45.80487351701704" lon="14.581123354637533"><ele>555.0</ele><time>2026-05-05T09:37:57Z</time></trkpt><trkpt lat="45.80476717075721" lon="14.580930807689397"><ele>558.3333333333334</ele><time>2026-05-05T09:37:58Z</time></trkpt><trkpt lat="45.80468237921627" lon="14.580712815342613"><ele>561.6666666666667</ele><time>2026-05-05T09:37:59Z</time></trkpt><trkpt lat="45.80463382637922" lon="14.580466005299046"><ele>565.0</ele><time>2026-05-05T09:38:00Z</time></trkpt><trkpt lat="45.80461298707258" lon="14.58019413832075"><ele>568.6666666666667</ele><time>2026-05-05T09:38:01Z</time></trkpt><trkpt lat="45.80461360414107" lon="14.579910126503044"><ele>572.3333333333334</ele><time>2026-05-05T09:38:02Z</time></trkpt><trkpt lat="45.80464293846437" lon="14.579622066109632"><ele>576.0</ele><time>2026-05-05T09:38:03Z</time></trkpt><trkpt lat="45.80466565735989" lon="14.57933294189684"><ele>576.0</ele><time>2026-05-05T09:38:04Z</time></trkpt><trkpt lat="45.80464298979189" lon="14.579038476617123"><ele>576.0</ele><time>2026-05-05T09:38:05Z</time></trkpt><trkpt lat="45.804580315316755" lon="14.578757362123474"><ele>576.0</ele><time>2026-05-05T09:38:06Z</time></trkpt><trkpt lat="45.804502860644085" lon="14.578507609531224"><ele>576.0</ele><time>2026-05-05T09:38:07Z</time></trkpt><trkpt lat="45.80443473861191" lon="14.578277930677041"><ele>576.0</ele><time>2026-05-05T09:38:08Z</time></trkpt><trkpt lat="45.80438802585149" lon="14.578042625646951"><ele>576.0</ele><time>2026-05-05T09:38:09Z</time></trkpt><trkpt lat="45.80439429348498" lon="14.577784906220147"><ele>576.0</ele><time>2026-05-05T09:38:10Z</time></trkpt><trkpt lat="45.80443516753026" lon="14.577497765249758"><ele>576.0</ele><time>2026-05-05T09:38:11Z</time></trkpt><trkpt lat="45.80450755819025" lon="14.577236329754458"><ele>576.0</ele><time>2026-05-05T09:38:12Z</time></trkpt><trkpt lat="45.804577410875076" lon="14.577014022287209"><ele>578.0</ele><time>2026-05-05T09:38:13Z</time></trkpt><trkpt lat="45.80461282418155" lon="14.57678222520663"><ele>580.0</ele><time>2026-05-05T09:38:14Z</time></trkpt><trkpt lat="45.80460234156809" lon="14.576534362709998"><ele>582.0</ele><time>2026-05-05T09:38:15Z</time></trkpt><trkpt lat="45.80458903566542" lon="14.576288883616884"><ele>583.6666666666666</ele><time>2026-05-05T09:38:16Z</time></trkpt><trkpt lat="45.804577026254684" lon="14.576053677915711"><ele>585.3333333333333</ele><time>2026-05-05T09:38:17Z</time></trkpt><trkpt lat="45.804534524384806" lon="14.575816625632985"><ele>587.0</ele><time>2026-05-05T09:38:18Z</time></trkpt><trkpt lat="45.80444778485712" lon="14.575605608909616"><ele>587.0</ele><time>2026-05-05T09:38:19Z</time></trkpt><trkpt lat="45.804363687381795" lon="14.575405960004266"><ele>587.0</ele><time>2026-05-05T09:38:20Z</time></trkpt><trkpt lat="45.80430418657438" lon="14.575183410248316"><ele>587.0</ele><time>2026-05-05T09:38:21Z</time></trkpt><trkpt lat="45.804264080104936" lon="14.574956454501"><ele>578.0</ele><time>2026-05-05T09:38:22Z</time></trkpt><trkpt lat="45.80421147577146" lon="14.574755873552801"><ele>569.0</ele><time>2026-05-05T09:38:23Z</time></trkpt><trkpt lat="45.804132732062335" lon="14.574566431524655"><ele>560.0</ele><time>2026-05-05T09:38:24Z</time></trkpt><trkpt lat="45.80404173640341" lon="14.574387600918985"><ele>560.0</ele><time>2026-05-05T09:38:25Z</time></trkpt><trkpt lat="45.80395308422973" lon="14.574211685610326"><ele>560.0</ele><time>2026-05-05T09:38:26Z</time></trkpt><trkpt lat="45.80391540668276" lon="14.574007233596278"><ele>560.0</ele><time>2026-05-05T09:38:27Z</time></trkpt><trkpt lat="45.80396474036295" lon="14.573786335489178"><ele>559.3333333333333</ele><time>2026-05-05T09:38:28Z</time></trkpt><trkpt lat="45.80399338575577" lon="14.573545105522525"><ele>558.6666666666666</ele><time>2026-05-05T09:38:29Z</time></trkpt><trkpt lat="45.80404108795927" lon="14.573308264354154"><ele>558.0</ele><time>2026-05-05T09:38:30Z</time></trkpt><trkpt lat="45.804082446059816" lon="14.573058330797718"><ele>559.0</ele><time>2026-05-05T09:38:31Z</time></trkpt><trkpt lat="45.804116003599184" lon="14.572806804540821"><ele>560.0</ele><time>2026-05-05T09:38:32Z</time></trkpt><trkpt lat="45.80414662125453" lon="14.572550884871266"><ele>561.0</ele><time>2026-05-05T09:38:33Z</time></trkpt><trkpt lat="45.80417483141893" lon="14.572282744428222"><ele>562.6666666666666</ele><time>2026-05-05T09:38:34Z</time></trkpt><trkpt lat="45.80420051241171" lon="14.571999729518975"><ele>564.3333333333333</ele><time>2026-05-05T09:38:35Z</time></trkpt><trkpt lat="45.8042124216616" lon="14.571707264753263"><ele>566.0</ele><time>2026-05-05T09:38:36Z</time></trkpt><trkpt lat="45.80419969350803" lon="14.571403309020546"><ele>568.0</ele><time>2026-05-05T09:38:37Z</time></trkpt><trkpt lat="45.80416108919972" lon="14.571118110970826"><ele>570.0</ele><time>2026-05-05T09:38:38Z</time></trkpt><trkpt lat="45.804119333196084" lon="14.570859020382743"><ele>572.0</ele><time>2026-05-05T09:38:39Z</time></trkpt><trkpt lat="45.804142704740556" lon="14.570610436612352"><ele>574.0</ele><time>2026-05-05T09:38:40Z</time></trkpt><trkpt lat="45.804190162374276" lon="14.570348399116153"><ele>576.0</ele><time>2026-05-05T09:38:41Z</time></trkpt><trkpt lat="45.80422291623397" lon="14.57007035886098"><ele>578.0</ele><time>2026-05-05T09:38:42Z</time></trkpt><trkpt lat="45.80423177302298" lon="14.569790718248617"><ele>580.0</ele><time>2026-05-05T09:38:43Z</time></trkpt><trkpt lat="45.80420567736742" lon="14.569487902259613"><ele>582.0</ele><time>2026-05-05T09:38:44Z</time></trkpt><trkpt lat="45.80419535923949" lon="14.569157904418645"><ele>584.0</ele><time>2026-05-05T09:38:45Z</time></trkpt><trkpt lat="45.80420666780166" lon="14.568813887564124"><ele>586.5</ele><time>2026-05-05T09:38:46Z</time></trkpt><trkpt lat="45.80423729514727" lon="14.56845170705709"><ele>589.0</ele><time>2026-05-05T09:38:47Z</time></trkpt><trkpt lat="45.8042746948798" lon="14.568078297611924"><ele>591.5</ele><time>2026-05-05T09:38:48Z</time></trkpt><trkpt lat="45.804309765554166" lon="14.567694202846793"><ele>594.0</ele><time>2026-05-05T09:38:49Z</time></trkpt><trkpt lat="45.804331815122985" lon="14.567340242641215"><ele>606.0</ele><time>2026-05-05T09:38:50Z</time></trkpt><trkpt lat="45.80434171022015" lon="14.567005493409217"><ele>618.0</ele><time>2026-05-05T09:38:51Z</time></trkpt><trkpt lat="45.80434880008033" lon="14.566697097545823"><ele>630.0</ele><time>2026-05-05T09:38:52Z</time></trkpt><trkpt lat="45.80434022666185" lon="14.566412832720859"><ele>624.3333333333334</ele><time>2026-05-05T09:38:53Z</time></trkpt><trkpt lat="45.804297825769794" lon="14.566134054587163"><ele>618.6666666666667</ele><time>2026-05-05T09:38:54Z</time></trkpt><trkpt lat="45.80423037580249" lon="14.565857658025331"><ele>613.0</ele><time>2026-05-05T09:38:55Z</time></trkpt><trkpt lat="45.804186612386395" lon="14.565593763246206"><ele>617.0</ele><time>2026-05-05T09:38:56Z</time></trkpt><trkpt lat="45.80418047610217" lon="14.565323285708354"><ele>621.0</ele><time>2026-05-05T09:38:57Z</time></trkpt><trkpt lat="45.8041174023846" lon="14.565096436934722"><ele>625.0</ele><time>2026-05-05T09:38:58Z</time></trkpt><trkpt lat="45.80404847252885" lon="14.56487567834846"><ele>625.0</ele><time>2026-05-05T09:38:59Z</time></trkpt><trkpt lat="45.80405393684992" lon="14.564648204675345"><ele>625.0</ele><time>2026-05-05T09:39:00Z</time></trkpt><trkpt lat="45.80405627937308" lon="14.564394999359505"><ele>625.0</ele><time>2026-05-05T09:39:01Z</time></trkpt><trkpt lat="45.80405254350071" lon="14.564157838545732"><ele>627.8</ele><time>2026-05-05T09:39:02Z</time></trkpt><trkpt lat="45.80405212992065" lon="14.563946162239679"><ele>630.6</ele><time>2026-05-05T09:39:03Z</time></trkpt><trkpt lat="45.80404375165513" lon="14.563785364167098"><ele>633.4</ele><time>2026-05-05T09:39:04Z</time></trkpt><trkpt lat="45.8040520938007" lon="14.56368609117854"><ele>636.2</ele><time>2026-05-05T09:39:05Z</time></trkpt><trkpt lat="45.80398540876472" lon="14.563607117589214"><ele>639.0</ele><time>2026-05-05T09:39:07Z</time></trkpt><trkpt lat="45.803896933152814" lon="14.563639242791401"><ele>639.0</ele><time>2026-05-05T09:39:08Z</time></trkpt><trkpt lat="45.80381661111559" lon="14.56375533993403"><ele>639.0</ele><time>2026-05-05T09:39:09Z</time></trkpt><trkpt lat="45.80377630883806" lon="14.563930279041783"><ele>639.0</ele><time>2026-05-05T09:39:10Z</time></trkpt><trkpt lat="45.80373144071749" lon="14.564131064485277"><ele>639.0</ele><time>2026-05-05T09:39:11Z</time></trkpt><trkpt lat="45.80370494626734" lon="14.564368639858372"><ele>634.3333333333334</ele><time>2026-05-05T09:39:12Z</time></trkpt><trkpt lat="45.803659595110524" lon="14.564639421252437"><ele>629.6666666666667</ele><time>2026-05-05T09:39:13Z</time></trkpt><trkpt lat="45.803606497366445" lon="14.5648374377113"><ele>625.0</ele><time>2026-05-05T09:39:14Z</time></trkpt><trkpt lat="45.803540521167875" lon="14.564989095553226"><ele>627.8</ele><time>2026-05-05T09:39:15Z</time></trkpt><trkpt lat="45.803474040779896" lon="14.565083311125077"><ele>630.6</ele><time>2026-05-05T09:39:16Z</time></trkpt><trkpt lat="45.80339559441777" lon="14.565071743153133"><ele>633.4</ele><time>2026-05-05T09:39:17Z</time></trkpt><trkpt lat="45.80331894133123" lon="14.56504493843572"><ele>636.2</ele><time>2026-05-05T09:39:18Z</time></trkpt><trkpt lat="45.80321036124658" lon="14.565014475878746"><ele>639.0</ele><time>2026-05-05T09:39:19Z</time></trkpt><trkpt lat="45.80310050507682" lon="14.56497764797442"><ele>639.0</ele><time>2026-05-05T09:39:20Z</time></trkpt><trkpt lat="45.80300182961789" lon="14.564971499770957"><ele>639.0</ele><time>2026-05-05T09:39:21Z</time></trkpt><trkpt lat="45.80292739958397" lon="14.564976545798018"><ele>639.0</ele><time>2026-05-05T09:39:22Z</time></trkpt><trkpt lat="45.802856653748414" lon="14.565000549365017"><ele>639.0</ele><time>2026-05-05T09:39:23Z</time></trkpt><trkpt lat="45.80283039442649" lon="14.565128536928336"><ele>639.0</ele><time>2026-05-05T09:39:24Z</time></trkpt><trkpt lat="45.802869431424654" lon="14.565294191882174"><ele>637.0</ele><time>2026-05-05T09:39:25Z</time></trkpt><trkpt lat="45.80291422105392" lon="14.565450297007352"><ele>635.0</ele><time>2026-05-05T09:39:26Z</time></trkpt><trkpt lat="45.80296941688258" lon="14.565622915519615"><ele>633.0</ele><time>2026-05-05T09:39:27Z</time></trkpt><trkpt lat="45.80302411707931" lon="14.56580045405014"><ele>631.0</ele><time>2026-05-05T09:39:28Z</time></trkpt><trkpt lat="45.80305692979161" lon="14.565961831681484"><ele>631.0</ele><time>2026-05-05T09:39:29Z</time></trkpt><trkpt lat="45.80306189685383" lon="14.566130952231276"><ele>631.0</ele><time>2026-05-05T09:39:30Z</time></trkpt><trkpt lat="45.80304084486119" lon="14.566300793273255"><ele>631.0</ele><time>2026-05-05T09:39:31Z</time></trkpt><trkpt lat="45.80300147010553" lon="14.56648452179512"><ele>631.0</ele><time>2026-05-05T09:39:32Z</time></trkpt><trkpt lat="45.80294233385358" lon="14.566628771533663"><ele>631.0</ele><time>2026-05-05T09:39:33Z</time></trkpt><trkpt lat="45.80286965111882" lon="14.566718827796526"><ele>631.0</ele><time>2026-05-05T09:39:34Z</time></trkpt><trkpt lat="45.802767403791506" lon="14.56676691174145"><ele>631.0</ele><time>2026-05-05T09:39:35Z</time></trkpt><trkpt lat="45.8026435407899" lon="14.566773431540721"><ele>631.0</ele><time>2026-05-05T09:39:36Z</time></trkpt><trkpt lat="45.80253532308687" lon="14.566818067657474"><ele>631.0</ele><time>2026-05-05T09:39:37Z</time></trkpt><trkpt lat="45.80244761926727" lon="14.566983932136297"><ele>633.8</ele><time>2026-05-05T09:39:38Z</time></trkpt><trkpt lat="45.802381485353465" lon="14.567143556963101"><ele>636.6</ele><time>2026-05-05T09:39:39Z</time></trkpt><trkpt lat="45.80230868801048" lon="14.567272063890172"><ele>639.4</ele><time>2026-05-05T09:39:40Z</time></trkpt><trkpt lat="45.80223463586672" lon="14.567367655677202"><ele>642.2</ele><time>2026-05-05T09:39:41Z</time></trkpt><trkpt lat="45.80214051613008" lon="14.567332705300053"><ele>645.0</ele><time>2026-05-05T09:39:42Z</time></trkpt><trkpt lat="45.802072176717296" lon="14.567286269366889"><ele>645.0</ele><time>2026-05-05T09:39:43Z</time></trkpt><trkpt lat="45.802023117228174" lon="14.56715150962565"><ele>645.0</ele><time>2026-05-05T09:39:44Z</time></trkpt><trkpt lat="45.80198966611809" lon="14.566964546716179"><ele>645.0</ele><time>2026-05-05T09:39:45Z</time></trkpt><trkpt lat="45.80196825353173" lon="14.56676641302155"><ele>645.0</ele><time>2026-05-05T09:39:46Z</time></trkpt><trkpt lat="45.80195905941034" lon="14.566548305895637"><ele>648.75</ele><time>2026-05-05T09:39:47Z</time></trkpt><trkpt lat="45.80194245091068" lon="14.566354109611833"><ele>652.5</ele><time>2026-05-05T09:39:48Z</time></trkpt><trkpt lat="45.8018958499997" lon="14.566226528452571"><ele>656.25</ele><time>2026-05-05T09:39:49Z</time></trkpt><trkpt lat="45.80181558447517" lon="14.566120658188437"><ele>660.0</ele><time>2026-05-05T09:39:50Z</time></trkpt><trkpt lat="45.80170618761726" lon="14.566041672096596"><ele>663.75</ele><time>2026-05-05T09:39:51Z</time></trkpt><trkpt lat="45.80157242397266" lon="14.566008385150624"><ele>667.5</ele><time>2026-05-05T09:39:52Z</time></trkpt><trkpt lat="45.801450351347704" lon="14.565928067926897"><ele>671.25</ele><time>2026-05-05T09:39:53Z</time></trkpt><trkpt lat="45.80134358003695" lon="14.565811406983165"><ele>675.0</ele><time>2026-05-05T09:39:54Z</time></trkpt><trkpt lat="45.80122430838019" lon="14.565606854904884"><ele>671.0</ele><time>2026-05-05T09:39:55Z</time></trkpt><trkpt lat="45.80107383905077" lon="14.565355403434474"><ele>667.0</ele><time>2026-05-05T09:39:56Z</time></trkpt><trkpt lat="45.800916019418" lon="14.565092800506656"><ele>667.0</ele><time>2026-05-05T09:39:57Z</time></trkpt><trkpt lat="45.8007918484112" lon="14.564866319802205"><ele>667.0</ele><time>2026-05-05T09:39:58Z</time></trkpt><trkpt lat="45.80069936906626" lon="14.56462624947256"><ele>667.0</ele><time>2026-05-05T09:39:59Z</time></trkpt><trkpt lat="45.800635143667286" lon="14.564347480853082"><ele>675.3333333333334</ele><time>2026-05-05T09:40:00Z</time></trkpt><trkpt lat="45.8005976432387" lon="14.564051426795283"><ele>683.6666666666666</ele><time>2026-05-05T09:40:01Z</time></trkpt><trkpt lat="45.80055682613825" lon="14.563812995296022"><ele>692.0</ele><time>2026-05-05T09:40:02Z</time></trkpt><trkpt lat="45.80049278613565" lon="14.563608774558046"><ele>698.3333333333333</ele><time>2026-05-05T09:40:03Z</time></trkpt><trkpt lat="45.80038221137149" lon="14.563455000976932"><ele>704.6666666666666</ele><time>2026-05-05T09:40:04Z</time></trkpt><trkpt lat="45.8002361474505" lon="14.56334778721907"><ele>711.0</ele><time>2026-05-05T09:40:05Z</time></trkpt><trkpt lat="45.80011559644327" lon="14.563206780323819"><ele>704.75</ele><time>2026-05-05T09:40:06Z</time></trkpt><trkpt lat="45.80003748428618" lon="14.563032415664948"><ele>698.5</ele><time>2026-05-05T09:40:07Z</time></trkpt><trkpt lat="45.800008259098824" lon="14.562827217739702"><ele>692.25</ele><time>2026-05-05T09:40:08Z</time></trkpt><trkpt lat="45.80000413695575" lon="14.56260639194338"><ele>686.0</ele><time>2026-05-05T09:40:09Z</time></trkpt><trkpt lat="45.7999983487596" lon="14.562357154948149"><ele>686.0</ele><time>2026-05-05T09:40:10Z</time></trkpt><trkpt lat="45.79997820379902" lon="14.562082133212852"><ele>686.0</ele><time>2026-05-05T09:40:11Z</time></trkpt><trkpt lat="45.799928199635694" lon="14.56177937944154"><ele>686.0</ele><time>2026-05-05T09:40:12Z</time></trkpt><trkpt lat="45.799872343432625" lon="14.561474605964776"><ele>698.0</ele><time>2026-05-05T09:40:13Z</time></trkpt><trkpt lat="45.799795116535265" lon="14.561175665065274"><ele>710.0</ele><time>2026-05-05T09:40:14Z</time></trkpt><trkpt lat="45.799719721040425" lon="14.560911432183591"><ele>722.0</ele><time>2026-05-05T09:40:15Z</time></trkpt><trkpt lat="45.79967769400929" lon="14.560689185372503"><ele>722.0</ele><time>2026-05-05T09:40:16Z</time></trkpt><trkpt lat="45.799639198435656" lon="14.560515805972162"><ele>722.0</ele><time>2026-05-05T09:40:17Z</time></trkpt><trkpt lat="45.7995741582933" lon="14.560401711138207"><ele>722.0</ele><time>2026-05-05T09:40:18Z</time></trkpt><trkpt lat="45.79947617726476" lon="14.560359708987601"><ele>722.0</ele><time>2026-05-05T09:40:19Z</time></trkpt><trkpt lat="45.79936840754322" lon="14.560386033428905"><ele>722.0</ele><time>2026-05-05T09:40:20Z</time></trkpt><trkpt lat="45.79924568654072" lon="14.560474959106635"><ele>714.0</ele><time>2026-05-05T09:40:21Z</time></trkpt><trkpt lat="45.79910769803978" lon="14.560599835815442"><ele>706.0</ele><time>2026-05-05T09:40:22Z</time></trkpt><trkpt lat="45.79892326626542" lon="14.560748070995809"><ele>698.0</ele><time>2026-05-05T09:40:23Z</time></trkpt><trkpt lat="45.79876197193921" lon="14.560912059558554"><ele>698.0</ele><time>2026-05-05T09:40:24Z</time></trkpt><trkpt lat="45.79860700295176" lon="14.561110049353212"><ele>698.0</ele><time>2026-05-05T09:40:25Z</time></trkpt><trkpt lat="45.79847403005609" lon="14.561301890949641"><ele>698.0</ele><time>2026-05-05T09:40:26Z</time></trkpt><trkpt lat="45.79836390833295" lon="14.5614554970477"><ele>696.4</ele><time>2026-05-05T09:40:27Z</time></trkpt><trkpt lat="45.79826583170833" lon="14.561537457892143"><ele>694.8</ele><time>2026-05-05T09:40:28Z</time></trkpt><trkpt lat="45.79816462952086" lon="14.561554487064482"><ele>693.2</ele><time>2026-05-05T09:40:29Z</time></trkpt><trkpt lat="45.79806630074543" lon="14.561517417260603"><ele>691.6</ele><time>2026-05-05T09:40:30Z</time></trkpt><trkpt lat="45.79797696325851" lon="14.561493382411436"><ele>690.0</ele><time>2026-05-05T09:40:31Z</time></trkpt><trkpt lat="45.79794593343958" lon="14.56138449161765"><ele>690.0</ele><time>2026-05-05T09:40:32Z</time></trkpt><trkpt lat="45.79794478573747" lon="14.56125013754583"><ele>690.0</ele><time>2026-05-05T09:40:33Z</time></trkpt><trkpt lat="45.79801539393865" lon="14.561126476726407"><ele>690.0</ele><time>2026-05-05T09:40:34Z</time></trkpt><trkpt lat="45.79807509161647" lon="14.560937527170228"><ele>690.0</ele><time>2026-05-05T09:40:35Z</time></trkpt><trkpt lat="45.798172560030196" lon="14.560731289145101"><ele>696.6666666666666</ele><time>2026-05-05T09:40:36Z</time></trkpt><trkpt lat="45.79826350842691" lon="14.56050050118536"><ele>703.3333333333333</ele><time>2026-05-05T09:40:37Z</time></trkpt><trkpt lat="45.79832758371159" lon="14.560246538539184"><ele>710.0</ele><time>2026-05-05T09:40:38Z</time></trkpt><trkpt lat="45.79835638305256" lon="14.5599503879987"><ele>713.0</ele><time>2026-05-05T09:40:39Z</time></trkpt><trkpt lat="45.79836573159599" lon="14.55963901127556"><ele>716.0</ele><time>2026-05-05T09:40:40Z</time></trkpt><trkpt lat="45.79834876369755" lon="14.559339885359282"><ele>719.0</ele><time>2026-05-05T09:40:41Z</time></trkpt><trkpt lat="45.798306163085726" lon="14.559060820072004"><ele>719.6666666666666</ele><time>2026-05-05T09:40:42Z</time></trkpt><trkpt lat="45.79825802044789" lon="14.558805355003752"><ele>720.3333333333334</ele><time>2026-05-05T09:40:43Z</time></trkpt><trkpt lat="45.79825074268265" lon="14.558574001515463"><ele>721.0</ele><time>2026-05-05T09:40:44Z</time></trkpt><trkpt lat="45.79827252226015" lon="14.558361185740864"><ele>721.5</ele><time>2026-05-05T09:40:45Z</time></trkpt><trkpt lat="45.79832985195845" lon="14.558205435644744"><ele>722.0</ele><time>2026-05-05T09:40:46Z</time></trkpt><trkpt lat="45.79841076116232" lon="14.558108680640302"><ele>722.5</ele><time>2026-05-05T09:40:47Z</time></trkpt><trkpt lat="45.79851456796646" lon="14.558034693613699"><ele>723.0</ele><time>2026-05-05T09:40:48Z</time></trkpt><trkpt lat="45.798642678936176" lon="14.55794177389237"><ele>727.6666666666666</ele><time>2026-05-05T09:40:49Z</time></trkpt><trkpt lat="45.798789934738046" lon="14.557825090215989"><ele>732.3333333333333</ele><time>2026-05-05T09:40:50Z</time></trkpt><trkpt lat="45.798949681642085" lon="14.55766744244198"><ele>737.0</ele><time>2026-05-05T09:40:51Z</time></trkpt><trkpt lat="45.799130763076946" lon="14.557470299191062"><ele>737.0</ele><time>2026-05-05T09:40:52Z</time></trkpt><trkpt lat="45.799321705198956" lon="14.557267081384698"><ele>737.0</ele><time>2026-05-05T09:40:53Z</time></trkpt><trkpt lat="45.7995055329869" lon="14.557073185444478"><ele>740.0</ele><time>2026-05-05T09:40:54Z</time></trkpt><trkpt lat="45.799698904173376" lon="14.556924229560233"><ele>743.0</ele><time>2026-05-05T09:40:55Z</time></trkpt><trkpt lat="45.79988107944863" lon="14.556789097883668"><ele>746.0</ele><time>2026-05-05T09:40:56Z</time></trkpt><trkpt lat="45.80005295093588" lon="14.556661663435538"><ele>751.25</ele><time>2026-05-05T09:40:57Z</time></trkpt><trkpt lat="45.80022216771414" lon="14.556666991331818"><ele>756.5</ele><time>2026-05-05T09:40:58Z</time></trkpt><trkpt lat="45.800332319289154" lon="14.556617484631275"><ele>761.75</ele><time>2026-05-05T09:40:59Z</time></trkpt><trkpt lat="45.80039328771052" lon="14.556504452871796"><ele>767.0</ele><time>2026-05-05T09:41:00Z</time></trkpt><trkpt lat="45.800424102383865" lon="14.556368414215306"><ele>767.0</ele><time>2026-05-05T09:41:01Z</time></trkpt><trkpt lat="45.80041481819184" lon="14.556209026312313"><ele>767.0</ele><time>2026-05-05T09:41:02Z</time></trkpt><trkpt lat="45.80035420883375" lon="14.556060762694093"><ele>767.0</ele><time>2026-05-05T09:41:03Z</time></trkpt><trkpt lat="45.80028551799003" lon="14.555907340577255"><ele>767.0</ele><time>2026-05-05T09:41:04Z</time></trkpt><trkpt lat="45.80030524614779" lon="14.555708238254155"><ele>766.3333333333333</ele><time>2026-05-05T09:41:05Z</time></trkpt><trkpt lat="45.80034045509869" lon="14.555482279909276"><ele>765.6666666666666</ele><time>2026-05-05T09:41:06Z</time></trkpt><trkpt lat="45.80035527756635" lon="14.55524199926894"><ele>765.0</ele><time>2026-05-05T09:41:07Z</time></trkpt><trkpt lat="45.80035859712974" lon="14.555043434925302"><ele>765.0</ele><time>2026-05-05T09:41:08Z</time></trkpt><trkpt lat="45.80034031224084" lon="14.554901476453116"><ele>765.0</ele><time>2026-05-05T09:41:09Z</time></trkpt><trkpt lat="45.80030298153469" lon="14.554826196462663"><ele>765.0</ele><time>2026-05-05T09:41:10Z</time></trkpt><trkpt lat="45.80023608854484" lon="14.554796931329465"><ele>765.0</ele><time>2026-05-05T09:41:11Z</time></trkpt><trkpt lat="45.8001641268455" lon="14.55480138348271"><ele>765.0</ele><time>2026-05-05T09:41:12Z</time></trkpt><trkpt lat="45.80009828967189" lon="14.554918676278852"><ele>765.0</ele><time>2026-05-05T09:41:13Z</time></trkpt><trkpt lat="45.80005789034564" lon="14.555041780240645"><ele>763.5</ele><time>2026-05-05T09:41:14Z</time></trkpt><trkpt lat="45.80001817795414" lon="14.555191692347305"><ele>762.0</ele><time>2026-05-05T09:41:15Z</time></trkpt><trkpt lat="45.79995048383592" lon="14.555354927798433"><ele>760.5</ele><time>2026-05-05T09:41:16Z</time></trkpt><trkpt lat="45.79983604908177" lon="14.555487393580929"><ele>759.0</ele><time>2026-05-05T09:41:17Z</time></trkpt><trkpt lat="45.799718939934365" lon="14.555584048515287"><ele>757.0</ele><time>2026-05-05T09:41:18Z</time></trkpt><trkpt lat="45.79959358039006" lon="14.55565372476328"><ele>755.0</ele><time>2026-05-05T09:41:19Z</time></trkpt><trkpt lat="45.79946710359466" lon="14.555637037271891"><ele>753.0</ele><time>2026-05-05T09:41:20Z</time></trkpt><trkpt lat="45.799352001778985" lon="14.555576446542823"><ele>751.0</ele><time>2026-05-05T09:41:21Z</time></trkpt><trkpt lat="45.7992779457307" lon="14.555471344210115"><ele>753.1999999999999</ele><time>2026-05-05T09:41:22Z</time></trkpt><trkpt lat="45.79923871158194" lon="14.555331393712665"><ele>755.4</ele><time>2026-05-05T09:41:23Z</time></trkpt><trkpt lat="45.79917306735945" lon="14.55523305078124"><ele>757.6</ele><time>2026-05-05T09:41:24Z</time></trkpt><trkpt lat="45.79908447765255" lon="14.555171298207949"><ele>759.8</ele><time>2026-05-05T09:41:25Z</time></trkpt><trkpt lat="45.7989649575078" lon="14.555260028442671"><ele>762.0</ele><time>2026-05-05T09:41:26Z</time></trkpt><trkpt lat="45.79887579876082" lon="14.555332890338915"><ele>762.0</ele><time>2026-05-05T09:41:27Z</time></trkpt><trkpt lat="45.798796904434305" lon="14.555381204759247"><ele>762.0</ele><time>2026-05-05T09:41:28Z</time></trkpt><trkpt lat="45.798731593430226" lon="14.555349894265632"><ele>762.0</ele><time>2026-05-05T09:41:29Z</time></trkpt><trkpt lat="45.7986884043374" lon="14.555253341511053"><ele>762.0</ele><time>2026-05-05T09:41:30Z</time></trkpt><trkpt lat="45.79868208737592" lon="14.555127291490356"><ele>762.0</ele><time>2026-05-05T09:41:31Z</time></trkpt><trkpt lat="45.79873056717707" lon="14.554991302332816"><ele>762.0</ele><time>2026-05-05T09:41:32Z</time></trkpt><trkpt lat="45.79880756077111" lon="14.554843538924198"><ele>762.0</ele><time>2026-05-05T09:41:33Z</time></trkpt><trkpt lat="45.79889825934333" lon="14.55464813883056"><ele>762.0</ele><time>2026-05-05T09:41:34Z</time></trkpt><trkpt lat="45.799011826872494" lon="14.554432177823815"><ele>762.0</ele><time>2026-05-05T09:41:35Z</time></trkpt><trkpt lat="45.79909499255069" lon="14.554230934497902"><ele>762.0</ele><time>2026-05-05T09:41:36Z</time></trkpt><trkpt lat="45.799155076189585" lon="14.55401252211445"><ele>762.0</ele><time>2026-05-05T09:41:37Z</time></trkpt><trkpt lat="45.79917256988727" lon="14.553788763776762"><ele>762.0</ele><time>2026-05-05T09:41:38Z</time></trkpt><trkpt lat="45.79917314187158" lon="14.553587275141709"><ele>762.0</ele><time>2026-05-05T09:41:39Z</time></trkpt><trkpt lat="45.79920787677124" lon="14.553421853366132"><ele>762.0</ele><time>2026-05-05T09:41:40Z</time></trkpt><trkpt lat="45.79932817560148" lon="14.553296887506505"><ele>762.0</ele><time>2026-05-05T09:41:41Z</time></trkpt><trkpt lat="45.79945168293617" lon="14.553126208688523"><ele>762.0</ele><time>2026-05-05T09:41:42Z</time></trkpt><trkpt lat="45.79962405338197" lon="14.552981876887337"><ele>766.6666666666667</ele><time>2026-05-05T09:41:43Z</time></trkpt><trkpt lat="45.79980061544182" lon="14.552832841671503"><ele>771.3333333333334</ele><time>2026-05-05T09:41:44Z</time></trkpt><trkpt lat="45.79996978343152" lon="14.552670559954953"><ele>776.0</ele><time>2026-05-05T09:41:45Z</time></trkpt><trkpt lat="45.80010719043425" lon="14.552455116854846"><ele>779.3333333333334</ele><time>2026-05-05T09:41:46Z</time></trkpt><trkpt lat="45.80021557189308" lon="14.552207922994377"><ele>782.6666666666667</ele><time>2026-05-05T09:41:47Z</time></trkpt><trkpt lat="45.80035583919628" lon="14.55201888502314"><ele>786.0</ele><time>2026-05-05T09:41:48Z</time></trkpt><trkpt lat="45.80053766731382" lon="14.551860111071942"><ele>786.0</ele><time>2026-05-05T09:41:49Z</time></trkpt><trkpt lat="45.80074039908793" lon="14.551704702537391"><ele>786.0</ele><time>2026-05-05T09:41:50Z</time></trkpt><trkpt lat="45.80091087210231" lon="14.55156066007075"><ele>786.0</ele><time>2026-05-05T09:41:51Z</time></trkpt><trkpt lat="45.80108287874948" lon="14.551434415064247"><ele>787.3333333333333</ele><time>2026-05-05T09:41:52Z</time></trkpt><trkpt lat="45.80125545039595" lon="14.551300175638263"><ele>788.6666666666666</ele><time>2026-05-05T09:41:53Z</time></trkpt><trkpt lat="45.80140412292187" lon="14.551169677295992"><ele>790.0</ele><time>2026-05-05T09:41:54Z</time></trkpt><trkpt lat="45.8015316128716" lon="14.551050036118848"><ele>790.5</ele><time>2026-05-05T09:41:55Z</time></trkpt><trkpt lat="45.80164382825291" lon="14.550937220875326"><ele>791.0</ele><time>2026-05-05T09:41:56Z</time></trkpt><trkpt lat="45.80173249813699" lon="14.550820681071222"><ele>791.5</ele><time>2026-05-05T09:41:57Z</time></trkpt><trkpt lat="45.80179771516369" lon="14.550708268083365"><ele>792.0</ele><time>2026-05-05T09:41:58Z</time></trkpt><trkpt lat="45.80184688816032" lon="14.550586664718871"><ele>793.25</ele><time>2026-05-05T09:41:59Z</time></trkpt><trkpt lat="45.80188932762918" lon="14.550443091842242"><ele>794.5</ele><time>2026-05-05T09:42:00Z</time></trkpt><trkpt lat="45.80185389045864" lon="14.550260833897129"><ele>795.75</ele><time>2026-05-05T09:42:01Z</time></trkpt><trkpt lat="45.801804858778645" lon="14.550093152871312"><ele>797.0</ele><time>2026-05-05T09:42:02Z</time></trkpt><trkpt lat="45.80172901071517" lon="14.54996982731216"><ele>797.25</ele><time>2026-05-05T09:42:03Z</time></trkpt><trkpt lat="45.80161174117014" lon="14.549899662243032"><ele>797.5</ele><time>2026-05-05T09:42:04Z</time></trkpt><trkpt lat="45.80149886160694" lon="14.549883027408793"><ele>797.75</ele><time>2026-05-05T09:42:05Z</time></trkpt><trkpt lat="45.80137322216586" lon="14.549852415803624"><ele>798.0</ele><time>2026-05-05T09:42:06Z</time></trkpt><trkpt lat="45.80124319192121" lon="14.549787207805451"><ele>798.0</ele><time>2026-05-05T09:42:07Z</time></trkpt><trkpt lat="45.80111225823908" lon="14.549687415248052"><ele>798.0</ele><time>2026-05-05T09:42:08Z</time></trkpt><trkpt lat="45.8010264736353" lon="14.549549834250957"><ele>798.0</ele><time>2026-05-05T09:42:09Z</time></trkpt><trkpt lat="45.80096212390189" lon="14.549384723250357"><ele>798.0</ele><time>2026-05-05T09:42:10Z</time></trkpt><trkpt lat="45.80089452191674" lon="14.549186971918559"><ele>798.3333333333333</ele><time>2026-05-05T09:42:11Z</time></trkpt><trkpt lat="45.8008138724458" lon="14.548978051916139"><ele>798.6666666666666</ele><time>2026-05-05T09:42:12Z</time></trkpt><trkpt lat="45.800731327001664" lon="14.548749547202828"><ele>799.0</ele><time>2026-05-05T09:42:13Z</time></trkpt><trkpt lat="45.80063826568994" lon="14.548512530217454"><ele>799.0</ele><time>2026-05-05T09:42:14Z</time></trkpt><trkpt lat="45.800549650665644" lon="14.54825966311361"><ele>799.0</ele><time>2026-05-05T09:42:15Z</time></trkpt><trkpt lat="45.80047400804508" lon="14.548038359323977"><ele>799.0</ele><time>2026-05-05T09:42:16Z</time></trkpt><trkpt lat="45.800407133622706" lon="14.547839237665478"><ele>799.0</ele><time>2026-05-05T09:42:17Z</time></trkpt><trkpt lat="45.80034527372965" lon="14.547663371215558"><ele>799.0</ele><time>2026-05-05T09:42:18Z</time></trkpt><trkpt lat="45.80028018724454" lon="14.547515949069544"><ele>799.0</ele><time>2026-05-05T09:42:19Z</time></trkpt><trkpt lat="45.80019223782142" lon="14.547407742856818"><ele>799.0</ele><time>2026-05-05T09:42:20Z</time></trkpt><trkpt lat="45.80006895518849" lon="14.547343791882845"><ele>795.3333333333333</ele><time>2026-05-05T09:42:21Z</time></trkpt><trkpt lat="45.79991907505922" lon="14.547288696059637"><ele>791.6666666666667</ele><time>2026-05-05T09:42:22Z</time></trkpt><trkpt lat="45.7997606592982" lon="14.547210844943956"><ele>788.0</ele><time>2026-05-05T09:42:23Z</time></trkpt><trkpt lat="45.79961158804529" lon="14.547110201400418"><ele>788.5</ele><time>2026-05-05T09:42:24Z</time></trkpt><trkpt lat="45.7994747098121" lon="14.547007512463313"><ele>789.0</ele><time>2026-05-05T09:42:25Z</time></trkpt><trkpt lat="45.79934303667663" lon="14.546894476282072"><ele>789.5</ele><time>2026-05-05T09:42:26Z</time></trkpt><trkpt lat="45.79924450244563" lon="14.546752037356914"><ele>790.0</ele><time>2026-05-05T09:42:27Z</time></trkpt><trkpt lat="45.799144243513766" lon="14.54660287546866"><ele>787.3333333333333</ele><time>2026-05-05T09:42:28Z</time></trkpt><trkpt lat="45.799060730394785" lon="14.546396740289811"><ele>784.6666666666667</ele><time>2026-05-05T09:42:29Z</time></trkpt><trkpt lat="45.79898019616613" lon="14.546176627759905"><ele>782.0</ele><time>2026-05-05T09:42:30Z</time></trkpt><trkpt lat="45.798901720379504" lon="14.54595708636268"><ele>781.6666666666667</ele><time>2026-05-05T09:42:31Z</time></trkpt><trkpt lat="45.79881902031396" lon="14.545748851758509"><ele>781.3333333333333</ele><time>2026-05-05T09:42:32Z</time></trkpt><trkpt lat="45.79873033188909" lon="14.545557643508356"><ele>781.0</ele><time>2026-05-05T09:42:33Z</time></trkpt><trkpt lat="45.79862299174222" lon="14.545379134204998"><ele>780.0</ele><time>2026-05-05T09:42:34Z</time></trkpt><trkpt lat="45.798491671289526" lon="14.545232452331522"><ele>779.0</ele><time>2026-05-05T09:42:35Z</time></trkpt><trkpt lat="45.798350154771164" lon="14.545133893658406"><ele>778.0</ele><time>2026-05-05T09:42:36Z</time></trkpt><trkpt lat="45.79818478821354" lon="14.54505543298652"><ele>778.0</ele><time>2026-05-05T09:42:37Z</time></trkpt><trkpt lat="45.798023439260014" lon="14.545004549728507"><ele>778.0</ele><time>2026-05-05T09:42:38Z</time></trkpt><trkpt lat="45.79786026927192" lon="14.544952139590471"><ele>778.0</ele><time>2026-05-05T09:42:39Z</time></trkpt><trkpt lat="45.7976844315605" lon="14.544878935151646"><ele>777.6666666666666</ele><time>2026-05-05T09:42:40Z</time></trkpt><trkpt lat="45.797520045338366" lon="14.544755718056754"><ele>777.3333333333333</ele><time>2026-05-05T09:42:41Z</time></trkpt><trkpt lat="45.797376320385126" lon="14.54464542824591"><ele>777.0</ele><time>2026-05-05T09:42:42Z</time></trkpt><trkpt lat="45.79728559802349" lon="14.54451647663674"><ele>777.0</ele><time>2026-05-05T09:42:43Z</time></trkpt><trkpt lat="45.797229122998985" lon="14.544395366847546"><ele>777.0</ele><time>2026-05-05T09:42:44Z</time></trkpt><trkpt lat="45.79720534641401" lon="14.544248106048583"><ele>777.0</ele><time>2026-05-05T09:42:45Z</time></trkpt><trkpt lat="45.79718189524087" lon="14.544059045719214"><ele>777.0</ele><time>2026-05-05T09:42:46Z</time></trkpt><trkpt lat="45.79714858620877" lon="14.543848997958026"><ele>776.6666666666667</ele><time>2026-05-05T09:42:47Z</time></trkpt><trkpt lat="45.79711518528673" lon="14.543614382244185"><ele>776.3333333333334</ele><time>2026-05-05T09:42:48Z</time></trkpt><trkpt lat="45.79705304132849" lon="14.543370192220758"><ele>776.0</ele><time>2026-05-05T09:42:49Z</time></trkpt><trkpt lat="45.79698640570542" lon="14.54313165445702"><ele>776.0</ele><time>2026-05-05T09:42:50Z</time></trkpt><trkpt lat="45.796930886958364" lon="14.542873173723017"><ele>776.0</ele><time>2026-05-05T09:42:51Z</time></trkpt><trkpt lat="45.79688401575556" lon="14.54261223111227"><ele>776.0</ele><time>2026-05-05T09:42:52Z</time></trkpt><trkpt lat="45.79684703669598" lon="14.542362430860688"><ele>774.0</ele><time>2026-05-05T09:42:53Z</time></trkpt><trkpt lat="45.796813031079985" lon="14.542137300022153"><ele>772.0</ele><time>2026-05-05T09:42:54Z</time></trkpt><trkpt lat="45.79678240758629" lon="14.541928809601288"><ele>770.0</ele><time>2026-05-05T09:42:55Z</time></trkpt><trkpt lat="45.79678642529622" lon="14.541726152383992"><ele>770.75</ele><time>2026-05-05T09:42:56Z</time></trkpt><trkpt lat="45.796804722632274" lon="14.541543406470753"><ele>771.5</ele><time>2026-05-05T09:42:57Z</time></trkpt><trkpt lat="45.79691086522578" lon="14.541403714802001"><ele>772.25</ele><time>2026-05-05T09:42:58Z</time></trkpt><trkpt lat="45.79697890340131" lon="14.541230917774714"><ele>773.0</ele><time>2026-05-05T09:42:59Z</time></trkpt><trkpt lat="45.797022377425684" lon="14.541035391843629"><ele>773.0</ele><time>2026-05-05T09:43:00Z</time></trkpt><trkpt lat="45.797037391617366" lon="14.540852555641706"><ele>773.0</ele><time>2026-05-05T09:43:01Z</time></trkpt><trkpt lat="45.79705785716307" lon="14.540680112561008"><ele>773.0</ele><time>2026-05-05T09:43:02Z</time></trkpt><trkpt lat="45.79711867647959" lon="14.540538763996052"><ele>773.0</ele><time>2026-05-05T09:43:03Z</time></trkpt><trkpt lat="45.79724186266009" lon="14.540452283031199"><ele>772.0</ele><time>2026-05-05T09:43:04Z</time></trkpt><trkpt lat="45.79734425295868" lon="14.540320577676445"><ele>771.0</ele><time>2026-05-05T09:43:05Z</time></trkpt><trkpt lat="45.79743694801833" lon="14.540171126094894"><ele>770.0</ele><time>2026-05-05T09:43:06Z</time></trkpt><trkpt lat="45.79752855053038" lon="14.539995813697901"><ele>769.0</ele><time>2026-05-05T09:43:07Z</time></trkpt><trkpt lat="45.79763192524411" lon="14.539821566475519"><ele>772.0</ele><time>2026-05-05T09:43:08Z</time></trkpt><trkpt lat="45.79774224721733" lon="14.539637122896831"><ele>775.0</ele><time>2026-05-05T09:43:09Z</time></trkpt><trkpt lat="45.79784766040177" lon="14.539440297956308"><ele>778.0</ele><time>2026-05-05T09:43:10Z</time></trkpt><trkpt lat="45.79794366024095" lon="14.539221157139028"><ele>778.0</ele><time>2026-05-05T09:43:11Z</time></trkpt><trkpt lat="45.79802905427536" lon="14.538998177671411"><ele>778.0</ele><time>2026-05-05T09:43:12Z</time></trkpt><trkpt lat="45.79810755592811" lon="14.538790794020395"><ele>778.0</ele><time>2026-05-05T09:43:13Z</time></trkpt><trkpt lat="45.79821163022221" lon="14.538622740167474"><ele>776.3333333333333</ele><time>2026-05-05T09:43:14Z</time></trkpt><trkpt lat="45.798325889878285" lon="14.538457453606794"><ele>774.6666666666667</ele><time>2026-05-05T09:43:15Z</time></trkpt><trkpt lat="45.798428536070816" lon="14.538289895842437"><ele>773.0</ele><time>2026-05-05T09:43:16Z</time></trkpt><trkpt lat="45.798523389595914" lon="14.538139277705033"><ele>772.75</ele><time>2026-05-05T09:43:17Z</time></trkpt><trkpt lat="45.798563300947706" lon="14.537968071730972"><ele>772.5</ele><time>2026-05-05T09:43:18Z</time></trkpt><trkpt lat="45.79854734833149" lon="14.537791916293843"><ele>772.25</ele><time>2026-05-05T09:43:19Z</time></trkpt><trkpt lat="45.79847947715468" lon="14.537635172123565"><ele>772.0</ele><time>2026-05-05T09:43:20Z</time></trkpt><trkpt lat="45.79836928607307" lon="14.537503216866424"><ele>770.3333333333333</ele><time>2026-05-05T09:43:21Z</time></trkpt><trkpt lat="45.79823421813813" lon="14.53739270374426"><ele>768.6666666666666</ele><time>2026-05-05T09:43:22Z</time></trkpt><trkpt lat="45.79811580083896" lon="14.53722804868332"><ele>767.0</ele><time>2026-05-05T09:43:23Z</time></trkpt><trkpt lat="45.797989618101234" lon="14.537049311054929"><ele>764.6666666666666</ele><time>2026-05-05T09:43:24Z</time></trkpt><trkpt lat="45.79788264934669" lon="14.536858844612881"><ele>762.3333333333334</ele><time>2026-05-05T09:43:25Z</time></trkpt><trkpt lat="45.79780126015242" lon="14.536645932371508"><ele>760.0</ele><time>2026-05-05T09:43:26Z</time></trkpt><trkpt lat="45.79772956631483" lon="14.536414347823301"><ele>759.3333333333334</ele><time>2026-05-05T09:43:27Z</time></trkpt><trkpt lat="45.79768586992357" lon="14.536166990075994"><ele>758.6666666666666</ele><time>2026-05-05T09:43:28Z</time></trkpt><trkpt lat="45.79766787089109" lon="14.535911415716056"><ele>758.0</ele><time>2026-05-05T09:43:29Z</time></trkpt><trkpt lat="45.797667142577865" lon="14.535641709560247"><ele>758.0</ele><time>2026-05-05T09:43:30Z</time></trkpt><trkpt lat="45.79765957112483" lon="14.535367498071832"><ele>758.0</ele><time>2026-05-05T09:43:31Z</time></trkpt><trkpt lat="45.79768341687086" lon="14.535102918140986"><ele>758.0</ele><time>2026-05-05T09:43:32Z</time></trkpt><trkpt lat="45.79772145669731" lon="14.534861632277188"><ele>758.0</ele><time>2026-05-05T09:43:33Z</time></trkpt><trkpt lat="45.79773370052514" lon="14.534640921036257"><ele>758.0</ele><time>2026-05-05T09:43:34Z</time></trkpt><trkpt lat="45.79771867029991" lon="14.534415199948501"><ele>758.0</ele><time>2026-05-05T09:43:35Z</time></trkpt><trkpt lat="45.79766693859498" lon="14.534192786517215"><ele>762.0</ele><time>2026-05-05T09:43:36Z</time></trkpt><trkpt lat="45.79758882356665" lon="14.533970010858306"><ele>766.0</ele><time>2026-05-05T09:43:37Z</time></trkpt><trkpt lat="45.79749066643459" lon="14.533755784161855"><ele>770.0</ele><time>2026-05-05T09:43:38Z</time></trkpt><trkpt lat="45.79738041336831" lon="14.533550192826137"><ele>771.0</ele><time>2026-05-05T09:43:39Z</time></trkpt><trkpt lat="45.79726108508514" lon="14.533362084898297"><ele>772.0</ele><time>2026-05-05T09:43:40Z</time></trkpt><trkpt lat="45.797151275969135" lon="14.533192171460811"><ele>773.0</ele><time>2026-05-05T09:43:41Z</time></trkpt><trkpt lat="45.79709939815665" lon="14.532993766471352"><ele>772.75</ele><time>2026-05-05T09:43:42Z</time></trkpt><trkpt lat="45.797071382064395" lon="14.532809321625077"><ele>772.5</ele><time>2026-05-05T09:43:43Z</time></trkpt><trkpt lat="45.79709643678305" lon="14.532619536068331"><ele>772.25</ele><time>2026-05-05T09:43:44Z</time></trkpt><trkpt lat="45.7971007268286" lon="14.532412395489443"><ele>772.0</ele><time>2026-05-05T09:43:45Z</time></trkpt><trkpt lat="45.797073636076995" lon="14.532199015918462"><ele>773.0</ele><time>2026-05-05T09:43:46Z</time></trkpt><trkpt lat="45.797018571466175" lon="14.531966563124792"><ele>774.0</ele><time>2026-05-05T09:43:47Z</time></trkpt><trkpt lat="45.7969157992465" lon="14.531759377229152"><ele>775.0</ele><time>2026-05-05T09:43:48Z</time></trkpt><trkpt lat="45.79679126918163" lon="14.531579174411542"><ele>775.0</ele><time>2026-05-05T09:43:49Z</time></trkpt><trkpt lat="45.79663888319999" lon="14.5314342760418"><ele>775.0</ele><time>2026-05-05T09:43:50Z</time></trkpt><trkpt lat="45.79648033212708" lon="14.531308855152359"><ele>775.0</ele><time>2026-05-05T09:43:51Z</time></trkpt><trkpt lat="45.79631139983436" lon="14.531191649077334"><ele>774.6666666666666</ele><time>2026-05-05T09:43:52Z</time></trkpt><trkpt lat="45.79615577625025" lon="14.531070698330206"><ele>774.3333333333333</ele><time>2026-05-05T09:43:53Z</time></trkpt><trkpt lat="45.796041642837324" lon="14.53091578227049"><ele>774.0</ele><time>2026-05-05T09:43:54Z</time></trkpt><trkpt lat="45.79592198316529" lon="14.530746989341393"><ele>774.0</ele><time>2026-05-05T09:43:55Z</time></trkpt><trkpt lat="45.79592000808781" lon="14.530532772104515"><ele>774.0</ele><time>2026-05-05T09:43:56Z</time></trkpt><trkpt lat="45.795918715822935" lon="14.53030617755897"><ele>774.0</ele><time>2026-05-05T09:43:57Z</time></trkpt><trkpt lat="45.79589821833902" lon="14.530088146434897"><ele>774.3333333333333</ele><time>2026-05-05T09:43:58Z</time></trkpt><trkpt lat="45.795890395832416" lon="14.52986990244714"><ele>774.6666666666666</ele><time>2026-05-05T09:43:59Z</time></trkpt><trkpt lat="45.79583544091452" lon="14.529652530672331"><ele>775.0</ele><time>2026-05-05T09:44:00Z</time></trkpt><trkpt lat="45.795754562653016" lon="14.529423832001088"><ele>775.0</ele><time>2026-05-05T09:44:01Z</time></trkpt><trkpt lat="45.79565566442142" lon="14.529185703428281"><ele>775.0</ele><time>2026-05-05T09:44:02Z</time></trkpt><trkpt lat="45.79555202769503" lon="14.528924631931217"><ele>775.0</ele><time>2026-05-05T09:44:03Z</time></trkpt><trkpt lat="45.79547851094035" lon="14.52864774696127"><ele>775.6666666666666</ele><time>2026-05-05T09:44:04Z</time></trkpt><trkpt lat="45.79537795640605" lon="14.528396124239148"><ele>776.3333333333333</ele><time>2026-05-05T09:44:05Z</time></trkpt><trkpt lat="45.79530512459931" lon="14.52814275129912"><ele>777.0</ele><time>2026-05-05T09:44:06Z</time></trkpt><trkpt lat="45.795234509769394" lon="14.527895560422449"><ele>776.3333333333333</ele><time>2026-05-05T09:44:07Z</time></trkpt><trkpt lat="45.79518926620484" lon="14.527631497896023"><ele>775.6666666666666</ele><time>2026-05-05T09:44:08Z</time></trkpt><trkpt lat="45.795161081951655" lon="14.52735542454563"><ele>775.0</ele><time>2026-05-05T09:44:09Z</time></trkpt><trkpt lat="45.79514794988729" lon="14.527059610214787"><ele>773.6666666666666</ele><time>2026-05-05T09:44:10Z</time></trkpt><trkpt lat="45.795147588199676" lon="14.526756163517224"><ele>772.3333333333333</ele><time>2026-05-05T09:44:11Z</time></trkpt><trkpt lat="45.795153164910175" lon="14.52645906555152"><ele>771.0</ele><time>2026-05-05T09:44:12Z</time></trkpt><trkpt lat="45.79515009052407" lon="14.526186190568511"><ele>770.3333333333333</ele><time>2026-05-05T09:44:13Z</time></trkpt><trkpt lat="45.79514735697771" lon="14.525931779379892"><ele>769.6666666666666</ele><time>2026-05-05T09:44:14Z</time></trkpt><trkpt lat="45.795209180710025" lon="14.525710083752639"><ele>769.0</ele><time>2026-05-05T09:44:15Z</time></trkpt><trkpt lat="45.79523239893477" lon="14.525480458009367"><ele>767.6666666666666</ele><time>2026-05-05T09:44:16Z</time></trkpt><trkpt lat="45.795250520098975" lon="14.525251294599638"><ele>766.3333333333333</ele><time>2026-05-05T09:44:17Z</time></trkpt><trkpt lat="45.79521456393614" lon="14.525013659919102"><ele>765.0</ele><time>2026-05-05T09:44:18Z</time></trkpt><trkpt lat="45.795118190868386" lon="14.52475954177336"><ele>762.6666666666666</ele><time>2026-05-05T09:44:19Z</time></trkpt><trkpt lat="45.7950068081003" lon="14.524507364756094"><ele>760.3333333333333</ele><time>2026-05-05T09:44:20Z</time></trkpt><trkpt lat="45.794938335762666" lon="14.524237009425802"><ele>758.0</ele><time>2026-05-05T09:44:21Z</time></trkpt><trkpt lat="45.794886743592855" lon="14.523947696538066"><ele>755.3333333333333</ele><time>2026-05-05T09:44:22Z</time></trkpt><trkpt lat="45.79483484903638" lon="14.523655720761491"><ele>752.6666666666666</ele><time>2026-05-05T09:44:23Z</time></trkpt><trkpt lat="45.79481090659445" lon="14.523370705930096"><ele>750.0</ele><time>2026-05-05T09:44:24Z</time></trkpt><trkpt lat="45.79479345337618" lon="14.52309338209553"><ele>751.3333333333334</ele><time>2026-05-05T09:44:25Z</time></trkpt><trkpt lat="45.79478626027597" lon="14.52281210020313"><ele>752.6666666666667</ele><time>2026-05-05T09:44:26Z</time></trkpt><trkpt lat="45.794781453523804" lon="14.522534479407009"><ele>754.0</ele><time>2026-05-05T09:44:27Z</time></trkpt><trkpt lat="45.79478124514215" lon="14.522253097008916"><ele>756.3333333333334</ele><time>2026-05-05T09:44:28Z</time></trkpt><trkpt lat="45.7947752858187" lon="14.521976790194293"><ele>758.6666666666666</ele><time>2026-05-05T09:44:29Z</time></trkpt><trkpt lat="45.79476539492543" lon="14.521699267111698"><ele>761.0</ele><time>2026-05-05T09:44:30Z</time></trkpt><trkpt lat="45.794733734755575" lon="14.521416947771483"><ele>761.3333333333333</ele><time>2026-05-05T09:44:31Z</time></trkpt><trkpt lat="45.79468767097099" lon="14.521119688458676"><ele>761.6666666666666</ele><time>2026-05-05T09:44:32Z</time></trkpt><trkpt lat="45.794629088801315" lon="14.520808992987796"><ele>762.0</ele><time>2026-05-05T09:44:33Z</time></trkpt><trkpt lat="45.79457843993061" lon="14.520486991134678"><ele>760.5</ele><time>2026-05-05T09:44:34Z</time></trkpt><trkpt lat="45.79454161158606" lon="14.520152638762708"><ele>759.0</ele><time>2026-05-05T09:44:35Z</time></trkpt><trkpt lat="45.79452841496949" lon="14.519815325458627"><ele>756.0</ele><time>2026-05-05T09:44:36Z</time></trkpt><trkpt lat="45.79448935901039" lon="14.51952788144395"><ele>753.0</ele><time>2026-05-05T09:44:37Z</time></trkpt><trkpt lat="45.79446138134366" lon="14.51926866602216"><ele>750.0</ele><time>2026-05-05T09:44:38Z</time></trkpt><trkpt lat="45.79442231713399" lon="14.518994535170627"><ele>747.3333333333334</ele><time>2026-05-05T09:44:39Z</time></trkpt><trkpt lat="45.794370860521845" lon="14.518702131616243"><ele>744.6666666666667</ele><time>2026-05-05T09:44:40Z</time></trkpt><trkpt lat="45.79433066526073" lon="14.518433362208466"><ele>742.0</ele><time>2026-05-05T09:44:41Z</time></trkpt><trkpt lat="45.79429650327548" lon="14.518186507033505"><ele>742.0</ele><time>2026-05-05T09:44:42Z</time></trkpt><trkpt lat="45.7942615798088" lon="14.517951867857457"><ele>742.0</ele><time>2026-05-05T09:44:43Z</time></trkpt><trkpt lat="45.79422712913497" lon="14.517720169761866"><ele>742.0</ele><time>2026-05-05T09:44:44Z</time></trkpt><trkpt lat="45.79419672610447" lon="14.51749304692635"><ele>742.2</ele><time>2026-05-05T09:44:45Z</time></trkpt><trkpt lat="45.794163031189115" lon="14.517297411839186"><ele>742.4000000000001</ele><time>2026-05-05T09:44:46Z</time></trkpt><trkpt lat="45.794136311002966" lon="14.517146326836722"><ele>742.5999999999999</ele><time>2026-05-05T09:44:47Z</time></trkpt><trkpt lat="45.794136324495774" lon="14.517048123884765"><ele>742.8</ele><time>2026-05-05T09:44:48Z</time></trkpt><trkpt lat="45.7941692043018" lon="14.516947027502868"><ele>743.0</ele><time>2026-05-05T09:44:50Z</time></trkpt><trkpt lat="45.794333953547394" lon="14.516876200173781"><ele>745.6666666666666</ele><time>2026-05-05T09:44:51Z</time></trkpt><trkpt lat="45.79444603445888" lon="14.516798103598575"><ele>748.3333333333334</ele><time>2026-05-05T09:44:52Z</time></trkpt><trkpt lat="45.794574728783" lon="14.5166572110321"><ele>751.0</ele><time>2026-05-05T09:44:53Z</time></trkpt><trkpt lat="45.794713340052816" lon="14.516471545179678"><ele>751.0</ele><time>2026-05-05T09:44:54Z</time></trkpt><trkpt lat="45.79485222304709" lon="14.516281849421466"><ele>751.0</ele><time>2026-05-05T09:44:55Z</time></trkpt><trkpt lat="45.795007372073044" lon="14.51613150250937"><ele>751.0</ele><time>2026-05-05T09:44:56Z</time></trkpt><trkpt lat="45.795197981591905" lon="14.516102388319846"><ele>751.3333333333334</ele><time>2026-05-05T09:44:57Z</time></trkpt><trkpt lat="45.79539284755318" lon="14.51609491533706"><ele>751.6666666666666</ele><time>2026-05-05T09:44:58Z</time></trkpt><trkpt lat="45.79559404587503" lon="14.516103481231465"><ele>752.0</ele><time>2026-05-05T09:44:59Z</time></trkpt><trkpt lat="45.79580109063654" lon="14.516127420022805"><ele>749.0</ele><time>2026-05-05T09:45:00Z</time></trkpt><trkpt lat="45.7960168548298" lon="14.516196021708526"><ele>746.0</ele><time>2026-05-05T09:45:01Z</time></trkpt><trkpt lat="45.79624716696089" lon="14.51628480011407"><ele>745.5</ele><time>2026-05-05T09:45:02Z</time></trkpt><trkpt lat="45.79647938159688" lon="14.516381028302076"><ele>745.0</ele><time>2026-05-05T09:45:03Z</time></trkpt><trkpt lat="45.79670265197357" lon="14.516476577624394"><ele>744.0</ele><time>2026-05-05T09:45:04Z</time></trkpt><trkpt lat="45.79692934466721" lon="14.51657385518822"><ele>743.0</ele><time>2026-05-05T09:45:05Z</time></trkpt><trkpt lat="45.79714683153696" lon="14.516670089398295"><ele>743.0</ele><time>2026-05-05T09:45:06Z</time></trkpt><trkpt lat="45.79736534319367" lon="14.516767082345492"><ele>743.0</ele><time>2026-05-05T09:45:07Z</time></trkpt><trkpt lat="45.79758005633652" lon="14.516865274995697"><ele>743.5</ele><time>2026-05-05T09:45:08Z</time></trkpt><trkpt lat="45.79779438340848" lon="14.51697007689038"><ele>744.0</ele><time>2026-05-05T09:45:09Z</time></trkpt><trkpt lat="45.79801169356426" lon="14.517072010031539"><ele>745.0</ele><time>2026-05-05T09:45:10Z</time></trkpt><trkpt lat="45.79822824331988" lon="14.517190466125214"><ele>746.0</ele><time>2026-05-05T09:45:11Z</time></trkpt><trkpt lat="45.79844564731291" lon="14.517343753937698"><ele>748.0</ele><time>2026-05-05T09:45:12Z</time></trkpt><trkpt lat="45.798657510347866" lon="14.517505288566966"><ele>750.0</ele><time>2026-05-05T09:45:13Z</time></trkpt><trkpt lat="45.798876596681644" lon="14.517644061662466"><ele>750.0</ele><time>2026-05-05T09:45:14Z</time></trkpt><trkpt lat="45.79910150621051" lon="14.517759244181397"><ele>750.0</ele><time>2026-05-05T09:45:15Z</time></trkpt><trkpt lat="45.79932241594775" lon="14.51786265435702"><ele>749.3333333333334</ele><time>2026-05-05T09:45:16Z</time></trkpt><trkpt lat="45.79952286069458" lon="14.517960332199957"><ele>748.6666666666667</ele><time>2026-05-05T09:45:17Z</time></trkpt><trkpt lat="45.799703369283336" lon="14.518037701714631"><ele>748.0</ele><time>2026-05-05T09:45:18Z</time></trkpt><trkpt lat="45.79988207838668" lon="14.5180686926711"><ele>748.0</ele><time>2026-05-05T09:45:19Z</time></trkpt><trkpt lat="45.80007290580066" lon="14.518073195811589"><ele>748.0</ele><time>2026-05-05T09:45:20Z</time></trkpt><trkpt lat="45.80025484816693" lon="14.518042842139279"><ele>748.0</ele><time>2026-05-05T09:45:21Z</time></trkpt><trkpt lat="45.80043070585298" lon="14.517995279361351"><ele>748.0</ele><time>2026-05-05T09:45:22Z</time></trkpt><trkpt lat="45.80059005062943" lon="14.517950872114987"><ele>748.0</ele><time>2026-05-05T09:45:23Z</time></trkpt><trkpt lat="45.800737416914224" lon="14.517890186733826"><ele>748.0</ele><time>2026-05-05T09:45:24Z</time></trkpt><trkpt lat="45.800874107390136" lon="14.517796436177889"><ele>748.3333333333334</ele><time>2026-05-05T09:45:25Z</time></trkpt><trkpt lat="45.80100838656099" lon="14.517649398597124"><ele>748.6666666666666</ele><time>2026-05-05T09:45:26Z</time></trkpt><trkpt lat="45.80115299715493" lon="14.517464226351327"><ele>749.0</ele><time>2026-05-05T09:45:27Z</time></trkpt><trkpt lat="45.801310521162115" lon="14.517260831853303"><ele>748.5</ele><time>2026-05-05T09:45:28Z</time></trkpt><trkpt lat="45.80147366426647" lon="14.517044078973024"><ele>748.0</ele><time>2026-05-05T09:45:29Z</time></trkpt><trkpt lat="45.80162546010826" lon="14.516801346463499"><ele>748.0</ele><time>2026-05-05T09:45:30Z</time></trkpt><trkpt lat="45.80175714314897" lon="14.516573773527837"><ele>748.0</ele><time>2026-05-05T09:45:31Z</time></trkpt><trkpt lat="45.8019100806376" lon="14.51642250311436"><ele>748.0</ele><time>2026-05-05T09:45:32Z</time></trkpt><trkpt lat="45.802062503199664" lon="14.516289630648751"><ele>747.6666666666667</ele><time>2026-05-05T09:45:33Z</time></trkpt><trkpt lat="45.80222252516863" lon="14.51618971285243"><ele>747.3333333333334</ele><time>2026-05-05T09:45:34Z</time></trkpt><trkpt lat="45.802354479427606" lon="14.516069973762924"><ele>747.0</ele><time>2026-05-05T09:45:35Z</time></trkpt><trkpt lat="45.80245587209055" lon="14.515938217257505"><ele>747.0</ele><time>2026-05-05T09:45:36Z</time></trkpt><trkpt lat="45.80251754639397" lon="14.515776519222001"><ele>747.0</ele><time>2026-05-05T09:45:37Z</time></trkpt><trkpt lat="45.80252209209435" lon="14.515597920460083"><ele>747.0</ele><time>2026-05-05T09:45:38Z</time></trkpt><trkpt lat="45.80248246176521" lon="14.515419007578712"><ele>747.0</ele><time>2026-05-05T09:45:39Z</time></trkpt><trkpt lat="45.80242259642261" lon="14.515235870770306"><ele>747.0</ele><time>2026-05-05T09:45:40Z</time></trkpt><trkpt lat="45.80241971036738" lon="14.515022217337329"><ele>747.0</ele><time>2026-05-05T09:45:41Z</time></trkpt><trkpt lat="45.80246216045201" lon="14.514764709125261"><ele>747.0</ele><time>2026-05-05T09:45:42Z</time></trkpt><trkpt lat="45.80249153892475" lon="14.514484836453207"><ele>746.6666666666666</ele><time>2026-05-05T09:45:43Z</time></trkpt><trkpt lat="45.8025131861633" lon="14.514209765605935"><ele>746.3333333333333</ele><time>2026-05-05T09:45:44Z</time></trkpt><trkpt lat="45.80249916588579" lon="14.513953767805456"><ele>746.0</ele><time>2026-05-05T09:45:45Z</time></trkpt><trkpt lat="45.802487134817405" lon="14.513722544706512"><ele>747.0</ele><time>2026-05-05T09:45:46Z</time></trkpt><trkpt lat="45.802540365331424" lon="14.513515427177325"><ele>748.0</ele><time>2026-05-05T09:45:47Z</time></trkpt><trkpt lat="45.802635473037505" lon="14.51334036621928"><ele>749.0</ele><time>2026-05-05T09:45:48Z</time></trkpt><trkpt lat="45.80276136307621" lon="14.513215065170145"><ele>750.6666666666666</ele><time>2026-05-05T09:45:49Z</time></trkpt><trkpt lat="45.802908773606084" lon="14.51314250804932"><ele>752.3333333333334</ele><time>2026-05-05T09:45:50Z</time></trkpt><trkpt lat="45.803061374923075" lon="14.513075015266567"><ele>754.0</ele><time>2026-05-05T09:45:51Z</time></trkpt><trkpt lat="45.803218499671935" lon="14.51299853972767"><ele>754.0</ele><time>2026-05-05T09:45:52Z</time></trkpt><trkpt lat="45.8034029077601" lon="14.51299554129636"><ele>754.0</ele><time>2026-05-05T09:45:53Z</time></trkpt><trkpt lat="45.8035793494209" lon="14.512938607496617"><ele>754.0</ele><time>2026-05-05T09:45:54Z</time></trkpt><trkpt lat="45.803756615094386" lon="14.512883055550104"><ele>754.3333333333334</ele><time>2026-05-05T09:45:55Z</time></trkpt><trkpt lat="45.80393817474885" lon="14.512838499145804"><ele>754.6666666666666</ele><time>2026-05-05T09:45:56Z</time></trkpt><trkpt lat="45.804123229500384" lon="14.512809706052185"><ele>755.0</ele><time>2026-05-05T09:45:57Z</time></trkpt><trkpt lat="45.80430102644563" lon="14.51279748921723"><ele>756.3333333333333</ele><time>2026-05-05T09:45:58Z</time></trkpt><trkpt lat="45.80446960126382" lon="14.512775947405993"><ele>757.6666666666666</ele><time>2026-05-05T09:45:59Z</time></trkpt><trkpt lat="45.8046234108377" lon="14.512718917536715"><ele>759.0</ele><time>2026-05-05T09:46:00Z</time></trkpt><trkpt lat="45.804773731472416" lon="14.512612644000342"><ele>759.0</ele><time>2026-05-05T09:46:01Z</time></trkpt><trkpt lat="45.80491340493966" lon="14.512476352871372"><ele>759.0</ele><time>2026-05-05T09:46:02Z</time></trkpt><trkpt lat="45.80503067685567" lon="14.512337707265372"><ele>759.0</ele><time>2026-05-05T09:46:03Z</time></trkpt><trkpt lat="45.80513880084027" lon="14.512226210012724"><ele>759.0</ele><time>2026-05-05T09:46:04Z</time></trkpt><trkpt lat="45.805244222863344" lon="14.512163673840817"><ele>759.0</ele><time>2026-05-05T09:46:05Z</time></trkpt><trkpt lat="45.805353079783096" lon="14.512133219973345"><ele>759.0</ele><time>2026-05-05T09:46:06Z</time></trkpt><trkpt lat="45.805463978787984" lon="14.51210679554401"><ele>759.0</ele><time>2026-05-05T09:46:07Z</time></trkpt><trkpt lat="45.805575603247846" lon="14.512078923171892"><ele>758.4000000000001</ele><time>2026-05-05T09:46:08Z</time></trkpt><trkpt lat="45.80568564821622" lon="14.51205530824162"><ele>757.8</ele><time>2026-05-05T09:46:09Z</time></trkpt><trkpt lat="45.80578503221124" lon="14.512028094461645"><ele>757.2</ele><time>2026-05-05T09:46:10Z</time></trkpt><trkpt lat="45.80587029660561" lon="14.511966558647536"><ele>756.5999999999999</ele><time>2026-05-05T09:46:11Z</time></trkpt><trkpt lat="45.805922613003794" lon="14.511842773514063"><ele>756.0</ele><time>2026-05-05T09:46:12Z</time></trkpt><trkpt lat="45.80593739309829" lon="14.511681430586219"><ele>756.0</ele><time>2026-05-05T09:46:13Z</time></trkpt><trkpt lat="45.80593710320805" lon="14.511506035184826"><ele>756.0</ele><time>2026-05-05T09:46:14Z</time></trkpt><trkpt lat="45.80594302245298" lon="14.511335425465111"><ele>756.0</ele><time>2026-05-05T09:46:15Z</time></trkpt><trkpt lat="45.805960353994855" lon="14.511175386888835"><ele>756.0</ele><time>2026-05-05T09:46:16Z</time></trkpt><trkpt lat="45.80597841917156" lon="14.511015991780178"><ele>756.25</ele><time>2026-05-05T09:46:17Z</time></trkpt><trkpt lat="45.80599013196393" lon="14.510851423593884"><ele>756.5</ele><time>2026-05-05T09:46:18Z</time></trkpt><trkpt lat="45.8059925120075" lon="14.5106788841571"><ele>756.75</ele><time>2026-05-05T09:46:19Z</time></trkpt><trkpt lat="45.80598933279275" lon="14.510495783088317"><ele>757.0</ele><time>2026-05-05T09:46:20Z</time></trkpt><trkpt lat="45.80599109685764" lon="14.510299709001098"><ele>758.0</ele><time>2026-05-05T09:46:21Z</time></trkpt><trkpt lat="45.80600790703543" lon="14.510101035580286"><ele>759.0</ele><time>2026-05-05T09:46:22Z</time></trkpt><trkpt lat="45.80604098228465" lon="14.509920761026276"><ele>760.0</ele><time>2026-05-05T09:46:23Z</time></trkpt><trkpt lat="45.8060738744037" lon="14.50974978860764"><ele>761.0</ele><time>2026-05-05T09:46:24Z</time></trkpt><trkpt lat="45.806105924477635" lon="14.50959773554721"><ele>761.5</ele><time>2026-05-05T09:46:25Z</time></trkpt><trkpt lat="45.80611712716157" lon="14.509467409282747"><ele>762.0</ele><time>2026-05-05T09:46:26Z</time></trkpt><trkpt lat="45.80608307671696" lon="14.509340219707738"><ele>762.5</ele><time>2026-05-05T09:46:27Z</time></trkpt><trkpt lat="45.80601103049518" lon="14.50919238436931"><ele>763.0</ele><time>2026-05-05T09:46:28Z</time></trkpt><trkpt lat="45.80593272190841" lon="14.509014971496281"><ele>763.0</ele><time>2026-05-05T09:46:29Z</time></trkpt><trkpt lat="45.805880495840384" lon="14.508805341696377"><ele>763.0</ele><time>2026-05-05T09:46:30Z</time></trkpt><trkpt lat="45.80583488992056" lon="14.508620916781625"><ele>763.0</ele><time>2026-05-05T09:46:31Z</time></trkpt><trkpt lat="45.80577145252468" lon="14.50846064793764"><ele>763.0</ele><time>2026-05-05T09:46:32Z</time></trkpt><trkpt lat="45.80568533894867" lon="14.50833692833419"><ele>763.5</ele><time>2026-05-05T09:46:33Z</time></trkpt><trkpt lat="45.80558642322708" lon="14.508218123844845"><ele>764.0</ele><time>2026-05-05T09:46:34Z</time></trkpt><trkpt lat="45.805488486542416" lon="14.50809812556474"><ele>764.5</ele><time>2026-05-05T09:46:35Z</time></trkpt><trkpt lat="45.80540308687419" lon="14.507980156316398"><ele>765.0</ele><time>2026-05-05T09:46:36Z</time></trkpt><trkpt lat="45.8053327967819" lon="14.507851759805439"><ele>765.0</ele><time>2026-05-05T09:46:37Z</time></trkpt><trkpt lat="45.80527279207356" lon="14.507713181444732"><ele>765.0</ele><time>2026-05-05T09:46:38Z</time></trkpt><trkpt lat="45.8052158606404" lon="14.507561858932073"><ele>765.0</ele><time>2026-05-05T09:46:39Z</time></trkpt><trkpt lat="45.80516143916855" lon="14.507386856628655"><ele>765.0</ele><time>2026-05-05T09:46:40Z</time></trkpt><trkpt lat="45.80511005961286" lon="14.507196080799185"><ele>761.6666666666666</ele><time>2026-05-05T09:46:41Z</time></trkpt><trkpt lat="45.805067076397144" lon="14.506984213756839"><ele>758.3333333333333</ele><time>2026-05-05T09:46:42Z</time></trkpt><trkpt lat="45.805027720392324" lon="14.506757204907585"><ele>755.0</ele><time>2026-05-05T09:46:43Z</time></trkpt><trkpt lat="45.80498532863917" lon="14.506514005186201"><ele>755.0</ele><time>2026-05-05T09:46:44Z</time></trkpt><trkpt lat="45.80493691556995" lon="14.506248832313801"><ele>755.0</ele><time>2026-05-05T09:46:45Z</time></trkpt><trkpt lat="45.80488060294083" lon="14.505968512359038"><ele>755.0</ele><time>2026-05-05T09:46:46Z</time></trkpt><trkpt lat="45.80481865534533" lon="14.505678508657924"><ele>755.0</ele><time>2026-05-05T09:46:47Z</time></trkpt><trkpt lat="45.80475914896369" lon="14.505379160760336"><ele>755.0</ele><time>2026-05-05T09:46:48Z</time></trkpt><trkpt lat="45.80474347570999" lon="14.50523294582423"><ele>755.0</ele><time>2026-05-05T09:46:49Z</time></trkpt><trkpt lat="45.80469100552826" lon="14.504882602205376"><ele>754.0</ele><time>2026-05-05T09:46:50Z</time></trkpt><trkpt lat="45.80466048136463" lon="14.50457537381159"><ele>753.0</ele><time>2026-05-05T09:46:51Z</time></trkpt><trkpt lat="45.80463103080527" lon="14.504259011316478"><ele>752.0</ele><time>2026-05-05T09:46:52Z</time></trkpt><trkpt lat="45.80459630146568" lon="14.503965479613942"><ele>751.0</ele><time>2026-05-05T09:46:53Z</time></trkpt><trkpt lat="45.804556765038555" lon="14.503694924753589"><ele>750.0</ele><time>2026-05-05T09:46:54Z</time></trkpt><trkpt lat="45.8045388810035" lon="14.503451883907235"><ele>749.0</ele><time>2026-05-05T09:46:55Z</time></trkpt><trkpt lat="45.804530605877886" lon="14.503231234205538"><ele>749.0</ele><time>2026-05-05T09:46:56Z</time></trkpt><trkpt lat="45.80457354316955" lon="14.503012897620367"><ele>749.0</ele><time>2026-05-05T09:46:57Z</time></trkpt><trkpt lat="45.80464831700461" lon="14.502777611397352"><ele>749.0</ele><time>2026-05-05T09:46:58Z</time></trkpt><trkpt lat="45.804723773292984" lon="14.502527360236408"><ele>747.0</ele><time>2026-05-05T09:46:59Z</time></trkpt><trkpt lat="45.80478436338508" lon="14.502283394647412"><ele>745.0</ele><time>2026-05-05T09:47:00Z</time></trkpt><trkpt lat="45.80484517795909" lon="14.50206927523396"><ele>743.0</ele><time>2026-05-05T09:47:01Z</time></trkpt><trkpt lat="45.80495943630733" lon="14.501927572629747"><ele>741.3333333333333</ele><time>2026-05-05T09:47:02Z</time></trkpt><trkpt lat="45.80508561397946" lon="14.501806890090535"><ele>739.6666666666666</ele><time>2026-05-05T09:47:03Z</time></trkpt><trkpt lat="45.805230122404595" lon="14.501692602811733"><ele>738.0</ele><time>2026-05-05T09:47:04Z</time></trkpt><trkpt lat="45.80537809216689" lon="14.501559893608267"><ele>738.0</ele><time>2026-05-05T09:47:05Z</time></trkpt><trkpt lat="45.80553299154657" lon="14.501453680239834"><ele>738.0</ele><time>2026-05-05T09:47:06Z</time></trkpt><trkpt lat="45.80567977368408" lon="14.501338780613096"><ele>738.0</ele><time>2026-05-05T09:47:07Z</time></trkpt><trkpt lat="45.8058172423427" lon="14.501207130217722"><ele>735.6666666666666</ele><time>2026-05-05T09:47:08Z</time></trkpt><trkpt lat="45.80592820075324" lon="14.501045723053764"><ele>733.3333333333333</ele><time>2026-05-05T09:47:09Z</time></trkpt><trkpt lat="45.80599182303595" lon="14.500824268137006"><ele>731.0</ele><time>2026-05-05T09:47:10Z</time></trkpt><trkpt lat="45.8060086812244" lon="14.50055589954197"><ele>730.5</ele><time>2026-05-05T09:47:11Z</time></trkpt><trkpt lat="45.80601609018593" lon="14.50024103998325"><ele>730.0</ele><time>2026-05-05T09:47:12Z</time></trkpt><trkpt lat="45.80603247925133" lon="14.499910605362432"><ele>730.5</ele><time>2026-05-05T09:47:13Z</time></trkpt><trkpt lat="45.806049071673975" lon="14.499562500875287"><ele>731.0</ele><time>2026-05-05T09:47:14Z</time></trkpt><trkpt lat="45.806066716352746" lon="14.499203518326023"><ele>731.0</ele><time>2026-05-05T09:47:15Z</time></trkpt><trkpt lat="45.80608494251862" lon="14.498851009370878"><ele>731.0</ele><time>2026-05-05T09:47:16Z</time></trkpt><trkpt lat="45.80609944936102" lon="14.498514995672659"><ele>730.6666666666666</ele><time>2026-05-05T09:47:17Z</time></trkpt><trkpt lat="45.806111607011005" lon="14.498211915763402"><ele>730.3333333333334</ele><time>2026-05-05T09:47:18Z</time></trkpt><trkpt lat="45.80611240605871" lon="14.497918560030268"><ele>730.0</ele><time>2026-05-05T09:47:19Z</time></trkpt><trkpt lat="45.80613500621203" lon="14.4976491276925"><ele>728.3333333333334</ele><time>2026-05-05T09:47:20Z</time></trkpt><trkpt lat="45.8061675744646" lon="14.497401219641393"><ele>726.6666666666666</ele><time>2026-05-05T09:47:21Z</time></trkpt><trkpt lat="45.806233351187544" lon="14.497169280618186"><ele>725.0</ele><time>2026-05-05T09:47:22Z</time></trkpt><trkpt lat="45.806348858537675" lon="14.496997901955297"><ele>722.3333333333333</ele><time>2026-05-05T09:47:23Z</time></trkpt><trkpt lat="45.806477942359926" lon="14.496870042546282"><ele>719.6666666666666</ele><time>2026-05-05T09:47:24Z</time></trkpt><trkpt lat="45.80661510568078" lon="14.496765413329902"><ele>717.0</ele><time>2026-05-05T09:47:25Z</time></trkpt><trkpt lat="45.80675441435598" lon="14.496655802546643"><ele>717.6666666666666</ele><time>2026-05-05T09:47:26Z</time></trkpt><trkpt lat="45.8069087515541" lon="14.49655154506271"><ele>718.3333333333333</ele><time>2026-05-05T09:47:27Z</time></trkpt><trkpt lat="45.80706130665932" lon="14.496415403135114"><ele>719.0</ele><time>2026-05-05T09:47:28Z</time></trkpt><trkpt lat="45.807207132819016" lon="14.496252369002633"><ele>716.6666666666666</ele><time>2026-05-05T09:47:29Z</time></trkpt><trkpt lat="45.8073342093305" lon="14.496070189599056"><ele>714.3333333333334</ele><time>2026-05-05T09:47:30Z</time></trkpt><trkpt lat="45.80743486473372" lon="14.495850678471733"><ele>712.0</ele><time>2026-05-05T09:47:31Z</time></trkpt><trkpt lat="45.807510815386316" lon="14.495591847869004"><ele>711.0</ele><time>2026-05-05T09:47:32Z</time></trkpt><trkpt lat="45.80758348696155" lon="14.495336544811751"><ele>710.0</ele><time>2026-05-05T09:47:33Z</time></trkpt><trkpt lat="45.80768369730709" lon="14.495131181339863"><ele>709.0</ele><time>2026-05-05T09:47:34Z</time></trkpt><trkpt lat="45.8077947073768" lon="14.494969558510908"><ele>707.3333333333334</ele><time>2026-05-05T09:47:35Z</time></trkpt><trkpt lat="45.80792584225384" lon="14.494871006985232"><ele>705.6666666666666</ele><time>2026-05-05T09:47:36Z</time></trkpt><trkpt lat="45.80807666237435" lon="14.494816830892612"><ele>704.0</ele><time>2026-05-05T09:47:37Z</time></trkpt><trkpt lat="45.808245545026374" lon="14.494755612812938"><ele>704.0</ele><time>2026-05-05T09:47:38Z</time></trkpt><trkpt lat="45.80843054809436" lon="14.494659298666585"><ele>704.0</ele><time>2026-05-05T09:47:39Z</time></trkpt><trkpt lat="45.808615331759675" lon="14.494582911866932"><ele>704.0</ele><time>2026-05-05T09:47:40Z</time></trkpt><trkpt lat="45.80878684491455" lon="14.494490578268035"><ele>703.0</ele><time>2026-05-05T09:47:41Z</time></trkpt><trkpt lat="45.80893497830807" lon="14.494366750424321"><ele>702.0</ele><time>2026-05-05T09:47:42Z</time></trkpt><trkpt lat="45.80907114269481" lon="14.494186822079373"><ele>701.0</ele><time>2026-05-05T09:47:43Z</time></trkpt><trkpt lat="45.80919990781615" lon="14.493954607775866"><ele>702.3333333333333</ele><time>2026-05-05T09:47:44Z</time></trkpt><trkpt lat="45.80934158627567" lon="14.493710398797823"><ele>703.6666666666666</ele><time>2026-05-05T09:47:45Z</time></trkpt><trkpt lat="45.80949199408461" lon="14.493470567523326"><ele>705.0</ele><time>2026-05-05T09:47:46Z</time></trkpt><trkpt lat="45.80964650804509" lon="14.493229228069351"><ele>705.0</ele><time>2026-05-05T09:47:47Z</time></trkpt><trkpt lat="45.80977912515418" lon="14.493006156634904"><ele>705.0</ele><time>2026-05-05T09:47:48Z</time></trkpt><trkpt lat="45.809897386741646" lon="14.492801599726338"><ele>705.0</ele><time>2026-05-05T09:47:49Z</time></trkpt><trkpt lat="45.810014007735646" lon="14.49267438032087"><ele>704.25</ele><time>2026-05-05T09:47:50Z</time></trkpt><trkpt lat="45.81014252973857" lon="14.492594179001667"><ele>703.5</ele><time>2026-05-05T09:47:51Z</time></trkpt><trkpt lat="45.81026910117215" lon="14.492498212858749"><ele>702.75</ele><time>2026-05-05T09:47:52Z</time></trkpt><trkpt lat="45.810412305495795" lon="14.492431217395556"><ele>702.0</ele><time>2026-05-05T09:47:53Z</time></trkpt><trkpt lat="45.81055706751229" lon="14.492341417894663"><ele>702.0</ele><time>2026-05-05T09:47:54Z</time></trkpt><trkpt lat="45.810698425211974" lon="14.492213005105091"><ele>702.0</ele><time>2026-05-05T09:47:55Z</time></trkpt><trkpt lat="45.81082551257355" lon="14.492036095650493"><ele>702.0</ele><time>2026-05-05T09:47:56Z</time></trkpt><trkpt lat="45.81093015988996" lon="14.491805220723563"><ele>703.3333333333334</ele><time>2026-05-05T09:47:57Z</time></trkpt><trkpt lat="45.811026207750345" lon="14.491557042293872"><ele>704.6666666666667</ele><time>2026-05-05T09:47:58Z</time></trkpt><trkpt lat="45.811150057925445" lon="14.491329331997067"><ele>706.0</ele><time>2026-05-05T09:47:59Z</time></trkpt><trkpt lat="45.8112646347985" lon="14.491081788488371"><ele>703.0</ele><time>2026-05-05T09:48:00Z</time></trkpt><trkpt lat="45.811366321765995" lon="14.490830138193534"><ele>700.0</ele><time>2026-05-05T09:48:01Z</time></trkpt><trkpt lat="45.811487724522976" lon="14.490599807748012"><ele>697.0</ele><time>2026-05-05T09:48:02Z</time></trkpt><trkpt lat="45.81159351888743" lon="14.490371241783137"><ele>694.6666666666667</ele><time>2026-05-05T09:48:03Z</time></trkpt><trkpt lat="45.811638710150845" lon="14.490102052811814"><ele>692.3333333333334</ele><time>2026-05-05T09:48:04Z</time></trkpt><trkpt lat="45.81169716774232" lon="14.489837603078671"><ele>690.0</ele><time>2026-05-05T09:48:05Z</time></trkpt><trkpt lat="45.811728489990834" lon="14.489543724363452"><ele>689.6666666666666</ele><time>2026-05-05T09:48:06Z</time></trkpt><trkpt lat="45.81174398286742" lon="14.489245870320303"><ele>689.3333333333333</ele><time>2026-05-05T09:48:07Z</time></trkpt><trkpt lat="45.81175708977032" lon="14.488944440221282"><ele>689.0</ele><time>2026-05-05T09:48:08Z</time></trkpt><trkpt lat="45.81177288157424" lon="14.488671238183455"><ele>691.0</ele><time>2026-05-05T09:48:09Z</time></trkpt><trkpt lat="45.811799896502215" lon="14.488426138488764"><ele>693.0</ele><time>2026-05-05T09:48:10Z</time></trkpt><trkpt lat="45.81185577847833" lon="14.488208809881685"><ele>695.0</ele><time>2026-05-05T09:48:11Z</time></trkpt><trkpt lat="45.81195309832729" lon="14.488022107572615"><ele>696.3333333333333</ele><time>2026-05-05T09:48:12Z</time></trkpt><trkpt lat="45.812072037197034" lon="14.487860814495638"><ele>697.6666666666666</ele><time>2026-05-05T09:48:13Z</time></trkpt><trkpt lat="45.81216314528958" lon="14.487660432141324"><ele>699.0</ele><time>2026-05-05T09:48:14Z</time></trkpt><trkpt lat="45.81221524392787" lon="14.48741570654179"><ele>699.0</ele><time>2026-05-05T09:48:15Z</time></trkpt><trkpt lat="45.812237102823346" lon="14.487141703022665"><ele>699.0</ele><time>2026-05-05T09:48:16Z</time></trkpt><trkpt lat="45.812248200655915" lon="14.486865387448903"><ele>699.0</ele><time>2026-05-05T09:48:17Z</time></trkpt><trkpt lat="45.812284089331115" lon="14.486579766431701"><ele>698.0</ele><time>2026-05-05T09:48:18Z</time></trkpt><trkpt lat="45.81231855880159" lon="14.486287261368801"><ele>697.0</ele><time>2026-05-05T09:48:19Z</time></trkpt><trkpt lat="45.81236015659405" lon="14.485989994414906"><ele>696.0</ele><time>2026-05-05T09:48:20Z</time></trkpt><trkpt lat="45.81242048459565" lon="14.48569412002549"><ele>693.3333333333334</ele><time>2026-05-05T09:48:21Z</time></trkpt><trkpt lat="45.81250714805617" lon="14.485406340591888"><ele>690.6666666666667</ele><time>2026-05-05T09:48:22Z</time></trkpt><trkpt lat="45.812609116171174" lon="14.485129165257712"><ele>688.0</ele><time>2026-05-05T09:48:23Z</time></trkpt><trkpt lat="45.812714885361515" lon="14.484837364780896"><ele>682.0</ele><time>2026-05-05T09:48:24Z</time></trkpt><trkpt lat="45.81281528659315" lon="14.484531447079531"><ele>676.0</ele><time>2026-05-05T09:48:25Z</time></trkpt><trkpt lat="45.812922833585844" lon="14.484214716719682"><ele>676.0</ele><time>2026-05-05T09:48:26Z</time></trkpt><trkpt lat="45.81303554391604" lon="14.48390059370066"><ele>676.0</ele><time>2026-05-05T09:48:27Z</time></trkpt><trkpt lat="45.813156749012016" lon="14.483589460295798"><ele>676.0</ele><time>2026-05-05T09:48:28Z</time></trkpt><trkpt lat="45.81327402819666" lon="14.483299144684018"><ele>676.0</ele><time>2026-05-05T09:48:29Z</time></trkpt><trkpt lat="45.81338005913385" lon="14.483033453373803"><ele>676.0</ele><time>2026-05-05T09:48:30Z</time></trkpt><trkpt lat="45.813467549447715" lon="14.482790345135625"><ele>679.6666666666667</ele><time>2026-05-05T09:48:31Z</time></trkpt><trkpt lat="45.813546280044015" lon="14.482559153354357"><ele>683.3333333333334</ele><time>2026-05-05T09:48:32Z</time></trkpt><trkpt lat="45.81362605394504" lon="14.482315891311664"><ele>687.0</ele><time>2026-05-05T09:48:33Z</time></trkpt><trkpt lat="45.81370861322849" lon="14.482070237034108"><ele>687.0</ele><time>2026-05-05T09:48:34Z</time></trkpt><trkpt lat="45.81380849588222" lon="14.481830149357378"><ele>687.0</ele><time>2026-05-05T09:48:35Z</time></trkpt><trkpt lat="45.81391376870754" lon="14.481608313019429"><ele>687.0</ele><time>2026-05-05T09:48:36Z</time></trkpt><trkpt lat="45.814003850542946" lon="14.48139387343901"><ele>685.0</ele><time>2026-05-05T09:48:37Z</time></trkpt><trkpt lat="45.814062832926815" lon="14.48116685998733"><ele>683.0</ele><time>2026-05-05T09:48:38Z</time></trkpt><trkpt lat="45.81407700850284" lon="14.480919540719029"><ele>681.0</ele><time>2026-05-05T09:48:39Z</time></trkpt><trkpt lat="45.814057127476744" lon="14.480683496732793"><ele>681.0</ele><time>2026-05-05T09:48:40Z</time></trkpt><trkpt lat="45.81405986446802" lon="14.480462549853687"><ele>681.0</ele><time>2026-05-05T09:48:41Z</time></trkpt><trkpt lat="45.81410729797116" lon="14.480253126763893"><ele>681.0</ele><time>2026-05-05T09:48:42Z</time></trkpt><trkpt lat="45.81418852425475" lon="14.480058314303998"><ele>681.6666666666666</ele><time>2026-05-05T09:48:43Z</time></trkpt><trkpt lat="45.81429321894451" lon="14.479857418860261"><ele>682.3333333333333</ele><time>2026-05-05T09:48:44Z</time></trkpt><trkpt lat="45.8144090920491" lon="14.479659247695569"><ele>683.0</ele><time>2026-05-05T09:48:45Z</time></trkpt><trkpt lat="45.81453413152542" lon="14.479470213656018"><ele>683.0</ele><time>2026-05-05T09:48:46Z</time></trkpt><trkpt lat="45.81465768123666" lon="14.47927881449511"><ele>683.0</ele><time>2026-05-05T09:48:47Z</time></trkpt><trkpt lat="45.814777100884676" lon="14.479078648966397"><ele>683.0</ele><time>2026-05-05T09:48:48Z</time></trkpt><trkpt lat="45.81489063482847" lon="14.478892549128766"><ele>679.0</ele><time>2026-05-05T09:48:49Z</time></trkpt><trkpt lat="45.81498897739666" lon="14.478705703291169"><ele>675.0</ele><time>2026-05-05T09:48:50Z</time></trkpt><trkpt lat="45.8150613873718" lon="14.478508592327707"><ele>671.0</ele><time>2026-05-05T09:48:51Z</time></trkpt><trkpt lat="45.815108461669475" lon="14.478266652620842"><ele>671.0</ele><time>2026-05-05T09:48:52Z</time></trkpt><trkpt lat="45.815117361429415" lon="14.478008258478637"><ele>671.0</ele><time>2026-05-05T09:48:53Z</time></trkpt><trkpt lat="45.81509982605588" lon="14.477750818456858"><ele>671.0</ele><time>2026-05-05T09:48:54Z</time></trkpt><trkpt lat="45.815105345212416" lon="14.477516166781891"><ele>672.6666666666666</ele><time>2026-05-05T09:48:55Z</time></trkpt><trkpt lat="45.81516100393944" lon="14.477321368151422"><ele>674.3333333333334</ele><time>2026-05-05T09:48:56Z</time></trkpt><trkpt lat="45.81525038429699" lon="14.47711420844128"><ele>676.0</ele><time>2026-05-05T09:48:57Z</time></trkpt><trkpt lat="45.8153477575789" lon="14.476892983325587"><ele>676.0</ele><time>2026-05-05T09:48:58Z</time></trkpt><trkpt lat="45.81544724050525" lon="14.47665650645347"><ele>676.0</ele><time>2026-05-05T09:48:59Z</time></trkpt><trkpt lat="45.81554615991563" lon="14.476397542399273"><ele>676.0</ele><time>2026-05-05T09:49:00Z</time></trkpt><trkpt lat="45.81565140924264" lon="14.476117981275753"><ele>673.5</ele><time>2026-05-05T09:49:01Z</time></trkpt><trkpt lat="45.815757694337954" lon="14.475821700603067"><ele>671.0</ele><time>2026-05-05T09:49:02Z</time></trkpt><trkpt lat="45.81586395953611" lon="14.475534818121538"><ele>671.0</ele><time>2026-05-05T09:49:03Z</time></trkpt><trkpt lat="45.815978509741676" lon="14.47528037607195"><ele>671.0</ele><time>2026-05-05T09:49:04Z</time></trkpt><trkpt lat="45.816098183640094" lon="14.475061137867131"><ele>671.0</ele><time>2026-05-05T09:49:05Z</time></trkpt><trkpt lat="45.81625715726867" lon="14.474886527924207"><ele>670.0</ele><time>2026-05-05T09:49:06Z</time></trkpt><trkpt lat="45.81642984440162" lon="14.474724025078212"><ele>669.0</ele><time>2026-05-05T09:49:07Z</time></trkpt><trkpt lat="45.816594836198256" lon="14.474585985057287"><ele>668.0</ele><time>2026-05-05T09:49:08Z</time></trkpt><trkpt lat="45.81675732958365" lon="14.474453686594643"><ele>667.6666666666666</ele><time>2026-05-05T09:49:09Z</time></trkpt><trkpt lat="45.81692622338335" lon="14.474340499052373"><ele>667.3333333333334</ele><time>2026-05-05T09:49:10Z</time></trkpt><trkpt lat="45.817090218947236" lon="14.47426195544891"><ele>667.0</ele><time>2026-05-05T09:49:11Z</time></trkpt><trkpt lat="45.81723749508281" lon="14.474183935886998"><ele>667.0</ele><time>2026-05-05T09:49:12Z</time></trkpt><trkpt lat="45.817364887616286" lon="14.474044741525404"><ele>667.0</ele><time>2026-05-05T09:49:13Z</time></trkpt><trkpt lat="45.8174563177574" lon="14.473829362191426"><ele>667.0</ele><time>2026-05-05T09:49:14Z</time></trkpt><trkpt lat="45.81751534415374" lon="14.473603041936348"><ele>665.75</ele><time>2026-05-05T09:49:15Z</time></trkpt><trkpt lat="45.81758407882817" lon="14.473444549896026"><ele>664.5</ele><time>2026-05-05T09:49:16Z</time></trkpt><trkpt lat="45.817686406880206" lon="14.47335107718867"><ele>663.25</ele><time>2026-05-05T09:49:17Z</time></trkpt><trkpt lat="45.817804500786664" lon="14.473322123278002"><ele>662.0</ele><time>2026-05-05T09:49:18Z</time></trkpt><trkpt lat="45.81791934941329" lon="14.473346985331005"><ele>662.0</ele><time>2026-05-05T09:49:19Z</time></trkpt><trkpt lat="45.81804484242324" lon="14.473397630869872"><ele>662.0</ele><time>2026-05-05T09:49:20Z</time></trkpt><trkpt lat="45.81817726256645" lon="14.473480619817526"><ele>662.0</ele><time>2026-05-05T09:49:21Z</time></trkpt><trkpt lat="45.81832764577094" lon="14.473487781783051"><ele>662.0</ele><time>2026-05-05T09:49:22Z</time></trkpt><trkpt lat="45.81847988501343" lon="14.473469743764483"><ele>663.75</ele><time>2026-05-05T09:49:23Z</time></trkpt><trkpt lat="45.8186285429285" lon="14.473404515385662"><ele>665.5</ele><time>2026-05-05T09:49:24Z</time></trkpt><trkpt lat="45.8187656601078" lon="14.473312255578685"><ele>667.25</ele><time>2026-05-05T09:49:25Z</time></trkpt><trkpt lat="45.818881195279104" lon="14.473208318544403"><ele>669.0</ele><time>2026-05-05T09:49:26Z</time></trkpt><trkpt lat="45.818978011999086" lon="14.473079113602559"><ele>668.5</ele><time>2026-05-05T09:49:27Z</time></trkpt><trkpt lat="45.81905762068444" lon="14.47291689749413"><ele>668.0</ele><time>2026-05-05T09:49:28Z</time></trkpt><trkpt lat="45.81911203743778" lon="14.472732840317077"><ele>667.5</ele><time>2026-05-05T09:49:29Z</time></trkpt><trkpt lat="45.81913145951738" lon="14.47253277237626"><ele>667.0</ele><time>2026-05-05T09:49:30Z</time></trkpt><trkpt lat="45.81911541282363" lon="14.472321668448915"><ele>667.3333333333334</ele><time>2026-05-05T09:49:31Z</time></trkpt><trkpt lat="45.81907989719847" lon="14.472099629495975"><ele>667.6666666666666</ele><time>2026-05-05T09:49:32Z</time></trkpt><trkpt lat="45.81902762282252" lon="14.471891429924522"><ele>668.0</ele><time>2026-05-05T09:49:33Z</time></trkpt><trkpt lat="45.818971987903836" lon="14.471709965594439"><ele>668.0</ele><time>2026-05-05T09:49:34Z</time></trkpt><trkpt lat="45.818934789724075" lon="14.471548055879348"><ele>668.0</ele><time>2026-05-05T09:49:35Z</time></trkpt><trkpt lat="45.81886939917562" lon="14.471420593228629"><ele>668.0</ele><time>2026-05-05T09:49:36Z</time></trkpt><trkpt lat="45.81886882696475" lon="14.471254434624496"><ele>668.0</ele><time>2026-05-05T09:49:37Z</time></trkpt><trkpt lat="45.81886925439094" lon="14.471050642770445"><ele>668.0</ele><time>2026-05-05T09:49:38Z</time></trkpt><trkpt lat="45.81886348526771" lon="14.470824826810174"><ele>668.0</ele><time>2026-05-05T09:49:39Z</time></trkpt><trkpt lat="45.81887806846222" lon="14.470571780795488"><ele>668.0</ele><time>2026-05-05T09:49:40Z</time></trkpt><trkpt lat="45.81888918106219" lon="14.47029375016648"><ele>668.0</ele><time>2026-05-05T09:49:41Z</time></trkpt><trkpt lat="45.81890672767208" lon="14.469982027059029"><ele>668.0</ele><time>2026-05-05T09:49:42Z</time></trkpt><trkpt lat="45.81892285586818" lon="14.469640426266903"><ele>666.6666666666666</ele><time>2026-05-05T09:49:43Z</time></trkpt><trkpt lat="45.81893789466813" lon="14.469316434144183"><ele>665.3333333333334</ele><time>2026-05-05T09:49:44Z</time></trkpt><trkpt lat="45.81897150926633" lon="14.469022618977892"><ele>664.0</ele><time>2026-05-05T09:49:45Z</time></trkpt><trkpt lat="45.81900010369193" lon="14.46875493601205"><ele>661.6666666666667</ele><time>2026-05-05T09:49:46Z</time></trkpt><trkpt lat="45.819063519768655" lon="14.468527243000173"><ele>659.3333333333334</ele><time>2026-05-05T09:49:47Z</time></trkpt><trkpt lat="45.81915300557674" lon="14.46831841874858"><ele>657.0</ele><time>2026-05-05T09:49:48Z</time></trkpt><trkpt lat="45.819257143573324" lon="14.468090490197785"><ele>662.0</ele><time>2026-05-05T09:49:49Z</time></trkpt><trkpt lat="45.81935265022223" lon="14.467856106135644"><ele>667.0</ele><time>2026-05-05T09:49:50Z</time></trkpt><trkpt lat="45.81945738628558" lon="14.46763185268076"><ele>672.0</ele><time>2026-05-05T09:49:51Z</time></trkpt><trkpt lat="45.81954990097962" lon="14.467384961486648"><ele>669.3333333333334</ele><time>2026-05-05T09:49:52Z</time></trkpt><trkpt lat="45.819624997452145" lon="14.467099075021977"><ele>666.6666666666667</ele><time>2026-05-05T09:49:53Z</time></trkpt><trkpt lat="45.819679864731434" lon="14.466778058816638"><ele>664.0</ele><time>2026-05-05T09:49:54Z</time></trkpt><trkpt lat="45.81972290693015" lon="14.46643926559381"><ele>663.5</ele><time>2026-05-05T09:49:55Z</time></trkpt><trkpt lat="45.819749794322455" lon="14.466098593406052"><ele>663.0</ele><time>2026-05-05T09:49:56Z</time></trkpt><trkpt lat="45.819750195502735" lon="14.465770002973851"><ele>663.0</ele><time>2026-05-05T09:49:57Z</time></trkpt><trkpt lat="45.8197035170928" lon="14.465447058554211"><ele>663.0</ele><time>2026-05-05T09:49:58Z</time></trkpt><trkpt lat="45.81962881071323" lon="14.465133304473019"><ele>664.0</ele><time>2026-05-05T09:49:59Z</time></trkpt><trkpt lat="45.81956039571481" lon="14.464849705678832"><ele>665.0</ele><time>2026-05-05T09:50:00Z</time></trkpt><trkpt lat="45.81951588414214" lon="14.46458314863566"><ele>666.0</ele><time>2026-05-05T09:50:01Z</time></trkpt><trkpt lat="45.819490126715294" lon="14.464323737961154"><ele>666.0</ele><time>2026-05-05T09:50:02Z</time></trkpt><trkpt lat="45.81949416932182" lon="14.464059577148243"><ele>666.0</ele><time>2026-05-05T09:50:03Z</time></trkpt><trkpt lat="45.819540534692955" lon="14.463780886063796"><ele>666.0</ele><time>2026-05-05T09:50:04Z</time></trkpt><trkpt lat="45.81959517605221" lon="14.463510533991938"><ele>664.3333333333334</ele><time>2026-05-05T09:50:05Z</time></trkpt><trkpt lat="45.819641129248446" lon="14.463225860836562"><ele>662.6666666666667</ele><time>2026-05-05T09:50:06Z</time></trkpt><trkpt lat="45.819663953807975" lon="14.462932897114896"><ele>661.0</ele><time>2026-05-05T09:50:07Z</time></trkpt><trkpt lat="45.81964406676089" lon="14.462626665979881"><ele>660.3333333333334</ele><time>2026-05-05T09:50:08Z</time></trkpt><trkpt lat="45.819589434760424" lon="14.462328849328129"><ele>659.6666666666666</ele><time>2026-05-05T09:50:09Z</time></trkpt><trkpt lat="45.81952107480298" lon="14.462023457274622"><ele>659.0</ele><time>2026-05-05T09:50:10Z</time></trkpt><trkpt lat="45.81945219405742" lon="14.461713056236423"><ele>657.5</ele><time>2026-05-05T09:50:11Z</time></trkpt><trkpt lat="45.819385000967095" lon="14.461391453997999"><ele>656.0</ele><time>2026-05-05T09:50:12Z</time></trkpt><trkpt lat="45.819320992882034" lon="14.461053451218163"><ele>651.0</ele><time>2026-05-05T09:50:13Z</time></trkpt><trkpt lat="45.81926151205128" lon="14.460720384921526"><ele>646.0</ele><time>2026-05-05T09:50:14Z</time></trkpt><trkpt lat="45.81920543324653" lon="14.460409041913625"><ele>644.3333333333334</ele><time>2026-05-05T09:50:15Z</time></trkpt><trkpt lat="45.819150339034444" lon="14.460125743453917"><ele>642.6666666666666</ele><time>2026-05-05T09:50:16Z</time></trkpt><trkpt lat="45.81909745234146" lon="14.459854469099417"><ele>641.0</ele><time>2026-05-05T09:50:17Z</time></trkpt><trkpt lat="45.81906925900944" lon="14.459599260002733"><ele>641.0</ele><time>2026-05-05T09:50:18Z</time></trkpt><trkpt lat="45.81909540153573" lon="14.459343971937825"><ele>641.0</ele><time>2026-05-05T09:50:19Z</time></trkpt><trkpt lat="45.81912894565225" lon="14.459064423221564"><ele>641.0</ele><time>2026-05-05T09:50:20Z</time></trkpt><trkpt lat="45.81919703926566" lon="14.458769937108768"><ele>640.6666666666666</ele><time>2026-05-05T09:50:21Z</time></trkpt><trkpt lat="45.819261061195924" lon="14.458461605006288"><ele>640.3333333333334</ele><time>2026-05-05T09:50:22Z</time></trkpt><trkpt lat="45.81932273450619" lon="14.458151632230152"><ele>640.0</ele><time>2026-05-05T09:50:23Z</time></trkpt><trkpt lat="45.81938581480019" lon="14.457835945355624"><ele>640.0</ele><time>2026-05-05T09:50:24Z</time></trkpt><trkpt lat="45.8194499434417" lon="14.457509665638556"><ele>640.0</ele><time>2026-05-05T09:50:25Z</time></trkpt><trkpt lat="45.819515147588646" lon="14.457168137090639"><ele>640.5</ele><time>2026-05-05T09:50:26Z</time></trkpt><trkpt lat="45.81958784005829" lon="14.456808331224806"><ele>641.0</ele><time>2026-05-05T09:50:27Z</time></trkpt><trkpt lat="45.819660372548896" lon="14.4564401235707"><ele>642.5</ele><time>2026-05-05T09:50:28Z</time></trkpt><trkpt lat="45.81972690608446" lon="14.456093301011524"><ele>644.0</ele><time>2026-05-05T09:50:29Z</time></trkpt><trkpt lat="45.81978632700708" lon="14.455780552558796"><ele>644.0</ele><time>2026-05-05T09:50:30Z</time></trkpt><trkpt lat="45.81984062149134" lon="14.455512557457272"><ele>644.0</ele><time>2026-05-05T09:50:31Z</time></trkpt><trkpt lat="45.819892598393736" lon="14.455295623019506"><ele>644.0</ele><time>2026-05-05T09:50:32Z</time></trkpt><trkpt lat="45.81995631626658" lon="14.455126698674508"><ele>643.0</ele><time>2026-05-05T09:50:33Z</time></trkpt><trkpt lat="45.82005939553174" lon="14.45500010360122"><ele>642.0</ele><time>2026-05-05T09:50:34Z</time></trkpt><trkpt lat="45.82021379060614" lon="14.454934136402963"><ele>641.0</ele><time>2026-05-05T09:50:35Z</time></trkpt><trkpt lat="45.82038486488422" lon="14.454869831729582"><ele>644.0</ele><time>2026-05-05T09:50:36Z</time></trkpt><trkpt lat="45.820576540366" lon="14.454790234940587"><ele>647.0</ele><time>2026-05-05T09:50:37Z</time></trkpt><trkpt lat="45.820790569653205" lon="14.454723727343481"><ele>650.0</ele><time>2026-05-05T09:50:38Z</time></trkpt><trkpt lat="45.82100348958556" lon="14.4546435881599"><ele>647.3333333333333</ele><time>2026-05-05T09:50:39Z</time></trkpt><trkpt lat="45.82120991010188" lon="14.454557254422653"><ele>644.6666666666666</ele><time>2026-05-05T09:50:40Z</time></trkpt><trkpt lat="45.82140505757336" lon="14.45444062164102"><ele>642.0</ele><time>2026-05-05T09:50:41Z</time></trkpt><trkpt lat="45.82156937735094" lon="14.454282221957097"><ele>642.0</ele><time>2026-05-05T09:50:42Z</time></trkpt><trkpt lat="45.82170356981376" lon="14.454103293423179"><ele>642.0</ele><time>2026-05-05T09:50:43Z</time></trkpt><trkpt lat="45.82181746819364" lon="14.453939141967778"><ele>642.0</ele><time>2026-05-05T09:50:44Z</time></trkpt><trkpt lat="45.821944694790005" lon="14.453865386803322"><ele>641.75</ele><time>2026-05-05T09:50:45Z</time></trkpt><trkpt lat="45.82207178082807" lon="14.453812319055876"><ele>641.5</ele><time>2026-05-05T09:50:46Z</time></trkpt><trkpt lat="45.82220615354308" lon="14.453808614399616"><ele>641.25</ele><time>2026-05-05T09:50:47Z</time></trkpt><trkpt lat="45.8223292167209" lon="14.4539226355712"><ele>641.0</ele><time>2026-05-05T09:50:48Z</time></trkpt><trkpt lat="45.8224459679971" lon="14.454056717159323"><ele>641.0</ele><time>2026-05-05T09:50:49Z</time></trkpt><trkpt lat="45.82255658570708" lon="14.45424888862681"><ele>641.0</ele><time>2026-05-05T09:50:50Z</time></trkpt><trkpt lat="45.82265242035208" lon="14.454456474569318"><ele>641.0</ele><time>2026-05-05T09:50:51Z</time></trkpt><trkpt lat="45.822756360753054" lon="14.454660509858254"><ele>638.3333333333333</ele><time>2026-05-05T09:50:52Z</time></trkpt><trkpt lat="45.82283647065908" lon="14.45488785721755"><ele>635.6666666666666</ele><time>2026-05-05T09:50:53Z</time></trkpt><trkpt lat="45.822912890328574" lon="14.455097234984462"><ele>633.0</ele><time>2026-05-05T09:50:54Z</time></trkpt><trkpt lat="45.822998119910736" lon="14.45529011616636"><ele>635.0</ele><time>2026-05-05T09:50:55Z</time></trkpt><trkpt lat="45.82309681514162" lon="14.455479112612709"><ele>637.0</ele><time>2026-05-05T09:50:56Z</time></trkpt><trkpt lat="45.823223367809604" lon="14.455650962453655"><ele>639.0</ele><time>2026-05-05T09:50:57Z</time></trkpt><trkpt lat="45.82339194715482" lon="14.455790622587964"><ele>635.6666666666666</ele><time>2026-05-05T09:50:58Z</time></trkpt><trkpt lat="45.82358777905412" lon="14.45590707805667"><ele>632.3333333333333</ele><time>2026-05-05T09:50:59Z</time></trkpt><trkpt lat="45.82381094806824" lon="14.456017741135243"><ele>629.0</ele><time>2026-05-05T09:51:00Z</time></trkpt><trkpt lat="45.824060247253506" lon="14.456143456298438"><ele>629.0</ele><time>2026-05-05T09:51:01Z</time></trkpt><trkpt lat="45.82430849321785" lon="14.456302411149837"><ele>629.0</ele><time>2026-05-05T09:51:02Z</time></trkpt><trkpt lat="45.82456808478668" lon="14.45642582010832"><ele>629.0</ele><time>2026-05-05T09:51:03Z</time></trkpt><trkpt lat="45.82484685345907" lon="14.456595278399291"><ele>629.0</ele><time>2026-05-05T09:51:04Z</time></trkpt><trkpt lat="45.82512129137984" lon="14.456778600095356"><ele>628.0</ele><time>2026-05-05T09:51:05Z</time></trkpt><trkpt lat="45.82539903262566" lon="14.456916642221037"><ele>627.0</ele><time>2026-05-05T09:51:06Z</time></trkpt><trkpt lat="45.825658799410235" lon="14.457065219562441"><ele>626.5</ele><time>2026-05-05T09:51:07Z</time></trkpt><trkpt lat="45.8258915500707" lon="14.457201119846944"><ele>626.0</ele><time>2026-05-05T09:51:08Z</time></trkpt><trkpt lat="45.82610653259854" lon="14.457319623256723"><ele>629.0</ele><time>2026-05-05T09:51:09Z</time></trkpt><trkpt lat="45.826298129806325" lon="14.457424109906524"><ele>632.0</ele><time>2026-05-05T09:51:10Z</time></trkpt><trkpt lat="45.826478311150616" lon="14.457503320438285"><ele>635.0</ele><time>2026-05-05T09:51:11Z</time></trkpt><trkpt lat="45.82665687858701" lon="14.457512918346769"><ele>639.3333333333333</ele><time>2026-05-05T09:51:12Z</time></trkpt><trkpt lat="45.8268489301912" lon="14.457462170420413"><ele>643.6666666666666</ele><time>2026-05-05T09:51:13Z</time></trkpt><trkpt lat="45.82705380583296" lon="14.457370914215911"><ele>648.0</ele><time>2026-05-05T09:51:14Z</time></trkpt><trkpt lat="45.82725965644925" lon="14.45727762026469"><ele>648.0</ele><time>2026-05-05T09:51:15Z</time></trkpt><trkpt lat="45.827450117465304" lon="14.457156237447492"><ele>648.0</ele><time>2026-05-05T09:51:16Z</time></trkpt><trkpt lat="45.82763442209867" lon="14.456996955887236"><ele>648.0</ele><time>2026-05-05T09:51:17Z</time></trkpt><trkpt lat="45.82780841544248" lon="14.456814469365959"><ele>642.6666666666666</ele><time>2026-05-05T09:51:18Z</time></trkpt><trkpt lat="45.82796171021474" lon="14.456647705743588"><ele>637.3333333333333</ele><time>2026-05-05T09:51:19Z</time></trkpt><trkpt lat="45.82811997421222" lon="14.456568774985374"><ele>632.0</ele><time>2026-05-05T09:51:20Z</time></trkpt><trkpt lat="45.82828404226014" lon="14.45651683529743"><ele>632.0</ele><time>2026-05-05T09:51:21Z</time></trkpt><trkpt lat="45.82845175794644" lon="14.456446545093156"><ele>632.0</ele><time>2026-05-05T09:51:22Z</time></trkpt><trkpt lat="45.82861166524591" lon="14.456413282746063"><ele>632.0</ele><time>2026-05-05T09:51:23Z</time></trkpt><trkpt lat="45.828758428506944" lon="14.456345018554813"><ele>631.3333333333333</ele><time>2026-05-05T09:51:24Z</time></trkpt><trkpt lat="45.82889358492608" lon="14.456222561856038"><ele>630.6666666666666</ele><time>2026-05-05T09:51:25Z</time></trkpt><trkpt lat="45.8290103211177" lon="14.456046680443503"><ele>630.0</ele><time>2026-05-05T09:51:26Z</time></trkpt><trkpt lat="45.829105985734415" lon="14.455842412635779"><ele>630.0</ele><time>2026-05-05T09:51:27Z</time></trkpt><trkpt lat="45.82918740252001" lon="14.455654593594739"><ele>630.0</ele><time>2026-05-05T09:51:28Z</time></trkpt><trkpt lat="45.82931374463477" lon="14.45552919810003"><ele>630.0</ele><time>2026-05-05T09:51:29Z</time></trkpt><trkpt lat="45.82945584375911" lon="14.45545096397011"><ele>628.0</ele><time>2026-05-05T09:51:30Z</time></trkpt><trkpt lat="45.829610936142814" lon="14.455415848896312"><ele>626.0</ele><time>2026-05-05T09:51:31Z</time></trkpt><trkpt lat="45.8297694876423" lon="14.455422644226973"><ele>624.0</ele><time>2026-05-05T09:51:32Z</time></trkpt><trkpt lat="45.82991439070405" lon="14.455438950511994"><ele>624.0</ele><time>2026-05-05T09:51:33Z</time></trkpt><trkpt lat="45.83005113740972" lon="14.455441460100607"><ele>624.0</ele><time>2026-05-05T09:51:34Z</time></trkpt><trkpt lat="45.83017387000463" lon="14.455431573139764"><ele>624.0</ele><time>2026-05-05T09:51:35Z</time></trkpt><trkpt lat="45.83027641718803" lon="14.455363092383967"><ele>624.0</ele><time>2026-05-05T09:51:36Z</time></trkpt><trkpt lat="45.83035052835838" lon="14.455247227706362"><ele>624.75</ele><time>2026-05-05T09:51:37Z</time></trkpt><trkpt lat="45.83043210828422" lon="14.455120979576666"><ele>625.5</ele><time>2026-05-05T09:51:38Z</time></trkpt><trkpt lat="45.83053940374554" lon="14.454969886517024"><ele>626.25</ele><time>2026-05-05T09:51:39Z</time></trkpt><trkpt lat="45.830666565768986" lon="14.454798199765316"><ele>627.0</ele><time>2026-05-05T09:51:40Z</time></trkpt><trkpt lat="45.83080148492482" lon="14.454616094322075"><ele>627.0</ele><time>2026-05-05T09:51:41Z</time></trkpt><trkpt lat="45.83092252382358" lon="14.454444703990436"><ele>627.0</ele><time>2026-05-05T09:51:42Z</time></trkpt><trkpt lat="45.831019104339354" lon="14.454265927681272"><ele>627.0</ele><time>2026-05-05T09:51:43Z</time></trkpt><trkpt lat="45.83108106081064" lon="14.454047803499037"><ele>631.6666666666666</ele><time>2026-05-05T09:51:44Z</time></trkpt><trkpt lat="45.831104011959106" lon="14.453808174260159"><ele>636.3333333333333</ele><time>2026-05-05T09:51:45Z</time></trkpt><trkpt lat="45.83110387259897" lon="14.453544315084672"><ele>641.0</ele><time>2026-05-05T09:51:46Z</time></trkpt><trkpt lat="45.831085355997295" lon="14.453259155452772"><ele>641.0</ele><time>2026-05-05T09:51:47Z</time></trkpt><trkpt lat="45.83104597578159" lon="14.45296225580477"><ele>641.0</ele><time>2026-05-05T09:51:48Z</time></trkpt><trkpt lat="45.830981169088574" lon="14.452663484390591"><ele>641.0</ele><time>2026-05-05T09:51:49Z</time></trkpt><trkpt lat="45.83089985948352" lon="14.452381565183265"><ele>638.0</ele><time>2026-05-05T09:51:50Z</time></trkpt><trkpt lat="45.830811229074214" lon="14.452106194148381"><ele>635.0</ele><time>2026-05-05T09:51:51Z</time></trkpt><trkpt lat="45.83072901594701" lon="14.451836590541815"><ele>632.0</ele><time>2026-05-05T09:51:52Z</time></trkpt><trkpt lat="45.83065212054951" lon="14.451578943141419"><ele>632.0</ele><time>2026-05-05T09:51:53Z</time></trkpt><trkpt lat="45.83057711957031" lon="14.451323146900387"><ele>632.0</ele><time>2026-05-05T09:51:54Z</time></trkpt><trkpt lat="45.83050459219028" lon="14.451070825467433"><ele>632.0</ele><time>2026-05-05T09:51:55Z</time></trkpt><trkpt lat="45.830431780678246" lon="14.450825878176595"><ele>630.6666666666666</ele><time>2026-05-05T09:51:56Z</time></trkpt><trkpt lat="45.83035555389215" lon="14.45058929053984"><ele>629.3333333333334</ele><time>2026-05-05T09:51:57Z</time></trkpt><trkpt lat="45.83026737408315" lon="14.450363649987244"><ele>628.0</ele><time>2026-05-05T09:51:58Z</time></trkpt><trkpt lat="45.83015070045334" lon="14.450146332713595"><ele>626.6666666666667</ele><time>2026-05-05T09:51:59Z</time></trkpt><trkpt lat="45.830025313299394" lon="14.449944307778635"><ele>625.3333333333334</ele><time>2026-05-05T09:52:00Z</time></trkpt><trkpt lat="45.82990955272567" lon="14.449759587499145"><ele>624.0</ele><time>2026-05-05T09:52:01Z</time></trkpt><trkpt lat="45.82980138507246" lon="14.44960036621917"><ele>624.0</ele><time>2026-05-05T09:52:02Z</time></trkpt><trkpt lat="45.82969203789453" lon="14.44946303196565"><ele>624.0</ele><time>2026-05-05T09:52:03Z</time></trkpt><trkpt lat="45.82956663376749" lon="14.44935634666759"><ele>624.0</ele><time>2026-05-05T09:52:04Z</time></trkpt><trkpt lat="45.829411093587716" lon="14.449309037080326"><ele>625.0</ele><time>2026-05-05T09:52:05Z</time></trkpt><trkpt lat="45.829241879897495" lon="14.449330390920272"><ele>626.0</ele><time>2026-05-05T09:52:06Z</time></trkpt><trkpt lat="45.82907388446865" lon="14.449414095502963"><ele>627.0</ele><time>2026-05-05T09:52:07Z</time></trkpt><trkpt lat="45.828899658588995" lon="14.44953358197861"><ele>625.3333333333334</ele><time>2026-05-05T09:52:08Z</time></trkpt><trkpt lat="45.82872218480787" lon="14.44963946311267"><ele>623.6666666666667</ele><time>2026-05-05T09:52:09Z</time></trkpt><trkpt lat="45.82854638470193" lon="14.449719612590544"><ele>622.0</ele><time>2026-05-05T09:52:10Z</time></trkpt><trkpt lat="45.828378685368236" lon="14.449801382448953"><ele>622.0</ele><time>2026-05-05T09:52:11Z</time></trkpt><trkpt lat="45.82821068284385" lon="14.449877481433976"><ele>622.0</ele><time>2026-05-05T09:52:12Z</time></trkpt><trkpt lat="45.828045628589855" lon="14.44993555714745"><ele>622.0</ele><time>2026-05-05T09:52:13Z</time></trkpt><trkpt lat="45.827879609258204" lon="14.449958071735082"><ele>622.0</ele><time>2026-05-05T09:52:14Z</time></trkpt><trkpt lat="45.82772948105566" lon="14.449934720272458"><ele>622.0</ele><time>2026-05-05T09:52:15Z</time></trkpt><trkpt lat="45.82760770114348" lon="14.449842623611428"><ele>622.0</ele><time>2026-05-05T09:52:16Z</time></trkpt><trkpt lat="45.82749669511778" lon="14.44973364064963"><ele>622.0</ele><time>2026-05-05T09:52:17Z</time></trkpt><trkpt lat="45.827420249099" lon="14.449567015313791"><ele>623.3333333333334</ele><time>2026-05-05T09:52:18Z</time></trkpt><trkpt lat="45.82735972100795" lon="14.44935882018715"><ele>624.6666666666666</ele><time>2026-05-05T09:52:19Z</time></trkpt><trkpt lat="45.827294727115984" lon="14.449107836669809"><ele>626.0</ele><time>2026-05-05T09:52:20Z</time></trkpt><trkpt lat="45.82721593100266" lon="14.4488434955041"><ele>628.3333333333333</ele><time>2026-05-05T09:52:21Z</time></trkpt><trkpt lat="45.82714249233122" lon="14.448551804531244"><ele>630.6666666666666</ele><time>2026-05-05T09:52:22Z</time></trkpt><trkpt lat="45.827080149158085" lon="14.448236985831535"><ele>633.0</ele><time>2026-05-05T09:52:23Z</time></trkpt><trkpt lat="45.827035646633654" lon="14.447900430733757"><ele>634.5</ele><time>2026-05-05T09:52:24Z</time></trkpt><trkpt lat="45.826987918339846" lon="14.447550963255035"><ele>636.0</ele><time>2026-05-05T09:52:25Z</time></trkpt><trkpt lat="45.82692423491024" lon="14.447197306913901"><ele>637.0</ele><time>2026-05-05T09:52:26Z</time></trkpt><trkpt lat="45.826837650072214" lon="14.44684497177949"><ele>638.0</ele><time>2026-05-05T09:52:27Z</time></trkpt><trkpt lat="45.82673746677342" lon="14.446501657493167"><ele>629.5</ele><time>2026-05-05T09:52:28Z</time></trkpt><trkpt lat="45.8266326636024" lon="14.44616012908774"><ele>621.0</ele><time>2026-05-05T09:52:29Z</time></trkpt><trkpt lat="45.82651511847314" lon="14.445829856372692"><ele>621.0</ele><time>2026-05-05T09:52:30Z</time></trkpt><trkpt lat="45.826378234585974" lon="14.445508743858044"><ele>621.0</ele><time>2026-05-05T09:52:31Z</time></trkpt><trkpt lat="45.82622787788648" lon="14.445206790975876"><ele>619.6666666666666</ele><time>2026-05-05T09:52:32Z</time></trkpt><trkpt lat="45.82608812391572" lon="14.444938888698411"><ele>618.3333333333333</ele><time>2026-05-05T09:52:33Z</time></trkpt><trkpt lat="45.8259628800944" lon="14.444697371195637"><ele>617.0</ele><time>2026-05-05T09:52:34Z</time></trkpt><trkpt lat="45.825858704034935" lon="14.44448090292738"><ele>617.0</ele><time>2026-05-05T09:52:35Z</time></trkpt><trkpt lat="45.82579084678374" lon="14.444258054286436"><ele>617.0</ele><time>2026-05-05T09:52:36Z</time></trkpt><trkpt lat="45.82573689471262" lon="14.444019613877158"><ele>617.0</ele><time>2026-05-05T09:52:37Z</time></trkpt><trkpt lat="45.825682219546614" lon="14.44375380286705"><ele>616.6666666666666</ele><time>2026-05-05T09:52:38Z</time></trkpt><trkpt lat="45.82562155087361" lon="14.44347537446457"><ele>616.3333333333334</ele><time>2026-05-05T09:52:39Z</time></trkpt><trkpt lat="45.82556931732652" lon="14.443177538647838"><ele>616.0</ele><time>2026-05-05T09:52:40Z</time></trkpt><trkpt lat="45.82551198739251" lon="14.442859657431072"><ele>616.0</ele><time>2026-05-05T09:52:41Z</time></trkpt><trkpt lat="45.82545403722873" lon="14.442515748655246"><ele>616.0</ele><time>2026-05-05T09:52:42Z</time></trkpt><trkpt lat="45.82539057689498" lon="14.442149336129921"><ele>617.5</ele><time>2026-05-05T09:52:43Z</time></trkpt><trkpt lat="45.82531909896521" lon="14.44176309506701"><ele>619.0</ele><time>2026-05-05T09:52:44Z</time></trkpt><trkpt lat="45.82524752588056" lon="14.441363096811962"><ele>622.5</ele><time>2026-05-05T09:52:45Z</time></trkpt><trkpt lat="45.82517830881347" lon="14.44096845319057"><ele>626.0</ele><time>2026-05-05T09:52:46Z</time></trkpt><trkpt lat="45.82510741385772" lon="14.440579452024396"><ele>622.5</ele><time>2026-05-05T09:52:47Z</time></trkpt><trkpt lat="45.82502714694009" lon="14.440203297794692"><ele>619.0</ele><time>2026-05-05T09:52:48Z</time></trkpt><trkpt lat="45.824925719646544" lon="14.439844590766649"><ele>622.0</ele><time>2026-05-05T09:52:49Z</time></trkpt><trkpt lat="45.824811627546595" lon="14.439504832841033"><ele>625.0</ele><time>2026-05-05T09:52:50Z</time></trkpt><trkpt lat="45.82469612565162" lon="14.439194179452565"><ele>625.0</ele><time>2026-05-05T09:52:51Z</time></trkpt><trkpt lat="45.82457954177174" lon="14.438898167917676"><ele>625.0</ele><time>2026-05-05T09:52:52Z</time></trkpt><trkpt lat="45.8244457180874" lon="14.4386203475862"><ele>621.0</ele><time>2026-05-05T09:52:53Z</time></trkpt><trkpt lat="45.824295789103346" lon="14.438383755314485"><ele>617.0</ele><time>2026-05-05T09:52:54Z</time></trkpt><trkpt lat="45.824150833456294" lon="14.438193589182012"><ele>613.0</ele><time>2026-05-05T09:52:55Z</time></trkpt><trkpt lat="45.82406764485215" lon="14.438009184984484"><ele>614.25</ele><time>2026-05-05T09:52:56Z</time></trkpt><trkpt lat="45.82401563419685" lon="14.437826999397304"><ele>615.5</ele><time>2026-05-05T09:52:57Z</time></trkpt><trkpt lat="45.82399335594556" lon="14.437630562214927"><ele>616.75</ele><time>2026-05-05T09:52:58Z</time></trkpt><trkpt lat="45.823981119601534" lon="14.43742833804994"><ele>618.0</ele><time>2026-05-05T09:52:59Z</time></trkpt><trkpt lat="45.82394936117735" lon="14.43722304904559"><ele>617.3333333333334</ele><time>2026-05-05T09:53:00Z</time></trkpt><trkpt lat="45.824049638670246" lon="14.436954474500519"><ele>616.6666666666667</ele><time>2026-05-05T09:53:01Z</time></trkpt><trkpt lat="45.8240609542736" lon="14.43669923537248"><ele>616.0</ele><time>2026-05-05T09:53:02Z</time></trkpt><trkpt lat="45.82409136245162" lon="14.436441779133032"><ele>616.0</ele><time>2026-05-05T09:53:03Z</time></trkpt><trkpt lat="45.82415460234056" lon="14.43619693326609"><ele>616.0</ele><time>2026-05-05T09:53:04Z</time></trkpt><trkpt lat="45.82422681154191" lon="14.43595613867763"><ele>616.0</ele><time>2026-05-05T09:53:05Z</time></trkpt><trkpt lat="45.824270152817235" lon="14.4356976471716"><ele>617.6666666666667</ele><time>2026-05-05T09:53:06Z</time></trkpt><trkpt lat="45.82427047182813" lon="14.435423554410951"><ele>619.3333333333334</ele><time>2026-05-05T09:53:07Z</time></trkpt><trkpt lat="45.82421707563545" lon="14.435134594888856"><ele>621.0</ele><time>2026-05-05T09:53:08Z</time></trkpt><trkpt lat="45.8241280591682" lon="14.434851983836754"><ele>626.5</ele><time>2026-05-05T09:53:09Z</time></trkpt><trkpt lat="45.82400159479072" lon="14.434576359036166"><ele>632.0</ele><time>2026-05-05T09:53:10Z</time></trkpt><trkpt lat="45.82383082906033" lon="14.4343120621906"><ele>632.0</ele><time>2026-05-05T09:53:11Z</time></trkpt><trkpt lat="45.82365736734061" lon="14.434067407796382"><ele>632.0</ele><time>2026-05-05T09:53:12Z</time></trkpt><trkpt lat="45.82350922414812" lon="14.433842062285713"><ele>629.6666666666666</ele><time>2026-05-05T09:53:13Z</time></trkpt><trkpt lat="45.823375485078536" lon="14.43362814298937"><ele>627.3333333333334</ele><time>2026-05-05T09:53:14Z</time></trkpt><trkpt lat="45.82323708804118" lon="14.433450007511809"><ele>625.0</ele><time>2026-05-05T09:53:15Z</time></trkpt><trkpt lat="45.82306117169947" lon="14.433333615752156"><ele>625.0</ele><time>2026-05-05T09:53:16Z</time></trkpt><trkpt lat="45.822857555231415" lon="14.433233585663586"><ele>625.0</ele><time>2026-05-05T09:53:17Z</time></trkpt><trkpt lat="45.8226325946478" lon="14.433096700821244"><ele>625.0</ele><time>2026-05-05T09:53:18Z</time></trkpt><trkpt lat="45.822411778992674" lon="14.432956974258625"><ele>625.0</ele><time>2026-05-05T09:53:19Z</time></trkpt><trkpt lat="45.822213103382786" lon="14.432840603139663"><ele>625.0</ele><time>2026-05-05T09:53:20Z</time></trkpt><trkpt lat="45.82203391905754" lon="14.43273838373692"><ele>625.0</ele><time>2026-05-05T09:53:21Z</time></trkpt><trkpt lat="45.821875882247916" lon="14.432618711553209"><ele>625.0</ele><time>2026-05-05T09:53:22Z</time></trkpt><trkpt lat="45.82173981766389" lon="14.432446164788477"><ele>622.3333333333334</ele><time>2026-05-05T09:53:23Z</time></trkpt><trkpt lat="45.82163169762851" lon="14.432208166347351"><ele>619.6666666666666</ele><time>2026-05-05T09:53:24Z</time></trkpt><trkpt lat="45.82154496420378" lon="14.431956641837244"><ele>617.0</ele><time>2026-05-05T09:53:25Z</time></trkpt><trkpt lat="45.821454052351875" lon="14.43171982639072"><ele>617.0</ele><time>2026-05-05T09:53:26Z</time></trkpt><trkpt lat="45.82135295028467" lon="14.43148784508087"><ele>617.0</ele><time>2026-05-05T09:53:27Z</time></trkpt><trkpt lat="45.8212220385937" lon="14.431278410264687"><ele>617.0</ele><time>2026-05-05T09:53:28Z</time></trkpt><trkpt lat="45.82105008000827" lon="14.431106334525039"><ele>616.3333333333333</ele><time>2026-05-05T09:53:29Z</time></trkpt><trkpt lat="45.82085526526765" lon="14.430953901410629"><ele>615.6666666666666</ele><time>2026-05-05T09:53:30Z</time></trkpt><trkpt lat="45.8206618317442" lon="14.43080012074478"><ele>615.0</ele><time>2026-05-05T09:53:31Z</time></trkpt><trkpt lat="45.820468011012224" lon="14.430642640660318"><ele>615.0</ele><time>2026-05-05T09:53:32Z</time></trkpt><trkpt lat="45.820272508453854" lon="14.430483258178658"><ele>615.0</ele><time>2026-05-05T09:53:33Z</time></trkpt><trkpt lat="45.82007975118538" lon="14.430335534372992"><ele>615.0</ele><time>2026-05-05T09:53:34Z</time></trkpt><trkpt lat="45.81988302212881" lon="14.430198748253996"><ele>616.6666666666666</ele><time>2026-05-05T09:53:35Z</time></trkpt><trkpt lat="45.81969764530129" lon="14.430071289540974"><ele>618.3333333333333</ele><time>2026-05-05T09:53:36Z</time></trkpt><trkpt lat="45.81952237439707" lon="14.429918377380421"><ele>620.0</ele><time>2026-05-05T09:53:37Z</time></trkpt><trkpt lat="45.8193598928397" lon="14.429723743276824"><ele>618.3333333333333</ele><time>2026-05-05T09:53:38Z</time></trkpt><trkpt lat="45.8192043348769" lon="14.429504144662213"><ele>616.6666666666666</ele><time>2026-05-05T09:53:39Z</time></trkpt><trkpt lat="45.81905161428902" lon="14.429277126442612"><ele>615.0</ele><time>2026-05-05T09:53:40Z</time></trkpt><trkpt lat="45.8188894607498" lon="14.429049973062254"><ele>615.0</ele><time>2026-05-05T09:53:41Z</time></trkpt><trkpt lat="45.81871806342525" lon="14.428825763483706"><ele>615.0</ele><time>2026-05-05T09:53:42Z</time></trkpt><trkpt lat="45.81852602750161" lon="14.428623902999002"><ele>615.0</ele><time>2026-05-05T09:53:43Z</time></trkpt><trkpt lat="45.818316641360745" lon="14.428445643661508"><ele>615.0</ele><time>2026-05-05T09:53:44Z</time></trkpt><trkpt lat="45.818112913922825" lon="14.428296680180493"><ele>615.0</ele><time>2026-05-05T09:53:45Z</time></trkpt><trkpt lat="45.817932127568184" lon="14.428165620494042"><ele>615.0</ele><time>2026-05-05T09:53:46Z</time></trkpt><trkpt lat="45.8177766838936" lon="14.428044968577698"><ele>615.0</ele><time>2026-05-05T09:53:47Z</time></trkpt><trkpt lat="45.817667062177165" lon="14.427935647735518"><ele>613.0</ele><time>2026-05-05T09:53:48Z</time></trkpt><trkpt lat="45.81760195002133" lon="14.42783084093489"><ele>611.0</ele><time>2026-05-05T09:53:49Z</time></trkpt><trkpt lat="45.81756489168636" lon="14.427689825990829"><ele>609.0</ele><time>2026-05-05T09:53:50Z</time></trkpt><trkpt lat="45.817574834351255" lon="14.427505233241824"><ele>607.0</ele><time>2026-05-05T09:53:51Z</time></trkpt><trkpt lat="45.81761609908782" lon="14.42729210002462"><ele>608.6666666666667</ele><time>2026-05-05T09:53:52Z</time></trkpt><trkpt lat="45.81763869668074" lon="14.427051126698938"><ele>610.3333333333334</ele><time>2026-05-05T09:53:53Z</time></trkpt><trkpt lat="45.817608308192945" lon="14.426796632573462"><ele>612.0</ele><time>2026-05-05T09:53:54Z</time></trkpt><trkpt lat="45.8175307966394" lon="14.426562935805567"><ele>612.0</ele><time>2026-05-05T09:53:55Z</time></trkpt><trkpt lat="45.81739376868738" lon="14.426354516296936"><ele>612.0</ele><time>2026-05-05T09:53:56Z</time></trkpt><trkpt lat="45.81722457488634" lon="14.426169128505993"><ele>612.0</ele><time>2026-05-05T09:53:57Z</time></trkpt><trkpt lat="45.817056230922276" lon="14.425980166759915"><ele>610.6666666666666</ele><time>2026-05-05T09:53:58Z</time></trkpt><trkpt lat="45.816905615271374" lon="14.42579223185388"><ele>609.3333333333333</ele><time>2026-05-05T09:53:59Z</time></trkpt><trkpt lat="45.81677923474437" lon="14.42562761915201"><ele>608.0</ele><time>2026-05-05T09:54:00Z</time></trkpt><trkpt lat="45.81667833424414" lon="14.425476420629373"><ele>608.0</ele><time>2026-05-05T09:54:01Z</time></trkpt><trkpt lat="45.81661155258961" lon="14.425299532357046"><ele>608.0</ele><time>2026-05-05T09:54:02Z</time></trkpt><trkpt lat="45.8165873409003" lon="14.42509074518784"><ele>608.0</ele><time>2026-05-05T09:54:03Z</time></trkpt><trkpt lat="45.816607177558915" lon="14.424868586201223"><ele>608.0</ele><time>2026-05-05T09:54:04Z</time></trkpt><trkpt lat="45.8166732995925" lon="14.424655185495636"><ele>609.3333333333333</ele><time>2026-05-05T09:54:05Z</time></trkpt><trkpt lat="45.81673682037296" lon="14.424452940857986"><ele>610.6666666666666</ele><time>2026-05-05T09:54:06Z</time></trkpt><trkpt lat="45.816759368797946" lon="14.424226139600721"><ele>612.0</ele><time>2026-05-05T09:54:07Z</time></trkpt><trkpt lat="45.81672848339808" lon="14.423978743943026"><ele>612.3333333333334</ele><time>2026-05-05T09:54:08Z</time></trkpt><trkpt lat="45.81665859711756" lon="14.423723775892311"><ele>612.6666666666667</ele><time>2026-05-05T09:54:09Z</time></trkpt><trkpt lat="45.816565702420675" lon="14.423452869986477"><ele>613.0</ele><time>2026-05-05T09:54:10Z</time></trkpt><trkpt lat="45.81646309930842" lon="14.423185110094902"><ele>613.6666666666667</ele><time>2026-05-05T09:54:11Z</time></trkpt><trkpt lat="45.81636951673003" lon="14.422937386948433"><ele>614.3333333333334</ele><time>2026-05-05T09:54:12Z</time></trkpt><trkpt lat="45.81630880365004" lon="14.42268583275043"><ele>615.0</ele><time>2026-05-05T09:54:13Z</time></trkpt><trkpt lat="45.816255413299764" lon="14.422437840794828"><ele>615.0</ele><time>2026-05-05T09:54:14Z</time></trkpt><trkpt lat="45.816219389694204" lon="14.422193104580773"><ele>615.0</ele><time>2026-05-05T09:54:15Z</time></trkpt><trkpt lat="45.81619439435502" lon="14.421950746272117"><ele>615.0</ele><time>2026-05-05T09:54:16Z</time></trkpt><trkpt lat="45.81619205914331" lon="14.421718202671183"><ele>614.6666666666666</ele><time>2026-05-05T09:54:17Z</time></trkpt><trkpt lat="45.81624615171557" lon="14.42150083700973"><ele>614.3333333333333</ele><time>2026-05-05T09:54:18Z</time></trkpt><trkpt lat="45.816343664568095" lon="14.421308587573627"><ele>614.0</ele><time>2026-05-05T09:54:19Z</time></trkpt><trkpt lat="45.81647045610865" lon="14.421134728417089"><ele>612.6666666666666</ele><time>2026-05-05T09:54:20Z</time></trkpt><trkpt lat="45.81657307520579" lon="14.420944867926407"><ele>611.3333333333334</ele><time>2026-05-05T09:54:21Z</time></trkpt><trkpt lat="45.81666756667055" lon="14.420767683962962"><ele>610.0</ele><time>2026-05-05T09:54:22Z</time></trkpt><trkpt lat="45.81671409860111" lon="14.420550668199832"><ele>609.0</ele><time>2026-05-05T09:54:23Z</time></trkpt><trkpt lat="45.81671654886402" lon="14.420292452864281"><ele>608.0</ele><time>2026-05-05T09:54:24Z</time></trkpt><trkpt lat="45.81666177601039" lon="14.420030296819421"><ele>607.0</ele><time>2026-05-05T09:54:25Z</time></trkpt><trkpt lat="45.81657666895033" lon="14.419748639801412"><ele>609.0</ele><time>2026-05-05T09:54:26Z</time></trkpt><trkpt lat="45.81651959893844" lon="14.419439134207861"><ele>611.0</ele><time>2026-05-05T09:54:27Z</time></trkpt><trkpt lat="45.816484057075286" lon="14.419096412458272"><ele>613.5</ele><time>2026-05-05T09:54:28Z</time></trkpt><trkpt lat="45.81642856293413" lon="14.418757540226665"><ele>616.0</ele><time>2026-05-05T09:54:29Z</time></trkpt><trkpt lat="45.81638397987426" lon="14.418434612807815"><ele>616.0</ele><time>2026-05-05T09:54:30Z</time></trkpt><trkpt lat="45.81631508561052" lon="14.418131538614912"><ele>616.0</ele><time>2026-05-05T09:54:31Z</time></trkpt><trkpt lat="45.8162720094205" lon="14.417835597959373"><ele>616.0</ele><time>2026-05-05T09:54:32Z</time></trkpt><trkpt lat="45.816238930311535" lon="14.417536428942794"><ele>616.3333333333334</ele><time>2026-05-05T09:54:33Z</time></trkpt><trkpt lat="45.816223195743135" lon="14.41724411499834"><ele>616.6666666666666</ele><time>2026-05-05T09:54:34Z</time></trkpt><trkpt lat="45.81624579982393" lon="14.416960859641316"><ele>617.0</ele><time>2026-05-05T09:54:35Z</time></trkpt><trkpt lat="45.81626654797904" lon="14.416673929068361"><ele>617.3333333333333</ele><time>2026-05-05T09:54:36Z</time></trkpt><trkpt lat="45.81624572847119" lon="14.416401955576363"><ele>617.6666666666666</ele><time>2026-05-05T09:54:37Z</time></trkpt><trkpt lat="45.81619972077564" lon="14.416116287270858"><ele>618.0</ele><time>2026-05-05T09:54:38Z</time></trkpt><trkpt lat="45.81613820672629" lon="14.415848821470325"><ele>618.6666666666666</ele><time>2026-05-05T09:54:39Z</time></trkpt><trkpt lat="45.816058821135954" lon="14.41560495416475"><ele>619.3333333333333</ele><time>2026-05-05T09:54:40Z</time></trkpt><trkpt lat="45.81594355644586" lon="14.415369509655559"><ele>620.0</ele><time>2026-05-05T09:54:41Z</time></trkpt><trkpt lat="45.8157872065084" lon="14.415168143288483"><ele>616.3333333333333</ele><time>2026-05-05T09:54:42Z</time></trkpt><trkpt lat="45.8156057536461" lon="14.415013360248397"><ele>612.6666666666666</ele><time>2026-05-05T09:54:43Z</time></trkpt><trkpt lat="45.815435226870015" lon="14.414890126829587"><ele>609.0</ele><time>2026-05-05T09:54:44Z</time></trkpt><trkpt lat="45.81527909227293" lon="14.414779810947785"><ele>607.3333333333334</ele><time>2026-05-05T09:54:45Z</time></trkpt><trkpt lat="45.81515078879007" lon="14.414622155141773"><ele>605.6666666666667</ele><time>2026-05-05T09:54:46Z</time></trkpt><trkpt lat="45.815035934836295" lon="14.414446619218454"><ele>604.0</ele><time>2026-05-05T09:54:47Z</time></trkpt><trkpt lat="45.81496409733201" lon="14.41424310829998"><ele>604.0</ele><time>2026-05-05T09:54:48Z</time></trkpt><trkpt lat="45.814919544712794" lon="14.414006016165043"><ele>604.0</ele><time>2026-05-05T09:54:49Z</time></trkpt><trkpt lat="45.81490674831255" lon="14.41374371380631"><ele>604.0</ele><time>2026-05-05T09:54:50Z</time></trkpt><trkpt lat="45.814880142508834" lon="14.413484071548035"><ele>604.3333333333334</ele><time>2026-05-05T09:54:51Z</time></trkpt><trkpt lat="45.81485806783468" lon="14.413219595990386"><ele>604.6666666666666</ele><time>2026-05-05T09:54:52Z</time></trkpt><trkpt lat="45.81480615975324" lon="14.412947269199423"><ele>605.0</ele><time>2026-05-05T09:54:53Z</time></trkpt><trkpt lat="45.81471320433143" lon="14.412672305858546"><ele>605.0</ele><time>2026-05-05T09:54:54Z</time></trkpt><trkpt lat="45.81461751702981" lon="14.412439561747753"><ele>605.0</ele><time>2026-05-05T09:54:55Z</time></trkpt><trkpt lat="45.81453595382154" lon="14.412234899940506"><ele>605.0</ele><time>2026-05-05T09:54:56Z</time></trkpt><trkpt lat="45.81452203132902" lon="14.41201509258378"><ele>602.3333333333333</ele><time>2026-05-05T09:54:57Z</time></trkpt><trkpt lat="45.81456033583483" lon="14.411807316362292"><ele>599.6666666666666</ele><time>2026-05-05T09:54:58Z</time></trkpt><trkpt lat="45.81459892239304" lon="14.411564674645625"><ele>597.0</ele><time>2026-05-05T09:54:59Z</time></trkpt><trkpt lat="45.81463404304288" lon="14.411293824288478"><ele>596.3333333333334</ele><time>2026-05-05T09:55:00Z</time></trkpt><trkpt lat="45.8146768519431" lon="14.411023746074944"><ele>595.6666666666667</ele><time>2026-05-05T09:55:01Z</time></trkpt><trkpt lat="45.81472150437273" lon="14.410740491706713"><ele>595.0</ele><time>2026-05-05T09:55:02Z</time></trkpt><trkpt lat="45.81476223824921" lon="14.410453890263133"><ele>595.0</ele><time>2026-05-05T09:55:03Z</time></trkpt><trkpt lat="45.81480135116821" lon="14.410165577551526"><ele>595.0</ele><time>2026-05-05T09:55:04Z</time></trkpt><trkpt lat="45.81484057996846" lon="14.409898774801123"><ele>595.0</ele><time>2026-05-05T09:55:05Z</time></trkpt><trkpt lat="45.81488902203983" lon="14.409660447665082"><ele>597.5</ele><time>2026-05-05T09:55:06Z</time></trkpt><trkpt lat="45.814987201597134" lon="14.409482520487577"><ele>600.0</ele><time>2026-05-05T09:55:07Z</time></trkpt><trkpt lat="45.81511095845691" lon="14.4093824991942"><ele>602.5</ele><time>2026-05-05T09:55:08Z</time></trkpt><trkpt lat="45.8152525490927" lon="14.409325229163706"><ele>605.0</ele><time>2026-05-05T09:55:09Z</time></trkpt><trkpt lat="45.815425813742884" lon="14.409308853438862"><ele>605.0</ele><time>2026-05-05T09:55:10Z</time></trkpt><trkpt lat="45.81562052942777" lon="14.409276420510505"><ele>605.0</ele><time>2026-05-05T09:55:11Z</time></trkpt><trkpt lat="45.81583526384963" lon="14.409263902815669"><ele>605.0</ele><time>2026-05-05T09:55:12Z</time></trkpt><trkpt lat="45.81606011905251" lon="14.409238016924622"><ele>606.0</ele><time>2026-05-05T09:55:13Z</time></trkpt><trkpt lat="45.81629539986573" lon="14.409209380372527"><ele>607.0</ele><time>2026-05-05T09:55:14Z</time></trkpt><trkpt lat="45.81653574686494" lon="14.409179470500712"><ele>607.0</ele><time>2026-05-05T09:55:15Z</time></trkpt><trkpt lat="45.81674835112531" lon="14.409157580820755"><ele>607.0</ele><time>2026-05-05T09:55:16Z</time></trkpt><trkpt lat="45.81693276522871" lon="14.409144384464355"><ele>607.0</ele><time>2026-05-05T09:55:17Z</time></trkpt><trkpt lat="45.817081676831215" lon="14.409129727188596"><ele>608.4</ele><time>2026-05-05T09:55:18Z</time></trkpt><trkpt lat="45.81720101429001" lon="14.409099899273393"><ele>609.8000000000001</ele><time>2026-05-05T09:55:19Z</time></trkpt><trkpt lat="45.81728043047247" lon="14.409017416481143"><ele>611.2</ele><time>2026-05-05T09:55:20Z</time></trkpt><trkpt lat="45.8173430393996" lon="14.408910384644912"><ele>612.6</ele><time>2026-05-05T09:55:21Z</time></trkpt><trkpt lat="45.81734415796743" lon="14.408756822601884"><ele>614.0</ele><time>2026-05-05T09:55:22Z</time></trkpt><trkpt lat="45.81728670706411" lon="14.408607506967002"><ele>617.25</ele><time>2026-05-05T09:55:23Z</time></trkpt><trkpt lat="45.81715262636688" lon="14.408535114200777"><ele>620.5</ele><time>2026-05-05T09:55:24Z</time></trkpt><trkpt lat="45.81701255626935" lon="14.408517093850655"><ele>623.75</ele><time>2026-05-05T09:55:25Z</time></trkpt><trkpt lat="45.81685058109351" lon="14.408548641093196"><ele>627.0</ele><time>2026-05-05T09:55:26Z</time></trkpt><trkpt lat="45.81666578594728" lon="14.408608110775589"><ele>627.0</ele><time>2026-05-05T09:55:27Z</time></trkpt><trkpt lat="45.816495134177856" lon="14.408687423235712"><ele>627.0</ele><time>2026-05-05T09:55:28Z</time></trkpt><trkpt lat="45.81637163983886" lon="14.408823023081863"><ele>627.0</ele><time>2026-05-05T09:55:29Z</time></trkpt><trkpt lat="45.81625523715425" lon="14.408900337620336"><ele>620.3333333333334</ele><time>2026-05-05T09:55:30Z</time></trkpt><trkpt lat="45.81610856765488" lon="14.408912396257065"><ele>613.6666666666667</ele><time>2026-05-05T09:55:31Z</time></trkpt><trkpt lat="45.81593796561288" lon="14.408872166972756"><ele>607.0</ele><time>2026-05-05T09:55:32Z</time></trkpt><trkpt lat="45.815776477593545" lon="14.408841006003744"><ele>610.5</ele><time>2026-05-05T09:55:33Z</time></trkpt><trkpt lat="45.815643697124784" lon="14.408789555928612"><ele>614.0</ele><time>2026-05-05T09:55:34Z</time></trkpt><trkpt lat="45.81552097237561" lon="14.40871753577834"><ele>617.5</ele><time>2026-05-05T09:55:35Z</time></trkpt><trkpt lat="45.81544611619929" lon="14.408587081570605"><ele>621.0</ele><time>2026-05-05T09:55:36Z</time></trkpt><trkpt lat="45.815394195948095" lon="14.40843391859767"><ele>621.0</ele><time>2026-05-05T09:55:37Z</time></trkpt><trkpt lat="45.81534754774973" lon="14.408233983036506"><ele>621.0</ele><time>2026-05-05T09:55:38Z</time></trkpt><trkpt lat="45.8153152908694" lon="14.408014625690848"><ele>621.0</ele><time>2026-05-05T09:55:39Z</time></trkpt><trkpt lat="45.81529287827074" lon="14.4077764518807"><ele>623.3333333333334</ele><time>2026-05-05T09:55:40Z</time></trkpt><trkpt lat="45.815257179062606" lon="14.407518240592701"><ele>625.6666666666667</ele><time>2026-05-05T09:55:41Z</time></trkpt><trkpt lat="45.815227876915074" lon="14.40722399065698"><ele>628.0</ele><time>2026-05-05T09:55:42Z</time></trkpt><trkpt lat="45.815197836093404" lon="14.40694168952788"><ele>628.6666666666667</ele><time>2026-05-05T09:55:43Z</time></trkpt><trkpt lat="45.81517640559752" lon="14.406687536036392"><ele>629.3333333333334</ele><time>2026-05-05T09:55:44Z</time></trkpt><trkpt lat="45.81515656731417" lon="14.406461769418863"><ele>630.0</ele><time>2026-05-05T09:55:45Z</time></trkpt><trkpt lat="45.81514485171631" lon="14.40624070000945"><ele>629.6666666666666</ele><time>2026-05-05T09:55:46Z</time></trkpt><trkpt lat="45.81517953022809" lon="14.406015585412495"><ele>629.3333333333333</ele><time>2026-05-05T09:55:47Z</time></trkpt><trkpt lat="45.815255910513955" lon="14.40580988860666"><ele>629.0</ele><time>2026-05-05T09:55:48Z</time></trkpt><trkpt lat="45.81533608689839" lon="14.405591032336089"><ele>629.0</ele><time>2026-05-05T09:55:49Z</time></trkpt><trkpt lat="45.815422963339486" lon="14.40537122874509"><ele>629.0</ele><time>2026-05-05T09:55:50Z</time></trkpt><trkpt lat="45.81550685872748" lon="14.405130964994378"><ele>629.0</ele><time>2026-05-05T09:55:51Z</time></trkpt><trkpt lat="45.81559989348827" lon="14.4048930935293"><ele>629.3333333333333</ele><time>2026-05-05T09:55:52Z</time></trkpt><trkpt lat="45.815695614058214" lon="14.404635782009949"><ele>629.6666666666666</ele><time>2026-05-05T09:55:53Z</time></trkpt><trkpt lat="45.815788500640856" lon="14.404377245045055"><ele>630.0</ele><time>2026-05-05T09:55:54Z</time></trkpt><trkpt lat="45.815881463705985" lon="14.404124031410033"><ele>630.0</ele><time>2026-05-05T09:55:55Z</time></trkpt><trkpt lat="45.81597568543337" lon="14.403867121543303"><ele>630.0</ele><time>2026-05-05T09:55:56Z</time></trkpt><trkpt lat="45.81606712979193" lon="14.403633253433314"><ele>630.0</ele><time>2026-05-05T09:55:57Z</time></trkpt><trkpt lat="45.81614880594294" lon="14.40343057099402"><ele>631.25</ele><time>2026-05-05T09:55:58Z</time></trkpt><trkpt lat="45.81625390826632" lon="14.40328457992302"><ele>632.5</ele><time>2026-05-05T09:55:59Z</time></trkpt><trkpt lat="45.816364104111464" lon="14.403174116039951"><ele>633.75</ele><time>2026-05-05T09:56:00Z</time></trkpt><trkpt lat="45.81650105504934" lon="14.4030934600576"><ele>635.0</ele><time>2026-05-05T09:56:01Z</time></trkpt><trkpt lat="45.81665344538693" lon="14.403091596555194"><ele>635.0</ele><time>2026-05-05T09:56:02Z</time></trkpt><trkpt lat="45.81679948149008" lon="14.403061661641573"><ele>635.0</ele><time>2026-05-05T09:56:03Z</time></trkpt><trkpt lat="45.8169388245385" lon="14.403086218795362"><ele>635.0</ele><time>2026-05-05T09:56:04Z</time></trkpt><trkpt lat="45.81706700530891" lon="14.403184440192483"><ele>635.0</ele><time>2026-05-05T09:56:05Z</time></trkpt><trkpt lat="45.81721095028503" lon="14.403291538313178"><ele>635.3333333333333</ele><time>2026-05-05T09:56:06Z</time></trkpt><trkpt lat="45.81736010099704" lon="14.403400180315213"><ele>635.6666666666666</ele><time>2026-05-05T09:56:07Z</time></trkpt><trkpt lat="45.817524045130405" lon="14.403487289095377"><ele>636.0</ele><time>2026-05-05T09:56:08Z</time></trkpt><trkpt lat="45.817714674216965" lon="14.40351975414702"><ele>637.3333333333334</ele><time>2026-05-05T09:56:09Z</time></trkpt><trkpt lat="45.81791743483934" lon="14.403521870570126"><ele>638.6666666666667</ele><time>2026-05-05T09:56:10Z</time></trkpt><trkpt lat="45.818131040609636" lon="14.403514110986164"><ele>640.0</ele><time>2026-05-05T09:56:11Z</time></trkpt><trkpt lat="45.81834736068028" lon="14.403498207639352"><ele>640.3333333333334</ele><time>2026-05-05T09:56:12Z</time></trkpt><trkpt lat="45.81854884969715" lon="14.40348270735249"><ele>640.6666666666666</ele><time>2026-05-05T09:56:13Z</time></trkpt><trkpt lat="45.81874069443275" lon="14.403468889258232"><ele>641.0</ele><time>2026-05-05T09:56:14Z</time></trkpt><trkpt lat="45.818918590309465" lon="14.403462680780828"><ele>641.0</ele><time>2026-05-05T09:56:15Z</time></trkpt><trkpt lat="45.81907608299674" lon="14.40347201084813"><ele>641.0</ele><time>2026-05-05T09:56:16Z</time></trkpt><trkpt lat="45.81919494621531" lon="14.40357272827739"><ele>641.0</ele><time>2026-05-05T09:56:17Z</time></trkpt><trkpt lat="45.81927222405327" lon="14.403691445965377"><ele>641.0</ele><time>2026-05-05T09:56:18Z</time></trkpt><trkpt lat="45.81931770135828" lon="14.403856645370523"><ele>644.0</ele><time>2026-05-05T09:56:19Z</time></trkpt><trkpt lat="45.819369224099866" lon="14.404035344922903"><ele>647.0</ele><time>2026-05-05T09:56:20Z</time></trkpt><trkpt lat="45.81941171893717" lon="14.404213004605014"><ele>650.0</ele><time>2026-05-05T09:56:21Z</time></trkpt><trkpt lat="45.819502465078294" lon="14.404331847954111"><ele>653.0</ele><time>2026-05-05T09:56:22Z</time></trkpt><trkpt lat="45.819632820337375" lon="14.404377372236954"><ele>653.0</ele><time>2026-05-05T09:56:23Z</time></trkpt><trkpt lat="45.819780242383096" lon="14.404333632029545"><ele>653.0</ele><time>2026-05-05T09:56:24Z</time></trkpt><trkpt lat="45.81992381181283" lon="14.404227033531672"><ele>653.0</ele><time>2026-05-05T09:56:25Z</time></trkpt><trkpt lat="45.8200783335642" lon="14.404125493097085"><ele>655.0</ele><time>2026-05-05T09:56:26Z</time></trkpt><trkpt lat="45.82024588705675" lon="14.404034094348388"><ele>657.0</ele><time>2026-05-05T09:56:27Z</time></trkpt><trkpt lat="45.82042106443069" lon="14.403943020216003"><ele>659.0</ele><time>2026-05-05T09:56:28Z</time></trkpt><trkpt lat="45.82061702167522" lon="14.403840438796525"><ele>660.3333333333333</ele><time>2026-05-05T09:56:29Z</time></trkpt><trkpt lat="45.82081995324254" lon="14.40373311085831"><ele>661.6666666666666</ele><time>2026-05-05T09:56:30Z</time></trkpt><trkpt lat="45.82099164909139" lon="14.40361902196516"><ele>663.0</ele><time>2026-05-05T09:56:31Z</time></trkpt><trkpt lat="45.82113426625948" lon="14.40354285778025"><ele>663.0</ele><time>2026-05-05T09:56:32Z</time></trkpt><trkpt lat="45.821253856169164" lon="14.403463010578202"><ele>663.0</ele><time>2026-05-05T09:56:33Z</time></trkpt><trkpt lat="45.82134255742796" lon="14.403340300462778"><ele>663.0</ele><time>2026-05-05T09:56:34Z</time></trkpt><trkpt lat="45.82139610573139" lon="14.403162364437186"><ele>663.0</ele><time>2026-05-05T09:56:35Z</time></trkpt><trkpt lat="45.821409942893844" lon="14.40297655453995"><ele>661.25</ele><time>2026-05-05T09:56:36Z</time></trkpt><trkpt lat="45.821372063295776" lon="14.402797286731102"><ele>659.5</ele><time>2026-05-05T09:56:37Z</time></trkpt><trkpt lat="45.821292216480444" lon="14.402652727154766"><ele>657.75</ele><time>2026-05-05T09:56:38Z</time></trkpt><trkpt lat="45.82122020045065" lon="14.402504210559556"><ele>656.0</ele><time>2026-05-05T09:56:39Z</time></trkpt><trkpt lat="45.82117584147904" lon="14.402340585969258"><ele>654.75</ele><time>2026-05-05T09:56:40Z</time></trkpt><trkpt lat="45.82121546590631" lon="14.402164866736053"><ele>653.5</ele><time>2026-05-05T09:56:41Z</time></trkpt><trkpt lat="45.82129309800086" lon="14.402027308230041"><ele>652.25</ele><time>2026-05-05T09:56:42Z</time></trkpt><trkpt lat="45.821393391865996" lon="14.401923147346622"><ele>651.0</ele><time>2026-05-05T09:56:43Z</time></trkpt><trkpt lat="45.82149618706811" lon="14.401808209674636"><ele>651.0</ele><time>2026-05-05T09:56:44Z</time></trkpt><trkpt lat="45.82157986459939" lon="14.401660751348457"><ele>651.0</ele><time>2026-05-05T09:56:45Z</time></trkpt><trkpt lat="45.821629497091166" lon="14.401486134599372"><ele>651.0</ele><time>2026-05-05T09:56:46Z</time></trkpt><trkpt lat="45.821606378847974" lon="14.401292620155742"><ele>651.0</ele><time>2026-05-05T09:56:47Z</time></trkpt><trkpt lat="45.82153744739948" lon="14.401162083517638"><ele>651.0</ele><time>2026-05-05T09:56:48Z</time></trkpt><trkpt lat="45.82153760477519" lon="14.401052737042695"><ele>651.0</ele><time>2026-05-05T09:56:49Z</time></trkpt><trkpt lat="45.82156952256378" lon="14.400925812395435"><ele>651.0</ele><time>2026-05-05T09:56:51Z</time></trkpt><trkpt lat="45.82158101703754" lon="14.400669505503561"><ele>651.0</ele><time>2026-05-05T09:56:53Z</time></trkpt><trkpt lat="45.82163146100044" lon="14.400511247383093"><ele>650.3333333333334</ele><time>2026-05-05T09:56:54Z</time></trkpt><trkpt lat="45.82174432175973" lon="14.400370597281672"><ele>649.6666666666667</ele><time>2026-05-05T09:56:55Z</time></trkpt><trkpt lat="45.82188863543085" lon="14.400212863184647"><ele>649.0</ele><time>2026-05-05T09:56:56Z</time></trkpt><trkpt lat="45.822040920902445" lon="14.400041034485314"><ele>648.0</ele><time>2026-05-05T09:56:57Z</time></trkpt><trkpt lat="45.82220193211329" lon="14.399888854204978"><ele>647.0</ele><time>2026-05-05T09:56:58Z</time></trkpt><trkpt lat="45.82236728898494" lon="14.39972773318646"><ele>646.0</ele><time>2026-05-05T09:56:59Z</time></trkpt><trkpt lat="45.822530085745974" lon="14.399511309067895"><ele>648.6666666666667</ele><time>2026-05-05T09:57:00Z</time></trkpt><trkpt lat="45.82268932124641" lon="14.399337244993479"><ele>651.3333333333334</ele><time>2026-05-05T09:57:01Z</time></trkpt><trkpt lat="45.822813710239785" lon="14.399177869541647"><ele>654.0</ele><time>2026-05-05T09:57:02Z</time></trkpt><trkpt lat="45.822915987628704" lon="14.39905836415499"><ele>654.0</ele><time>2026-05-05T09:57:03Z</time></trkpt><trkpt lat="45.82297412167693" lon="14.39892981573195"><ele>654.0</ele><time>2026-05-05T09:57:04Z</time></trkpt><trkpt lat="45.82297457616439" lon="14.398780362475195"><ele>654.0</ele><time>2026-05-05T09:57:05Z</time></trkpt><trkpt lat="45.82293113307568" lon="14.398645273531987"><ele>654.0</ele><time>2026-05-05T09:57:06Z</time></trkpt><trkpt lat="45.82284531977431" lon="14.398540962930516"><ele>654.0</ele><time>2026-05-05T09:57:07Z</time></trkpt><trkpt lat="45.8227197291528" lon="14.398505552352695"><ele>652.25</ele><time>2026-05-05T09:57:08Z</time></trkpt><trkpt lat="45.82259823448509" lon="14.3985575260071"><ele>650.5</ele><time>2026-05-05T09:57:09Z</time></trkpt><trkpt lat="45.82249255176473" lon="14.39865991391822"><ele>648.75</ele><time>2026-05-05T09:57:10Z</time></trkpt><trkpt lat="45.82237636409147" lon="14.3987210440627"><ele>647.0</ele><time>2026-05-05T09:57:11Z</time></trkpt><trkpt lat="45.822257500758724" lon="14.398680889140799"><ele>647.0</ele><time>2026-05-05T09:57:12Z</time></trkpt><trkpt lat="45.82214898291926" lon="14.398554596637211"><ele>647.0</ele><time>2026-05-05T09:57:13Z</time></trkpt><trkpt lat="45.822026293970055" lon="14.39843449713785"><ele>647.0</ele><time>2026-05-05T09:57:14Z</time></trkpt><trkpt lat="45.82190069960725" lon="14.39829331843106"><ele>647.0</ele><time>2026-05-05T09:57:15Z</time></trkpt><trkpt lat="45.821772606465935" lon="14.39814050713634"><ele>647.3333333333333</ele><time>2026-05-05T09:57:16Z</time></trkpt><trkpt lat="45.82164789885791" lon="14.397969510592292"><ele>647.6666666666666</ele><time>2026-05-05T09:57:17Z</time></trkpt><trkpt lat="45.821502923395585" lon="14.397809358347919"><ele>648.0</ele><time>2026-05-05T09:57:18Z</time></trkpt><trkpt lat="45.82136537646485" lon="14.397614079751573"><ele>648.0</ele><time>2026-05-05T09:57:19Z</time></trkpt><trkpt lat="45.82123301130401" lon="14.397431089270684"><ele>648.0</ele><time>2026-05-05T09:57:20Z</time></trkpt><trkpt lat="45.82109623109906" lon="14.397271853831274"><ele>648.0</ele><time>2026-05-05T09:57:21Z</time></trkpt><trkpt lat="45.8209411011778" lon="14.397165372580925"><ele>648.3333333333334</ele><time>2026-05-05T09:57:22Z</time></trkpt><trkpt lat="45.82077332359253" lon="14.397116644211083"><ele>648.6666666666667</ele><time>2026-05-05T09:57:23Z</time></trkpt><trkpt lat="45.82060664130087" lon="14.397062666245276"><ele>649.0</ele><time>2026-05-05T09:57:24Z</time></trkpt><trkpt lat="45.82044905158938" lon="14.396968272239365"><ele>649.0</ele><time>2026-05-05T09:57:25Z</time></trkpt><trkpt lat="45.820315394500604" lon="14.396865029879196"><ele>649.0</ele><time>2026-05-05T09:57:26Z</time></trkpt><trkpt lat="45.820196208206006" lon="14.396773005014268"><ele>649.0</ele><time>2026-05-05T09:57:27Z</time></trkpt><trkpt lat="45.8200873819661" lon="14.396682205753837"><ele>649.0</ele><time>2026-05-05T09:57:28Z</time></trkpt><trkpt lat="45.819984224017155" lon="14.396595072047266"><ele>647.8000000000001</ele><time>2026-05-05T09:57:29Z</time></trkpt><trkpt lat="45.819908712562835" lon="14.39647434238621"><ele>646.6</ele><time>2026-05-05T09:57:30Z</time></trkpt><trkpt lat="45.81987105092415" lon="14.39633591408288"><ele>645.4</ele><time>2026-05-05T09:57:31Z</time></trkpt><trkpt lat="45.819889187611615" lon="14.396202955390734"><ele>644.2</ele><time>2026-05-05T09:57:32Z</time></trkpt><trkpt lat="45.81992395506455" lon="14.396096648886095"><ele>643.0</ele><time>2026-05-05T09:57:33Z</time></trkpt><trkpt lat="45.81994527575779" lon="14.395975657425272"><ele>643.0</ele><time>2026-05-05T09:57:34Z</time></trkpt><trkpt lat="45.81997363528598" lon="14.395826487832757"><ele>643.0</ele><time>2026-05-05T09:57:35Z</time></trkpt><trkpt lat="45.81997157520296" lon="14.395691617615743"><ele>643.0</ele><time>2026-05-05T09:57:36Z</time></trkpt><trkpt lat="45.81994327324865" lon="14.395556711349405"><ele>643.0</ele><time>2026-05-05T09:57:37Z</time></trkpt><trkpt lat="45.81988795858559" lon="14.395440849847558"><ele>643.0</ele><time>2026-05-05T09:57:38Z</time></trkpt><trkpt lat="45.819824796647595" lon="14.395345700069402"><ele>642.8333333333334</ele><time>2026-05-05T09:57:39Z</time></trkpt><trkpt lat="45.81977310416976" lon="14.395246240637594"><ele>642.6666666666667</ele><time>2026-05-05T09:57:40Z</time></trkpt><trkpt lat="45.81972861035976" lon="14.395143722912959"><ele>642.5</ele><time>2026-05-05T09:57:41Z</time></trkpt><trkpt lat="45.81967946468915" lon="14.39504516079654"><ele>642.3333333333334</ele><time>2026-05-05T09:57:42Z</time></trkpt><trkpt lat="45.81961779859957" lon="14.394948581151368"><ele>642.1666666666666</ele><time>2026-05-05T09:57:43Z</time></trkpt><trkpt lat="45.81954201553088" lon="14.394869133745198"><ele>642.0</ele><time>2026-05-05T09:57:44Z</time></trkpt><trkpt lat="45.81945475312644" lon="14.394811363833018"><ele>642.0</ele><time>2026-05-05T09:57:45Z</time></trkpt><trkpt lat="45.81936213736736" lon="14.394786647838263"><ele>642.0</ele><time>2026-05-05T09:57:46Z</time></trkpt><trkpt lat="45.81927324714834" lon="14.394785133728737"><ele>642.0</ele><time>2026-05-05T09:57:47Z</time></trkpt><trkpt lat="45.81919031628142" lon="14.394783603131659"><ele>642.0</ele><time>2026-05-05T09:57:48Z</time></trkpt><trkpt lat="45.8191084207805" lon="14.394772391242173"><ele>642.0</ele><time>2026-05-05T09:57:49Z</time></trkpt><trkpt lat="45.819022509777724" lon="14.39475699180613"><ele>642.0</ele><time>2026-05-05T09:57:50Z</time></trkpt><trkpt lat="45.81893611790457" lon="14.394729548257189"><ele>640.4</ele><time>2026-05-05T09:57:51Z</time></trkpt><trkpt lat="45.81885003306308" lon="14.394681710101553"><ele>638.8000000000001</ele><time>2026-05-05T09:57:52Z</time></trkpt><trkpt lat="45.81878355997295" lon="14.394597036391342"><ele>637.2</ele><time>2026-05-05T09:57:53Z</time></trkpt><trkpt lat="45.81874750823131" lon="14.394476132640536"><ele>635.6</ele><time>2026-05-05T09:57:54Z</time></trkpt><trkpt lat="45.81874821430731" lon="14.39435021076826"><ele>634.0</ele><time>2026-05-05T09:57:55Z</time></trkpt><trkpt lat="45.81878007703104" lon="14.394224420351817"><ele>633.0</ele><time>2026-05-05T09:57:56Z</time></trkpt><trkpt lat="45.81885558412127" lon="14.39412387445495"><ele>632.0</ele><time>2026-05-05T09:57:57Z</time></trkpt><trkpt lat="45.81895697740246" lon="14.394091867036698"><ele>631.0</ele><time>2026-05-05T09:57:58Z</time></trkpt><trkpt lat="45.81905329628464" lon="14.394015290083608"><ele>630.0</ele><time>2026-05-05T09:57:59Z</time></trkpt><trkpt lat="45.81916448774667" lon="14.393961386230782"><ele>629.0</ele><time>2026-05-05T09:58:00Z</time></trkpt><trkpt lat="45.81927586634501" lon="14.393896513264508"><ele>629.2</ele><time>2026-05-05T09:58:01Z</time></trkpt><trkpt lat="45.81936785482568" lon="14.393802438599588"><ele>629.4</ele><time>2026-05-05T09:58:02Z</time></trkpt><trkpt lat="45.819433055381396" lon="14.393674459963082"><ele>629.6</ele><time>2026-05-05T09:58:03Z</time></trkpt><trkpt lat="45.81946884176779" lon="14.393532900082336"><ele>629.8</ele><time>2026-05-05T09:58:04Z</time></trkpt><trkpt lat="45.81947076449346" lon="14.393367809689646"><ele>630.0</ele><time>2026-05-05T09:58:05Z</time></trkpt><trkpt lat="45.81943604366105" lon="14.393193647017046"><ele>630.0</ele><time>2026-05-05T09:58:06Z</time></trkpt><trkpt lat="45.819368383400366" lon="14.393028493324177"><ele>630.0</ele><time>2026-05-05T09:58:07Z</time></trkpt><trkpt lat="45.81927342664787" lon="14.392883959753659"><ele>630.0</ele><time>2026-05-05T09:58:08Z</time></trkpt><trkpt lat="45.81914564511608" lon="14.392756318197291"><ele>630.0</ele><time>2026-05-05T09:58:09Z</time></trkpt><trkpt lat="45.8190127995457" lon="14.39256392062337"><ele>628.6666666666666</ele><time>2026-05-05T09:58:10Z</time></trkpt><trkpt lat="45.818864746098285" lon="14.392363183347106"><ele>627.3333333333333</ele><time>2026-05-05T09:58:11Z</time></trkpt><trkpt lat="45.81873578682829" lon="14.392193516486692"><ele>626.0</ele><time>2026-05-05T09:58:12Z</time></trkpt><trkpt lat="45.81863947482721" lon="14.392009927669868"><ele>626.0</ele><time>2026-05-05T09:58:13Z</time></trkpt><trkpt lat="45.81856789112385" lon="14.391811564382472"><ele>626.0</ele><time>2026-05-05T09:58:14Z</time></trkpt><trkpt lat="45.818518040808016" lon="14.3915868038234"><ele>626.0</ele><time>2026-05-05T09:58:15Z</time></trkpt><trkpt lat="45.818473523694045" lon="14.391356719131897"><ele>626.0</ele><time>2026-05-05T09:58:16Z</time></trkpt><trkpt lat="45.818438167224116" lon="14.391135440870471"><ele>626.0</ele><time>2026-05-05T09:58:17Z</time></trkpt><trkpt lat="45.8184397778579" lon="14.39093166374147"><ele>626.0</ele><time>2026-05-05T09:58:18Z</time></trkpt><trkpt lat="45.8184876305589" lon="14.39075639751757"><ele>626.0</ele><time>2026-05-05T09:58:19Z</time></trkpt><trkpt lat="45.81858929512007" lon="14.390617599121144"><ele>624.6666666666666</ele><time>2026-05-05T09:58:20Z</time></trkpt><trkpt lat="45.81870079094076" lon="14.390477657151148"><ele>623.3333333333334</ele><time>2026-05-05T09:58:21Z</time></trkpt><trkpt lat="45.81881358779022" lon="14.39032419257372"><ele>622.0</ele><time>2026-05-05T09:58:22Z</time></trkpt><trkpt lat="45.81893546395228" lon="14.390176180240582"><ele>622.0</ele><time>2026-05-05T09:58:23Z</time></trkpt><trkpt lat="45.81903865092617" lon="14.38999838965181"><ele>622.0</ele><time>2026-05-05T09:58:24Z</time></trkpt><trkpt lat="45.819111511437995" lon="14.38978776863493"><ele>622.0</ele><time>2026-05-05T09:58:25Z</time></trkpt><trkpt lat="45.819162795008204" lon="14.389537115928348"><ele>621.0</ele><time>2026-05-05T09:58:26Z</time></trkpt><trkpt lat="45.81920340781311" lon="14.389285090027707"><ele>620.0</ele><time>2026-05-05T09:58:27Z</time></trkpt><trkpt lat="45.8192547057698" lon="14.389023786448996"><ele>619.0</ele><time>2026-05-05T09:58:28Z</time></trkpt><trkpt lat="45.819314669008634" lon="14.388758228438917"><ele>620.6666666666667</ele><time>2026-05-05T09:58:29Z</time></trkpt><trkpt lat="45.819374598036234" lon="14.388486337347974"><ele>622.3333333333334</ele><time>2026-05-05T09:58:30Z</time></trkpt><trkpt lat="45.81943837529526" lon="14.388206826189816"><ele>624.0</ele><time>2026-05-05T09:58:31Z</time></trkpt><trkpt lat="45.81949895503053" lon="14.387938549441314"><ele>624.0</ele><time>2026-05-05T09:58:32Z</time></trkpt><trkpt lat="45.81955304952493" lon="14.38767913159693"><ele>624.0</ele><time>2026-05-05T09:58:33Z</time></trkpt><trkpt lat="45.81958135966521" lon="14.38743493731514"><ele>624.0</ele><time>2026-05-05T09:58:34Z</time></trkpt><trkpt lat="45.81956679203181" lon="14.38718697257452"><ele>624.25</ele><time>2026-05-05T09:58:35Z</time></trkpt><trkpt lat="45.819515453176564" lon="14.386968186927898"><ele>624.5</ele><time>2026-05-05T09:58:36Z</time></trkpt><trkpt lat="45.819494272755605" lon="14.386764605961881"><ele>624.75</ele><time>2026-05-05T09:58:37Z</time></trkpt><trkpt lat="45.819524537131755" lon="14.386591036546506"><ele>625.0</ele><time>2026-05-05T09:58:38Z</time></trkpt><trkpt lat="45.81959562175369" lon="14.386431314769808"><ele>624.0</ele><time>2026-05-05T09:58:39Z</time></trkpt><trkpt lat="45.81966224211951" lon="14.386234666899513"><ele>623.0</ele><time>2026-05-05T09:58:40Z</time></trkpt><trkpt lat="45.819747492688926" lon="14.386047503679357"><ele>622.0</ele><time>2026-05-05T09:58:41Z</time></trkpt><trkpt lat="45.819826930363476" lon="14.385855812311336"><ele>622.0</ele><time>2026-05-05T09:58:42Z</time></trkpt><trkpt lat="45.81990629826167" lon="14.38566113102069"><ele>622.0</ele><time>2026-05-05T09:58:43Z</time></trkpt><trkpt lat="45.8199877307135" lon="14.385461933993078"><ele>622.0</ele><time>2026-05-05T09:58:44Z</time></trkpt><trkpt lat="45.82007562335231" lon="14.385246005302966"><ele>622.0</ele><time>2026-05-05T09:58:45Z</time></trkpt><trkpt lat="45.82016113383203" lon="14.385024358218894"><ele>622.0</ele><time>2026-05-05T09:58:46Z</time></trkpt><trkpt lat="45.82023808071208" lon="14.384801323011617"><ele>622.0</ele><time>2026-05-05T09:58:47Z</time></trkpt><trkpt lat="45.82030712442175" lon="14.38458028211254"><ele>621.5</ele><time>2026-05-05T09:58:48Z</time></trkpt><trkpt lat="45.82036444008149" lon="14.384372084449433"><ele>621.0</ele><time>2026-05-05T09:58:49Z</time></trkpt><trkpt lat="45.82040706807905" lon="14.384186067163435"><ele>620.5</ele><time>2026-05-05T09:58:50Z</time></trkpt><trkpt lat="45.82044979183475" lon="14.384009098238577"><ele>620.0</ele><time>2026-05-05T09:58:51Z</time></trkpt><trkpt lat="45.82049101481571" lon="14.383823514215601"><ele>620.0</ele><time>2026-05-05T09:58:52Z</time></trkpt><trkpt lat="45.82053849482696" lon="14.383639679684219"><ele>620.0</ele><time>2026-05-05T09:58:53Z</time></trkpt><trkpt lat="45.820575448214846" lon="14.383460220125805"><ele>620.0</ele><time>2026-05-05T09:58:54Z</time></trkpt><trkpt lat="45.820605422602156" lon="14.38328446676421"><ele>620.0</ele><time>2026-05-05T09:58:55Z</time></trkpt><trkpt lat="45.820614536730005" lon="14.383114786126935"><ele>619.6</ele><time>2026-05-05T09:58:56Z</time></trkpt><trkpt lat="45.82059362183" lon="14.382962676564535"><ele>619.2</ele><time>2026-05-05T09:58:57Z</time></trkpt><trkpt lat="45.820548883666554" lon="14.382847650556055"><ele>618.8</ele><time>2026-05-05T09:58:58Z</time></trkpt><trkpt lat="45.82047900989035" lon="14.38276245047968"><ele>618.4</ele><time>2026-05-05T09:58:59Z</time></trkpt><trkpt lat="45.82038888730552" lon="14.38271510093734"><ele>618.0</ele><time>2026-05-05T09:59:00Z</time></trkpt><trkpt lat="45.82028970796218" lon="14.382691904867448"><ele>618.0</ele><time>2026-05-05T09:59:01Z</time></trkpt><trkpt lat="45.82018034062141" lon="14.382689977387672"><ele>618.0</ele><time>2026-05-05T09:59:02Z</time></trkpt><trkpt lat="45.82006155881474" lon="14.38268380494782"><ele>618.0</ele><time>2026-05-05T09:59:03Z</time></trkpt><trkpt lat="45.819932474574706" lon="14.382667941712453"><ele>618.0</ele><time>2026-05-05T09:59:04Z</time></trkpt><trkpt lat="45.819799131500815" lon="14.382663278314995"><ele>618.0</ele><time>2026-05-05T09:59:05Z</time></trkpt><trkpt lat="45.819662632649674" lon="14.382675139607421"><ele>618.0</ele><time>2026-05-05T09:59:06Z</time></trkpt><trkpt lat="45.81953109816375" lon="14.38270681092853"><ele>618.0</ele><time>2026-05-05T09:59:07Z</time></trkpt><trkpt lat="45.81940578847009" lon="14.38274692669407"><ele>618.0</ele><time>2026-05-05T09:59:08Z</time></trkpt><trkpt lat="45.81928478656015" lon="14.382763894901965"><ele>617.25</ele><time>2026-05-05T09:59:09Z</time></trkpt><trkpt lat="45.81916954920124" lon="14.382757339474338"><ele>616.5</ele><time>2026-05-05T09:59:10Z</time></trkpt><trkpt lat="45.81905404695518" lon="14.38274714459942"><ele>615.75</ele><time>2026-05-05T09:59:11Z</time></trkpt><trkpt lat="45.81893632694508" lon="14.382740242682667"><ele>615.0</ele><time>2026-05-05T09:59:12Z</time></trkpt><trkpt lat="45.81883068444745" lon="14.38273050916816"><ele>615.0</ele><time>2026-05-05T09:59:13Z</time></trkpt><trkpt lat="45.81872280559825" lon="14.382729820248029"><ele>615.0</ele><time>2026-05-05T09:59:14Z</time></trkpt><trkpt lat="45.818618620475696" lon="14.382727693693063"><ele>615.0</ele><time>2026-05-05T09:59:15Z</time></trkpt><trkpt lat="45.81850794827356" lon="14.382726337758681"><ele>615.0</ele><time>2026-05-05T09:59:16Z</time></trkpt><trkpt lat="45.8183943570975" lon="14.382725555262892"><ele>615.0</ele><time>2026-05-05T09:59:17Z</time></trkpt><trkpt lat="45.81828118779211" lon="14.382726952229449"><ele>614.5</ele><time>2026-05-05T09:59:18Z</time></trkpt><trkpt lat="45.8181689231141" lon="14.382731581386523"><ele>614.0</ele><time>2026-05-05T09:59:19Z</time></trkpt><trkpt lat="45.818050888753454" lon="14.382752712011143"><ele>613.5</ele><time>2026-05-05T09:59:20Z</time></trkpt><trkpt lat="45.81792859602383" lon="14.38277471779164"><ele>613.0</ele><time>2026-05-05T09:59:21Z</time></trkpt><trkpt lat="45.81781179402405" lon="14.382784347118836"><ele>613.0</ele><time>2026-05-05T09:59:22Z</time></trkpt><trkpt lat="45.8176871041103" lon="14.382768706370172"><ele>613.0</ele><time>2026-05-05T09:59:23Z</time></trkpt><trkpt lat="45.81756408069538" lon="14.38274407630123"><ele>613.0</ele><time>2026-05-05T09:59:24Z</time></trkpt><trkpt lat="45.81744177909304" lon="14.382714532734228"><ele>613.0</ele><time>2026-05-05T09:59:25Z</time></trkpt><trkpt lat="45.81732358649225" lon="14.382694900224088"><ele>612.1999999999999</ele><time>2026-05-05T09:59:26Z</time></trkpt><trkpt lat="45.81721378176109" lon="14.38266584433464"><ele>611.4</ele><time>2026-05-05T09:59:27Z</time></trkpt><trkpt lat="45.817114321433294" lon="14.382635480945009"><ele>610.5999999999999</ele><time>2026-05-05T09:59:28Z</time></trkpt><trkpt lat="45.817007122261266" lon="14.382583659899444"><ele>609.8</ele><time>2026-05-05T09:59:29Z</time></trkpt><trkpt lat="45.81691783816079" lon="14.382491406073354"><ele>609.0</ele><time>2026-05-05T09:59:30Z</time></trkpt><trkpt lat="45.81685716914354" lon="14.382334919951399"><ele>609.25</ele><time>2026-05-05T09:59:31Z</time></trkpt><trkpt lat="45.81676706156469" lon="14.382197766311204"><ele>609.5</ele><time>2026-05-05T09:59:32Z</time></trkpt><trkpt lat="45.81668608556263" lon="14.382046648995486"><ele>609.75</ele><time>2026-05-05T09:59:33Z</time></trkpt><trkpt lat="45.816598003737624" lon="14.381894923391501"><ele>610.0</ele><time>2026-05-05T09:59:34Z</time></trkpt><trkpt lat="45.81650563881956" lon="14.381736053247282"><ele>609.0</ele><time>2026-05-05T09:59:35Z</time></trkpt><trkpt lat="45.816426150479884" lon="14.381561036357354"><ele>608.0</ele><time>2026-05-05T09:59:36Z</time></trkpt><trkpt lat="45.81633673638018" lon="14.381393870885821"><ele>607.0</ele><time>2026-05-05T09:59:37Z</time></trkpt><trkpt lat="45.81624001679636" lon="14.381218921908207"><ele>606.0</ele><time>2026-05-05T09:59:38Z</time></trkpt><trkpt lat="45.81612897522065" lon="14.38106291097179"><ele>606.0</ele><time>2026-05-05T09:59:39Z</time></trkpt><trkpt lat="45.81602619975589" lon="14.380892143514243"><ele>606.0</ele><time>2026-05-05T09:59:40Z</time></trkpt><trkpt lat="45.815916662837374" lon="14.38072443227655"><ele>606.0</ele><time>2026-05-05T09:59:41Z</time></trkpt><trkpt lat="45.815803621143914" lon="14.380555515429798"><ele>605.3333333333334</ele><time>2026-05-05T09:59:42Z</time></trkpt><trkpt lat="45.815698285733696" lon="14.38038125066185"><ele>604.6666666666667</ele><time>2026-05-05T09:59:43Z</time></trkpt><trkpt lat="45.81560198882383" lon="14.380198241199935"><ele>604.0</ele><time>2026-05-05T09:59:44Z</time></trkpt><trkpt lat="45.81553919930684" lon="14.379987805060072"><ele>604.0</ele><time>2026-05-05T09:59:45Z</time></trkpt><trkpt lat="45.8154588594311" lon="14.379789837099478"><ele>604.0</ele><time>2026-05-05T09:59:46Z</time></trkpt><trkpt lat="45.81540350993612" lon="14.379570677545285"><ele>604.0</ele><time>2026-05-05T09:59:47Z</time></trkpt><trkpt lat="45.815358464917004" lon="14.379353746212733"><ele>604.0</ele><time>2026-05-05T09:59:48Z</time></trkpt><trkpt lat="45.81531772701408" lon="14.379137639212791"><ele>604.0</ele><time>2026-05-05T09:59:49Z</time></trkpt><trkpt lat="45.81528809700691" lon="14.378925319914996"><ele>604.0</ele><time>2026-05-05T09:59:50Z</time></trkpt><trkpt lat="45.815298159977026" lon="14.378712841295053"><ele>605.0</ele><time>2026-05-05T09:59:51Z</time></trkpt><trkpt lat="45.81529232680097" lon="14.378491507099408"><ele>606.0</ele><time>2026-05-05T09:59:52Z</time></trkpt><trkpt lat="45.815255789001824" lon="14.378276920704144"><ele>607.0</ele><time>2026-05-05T09:59:53Z</time></trkpt><trkpt lat="45.81520540063343" lon="14.37806026375887"><ele>606.3333333333334</ele><time>2026-05-05T09:59:54Z</time></trkpt><trkpt lat="45.815136154468874" lon="14.377843231675964"><ele>605.6666666666666</ele><time>2026-05-05T09:59:55Z</time></trkpt><trkpt lat="45.81504559853133" lon="14.377637727859268"><ele>605.0</ele><time>2026-05-05T09:59:56Z</time></trkpt><trkpt lat="45.81493136607901" lon="14.377446598828724"><ele>605.0</ele><time>2026-05-05T09:59:57Z</time></trkpt><trkpt lat="45.8148010581604" lon="14.377282448943664"><ele>605.0</ele><time>2026-05-05T09:59:58Z</time></trkpt><trkpt lat="45.81467007776699" lon="14.377129214878789"><ele>605.0</ele><time>2026-05-05T09:59:59Z</time></trkpt><trkpt lat="45.814550125200185" lon="14.376964559590638"><ele>605.3333333333333</ele><time>2026-05-05T10:00:00Z</time></trkpt><trkpt lat="45.81444060541342" lon="14.376788517664478"><ele>605.6666666666666</ele><time>2026-05-05T10:00:01Z</time></trkpt><trkpt lat="45.81436024005788" lon="14.376584055895263"><ele>606.0</ele><time>2026-05-05T10:00:02Z</time></trkpt><trkpt lat="45.81428196826905" lon="14.376373306668794"><ele>606.3333333333334</ele><time>2026-05-05T10:00:03Z</time></trkpt><trkpt lat="45.814190257728725" lon="14.376183864876392"><ele>606.6666666666667</ele><time>2026-05-05T10:00:04Z</time></trkpt><trkpt lat="45.81408271641346" lon="14.376024415866631"><ele>607.0</ele><time>2026-05-05T10:00:05Z</time></trkpt><trkpt lat="45.81394432285704" lon="14.375903591442672"><ele>607.0</ele><time>2026-05-05T10:00:06Z</time></trkpt><trkpt lat="45.813794008275124" lon="14.375803738501668"><ele>607.0</ele><time>2026-05-05T10:00:07Z</time></trkpt><trkpt lat="45.81363778847524" lon="14.375704504607032"><ele>607.0</ele><time>2026-05-05T10:00:08Z</time></trkpt><trkpt lat="45.81348560159442" lon="14.375604019117658"><ele>606.6666666666667</ele><time>2026-05-05T10:00:09Z</time></trkpt><trkpt lat="45.81333399502757" lon="14.37550768633084"><ele>606.3333333333334</ele><time>2026-05-05T10:00:10Z</time></trkpt><trkpt lat="45.81318196369998" lon="14.375409969490134"><ele>606.0</ele><time>2026-05-05T10:00:11Z</time></trkpt><trkpt lat="45.81303430751134" lon="14.37528872097637"><ele>606.0</ele><time>2026-05-05T10:00:12Z</time></trkpt><trkpt lat="45.81290327401164" lon="14.37512358168322"><ele>606.0</ele><time>2026-05-05T10:00:13Z</time></trkpt><trkpt lat="45.81276221712359" lon="14.374975940877702"><ele>606.0</ele><time>2026-05-05T10:00:14Z</time></trkpt><trkpt lat="45.812636965790155" lon="14.374823691720367"><ele>605.6666666666666</ele><time>2026-05-05T10:00:15Z</time></trkpt><trkpt lat="45.81250775813995" lon="14.374685488951958"><ele>605.3333333333333</ele><time>2026-05-05T10:00:16Z</time></trkpt><trkpt lat="45.812376866452055" lon="14.374565275436614"><ele>605.0</ele><time>2026-05-05T10:00:17Z</time></trkpt><trkpt lat="45.81224510474793" lon="14.374474132917625"><ele>605.0</ele><time>2026-05-05T10:00:18Z</time></trkpt><trkpt lat="45.81211762247159" lon="14.374403409666275"><ele>605.0</ele><time>2026-05-05T10:00:19Z</time></trkpt><trkpt lat="45.811997407016946" lon="14.374334424504607"><ele>605.0</ele><time>2026-05-05T10:00:20Z</time></trkpt><trkpt lat="45.81188453670198" lon="14.374252300172312"><ele>605.0</ele><time>2026-05-05T10:00:21Z</time></trkpt><trkpt lat="45.811774695197215" lon="14.374158478178401"><ele>605.0</ele><time>2026-05-05T10:00:22Z</time></trkpt><trkpt lat="45.81166896761883" lon="14.374061939663303"><ele>605.0</ele><time>2026-05-05T10:00:23Z</time></trkpt><trkpt lat="45.8115666237499" lon="14.373957643408907"><ele>605.0</ele><time>2026-05-05T10:00:24Z</time></trkpt><trkpt lat="45.811469033449036" lon="14.37384213626785"><ele>605.0</ele><time>2026-05-05T10:00:25Z</time></trkpt><trkpt lat="45.81138826532851" lon="14.373703417460469"><ele>605.0</ele><time>2026-05-05T10:00:26Z</time></trkpt><trkpt lat="45.811318973732" lon="14.373551390929217"><ele>605.0</ele><time>2026-05-05T10:00:27Z</time></trkpt><trkpt lat="45.81125130568284" lon="14.37339781099126"><ele>605.0</ele><time>2026-05-05T10:00:28Z</time></trkpt><trkpt lat="45.8111804605834" lon="14.373240236259221"><ele>605.0</ele><time>2026-05-05T10:00:29Z</time></trkpt><trkpt lat="45.81110731716995" lon="14.373075043031792"><ele>605.0</ele><time>2026-05-05T10:00:30Z</time></trkpt><trkpt lat="45.81103496910525" lon="14.372914746229718"><ele>605.0</ele><time>2026-05-05T10:00:31Z</time></trkpt><trkpt lat="45.81095918370369" lon="14.37275311612026"><ele>605.0</ele><time>2026-05-05T10:00:32Z</time></trkpt><trkpt lat="45.810887371557236" lon="14.37259806544016"><ele>605.0</ele><time>2026-05-05T10:00:33Z</time></trkpt><trkpt lat="45.81081664000184" lon="14.37244306517806"><ele>605.5</ele><time>2026-05-05T10:00:34Z</time></trkpt><trkpt lat="45.81073900757687" lon="14.372294260726672"><ele>606.0</ele><time>2026-05-05T10:00:35Z</time></trkpt><trkpt lat="45.810649748934644" lon="14.372161080119156"><ele>606.5</ele><time>2026-05-05T10:00:36Z</time></trkpt><trkpt lat="45.81053592399507" lon="14.372061072548936"><ele>607.0</ele><time>2026-05-05T10:00:37Z</time></trkpt><trkpt lat="45.81040544946709" lon="14.371984180704176"><ele>607.0</ele><time>2026-05-05T10:00:38Z</time></trkpt><trkpt lat="45.81027080656704" lon="14.371904996124762"><ele>607.0</ele><time>2026-05-05T10:00:39Z</time></trkpt><trkpt lat="45.810150583101304" lon="14.371828549210102"><ele>607.0</ele><time>2026-05-05T10:00:40Z</time></trkpt><trkpt lat="45.81003297801108" lon="14.371746259273985"><ele>607.0</ele><time>2026-05-05T10:00:41Z</time></trkpt><trkpt lat="45.8099074860991" lon="14.371670965646931"><ele>606.5</ele><time>2026-05-05T10:00:42Z</time></trkpt><trkpt lat="45.80977007267272" lon="14.371625988245508"><ele>606.0</ele><time>2026-05-05T10:00:43Z</time></trkpt><trkpt lat="45.80962150641862" lon="14.371608359936367"><ele>605.5</ele><time>2026-05-05T10:00:44Z</time></trkpt><trkpt lat="45.80947842773425" lon="14.371600460635108"><ele>605.0</ele><time>2026-05-05T10:00:45Z</time></trkpt><trkpt lat="45.80932833067352" lon="14.371602520518795"><ele>606.0</ele><time>2026-05-05T10:00:46Z</time></trkpt><trkpt lat="45.80917881068787" lon="14.371615178237453"><ele>607.0</ele><time>2026-05-05T10:00:47Z</time></trkpt><trkpt lat="45.80903155127017" lon="14.371653572817939"><ele>608.0</ele><time>2026-05-05T10:00:48Z</time></trkpt><trkpt lat="45.80888754254977" lon="14.371724082317641"><ele>608.0</ele><time>2026-05-05T10:00:49Z</time></trkpt><trkpt lat="45.808753080888366" lon="14.371825011530696"><ele>608.0</ele><time>2026-05-05T10:00:50Z</time></trkpt><trkpt lat="45.80861910478487" lon="14.371937022403529"><ele>608.0</ele><time>2026-05-05T10:00:51Z</time></trkpt><trkpt lat="45.8084803113891" lon="14.37206309368449"><ele>605.3333333333333</ele><time>2026-05-05T10:00:52Z</time></trkpt><trkpt lat="45.80835305446661" lon="14.372195463593153"><ele>602.6666666666666</ele><time>2026-05-05T10:00:53Z</time></trkpt><trkpt lat="45.80822334134629" lon="14.372325869990634"><ele>600.0</ele><time>2026-05-05T10:00:54Z</time></trkpt><trkpt lat="45.808087310632416" lon="14.372445928753075"><ele>600.0</ele><time>2026-05-05T10:00:55Z</time></trkpt><trkpt lat="45.80795254103215" lon="14.372551869400704"><ele>600.0</ele><time>2026-05-05T10:00:56Z</time></trkpt><trkpt lat="45.80782219227343" lon="14.372635941127657"><ele>600.0</ele><time>2026-05-05T10:00:57Z</time></trkpt><trkpt lat="45.80768513279423" lon="14.372694437993816"><ele>600.0</ele><time>2026-05-05T10:00:58Z</time></trkpt><trkpt lat="45.80751992358526" lon="14.372685541583142"><ele>602.3333333333334</ele><time>2026-05-05T10:00:59Z</time></trkpt><trkpt lat="45.807321030669264" lon="14.372673808270314"><ele>604.6666666666667</ele><time>2026-05-05T10:01:00Z</time></trkpt><trkpt lat="45.807075897704806" lon="14.372661781530782"><ele>607.0</ele><time>2026-05-05T10:01:01Z</time></trkpt><trkpt lat="45.806793888991926" lon="14.372674153042032"><ele>607.0</ele><time>2026-05-05T10:01:02Z</time></trkpt><trkpt lat="45.80655395181673" lon="14.372641720915732"><ele>607.0</ele><time>2026-05-05T10:01:03Z</time></trkpt><trkpt lat="45.80634624755036" lon="14.372569146426928"><ele>607.0</ele><time>2026-05-05T10:01:04Z</time></trkpt><trkpt lat="45.80618115774221" lon="14.372473203520492"><ele>607.0</ele><time>2026-05-05T10:01:05Z</time></trkpt><trkpt lat="45.80603547297786" lon="14.372349428998138"><ele>607.0</ele><time>2026-05-05T10:01:06Z</time></trkpt><trkpt lat="45.80588534027071" lon="14.372211567856215"><ele>607.6666666666667</ele><time>2026-05-05T10:01:07Z</time></trkpt><trkpt lat="45.80574753058456" lon="14.372010095294534"><ele>608.3333333333334</ele><time>2026-05-05T10:01:08Z</time></trkpt><trkpt lat="45.805619567936134" lon="14.37179490801369"><ele>609.0</ele><time>2026-05-05T10:01:09Z</time></trkpt><trkpt lat="45.80547993327064" lon="14.37159963449204"><ele>609.0</ele><time>2026-05-05T10:01:10Z</time></trkpt><trkpt lat="45.80530992264125" lon="14.371429388172718"><ele>609.0</ele><time>2026-05-05T10:01:11Z</time></trkpt><trkpt lat="45.805105871452824" lon="14.371298872086296"><ele>609.0</ele><time>2026-05-05T10:01:12Z</time></trkpt><trkpt lat="45.80490416272848" lon="14.371195088796085"><ele>609.6666666666666</ele><time>2026-05-05T10:01:13Z</time></trkpt><trkpt lat="45.804701789959715" lon="14.371135510313138"><ele>610.3333333333333</ele><time>2026-05-05T10:01:14Z</time></trkpt><trkpt lat="45.80448706773572" lon="14.371104410012434"><ele>611.0</ele><time>2026-05-05T10:01:15Z</time></trkpt><trkpt lat="45.80427292548713" lon="14.371101203396941"><ele>611.0</ele><time>2026-05-05T10:01:16Z</time></trkpt><trkpt lat="45.80404821619777" lon="14.371126223289718"><ele>611.0</ele><time>2026-05-05T10:01:17Z</time></trkpt><trkpt lat="45.803831857498494" lon="14.371167228362149"><ele>611.0</ele><time>2026-05-05T10:01:18Z</time></trkpt><trkpt lat="45.80362466274974" lon="14.371209354256074"><ele>608.6666666666666</ele><time>2026-05-05T10:01:19Z</time></trkpt><trkpt lat="45.803446034487436" lon="14.371245326797785"><ele>606.3333333333334</ele><time>2026-05-05T10:01:20Z</time></trkpt><trkpt lat="45.80329236308153" lon="14.371254888056795"><ele>604.0</ele><time>2026-05-05T10:01:21Z</time></trkpt><trkpt lat="45.80317421114914" lon="14.371214550662419"><ele>604.0</ele><time>2026-05-05T10:01:22Z</time></trkpt><trkpt lat="45.803088574915144" lon="14.371095542905287"><ele>604.0</ele><time>2026-05-05T10:01:23Z</time></trkpt><trkpt lat="45.80299124527361" lon="14.370965180975205"><ele>604.0</ele><time>2026-05-05T10:01:24Z</time></trkpt><trkpt lat="45.80290159991464" lon="14.370790826416068"><ele>604.0</ele><time>2026-05-05T10:01:25Z</time></trkpt><trkpt lat="45.80280337412946" lon="14.370601837620084"><ele>599.0</ele><time>2026-05-05T10:01:26Z</time></trkpt><trkpt lat="45.80272282843523" lon="14.370373447085877"><ele>594.0</ele><time>2026-05-05T10:01:27Z</time></trkpt><trkpt lat="45.802624659173176" lon="14.370134272592999"><ele>589.0</ele><time>2026-05-05T10:01:28Z</time></trkpt><trkpt lat="45.802528482451635" lon="14.369869165470812"><ele>596.5</ele><time>2026-05-05T10:01:29Z</time></trkpt><trkpt lat="45.80240048148588" lon="14.369609701242188"><ele>604.0</ele><time>2026-05-05T10:01:30Z</time></trkpt><trkpt lat="45.802284925508694" lon="14.369322260246479"><ele>604.0</ele><time>2026-05-05T10:01:31Z</time></trkpt><trkpt lat="45.80215914828578" lon="14.369036002009542"><ele>604.0</ele><time>2026-05-05T10:01:32Z</time></trkpt><trkpt lat="45.80204105116453" lon="14.368748374870243"><ele>606.6666666666667</ele><time>2026-05-05T10:01:33Z</time></trkpt><trkpt lat="45.80192815176996" lon="14.368480604433051"><ele>609.3333333333334</ele><time>2026-05-05T10:01:34Z</time></trkpt><trkpt lat="45.80182360607445" lon="14.36820749078846"><ele>612.0</ele><time>2026-05-05T10:01:35Z</time></trkpt><trkpt lat="45.80172352902737" lon="14.367935351507597"><ele>606.0</ele><time>2026-05-05T10:01:36Z</time></trkpt><trkpt lat="45.80162894474173" lon="14.367653923768035"><ele>600.0</ele><time>2026-05-05T10:01:37Z</time></trkpt><trkpt lat="45.801534471255025" lon="14.367378066144662"><ele>594.0</ele><time>2026-05-05T10:01:38Z</time></trkpt><trkpt lat="45.801433101604566" lon="14.367110860099105"><ele>594.0</ele><time>2026-05-05T10:01:39Z</time></trkpt><trkpt lat="45.80132594983109" lon="14.366849039029718"><ele>594.0</ele><time>2026-05-05T10:01:40Z</time></trkpt><trkpt lat="45.801213618119036" lon="14.366596547776892"><ele>594.0</ele><time>2026-05-05T10:01:41Z</time></trkpt><trkpt lat="45.80109369740937" lon="14.366361004070283"><ele>589.0</ele><time>2026-05-05T10:01:42Z</time></trkpt><trkpt lat="45.80096932282353" lon="14.366133730697534"><ele>584.0</ele><time>2026-05-05T10:01:43Z</time></trkpt><trkpt lat="45.80083014768458" lon="14.365932282508208"><ele>579.0</ele><time>2026-05-05T10:01:44Z</time></trkpt><trkpt lat="45.80068435746387" lon="14.36572482422133"><ele>579.3333333333334</ele><time>2026-05-05T10:01:45Z</time></trkpt><trkpt lat="45.800557172168304" lon="14.365495066030286"><ele>579.6666666666667</ele><time>2026-05-05T10:01:46Z</time></trkpt><trkpt lat="45.800424141559695" lon="14.365277144740517"><ele>580.0</ele><time>2026-05-05T10:01:47Z</time></trkpt><trkpt lat="45.80029196361843" lon="14.365062731867946"><ele>576.6666666666667</ele><time>2026-05-05T10:01:48Z</time></trkpt><trkpt lat="45.80015981377511" lon="14.364852270056353"><ele>573.3333333333334</ele><time>2026-05-05T10:01:49Z</time></trkpt><trkpt lat="45.800020602139995" lon="14.364663427157975"><ele>570.0</ele><time>2026-05-05T10:01:50Z</time></trkpt><trkpt lat="45.79989797941551" lon="14.364464018125853"><ele>570.0</ele><time>2026-05-05T10:01:51Z</time></trkpt><trkpt lat="45.799777207350076" lon="14.364262348465065"><ele>570.0</ele><time>2026-05-05T10:01:52Z</time></trkpt><trkpt lat="45.79965686753719" lon="14.364058074558335"><ele>570.0</ele><time>2026-05-05T10:01:53Z</time></trkpt><trkpt lat="45.79954168281312" lon="14.363871728470471"><ele>570.0</ele><time>2026-05-05T10:01:54Z</time></trkpt><trkpt lat="45.799420173291495" lon="14.363693645340877"><ele>570.0</ele><time>2026-05-05T10:01:55Z</time></trkpt><trkpt lat="45.799285843245165" lon="14.363535065602209"><ele>570.0</ele><time>2026-05-05T10:01:56Z</time></trkpt><trkpt lat="45.799143165808985" lon="14.3633939404729"><ele>570.0</ele><time>2026-05-05T10:01:57Z</time></trkpt><trkpt lat="45.79899509665947" lon="14.3632644397074"><ele>570.0</ele><time>2026-05-05T10:01:58Z</time></trkpt><trkpt lat="45.79884515599724" lon="14.363141357986727"><ele>570.0</ele><time>2026-05-05T10:01:59Z</time></trkpt><trkpt lat="45.79869455029087" lon="14.36303365881481"><ele>571.0</ele><time>2026-05-05T10:02:00Z</time></trkpt><trkpt lat="45.79853815628679" lon="14.362941291649683"><ele>572.0</ele><time>2026-05-05T10:02:01Z</time></trkpt><trkpt lat="45.79838876052661" lon="14.362869947937762"><ele>573.0</ele><time>2026-05-05T10:02:02Z</time></trkpt><trkpt lat="45.79824868460316" lon="14.362811222906197"><ele>573.0</ele><time>2026-05-05T10:02:03Z</time></trkpt><trkpt lat="45.79811540096327" lon="14.362760252732366"><ele>573.0</ele><time>2026-05-05T10:02:04Z</time></trkpt><trkpt lat="45.7979830481916" lon="14.362728204794212"><ele>573.0</ele><time>2026-05-05T10:02:05Z</time></trkpt><trkpt lat="45.797857361838005" lon="14.362710738199217"><ele>573.0</ele><time>2026-05-05T10:02:06Z</time></trkpt><trkpt lat="45.797727226098296" lon="14.362699984307065"><ele>572.1999999999999</ele><time>2026-05-05T10:02:07Z</time></trkpt><trkpt lat="45.79760309796907" lon="14.362692742284603"><ele>571.4</ele><time>2026-05-05T10:02:08Z</time></trkpt><trkpt lat="45.797487977986535" lon="14.362689191874352"><ele>570.5999999999999</ele><time>2026-05-05T10:02:09Z</time></trkpt><trkpt lat="45.79737945481114" lon="14.362673604237475"><ele>569.8</ele><time>2026-05-05T10:02:10Z</time></trkpt><trkpt lat="45.79728247448585" lon="14.362655636904773"><ele>569.0</ele><time>2026-05-05T10:02:11Z</time></trkpt><trkpt lat="45.797195443875665" lon="14.362628714565753"><ele>569.0</ele><time>2026-05-05T10:02:12Z</time></trkpt><trkpt lat="45.797116138899355" lon="14.362567751325576"><ele>569.0</ele><time>2026-05-05T10:02:13Z</time></trkpt><trkpt lat="45.79705485621178" lon="14.362476609496195"><ele>569.0</ele><time>2026-05-05T10:02:14Z</time></trkpt><trkpt lat="45.79699170677571" lon="14.36241468376254"><ele>569.0</ele><time>2026-05-05T10:02:15Z</time></trkpt><trkpt lat="45.79699859473303" lon="14.362237889647549"><ele>569.0</ele><time>2026-05-05T10:02:16Z</time></trkpt><trkpt lat="45.79702579370534" lon="14.362096542203135"><ele>569.0</ele><time>2026-05-05T10:02:17Z</time></trkpt><trkpt lat="45.79702726160552" lon="14.361934753446832"><ele>569.0</ele><time>2026-05-05T10:02:18Z</time></trkpt><trkpt lat="45.79704965204945" lon="14.36176232650615"><ele>569.0</ele><time>2026-05-05T10:02:19Z</time></trkpt><trkpt lat="45.797080115150294" lon="14.36157065339809"><ele>569.0</ele><time>2026-05-05T10:02:20Z</time></trkpt><trkpt lat="45.79709285165841" lon="14.361412807622997"><ele>568.25</ele><time>2026-05-05T10:02:21Z</time></trkpt><trkpt lat="45.79711622262411" lon="14.361245541695705"><ele>567.5</ele><time>2026-05-05T10:02:22Z</time></trkpt><trkpt lat="45.797131173167344" lon="14.361090832333176"><ele>566.75</ele><time>2026-05-05T10:02:23Z</time></trkpt><trkpt lat="45.79714641958576" lon="14.360931971098156"><ele>566.0</ele><time>2026-05-05T10:02:24Z</time></trkpt><trkpt lat="45.79716748024967" lon="14.360776983347796"><ele>566.0</ele><time>2026-05-05T10:02:25Z</time></trkpt><trkpt lat="45.79720280483308" lon="14.360649675309771"><ele>566.0</ele><time>2026-05-05T10:02:26Z</time></trkpt><trkpt lat="45.7972673120563" lon="14.360527735581316"><ele>566.0</ele><time>2026-05-05T10:02:27Z</time></trkpt><trkpt lat="45.7973524801346" lon="14.360433802506464"><ele>566.0</ele><time>2026-05-05T10:02:28Z</time></trkpt><trkpt lat="45.79742315410214" lon="14.360304267084945"><ele>566.0</ele><time>2026-05-05T10:02:29Z</time></trkpt><trkpt lat="45.79751405141438" lon="14.360182719948162"><ele>566.0</ele><time>2026-05-05T10:02:30Z</time></trkpt><trkpt lat="45.79759725841726" lon="14.360048558038576"><ele>566.0</ele><time>2026-05-05T10:02:31Z</time></trkpt><trkpt lat="45.797662368216535" lon="14.3598867407809"><ele>566.0</ele><time>2026-05-05T10:02:32Z</time></trkpt><trkpt lat="45.79771194079097" lon="14.359711056223075"><ele>566.0</ele><time>2026-05-05T10:02:33Z</time></trkpt><trkpt lat="45.797736592775905" lon="14.359524879243825"><ele>565.5</ele><time>2026-05-05T10:02:34Z</time></trkpt><trkpt lat="45.79774808869444" lon="14.35932552738897"><ele>565.0</ele><time>2026-05-05T10:02:35Z</time></trkpt><trkpt lat="45.79775308923954" lon="14.359110116965537"><ele>564.5</ele><time>2026-05-05T10:02:36Z</time></trkpt><trkpt lat="45.79776125772337" lon="14.358883758186725"><ele>564.0</ele><time>2026-05-05T10:02:37Z</time></trkpt><trkpt lat="45.797770530961714" lon="14.358655552673238"><ele>562.6666666666666</ele><time>2026-05-05T10:02:38Z</time></trkpt><trkpt lat="45.79777798393118" lon="14.358427874232376"><ele>561.3333333333333</ele><time>2026-05-05T10:02:39Z</time></trkpt><trkpt lat="45.797783599524635" lon="14.358200017836841"><ele>560.0</ele><time>2026-05-05T10:02:40Z</time></trkpt><trkpt lat="45.79778822711712" lon="14.357975954847344"><ele>560.0</ele><time>2026-05-05T10:02:41Z</time></trkpt><trkpt lat="45.79779735222005" lon="14.357752020656124"><ele>560.0</ele><time>2026-05-05T10:02:42Z</time></trkpt><trkpt lat="45.79780726263781" lon="14.357529971976106"><ele>560.0</ele><time>2026-05-05T10:02:43Z</time></trkpt><trkpt lat="45.79781508327932" lon="14.35730928222046"><ele>561.0</ele><time>2026-05-05T10:02:44Z</time></trkpt><trkpt lat="45.79782913653516" lon="14.357088996332802"><ele>562.0</ele><time>2026-05-05T10:02:45Z</time></trkpt><trkpt lat="45.79783541842768" lon="14.35687220430428"><ele>563.0</ele><time>2026-05-05T10:02:46Z</time></trkpt><trkpt lat="45.79783504968438" lon="14.356656326735271"><ele>563.0</ele><time>2026-05-05T10:02:47Z</time></trkpt><trkpt lat="45.79783115748166" lon="14.35644047128775"><ele>563.0</ele><time>2026-05-05T10:02:48Z</time></trkpt><trkpt lat="45.7978303751158" lon="14.35622910211751"><ele>563.0</ele><time>2026-05-05T10:02:49Z</time></trkpt><trkpt lat="45.797821512064395" lon="14.356026158036869"><ele>563.0</ele><time>2026-05-05T10:02:50Z</time></trkpt><trkpt lat="45.797822863782024" lon="14.355829782951131"><ele>563.25</ele><time>2026-05-05T10:02:51Z</time></trkpt><trkpt lat="45.79781756490298" lon="14.355637625674662"><ele>563.5</ele><time>2026-05-05T10:02:52Z</time></trkpt><trkpt lat="45.79781553439361" lon="14.355444427152221"><ele>563.75</ele><time>2026-05-05T10:02:53Z</time></trkpt><trkpt lat="45.79780848809609" lon="14.355251619652575"><ele>564.0</ele><time>2026-05-05T10:02:54Z</time></trkpt><trkpt lat="45.797802294743434" lon="14.355068129393427"><ele>564.0</ele><time>2026-05-05T10:02:55Z</time></trkpt><trkpt lat="45.797787197015346" lon="14.35488531005451"><ele>564.0</ele><time>2026-05-05T10:02:56Z</time></trkpt><trkpt lat="45.79775501082826" lon="14.354713331251283"><ele>564.0</ele><time>2026-05-05T10:02:57Z</time></trkpt><trkpt lat="45.79769338518005" lon="14.354552080872798"><ele>564.0</ele><time>2026-05-05T10:02:58Z</time></trkpt><trkpt lat="45.79760056495849" lon="14.354430401176526"><ele>562.75</ele><time>2026-05-05T10:02:59Z</time></trkpt><trkpt lat="45.797487818762505" lon="14.354363138111355"><ele>561.5</ele><time>2026-05-05T10:03:00Z</time></trkpt><trkpt lat="45.79736621608599" lon="14.354335974341282"><ele>560.25</ele><time>2026-05-05T10:03:01Z</time></trkpt><trkpt lat="45.79724412101788" lon="14.354338721108865"><ele>559.0</ele><time>2026-05-05T10:03:02Z</time></trkpt><trkpt lat="45.79711705113195" lon="14.354349189535471"><ele>559.0</ele><time>2026-05-05T10:03:03Z</time></trkpt><trkpt lat="45.79699119979144" lon="14.354323172471531"><ele>559.0</ele><time>2026-05-05T10:03:04Z</time></trkpt><trkpt lat="45.79686492135449" lon="14.354251686538383"><ele>559.0</ele><time>2026-05-05T10:03:05Z</time></trkpt><trkpt lat="45.796769988226345" lon="14.354113201969849"><ele>559.0</ele><time>2026-05-05T10:03:06Z</time></trkpt><trkpt lat="45.79667444511283" lon="14.35396384284895"><ele>558.5</ele><time>2026-05-05T10:03:07Z</time></trkpt><trkpt lat="45.79655836327906" lon="14.35383242902457"><ele>558.0</ele><time>2026-05-05T10:03:08Z</time></trkpt><trkpt lat="45.79644879551879" lon="14.353682330406299"><ele>557.5</ele><time>2026-05-05T10:03:09Z</time></trkpt><trkpt lat="45.796337937893114" lon="14.353537757119984"><ele>557.0</ele><time>2026-05-05T10:03:10Z</time></trkpt><trkpt lat="45.79623489677913" lon="14.353410269900708"><ele>557.0</ele><time>2026-05-05T10:03:11Z</time></trkpt><trkpt lat="45.79613794151119" lon="14.353294721170794"><ele>557.0</ele><time>2026-05-05T10:03:12Z</time></trkpt><trkpt lat="45.79604816752312" lon="14.353218032268073"><ele>557.0</ele><time>2026-05-05T10:03:13Z</time></trkpt><trkpt lat="45.795959858272546" lon="14.353197089009111"><ele>557.0</ele><time>2026-05-05T10:03:14Z</time></trkpt><trkpt lat="45.79587897050576" lon="14.353198448868842"><ele>557.0</ele><time>2026-05-05T10:03:15Z</time></trkpt><trkpt lat="45.79581208544344" lon="14.353146753147017"><ele>556.75</ele><time>2026-05-05T10:03:16Z</time></trkpt><trkpt lat="45.795741540954474" lon="14.353100807059814"><ele>556.5</ele><time>2026-05-05T10:03:17Z</time></trkpt><trkpt lat="45.79575761868683" lon="14.35286150929739"><ele>556.25</ele><time>2026-05-05T10:03:18Z</time></trkpt><trkpt lat="45.795753301439575" lon="14.352670212479628"><ele>556.0</ele><time>2026-05-05T10:03:19Z</time></trkpt><trkpt lat="45.79574339932205" lon="14.352439273423691"><ele>556.6666666666667</ele><time>2026-05-05T10:03:20Z</time></trkpt><trkpt lat="45.795718511758075" lon="14.352177228672387"><ele>557.3333333333334</ele><time>2026-05-05T10:03:21Z</time></trkpt><trkpt lat="45.795686929250586" lon="14.351877426067501"><ele>558.0</ele><time>2026-05-05T10:03:22Z</time></trkpt><trkpt lat="45.795654499577076" lon="14.351560515205323"><ele>556.5</ele><time>2026-05-05T10:03:23Z</time></trkpt><trkpt lat="45.795620860095" lon="14.351227470301048"><ele>555.0</ele><time>2026-05-05T10:03:24Z</time></trkpt><trkpt lat="45.795588416825034" lon="14.350889519241539"><ele>555.0</ele><time>2026-05-05T10:03:25Z</time></trkpt><trkpt lat="45.795560093097926" lon="14.350556073709347"><ele>555.0</ele><time>2026-05-05T10:03:26Z</time></trkpt><trkpt lat="45.795527663936255" lon="14.350223934846534"><ele>555.0</ele><time>2026-05-05T10:03:27Z</time></trkpt><trkpt lat="45.79549455622717" lon="14.349893683663648"><ele>555.0</ele><time>2026-05-05T10:03:28Z</time></trkpt><trkpt lat="45.79546029202895" lon="14.349554666238937"><ele>554.6666666666666</ele><time>2026-05-05T10:03:29Z</time></trkpt><trkpt lat="45.79543144396408" lon="14.34924388048283"><ele>554.3333333333333</ele><time>2026-05-05T10:03:30Z</time></trkpt><trkpt lat="45.795403056346814" lon="14.34895154599171"><ele>554.0</ele><time>2026-05-05T10:03:31Z</time></trkpt><trkpt lat="45.795373381370005" lon="14.348657930935333"><ele>554.0</ele><time>2026-05-05T10:03:32Z</time></trkpt><trkpt lat="45.79534307694583" lon="14.348366043477744"><ele>554.0</ele><time>2026-05-05T10:03:33Z</time></trkpt><trkpt lat="45.795312567710745" lon="14.348075066461632"><ele>554.0</ele><time>2026-05-05T10:03:34Z</time></trkpt><trkpt lat="45.79528346920738" lon="14.347792604272984"><ele>554.3333333333333</ele><time>2026-05-05T10:03:35Z</time></trkpt><trkpt lat="45.79525396739698" lon="14.347533218488138"><ele>554.6666666666666</ele><time>2026-05-05T10:03:36Z</time></trkpt><trkpt lat="45.795226040021966" lon="14.347298032503499"><ele>555.0</ele><time>2026-05-05T10:03:37Z</time></trkpt><trkpt lat="45.79520243012332" lon="14.347072744206121"><ele>555.0</ele><time>2026-05-05T10:03:38Z</time></trkpt><trkpt lat="45.7951957812182" lon="14.346857738230042"><ele>555.0</ele><time>2026-05-05T10:03:39Z</time></trkpt><trkpt lat="45.795209989941085" lon="14.346638156997363"><ele>555.0</ele><time>2026-05-05T10:03:40Z</time></trkpt><trkpt lat="45.79524345722541" lon="14.34642652259837"><ele>555.6666666666666</ele><time>2026-05-05T10:03:41Z</time></trkpt><trkpt lat="45.795279252520864" lon="14.346209638075264"><ele>556.3333333333333</ele><time>2026-05-05T10:03:42Z</time></trkpt><trkpt lat="45.795304266973304" lon="14.345996854429536"><ele>557.0</ele><time>2026-05-05T10:03:43Z</time></trkpt><trkpt lat="45.795319355165695" lon="14.345787622688935"><ele>557.0</ele><time>2026-05-05T10:03:44Z</time></trkpt><trkpt lat="45.79533163118827" lon="14.345579757219644"><ele>557.0</ele><time>2026-05-05T10:03:45Z</time></trkpt><trkpt lat="45.79534272071018" lon="14.345384026673909"><ele>557.0</ele><time>2026-05-05T10:03:46Z</time></trkpt><trkpt lat="45.795353849630786" lon="14.345190177603689"><ele>557.0</ele><time>2026-05-05T10:03:47Z</time></trkpt><trkpt lat="45.79536220664124" lon="14.344995649840756"><ele>558.5</ele><time>2026-05-05T10:03:48Z</time></trkpt><trkpt lat="45.79537022931266" lon="14.344792874448038"><ele>560.0</ele><time>2026-05-05T10:03:49Z</time></trkpt><trkpt lat="45.79537134142182" lon="14.344591346218147"><ele>561.5</ele><time>2026-05-05T10:03:50Z</time></trkpt><trkpt lat="45.79536490924185" lon="14.344389604107002"><ele>563.0</ele><time>2026-05-05T10:03:51Z</time></trkpt><trkpt lat="45.79533040731713" lon="14.344200063309039"><ele>565.0</ele><time>2026-05-05T10:03:52Z</time></trkpt><trkpt lat="45.79529969820908" lon="14.344012181500949"><ele>567.0</ele><time>2026-05-05T10:03:53Z</time></trkpt><trkpt lat="45.79527649164451" lon="14.343842995710908"><ele>569.0</ele><time>2026-05-05T10:03:54Z</time></trkpt><trkpt lat="45.79525332749863" lon="14.34366635354104"><ele>571.0</ele><time>2026-05-05T10:03:55Z</time></trkpt><trkpt lat="45.79522626445995" lon="14.343492407829887"><ele>571.75</ele><time>2026-05-05T10:03:56Z</time></trkpt><trkpt lat="45.795203795755135" lon="14.343311252134983"><ele>572.5</ele><time>2026-05-05T10:03:57Z</time></trkpt><trkpt lat="45.79518541287662" lon="14.343127422268301"><ele>573.25</ele><time>2026-05-05T10:03:58Z</time></trkpt><trkpt lat="45.79518146767903" lon="14.342942742069496"><ele>574.0</ele><time>2026-05-05T10:03:59Z</time></trkpt><trkpt lat="45.7951853610593" lon="14.342745919060526"><ele>574.0</ele><time>2026-05-05T10:04:00Z</time></trkpt><trkpt lat="45.795194701297795" lon="14.342538347110915"><ele>574.0</ele><time>2026-05-05T10:04:01Z</time></trkpt><trkpt lat="45.79521041061243" lon="14.34232671384286"><ele>574.0</ele><time>2026-05-05T10:04:02Z</time></trkpt><trkpt lat="45.79522837941145" lon="14.342127788429222"><ele>574.0</ele><time>2026-05-05T10:04:03Z</time></trkpt><trkpt lat="45.795254993257444" lon="14.341950213303187"><ele>572.75</ele><time>2026-05-05T10:04:04Z</time></trkpt><trkpt lat="45.795286146197434" lon="14.341774337601105"><ele>571.5</ele><time>2026-05-05T10:04:05Z</time></trkpt><trkpt lat="45.7953285770284" lon="14.3415758419588"><ele>570.25</ele><time>2026-05-05T10:04:06Z</time></trkpt><trkpt lat="45.79539524036927" lon="14.341385150265436"><ele>569.0</ele><time>2026-05-05T10:04:07Z</time></trkpt><trkpt lat="45.79542561866828" lon="14.341298570180578"><ele>568.5</ele><time>2026-05-05T10:04:08Z</time></trkpt><trkpt lat="45.795482476370516" lon="14.341136518352354"><ele>568.0</ele><time>2026-05-05T10:04:09Z</time></trkpt><trkpt lat="45.79554887091086" lon="14.34097916379516"><ele>567.5</ele><time>2026-05-05T10:04:10Z</time></trkpt><trkpt lat="45.79561280777782" lon="14.340822659682528"><ele>567.0</ele><time>2026-05-05T10:04:11Z</time></trkpt><trkpt lat="45.7956609464906" lon="14.340650929273691"><ele>566.0</ele><time>2026-05-05T10:04:12Z</time></trkpt><trkpt lat="45.79572400433699" lon="14.340482346666386"><ele>565.0</ele><time>2026-05-05T10:04:13Z</time></trkpt><trkpt lat="45.79578145591089" lon="14.340298438233306"><ele>564.0</ele><time>2026-05-05T10:04:14Z</time></trkpt><trkpt lat="45.79583214841758" lon="14.340108021773311"><ele>563.0</ele><time>2026-05-05T10:04:15Z</time></trkpt><trkpt lat="45.79587510026441" lon="14.339914225167908"><ele>563.0</ele><time>2026-05-05T10:04:16Z</time></trkpt><trkpt lat="45.79590958428807" lon="14.339724307627836"><ele>563.0</ele><time>2026-05-05T10:04:17Z</time></trkpt><trkpt lat="45.79594267149597" lon="14.339541714228403"><ele>563.0</ele><time>2026-05-05T10:04:18Z</time></trkpt><trkpt lat="45.79597829633399" lon="14.339353187019567"><ele>563.0</ele><time>2026-05-05T10:04:19Z</time></trkpt><trkpt lat="45.79601073198041" lon="14.339175387909831"><ele>563.75</ele><time>2026-05-05T10:04:20Z</time></trkpt><trkpt lat="45.79605027747641" lon="14.339000686184706"><ele>564.5</ele><time>2026-05-05T10:04:21Z</time></trkpt><trkpt lat="45.79609264554093" lon="14.338819734481651"><ele>565.25</ele><time>2026-05-05T10:04:22Z</time></trkpt><trkpt lat="45.79614031654134" lon="14.338630127344025"><ele>566.0</ele><time>2026-05-05T10:04:23Z</time></trkpt><trkpt lat="45.796218836855815" lon="14.33845680954685"><ele>566.0</ele><time>2026-05-05T10:04:24Z</time></trkpt><trkpt lat="45.79628071964905" lon="14.338280336675155"><ele>566.0</ele><time>2026-05-05T10:04:25Z</time></trkpt><trkpt lat="45.79637257412688" lon="14.338127294052804"><ele>566.0</ele><time>2026-05-05T10:04:26Z</time></trkpt><trkpt lat="45.79647021832377" lon="14.33796329902324"><ele>566.0</ele><time>2026-05-05T10:04:27Z</time></trkpt><trkpt lat="45.79658345039878" lon="14.337790532110159"><ele>566.0</ele><time>2026-05-05T10:04:28Z</time></trkpt><trkpt lat="45.79668856797497" lon="14.337638023998345"><ele>566.0</ele><time>2026-05-05T10:04:29Z</time></trkpt><trkpt lat="45.7968019375124" lon="14.337478796733548"><ele>566.0</ele><time>2026-05-05T10:04:30Z</time></trkpt><trkpt lat="45.79692530578014" lon="14.3372893295241"><ele>568.6666666666666</ele><time>2026-05-05T10:04:31Z</time></trkpt><trkpt lat="45.79705111933739" lon="14.337065104020557"><ele>571.3333333333334</ele><time>2026-05-05T10:04:32Z</time></trkpt><trkpt lat="45.79715568681341" lon="14.336792738965528"><ele>574.0</ele><time>2026-05-05T10:04:33Z</time></trkpt><trkpt lat="45.79727938211661" lon="14.336516635237656"><ele>573.0</ele><time>2026-05-05T10:04:34Z</time></trkpt><trkpt lat="45.797392565800784" lon="14.336231919103712"><ele>572.0</ele><time>2026-05-05T10:04:35Z</time></trkpt><trkpt lat="45.79749098018008" lon="14.335947074732665"><ele>572.0</ele><time>2026-05-05T10:04:36Z</time></trkpt><trkpt lat="45.797572554121395" lon="14.335681279371302"><ele>572.0</ele><time>2026-05-05T10:04:37Z</time></trkpt><trkpt lat="45.797642573877816" lon="14.335436983370967"><ele>572.0</ele><time>2026-05-05T10:04:38Z</time></trkpt><trkpt lat="45.79770545686838" lon="14.33520604751148"><ele>571.6666666666666</ele><time>2026-05-05T10:04:39Z</time></trkpt><trkpt lat="45.79781061979636" lon="14.335009709797347"><ele>571.3333333333334</ele><time>2026-05-05T10:04:40Z</time></trkpt><trkpt lat="45.79791813214807" lon="14.334817525009411"><ele>571.0</ele><time>2026-05-05T10:04:41Z</time></trkpt><trkpt lat="45.79802604980645" lon="14.334638271932608"><ele>571.0</ele><time>2026-05-05T10:04:42Z</time></trkpt><trkpt lat="45.79812918556595" lon="14.334446770385691"><ele>571.0</ele><time>2026-05-05T10:04:43Z</time></trkpt><trkpt lat="45.79824551654525" lon="14.334283549868614"><ele>571.0</ele><time>2026-05-05T10:04:44Z</time></trkpt><trkpt lat="45.798382559339586" lon="14.334155042749572"><ele>571.3333333333334</ele><time>2026-05-05T10:04:45Z</time></trkpt><trkpt lat="45.79852142079645" lon="14.334064240584315"><ele>571.6666666666666</ele><time>2026-05-05T10:04:46Z</time></trkpt><trkpt lat="45.79865650999921" lon="14.333966955956914"><ele>572.0</ele><time>2026-05-05T10:04:47Z</time></trkpt><trkpt lat="45.79879298163211" lon="14.333873704664866"><ele>572.0</ele><time>2026-05-05T10:04:48Z</time></trkpt><trkpt lat="45.798924241993234" lon="14.333770221266356"><ele>572.0</ele><time>2026-05-05T10:04:49Z</time></trkpt><trkpt lat="45.79905392273595" lon="14.333641955488826"><ele>572.0</ele><time>2026-05-05T10:04:50Z</time></trkpt><trkpt lat="45.799176452023524" lon="14.333486710172968"><ele>572.0</ele><time>2026-05-05T10:04:51Z</time></trkpt><trkpt lat="45.799288755135365" lon="14.333323384090617"><ele>572.0</ele><time>2026-05-05T10:04:52Z</time></trkpt><trkpt lat="45.79940168647435" lon="14.333159672527378"><ele>572.0</ele><time>2026-05-05T10:04:53Z</time></trkpt><trkpt lat="45.79951253830063" lon="14.33301361100801"><ele>574.0</ele><time>2026-05-05T10:04:54Z</time></trkpt><trkpt lat="45.7996236328879" lon="14.332874758161273"><ele>576.0</ele><time>2026-05-05T10:04:55Z</time></trkpt><trkpt lat="45.79973652794001" lon="14.332719789326232"><ele>578.0</ele><time>2026-05-05T10:04:56Z</time></trkpt><trkpt lat="45.7998527772454" lon="14.332556958163602"><ele>578.0</ele><time>2026-05-05T10:04:57Z</time></trkpt><trkpt lat="45.79996962846785" lon="14.332395839073438"><ele>578.0</ele><time>2026-05-05T10:04:58Z</time></trkpt><trkpt lat="45.80008104443061" lon="14.332236213336486"><ele>578.0</ele><time>2026-05-05T10:04:59Z</time></trkpt><trkpt lat="45.80019159113673" lon="14.332058822083523"><ele>577.6666666666666</ele><time>2026-05-05T10:05:00Z</time></trkpt><trkpt lat="45.80030035113382" lon="14.331828132793216"><ele>577.3333333333334</ele><time>2026-05-05T10:05:01Z</time></trkpt><trkpt lat="45.80044938328565" lon="14.331545873403318"><ele>577.0</ele><time>2026-05-05T10:05:02Z</time></trkpt><trkpt lat="45.80058572246182" lon="14.331183250712131"><ele>577.0</ele><time>2026-05-05T10:05:03Z</time></trkpt><trkpt lat="45.8007298388063" lon="14.330861333411844"><ele>577.0</ele><time>2026-05-05T10:05:04Z</time></trkpt><trkpt lat="45.80085374461205" lon="14.330614600942813"><ele>577.0</ele><time>2026-05-05T10:05:05Z</time></trkpt><trkpt lat="45.80099789958303" lon="14.330428965718188"><ele>577.0</ele><time>2026-05-05T10:05:06Z</time></trkpt><trkpt lat="45.80114793455929" lon="14.330280199658526"><ele>577.0</ele><time>2026-05-05T10:05:07Z</time></trkpt><trkpt lat="45.80132408648477" lon="14.330159209327263"><ele>577.0</ele><time>2026-05-05T10:05:08Z</time></trkpt><trkpt lat="45.801512950278244" lon="14.330028568302412"><ele>577.0</ele><time>2026-05-05T10:05:09Z</time></trkpt><trkpt lat="45.801723015700034" lon="14.329924583141842"><ele>577.0</ele><time>2026-05-05T10:05:10Z</time></trkpt><trkpt lat="45.80192040271271" lon="14.329805232850715"><ele>576.0</ele><time>2026-05-05T10:05:11Z</time></trkpt><trkpt lat="45.80210126472185" lon="14.329683117203324"><ele>575.0</ele><time>2026-05-05T10:05:12Z</time></trkpt><trkpt lat="45.802276241928745" lon="14.329573899205696"><ele>574.0</ele><time>2026-05-05T10:05:13Z</time></trkpt><trkpt lat="45.802459338558094" lon="14.329536010327995"><ele>574.0</ele><time>2026-05-05T10:05:14Z</time></trkpt><trkpt lat="45.80264180279211" lon="14.32953044675816"><ele>574.0</ele><time>2026-05-05T10:05:15Z</time></trkpt><trkpt lat="45.802837940069054" lon="14.329562503978185"><ele>574.0</ele><time>2026-05-05T10:05:16Z</time></trkpt><trkpt lat="45.80301300296318" lon="14.329602340761939"><ele>574.0</ele><time>2026-05-05T10:05:17Z</time></trkpt><trkpt lat="45.80317477108061" lon="14.329637602876838"><ele>574.0</ele><time>2026-05-05T10:05:18Z</time></trkpt><trkpt lat="45.803329956009925" lon="14.3296688024835"><ele>574.0</ele><time>2026-05-05T10:05:19Z</time></trkpt><trkpt lat="45.803493222477464" lon="14.329675842623674"><ele>574.3333333333334</ele><time>2026-05-05T10:05:20Z</time></trkpt><trkpt lat="45.80365635566013" lon="14.329652642226183"><ele>574.6666666666666</ele><time>2026-05-05T10:05:21Z</time></trkpt><trkpt lat="45.80381633804975" lon="14.329629546633628"><ele>575.0</ele><time>2026-05-05T10:05:22Z</time></trkpt><trkpt lat="45.80397324363676" lon="14.329607715238366"><ele>575.0</ele><time>2026-05-05T10:05:23Z</time></trkpt><trkpt lat="45.80412243267909" lon="14.329578457957926"><ele>575.0</ele><time>2026-05-05T10:05:24Z</time></trkpt><trkpt lat="45.8042656092848" lon="14.32953022894711"><ele>575.0</ele><time>2026-05-05T10:05:25Z</time></trkpt><trkpt lat="45.804402573953276" lon="14.32945549551651"><ele>575.0</ele><time>2026-05-05T10:05:26Z</time></trkpt><trkpt lat="45.80453331648858" lon="14.329350925912891"><ele>577.25</ele><time>2026-05-05T10:05:27Z</time></trkpt><trkpt lat="45.80466111622055" lon="14.329243754588179"><ele>579.5</ele><time>2026-05-05T10:05:28Z</time></trkpt><trkpt lat="45.804779263668564" lon="14.32914234961774"><ele>581.75</ele><time>2026-05-05T10:05:29Z</time></trkpt><trkpt lat="45.804884091012795" lon="14.32903947192516"><ele>584.0</ele><time>2026-05-05T10:05:30Z</time></trkpt><trkpt lat="45.80498745947096" lon="14.32893328775224"><ele>583.0</ele><time>2026-05-05T10:05:31Z</time></trkpt><trkpt lat="45.80509151161743" lon="14.328823484137597"><ele>582.0</ele><time>2026-05-05T10:05:32Z</time></trkpt><trkpt lat="45.80521208128516" lon="14.328747490638365"><ele>581.0</ele><time>2026-05-05T10:05:33Z</time></trkpt><trkpt lat="45.80533659927497" lon="14.328650063829635"><ele>580.0</ele><time>2026-05-05T10:05:34Z</time></trkpt><trkpt lat="45.8054657719408" lon="14.328582433016743"><ele>580.0</ele><time>2026-05-05T10:05:35Z</time></trkpt><trkpt lat="45.805598348981064" lon="14.328559749250227"><ele>580.0</ele><time>2026-05-05T10:05:36Z</time></trkpt><trkpt lat="45.805736329069546" lon="14.328511385080104"><ele>580.0</ele><time>2026-05-05T10:05:37Z</time></trkpt><trkpt lat="45.80586677395703" lon="14.328478944953824"><ele>580.0</ele><time>2026-05-05T10:05:38Z</time></trkpt><trkpt lat="45.80599200058317" lon="14.328447411825866"><ele>579.8</ele><time>2026-05-05T10:05:39Z</time></trkpt><trkpt lat="45.80610990331622" lon="14.328433654869361"><ele>579.6</ele><time>2026-05-05T10:05:40Z</time></trkpt><trkpt lat="45.80620947868629" lon="14.328396298636116"><ele>579.4</ele><time>2026-05-05T10:05:41Z</time></trkpt><trkpt lat="45.80631088345972" lon="14.328383880026713"><ele>579.2</ele><time>2026-05-05T10:05:42Z</time></trkpt><trkpt lat="45.80643312885973" lon="14.32837039488112"><ele>579.0</ele><time>2026-05-05T10:05:43Z</time></trkpt><trkpt lat="45.80655825293306" lon="14.328401419745536"><ele>579.0</ele><time>2026-05-05T10:05:44Z</time></trkpt><trkpt lat="45.80668504336987" lon="14.328396027934426"><ele>579.0</ele><time>2026-05-05T10:05:45Z</time></trkpt><trkpt lat="45.806807966807305" lon="14.328437155304401"><ele>579.0</ele><time>2026-05-05T10:05:46Z</time></trkpt><trkpt lat="45.80693584812831" lon="14.328479779610486"><ele>579.0</ele><time>2026-05-05T10:05:47Z</time></trkpt><trkpt lat="45.80706387543408" lon="14.328533164675743"><ele>577.25</ele><time>2026-05-05T10:05:48Z</time></trkpt><trkpt lat="45.80717894945317" lon="14.328593867196531"><ele>575.5</ele><time>2026-05-05T10:05:49Z</time></trkpt><trkpt lat="45.80728557625905" lon="14.328663937841426"><ele>573.75</ele><time>2026-05-05T10:05:50Z</time></trkpt><trkpt lat="45.80738536117704" lon="14.328730882051984"><ele>572.0</ele><time>2026-05-05T10:05:51Z</time></trkpt><trkpt lat="45.80747384863557" lon="14.328802062191553"><ele>572.0</ele><time>2026-05-05T10:05:52Z</time></trkpt><trkpt lat="45.80755635286941" lon="14.328845469088929"><ele>572.0</ele><time>2026-05-05T10:05:53Z</time></trkpt><trkpt lat="45.80764076460532" lon="14.328882802688929"><ele>572.0</ele><time>2026-05-05T10:05:54Z</time></trkpt><trkpt lat="45.80774494338237" lon="14.328919926497433"><ele>572.0</ele><time>2026-05-05T10:05:55Z</time></trkpt><trkpt lat="45.8078635046917" lon="14.328930289882345"><ele>572.0</ele><time>2026-05-05T10:05:56Z</time></trkpt><trkpt lat="45.80799869066664" lon="14.328907730090977"><ele>573.3333333333333</ele><time>2026-05-05T10:05:57Z</time></trkpt><trkpt lat="45.808135960583215" lon="14.328851499994094"><ele>574.6666666666666</ele><time>2026-05-05T10:05:58Z</time></trkpt><trkpt lat="45.80827268173181" lon="14.328759776906882"><ele>576.0</ele><time>2026-05-05T10:05:59Z</time></trkpt><trkpt lat="45.80840360056697" lon="14.328628875965814"><ele>578.0</ele><time>2026-05-05T10:06:00Z</time></trkpt><trkpt lat="45.80852120808415" lon="14.328469381818632"><ele>580.0</ele><time>2026-05-05T10:06:01Z</time></trkpt><trkpt lat="45.808663498952804" lon="14.328312494303248"><ele>582.0</ele><time>2026-05-05T10:06:02Z</time></trkpt><trkpt lat="45.8088287682332" lon="14.328134132035341"><ele>582.6666666666666</ele><time>2026-05-05T10:06:03Z</time></trkpt><trkpt lat="45.80900421028417" lon="14.327948510708882"><ele>583.3333333333333</ele><time>2026-05-05T10:06:04Z</time></trkpt><trkpt lat="45.809173499805226" lon="14.327772932903466"><ele>584.0</ele><time>2026-05-05T10:06:05Z</time></trkpt><trkpt lat="45.80932715557524" lon="14.327599403710925"><ele>584.0</ele><time>2026-05-05T10:06:06Z</time></trkpt><trkpt lat="45.80948232739437" lon="14.327445284291045"><ele>584.0</ele><time>2026-05-05T10:06:07Z</time></trkpt><trkpt lat="45.809624003591246" lon="14.327300965396256"><ele>584.0</ele><time>2026-05-05T10:06:08Z</time></trkpt><trkpt lat="45.80975890118153" lon="14.327154704038366"><ele>583.0</ele><time>2026-05-05T10:06:09Z</time></trkpt><trkpt lat="45.80987127867621" lon="14.32700199675936"><ele>582.0</ele><time>2026-05-05T10:06:10Z</time></trkpt><trkpt lat="45.8099518274749" lon="14.326831697257125"><ele>581.0</ele><time>2026-05-05T10:06:11Z</time></trkpt><trkpt lat="45.80999853136933" lon="14.326632612160372"><ele>580.0</ele><time>2026-05-05T10:06:12Z</time></trkpt><trkpt lat="45.81002556894988" lon="14.326420458275445"><ele>581.0</ele><time>2026-05-05T10:06:13Z</time></trkpt><trkpt lat="45.81005034640222" lon="14.326204340225502"><ele>582.0</ele><time>2026-05-05T10:06:14Z</time></trkpt><trkpt lat="45.8100943327015" lon="14.325991724432932"><ele>583.0</ele><time>2026-05-05T10:06:15Z</time></trkpt><trkpt lat="45.810180126057055" lon="14.325811375031975"><ele>583.0</ele><time>2026-05-05T10:06:16Z</time></trkpt><trkpt lat="45.81025336054855" lon="14.325628477813558"><ele>583.0</ele><time>2026-05-05T10:06:17Z</time></trkpt><trkpt lat="45.810341827119174" lon="14.32546830424964"><ele>583.0</ele><time>2026-05-05T10:06:18Z</time></trkpt><trkpt lat="45.81041275452526" lon="14.325297219983018"><ele>583.0</ele><time>2026-05-05T10:06:19Z</time></trkpt><trkpt lat="45.81045350500751" lon="14.325105387561768"><ele>581.3333333333334</ele><time>2026-05-05T10:06:20Z</time></trkpt><trkpt lat="45.810462626967364" lon="14.32489530792344"><ele>579.6666666666666</ele><time>2026-05-05T10:06:21Z</time></trkpt><trkpt lat="45.81044274911889" lon="14.324670811101234"><ele>578.0</ele><time>2026-05-05T10:06:22Z</time></trkpt><trkpt lat="45.81041296942568" lon="14.324453388242876"><ele>576.75</ele><time>2026-05-05T10:06:23Z</time></trkpt><trkpt lat="45.81041479377855" lon="14.324256706196568"><ele>575.5</ele><time>2026-05-05T10:06:24Z</time></trkpt><trkpt lat="45.81047845770785" lon="14.324088130847791"><ele>574.25</ele><time>2026-05-05T10:06:25Z</time></trkpt><trkpt lat="45.81055133509882" lon="14.323924645009447"><ele>573.0</ele><time>2026-05-05T10:06:26Z</time></trkpt><trkpt lat="45.81070115487252" lon="14.323861925840735"><ele>571.5</ele><time>2026-05-05T10:06:27Z</time></trkpt><trkpt lat="45.81083155171447" lon="14.323766816369709"><ele>570.0</ele><time>2026-05-05T10:06:28Z</time></trkpt><trkpt lat="45.810961340232815" lon="14.323666455121874"><ele>568.5</ele><time>2026-05-05T10:06:29Z</time></trkpt><trkpt lat="45.811085058217444" lon="14.323577583054337"><ele>567.0</ele><time>2026-05-05T10:06:30Z</time></trkpt><trkpt lat="45.81120169392926" lon="14.323470062897915"><ele>567.0</ele><time>2026-05-05T10:06:31Z</time></trkpt><trkpt lat="45.8113214333021" lon="14.323350037941378"><ele>567.0</ele><time>2026-05-05T10:06:32Z</time></trkpt><trkpt lat="45.81143286423634" lon="14.323205098511608"><ele>567.0</ele><time>2026-05-05T10:06:33Z</time></trkpt><trkpt lat="45.81153839592373" lon="14.323038409880075"><ele>568.0</ele><time>2026-05-05T10:06:34Z</time></trkpt><trkpt lat="45.81163996196512" lon="14.322861093774439"><ele>569.0</ele><time>2026-05-05T10:06:35Z</time></trkpt><trkpt lat="45.811735891893605" lon="14.322688070711322"><ele>570.0</ele><time>2026-05-05T10:06:36Z</time></trkpt><trkpt lat="45.81183126554327" lon="14.322508239806401"><ele>570.0</ele><time>2026-05-05T10:06:37Z</time></trkpt><trkpt lat="45.811923738884325" lon="14.322333642212186"><ele>570.0</ele><time>2026-05-05T10:06:38Z</time></trkpt><trkpt lat="45.8120185449863" lon="14.322169010029695"><ele>570.0</ele><time>2026-05-05T10:06:39Z</time></trkpt><trkpt lat="45.81211271230624" lon="14.322003799016025"><ele>568.3333333333334</ele><time>2026-05-05T10:06:40Z</time></trkpt><trkpt lat="45.81220448766367" lon="14.321836684876011"><ele>566.6666666666667</ele><time>2026-05-05T10:06:41Z</time></trkpt><trkpt lat="45.81229650212716" lon="14.321662709111932"><ele>565.0</ele><time>2026-05-05T10:06:42Z</time></trkpt><trkpt lat="45.81237752212306" lon="14.321480561939397"><ele>564.75</ele><time>2026-05-05T10:06:43Z</time></trkpt><trkpt lat="45.812445587323325" lon="14.321288239432228"><ele>564.5</ele><time>2026-05-05T10:06:44Z</time></trkpt><trkpt lat="45.81250594399739" lon="14.321090504261143"><ele>564.25</ele><time>2026-05-05T10:06:45Z</time></trkpt><trkpt lat="45.812559224790064" lon="14.320892101874195"><ele>564.0</ele><time>2026-05-05T10:06:46Z</time></trkpt><trkpt lat="45.81261509988337" lon="14.320691160112233"><ele>564.3333333333334</ele><time>2026-05-05T10:06:47Z</time></trkpt><trkpt lat="45.81267230664236" lon="14.320493189311044"><ele>564.6666666666667</ele><time>2026-05-05T10:06:48Z</time></trkpt><trkpt lat="45.81273263153999" lon="14.320297632188272"><ele>565.0</ele><time>2026-05-05T10:06:49Z</time></trkpt><trkpt lat="45.81279290613769" lon="14.320093982471834"><ele>565.0</ele><time>2026-05-05T10:06:50Z</time></trkpt><trkpt lat="45.81284237721346" lon="14.319892881029366"><ele>565.0</ele><time>2026-05-05T10:06:51Z</time></trkpt><trkpt lat="45.81289272482704" lon="14.319691745136144"><ele>565.0</ele><time>2026-05-05T10:06:52Z</time></trkpt><trkpt lat="45.812939520756395" lon="14.319485056909048"><ele>565.0</ele><time>2026-05-05T10:06:53Z</time></trkpt><trkpt lat="45.81298610274826" lon="14.319276772389435"><ele>563.0</ele><time>2026-05-05T10:06:54Z</time></trkpt><trkpt lat="45.81302933137594" lon="14.319070250815331"><ele>561.0</ele><time>2026-05-05T10:06:55Z</time></trkpt><trkpt lat="45.813069562837256" lon="14.318862602952887"><ele>559.0</ele><time>2026-05-05T10:06:56Z</time></trkpt><trkpt lat="45.81310310261238" lon="14.31864534400466"><ele>558.0</ele><time>2026-05-05T10:06:57Z</time></trkpt><trkpt lat="45.813124010268716" lon="14.318437352440855"><ele>557.0</ele><time>2026-05-05T10:06:58Z</time></trkpt><trkpt lat="45.81314190489715" lon="14.318223875866938"><ele>556.0</ele><time>2026-05-05T10:06:59Z</time></trkpt><trkpt lat="45.813151176112605" lon="14.318002523344104"><ele>555.75</ele><time>2026-05-05T10:07:00Z</time></trkpt><trkpt lat="45.81316043269383" lon="14.317786582144588"><ele>555.5</ele><time>2026-05-05T10:07:01Z</time></trkpt><trkpt lat="45.813167461221546" lon="14.317574670618722"><ele>555.25</ele><time>2026-05-05T10:07:02Z</time></trkpt><trkpt lat="45.81317735572515" lon="14.317370844522612"><ele>555.0</ele><time>2026-05-05T10:07:03Z</time></trkpt><trkpt lat="45.81318748431818" lon="14.317178238683724"><ele>554.75</ele><time>2026-05-05T10:07:04Z</time></trkpt><trkpt lat="45.813195836771584" lon="14.316985056511113"><ele>554.5</ele><time>2026-05-05T10:07:05Z</time></trkpt><trkpt lat="45.81320516796162" lon="14.31678802275465"><ele>554.25</ele><time>2026-05-05T10:07:06Z</time></trkpt><trkpt lat="45.81321157816725" lon="14.316598808701762"><ele>554.0</ele><time>2026-05-05T10:07:07Z</time></trkpt><trkpt lat="45.813218656348546" lon="14.316434340170485"><ele>554.0</ele><time>2026-05-05T10:07:08Z</time></trkpt><trkpt lat="45.81322579712152" lon="14.316307924794948"><ele>554.0</ele><time>2026-05-05T10:07:09Z</time></trkpt><trkpt lat="45.813227961187586" lon="14.316216779153121"><ele>554.0</ele><time>2026-05-05T10:07:10Z</time></trkpt><trkpt lat="45.813234439844535" lon="14.316071749808312"><ele>554.0</ele><time>2026-05-05T10:07:12Z</time></trkpt><trkpt lat="45.813218327735164" lon="14.315915548340124"><ele>554.0</ele><time>2026-05-05T10:07:14Z</time></trkpt><trkpt lat="45.813217170818795" lon="14.315784113429023"><ele>554.0</ele><time>2026-05-05T10:07:16Z</time></trkpt><trkpt lat="45.813214005057134" lon="14.315647745713045"><ele>554.0</ele><time>2026-05-05T10:07:20Z</time></trkpt><trkpt lat="45.81321446796393" lon="14.315495014271484"><ele>554.0</ele><time>2026-05-05T10:07:22Z</time></trkpt><trkpt lat="45.81318813685019" lon="14.315314130001541"><ele>554.0</ele><time>2026-05-05T10:07:24Z</time></trkpt><trkpt lat="45.81313921737008" lon="14.31514973970481"><ele>553.6</ele><time>2026-05-05T10:07:26Z</time></trkpt><trkpt lat="45.81309460036794" lon="14.314977678529658"><ele>553.2</ele><time>2026-05-05T10:07:28Z</time></trkpt><trkpt lat="45.813106084329085" lon="14.314859857750008"><ele>552.8000000000001</ele><time>2026-05-05T10:07:29Z</time></trkpt><trkpt lat="45.81311025205345" lon="14.314740189768385"><ele>552.4</ele><time>2026-05-05T10:07:30Z</time></trkpt><trkpt lat="45.81312172813379" lon="14.314616541323902"><ele>552.0</ele><time>2026-05-05T10:07:31Z</time></trkpt><trkpt lat="45.81313378069514" lon="14.314471497044435"><ele>551.2</ele><time>2026-05-05T10:07:32Z</time></trkpt><trkpt lat="45.81314687237118" lon="14.31432301765116"><ele>550.4000000000001</ele><time>2026-05-05T10:07:33Z</time></trkpt><trkpt lat="45.81316273543465" lon="14.314173776148621"><ele>549.5999999999999</ele><time>2026-05-05T10:07:34Z</time></trkpt><trkpt lat="45.81317321801625" lon="14.314024504566834"><ele>548.8</ele><time>2026-05-05T10:07:35Z</time></trkpt><trkpt lat="45.81318539035163" lon="14.313874714744973"><ele>548.0</ele><time>2026-05-05T10:07:36Z</time></trkpt><trkpt lat="45.8131986006771" lon="14.313726341479343"><ele>547.0</ele><time>2026-05-05T10:07:37Z</time></trkpt><trkpt lat="45.813212452741936" lon="14.313583995721498"><ele>546.0</ele><time>2026-05-05T10:07:38Z</time></trkpt><trkpt lat="45.813226910294134" lon="14.313449998808125"><ele>545.0</ele><time>2026-05-05T10:07:39Z</time></trkpt><trkpt lat="45.81324070064685" lon="14.3133169154433"><ele>544.0</ele><time>2026-05-05T10:07:40Z</time></trkpt><trkpt lat="45.81325768876553" lon="14.313185234425212"><ele>543.0</ele><time>2026-05-05T10:07:41Z</time></trkpt><trkpt lat="45.81327336324886" lon="14.313047104266914"><ele>543.6</ele><time>2026-05-05T10:07:42Z</time></trkpt><trkpt lat="45.81329868218742" lon="14.31291286671142"><ele>544.1999999999999</ele><time>2026-05-05T10:07:43Z</time></trkpt><trkpt lat="45.81333792591081" lon="14.312788927108683"><ele>544.8</ele><time>2026-05-05T10:07:44Z</time></trkpt><trkpt lat="45.81340017293777" lon="14.31266589914576"><ele>545.4</ele><time>2026-05-05T10:07:45Z</time></trkpt><trkpt lat="45.81345528682722" lon="14.31254666698456"><ele>546.0</ele><time>2026-05-05T10:07:46Z</time></trkpt><trkpt lat="45.81351523293355" lon="14.312429680757205"><ele>546.0</ele><time>2026-05-05T10:07:47Z</time></trkpt><trkpt lat="45.81357607846818" lon="14.312309038934309"><ele>546.0</ele><time>2026-05-05T10:07:48Z</time></trkpt><trkpt lat="45.81362942216766" lon="14.312178823364734"><ele>546.0</ele><time>2026-05-05T10:07:49Z</time></trkpt><trkpt lat="45.81367074274505" lon="14.312039500136528"><ele>546.0</ele><time>2026-05-05T10:07:50Z</time></trkpt><trkpt lat="45.8137059057713" lon="14.311895772140353"><ele>546.0</ele><time>2026-05-05T10:07:51Z</time></trkpt><trkpt lat="45.8137402642215" lon="14.311755132662137"><ele>544.4</ele><time>2026-05-05T10:07:52Z</time></trkpt><trkpt lat="45.81377774284997" lon="14.311591305265734"><ele>542.8</ele><time>2026-05-05T10:07:53Z</time></trkpt><trkpt lat="45.81380435434084" lon="14.311441758504632"><ele>541.1999999999999</ele><time>2026-05-05T10:07:54Z</time></trkpt><trkpt lat="45.813828421092346" lon="14.311291985685882"><ele>539.6</ele><time>2026-05-05T10:07:55Z</time></trkpt><trkpt lat="45.813855708882066" lon="14.311146927167558"><ele>538.0</ele><time>2026-05-05T10:07:56Z</time></trkpt><trkpt lat="45.813888339296106" lon="14.311004785099708"><ele>536.6</ele><time>2026-05-05T10:07:57Z</time></trkpt><trkpt lat="45.813928020873156" lon="14.310859476886236"><ele>535.1999999999999</ele><time>2026-05-05T10:07:58Z</time></trkpt><trkpt lat="45.81397374759306" lon="14.310719140584624"><ele>533.8</ele><time>2026-05-05T10:07:59Z</time></trkpt><trkpt lat="45.81402314644732" lon="14.310578358773359"><ele>532.4</ele><time>2026-05-05T10:08:00Z</time></trkpt><trkpt lat="45.81406814084842" lon="14.310447491313726"><ele>531.0</ele><time>2026-05-05T10:08:01Z</time></trkpt><trkpt lat="45.81411254588982" lon="14.310314765806048"><ele>529.8</ele><time>2026-05-05T10:08:02Z</time></trkpt><trkpt lat="45.8141660253398" lon="14.310172838142636"><ele>528.6</ele><time>2026-05-05T10:08:03Z</time></trkpt><trkpt lat="45.814206571836856" lon="14.310029930946564"><ele>527.4</ele><time>2026-05-05T10:08:04Z</time></trkpt><trkpt lat="45.81423847145095" lon="14.309886571019867"><ele>526.2</ele><time>2026-05-05T10:08:05Z</time></trkpt><trkpt lat="45.81425732870434" lon="14.309735374850291"><ele>525.0</ele><time>2026-05-05T10:08:06Z</time></trkpt><trkpt lat="45.814253367698434" lon="14.309572442512787"><ele>524.25</ele><time>2026-05-05T10:08:07Z</time></trkpt><trkpt lat="45.81422691626386" lon="14.309393393254231"><ele>523.5</ele><time>2026-05-05T10:08:08Z</time></trkpt><trkpt lat="45.814200509928504" lon="14.309201865968264"><ele>522.75</ele><time>2026-05-05T10:08:09Z</time></trkpt><trkpt lat="45.81417701233491" lon="14.309003786967628"><ele>522.0</ele><time>2026-05-05T10:08:10Z</time></trkpt><trkpt lat="45.81415722366329" lon="14.308810863494077"><ele>521.5</ele><time>2026-05-05T10:08:11Z</time></trkpt><trkpt lat="45.81414400231718" lon="14.30862596013675"><ele>521.0</ele><time>2026-05-05T10:08:12Z</time></trkpt><trkpt lat="45.81413909757521" lon="14.308452426428461"><ele>520.5</ele><time>2026-05-05T10:08:13Z</time></trkpt><trkpt lat="45.81413988827361" lon="14.308285111081606"><ele>520.0</ele><time>2026-05-05T10:08:14Z</time></trkpt><trkpt lat="45.8141553959781" lon="14.308120062789362"><ele>519.75</ele><time>2026-05-05T10:08:15Z</time></trkpt><trkpt lat="45.81417599072588" lon="14.307950836213752"><ele>519.5</ele><time>2026-05-05T10:08:16Z</time></trkpt><trkpt lat="45.81419998809261" lon="14.307769506400703"><ele>519.25</ele><time>2026-05-05T10:08:17Z</time></trkpt><trkpt lat="45.81423269497267" lon="14.307582329759093"><ele>519.0</ele><time>2026-05-05T10:08:18Z</time></trkpt><trkpt lat="45.81427449151191" lon="14.30740071629209"><ele>518.75</ele><time>2026-05-05T10:08:19Z</time></trkpt><trkpt lat="45.81431539577826" lon="14.30721373204022"><ele>518.5</ele><time>2026-05-05T10:08:20Z</time></trkpt><trkpt lat="45.81436441334533" lon="14.307029605364027"><ele>518.25</ele><time>2026-05-05T10:08:21Z</time></trkpt><trkpt lat="45.81441438607174" lon="14.306843787072111"><ele>518.0</ele><time>2026-05-05T10:08:22Z</time></trkpt><trkpt lat="45.81447069749595" lon="14.306646832544596"><ele>517.6666666666666</ele><time>2026-05-05T10:08:23Z</time></trkpt><trkpt lat="45.81453143162086" lon="14.306439785806234"><ele>517.3333333333334</ele><time>2026-05-05T10:08:24Z</time></trkpt><trkpt lat="45.814599348064995" lon="14.306213372529067"><ele>517.0</ele><time>2026-05-05T10:08:25Z</time></trkpt><trkpt lat="45.81466717461429" lon="14.305978367076866"><ele>517.0</ele><time>2026-05-05T10:08:26Z</time></trkpt><trkpt lat="45.81473292466597" lon="14.305772009819815"><ele>517.0</ele><time>2026-05-05T10:08:27Z</time></trkpt><trkpt lat="45.8147927549693" lon="14.3055817133769"><ele>517.0</ele><time>2026-05-05T10:08:28Z</time></trkpt><trkpt lat="45.81485027732793" lon="14.305395712345252"><ele>517.0</ele><time>2026-05-05T10:08:29Z</time></trkpt><trkpt lat="45.81491120326544" lon="14.305203757401584"><ele>517.0</ele><time>2026-05-05T10:08:30Z</time></trkpt><trkpt lat="45.8149721103868" lon="14.305011766795724"><ele>517.0</ele><time>2026-05-05T10:08:31Z</time></trkpt><trkpt lat="45.8150362404719" lon="14.304817497196723"><ele>517.0</ele><time>2026-05-05T10:08:32Z</time></trkpt><trkpt lat="45.815099840459446" lon="14.304599120247065"><ele>516.3333333333334</ele><time>2026-05-05T10:08:33Z</time></trkpt><trkpt lat="45.81517660694663" lon="14.304355096331115"><ele>515.6666666666666</ele><time>2026-05-05T10:08:34Z</time></trkpt><trkpt lat="45.815253981596" lon="14.304066245707432"><ele>515.0</ele><time>2026-05-05T10:08:35Z</time></trkpt><trkpt lat="45.815333125306005" lon="14.303759819790375"><ele>515.0</ele><time>2026-05-05T10:08:36Z</time></trkpt><trkpt lat="45.815409675441906" lon="14.303433612708023"><ele>515.0</ele><time>2026-05-05T10:08:37Z</time></trkpt><trkpt lat="45.81550404311554" lon="14.303118518751182"><ele>515.5</ele><time>2026-05-05T10:08:38Z</time></trkpt><trkpt lat="45.81562749865184" lon="14.302821526483854"><ele>516.0</ele><time>2026-05-05T10:08:39Z</time></trkpt><trkpt lat="45.815748438242665" lon="14.30251285492103"><ele>516.0</ele><time>2026-05-05T10:08:40Z</time></trkpt><trkpt lat="45.815858139891944" lon="14.302196529237998"><ele>516.0</ele><time>2026-05-05T10:08:41Z</time></trkpt><trkpt lat="45.81598461796886" lon="14.301891941101172"><ele>515.5</ele><time>2026-05-05T10:08:42Z</time></trkpt><trkpt lat="45.81609558109882" lon="14.30159204977975"><ele>515.0</ele><time>2026-05-05T10:08:43Z</time></trkpt><trkpt lat="45.816192072507434" lon="14.301286307831756"><ele>515.0</ele><time>2026-05-05T10:08:44Z</time></trkpt><trkpt lat="45.81628322859279" lon="14.30097312319302"><ele>515.0</ele><time>2026-05-05T10:08:45Z</time></trkpt><trkpt lat="45.81636109409003" lon="14.300663287604916"><ele>516.0</ele><time>2026-05-05T10:08:46Z</time></trkpt><trkpt lat="45.81644258199846" lon="14.300357500683761"><ele>517.0</ele><time>2026-05-05T10:08:47Z</time></trkpt><trkpt lat="45.81652956229346" lon="14.300063156576204"><ele>517.0</ele><time>2026-05-05T10:08:48Z</time></trkpt><trkpt lat="45.81661809646367" lon="14.299766095288858"><ele>517.0</ele><time>2026-05-05T10:08:49Z</time></trkpt><trkpt lat="45.81670843009202" lon="14.299468523292795"><ele>517.0</ele><time>2026-05-05T10:08:50Z</time></trkpt><trkpt lat="45.816801040927125" lon="14.299170659795541"><ele>517.0</ele><time>2026-05-05T10:08:51Z</time></trkpt><trkpt lat="45.81689233504422" lon="14.298877376689514"><ele>515.6666666666667</ele><time>2026-05-05T10:08:52Z</time></trkpt><trkpt lat="45.816977019862414" lon="14.298594899132915"><ele>514.3333333333334</ele><time>2026-05-05T10:08:53Z</time></trkpt><trkpt lat="45.81706111623681" lon="14.298332095383792"><ele>513.0</ele><time>2026-05-05T10:08:54Z</time></trkpt><trkpt lat="45.817142414528426" lon="14.298075432789053"><ele>512.3333333333334</ele><time>2026-05-05T10:08:55Z</time></trkpt><trkpt lat="45.817220401208814" lon="14.297823970603172"><ele>511.6666666666667</ele><time>2026-05-05T10:08:56Z</time></trkpt><trkpt lat="45.81728813884879" lon="14.297580826263825"><ele>511.0</ele><time>2026-05-05T10:08:57Z</time></trkpt><trkpt lat="45.81735506045726" lon="14.29734048239024"><ele>512.0</ele><time>2026-05-05T10:08:58Z</time></trkpt><trkpt lat="45.817415481620046" lon="14.297100603887682"><ele>513.0</ele><time>2026-05-05T10:08:59Z</time></trkpt><trkpt lat="45.817475191247645" lon="14.296863382361046"><ele>514.0</ele><time>2026-05-05T10:09:00Z</time></trkpt><trkpt lat="45.817533106847414" lon="14.29663129182684"><ele>514.3333333333334</ele><time>2026-05-05T10:09:01Z</time></trkpt><trkpt lat="45.817589244437514" lon="14.296397754721"><ele>514.6666666666666</ele><time>2026-05-05T10:09:02Z</time></trkpt><trkpt lat="45.81764409034525" lon="14.296164582008188"><ele>515.0</ele><time>2026-05-05T10:09:03Z</time></trkpt><trkpt lat="45.81769561173887" lon="14.295930992134682"><ele>515.0</ele><time>2026-05-05T10:09:04Z</time></trkpt><trkpt lat="45.817746266895526" lon="14.295699208494208"><ele>515.0</ele><time>2026-05-05T10:09:05Z</time></trkpt><trkpt lat="45.817796243464" lon="14.295465338028412"><ele>515.0</ele><time>2026-05-05T10:09:06Z</time></trkpt><trkpt lat="45.81784325263299" lon="14.295246225011217"><ele>515.0</ele><time>2026-05-05T10:09:07Z</time></trkpt><trkpt lat="45.81788298968708" lon="14.295051954569919"><ele>515.0</ele><time>2026-05-05T10:09:08Z</time></trkpt><trkpt lat="45.81792126127045" lon="14.294870138262826"><ele>515.0</ele><time>2026-05-05T10:09:09Z</time></trkpt><trkpt lat="45.81795632489414" lon="14.294702526185462"><ele>515.0</ele><time>2026-05-05T10:09:10Z</time></trkpt><trkpt lat="45.817990425687036" lon="14.294538899806923"><ele>515.0</ele><time>2026-05-05T10:09:11Z</time></trkpt><trkpt lat="45.818022868101366" lon="14.294377053243936"><ele>515.0</ele><time>2026-05-05T10:09:12Z</time></trkpt><trkpt lat="45.81805460919128" lon="14.294217093381278"><ele>515.0</ele><time>2026-05-05T10:09:13Z</time></trkpt><trkpt lat="45.8180814298428" lon="14.294055323256105"><ele>515.0</ele><time>2026-05-05T10:09:14Z</time></trkpt><trkpt lat="45.818104370743114" lon="14.29389775438167"><ele>515.5</ele><time>2026-05-05T10:09:15Z</time></trkpt><trkpt lat="45.81812626581063" lon="14.29373798796074"><ele>516.0</ele><time>2026-05-05T10:09:16Z</time></trkpt><trkpt lat="45.818150456689054" lon="14.29357540635405"><ele>516.5</ele><time>2026-05-05T10:09:17Z</time></trkpt><trkpt lat="45.81817827328647" lon="14.293417228851801"><ele>517.0</ele><time>2026-05-05T10:09:18Z</time></trkpt><trkpt lat="45.81820652359365" lon="14.293264716860172"><ele>517.0</ele><time>2026-05-05T10:09:19Z</time></trkpt><trkpt lat="45.8182380636426" lon="14.29311422474564"><ele>517.0</ele><time>2026-05-05T10:09:20Z</time></trkpt><trkpt lat="45.81828702017586" lon="14.292959992382764"><ele>517.0</ele><time>2026-05-05T10:09:21Z</time></trkpt><trkpt lat="45.81834395167865" lon="14.292807500310982"><ele>517.0</ele><time>2026-05-05T10:09:22Z</time></trkpt><trkpt lat="45.81837640226619" lon="14.292636699301722"><ele>517.0</ele><time>2026-05-05T10:09:23Z</time></trkpt><trkpt lat="45.81849232789485" lon="14.292498518294886"><ele>517.0</ele><time>2026-05-05T10:09:24Z</time></trkpt><trkpt lat="45.818570572562955" lon="14.2923504721396"><ele>517.0</ele><time>2026-05-05T10:09:25Z</time></trkpt><trkpt lat="45.81865090924307" lon="14.292210676798646"><ele>517.0</ele><time>2026-05-05T10:09:26Z</time></trkpt><trkpt lat="45.8187235992948" lon="14.29207399175509"><ele>517.0</ele><time>2026-05-05T10:09:27Z</time></trkpt><trkpt lat="45.818797979920895" lon="14.291937507682952"><ele>517.0</ele><time>2026-05-05T10:09:28Z</time></trkpt><trkpt lat="45.81887021525966" lon="14.291807082885871"><ele>517.0</ele><time>2026-05-05T10:09:29Z</time></trkpt><trkpt lat="45.818938189244754" lon="14.291677184056555"><ele>517.0</ele><time>2026-05-05T10:09:30Z</time></trkpt><trkpt lat="45.81900162334954" lon="14.291556115262635"><ele>517.0</ele><time>2026-05-05T10:09:31Z</time></trkpt><trkpt lat="45.81907161215295" lon="14.291430288839678"><ele>517.0</ele><time>2026-05-05T10:09:32Z</time></trkpt><trkpt lat="45.81914102246407" lon="14.291311104505805"><ele>517.0</ele><time>2026-05-05T10:09:33Z</time></trkpt><trkpt lat="45.8192145580474" lon="14.291190923106681"><ele>517.0</ele><time>2026-05-05T10:09:34Z</time></trkpt><trkpt lat="45.81929714001939" lon="14.291076996653135"><ele>517.0</ele><time>2026-05-05T10:09:35Z</time></trkpt><trkpt lat="45.819384480447866" lon="14.290985854361246"><ele>517.8000000000001</ele><time>2026-05-05T10:09:36Z</time></trkpt><trkpt lat="45.81947055694797" lon="14.290903778570563"><ele>518.6</ele><time>2026-05-05T10:09:37Z</time></trkpt><trkpt lat="45.8195667960738" lon="14.290825289143788"><ele>519.4000000000001</ele><time>2026-05-05T10:09:38Z</time></trkpt><trkpt lat="45.81964983107259" lon="14.290749737912147"><ele>520.2</ele><time>2026-05-05T10:09:39Z</time></trkpt><trkpt lat="45.819732246658326" lon="14.290681227257718"><ele>521.0</ele><time>2026-05-05T10:09:40Z</time></trkpt><trkpt lat="45.81980245969719" lon="14.290596273381764"><ele>520.3333333333333</ele><time>2026-05-05T10:09:41Z</time></trkpt><trkpt lat="45.819869604562655" lon="14.29051959310614"><ele>519.6666666666666</ele><time>2026-05-05T10:09:42Z</time></trkpt><trkpt lat="45.819925183015364" lon="14.290449139948892"><ele>519.0</ele><time>2026-05-05T10:09:43Z</time></trkpt><trkpt lat="45.820000398319735" lon="14.290345728318162"><ele>518.3333333333334</ele><time>2026-05-05T10:09:45Z</time></trkpt><trkpt lat="45.820080358251495" lon="14.290250966894464"><ele>517.6666666666667</ele><time>2026-05-05T10:09:47Z</time></trkpt><trkpt lat="45.82012647371188" lon="14.290183991999722"><ele>517.0</ele><time>2026-05-05T10:09:48Z</time></trkpt><trkpt lat="45.820186309858656" lon="14.290102220360964"><ele>517.0</ele><time>2026-05-05T10:09:49Z</time></trkpt><trkpt lat="45.82025231867478" lon="14.290015573765022"><ele>517.0</ele><time>2026-05-05T10:09:50Z</time></trkpt><trkpt lat="45.820320188786845" lon="14.289917581841976"><ele>517.0</ele><time>2026-05-05T10:09:51Z</time></trkpt><trkpt lat="45.82039306688676" lon="14.289814691278641"><ele>517.0</ele><time>2026-05-05T10:09:52Z</time></trkpt><trkpt lat="45.82047237584784" lon="14.289705569542223"><ele>517.0</ele><time>2026-05-05T10:09:53Z</time></trkpt><trkpt lat="45.82056200319282" lon="14.289590290453093"><ele>516.0</ele><time>2026-05-05T10:09:54Z</time></trkpt><trkpt lat="45.82066498154962" lon="14.289464016792962"><ele>515.0</ele><time>2026-05-05T10:09:55Z</time></trkpt><trkpt lat="45.820783316946354" lon="14.289329696118202"><ele>514.0</ele><time>2026-05-05T10:09:56Z</time></trkpt><trkpt lat="45.82090734813315" lon="14.289195638638743"><ele>513.0</ele><time>2026-05-05T10:09:57Z</time></trkpt><trkpt lat="45.82102919023211" lon="14.289063212433927"><ele>512.3333333333334</ele><time>2026-05-05T10:09:58Z</time></trkpt><trkpt lat="45.82115654830724" lon="14.28893178101521"><ele>511.6666666666667</ele><time>2026-05-05T10:09:59Z</time></trkpt><trkpt lat="45.821288646597566" lon="14.288796581896635"><ele>511.0</ele><time>2026-05-05T10:10:00Z</time></trkpt><trkpt lat="45.82142082710573" lon="14.288656512003154"><ele>511.0</ele><time>2026-05-05T10:10:01Z</time></trkpt><trkpt lat="45.8215500148479" lon="14.288524490598533"><ele>511.0</ele><time>2026-05-05T10:10:02Z</time></trkpt><trkpt lat="45.82167788148176" lon="14.288391031139327"><ele>511.0</ele><time>2026-05-05T10:10:03Z</time></trkpt><trkpt lat="45.82179206058018" lon="14.288266590631542"><ele>511.25</ele><time>2026-05-05T10:10:04Z</time></trkpt><trkpt lat="45.821894751440084" lon="14.28815260213424"><ele>511.5</ele><time>2026-05-05T10:10:05Z</time></trkpt><trkpt lat="45.82199462890419" lon="14.288044450872082"><ele>511.75</ele><time>2026-05-05T10:10:06Z</time></trkpt><trkpt lat="45.822091644113996" lon="14.287942942737528"><ele>512.0</ele><time>2026-05-05T10:10:07Z</time></trkpt><trkpt lat="45.82219204162067" lon="14.287838982163635"><ele>512.0</ele><time>2026-05-05T10:10:08Z</time></trkpt><trkpt lat="45.82229266664797" lon="14.287732993446495"><ele>512.0</ele><time>2026-05-05T10:10:09Z</time></trkpt><trkpt lat="45.82238412111616" lon="14.287627749375519"><ele>512.0</ele><time>2026-05-05T10:10:10Z</time></trkpt><trkpt lat="45.822461412883" lon="14.287535154615115"><ele>512.0</ele><time>2026-05-05T10:10:11Z</time></trkpt><trkpt lat="45.82253287619301" lon="14.287462242628044"><ele>512.0</ele><time>2026-05-05T10:10:12Z</time></trkpt><trkpt lat="45.82261402194234" lon="14.287385626000523"><ele>512.25</ele><time>2026-05-05T10:10:13Z</time></trkpt><trkpt lat="45.82270271497369" lon="14.28730583596126"><ele>512.5</ele><time>2026-05-05T10:10:14Z</time></trkpt><trkpt lat="45.822794816925736" lon="14.28721549649559"><ele>512.75</ele><time>2026-05-05T10:10:15Z</time></trkpt><trkpt lat="45.822893691294084" lon="14.287114336328486"><ele>513.0</ele><time>2026-05-05T10:10:16Z</time></trkpt><trkpt lat="45.82300525902017" lon="14.286992883290331"><ele>513.6666666666666</ele><time>2026-05-05T10:10:17Z</time></trkpt><trkpt lat="45.82313046173011" lon="14.286858026560996"><ele>514.3333333333333</ele><time>2026-05-05T10:10:18Z</time></trkpt><trkpt lat="45.82326724424559" lon="14.286715794369119"><ele>515.0</ele><time>2026-05-05T10:10:19Z</time></trkpt><trkpt lat="45.82341455279855" lon="14.28656133138744"><ele>514.6666666666666</ele><time>2026-05-05T10:10:20Z</time></trkpt><trkpt lat="45.823569461828455" lon="14.28639975691147"><ele>514.3333333333334</ele><time>2026-05-05T10:10:21Z</time></trkpt><trkpt lat="45.82372969370558" lon="14.28623852776114"><ele>514.0</ele><time>2026-05-05T10:10:22Z</time></trkpt><trkpt lat="45.82388917817053" lon="14.286053086564237"><ele>514.0</ele><time>2026-05-05T10:10:23Z</time></trkpt><trkpt lat="45.82407443607971" lon="14.285860065504302"><ele>514.0</ele><time>2026-05-05T10:10:24Z</time></trkpt><trkpt lat="45.82426295368259" lon="14.285664469663383"><ele>514.5</ele><time>2026-05-05T10:10:25Z</time></trkpt><trkpt lat="45.82445872277566" lon="14.285456702428224"><ele>515.0</ele><time>2026-05-05T10:10:26Z</time></trkpt><trkpt lat="45.82464816305267" lon="14.285256690720813"><ele>515.0</ele><time>2026-05-05T10:10:27Z</time></trkpt><trkpt lat="45.82483233281491" lon="14.28506174726572"><ele>515.0</ele><time>2026-05-05T10:10:28Z</time></trkpt><trkpt lat="45.82502390999541" lon="14.284856507042457"><ele>516.5</ele><time>2026-05-05T10:10:29Z</time></trkpt><trkpt lat="45.82522320335518" lon="14.28463826279209"><ele>518.0</ele><time>2026-05-05T10:10:30Z</time></trkpt><trkpt lat="45.825428334173324" lon="14.28439633516702"><ele>518.0</ele><time>2026-05-05T10:10:31Z</time></trkpt><trkpt lat="45.8256365888677" lon="14.284135155637678"><ele>518.0</ele><time>2026-05-05T10:10:32Z</time></trkpt><trkpt lat="45.82585308854482" lon="14.283862692177737"><ele>519.0</ele><time>2026-05-05T10:10:33Z</time></trkpt><trkpt lat="45.82607707076289" lon="14.283653569113243"><ele>520.0</ele><time>2026-05-05T10:10:34Z</time></trkpt><trkpt lat="45.82627528290239" lon="14.283461503985745"><ele>520.0</ele><time>2026-05-05T10:10:35Z</time></trkpt><trkpt lat="45.82645031724134" lon="14.2832662128898"><ele>520.0</ele><time>2026-05-05T10:10:36Z</time></trkpt><trkpt lat="45.826623835524714" lon="14.283102009780285"><ele>520.0</ele><time>2026-05-05T10:10:37Z</time></trkpt><trkpt lat="45.82677043292176" lon="14.282956307756889"><ele>521.0</ele><time>2026-05-05T10:10:38Z</time></trkpt><trkpt lat="45.826900386129175" lon="14.282831815617012"><ele>522.0</ele><time>2026-05-05T10:10:39Z</time></trkpt><trkpt lat="45.82702483940819" lon="14.282740589045888"><ele>523.0</ele><time>2026-05-05T10:10:40Z</time></trkpt><trkpt lat="45.8271629865312" lon="14.282700307691528"><ele>524.0</ele><time>2026-05-05T10:10:41Z</time></trkpt><trkpt lat="45.82730332979586" lon="14.282772093245368"><ele>524.0</ele><time>2026-05-05T10:10:42Z</time></trkpt><trkpt lat="45.827452595149296" lon="14.28280435439999"><ele>524.0</ele><time>2026-05-05T10:10:43Z</time></trkpt><trkpt lat="45.82761414455346" lon="14.282866477395384"><ele>524.0</ele><time>2026-05-05T10:10:44Z</time></trkpt><trkpt lat="45.82778956749266" lon="14.282876143615917"><ele>523.3333333333333</ele><time>2026-05-05T10:10:45Z</time></trkpt><trkpt lat="45.827977930425575" lon="14.282838336173041"><ele>522.6666666666666</ele><time>2026-05-05T10:10:46Z</time></trkpt><trkpt lat="45.828169401020105" lon="14.282760057339432"><ele>522.0</ele><time>2026-05-05T10:10:47Z</time></trkpt><trkpt lat="45.82835023106484" lon="14.28264207720391"><ele>522.0</ele><time>2026-05-05T10:10:48Z</time></trkpt><trkpt lat="45.82850864244451" lon="14.282484442949364"><ele>522.0</ele><time>2026-05-05T10:10:49Z</time></trkpt><trkpt lat="45.828641204305534" lon="14.282328054399153"><ele>522.0</ele><time>2026-05-05T10:10:50Z</time></trkpt><trkpt lat="45.82876531940321" lon="14.282185398474482"><ele>522.0</ele><time>2026-05-05T10:10:51Z</time></trkpt><trkpt lat="45.82888750624626" lon="14.282063105116185"><ele>522.0</ele><time>2026-05-05T10:10:52Z</time></trkpt><trkpt lat="45.82900011225211" lon="14.281961045660982"><ele>522.0</ele><time>2026-05-05T10:10:53Z</time></trkpt><trkpt lat="45.82909224664735" lon="14.281878448634409"><ele>522.0</ele><time>2026-05-05T10:10:54Z</time></trkpt><trkpt lat="45.82916789822332" lon="14.281798333385074"><ele>522.0</ele><time>2026-05-05T10:10:55Z</time></trkpt><trkpt lat="45.82925181339831" lon="14.281731297972016"><ele>522.0</ele><time>2026-05-05T10:10:56Z</time></trkpt><trkpt lat="45.82937061894027" lon="14.281674760419268"><ele>522.0</ele><time>2026-05-05T10:10:57Z</time></trkpt><trkpt lat="45.829495005329456" lon="14.281597130019433"><ele>522.0</ele><time>2026-05-05T10:10:58Z</time></trkpt><trkpt lat="45.8296426820204" lon="14.281529595828106"><ele>521.6666666666666</ele><time>2026-05-05T10:10:59Z</time></trkpt><trkpt lat="45.82979518005126" lon="14.281427805786777"><ele>521.3333333333333</ele><time>2026-05-05T10:11:00Z</time></trkpt><trkpt lat="45.829967733108404" lon="14.281342101586457"><ele>521.0</ele><time>2026-05-05T10:11:01Z</time></trkpt><trkpt lat="45.83016035048951" lon="14.281222143684294"><ele>523.0</ele><time>2026-05-05T10:11:02Z</time></trkpt><trkpt lat="45.83036636289726" lon="14.281071399848289"><ele>525.0</ele><time>2026-05-05T10:11:03Z</time></trkpt><trkpt lat="45.83057274719612" lon="14.280953093542442"><ele>525.0</ele><time>2026-05-05T10:11:04Z</time></trkpt><trkpt lat="45.830761099101125" lon="14.280859784101112"><ele>525.0</ele><time>2026-05-05T10:11:05Z</time></trkpt><trkpt lat="45.83094214634294" lon="14.280772444707766"><ele>525.0</ele><time>2026-05-05T10:11:06Z</time></trkpt><trkpt lat="45.83112437650296" lon="14.280673609842658"><ele>524.3333333333334</ele><time>2026-05-05T10:11:07Z</time></trkpt><trkpt lat="45.83131341765959" lon="14.280613943940153"><ele>523.6666666666667</ele><time>2026-05-05T10:11:08Z</time></trkpt><trkpt lat="45.83149646883674" lon="14.280556622207989"><ele>523.0</ele><time>2026-05-05T10:11:09Z</time></trkpt><trkpt lat="45.83167735028666" lon="14.280482745232588"><ele>525.6666666666667</ele><time>2026-05-05T10:11:10Z</time></trkpt><trkpt lat="45.83185001129963" lon="14.280382778526064"><ele>528.3333333333334</ele><time>2026-05-05T10:11:11Z</time></trkpt><trkpt lat="45.8320199441762" lon="14.280264415266041"><ele>531.0</ele><time>2026-05-05T10:11:12Z</time></trkpt><trkpt lat="45.83219379973396" lon="14.280145047310107"><ele>531.0</ele><time>2026-05-05T10:11:13Z</time></trkpt><trkpt lat="45.83236432906757" lon="14.280024322769426"><ele>531.0</ele><time>2026-05-05T10:11:14Z</time></trkpt><trkpt lat="45.83253587162295" lon="14.279914932990303"><ele>531.0</ele><time>2026-05-05T10:11:15Z</time></trkpt><trkpt lat="45.83271855480951" lon="14.27981167515939"><ele>529.3333333333334</ele><time>2026-05-05T10:11:16Z</time></trkpt><trkpt lat="45.83290598262092" lon="14.27971451513098"><ele>527.6666666666667</ele><time>2026-05-05T10:11:17Z</time></trkpt><trkpt lat="45.83309187819656" lon="14.279616751101061"><ele>526.0</ele><time>2026-05-05T10:11:18Z</time></trkpt><trkpt lat="45.83327054123142" lon="14.27950116228169"><ele>526.0</ele><time>2026-05-05T10:11:19Z</time></trkpt><trkpt lat="45.833441912644204" lon="14.279347713736517"><ele>526.0</ele><time>2026-05-05T10:11:20Z</time></trkpt><trkpt lat="45.83360152491556" lon="14.27918022604947"><ele>526.0</ele><time>2026-05-05T10:11:21Z</time></trkpt><trkpt lat="45.833766598311044" lon="14.279025902908534"><ele>521.0</ele><time>2026-05-05T10:11:22Z</time></trkpt><trkpt lat="45.83393514921999" lon="14.278878691578546"><ele>516.0</ele><time>2026-05-05T10:11:23Z</time></trkpt><trkpt lat="45.83409897693597" lon="14.27873215877078"><ele>511.0</ele><time>2026-05-05T10:11:24Z</time></trkpt><trkpt lat="45.834248304495105" lon="14.27859233785858"><ele>505.33333333333337</ele><time>2026-05-05T10:11:25Z</time></trkpt><trkpt lat="45.834371222809395" lon="14.278431633825893"><ele>499.66666666666663</ele><time>2026-05-05T10:11:26Z</time></trkpt><trkpt lat="45.83447049159247" lon="14.278247333046814"><ele>494.0</ele><time>2026-05-05T10:11:27Z</time></trkpt><trkpt lat="45.834550280964194" lon="14.278053608087985"><ele>494.0</ele><time>2026-05-05T10:11:28Z</time></trkpt><trkpt lat="45.83463028384887" lon="14.277860324996418"><ele>494.0</ele><time>2026-05-05T10:11:29Z</time></trkpt><trkpt lat="45.83467170611072" lon="14.277610728425161"><ele>494.0</ele><time>2026-05-05T10:11:30Z</time></trkpt><trkpt lat="45.83469945959584" lon="14.277360688929665"><ele>497.3333333333333</ele><time>2026-05-05T10:11:31Z</time></trkpt><trkpt lat="45.83474790952893" lon="14.277108035720747"><ele>500.66666666666663</ele><time>2026-05-05T10:11:32Z</time></trkpt><trkpt lat="45.8348616094468" lon="14.276939494603646"><ele>504.0</ele><time>2026-05-05T10:11:33Z</time></trkpt><trkpt lat="45.8349974200126" lon="14.276786822047015"><ele>499.0</ele><time>2026-05-05T10:11:34Z</time></trkpt><trkpt lat="45.835159113255784" lon="14.276636701098592"><ele>494.0</ele><time>2026-05-05T10:11:35Z</time></trkpt><trkpt lat="45.83531257355567" lon="14.276480080588602"><ele>489.0</ele><time>2026-05-05T10:11:36Z</time></trkpt><trkpt lat="45.83545160125385" lon="14.276333878959113"><ele>489.0</ele><time>2026-05-05T10:11:37Z</time></trkpt><trkpt lat="45.835565767759384" lon="14.276147654453188"><ele>489.0</ele><time>2026-05-05T10:11:38Z</time></trkpt><trkpt lat="45.83565601397856" lon="14.27591374603831"><ele>489.0</ele><time>2026-05-05T10:11:39Z</time></trkpt><trkpt lat="45.83571768175347" lon="14.275634232382309"><ele>489.0</ele><time>2026-05-05T10:11:40Z</time></trkpt><trkpt lat="45.835776504646944" lon="14.275334096090297"><ele>489.0</ele><time>2026-05-05T10:11:41Z</time></trkpt><trkpt lat="45.835835969202705" lon="14.275022530090741"><ele>489.0</ele><time>2026-05-05T10:11:42Z</time></trkpt><trkpt lat="45.83589073583464" lon="14.274706761937846"><ele>490.33333333333337</ele><time>2026-05-05T10:11:43Z</time></trkpt><trkpt lat="45.83594551532588" lon="14.274408300545863"><ele>491.6666666666667</ele><time>2026-05-05T10:11:44Z</time></trkpt><trkpt lat="45.8359783988261" lon="14.274133434391302"><ele>493.0</ele><time>2026-05-05T10:11:45Z</time></trkpt><trkpt lat="45.83597360669247" lon="14.273881953389411"><ele>493.0</ele><time>2026-05-05T10:11:46Z</time></trkpt><trkpt lat="45.83593364084576" lon="14.273640763284469"><ele>493.0</ele><time>2026-05-05T10:11:47Z</time></trkpt><trkpt lat="45.83586971007449" lon="14.273425809579033"><ele>493.0</ele><time>2026-05-05T10:11:48Z</time></trkpt><trkpt lat="45.83579895050534" lon="14.273233474950468"><ele>492.0</ele><time>2026-05-05T10:11:49Z</time></trkpt><trkpt lat="45.83579342309269" lon="14.273046107508208"><ele>491.0</ele><time>2026-05-05T10:11:50Z</time></trkpt><trkpt lat="45.83584328064766" lon="14.272895976221262"><ele>490.0</ele><time>2026-05-05T10:11:51Z</time></trkpt><trkpt lat="45.83592838179883" lon="14.272750031301102"><ele>489.0</ele><time>2026-05-05T10:11:52Z</time></trkpt><trkpt lat="45.83602439133116" lon="14.272586498373789"><ele>479.33333333333337</ele><time>2026-05-05T10:11:53Z</time></trkpt><trkpt lat="45.83610990447821" lon="14.272408714678184"><ele>469.6666666666667</ele><time>2026-05-05T10:11:54Z</time></trkpt><trkpt lat="45.836177380680475" lon="14.272210027181561"><ele>460.0</ele><time>2026-05-05T10:11:55Z</time></trkpt><trkpt lat="45.83622992919729" lon="14.271973072030756"><ele>458.6666666666667</ele><time>2026-05-05T10:11:56Z</time></trkpt><trkpt lat="45.836266443990105" lon="14.271745061055075"><ele>457.33333333333337</ele><time>2026-05-05T10:11:57Z</time></trkpt><trkpt lat="45.83629585551979" lon="14.271532018465388"><ele>456.0</ele><time>2026-05-05T10:11:58Z</time></trkpt><trkpt lat="45.836278634348076" lon="14.271324831949824"><ele>454.33333333333337</ele><time>2026-05-05T10:11:59Z</time></trkpt><trkpt lat="45.836216587396876" lon="14.271112056840785"><ele>452.6666666666667</ele><time>2026-05-05T10:12:00Z</time></trkpt><trkpt lat="45.836137595460286" lon="14.270897674204674"><ele>451.0</ele><time>2026-05-05T10:12:01Z</time></trkpt><trkpt lat="45.836060506041434" lon="14.270691622046739"><ele>452.0</ele><time>2026-05-05T10:12:02Z</time></trkpt><trkpt lat="45.83597057910672" lon="14.270516987492602"><ele>453.0</ele><time>2026-05-05T10:12:03Z</time></trkpt><trkpt lat="45.83585277305738" lon="14.270404152049649"><ele>454.0</ele><time>2026-05-05T10:12:04Z</time></trkpt><trkpt lat="45.83570021256841" lon="14.27034583182858"><ele>454.0</ele><time>2026-05-05T10:12:05Z</time></trkpt><trkpt lat="45.83553103730587" lon="14.270328059886364"><ele>454.0</ele><time>2026-05-05T10:12:06Z</time></trkpt><trkpt lat="45.83537659081636" lon="14.270310184988734"><ele>454.0</ele><time>2026-05-05T10:12:07Z</time></trkpt><trkpt lat="45.835236195985544" lon="14.27027583053405"><ele>454.75</ele><time>2026-05-05T10:12:08Z</time></trkpt><trkpt lat="45.835132804405376" lon="14.270145168601125"><ele>455.5</ele><time>2026-05-05T10:12:09Z</time></trkpt><trkpt lat="45.83508926376656" lon="14.269978214306471"><ele>456.25</ele><time>2026-05-05T10:12:10Z</time></trkpt><trkpt lat="45.83503088612085" lon="14.269788692418919"><ele>457.0</ele><time>2026-05-05T10:12:11Z</time></trkpt><trkpt lat="45.834959160760455" lon="14.269597114675229"><ele>457.0</ele><time>2026-05-05T10:12:12Z</time></trkpt><trkpt lat="45.83487804062914" lon="14.269404216117058"><ele>457.0</ele><time>2026-05-05T10:12:13Z</time></trkpt><trkpt lat="45.83478683272933" lon="14.269220312568331"><ele>457.0</ele><time>2026-05-05T10:12:14Z</time></trkpt><trkpt lat="45.83469835437276" lon="14.269038988329834"><ele>453.0</ele><time>2026-05-05T10:12:15Z</time></trkpt><trkpt lat="45.834607709018634" lon="14.268835087674603"><ele>449.0</ele><time>2026-05-05T10:12:16Z</time></trkpt><trkpt lat="45.83448111258781" lon="14.268652545382867"><ele>445.0</ele><time>2026-05-05T10:12:17Z</time></trkpt><trkpt lat="45.83435414437231" lon="14.268458582393347"><ele>448.33333333333337</ele><time>2026-05-05T10:12:18Z</time></trkpt><trkpt lat="45.83422044884083" lon="14.268266796362571"><ele>451.66666666666663</ele><time>2026-05-05T10:12:19Z</time></trkpt><trkpt lat="45.83409299904853" lon="14.268073758996723"><ele>455.0</ele><time>2026-05-05T10:12:20Z</time></trkpt><trkpt lat="45.83399166536135" lon="14.267850933896742"><ele>455.0</ele><time>2026-05-05T10:12:21Z</time></trkpt><trkpt lat="45.83387733040511" lon="14.267650777135872"><ele>455.0</ele><time>2026-05-05T10:12:22Z</time></trkpt><trkpt lat="45.83378861963408" lon="14.267455344041773"><ele>455.0</ele><time>2026-05-05T10:12:23Z</time></trkpt><trkpt lat="45.833680370712074" lon="14.267287516648782"><ele>456.0</ele><time>2026-05-05T10:12:24Z</time></trkpt><trkpt lat="45.833555272308494" lon="14.267149908284493"><ele>457.0</ele><time>2026-05-05T10:12:25Z</time></trkpt><trkpt lat="45.8334194914199" lon="14.267036234023866"><ele>458.0</ele><time>2026-05-05T10:12:26Z</time></trkpt><trkpt lat="45.833277290814465" lon="14.266949939358224"><ele>458.0</ele><time>2026-05-05T10:12:27Z</time></trkpt><trkpt lat="45.83313470191791" lon="14.266868139821986"><ele>458.0</ele><time>2026-05-05T10:12:28Z</time></trkpt><trkpt lat="45.83298705706998" lon="14.266784783676574"><ele>458.0</ele><time>2026-05-05T10:12:29Z</time></trkpt><trkpt lat="45.8328420536583" lon="14.266725240211272"><ele>458.0</ele><time>2026-05-05T10:12:30Z</time></trkpt><trkpt lat="45.83269363263333" lon="14.266691968508713"><ele>458.0</ele><time>2026-05-05T10:12:31Z</time></trkpt><trkpt lat="45.83254429383973" lon="14.266684595615141"><ele>458.0</ele><time>2026-05-05T10:12:32Z</time></trkpt><trkpt lat="45.83239221843744" lon="14.266672095036993"><ele>460.66666666666663</ele><time>2026-05-05T10:12:33Z</time></trkpt><trkpt lat="45.83223051670948" lon="14.266660208967517"><ele>463.33333333333337</ele><time>2026-05-05T10:12:34Z</time></trkpt><trkpt lat="45.83206816861525" lon="14.266627295991944"><ele>466.0</ele><time>2026-05-05T10:12:35Z</time></trkpt><trkpt lat="45.83189645707752" lon="14.266588475971686"><ele>468.6666666666667</ele><time>2026-05-05T10:12:36Z</time></trkpt><trkpt lat="45.83172125505542" lon="14.266528496707965"><ele>471.33333333333337</ele><time>2026-05-05T10:12:37Z</time></trkpt><trkpt lat="45.83156820369035" lon="14.266391243554725"><ele>474.0</ele><time>2026-05-05T10:12:38Z</time></trkpt><trkpt lat="45.83140907812504" lon="14.266236888777712"><ele>466.33333333333337</ele><time>2026-05-05T10:12:39Z</time></trkpt><trkpt lat="45.831265395774814" lon="14.266083689482569"><ele>458.6666666666667</ele><time>2026-05-05T10:12:40Z</time></trkpt><trkpt lat="45.83113878680717" lon="14.265916967992288"><ele>451.0</ele><time>2026-05-05T10:12:41Z</time></trkpt><trkpt lat="45.83100921816629" lon="14.26574158418489"><ele>450.0</ele><time>2026-05-05T10:12:42Z</time></trkpt><trkpt lat="45.83085180759901" lon="14.2655560387495"><ele>449.0</ele><time>2026-05-05T10:12:43Z</time></trkpt><trkpt lat="45.83065921215573" lon="14.26538504843434"><ele>448.0</ele><time>2026-05-05T10:12:44Z</time></trkpt><trkpt lat="45.830441963372294" lon="14.265238433096698"><ele>448.0</ele><time>2026-05-05T10:12:45Z</time></trkpt><trkpt lat="45.830200945886254" lon="14.265117956281365"><ele>448.0</ele><time>2026-05-05T10:12:46Z</time></trkpt><trkpt lat="45.82995582450677" lon="14.265005482015908"><ele>447.0</ele><time>2026-05-05T10:12:47Z</time></trkpt><trkpt lat="45.82972105920996" lon="14.26488712677787"><ele>446.0</ele><time>2026-05-05T10:12:48Z</time></trkpt><trkpt lat="45.82950672718595" lon="14.26476531561258"><ele>446.0</ele><time>2026-05-05T10:12:49Z</time></trkpt><trkpt lat="45.82930985060432" lon="14.26466259453047"><ele>446.0</ele><time>2026-05-05T10:12:50Z</time></trkpt><trkpt lat="45.82912369296565" lon="14.264573249218317"><ele>446.0</ele><time>2026-05-05T10:12:51Z</time></trkpt><trkpt lat="45.82895594754109" lon="14.264484270535018"><ele>446.5</ele><time>2026-05-05T10:12:52Z</time></trkpt><trkpt lat="45.828809801240226" lon="14.264406333949543"><ele>447.0</ele><time>2026-05-05T10:12:53Z</time></trkpt><trkpt lat="45.82869429213821" lon="14.264332285055708"><ele>447.5</ele><time>2026-05-05T10:12:54Z</time></trkpt><trkpt lat="45.828601609950375" lon="14.26425719068018"><ele>448.0</ele><time>2026-05-05T10:12:55Z</time></trkpt><trkpt lat="45.82855219161365" lon="14.264148989141713"><ele>448.0</ele><time>2026-05-05T10:12:56Z</time></trkpt><trkpt lat="45.828564123335276" lon="14.264024580086607"><ele>447.99999999999994</ele><time>2026-05-05T10:12:57Z</time></trkpt><trkpt lat="45.82861270490758" lon="14.263925283168518"><ele>447.99999999999994</ele><time>2026-05-05T10:12:58Z</time></trkpt><trkpt lat="45.8287105154921" lon="14.263857807822282"><ele>448.0</ele><time>2026-05-05T10:12:59Z</time></trkpt><trkpt lat="45.828801713187254" lon="14.263735681306224"><ele>448.0</ele><time>2026-05-05T10:13:00Z</time></trkpt><trkpt lat="45.82890026304306" lon="14.26357883576112"><ele>447.6666666666667</ele><time>2026-05-05T10:13:01Z</time></trkpt><trkpt lat="45.82901396799722" lon="14.263405468507653"><ele>447.33333333333337</ele><time>2026-05-05T10:13:02Z</time></trkpt><trkpt lat="45.82913699172558" lon="14.263185656824858"><ele>447.0</ele><time>2026-05-05T10:13:03Z</time></trkpt><trkpt lat="45.82925670740672" lon="14.262898058624975"><ele>447.0</ele><time>2026-05-05T10:13:04Z</time></trkpt><trkpt lat="45.82937924636654" lon="14.2625833084174"><ele>447.0</ele><time>2026-05-05T10:13:05Z</time></trkpt><trkpt lat="45.82950707775713" lon="14.262267446581879"><ele>446.5</ele><time>2026-05-05T10:13:06Z</time></trkpt><trkpt lat="45.829649084171415" lon="14.261946363328544"><ele>446.0</ele><time>2026-05-05T10:13:07Z</time></trkpt><trkpt lat="45.82981418797647" lon="14.2616239753865"><ele>446.0</ele><time>2026-05-05T10:13:08Z</time></trkpt><trkpt lat="45.830015247749415" lon="14.26132118882426"><ele>446.0</ele><time>2026-05-05T10:13:09Z</time></trkpt><trkpt lat="45.83020078267929" lon="14.260987489330528"><ele>446.0</ele><time>2026-05-05T10:13:10Z</time></trkpt><trkpt lat="45.830397872211364" lon="14.260670360366689"><ele>446.0</ele><time>2026-05-05T10:13:11Z</time></trkpt><trkpt lat="45.83059456020046" lon="14.260341683885203"><ele>445.5</ele><time>2026-05-05T10:13:12Z</time></trkpt><trkpt lat="45.83079387247278" lon="14.260004551149235"><ele>445.0</ele><time>2026-05-05T10:13:13Z</time></trkpt><trkpt lat="45.830989872209656" lon="14.259673550614716"><ele>445.0</ele><time>2026-05-05T10:13:14Z</time></trkpt><trkpt lat="45.8311818951363" lon="14.259352055721841"><ele>445.0</ele><time>2026-05-05T10:13:15Z</time></trkpt><trkpt lat="45.831362595168805" lon="14.259047747711726"><ele>445.0</ele><time>2026-05-05T10:13:16Z</time></trkpt><trkpt lat="45.8315293965735" lon="14.258767276208646"><ele>445.0</ele><time>2026-05-05T10:13:17Z</time></trkpt><trkpt lat="45.83170874935554" lon="14.258539863089107"><ele>445.5</ele><time>2026-05-05T10:13:18Z</time></trkpt><trkpt lat="45.831911350902146" lon="14.258367739477562"><ele>446.0</ele><time>2026-05-05T10:13:19Z</time></trkpt><trkpt lat="45.8321304346712" lon="14.258215786554796"><ele>446.5</ele><time>2026-05-05T10:13:20Z</time></trkpt><trkpt lat="45.8323555369834" lon="14.258076918262788"><ele>447.0</ele><time>2026-05-05T10:13:21Z</time></trkpt><trkpt lat="45.832580731094055" lon="14.257954393366377"><ele>447.5</ele><time>2026-05-05T10:13:22Z</time></trkpt><trkpt lat="45.83279197584406" lon="14.257821343851768"><ele>448.0</ele><time>2026-05-05T10:13:23Z</time></trkpt><trkpt lat="45.83300341246082" lon="14.25771881666633"><ele>448.0</ele><time>2026-05-05T10:13:24Z</time></trkpt><trkpt lat="45.83319957783316" lon="14.257629971939153"><ele>448.0</ele><time>2026-05-05T10:13:25Z</time></trkpt><trkpt lat="45.83338623692327" lon="14.257571061112813"><ele>448.0</ele><time>2026-05-05T10:13:26Z</time></trkpt><trkpt lat="45.83357123553638" lon="14.257568346671674"><ele>449.6666666666667</ele><time>2026-05-05T10:13:27Z</time></trkpt><trkpt lat="45.83375240826351" lon="14.257592741620574"><ele>451.33333333333337</ele><time>2026-05-05T10:13:28Z</time></trkpt><trkpt lat="45.83393491714796" lon="14.257641523817915"><ele>453.0</ele><time>2026-05-05T10:13:29Z</time></trkpt><trkpt lat="45.834117179075506" lon="14.257717111775124"><ele>453.0</ele><time>2026-05-05T10:13:30Z</time></trkpt><trkpt lat="45.834303093952165" lon="14.257782929292134"><ele>453.0</ele><time>2026-05-05T10:13:31Z</time></trkpt><trkpt lat="45.83448230114433" lon="14.257864944877152"><ele>453.0</ele><time>2026-05-05T10:13:32Z</time></trkpt><trkpt lat="45.83466026867639" lon="14.257932997508444"><ele>453.0</ele><time>2026-05-05T10:13:33Z</time></trkpt><trkpt lat="45.8348393166835" lon="14.257973344516948"><ele>453.0</ele><time>2026-05-05T10:13:34Z</time></trkpt><trkpt lat="45.83501822968374" lon="14.257963595318927"><ele>453.0</ele><time>2026-05-05T10:13:35Z</time></trkpt><trkpt lat="45.8351929858463" lon="14.257901274375358"><ele>452.33333333333337</ele><time>2026-05-05T10:13:36Z</time></trkpt><trkpt lat="45.835363592014524" lon="14.257796455783643"><ele>451.6666666666667</ele><time>2026-05-05T10:13:37Z</time></trkpt><trkpt lat="45.83553347509121" lon="14.257669810726552"><ele>451.0</ele><time>2026-05-05T10:13:38Z</time></trkpt><trkpt lat="45.83570187972971" lon="14.257529147531404"><ele>451.0</ele><time>2026-05-05T10:13:39Z</time></trkpt><trkpt lat="45.835859796262056" lon="14.257358227252821"><ele>451.0</ele><time>2026-05-05T10:13:40Z</time></trkpt><trkpt lat="45.83601952980723" lon="14.257161897490661"><ele>451.0</ele><time>2026-05-05T10:13:41Z</time></trkpt><trkpt lat="45.83618458800457" lon="14.256977289856847"><ele>451.33333333333337</ele><time>2026-05-05T10:13:42Z</time></trkpt><trkpt lat="45.83636619376456" lon="14.25683919051132"><ele>451.66666666666663</ele><time>2026-05-05T10:13:43Z</time></trkpt><trkpt lat="45.83655622346281" lon="14.256699038808767"><ele>452.0</ele><time>2026-05-05T10:13:44Z</time></trkpt><trkpt lat="45.83674914806914" lon="14.256566103479377"><ele>452.0</ele><time>2026-05-05T10:13:45Z</time></trkpt><trkpt lat="45.83695083228934" lon="14.25647922606473"><ele>452.0</ele><time>2026-05-05T10:13:46Z</time></trkpt><trkpt lat="45.83713095646787" lon="14.256357359415109"><ele>452.0</ele><time>2026-05-05T10:13:47Z</time></trkpt><trkpt lat="45.83738230087879" lon="14.256482737996047"><ele>452.0</ele><time>2026-05-05T10:13:48Z</time></trkpt><trkpt lat="45.83757367518448" lon="14.256473667249915"><ele>452.0</ele><time>2026-05-05T10:13:49Z</time></trkpt><trkpt lat="45.837744596975966" lon="14.256460234332534"><ele>452.0</ele><time>2026-05-05T10:13:50Z</time></trkpt><trkpt lat="45.83789464626005" lon="14.256417795212608"><ele>452.25</ele><time>2026-05-05T10:13:51Z</time></trkpt><trkpt lat="45.838017926267696" lon="14.256323129856616"><ele>452.5</ele><time>2026-05-05T10:13:52Z</time></trkpt><trkpt lat="45.83810993465512" lon="14.25618164430691"><ele>452.75</ele><time>2026-05-05T10:13:53Z</time></trkpt><trkpt lat="45.83816883342234" lon="14.256007358876957"><ele>453.0</ele><time>2026-05-05T10:13:54Z</time></trkpt><trkpt lat="45.838190076863356" lon="14.255816208780042"><ele>454.0</ele><time>2026-05-05T10:13:55Z</time></trkpt><trkpt lat="45.83818765902868" lon="14.255620091548836"><ele>455.0</ele><time>2026-05-05T10:13:56Z</time></trkpt><trkpt lat="45.838158517570335" lon="14.255429003618593"><ele>456.0</ele><time>2026-05-05T10:13:57Z</time></trkpt><trkpt lat="45.83812671354198" lon="14.255256781160016"><ele>457.0</ele><time>2026-05-05T10:13:58Z</time></trkpt><trkpt lat="45.83810971243334" lon="14.255114918217707"><ele>457.0</ele><time>2026-05-05T10:13:59Z</time></trkpt><trkpt lat="45.83811287547513" lon="14.254984864726802"><ele>457.00000000000006</ele><time>2026-05-05T10:14:00Z</time></trkpt><trkpt lat="45.83815074368161" lon="14.254868612203875"><ele>457.00000000000006</ele><time>2026-05-05T10:14:01Z</time></trkpt><trkpt lat="45.83823291249274" lon="14.254777509515131"><ele>457.0</ele><time>2026-05-05T10:14:02Z</time></trkpt><trkpt lat="45.838347248002" lon="14.254708853381459"><ele>457.0</ele><time>2026-05-05T10:14:03Z</time></trkpt><trkpt lat="45.838488437479434" lon="14.254658361605353"><ele>457.6666666666667</ele><time>2026-05-05T10:14:04Z</time></trkpt><trkpt lat="45.838658770208546" lon="14.254623502084725"><ele>458.33333333333337</ele><time>2026-05-05T10:14:05Z</time></trkpt><trkpt lat="45.83886320938177" lon="14.25458750805946"><ele>459.0</ele><time>2026-05-05T10:14:06Z</time></trkpt><trkpt lat="45.839090786150045" lon="14.254537151870366"><ele>460.0</ele><time>2026-05-05T10:14:07Z</time></trkpt><trkpt lat="45.83933812314921" lon="14.254478706156444"><ele>461.0</ele><time>2026-05-05T10:14:08Z</time></trkpt><trkpt lat="45.83960063490279" lon="14.254414812141512"><ele>461.0</ele><time>2026-05-05T10:14:09Z</time></trkpt><trkpt lat="45.83986673851228" lon="14.254357425553911"><ele>461.0</ele><time>2026-05-05T10:14:10Z</time></trkpt><trkpt lat="45.84012961910898" lon="14.25429930179239"><ele>459.5</ele><time>2026-05-05T10:14:11Z</time></trkpt><trkpt lat="45.840386328200914" lon="14.254240248556169"><ele>458.0</ele><time>2026-05-05T10:14:12Z</time></trkpt><trkpt lat="45.840649591479476" lon="14.254179668472142"><ele>458.0</ele><time>2026-05-05T10:14:13Z</time></trkpt><trkpt lat="45.84091054604229" lon="14.25411829348325"><ele>458.0</ele><time>2026-05-05T10:14:14Z</time></trkpt><trkpt lat="45.841174650677864" lon="14.254059417824848"><ele>457.0</ele><time>2026-05-05T10:14:15Z</time></trkpt><trkpt lat="45.8414372095602" lon="14.254000816246553"><ele>456.0</ele><time>2026-05-05T10:14:16Z</time></trkpt><trkpt lat="45.8416804129632" lon="14.253946800267762"><ele>458.0</ele><time>2026-05-05T10:14:17Z</time></trkpt><trkpt lat="45.841923244237194" lon="14.253866097756672"><ele>460.0</ele><time>2026-05-05T10:14:18Z</time></trkpt><trkpt lat="45.842160730322725" lon="14.253728948781518"><ele>460.0</ele><time>2026-05-05T10:14:19Z</time></trkpt><trkpt lat="45.84238545394351" lon="14.253533686455393"><ele>460.0</ele><time>2026-05-05T10:14:20Z</time></trkpt><trkpt lat="45.84259178246337" lon="14.253290854292814"><ele>460.5</ele><time>2026-05-05T10:14:21Z</time></trkpt><trkpt lat="45.84278746095894" lon="14.2530257613624"><ele>461.0</ele><time>2026-05-05T10:14:22Z</time></trkpt><trkpt lat="45.84298141380722" lon="14.252763111341995"><ele>461.0</ele><time>2026-05-05T10:14:23Z</time></trkpt><trkpt lat="45.84317790653796" lon="14.252512467929401"><ele>461.0</ele><time>2026-05-05T10:14:24Z</time></trkpt><trkpt lat="45.84337829823919" lon="14.252269278433939"><ele>458.5</ele><time>2026-05-05T10:14:25Z</time></trkpt><trkpt lat="45.84357756118626" lon="14.252028998357444"><ele>456.0</ele><time>2026-05-05T10:14:26Z</time></trkpt><trkpt lat="45.84376559177155" lon="14.251794314718804"><ele>456.0</ele><time>2026-05-05T10:14:27Z</time></trkpt><trkpt lat="45.843949114859214" lon="14.25156480144842"><ele>456.0</ele><time>2026-05-05T10:14:28Z</time></trkpt><trkpt lat="45.84412953698107" lon="14.25134956347064"><ele>457.0</ele><time>2026-05-05T10:14:29Z</time></trkpt><trkpt lat="45.844309692802476" lon="14.251152640206316"><ele>458.0</ele><time>2026-05-05T10:14:30Z</time></trkpt><trkpt lat="45.8445001903792" lon="14.250983066323887"><ele>458.0</ele><time>2026-05-05T10:14:31Z</time></trkpt><trkpt lat="45.84470030137375" lon="14.250849760745503"><ele>458.0</ele><time>2026-05-05T10:14:32Z</time></trkpt><trkpt lat="45.84490351418188" lon="14.25073232145948"><ele>458.0</ele><time>2026-05-05T10:14:33Z</time></trkpt><trkpt lat="45.845103953683804" lon="14.250595409924744"><ele>459.0</ele><time>2026-05-05T10:14:34Z</time></trkpt><trkpt lat="45.84529862822003" lon="14.250429460771471"><ele>460.0</ele><time>2026-05-05T10:14:35Z</time></trkpt><trkpt lat="45.84548624214764" lon="14.250241804883466"><ele>460.0</ele><time>2026-05-05T10:14:36Z</time></trkpt><trkpt lat="45.845672228200556" lon="14.250054399790386"><ele>460.0</ele><time>2026-05-05T10:14:37Z</time></trkpt><trkpt lat="45.845864828165176" lon="14.249875279151853"><ele>465.0</ele><time>2026-05-05T10:14:38Z</time></trkpt><trkpt lat="45.846071040748136" lon="14.249723900392212"><ele>470.0</ele><time>2026-05-05T10:14:39Z</time></trkpt><trkpt lat="45.84629593161027" lon="14.24961310161083"><ele>470.0</ele><time>2026-05-05T10:14:40Z</time></trkpt><trkpt lat="45.846529986047315" lon="14.249542319536525"><ele>470.0</ele><time>2026-05-05T10:14:41Z</time></trkpt><trkpt lat="45.846765654678364" lon="14.24949182328034"><ele>467.0</ele><time>2026-05-05T10:14:42Z</time></trkpt><trkpt lat="45.84699219372597" lon="14.249431758281679"><ele>464.0</ele><time>2026-05-05T10:14:43Z</time></trkpt><trkpt lat="45.847210059660654" lon="14.249338493926526"><ele>464.0</ele><time>2026-05-05T10:14:44Z</time></trkpt><trkpt lat="45.84741546332995" lon="14.249212132073518"><ele>464.0</ele><time>2026-05-05T10:14:45Z</time></trkpt><trkpt lat="45.847610609319865" lon="14.249049211311421"><ele>464.0</ele><time>2026-05-05T10:14:46Z</time></trkpt><trkpt lat="45.84779113849695" lon="14.248852070121808"><ele>465.0</ele><time>2026-05-05T10:14:47Z</time></trkpt><trkpt lat="45.847961722671634" lon="14.248620937304775"><ele>466.0</ele><time>2026-05-05T10:14:48Z</time></trkpt><trkpt lat="45.848131046549994" lon="14.248359934940463"><ele>464.0</ele><time>2026-05-05T10:14:49Z</time></trkpt><trkpt lat="45.848297539525944" lon="14.248088169219626"><ele>462.0</ele><time>2026-05-05T10:14:50Z</time></trkpt><trkpt lat="45.84847705330296" lon="14.247844138171853"><ele>462.0</ele><time>2026-05-05T10:14:51Z</time></trkpt><trkpt lat="45.84867352421491" lon="14.247634775306796"><ele>462.0</ele><time>2026-05-05T10:14:52Z</time></trkpt><trkpt lat="45.848870315871345" lon="14.247433870571903"><ele>462.0</ele><time>2026-05-05T10:14:53Z</time></trkpt><trkpt lat="45.84907604522727" lon="14.247264657168737"><ele>462.0</ele><time>2026-05-05T10:14:54Z</time></trkpt><trkpt lat="45.84930473475453" lon="14.247118363601821"><ele>462.0</ele><time>2026-05-05T10:14:55Z</time></trkpt><trkpt lat="45.84953316829222" lon="14.247003219222147"><ele>462.0</ele><time>2026-05-05T10:14:56Z</time></trkpt><trkpt lat="45.84973437308678" lon="14.24687883541985"><ele>462.0</ele><time>2026-05-05T10:14:57Z</time></trkpt><trkpt lat="45.84990192016601" lon="14.246757523065355"><ele>462.0</ele><time>2026-05-05T10:14:58Z</time></trkpt><trkpt lat="45.85004712336359" lon="14.246579704198544"><ele>462.0</ele><time>2026-05-05T10:14:59Z</time></trkpt><trkpt lat="45.850170816259734" lon="14.246350781993206"><ele>459.66666666666663</ele><time>2026-05-05T10:15:00Z</time></trkpt><trkpt lat="45.85027470964391" lon="14.24608947469789"><ele>457.3333333333333</ele><time>2026-05-05T10:15:01Z</time></trkpt><trkpt lat="45.850370556941186" lon="14.245815898593419"><ele>455.0</ele><time>2026-05-05T10:15:02Z</time></trkpt><trkpt lat="45.85049028776181" lon="14.24553556098908"><ele>464.5</ele><time>2026-05-05T10:15:03Z</time></trkpt><trkpt lat="45.85065969077853" lon="14.245272971502413"><ele>474.0</ele><time>2026-05-05T10:15:04Z</time></trkpt><trkpt lat="45.85081581019358" lon="14.244973971902187"><ele>473.5</ele><time>2026-05-05T10:15:05Z</time></trkpt><trkpt lat="45.85098838424765" lon="14.244708806186946"><ele>473.0</ele><time>2026-05-05T10:15:06Z</time></trkpt><trkpt lat="45.851168105193885" lon="14.24445879789548"><ele>473.0</ele><time>2026-05-05T10:15:07Z</time></trkpt><trkpt lat="45.85137722986159" lon="14.244265050001111"><ele>473.0</ele><time>2026-05-05T10:15:08Z</time></trkpt><trkpt lat="45.85159502656779" lon="14.244056138469626"><ele>467.5</ele><time>2026-05-05T10:15:09Z</time></trkpt><trkpt lat="45.85178987565236" lon="14.243829866230572"><ele>462.0</ele><time>2026-05-05T10:15:10Z</time></trkpt><trkpt lat="45.85199427435615" lon="14.243614364718768"><ele>462.0</ele><time>2026-05-05T10:15:11Z</time></trkpt><trkpt lat="45.8521913222054" lon="14.243393532806834"><ele>462.0</ele><time>2026-05-05T10:15:12Z</time></trkpt><trkpt lat="45.85237623972618" lon="14.24316073083597"><ele>457.5</ele><time>2026-05-05T10:15:13Z</time></trkpt><trkpt lat="45.85255423581244" lon="14.242917633503428"><ele>453.0</ele><time>2026-05-05T10:15:14Z</time></trkpt><trkpt lat="45.852716143526244" lon="14.24264057236832"><ele>453.0</ele><time>2026-05-05T10:15:15Z</time></trkpt><trkpt lat="45.85285356693737" lon="14.242347077320956"><ele>453.0</ele><time>2026-05-05T10:15:16Z</time></trkpt><trkpt lat="45.85298910769403" lon="14.242042931329365"><ele>458.0</ele><time>2026-05-05T10:15:17Z</time></trkpt><trkpt lat="45.85313462054255" lon="14.241737700509567"><ele>463.0</ele><time>2026-05-05T10:15:18Z</time></trkpt><trkpt lat="45.85328293406276" lon="14.241427062779286"><ele>459.0</ele><time>2026-05-05T10:15:19Z</time></trkpt><trkpt lat="45.85343086559527" lon="14.241120267850087"><ele>455.0</ele><time>2026-05-05T10:15:20Z</time></trkpt><trkpt lat="45.8535755368199" lon="14.240811002971617"><ele>463.0</ele><time>2026-05-05T10:15:21Z</time></trkpt><trkpt lat="45.85371701001929" lon="14.240524033861274"><ele>471.0</ele><time>2026-05-05T10:15:22Z</time></trkpt><trkpt lat="45.853852775766086" lon="14.240251769020148"><ele>471.0</ele><time>2026-05-05T10:15:23Z</time></trkpt><trkpt lat="45.85399631523985" lon="14.239996213101135"><ele>471.0</ele><time>2026-05-05T10:15:24Z</time></trkpt><trkpt lat="45.85416662145472" lon="14.239765585881045"><ele>473.5</ele><time>2026-05-05T10:15:25Z</time></trkpt><trkpt lat="45.854361188322756" lon="14.239574301117068"><ele>476.0</ele><time>2026-05-05T10:15:26Z</time></trkpt><trkpt lat="45.85456957275199" lon="14.239399085487905"><ele>476.0</ele><time>2026-05-05T10:15:27Z</time></trkpt><trkpt lat="45.854794561434936" lon="14.239225787868502"><ele>476.0</ele><time>2026-05-05T10:15:28Z</time></trkpt><trkpt lat="45.85500949506168" lon="14.239043142524299"><ele>477.5</ele><time>2026-05-05T10:15:29Z</time></trkpt><trkpt lat="45.855218635431726" lon="14.238858505391494"><ele>479.0</ele><time>2026-05-05T10:15:30Z</time></trkpt><trkpt lat="45.855429800009404" lon="14.23867531858307"><ele>479.0</ele><time>2026-05-05T10:15:31Z</time></trkpt><trkpt lat="45.85563850915364" lon="14.23850070659915"><ele>479.0</ele><time>2026-05-05T10:15:32Z</time></trkpt><trkpt lat="45.85584364943213" lon="14.238322627489886"><ele>477.0</ele><time>2026-05-05T10:15:33Z</time></trkpt><trkpt lat="45.856042841173284" lon="14.238154721137546"><ele>475.0</ele><time>2026-05-05T10:15:34Z</time></trkpt><trkpt lat="45.856229076678865" lon="14.237988270717395"><ele>475.0</ele><time>2026-05-05T10:15:35Z</time></trkpt><trkpt lat="45.85640107189816" lon="14.237808679664424"><ele>475.0</ele><time>2026-05-05T10:15:36Z</time></trkpt><trkpt lat="45.85655644154277" lon="14.23759354761017"><ele>475.0</ele><time>2026-05-05T10:15:37Z</time></trkpt><trkpt lat="45.85668581994922" lon="14.237330673576613"><ele>465.5</ele><time>2026-05-05T10:15:38Z</time></trkpt><trkpt lat="45.85679667349755" lon="14.237036053424"><ele>456.0</ele><time>2026-05-05T10:15:39Z</time></trkpt><trkpt lat="45.856906872692015" lon="14.236743369077232"><ele>466.0</ele><time>2026-05-05T10:15:40Z</time></trkpt><trkpt lat="45.85704568511168" lon="14.23646723851732"><ele>476.0</ele><time>2026-05-05T10:15:41Z</time></trkpt><trkpt lat="45.85721129473411" lon="14.236195733647227"><ele>476.0</ele><time>2026-05-05T10:15:42Z</time></trkpt><trkpt lat="45.85740191641415" lon="14.23592722821381"><ele>476.0</ele><time>2026-05-05T10:15:43Z</time></trkpt><trkpt lat="45.85758618944088" lon="14.235647092033913"><ele>466.5</ele><time>2026-05-05T10:15:44Z</time></trkpt><trkpt lat="45.85775216880356" lon="14.235366700985368"><ele>457.0</ele><time>2026-05-05T10:15:45Z</time></trkpt><trkpt lat="45.857886719957484" lon="14.23506523834066"><ele>468.0</ele><time>2026-05-05T10:15:46Z</time></trkpt><trkpt lat="45.858003914998946" lon="14.234757991187502"><ele>479.0</ele><time>2026-05-05T10:15:47Z</time></trkpt><trkpt lat="45.85810132411595" lon="14.234455028807057"><ele>479.0</ele><time>2026-05-05T10:15:48Z</time></trkpt><trkpt lat="45.85820226757784" lon="14.234157316495034"><ele>479.0</ele><time>2026-05-05T10:15:49Z</time></trkpt><trkpt lat="45.858348677916865" lon="14.23389555022133"><ele>469.5</ele><time>2026-05-05T10:15:50Z</time></trkpt><trkpt lat="45.85849909091761" lon="14.233638781517339"><ele>460.0</ele><time>2026-05-05T10:15:51Z</time></trkpt><trkpt lat="45.85864119915963" lon="14.23337184120876"><ele>469.5</ele><time>2026-05-05T10:15:52Z</time></trkpt><trkpt lat="45.85879373713714" lon="14.233108552329512"><ele>479.0</ele><time>2026-05-05T10:15:53Z</time></trkpt><trkpt lat="45.858962553616784" lon="14.232833993715605"><ele>479.0</ele><time>2026-05-05T10:15:54Z</time></trkpt><trkpt lat="45.85912558086297" lon="14.232542430365834"><ele>479.0</ele><time>2026-05-05T10:15:55Z</time></trkpt><trkpt lat="45.85924067033462" lon="14.232190453849265"><ele>470.0</ele><time>2026-05-05T10:15:56Z</time></trkpt><trkpt lat="45.85939215001296" lon="14.231899371582179"><ele>461.0</ele><time>2026-05-05T10:15:57Z</time></trkpt><trkpt lat="45.859532510605106" lon="14.231612258773243"><ele>471.0</ele><time>2026-05-05T10:15:58Z</time></trkpt><trkpt lat="45.859674818388896" lon="14.231329839691417"><ele>481.0</ele><time>2026-05-05T10:15:59Z</time></trkpt><trkpt lat="45.85982596153454" lon="14.231053339740637"><ele>481.0</ele><time>2026-05-05T10:16:00Z</time></trkpt><trkpt lat="45.85998915354486" lon="14.230782136091085"><ele>481.0</ele><time>2026-05-05T10:16:01Z</time></trkpt><trkpt lat="45.860154225474545" lon="14.230527488576138"><ele>472.5</ele><time>2026-05-05T10:16:02Z</time></trkpt><trkpt lat="45.86030429629211" lon="14.230261130853217"><ele>464.0</ele><time>2026-05-05T10:16:03Z</time></trkpt><trkpt lat="45.86043616094521" lon="14.229980830720878"><ele>479.0</ele><time>2026-05-05T10:16:04Z</time></trkpt><trkpt lat="45.860564036773276" lon="14.229692717976254"><ele>494.0</ele><time>2026-05-05T10:16:05Z</time></trkpt><trkpt lat="45.86072039083539" lon="14.229439219087014"><ele>494.0</ele><time>2026-05-05T10:16:06Z</time></trkpt><trkpt lat="45.860916751629354" lon="14.229241597300813"><ele>494.0</ele><time>2026-05-05T10:16:07Z</time></trkpt><trkpt lat="45.861130420063354" lon="14.229091464637555"><ele>493.3333333333333</ele><time>2026-05-05T10:16:08Z</time></trkpt><trkpt lat="45.861323942367" lon="14.22895549977097"><ele>492.66666666666663</ele><time>2026-05-05T10:16:09Z</time></trkpt><trkpt lat="45.86149365026181" lon="14.228817962785492"><ele>492.0</ele><time>2026-05-05T10:16:10Z</time></trkpt><trkpt lat="45.86164925576572" lon="14.228658035049746"><ele>483.0</ele><time>2026-05-05T10:16:11Z</time></trkpt><trkpt lat="45.8617868395479" lon="14.228469437744941"><ele>474.0</ele><time>2026-05-05T10:16:12Z</time></trkpt><trkpt lat="45.861909748979194" lon="14.228246598285365"><ele>465.0</ele><time>2026-05-05T10:16:13Z</time></trkpt><trkpt lat="45.86201583444873" lon="14.227988891982692"><ele>465.0</ele><time>2026-05-05T10:16:14Z</time></trkpt><trkpt lat="45.862105480921954" lon="14.22770346934077"><ele>465.0</ele><time>2026-05-05T10:16:15Z</time></trkpt><trkpt lat="45.86217820152696" lon="14.227402827751238"><ele>465.0</ele><time>2026-05-05T10:16:16Z</time></trkpt><trkpt lat="45.86226462649783" lon="14.22710922506458"><ele>466.66666666666663</ele><time>2026-05-05T10:16:17Z</time></trkpt><trkpt lat="45.862374623673844" lon="14.226835488525362"><ele>468.3333333333333</ele><time>2026-05-05T10:16:18Z</time></trkpt><trkpt lat="45.86249859235029" lon="14.226568639475644"><ele>470.0</ele><time>2026-05-05T10:16:19Z</time></trkpt><trkpt lat="45.86263183733257" lon="14.226314997327632"><ele>470.0</ele><time>2026-05-05T10:16:20Z</time></trkpt><trkpt lat="45.86276726829524" lon="14.226078027213887"><ele>470.0</ele><time>2026-05-05T10:16:21Z</time></trkpt><trkpt lat="45.86291553919939" lon="14.225863506735694"><ele>470.0</ele><time>2026-05-05T10:16:22Z</time></trkpt><trkpt lat="45.86307002423312" lon="14.225647453895782"><ele>484.0</ele><time>2026-05-05T10:16:23Z</time></trkpt><trkpt lat="45.863227463775736" lon="14.225426525934735"><ele>498.0</ele><time>2026-05-05T10:16:24Z</time></trkpt><trkpt lat="45.86339201522454" lon="14.225185002202732"><ele>491.5</ele><time>2026-05-05T10:16:25Z</time></trkpt><trkpt lat="45.863560944642316" lon="14.224938221713636"><ele>485.0</ele><time>2026-05-05T10:16:26Z</time></trkpt><trkpt lat="45.86373625224513" lon="14.224705350572084"><ele>485.0</ele><time>2026-05-05T10:16:27Z</time></trkpt><trkpt lat="45.86392374578564" lon="14.224509715908464"><ele>485.0</ele><time>2026-05-05T10:16:28Z</time></trkpt><trkpt lat="45.864122586346035" lon="14.224338254793995"><ele>479.5</ele><time>2026-05-05T10:16:29Z</time></trkpt><trkpt lat="45.86431861394858" lon="14.224160046681137"><ele>474.0</ele><time>2026-05-05T10:16:30Z</time></trkpt><trkpt lat="45.864496284037" lon="14.223945475067909"><ele>474.0</ele><time>2026-05-05T10:16:31Z</time></trkpt><trkpt lat="45.86465537586111" lon="14.22368567616658"><ele>474.0</ele><time>2026-05-05T10:16:32Z</time></trkpt><trkpt lat="45.86479570911438" lon="14.223395677759587"><ele>470.5</ele><time>2026-05-05T10:16:33Z</time></trkpt><trkpt lat="45.864947362839004" lon="14.22310553583695"><ele>467.0</ele><time>2026-05-05T10:16:34Z</time></trkpt><trkpt lat="45.86511451551038" lon="14.222833131837868"><ele>467.0</ele><time>2026-05-05T10:16:35Z</time></trkpt><trkpt lat="45.86529671800759" lon="14.222590735602175"><ele>467.0</ele><time>2026-05-05T10:16:36Z</time></trkpt><trkpt lat="45.86549085826524" lon="14.222370950645113"><ele>480.0</ele><time>2026-05-05T10:16:37Z</time></trkpt><trkpt lat="45.865684564984605" lon="14.222175948236995"><ele>493.0</ele><time>2026-05-05T10:16:38Z</time></trkpt><trkpt lat="45.865872171235374" lon="14.221969545018304"><ele>476.0</ele><time>2026-05-05T10:16:39Z</time></trkpt><trkpt lat="45.86604252490222" lon="14.221750008024513"><ele>459.0</ele><time>2026-05-05T10:16:40Z</time></trkpt><trkpt lat="45.86618914267407" lon="14.221502474817624"><ele>468.0</ele><time>2026-05-05T10:16:41Z</time></trkpt><trkpt lat="45.86630919266861" lon="14.221257263841125"><ele>477.0</ele><time>2026-05-05T10:16:42Z</time></trkpt><trkpt lat="45.86642531862502" lon="14.221026829392795"><ele>486.0</ele><time>2026-05-05T10:16:43Z</time></trkpt><trkpt lat="45.86655907704728" lon="14.220825136446535"><ele>486.0</ele><time>2026-05-05T10:16:44Z</time></trkpt><trkpt lat="45.86672587866339" lon="14.220669172362586"><ele>486.0</ele><time>2026-05-05T10:16:45Z</time></trkpt><trkpt lat="45.866918906925086" lon="14.220562289125562"><ele>486.0</ele><time>2026-05-05T10:16:46Z</time></trkpt><trkpt lat="45.86711585255946" lon="14.220485748164823"><ele>486.33333333333337</ele><time>2026-05-05T10:16:47Z</time></trkpt><trkpt lat="45.86730822388369" lon="14.220411970782308"><ele>486.6666666666667</ele><time>2026-05-05T10:16:48Z</time></trkpt><trkpt lat="45.867487095882986" lon="14.220303760841068"><ele>487.0</ele><time>2026-05-05T10:16:49Z</time></trkpt><trkpt lat="45.867649339555996" lon="14.220135032205"><ele>485.33333333333337</ele><time>2026-05-05T10:16:50Z</time></trkpt><trkpt lat="45.867784466296115" lon="14.219917079054648"><ele>483.66666666666663</ele><time>2026-05-05T10:16:51Z</time></trkpt><trkpt lat="45.867895629624485" lon="14.219668731537457"><ele>482.0</ele><time>2026-05-05T10:16:52Z</time></trkpt><trkpt lat="45.86801603496711" lon="14.219427420808147"><ele>482.0</ele><time>2026-05-05T10:16:53Z</time></trkpt><trkpt lat="45.86815851927094" lon="14.219210339531323"><ele>482.0</ele><time>2026-05-05T10:16:54Z</time></trkpt><trkpt lat="45.868324218355205" lon="14.219012111681954"><ele>482.0</ele><time>2026-05-05T10:16:55Z</time></trkpt><trkpt lat="45.86850125911305" lon="14.218843827732966"><ele>477.66666666666663</ele><time>2026-05-05T10:16:56Z</time></trkpt><trkpt lat="45.86866505185869" lon="14.218686946183452"><ele>473.33333333333337</ele><time>2026-05-05T10:16:57Z</time></trkpt><trkpt lat="45.86881364325128" lon="14.218503721680841"><ele>469.0</ele><time>2026-05-05T10:16:58Z</time></trkpt><trkpt lat="45.86895462996118" lon="14.218284471094359"><ele>474.33333333333337</ele><time>2026-05-05T10:16:59Z</time></trkpt><trkpt lat="45.869070816027026" lon="14.218024756963201"><ele>479.66666666666663</ele><time>2026-05-05T10:17:00Z</time></trkpt><trkpt lat="45.869160718071285" lon="14.2177462776154"><ele>485.0</ele><time>2026-05-05T10:17:01Z</time></trkpt><trkpt lat="45.86922589574771" lon="14.217460294853428"><ele>480.3333333333333</ele><time>2026-05-05T10:17:02Z</time></trkpt><trkpt lat="45.86931623127744" lon="14.217218503185316"><ele>475.66666666666663</ele><time>2026-05-05T10:17:03Z</time></trkpt><trkpt lat="45.86942979946332" lon="14.217009195159175"><ele>471.0</ele><time>2026-05-05T10:17:04Z</time></trkpt><trkpt lat="45.86956690748946" lon="14.216841458213306"><ele>471.0</ele><time>2026-05-05T10:17:05Z</time></trkpt><trkpt lat="45.86971978751143" lon="14.216707181903253"><ele>471.0</ele><time>2026-05-05T10:17:06Z</time></trkpt><trkpt lat="45.869887562130785" lon="14.216592131106001"><ele>471.0</ele><time>2026-05-05T10:17:07Z</time></trkpt><trkpt lat="45.870058889147884" lon="14.216477328989763"><ele>472.0</ele><time>2026-05-05T10:17:08Z</time></trkpt><trkpt lat="45.87022253249495" lon="14.216350308788902"><ele>473.0</ele><time>2026-05-05T10:17:09Z</time></trkpt><trkpt lat="45.87038886290938" lon="14.216230063492135"><ele>474.0</ele><time>2026-05-05T10:17:10Z</time></trkpt><trkpt lat="45.87054717925717" lon="14.216092977047287"><ele>474.0</ele><time>2026-05-05T10:17:11Z</time></trkpt><trkpt lat="45.87069273105328" lon="14.215919823607305"><ele>474.0</ele><time>2026-05-05T10:17:12Z</time></trkpt><trkpt lat="45.870820775138256" lon="14.21571238958087"><ele>474.0</ele><time>2026-05-05T10:17:13Z</time></trkpt><trkpt lat="45.870937943939914" lon="14.215478223495218"><ele>475.0</ele><time>2026-05-05T10:17:14Z</time></trkpt><trkpt lat="45.87105550484124" lon="14.215239329840779"><ele>476.0</ele><time>2026-05-05T10:17:15Z</time></trkpt><trkpt lat="45.871176514500256" lon="14.215002150688994"><ele>477.0</ele><time>2026-05-05T10:17:16Z</time></trkpt><trkpt lat="45.87130346298653" lon="14.214753251339607"><ele>477.0</ele><time>2026-05-05T10:17:17Z</time></trkpt><trkpt lat="45.87142556685659" lon="14.214513054480893"><ele>477.0</ele><time>2026-05-05T10:17:18Z</time></trkpt><trkpt lat="45.87155203398748" lon="14.21427588939921"><ele>477.0</ele><time>2026-05-05T10:17:19Z</time></trkpt><trkpt lat="45.87167676539841" lon="14.214045828829427"><ele>476.33333333333337</ele><time>2026-05-05T10:17:20Z</time></trkpt><trkpt lat="45.87179618757117" lon="14.213844935554807"><ele>475.6666666666667</ele><time>2026-05-05T10:17:21Z</time></trkpt><trkpt lat="45.87192932206618" lon="14.213668519769564"><ele>475.0</ele><time>2026-05-05T10:17:22Z</time></trkpt><trkpt lat="45.87207436583784" lon="14.213507806685953"><ele>475.0</ele><time>2026-05-05T10:17:23Z</time></trkpt><trkpt lat="45.87222674572168" lon="14.213386171436978"><ele>475.0</ele><time>2026-05-05T10:17:24Z</time></trkpt><trkpt lat="45.87238855670057" lon="14.213287284621787"><ele>475.0</ele><time>2026-05-05T10:17:25Z</time></trkpt><trkpt lat="45.87255628117925" lon="14.213223295727685"><ele>476.0</ele><time>2026-05-05T10:17:26Z</time></trkpt><trkpt lat="45.87273300947235" lon="14.213179882733916"><ele>477.0</ele><time>2026-05-05T10:17:27Z</time></trkpt><trkpt lat="45.87291777083318" lon="14.213146800003752"><ele>478.0</ele><time>2026-05-05T10:17:28Z</time></trkpt><trkpt lat="45.87311315270448" lon="14.213107042955867"><ele>478.0</ele><time>2026-05-05T10:17:29Z</time></trkpt><trkpt lat="45.87330951746122" lon="14.213053797400775"><ele>478.0</ele><time>2026-05-05T10:17:30Z</time></trkpt><trkpt lat="45.87350644056951" lon="14.212988947205453"><ele>478.0</ele><time>2026-05-05T10:17:31Z</time></trkpt><trkpt lat="45.87370652422029" lon="14.212908949486968"><ele>478.33333333333337</ele><time>2026-05-05T10:17:32Z</time></trkpt><trkpt lat="45.87391023900237" lon="14.212820782866814"><ele>478.66666666666663</ele><time>2026-05-05T10:17:33Z</time></trkpt><trkpt lat="45.87411618518764" lon="14.212723322977553"><ele>479.0</ele><time>2026-05-05T10:17:34Z</time></trkpt><trkpt lat="45.87432258141014" lon="14.212614430084754"><ele>479.3333333333333</ele><time>2026-05-05T10:17:35Z</time></trkpt><trkpt lat="45.8745292087853" lon="14.21249203984919"><ele>479.66666666666663</ele><time>2026-05-05T10:17:36Z</time></trkpt><trkpt lat="45.874728454103696" lon="14.21236045573086"><ele>480.0</ele><time>2026-05-05T10:17:37Z</time></trkpt><trkpt lat="45.87492376952599" lon="14.21221391345498"><ele>480.33333333333337</ele><time>2026-05-05T10:17:38Z</time></trkpt><trkpt lat="45.87511702269163" lon="14.212061171356062"><ele>480.6666666666667</ele><time>2026-05-05T10:17:39Z</time></trkpt><trkpt lat="45.875301255339075" lon="14.211889533528428"><ele>481.0</ele><time>2026-05-05T10:17:40Z</time></trkpt><trkpt lat="45.87548309462651" lon="14.211710343479435"><ele>481.0</ele><time>2026-05-05T10:17:41Z</time></trkpt><trkpt lat="45.87566155304486" lon="14.21152286259659"><ele>481.0</ele><time>2026-05-05T10:17:42Z</time></trkpt><trkpt lat="45.8758394109141" lon="14.211332453830503"><ele>481.0</ele><time>2026-05-05T10:17:43Z</time></trkpt><trkpt lat="45.87601746837569" lon="14.211134169193015"><ele>484.0</ele><time>2026-05-05T10:17:44Z</time></trkpt><trkpt lat="45.8762022205336" lon="14.210917832128242"><ele>487.0</ele><time>2026-05-05T10:17:45Z</time></trkpt><trkpt lat="45.876390692363344" lon="14.2106924251585"><ele>489.0</ele><time>2026-05-05T10:17:46Z</time></trkpt><trkpt lat="45.87658113694995" lon="14.21046560811375"><ele>491.0</ele><time>2026-05-05T10:17:47Z</time></trkpt><trkpt lat="45.87677261805483" lon="14.210243482435072"><ele>491.0</ele><time>2026-05-05T10:17:48Z</time></trkpt><trkpt lat="45.87696624514987" lon="14.21002584682552"><ele>491.0</ele><time>2026-05-05T10:17:49Z</time></trkpt><trkpt lat="45.87716556072132" lon="14.209809273245417"><ele>493.0</ele><time>2026-05-05T10:17:50Z</time></trkpt><trkpt lat="45.87736751657784" lon="14.209607215134872"><ele>495.0</ele><time>2026-05-05T10:17:51Z</time></trkpt><trkpt lat="45.87757863058058" lon="14.209407546424735"><ele>493.5</ele><time>2026-05-05T10:17:52Z</time></trkpt><trkpt lat="45.87779368152025" lon="14.20921732412729"><ele>492.0</ele><time>2026-05-05T10:17:53Z</time></trkpt><trkpt lat="45.87801091013432" lon="14.209031963087819"><ele>491.5</ele><time>2026-05-05T10:17:54Z</time></trkpt><trkpt lat="45.87822229592649" lon="14.208845765793345"><ele>491.0</ele><time>2026-05-05T10:17:55Z</time></trkpt><trkpt lat="45.87843597065347" lon="14.20866033435979"><ele>492.5</ele><time>2026-05-05T10:17:56Z</time></trkpt><trkpt lat="45.8786445199171" lon="14.208472654282657"><ele>494.0</ele><time>2026-05-05T10:17:57Z</time></trkpt><trkpt lat="45.87885889855345" lon="14.208304869297718"><ele>494.5</ele><time>2026-05-05T10:17:58Z</time></trkpt><trkpt lat="45.879064177519155" lon="14.2081275989851"><ele>495.0</ele><time>2026-05-05T10:17:59Z</time></trkpt><trkpt lat="45.87924544386157" lon="14.20790505401933"><ele>498.5</ele><time>2026-05-05T10:18:00Z</time></trkpt><trkpt lat="45.87943494718657" lon="14.207707848929031"><ele>502.0</ele><time>2026-05-05T10:18:01Z</time></trkpt><trkpt lat="45.87961735429533" lon="14.207502985633665"><ele>502.0</ele><time>2026-05-05T10:18:02Z</time></trkpt><trkpt lat="45.879799509150736" lon="14.207291584887535"><ele>502.0</ele><time>2026-05-05T10:18:03Z</time></trkpt><trkpt lat="45.87997872155994" lon="14.207075509062012"><ele>505.0</ele><time>2026-05-05T10:18:04Z</time></trkpt><trkpt lat="45.88015238567818" lon="14.206854970492122"><ele>508.0</ele><time>2026-05-05T10:18:05Z</time></trkpt><trkpt lat="45.88032783573152" lon="14.206622650679916"><ele>507.5</ele><time>2026-05-05T10:18:06Z</time></trkpt><trkpt lat="45.880502735754234" lon="14.206383523420534"><ele>507.0</ele><time>2026-05-05T10:18:07Z</time></trkpt><trkpt lat="45.880677677082964" lon="14.206144744835791"><ele>507.0</ele><time>2026-05-05T10:18:08Z</time></trkpt><trkpt lat="45.880845742429294" lon="14.205902671088136"><ele>507.0</ele><time>2026-05-05T10:18:09Z</time></trkpt><trkpt lat="45.881014524008116" lon="14.20565533317431"><ele>512.5</ele><time>2026-05-05T10:18:10Z</time></trkpt><trkpt lat="45.88118162243234" lon="14.205409359064438"><ele>518.0</ele><time>2026-05-05T10:18:11Z</time></trkpt><trkpt lat="45.88134391870897" lon="14.205168539613956"><ele>518.0</ele><time>2026-05-05T10:18:12Z</time></trkpt><trkpt lat="45.88151149963169" lon="14.204934001646771"><ele>518.0</ele><time>2026-05-05T10:18:13Z</time></trkpt><trkpt lat="45.88168194252181" lon="14.204720359182033"><ele>521.5</ele><time>2026-05-05T10:18:14Z</time></trkpt><trkpt lat="45.88185835496473" lon="14.204516538241135"><ele>525.0</ele><time>2026-05-05T10:18:15Z</time></trkpt><trkpt lat="45.88204010025006" lon="14.204330006994692"><ele>525.0</ele><time>2026-05-05T10:18:16Z</time></trkpt><trkpt lat="45.88222272029447" lon="14.204159866610137"><ele>525.0</ele><time>2026-05-05T10:18:17Z</time></trkpt><trkpt lat="45.88241403273215" lon="14.203997822243263"><ele>525.0</ele><time>2026-05-05T10:18:18Z</time></trkpt><trkpt lat="45.88261481625924" lon="14.203844754228562"><ele>525.0</ele><time>2026-05-05T10:18:19Z</time></trkpt><trkpt lat="45.882813999762725" lon="14.20370941584251"><ele>525.0</ele><time>2026-05-05T10:18:20Z</time></trkpt><trkpt lat="45.883022075498516" lon="14.203587090595517"><ele>525.0</ele><time>2026-05-05T10:18:21Z</time></trkpt><trkpt lat="45.883237884725276" lon="14.203471167414353"><ele>527.5</ele><time>2026-05-05T10:18:22Z</time></trkpt><trkpt lat="45.88345778057151" lon="14.203359021861852"><ele>530.0</ele><time>2026-05-05T10:18:23Z</time></trkpt><trkpt lat="45.883676173121934" lon="14.203248958440964"><ele>522.0</ele><time>2026-05-05T10:18:24Z</time></trkpt><trkpt lat="45.88389897519683" lon="14.20313513910654"><ele>514.0</ele><time>2026-05-05T10:18:25Z</time></trkpt><trkpt lat="45.884116131073874" lon="14.203006536395362"><ele>517.3333333333334</ele><time>2026-05-05T10:18:26Z</time></trkpt><trkpt lat="45.884319593562935" lon="14.202878156104417"><ele>520.6666666666666</ele><time>2026-05-05T10:18:27Z</time></trkpt><trkpt lat="45.884519783683906" lon="14.202737866480879"><ele>524.0</ele><time>2026-05-05T10:18:28Z</time></trkpt><trkpt lat="45.884708553467405" lon="14.202593468244896"><ele>524.0</ele><time>2026-05-05T10:18:29Z</time></trkpt><trkpt lat="45.88488783449032" lon="14.202435819275015"><ele>524.0</ele><time>2026-05-05T10:18:30Z</time></trkpt><trkpt lat="45.885065281817184" lon="14.202268390194014"><ele>524.0</ele><time>2026-05-05T10:18:31Z</time></trkpt><trkpt lat="45.885242021902755" lon="14.202096008501107"><ele>524.3333333333333</ele><time>2026-05-05T10:18:32Z</time></trkpt><trkpt lat="45.88540866965365" lon="14.201906651836689"><ele>524.6666666666666</ele><time>2026-05-05T10:18:33Z</time></trkpt><trkpt lat="45.8855757550208" lon="14.201704427078308"><ele>525.0</ele><time>2026-05-05T10:18:34Z</time></trkpt><trkpt lat="45.8857378533561" lon="14.201497058364467"><ele>529.5</ele><time>2026-05-05T10:18:35Z</time></trkpt><trkpt lat="45.885901349717514" lon="14.201277994739849"><ele>534.0</ele><time>2026-05-05T10:18:36Z</time></trkpt><trkpt lat="45.88607155406647" lon="14.20104477384737"><ele>534.0</ele><time>2026-05-05T10:18:37Z</time></trkpt><trkpt lat="45.886248961774015" lon="14.20079739131145"><ele>534.0</ele><time>2026-05-05T10:18:38Z</time></trkpt><trkpt lat="45.88643647211201" lon="14.200537890222671"><ele>537.5</ele><time>2026-05-05T10:18:39Z</time></trkpt><trkpt lat="45.88662743090878" lon="14.200268294917734"><ele>541.0</ele><time>2026-05-05T10:18:40Z</time></trkpt><trkpt lat="45.88682215905339" lon="14.199986884078127"><ele>533.5</ele><time>2026-05-05T10:18:41Z</time></trkpt><trkpt lat="45.88701928330603" lon="14.199697771005571"><ele>526.0</ele><time>2026-05-05T10:18:42Z</time></trkpt><trkpt lat="45.88721986606847" lon="14.199395123433293"><ele>526.0</ele><time>2026-05-05T10:18:43Z</time></trkpt><trkpt lat="45.88742001511418" lon="14.199090985706531"><ele>526.0</ele><time>2026-05-05T10:18:44Z</time></trkpt><trkpt lat="45.88761645602882" lon="14.198775792910057"><ele>527.0</ele><time>2026-05-05T10:18:45Z</time></trkpt><trkpt lat="45.88780928766038" lon="14.198462957848113"><ele>528.0</ele><time>2026-05-05T10:18:46Z</time></trkpt><trkpt lat="45.888000821905834" lon="14.198147563830908"><ele>518.5</ele><time>2026-05-05T10:18:47Z</time></trkpt><trkpt lat="45.88819041692702" lon="14.197842664525869"><ele>509.0</ele><time>2026-05-05T10:18:48Z</time></trkpt><trkpt lat="45.888383031778574" lon="14.197531498058488"><ele>516.0</ele><time>2026-05-05T10:18:49Z</time></trkpt><trkpt lat="45.88857142948361" lon="14.197215413416952"><ele>523.0</ele><time>2026-05-05T10:18:50Z</time></trkpt><trkpt lat="45.888754061957926" lon="14.196898926524067"><ele>523.0</ele><time>2026-05-05T10:18:51Z</time></trkpt><trkpt lat="45.88893264393325" lon="14.196583077322385"><ele>523.0</ele><time>2026-05-05T10:18:52Z</time></trkpt><trkpt lat="45.8891101175011" lon="14.196271823418646"><ele>527.0</ele><time>2026-05-05T10:18:53Z</time></trkpt><trkpt lat="45.88928505161823" lon="14.195968579597004"><ele>531.0</ele><time>2026-05-05T10:18:54Z</time></trkpt><trkpt lat="45.88945607105583" lon="14.195658727551274"><ele>520.5</ele><time>2026-05-05T10:18:55Z</time></trkpt><trkpt lat="45.88963716350149" lon="14.195351713765032"><ele>510.0</ele><time>2026-05-05T10:18:56Z</time></trkpt><trkpt lat="45.88982426130251" lon="14.19504630004214"><ele>512.5</ele><time>2026-05-05T10:18:57Z</time></trkpt><trkpt lat="45.89001864807977" lon="14.194734120055653"><ele>515.0</ele><time>2026-05-05T10:18:58Z</time></trkpt><trkpt lat="45.890220203528926" lon="14.194410786784141"><ele>515.0</ele><time>2026-05-05T10:18:59Z</time></trkpt><trkpt lat="45.89042814835875" lon="14.194078325729409"><ele>515.0</ele><time>2026-05-05T10:19:00Z</time></trkpt><trkpt lat="45.89063531728407" lon="14.193727345732807"><ele>508.0</ele><time>2026-05-05T10:19:01Z</time></trkpt><trkpt lat="45.89085001819088" lon="14.193425894607952"><ele>501.0</ele><time>2026-05-05T10:19:02Z</time></trkpt><trkpt lat="45.89106495131733" lon="14.193094147381975"><ele>501.0</ele><time>2026-05-05T10:19:03Z</time></trkpt><trkpt lat="45.89128666783621" lon="14.192768613664104"><ele>501.0</ele><time>2026-05-05T10:19:04Z</time></trkpt><trkpt lat="45.89150858464165" lon="14.192453700110331"><ele>503.0</ele><time>2026-05-05T10:19:05Z</time></trkpt><trkpt lat="45.891722157302915" lon="14.192158886691853"><ele>505.0</ele><time>2026-05-05T10:19:06Z</time></trkpt><trkpt lat="45.891920635838694" lon="14.191890164420395"><ele>505.0</ele><time>2026-05-05T10:19:07Z</time></trkpt><trkpt lat="45.892107784595524" lon="14.191634959594188"><ele>505.0</ele><time>2026-05-05T10:19:08Z</time></trkpt><trkpt lat="45.892280454740344" lon="14.191408677458499"><ele>503.0</ele><time>2026-05-05T10:19:09Z</time></trkpt><trkpt lat="45.89245076298528" lon="14.191207106240801"><ele>501.0</ele><time>2026-05-05T10:19:10Z</time></trkpt><trkpt lat="45.89262719424032" lon="14.191030025499975"><ele>499.0</ele><time>2026-05-05T10:19:11Z</time></trkpt><trkpt lat="45.892810336440476" lon="14.190883355580835"><ele>499.0</ele><time>2026-05-05T10:19:12Z</time></trkpt><trkpt lat="45.89301500679901" lon="14.190784833462779"><ele>499.0</ele><time>2026-05-05T10:19:13Z</time></trkpt><trkpt lat="45.89321603509264" lon="14.190715080619649"><ele>499.0</ele><time>2026-05-05T10:19:14Z</time></trkpt><trkpt lat="45.89341574802864" lon="14.190678632021616"><ele>497.33333333333337</ele><time>2026-05-05T10:19:15Z</time></trkpt><trkpt lat="45.89361325913096" lon="14.190679664202587"><ele>495.66666666666663</ele><time>2026-05-05T10:19:16Z</time></trkpt><trkpt lat="45.89381450245738" lon="14.190713222223682"><ele>494.0</ele><time>2026-05-05T10:19:17Z</time></trkpt><trkpt lat="45.89398942116996" lon="14.190771151574442"><ele>494.0</ele><time>2026-05-05T10:19:18Z</time></trkpt><trkpt lat="45.89414988332711" lon="14.190847678653544"><ele>494.0</ele><time>2026-05-05T10:19:19Z</time></trkpt><trkpt lat="45.89429323045769" lon="14.190950983338107"><ele>494.0</ele><time>2026-05-05T10:19:20Z</time></trkpt><trkpt lat="45.89442860372676" lon="14.191068519824043"><ele>494.0</ele><time>2026-05-05T10:19:21Z</time></trkpt><trkpt lat="45.894550866786425" lon="14.191193522484696"><ele>494.0</ele><time>2026-05-05T10:19:22Z</time></trkpt><trkpt lat="45.89466595623144" lon="14.19130575773218"><ele>494.0</ele><time>2026-05-05T10:19:23Z</time></trkpt><trkpt lat="45.894768705553" lon="14.1913878765482"><ele>494.0</ele><time>2026-05-05T10:19:24Z</time></trkpt><trkpt lat="45.89485724454796" lon="14.191435924369554"><ele>493.99999999999994</ele><time>2026-05-05T10:19:25Z</time></trkpt><trkpt lat="45.89492590970758" lon="14.191461254973841"><ele>494.0</ele><time>2026-05-05T10:19:26Z</time></trkpt><trkpt lat="45.89499954054628" lon="14.191525597040496"><ele>494.0</ele><time>2026-05-05T10:19:50Z</time></trkpt><trkpt lat="45.89503586853618" lon="14.191601798987552"><ele>494.0</ele><time>2026-05-05T10:19:51Z</time></trkpt><trkpt lat="45.895067577212245" lon="14.191722714398576"><ele>493.99999999999994</ele><time>2026-05-05T10:19:52Z</time></trkpt><trkpt lat="45.895098281680625" lon="14.191859295439103"><ele>494.0</ele><time>2026-05-05T10:19:53Z</time></trkpt><trkpt lat="45.89513909445137" lon="14.192048477998046"><ele>495.0</ele><time>2026-05-05T10:19:54Z</time></trkpt><trkpt lat="45.89518613163214" lon="14.192245225213481"><ele>496.0</ele><time>2026-05-05T10:19:55Z</time></trkpt><trkpt lat="45.89523340421553" lon="14.192430727440781"><ele>497.0</ele><time>2026-05-05T10:19:56Z</time></trkpt><trkpt lat="45.89528906474084" lon="14.192633785316158"><ele>498.0</ele><time>2026-05-05T10:19:57Z</time></trkpt><trkpt lat="45.89535436228742" lon="14.192863523002803"><ele>498.66666666666663</ele><time>2026-05-05T10:19:58Z</time></trkpt><trkpt lat="45.895421792223985" lon="14.193102970543949"><ele>499.3333333333333</ele><time>2026-05-05T10:19:59Z</time></trkpt><trkpt lat="45.89548645087205" lon="14.193338096424762"><ele>500.0</ele><time>2026-05-05T10:20:00Z</time></trkpt><trkpt lat="45.89556201775271" lon="14.193622675282917"><ele>500.0</ele><time>2026-05-05T10:20:01Z</time></trkpt><trkpt lat="45.895652188749466" lon="14.193958596858081"><ele>500.0</ele><time>2026-05-05T10:20:02Z</time></trkpt><trkpt lat="45.89575530890215" lon="14.194330411088"><ele>499.5</ele><time>2026-05-05T10:20:03Z</time></trkpt><trkpt lat="45.89586343501206" lon="14.194684910675226"><ele>499.0</ele><time>2026-05-05T10:20:04Z</time></trkpt><trkpt lat="45.89597351555274" lon="14.194990134757834"><ele>497.33333333333337</ele><time>2026-05-05T10:20:05Z</time></trkpt><trkpt lat="45.89608070066282" lon="14.195263153996995"><ele>495.66666666666663</ele><time>2026-05-05T10:20:06Z</time></trkpt><trkpt lat="45.896183616368745" lon="14.19549835388249"><ele>494.0</ele><time>2026-05-05T10:20:07Z</time></trkpt><trkpt lat="45.89628354165335" lon="14.195715068369978"><ele>493.3333333333333</ele><time>2026-05-05T10:20:08Z</time></trkpt><trkpt lat="45.896379550460075" lon="14.195909268754631"><ele>492.66666666666663</ele><time>2026-05-05T10:20:09Z</time></trkpt><trkpt lat="45.89647009631173" lon="14.19607709434593"><ele>492.0</ele><time>2026-05-05T10:20:10Z</time></trkpt><trkpt lat="45.89655490297125" lon="14.196230102454598"><ele>492.0</ele><time>2026-05-05T10:20:11Z</time></trkpt><trkpt lat="45.8966310158347" lon="14.196359787124614"><ele>492.00000000000006</ele><time>2026-05-05T10:20:12Z</time></trkpt><trkpt lat="45.89669998592327" lon="14.19647196357891"><ele>492.00000000000006</ele><time>2026-05-05T10:20:13Z</time></trkpt><trkpt lat="45.896764791175464" lon="14.196570423546833"><ele>492.0</ele><time>2026-05-05T10:20:14Z</time></trkpt><trkpt lat="45.896819283075736" lon="14.19665171194294"><ele>492.0</ele><time>2026-05-05T10:20:15Z</time></trkpt><trkpt lat="45.89686833388388" lon="14.196726707063338"><ele>492.6666666666667</ele><time>2026-05-05T10:20:16Z</time></trkpt><trkpt lat="45.89691388249981" lon="14.196797838363368"><ele>493.33333333333337</ele><time>2026-05-05T10:20:17Z</time></trkpt><trkpt lat="45.896982650019424" lon="14.196906234359947"><ele>494.0</ele><time>2026-05-05T10:20:19Z</time></trkpt><trkpt lat="45.89702822288952" lon="14.1969885484098"><ele>494.6666666666667</ele><time>2026-05-05T10:20:21Z</time></trkpt><trkpt lat="45.897061812468756" lon="14.19709185875391"><ele>495.33333333333337</ele><time>2026-05-05T10:20:24Z</time></trkpt><trkpt lat="45.89702707747019" lon="14.197168467154329"><ele>496.0</ele><time>2026-05-05T10:20:26Z</time></trkpt><trkpt lat="45.89696159417347" lon="14.197217409010374"><ele>496.0</ele><time>2026-05-05T10:20:28Z</time></trkpt><trkpt lat="45.89693782300629" lon="14.197312666800464"><ele>496.0</ele><time>2026-05-05T10:20:35Z</time></trkpt><trkpt lat="45.89696718830719" lon="14.19722313124209"><ele>496.0</ele><time>2026-05-05T10:23:23Z</time></trkpt><trkpt lat="45.8969152756767" lon="14.197279508367934"><ele>496.0</ele><time>2026-05-05T10:23:34Z</time></trkpt><trkpt lat="45.8968712763307" lon="14.197346451770583"><ele>496.0</ele><time>2026-05-05T10:36:05Z</time></trkpt><trkpt lat="45.89724561369585" lon="14.197582180448567"><ele>494.5</ele><time>2026-05-05T11:25:29Z</time></trkpt><trkpt lat="45.896847519635664" lon="14.197829111008588"><ele>493.0</ele><time>2026-05-05T11:25:30Z</time></trkpt><trkpt lat="45.896791048114025" lon="14.197667235471398"><ele>493.0</ele><time>2026-05-05T11:25:31Z</time></trkpt><trkpt lat="45.89679352514522" lon="14.197572619960589"><ele>493.0</ele><time>2026-05-05T11:25:33Z</time></trkpt><trkpt lat="45.89683228936057" lon="14.197408575959049"><ele>493.0</ele><time>2026-05-05T11:26:41Z</time></trkpt><trkpt lat="45.89696826720357" lon="14.197680817491666"><ele>493.0</ele><time>2026-05-05T11:27:49.014Z</time></trkpt><trkpt lat="45.89699418449995" lon="14.19780970956594"><ele>494.5</ele><time>2026-05-05T11:27:50.013Z</time></trkpt><trkpt lat="45.8968283804861" lon="14.197256573008627"><ele>496.0</ele><time>2026-05-05T11:27:57Z</time></trkpt><trkpt lat="45.89691887053348" lon="14.19717089807895"><ele>496.0</ele><time>2026-05-05T11:27:58Z</time></trkpt><trkpt lat="45.89686822957262" lon="14.197304004696782"><ele>496.0</ele><time>2026-05-05T11:28:10Z</time></trkpt><trkpt lat="45.89695583832463" lon="14.197122571567112"><ele>496.0</ele><time>2026-05-05T11:30:24.007Z</time></trkpt><trkpt lat="45.8969118634321" lon="14.197193299228353"><ele>496.0</ele><time>2026-05-05T11:30:27.011Z</time></trkpt><trkpt lat="45.896924633613196" lon="14.197289377237485"><ele>496.0</ele><time>2026-05-05T11:30:30.012Z</time></trkpt><trkpt lat="45.89698790736881" lon="14.197332047351791"><ele>496.00000000000006</ele><time>2026-05-05T11:32:20Z</time></trkpt><trkpt lat="45.89693546290619" lon="14.197387194629341"><ele>496.0</ele><time>2026-05-05T11:32:59Z</time></trkpt><trkpt lat="45.896975240077616" lon="14.197305176659457"><ele>496.0</ele><time>2026-05-05T11:34:07Z</time></trkpt><trkpt lat="45.897058509511474" lon="14.197236776972414"><ele>496.0</ele><time>2026-05-05T11:34:40Z</time></trkpt><trkpt lat="45.897007465147794" lon="14.197306392187922"><ele>496.00000000000006</ele><time>2026-05-05T11:35:03Z</time></trkpt><trkpt lat="45.897051275956066" lon="14.197419666559306"><ele>496.0</ele><time>2026-05-05T11:39:44Z</time></trkpt><trkpt lat="45.89715084004778" lon="14.19743187326898"><ele>496.00000000000006</ele><time>2026-05-05T11:39:47Z</time></trkpt><trkpt lat="45.89722445724901" lon="14.197304050546748"><ele>496.0</ele><time>2026-05-05T11:39:49Z</time></trkpt><trkpt lat="45.897222837741616" lon="14.197212610136996"><ele>496.0</ele><time>2026-05-05T11:39:54Z</time></trkpt><trkpt lat="45.897176580176136" lon="14.197143317686459"><ele>496.0</ele><time>2026-05-05T11:39:55Z</time></trkpt><trkpt lat="45.897109779407735" lon="14.197060871378461"><ele>496.00000000000006</ele><time>2026-05-05T11:39:56Z</time></trkpt><trkpt lat="45.89703517502174" lon="14.19696487225129"><ele>496.0</ele><time>2026-05-05T11:39:57Z</time></trkpt><trkpt lat="45.89695763574774" lon="14.196848220773248"><ele>496.0</ele><time>2026-05-05T11:39:58Z</time></trkpt><trkpt lat="45.89688428746787" lon="14.196728148435767"><ele>496.0</ele><time>2026-05-05T11:39:59Z</time></trkpt><trkpt lat="45.89680812722187" lon="14.196600492625265"><ele>496.0</ele><time>2026-05-05T11:40:00Z</time></trkpt><trkpt lat="45.89672875117568" lon="14.196474003381145"><ele>496.0</ele><time>2026-05-05T11:40:01Z</time></trkpt><trkpt lat="45.89664592110482" lon="14.19634175661401"><ele>495.0</ele><time>2026-05-05T11:40:02Z</time></trkpt><trkpt lat="45.896560066934285" lon="14.196203999024732"><ele>494.0</ele><time>2026-05-05T11:40:03Z</time></trkpt><trkpt lat="45.89647836557685" lon="14.196061122937543"><ele>493.0</ele><time>2026-05-05T11:40:04Z</time></trkpt><trkpt lat="45.89640225346804" lon="14.195918425336437"><ele>492.0</ele><time>2026-05-05T11:40:05Z</time></trkpt><trkpt lat="45.89632772313904" lon="14.195769306860468"><ele>492.40000000000003</ele><time>2026-05-05T11:40:06Z</time></trkpt><trkpt lat="45.89626271419619" lon="14.19562606083767"><ele>492.80000000000007</ele><time>2026-05-05T11:40:07Z</time></trkpt><trkpt lat="45.896202851868296" lon="14.195494122966974"><ele>493.2</ele><time>2026-05-05T11:40:08Z</time></trkpt><trkpt lat="45.89614775874285" lon="14.195368334748988"><ele>493.6</ele><time>2026-05-05T11:40:09Z</time></trkpt><trkpt lat="45.89609155324709" lon="14.195236845666306"><ele>494.0</ele><time>2026-05-05T11:40:10Z</time></trkpt><trkpt lat="45.896037056397994" lon="14.195096543144798"><ele>494.0</ele><time>2026-05-05T11:40:11Z</time></trkpt><trkpt lat="45.895985272619576" lon="14.194950713580672"><ele>494.0</ele><time>2026-05-05T11:40:12Z</time></trkpt><trkpt lat="45.89593148063871" lon="14.194801918688228"><ele>494.0</ele><time>2026-05-05T11:40:13Z</time></trkpt><trkpt lat="45.89587793788224" lon="14.194643331751786"><ele>494.0</ele><time>2026-05-05T11:40:14Z</time></trkpt><trkpt lat="45.89582509185909" lon="14.194475839278526"><ele>495.25</ele><time>2026-05-05T11:40:15Z</time></trkpt><trkpt lat="45.895769616649915" lon="14.194296421780207"><ele>496.5</ele><time>2026-05-05T11:40:16Z</time></trkpt><trkpt lat="45.89571628897767" lon="14.194115617823412"><ele>497.75</ele><time>2026-05-05T11:40:17Z</time></trkpt><trkpt lat="45.89566204966592" lon="14.193926036449952"><ele>499.0</ele><time>2026-05-05T11:40:18Z</time></trkpt><trkpt lat="45.89560815788369" lon="14.193725702139988"><ele>499.25</ele><time>2026-05-05T11:40:19Z</time></trkpt><trkpt lat="45.8955556859678" lon="14.193522538726555"><ele>499.5</ele><time>2026-05-05T11:40:20Z</time></trkpt><trkpt lat="45.89550605671251" lon="14.193329002147962"><ele>499.75</ele><time>2026-05-05T11:40:21Z</time></trkpt><trkpt lat="45.89545557181872" lon="14.193128923047663"><ele>500.0</ele><time>2026-05-05T11:40:22Z</time></trkpt><trkpt lat="45.89540441196112" lon="14.192927856634295"><ele>500.25</ele><time>2026-05-05T11:40:23Z</time></trkpt><trkpt lat="45.89535246043398" lon="14.192727652318153"><ele>500.5</ele><time>2026-05-05T11:40:24Z</time></trkpt><trkpt lat="45.89530433064122" lon="14.19253744282606"><ele>500.75</ele><time>2026-05-05T11:40:25Z</time></trkpt><trkpt lat="45.895254537770626" lon="14.192347165951386"><ele>501.0</ele><time>2026-05-05T11:40:26Z</time></trkpt><trkpt lat="45.895204277295896" lon="14.192152030307167"><ele>500.25</ele><time>2026-05-05T11:40:27Z</time></trkpt><trkpt lat="45.89515804680075" lon="14.191960611941433"><ele>499.5</ele><time>2026-05-05T11:40:28Z</time></trkpt><trkpt lat="45.8951143307191" lon="14.191757131357361"><ele>498.75</ele><time>2026-05-05T11:40:29Z</time></trkpt><trkpt lat="45.89507822059615" lon="14.191548872294835"><ele>498.0</ele><time>2026-05-05T11:40:30Z</time></trkpt><trkpt lat="45.895047775894085" lon="14.191349234374059"><ele>497.0</ele><time>2026-05-05T11:40:31Z</time></trkpt><trkpt lat="45.89501386920292" lon="14.191146555738156"><ele>496.0</ele><time>2026-05-05T11:40:32Z</time></trkpt><trkpt lat="45.8949838916116" lon="14.190950097193872"><ele>495.0</ele><time>2026-05-05T11:40:33Z</time></trkpt><trkpt lat="45.894956338933795" lon="14.190763478435624"><ele>494.0</ele><time>2026-05-05T11:40:34Z</time></trkpt><trkpt lat="45.89493292345321" lon="14.190589786584745"><ele>492.99999999999994</ele><time>2026-05-05T11:40:35Z</time></trkpt><trkpt lat="45.89494553951152" lon="14.1904354230932"><ele>492.0</ele><time>2026-05-05T11:40:36Z</time></trkpt><trkpt lat="45.894951523443645" lon="14.19029544999962"><ele>491.0</ele><time>2026-05-05T11:40:37Z</time></trkpt><trkpt lat="45.894967182429994" lon="14.19017666863657"><ele>490.0</ele><time>2026-05-05T11:40:38Z</time></trkpt><trkpt lat="45.89498931602354" lon="14.190066344320037"><ele>488.99999999999994</ele><time>2026-05-05T11:40:39Z</time></trkpt><trkpt lat="45.895018058881504" lon="14.189964319540579"><ele>488.0</ele><time>2026-05-05T11:40:40Z</time></trkpt><trkpt lat="45.89504570400728" lon="14.189869236503792"><ele>488.2</ele><time>2026-05-05T11:40:41Z</time></trkpt><trkpt lat="45.89507522762114" lon="14.189787232142278"><ele>488.4</ele><time>2026-05-05T11:40:42Z</time></trkpt><trkpt lat="45.8951226524118" lon="14.189655179331584"><ele>488.59999999999997</ele><time>2026-05-05T11:40:44Z</time></trkpt><trkpt lat="45.895165101056826" lon="14.189556900153114"><ele>488.79999999999995</ele><time>2026-05-05T11:40:46Z</time></trkpt><trkpt lat="45.89504182183002" lon="14.189418773207587"><ele>489.0</ele><time>2026-05-05T11:40:48Z</time></trkpt><trkpt lat="45.89499659504943" lon="14.189344044761706"><ele>489.0</ele><time>2026-05-05T11:40:50Z</time></trkpt><trkpt lat="45.8949528796745" lon="14.18927254224601"><ele>489.0</ele><time>2026-05-05T11:40:53Z</time></trkpt><trkpt lat="45.8948898957661" lon="14.189175258009639"><ele>489.0</ele><time>2026-05-05T11:41:16Z</time></trkpt><trkpt lat="45.8948426172488" lon="14.189095169625913"><ele>489.0</ele><time>2026-05-05T11:41:17Z</time></trkpt><trkpt lat="45.89480562136911" lon="14.188986892707096"><ele>489.0</ele><time>2026-05-05T11:41:18Z</time></trkpt><trkpt lat="45.89477802910072" lon="14.188843268656411"><ele>489.0</ele><time>2026-05-05T11:41:19Z</time></trkpt><trkpt lat="45.894780845701945" lon="14.188670985154872"><ele>489.5</ele><time>2026-05-05T11:41:20Z</time></trkpt><trkpt lat="45.89476884836389" lon="14.188488937800013"><ele>490.0</ele><time>2026-05-05T11:41:21Z</time></trkpt><trkpt lat="45.894758244350335" lon="14.188279093668871"><ele>490.5</ele><time>2026-05-05T11:41:22Z</time></trkpt><trkpt lat="45.89473215641933" lon="14.188060929542482"><ele>491.0</ele><time>2026-05-05T11:41:23Z</time></trkpt><trkpt lat="45.89472228074923" lon="14.187830096802134"><ele>491.3333333333333</ele><time>2026-05-05T11:41:24Z</time></trkpt><trkpt lat="45.8947248049497" lon="14.187580124020943"><ele>491.66666666666663</ele><time>2026-05-05T11:41:25Z</time></trkpt><trkpt lat="45.89471280936355" lon="14.187327292311274"><ele>492.0</ele><time>2026-05-05T11:41:26Z</time></trkpt><trkpt lat="45.89470090163633" lon="14.187076312348399"><ele>493.0</ele><time>2026-05-05T11:41:27Z</time></trkpt><trkpt lat="45.894690079058584" lon="14.186827573119075"><ele>494.0</ele><time>2026-05-05T11:41:28Z</time></trkpt><trkpt lat="45.894679742559795" lon="14.186579376705069"><ele>495.0</ele><time>2026-05-05T11:41:29Z</time></trkpt><trkpt lat="45.89466950781492" lon="14.186333623560017"><ele>496.66666666666663</ele><time>2026-05-05T11:41:30Z</time></trkpt><trkpt lat="45.89465942156201" lon="14.186091435983627"><ele>498.3333333333333</ele><time>2026-05-05T11:41:31Z</time></trkpt><trkpt lat="45.894648092544884" lon="14.185845963179238"><ele>500.0</ele><time>2026-05-05T11:41:32Z</time></trkpt><trkpt lat="45.89463512930328" lon="14.185594559307296"><ele>501.3333333333333</ele><time>2026-05-05T11:41:33Z</time></trkpt><trkpt lat="45.89462010260106" lon="14.185341430982994"><ele>502.66666666666663</ele><time>2026-05-05T11:41:34Z</time></trkpt><trkpt lat="45.8945953632044" lon="14.18507837347924"><ele>504.0</ele><time>2026-05-05T11:41:35Z</time></trkpt><trkpt lat="45.89458230493533" lon="14.184813554908601"><ele>504.66666666666663</ele><time>2026-05-05T11:41:36Z</time></trkpt><trkpt lat="45.894565278323135" lon="14.184561148345846"><ele>505.3333333333333</ele><time>2026-05-05T11:41:37Z</time></trkpt><trkpt lat="45.89457004543749" lon="14.18432725667821"><ele>506.0</ele><time>2026-05-05T11:41:38Z</time></trkpt><trkpt lat="45.894544631988495" lon="14.18409401217326"><ele>507.0</ele><time>2026-05-05T11:41:39Z</time></trkpt><trkpt lat="45.894530496822796" lon="14.1838622074755"><ele>508.0</ele><time>2026-05-05T11:41:40Z</time></trkpt><trkpt lat="45.89450544386642" lon="14.183645208345135"><ele>509.0</ele><time>2026-05-05T11:41:41Z</time></trkpt><trkpt lat="45.89449313631353" lon="14.183445297975606"><ele>509.0</ele><time>2026-05-05T11:41:42Z</time></trkpt><trkpt lat="45.8944682260559" lon="14.183271453447293"><ele>509.0</ele><time>2026-05-05T11:41:43Z</time></trkpt><trkpt lat="45.89449665190827" lon="14.18310696596433"><ele>509.0</ele><time>2026-05-05T11:41:44Z</time></trkpt><trkpt lat="45.89454956093496" lon="14.182945949539965"><ele>509.0</ele><time>2026-05-05T11:41:45Z</time></trkpt><trkpt lat="45.89461032179693" lon="14.182769080211923"><ele>509.0</ele><time>2026-05-05T11:41:46Z</time></trkpt><trkpt lat="45.89467101025534" lon="14.182578606708391"><ele>509.0</ele><time>2026-05-05T11:41:47Z</time></trkpt><trkpt lat="45.89471293145974" lon="14.182364722478244"><ele>509.0</ele><time>2026-05-05T11:41:48Z</time></trkpt><trkpt lat="45.89470992251085" lon="14.182145682449674"><ele>509.0</ele><time>2026-05-05T11:41:49Z</time></trkpt><trkpt lat="45.89467029834125" lon="14.181944900891184"><ele>509.0</ele><time>2026-05-05T11:41:50Z</time></trkpt><trkpt lat="45.89465803275392" lon="14.181741090468282"><ele>509.0</ele><time>2026-05-05T11:41:51Z</time></trkpt><trkpt lat="45.89467959762833" lon="14.181532199147014"><ele>509.0</ele><time>2026-05-05T11:41:52Z</time></trkpt><trkpt lat="45.89474014449726" lon="14.181320758678906"><ele>508.66666666666663</ele><time>2026-05-05T11:41:53Z</time></trkpt><trkpt lat="45.89481144909218" lon="14.181103165329054"><ele>508.33333333333337</ele><time>2026-05-05T11:41:54Z</time></trkpt><trkpt lat="45.89487342842659" lon="14.180880057411931"><ele>508.0</ele><time>2026-05-05T11:41:55Z</time></trkpt><trkpt lat="45.89492361069347" lon="14.180647812298979"><ele>507.33333333333337</ele><time>2026-05-05T11:41:56Z</time></trkpt><trkpt lat="45.894952054255924" lon="14.180401516558609"><ele>506.66666666666663</ele><time>2026-05-05T11:41:57Z</time></trkpt><trkpt lat="45.89500881301848" lon="14.180163530859677"><ele>506.0</ele><time>2026-05-05T11:41:58Z</time></trkpt><trkpt lat="45.895076162966255" lon="14.179930110432599"><ele>508.0</ele><time>2026-05-05T11:41:59Z</time></trkpt><trkpt lat="45.89517002358115" lon="14.179709574018053"><ele>510.0</ele><time>2026-05-05T11:42:00Z</time></trkpt><trkpt lat="45.895273640605815" lon="14.179479087273068"><ele>512.0</ele><time>2026-05-05T11:42:01Z</time></trkpt><trkpt lat="45.895339646880835" lon="14.179216548756699"><ele>510.0</ele><time>2026-05-05T11:42:02Z</time></trkpt><trkpt lat="45.895392923389295" lon="14.178957255807601"><ele>508.0</ele><time>2026-05-05T11:42:03Z</time></trkpt><trkpt lat="45.895419158426" lon="14.178702193373473"><ele>506.0</ele><time>2026-05-05T11:42:04Z</time></trkpt><trkpt lat="45.89548576761792" lon="14.178495106767716"><ele>506.0</ele><time>2026-05-05T11:42:05Z</time></trkpt><trkpt lat="45.895555761047625" lon="14.178324910971336"><ele>506.0</ele><time>2026-05-05T11:42:06Z</time></trkpt><trkpt lat="45.89564620147544" lon="14.178203134825182"><ele>506.0</ele><time>2026-05-05T11:42:07Z</time></trkpt><trkpt lat="45.89573724236122" lon="14.178079765307372"><ele>506.0</ele><time>2026-05-05T11:42:08Z</time></trkpt><trkpt lat="45.895814084892855" lon="14.17795604405503"><ele>506.0</ele><time>2026-05-05T11:42:09Z</time></trkpt><trkpt lat="45.89585548192572" lon="14.177806177894283"><ele>506.0</ele><time>2026-05-05T11:42:10Z</time></trkpt><trkpt lat="45.895837127314685" lon="14.177607981202481"><ele>506.0</ele><time>2026-05-05T11:42:11Z</time></trkpt><trkpt lat="45.8958282452989" lon="14.177405592142334"><ele>506.0</ele><time>2026-05-05T11:42:12Z</time></trkpt><trkpt lat="45.89580989977232" lon="14.177205979407685"><ele>506.0</ele><time>2026-05-05T11:42:13Z</time></trkpt><trkpt lat="45.89579874196983" lon="14.176996451875148"><ele>506.0</ele><time>2026-05-05T11:42:14Z</time></trkpt><trkpt lat="45.89578500733602" lon="14.176791100656965"><ele>506.0</ele><time>2026-05-05T11:42:15Z</time></trkpt><trkpt lat="45.89574914563163" lon="14.17660584956482"><ele>506.0</ele><time>2026-05-05T11:42:16Z</time></trkpt><trkpt lat="45.895694133675896" lon="14.176441566640037"><ele>506.75</ele><time>2026-05-05T11:42:17Z</time></trkpt><trkpt lat="45.89559366959201" lon="14.176346508982567"><ele>507.5</ele><time>2026-05-05T11:42:18Z</time></trkpt><trkpt lat="45.89547599007219" lon="14.176304299234303"><ele>508.25</ele><time>2026-05-05T11:42:19Z</time></trkpt><trkpt lat="45.89535669685802" lon="14.176299237380917"><ele>509.0</ele><time>2026-05-05T11:42:20Z</time></trkpt><trkpt lat="45.89524295650663" lon="14.176304306980962"><ele>509.0</ele><time>2026-05-05T11:42:21Z</time></trkpt><trkpt lat="45.895129215076416" lon="14.176278441037537"><ele>509.0</ele><time>2026-05-05T11:42:22Z</time></trkpt><trkpt lat="45.89501660775508" lon="14.176217597895626"><ele>509.0</ele><time>2026-05-05T11:42:23Z</time></trkpt><trkpt lat="45.89494056333014" lon="14.176091984990881"><ele>509.0</ele><time>2026-05-05T11:42:24Z</time></trkpt><trkpt lat="45.89489031267941" lon="14.175935365781877"><ele>508.0</ele><time>2026-05-05T11:42:25Z</time></trkpt><trkpt lat="45.89484500444248" lon="14.175749972022578"><ele>507.0</ele><time>2026-05-05T11:42:26Z</time></trkpt><trkpt lat="45.894787602313485" lon="14.175557839642886"><ele>506.0</ele><time>2026-05-05T11:42:27Z</time></trkpt><trkpt lat="45.89471828201137" lon="14.175334422559098"><ele>506.0</ele><time>2026-05-05T11:42:28Z</time></trkpt><trkpt lat="45.89464173223135" lon="14.175091712315583"><ele>506.0</ele><time>2026-05-05T11:42:29Z</time></trkpt><trkpt lat="45.89455133593778" lon="14.174855230907196"><ele>506.0</ele><time>2026-05-05T11:42:30Z</time></trkpt><trkpt lat="45.8944881308958" lon="14.17461657557278"><ele>506.66666666666663</ele><time>2026-05-05T11:42:31Z</time></trkpt><trkpt lat="45.89443173835089" lon="14.174395024758285"><ele>507.33333333333337</ele><time>2026-05-05T11:42:32Z</time></trkpt><trkpt lat="45.89439149521933" lon="14.174165473024056"><ele>508.0</ele><time>2026-05-05T11:42:33Z</time></trkpt><trkpt lat="45.894378411066135" lon="14.173929918986316"><ele>509.33333333333337</ele><time>2026-05-05T11:42:34Z</time></trkpt><trkpt lat="45.8943831302807" lon="14.173690296872739"><ele>510.66666666666663</ele><time>2026-05-05T11:42:35Z</time></trkpt><trkpt lat="45.89443598605093" lon="14.173466402718256"><ele>512.0</ele><time>2026-05-05T11:42:36Z</time></trkpt><trkpt lat="45.8944854991891" lon="14.17324293841891"><ele>513.3333333333333</ele><time>2026-05-05T11:42:37Z</time></trkpt><trkpt lat="45.89455000622561" lon="14.173029237916586"><ele>514.6666666666666</ele><time>2026-05-05T11:42:38Z</time></trkpt><trkpt lat="45.89461109332627" lon="14.172805820121036"><ele>516.0</ele><time>2026-05-05T11:42:39Z</time></trkpt><trkpt lat="45.894687988621534" lon="14.17259224003792"><ele>516.0</ele><time>2026-05-05T11:42:40Z</time></trkpt><trkpt lat="45.89472564573723" lon="14.172363685556633"><ele>516.0</ele><time>2026-05-05T11:42:41Z</time></trkpt><trkpt lat="45.89472160522976" lon="14.17213844073928"><ele>516.0</ele><time>2026-05-05T11:42:42Z</time></trkpt><trkpt lat="45.89467139136514" lon="14.171921829360853"><ele>518.25</ele><time>2026-05-05T11:42:43Z</time></trkpt><trkpt lat="45.894592248184345" lon="14.171741675987661"><ele>520.5</ele><time>2026-05-05T11:42:44Z</time></trkpt><trkpt lat="45.894500496294185" lon="14.171579793703145"><ele>522.75</ele><time>2026-05-05T11:42:45Z</time></trkpt><trkpt lat="45.894391453173355" lon="14.171438018641526"><ele>525.0</ele><time>2026-05-05T11:42:46Z</time></trkpt><trkpt lat="45.89426579287629" lon="14.171346186434569"><ele>526.75</ele><time>2026-05-05T11:42:47Z</time></trkpt><trkpt lat="45.89413777441984" lon="14.171311192131178"><ele>528.5</ele><time>2026-05-05T11:42:48Z</time></trkpt><trkpt lat="45.89402319619747" lon="14.171264546228757"><ele>530.25</ele><time>2026-05-05T11:42:49Z</time></trkpt><trkpt lat="45.89391935913171" lon="14.17119178388462"><ele>532.0</ele><time>2026-05-05T11:42:50Z</time></trkpt><trkpt lat="45.893826990946316" lon="14.171073636874691"><ele>532.0</ele><time>2026-05-05T11:42:51Z</time></trkpt><trkpt lat="45.89374297857438" lon="14.17090899553234"><ele>532.0</ele><time>2026-05-05T11:42:52Z</time></trkpt><trkpt lat="45.893647808866845" lon="14.170744538570858"><ele>532.0</ele><time>2026-05-05T11:42:53Z</time></trkpt><trkpt lat="45.893539454640674" lon="14.170565185514743"><ele>531.6666666666667</ele><time>2026-05-05T11:42:54Z</time></trkpt><trkpt lat="45.89343883196047" lon="14.170382225900184"><ele>531.3333333333334</ele><time>2026-05-05T11:42:55Z</time></trkpt><trkpt lat="45.893350122365405" lon="14.170171728659197"><ele>531.0</ele><time>2026-05-05T11:42:56Z</time></trkpt><trkpt lat="45.893274685069144" lon="14.16994457295847"><ele>534.3333333333334</ele><time>2026-05-05T11:42:57Z</time></trkpt><trkpt lat="45.89320284840804" lon="14.169703582984816"><ele>537.6666666666667</ele><time>2026-05-05T11:42:58Z</time></trkpt><trkpt lat="45.89311312830661" lon="14.169470791621084"><ele>541.0</ele><time>2026-05-05T11:42:59Z</time></trkpt><trkpt lat="45.89304082902913" lon="14.169238021924647"><ele>541.0</ele><time>2026-05-05T11:43:00Z</time></trkpt><trkpt lat="45.89297193671321" lon="14.169046989715017"><ele>541.0</ele><time>2026-05-05T11:43:01Z</time></trkpt><trkpt lat="45.89290119698501" lon="14.168886399939003"><ele>541.0</ele><time>2026-05-05T11:43:02Z</time></trkpt><trkpt lat="45.89280566707344" lon="14.168784149757675"><ele>541.0</ele><time>2026-05-05T11:43:03Z</time></trkpt><trkpt lat="45.892692940626276" lon="14.168745388112937"><ele>539.0</ele><time>2026-05-05T11:43:04Z</time></trkpt><trkpt lat="45.892569083764755" lon="14.16874628495642"><ele>537.0</ele><time>2026-05-05T11:43:05Z</time></trkpt><trkpt lat="45.892438674055654" lon="14.168688411900613"><ele>535.0</ele><time>2026-05-05T11:43:06Z</time></trkpt><trkpt lat="45.892317657622336" lon="14.168600193595001"><ele>533.0</ele><time>2026-05-05T11:43:07Z</time></trkpt><trkpt lat="45.892232708912935" lon="14.16845332555139"><ele>533.0</ele><time>2026-05-05T11:43:08Z</time></trkpt><trkpt lat="45.892144197166985" lon="14.168300660085402"><ele>533.0</ele><time>2026-05-05T11:43:09Z</time></trkpt><trkpt lat="45.89205131461635" lon="14.168166766699041"><ele>533.0</ele><time>2026-05-05T11:43:10Z</time></trkpt><trkpt lat="45.892001816377764" lon="14.1679925723547"><ele>533.0</ele><time>2026-05-05T11:43:11Z</time></trkpt><trkpt lat="45.89197322568909" lon="14.167806323500551"><ele>535.3333333333333</ele><time>2026-05-05T11:43:12Z</time></trkpt><trkpt lat="45.89194124576858" lon="14.167592895880253"><ele>537.6666666666666</ele><time>2026-05-05T11:43:13Z</time></trkpt><trkpt lat="45.891910811411655" lon="14.167368424665163"><ele>540.0</ele><time>2026-05-05T11:43:14Z</time></trkpt><trkpt lat="45.89190486141178" lon="14.167144828980582"><ele>542.0</ele><time>2026-05-05T11:43:15Z</time></trkpt><trkpt lat="45.89195923042734" lon="14.166957778868259"><ele>544.0</ele><time>2026-05-05T11:43:16Z</time></trkpt><trkpt lat="45.89202838205665" lon="14.166751777619082"><ele>546.0</ele><time>2026-05-05T11:43:17Z</time></trkpt><trkpt lat="45.892048599147905" lon="14.166529265639028"><ele>546.5</ele><time>2026-05-05T11:43:18Z</time></trkpt><trkpt lat="45.89200185493386" lon="14.166330032700486"><ele>547.0</ele><time>2026-05-05T11:43:19Z</time></trkpt><trkpt lat="45.89194810806338" lon="14.1661410820068"><ele>547.5</ele><time>2026-05-05T11:43:20Z</time></trkpt><trkpt lat="45.89193367775357" lon="14.16594329284228"><ele>548.0</ele><time>2026-05-05T11:43:21Z</time></trkpt><trkpt lat="45.89193640883314" lon="14.16573987889485"><ele>548.0</ele><time>2026-05-05T11:43:22Z</time></trkpt><trkpt lat="45.891958018342116" lon="14.165527639012947"><ele>548.0</ele><time>2026-05-05T11:43:23Z</time></trkpt><trkpt lat="45.8920088501711" lon="14.165322316567146"><ele>548.0</ele><time>2026-05-05T11:43:24Z</time></trkpt><trkpt lat="45.8920771457496" lon="14.165123977335117"><ele>548.0</ele><time>2026-05-05T11:43:25Z</time></trkpt><trkpt lat="45.89215686028907" lon="14.164941816137402"><ele>548.0</ele><time>2026-05-05T11:43:26Z</time></trkpt><trkpt lat="45.892220381895896" lon="14.16475553217371"><ele>548.0</ele><time>2026-05-05T11:43:27Z</time></trkpt><trkpt lat="45.89223163672385" lon="14.164559881320415"><ele>548.0</ele><time>2026-05-05T11:43:28Z</time></trkpt><trkpt lat="45.89222205410918" lon="14.164375426168123"><ele>547.1999999999999</ele><time>2026-05-05T11:43:29Z</time></trkpt><trkpt lat="45.89220246079952" lon="14.16421385600482"><ele>546.4</ele><time>2026-05-05T11:43:30Z</time></trkpt><trkpt lat="45.89217523773227" lon="14.164087258621741"><ele>545.5999999999999</ele><time>2026-05-05T11:43:31Z</time></trkpt><trkpt lat="45.89210978084095" lon="14.163987713209638"><ele>544.8</ele><time>2026-05-05T11:43:32Z</time></trkpt><trkpt lat="45.892013186819135" lon="14.163916677002032"><ele>544.0</ele><time>2026-05-05T11:43:33Z</time></trkpt><trkpt lat="45.89189842074564" lon="14.163878376325242"><ele>544.0</ele><time>2026-05-05T11:43:34Z</time></trkpt><trkpt lat="45.89178979833202" lon="14.163805186813724"><ele>544.0</ele><time>2026-05-05T11:43:35Z</time></trkpt><trkpt lat="45.891692265087414" lon="14.16372089568844"><ele>544.0</ele><time>2026-05-05T11:43:36Z</time></trkpt><trkpt lat="45.891612184994486" lon="14.1635819273019"><ele>544.0</ele><time>2026-05-05T11:43:37Z</time></trkpt><trkpt lat="45.89153269569281" lon="14.163406755789866"><ele>544.3333333333334</ele><time>2026-05-05T11:43:38Z</time></trkpt><trkpt lat="45.89141364622902" lon="14.163257505075697"><ele>544.6666666666666</ele><time>2026-05-05T11:43:39Z</time></trkpt><trkpt lat="45.89129108698962" lon="14.163132769918615"><ele>545.0</ele><time>2026-05-05T11:43:40Z</time></trkpt><trkpt lat="45.89116339648921" lon="14.163019848296658"><ele>545.4</ele><time>2026-05-05T11:43:41Z</time></trkpt><trkpt lat="45.89105747870291" lon="14.162913501201018"><ele>545.8</ele><time>2026-05-05T11:43:42Z</time></trkpt><trkpt lat="45.89097465638274" lon="14.16281029813845"><ele>546.2</ele><time>2026-05-05T11:43:43Z</time></trkpt><trkpt lat="45.89091663111598" lon="14.16270179055825"><ele>546.6</ele><time>2026-05-05T11:43:44Z</time></trkpt><trkpt lat="45.89088220219165" lon="14.162585498107706"><ele>547.0</ele><time>2026-05-05T11:43:45Z</time></trkpt><trkpt lat="45.890921760109364" lon="14.16245237950039"><ele>547.4</ele><time>2026-05-05T11:43:46Z</time></trkpt><trkpt lat="45.890992567366965" lon="14.162364512167612"><ele>547.8000000000001</ele><time>2026-05-05T11:43:47Z</time></trkpt><trkpt lat="45.89104517660397" lon="14.162226772060134"><ele>548.2</ele><time>2026-05-05T11:43:48Z</time></trkpt><trkpt lat="45.89112092397693" lon="14.162098424919554"><ele>548.6</ele><time>2026-05-05T11:43:49Z</time></trkpt><trkpt lat="45.89117717034891" lon="14.161937050042896"><ele>549.0</ele><time>2026-05-05T11:43:50Z</time></trkpt><trkpt lat="45.891224272952556" lon="14.161747620891502"><ele>549.0</ele><time>2026-05-05T11:43:51Z</time></trkpt><trkpt lat="45.891273080874484" lon="14.161535988870137"><ele>549.0</ele><time>2026-05-05T11:43:52Z</time></trkpt><trkpt lat="45.891313273891626" lon="14.161301523643347"><ele>549.0</ele><time>2026-05-05T11:43:53Z</time></trkpt><trkpt lat="45.891349628689554" lon="14.161060178056816"><ele>549.75</ele><time>2026-05-05T11:43:54Z</time></trkpt><trkpt lat="45.8913777294818" lon="14.160859346591801"><ele>550.5</ele><time>2026-05-05T11:43:55Z</time></trkpt><trkpt lat="45.89140628950107" lon="14.160686733012975"><ele>551.25</ele><time>2026-05-05T11:43:56Z</time></trkpt><trkpt lat="45.891408402806675" lon="14.160526902729629"><ele>552.0</ele><time>2026-05-05T11:43:57Z</time></trkpt><trkpt lat="45.8913706389713" lon="14.16039820313888"><ele>553.25</ele><time>2026-05-05T11:43:58Z</time></trkpt><trkpt lat="45.89128879103305" lon="14.160283244859352"><ele>554.5</ele><time>2026-05-05T11:43:59Z</time></trkpt><trkpt lat="45.891190811676886" lon="14.160180859202242"><ele>555.75</ele><time>2026-05-05T11:44:00Z</time></trkpt><trkpt lat="45.891096278078415" lon="14.160060207238795"><ele>557.0</ele><time>2026-05-05T11:44:01Z</time></trkpt><trkpt lat="45.89102229832425" lon="14.159900729142265"><ele>558.25</ele><time>2026-05-05T11:44:02Z</time></trkpt><trkpt lat="45.891014662813234" lon="14.159713006780361"><ele>559.5</ele><time>2026-05-05T11:44:03Z</time></trkpt><trkpt lat="45.89102655128973" lon="14.15954367757853"><ele>560.75</ele><time>2026-05-05T11:44:04Z</time></trkpt><trkpt lat="45.89106050711164" lon="14.159371842443186"><ele>562.0</ele><time>2026-05-05T11:44:05Z</time></trkpt><trkpt lat="45.89108858065282" lon="14.159185598764749"><ele>564.5</ele><time>2026-05-05T11:44:06Z</time></trkpt><trkpt lat="45.89113699201147" lon="14.159004864850806"><ele>567.0</ele><time>2026-05-05T11:44:07Z</time></trkpt><trkpt lat="45.89118467158321" lon="14.158812544794044"><ele>569.5</ele><time>2026-05-05T11:44:08Z</time></trkpt><trkpt lat="45.891240892297056" lon="14.158627975157561"><ele>572.0</ele><time>2026-05-05T11:44:09Z</time></trkpt><trkpt lat="45.89132677698939" lon="14.15847577656943"><ele>572.0</ele><time>2026-05-05T11:44:10Z</time></trkpt><trkpt lat="45.89142573075477" lon="14.158350859636068"><ele>572.0</ele><time>2026-05-05T11:44:11Z</time></trkpt><trkpt lat="45.891533062428536" lon="14.158264146153037"><ele>572.0</ele><time>2026-05-05T11:44:12Z</time></trkpt><trkpt lat="45.89163133968991" lon="14.158194828477056"><ele>572.0</ele><time>2026-05-05T11:44:13Z</time></trkpt><trkpt lat="45.89173077460737" lon="14.158128490001403"><ele>568.8000000000001</ele><time>2026-05-05T11:44:14Z</time></trkpt><trkpt lat="45.89182916314486" lon="14.158045523247555"><ele>565.6</ele><time>2026-05-05T11:44:15Z</time></trkpt><trkpt lat="45.89189564469774" lon="14.157927566788167"><ele>562.4000000000001</ele><time>2026-05-05T11:44:16Z</time></trkpt><trkpt lat="45.89193769002949" lon="14.157781519612255"><ele>559.2</ele><time>2026-05-05T11:44:17Z</time></trkpt><trkpt lat="45.89196680717637" lon="14.157662387541333"><ele>556.0</ele><time>2026-05-05T11:44:18Z</time></trkpt><trkpt lat="45.89194787740951" lon="14.15751093724734"><ele>555.75</ele><time>2026-05-05T11:44:19Z</time></trkpt><trkpt lat="45.891894569881636" lon="14.157368868074103"><ele>555.5</ele><time>2026-05-05T11:44:20Z</time></trkpt><trkpt lat="45.89181467127848" lon="14.1572505854683"><ele>555.25</ele><time>2026-05-05T11:44:21Z</time></trkpt><trkpt lat="45.891711563679465" lon="14.157177436474308"><ele>555.0</ele><time>2026-05-05T11:44:22Z</time></trkpt><trkpt lat="45.89159630790545" lon="14.157152835928068"><ele>558.2</ele><time>2026-05-05T11:44:23Z</time></trkpt><trkpt lat="45.89148587660633" lon="14.157150121973883"><ele>561.4</ele><time>2026-05-05T11:44:24Z</time></trkpt><trkpt lat="45.891380428700145" lon="14.15713585601761"><ele>564.6</ele><time>2026-05-05T11:44:25Z</time></trkpt><trkpt lat="45.891283621959246" lon="14.157075344743726"><ele>567.8</ele><time>2026-05-05T11:44:26Z</time></trkpt><trkpt lat="45.89121306958592" lon="14.156957397739202"><ele>571.0</ele><time>2026-05-05T11:44:27Z</time></trkpt><trkpt lat="45.89116998230181" lon="14.156799574658022"><ele>571.0</ele><time>2026-05-05T11:44:28Z</time></trkpt><trkpt lat="45.89113390933234" lon="14.156644825205312"><ele>571.0</ele><time>2026-05-05T11:44:29Z</time></trkpt><trkpt lat="45.89110669652806" lon="14.156471116603218"><ele>571.0</ele><time>2026-05-05T11:44:30Z</time></trkpt><trkpt lat="45.891079317845644" lon="14.156280952200808"><ele>571.0</ele><time>2026-05-05T11:44:31Z</time></trkpt><trkpt lat="45.89107068755632" lon="14.156091263626617"><ele>570.5</ele><time>2026-05-05T11:44:32Z</time></trkpt><trkpt lat="45.891083432827955" lon="14.155885757004643"><ele>570.0</ele><time>2026-05-05T11:44:33Z</time></trkpt><trkpt lat="45.89108252521016" lon="14.155671976189936"><ele>569.5</ele><time>2026-05-05T11:44:34Z</time></trkpt><trkpt lat="45.89105344899936" lon="14.15546031688242"><ele>569.0</ele><time>2026-05-05T11:44:35Z</time></trkpt><trkpt lat="45.89100490590212" lon="14.155251307438043"><ele>569.0</ele><time>2026-05-05T11:44:36Z</time></trkpt><trkpt lat="45.890950262089746" lon="14.155049573643561"><ele>569.0</ele><time>2026-05-05T11:44:37Z</time></trkpt><trkpt lat="45.890909674392475" lon="14.15485679694462"><ele>569.0</ele><time>2026-05-05T11:44:38Z</time></trkpt><trkpt lat="45.890910582028035" lon="14.154670110890233"><ele>569.0</ele><time>2026-05-05T11:44:39Z</time></trkpt><trkpt lat="45.89089826573454" lon="14.154540325569858"><ele>573.6</ele><time>2026-05-05T11:44:40Z</time></trkpt><trkpt lat="45.890843360728994" lon="14.154395698963883"><ele>578.2</ele><time>2026-05-05T11:44:42Z</time></trkpt><trkpt lat="45.890700618959244" lon="14.154361066397737"><ele>582.8000000000001</ele><time>2026-05-05T11:44:44Z</time></trkpt><trkpt lat="45.890630763091785" lon="14.154421938720558"><ele>587.4</ele><time>2026-05-05T11:44:45Z</time></trkpt><trkpt lat="45.89059779227555" lon="14.154544045159852"><ele>592.0</ele><time>2026-05-05T11:44:46Z</time></trkpt><trkpt lat="45.890629613786494" lon="14.154669047337245"><ele>592.0</ele><time>2026-05-05T11:44:47Z</time></trkpt><trkpt lat="45.89066306559981" lon="14.154781557852736"><ele>592.0</ele><time>2026-05-05T11:44:48Z</time></trkpt><trkpt lat="45.89072177554014" lon="14.154923067522125"><ele>592.0</ele><time>2026-05-05T11:44:49Z</time></trkpt><trkpt lat="45.89075609679455" lon="14.155108625003612"><ele>592.0</ele><time>2026-05-05T11:44:50Z</time></trkpt><trkpt lat="45.89077786365853" lon="14.155288330658154"><ele>594.0</ele><time>2026-05-05T11:44:51Z</time></trkpt><trkpt lat="45.89079663333523" lon="14.155474707546594"><ele>596.0</ele><time>2026-05-05T11:44:52Z</time></trkpt><trkpt lat="45.890792554016485" lon="14.155650748354155"><ele>598.0</ele><time>2026-05-05T11:44:53Z</time></trkpt><trkpt lat="45.89074243701469" lon="14.155810064108882"><ele>600.0</ele><time>2026-05-05T11:44:54Z</time></trkpt><trkpt lat="45.89067888303183" lon="14.155957392358923"><ele>600.25</ele><time>2026-05-05T11:44:55Z</time></trkpt><trkpt lat="45.89063186490007" lon="14.156112917321629"><ele>600.5</ele><time>2026-05-05T11:44:56Z</time></trkpt><trkpt lat="45.89064296335911" lon="14.15628695108852"><ele>600.75</ele><time>2026-05-05T11:44:57Z</time></trkpt><trkpt lat="45.89067950327529" lon="14.156439779405117"><ele>601.0</ele><time>2026-05-05T11:44:58Z</time></trkpt><trkpt lat="45.890697176707064" lon="14.156585601625109"><ele>600.4</ele><time>2026-05-05T11:44:59Z</time></trkpt><trkpt lat="45.890685750108744" lon="14.156716552452357"><ele>599.8</ele><time>2026-05-05T11:45:00Z</time></trkpt><trkpt lat="45.890654879771795" lon="14.156848251992217"><ele>599.1999999999999</ele><time>2026-05-05T11:45:01Z</time></trkpt><trkpt lat="45.890566425853045" lon="14.156928855416497"><ele>598.6</ele><time>2026-05-05T11:45:02Z</time></trkpt><trkpt lat="45.89046214096485" lon="14.156929320634084"><ele>598.0</ele><time>2026-05-05T11:45:03Z</time></trkpt><trkpt lat="45.890352007743815" lon="14.15698657282433"><ele>598.0</ele><time>2026-05-05T11:45:04Z</time></trkpt><trkpt lat="45.89023659870033" lon="14.15702299226326"><ele>598.0</ele><time>2026-05-05T11:45:05Z</time></trkpt><trkpt lat="45.890131457252224" lon="14.157107758188754"><ele>598.0</ele><time>2026-05-05T11:45:06Z</time></trkpt><trkpt lat="45.890055002414925" lon="14.157239747805823"><ele>598.0</ele><time>2026-05-05T11:45:07Z</time></trkpt><trkpt lat="45.8900108345313" lon="14.157405218515285"><ele>606.3333333333334</ele><time>2026-05-05T11:45:08Z</time></trkpt><trkpt lat="45.88999493521308" lon="14.157596901797787"><ele>614.6666666666666</ele><time>2026-05-05T11:45:09Z</time></trkpt><trkpt lat="45.88998685414899" lon="14.157817606142025"><ele>623.0</ele><time>2026-05-05T11:45:10Z</time></trkpt><trkpt lat="45.8899793495464" lon="14.158061668662812"><ele>622.0</ele><time>2026-05-05T11:45:11Z</time></trkpt><trkpt lat="45.889981608570096" lon="14.158263657064216"><ele>621.0</ele><time>2026-05-05T11:45:12Z</time></trkpt><trkpt lat="45.889996471440924" lon="14.158438745612479"><ele>620.0</ele><time>2026-05-05T11:45:13Z</time></trkpt><trkpt lat="45.88999055731407" lon="14.158616383629324"><ele>619.0</ele><time>2026-05-05T11:45:14Z</time></trkpt><trkpt lat="45.88998458392031" lon="14.158802682541989"><ele>619.0</ele><time>2026-05-05T11:45:15Z</time></trkpt><trkpt lat="45.889947098206385" lon="14.158979883842997"><ele>619.0</ele><time>2026-05-05T11:45:16Z</time></trkpt><trkpt lat="45.88989809510771" lon="14.159181454782045"><ele>619.0</ele><time>2026-05-05T11:45:17Z</time></trkpt><trkpt lat="45.88984565941636" lon="14.159397386541228"><ele>619.0</ele><time>2026-05-05T11:45:18Z</time></trkpt><trkpt lat="45.88979533813592" lon="14.15959545244854"><ele>618.0</ele><time>2026-05-05T11:45:19Z</time></trkpt><trkpt lat="45.88973539873552" lon="14.15976083576474"><ele>617.0</ele><time>2026-05-05T11:45:20Z</time></trkpt><trkpt lat="45.88965107114328" lon="14.159902352670844"><ele>616.0</ele><time>2026-05-05T11:45:21Z</time></trkpt><trkpt lat="45.88954929548927" lon="14.159995334290002"><ele>615.0</ele><time>2026-05-05T11:45:22Z</time></trkpt><trkpt lat="45.88947663039207" lon="14.160116691056075"><ele>614.5</ele><time>2026-05-05T11:45:23Z</time></trkpt><trkpt lat="45.889405374537965" lon="14.160225767240627"><ele>614.0</ele><time>2026-05-05T11:45:24Z</time></trkpt><trkpt lat="45.88936129456881" lon="14.160381483780272"><ele>613.5</ele><time>2026-05-05T11:45:25Z</time></trkpt><trkpt lat="45.88934801150623" lon="14.160557751261758"><ele>613.0</ele><time>2026-05-05T11:45:26Z</time></trkpt><trkpt lat="45.88936192216202" lon="14.160734417789973"><ele>613.0</ele><time>2026-05-05T11:45:27Z</time></trkpt><trkpt lat="45.889398744239166" lon="14.160895279769088"><ele>613.0</ele><time>2026-05-05T11:45:28Z</time></trkpt><trkpt lat="45.88940683581346" lon="14.161052743339024"><ele>613.0</ele><time>2026-05-05T11:45:29Z</time></trkpt><trkpt lat="45.88939622908168" lon="14.161214650492834"><ele>613.0</ele><time>2026-05-05T11:45:30Z</time></trkpt><trkpt lat="45.8893540482376" lon="14.161380473858406"><ele>613.0</ele><time>2026-05-05T11:45:31Z</time></trkpt><trkpt lat="45.8892752471497" lon="14.161526232984015"><ele>613.0</ele><time>2026-05-05T11:45:32Z</time></trkpt><trkpt lat="45.88917780668813" lon="14.161672027284405"><ele>613.0</ele><time>2026-05-05T11:45:33Z</time></trkpt><trkpt lat="45.88907962970389" lon="14.161830023091001"><ele>613.0</ele><time>2026-05-05T11:45:34Z</time></trkpt><trkpt lat="45.88895875691917" lon="14.161958638405004"><ele>618.25</ele><time>2026-05-05T11:45:35Z</time></trkpt><trkpt lat="45.888841566169084" lon="14.162075711153474"><ele>623.5</ele><time>2026-05-05T11:45:36Z</time></trkpt><trkpt lat="45.88872029014545" lon="14.162172262097682"><ele>628.75</ele><time>2026-05-05T11:45:37Z</time></trkpt><trkpt lat="45.88860379070419" lon="14.16224721862498"><ele>634.0</ele><time>2026-05-05T11:45:38Z</time></trkpt><trkpt lat="45.88850395720474" lon="14.162311864178816"><ele>637.75</ele><time>2026-05-05T11:45:39Z</time></trkpt><trkpt lat="45.88837955118831" lon="14.162341337417331"><ele>641.5</ele><time>2026-05-05T11:45:40Z</time></trkpt><trkpt lat="45.88825318019045" lon="14.162319057362105"><ele>645.25</ele><time>2026-05-05T11:45:41Z</time></trkpt><trkpt lat="45.88813758857289" lon="14.162222314217537"><ele>649.0</ele><time>2026-05-05T11:45:42Z</time></trkpt><trkpt lat="45.888048431647974" lon="14.162083906393281"><ele>649.0</ele><time>2026-05-05T11:45:43Z</time></trkpt><trkpt lat="45.8879659790672" lon="14.161924443259576"><ele>649.0</ele><time>2026-05-05T11:45:44Z</time></trkpt><trkpt lat="45.88788978300273" lon="14.161765073035975"><ele>649.0</ele><time>2026-05-05T11:45:45Z</time></trkpt><trkpt lat="45.88781703527173" lon="14.16161287347406"><ele>649.0</ele><time>2026-05-05T11:45:46Z</time></trkpt><trkpt lat="45.88774628250872" lon="14.16146178169973"><ele>649.8000000000001</ele><time>2026-05-05T11:45:47Z</time></trkpt><trkpt lat="45.88768052835496" lon="14.161326181459982"><ele>650.6</ele><time>2026-05-05T11:45:48Z</time></trkpt><trkpt lat="45.88761091104004" lon="14.161194350238805"><ele>651.4</ele><time>2026-05-05T11:45:49Z</time></trkpt><trkpt lat="45.887534227592816" lon="14.161077743254973"><ele>652.2</ele><time>2026-05-05T11:45:50Z</time></trkpt><trkpt lat="45.887444384990665" lon="14.1610106254185"><ele>653.0</ele><time>2026-05-05T11:45:51Z</time></trkpt><trkpt lat="45.88733177854198" lon="14.160953600553087"><ele>653.3333333333333</ele><time>2026-05-05T11:45:52Z</time></trkpt><trkpt lat="45.88720173928778" lon="14.16092725332116"><ele>653.6666666666666</ele><time>2026-05-05T11:45:53Z</time></trkpt><trkpt lat="45.88705256857946" lon="14.160955542672927"><ele>654.0</ele><time>2026-05-05T11:45:54Z</time></trkpt><trkpt lat="45.88687175324468" lon="14.16103013324453"><ele>661.0</ele><time>2026-05-05T11:45:55Z</time></trkpt><trkpt lat="45.88664949990893" lon="14.161108951150707"><ele>668.0</ele><time>2026-05-05T11:45:56Z</time></trkpt><trkpt lat="45.88640317615634" lon="14.161197823752968"><ele>668.0</ele><time>2026-05-05T11:45:57Z</time></trkpt><trkpt lat="45.88613346258268" lon="14.161290002061472"><ele>668.0</ele><time>2026-05-05T11:45:58Z</time></trkpt><trkpt lat="45.88587685105366" lon="14.161381755315398"><ele>666.3333333333333</ele><time>2026-05-05T11:45:59Z</time></trkpt><trkpt lat="45.88567990955276" lon="14.161495678431578"><ele>664.6666666666666</ele><time>2026-05-05T11:46:00Z</time></trkpt><trkpt lat="45.88551898151263" lon="14.161562791718127"><ele>663.0</ele><time>2026-05-05T11:46:01Z</time></trkpt><trkpt lat="45.88538392205646" lon="14.1616356591212"><ele>663.0</ele><time>2026-05-05T11:46:02Z</time></trkpt><trkpt lat="45.88525022318924" lon="14.161642063401036"><ele>663.0</ele><time>2026-05-05T11:46:03Z</time></trkpt><trkpt lat="45.8851455340276" lon="14.161605647491163"><ele>663.0</ele><time>2026-05-05T11:46:04Z</time></trkpt><trkpt lat="45.8850431455995" lon="14.161581748152749"><ele>663.0</ele><time>2026-05-05T11:46:05Z</time></trkpt><trkpt lat="45.88495635806301" lon="14.161456789683557"><ele>669.5</ele><time>2026-05-05T11:46:06Z</time></trkpt><trkpt lat="45.88488449999147" lon="14.161311954081883"><ele>676.0</ele><time>2026-05-05T11:46:07Z</time></trkpt><trkpt lat="45.88479838880152" lon="14.16117167494963"><ele>682.5</ele><time>2026-05-05T11:46:08Z</time></trkpt><trkpt lat="45.88467169990892" lon="14.161060502435886"><ele>689.0</ele><time>2026-05-05T11:46:09Z</time></trkpt><trkpt lat="45.88452354408548" lon="14.160986935250278"><ele>689.0</ele><time>2026-05-05T11:46:10Z</time></trkpt><trkpt lat="45.884348421886465" lon="14.16092812462501"><ele>689.0</ele><time>2026-05-05T11:46:11Z</time></trkpt><trkpt lat="45.88415986405799" lon="14.160858321152055"><ele>689.0</ele><time>2026-05-05T11:46:12Z</time></trkpt><trkpt lat="45.88394242720088" lon="14.160801431517633"><ele>689.6666666666666</ele><time>2026-05-05T11:46:13Z</time></trkpt><trkpt lat="45.883729804430594" lon="14.160788802036068"><ele>690.3333333333334</ele><time>2026-05-05T11:46:14Z</time></trkpt><trkpt lat="45.88354659575379" lon="14.16080637118873"><ele>691.0</ele><time>2026-05-05T11:46:15Z</time></trkpt><trkpt lat="45.883374683021245" lon="14.160821082282354"><ele>693.5</ele><time>2026-05-05T11:46:16Z</time></trkpt><trkpt lat="45.883245026959756" lon="14.160761977899638"><ele>696.0</ele><time>2026-05-05T11:46:17Z</time></trkpt><trkpt lat="45.883137754041925" lon="14.16066142700155"><ele>698.5</ele><time>2026-05-05T11:46:18Z</time></trkpt><trkpt lat="45.88301504380069" lon="14.160545076725619"><ele>701.0</ele><time>2026-05-05T11:46:19Z</time></trkpt><trkpt lat="45.88287208323774" lon="14.160432812288105"><ele>705.6666666666666</ele><time>2026-05-05T11:46:20Z</time></trkpt><trkpt lat="45.882727906209375" lon="14.160328383551793"><ele>710.3333333333334</ele><time>2026-05-05T11:46:21Z</time></trkpt><trkpt lat="45.88256588187109" lon="14.160280332027689"><ele>715.0</ele><time>2026-05-05T11:46:22Z</time></trkpt><trkpt lat="45.882394027306304" lon="14.160315301519569"><ele>715.25</ele><time>2026-05-05T11:46:23Z</time></trkpt><trkpt lat="45.8822178395653" lon="14.160358874845427"><ele>715.5</ele><time>2026-05-05T11:46:24Z</time></trkpt><trkpt lat="45.882076591758036" lon="14.160342363825867"><ele>715.75</ele><time>2026-05-05T11:46:25Z</time></trkpt><trkpt lat="45.8819733000402" lon="14.16027800867975"><ele>716.0</ele><time>2026-05-05T11:46:26Z</time></trkpt><trkpt lat="45.88188634893746" lon="14.160172277348702"><ele>716.0</ele><time>2026-05-05T11:46:27Z</time></trkpt><trkpt lat="45.88182764992634" lon="14.160036660736512"><ele>716.0</ele><time>2026-05-05T11:46:28Z</time></trkpt><trkpt lat="45.88178271480549" lon="14.159861802108287"><ele>716.0</ele><time>2026-05-05T11:46:29Z</time></trkpt><trkpt lat="45.88173369879633" lon="14.159659698616814"><ele>716.0</ele><time>2026-05-05T11:46:30Z</time></trkpt><trkpt lat="45.88165777270537" lon="14.15944173567651"><ele>720.3333333333333</ele><time>2026-05-05T11:46:31Z</time></trkpt><trkpt lat="45.88158672804963" lon="14.159223975576422"><ele>724.6666666666666</ele><time>2026-05-05T11:46:32Z</time></trkpt><trkpt lat="45.88150167122809" lon="14.159026881722113"><ele>729.0</ele><time>2026-05-05T11:46:33Z</time></trkpt><trkpt lat="45.88146328044795" lon="14.158794984250813"><ele>729.0</ele><time>2026-05-05T11:46:34Z</time></trkpt><trkpt lat="45.88142311357783" lon="14.158555030788985"><ele>729.0</ele><time>2026-05-05T11:46:35Z</time></trkpt><trkpt lat="45.88138195681406" lon="14.158306590404747"><ele>729.0</ele><time>2026-05-05T11:46:36Z</time></trkpt><trkpt lat="45.88132991125868" lon="14.158069012624548"><ele>735.0</ele><time>2026-05-05T11:46:37Z</time></trkpt><trkpt lat="45.88129329634602" lon="14.157841262871775"><ele>741.0</ele><time>2026-05-05T11:46:38Z</time></trkpt><trkpt lat="45.881259165960394" lon="14.157621751233348"><ele>747.0</ele><time>2026-05-05T11:46:39Z</time></trkpt><trkpt lat="45.881204128475105" lon="14.157419722231996"><ele>748.0</ele><time>2026-05-05T11:46:40Z</time></trkpt><trkpt lat="45.881104149582995" lon="14.157247707700293"><ele>749.0</ele><time>2026-05-05T11:46:41Z</time></trkpt><trkpt lat="45.880967101242895" lon="14.157117739779608"><ele>750.0</ele><time>2026-05-05T11:46:42Z</time></trkpt><trkpt lat="45.880809761155675" lon="14.157029832309682"><ele>750.0</ele><time>2026-05-05T11:46:43Z</time></trkpt><trkpt lat="45.88063615814376" lon="14.156976300253582"><ele>750.0</ele><time>2026-05-05T11:46:44Z</time></trkpt><trkpt lat="45.88044974682167" lon="14.156939017172789"><ele>750.0</ele><time>2026-05-05T11:46:45Z</time></trkpt><trkpt lat="45.880248719620624" lon="14.156852943978027"><ele>749.5</ele><time>2026-05-05T11:46:46Z</time></trkpt><trkpt lat="45.880019466718835" lon="14.15679969969266"><ele>749.0</ele><time>2026-05-05T11:46:47Z</time></trkpt><trkpt lat="45.87978295966713" lon="14.15667303500535"><ele>749.0</ele><time>2026-05-05T11:46:48Z</time></trkpt><trkpt lat="45.879543275826165" lon="14.156617627224652"><ele>749.0</ele><time>2026-05-05T11:46:49Z</time></trkpt><trkpt lat="45.87931672208638" lon="14.156562069019706"><ele>749.6666666666666</ele><time>2026-05-05T11:46:50Z</time></trkpt><trkpt lat="45.879110554389285" lon="14.156540765414142"><ele>750.3333333333334</ele><time>2026-05-05T11:46:51Z</time></trkpt><trkpt lat="45.87893024619233" lon="14.156504105234959"><ele>751.0</ele><time>2026-05-05T11:46:52Z</time></trkpt><trkpt lat="45.87880661847502" lon="14.156380290766133"><ele>752.5</ele><time>2026-05-05T11:46:53Z</time></trkpt><trkpt lat="45.87871885447467" lon="14.156240287075695"><ele>754.0</ele><time>2026-05-05T11:46:54Z</time></trkpt><trkpt lat="45.878632441595904" lon="14.156085912691715"><ele>755.5</ele><time>2026-05-05T11:46:55Z</time></trkpt><trkpt lat="45.87854094942742" lon="14.155917553399867"><ele>757.0</ele><time>2026-05-05T11:46:56Z</time></trkpt><trkpt lat="45.87842656296598" lon="14.155752246052339"><ele>761.0</ele><time>2026-05-05T11:46:57Z</time></trkpt><trkpt lat="45.878320858023216" lon="14.155575226401329"><ele>765.0</ele><time>2026-05-05T11:46:58Z</time></trkpt><trkpt lat="45.87821687134472" lon="14.155413430234116"><ele>769.0</ele><time>2026-05-05T11:46:59Z</time></trkpt><trkpt lat="45.87812835474075" lon="14.155239491882032"><ele>769.0</ele><time>2026-05-05T11:47:00Z</time></trkpt><trkpt lat="45.878026389789575" lon="14.155104109415664"><ele>769.0</ele><time>2026-05-05T11:47:01Z</time></trkpt><trkpt lat="45.8779555633935" lon="14.15497640317855"><ele>769.0</ele><time>2026-05-05T11:47:02Z</time></trkpt><trkpt lat="45.877905832335756" lon="14.154847878163466"><ele>769.0</ele><time>2026-05-05T11:47:03Z</time></trkpt><trkpt lat="45.87790911436073" lon="14.1547134198444"><ele>769.0</ele><time>2026-05-05T11:47:04Z</time></trkpt><trkpt lat="45.87792706679941" lon="14.15458548330675"><ele>769.4000000000001</ele><time>2026-05-05T11:47:05Z</time></trkpt><trkpt lat="45.87797064769215" lon="14.154450269189214"><ele>769.8</ele><time>2026-05-05T11:47:06Z</time></trkpt><trkpt lat="45.878029525961" lon="14.154319047283522"><ele>770.2</ele><time>2026-05-05T11:47:07Z</time></trkpt><trkpt lat="45.878091612971275" lon="14.154190342183863"><ele>770.5999999999999</ele><time>2026-05-05T11:47:08Z</time></trkpt><trkpt lat="45.87812679963926" lon="14.15404012611807"><ele>771.0</ele><time>2026-05-05T11:47:09Z</time></trkpt><trkpt lat="45.87816445050311" lon="14.153894777487281"><ele>771.25</ele><time>2026-05-05T11:47:10Z</time></trkpt><trkpt lat="45.87816945615588" lon="14.153739965134928"><ele>771.5</ele><time>2026-05-05T11:47:11Z</time></trkpt><trkpt lat="45.87814681043292" lon="14.153583145785646"><ele>771.75</ele><time>2026-05-05T11:47:12Z</time></trkpt><trkpt lat="45.87808970355456" lon="14.153439316836517"><ele>772.0</ele><time>2026-05-05T11:47:13Z</time></trkpt><trkpt lat="45.8780187345571" lon="14.153286230584497"><ele>772.0</ele><time>2026-05-05T11:47:14Z</time></trkpt><trkpt lat="45.87796594012076" lon="14.153163063928348"><ele>772.0</ele><time>2026-05-05T11:47:15Z</time></trkpt><trkpt lat="45.87792220542749" lon="14.153001143980505"><ele>772.0</ele><time>2026-05-05T11:47:16Z</time></trkpt><trkpt lat="45.877896600837836" lon="14.152807890559735"><ele>772.0</ele><time>2026-05-05T11:47:17Z</time></trkpt><trkpt lat="45.877890742316495" lon="14.152615176509578"><ele>772.0</ele><time>2026-05-05T11:47:18Z</time></trkpt><trkpt lat="45.87789458383126" lon="14.152437607534333"><ele>772.0</ele><time>2026-05-05T11:47:19Z</time></trkpt><trkpt lat="45.87789285848064" lon="14.152266013956902"><ele>772.0</ele><time>2026-05-05T11:47:20Z</time></trkpt><trkpt lat="45.87789550074345" lon="14.152101702148881"><ele>772.0</ele><time>2026-05-05T11:47:21Z</time></trkpt><trkpt lat="45.877899641825984" lon="14.15195177207644"><ele>774.0</ele><time>2026-05-05T11:47:22Z</time></trkpt><trkpt lat="45.87788814100225" lon="14.151809476515009"><ele>776.0</ele><time>2026-05-05T11:47:23Z</time></trkpt><trkpt lat="45.87787316256338" lon="14.151686760997617"><ele>778.0</ele><time>2026-05-05T11:47:24Z</time></trkpt><trkpt lat="45.877846160261" lon="14.15155850327565"><ele>780.0</ele><time>2026-05-05T11:47:25Z</time></trkpt><trkpt lat="45.87780086800888" lon="14.151430419052325"><ele>782.0</ele><time>2026-05-05T11:47:26Z</time></trkpt><trkpt lat="45.877733408893164" lon="14.15132527272467"><ele>782.8</ele><time>2026-05-05T11:47:27Z</time></trkpt><trkpt lat="45.877645838536175" lon="14.151262487351314"><ele>783.6</ele><time>2026-05-05T11:47:28Z</time></trkpt><trkpt lat="45.877557178898144" lon="14.151196813957448"><ele>784.4</ele><time>2026-05-05T11:47:29Z</time></trkpt><trkpt lat="45.87746833981991" lon="14.151112666231462"><ele>785.1999999999999</ele><time>2026-05-05T11:47:30Z</time></trkpt><trkpt lat="45.87740869287133" lon="14.151013575841112"><ele>786.0</ele><time>2026-05-05T11:47:31Z</time></trkpt><trkpt lat="45.877368060507166" lon="14.150891130057083"><ele>786.0</ele><time>2026-05-05T11:47:32Z</time></trkpt><trkpt lat="45.87733169583566" lon="14.150718637405651"><ele>786.0</ele><time>2026-05-05T11:47:33Z</time></trkpt><trkpt lat="45.87728434910449" lon="14.150544658106746"><ele>786.0</ele><time>2026-05-05T11:47:34Z</time></trkpt><trkpt lat="45.87723196899757" lon="14.150381338978423"><ele>786.0</ele><time>2026-05-05T11:47:35Z</time></trkpt><trkpt lat="45.877170293751135" lon="14.150249688907664"><ele>787.5999999999999</ele><time>2026-05-05T11:47:36Z</time></trkpt><trkpt lat="45.87710708076945" lon="14.150135317447043"><ele>789.2</ele><time>2026-05-05T11:47:37Z</time></trkpt><trkpt lat="45.87704537850252" lon="14.150017456160406"><ele>790.8</ele><time>2026-05-05T11:47:38Z</time></trkpt><trkpt lat="45.87699307206747" lon="14.149883753992516"><ele>792.4000000000001</ele><time>2026-05-05T11:47:39Z</time></trkpt><trkpt lat="45.876953938459806" lon="14.149713642746006"><ele>794.0</ele><time>2026-05-05T11:47:40Z</time></trkpt><trkpt lat="45.876925259024006" lon="14.149518214836124"><ele>796.0</ele><time>2026-05-05T11:47:41Z</time></trkpt><trkpt lat="45.87692142980329" lon="14.14927691467456"><ele>798.0</ele><time>2026-05-05T11:47:42Z</time></trkpt><trkpt lat="45.87689236976378" lon="14.148990916503264"><ele>800.0</ele><time>2026-05-05T11:47:43Z</time></trkpt><trkpt lat="45.87684957384878" lon="14.148681013447947"><ele>801.0</ele><time>2026-05-05T11:47:44Z</time></trkpt><trkpt lat="45.87679577811354" lon="14.148392106796376"><ele>802.0</ele><time>2026-05-05T11:47:45Z</time></trkpt><trkpt lat="45.87675092715937" lon="14.148143552303349"><ele>803.0</ele><time>2026-05-05T11:47:46Z</time></trkpt><trkpt lat="45.87672029302908" lon="14.147933394935698"><ele>801.4</ele><time>2026-05-05T11:47:47Z</time></trkpt><trkpt lat="45.87669533412772" lon="14.1477730208885"><ele>799.8</ele><time>2026-05-05T11:47:48Z</time></trkpt><trkpt lat="45.8766758199587" lon="14.147642059058649"><ele>798.2</ele><time>2026-05-05T11:47:49Z</time></trkpt><trkpt lat="45.87665666114721" lon="14.147507095527269"><ele>796.6</ele><time>2026-05-05T11:47:50Z</time></trkpt><trkpt lat="45.8766261048389" lon="14.147370070183122"><ele>795.0</ele><time>2026-05-05T11:47:51Z</time></trkpt><trkpt lat="45.87656683088941" lon="14.147237110306367"><ele>795.0</ele><time>2026-05-05T11:47:52Z</time></trkpt><trkpt lat="45.876490358795245" lon="14.147126785983772"><ele>795.0</ele><time>2026-05-05T11:47:53Z</time></trkpt><trkpt lat="45.87640446045962" lon="14.14704072213959"><ele>795.0</ele><time>2026-05-05T11:47:54Z</time></trkpt><trkpt lat="45.87631675922184" lon="14.14697501472021"><ele>795.0</ele><time>2026-05-05T11:47:55Z</time></trkpt><trkpt lat="45.87624771548275" lon="14.146866879751029"><ele>795.0</ele><time>2026-05-05T11:47:56Z</time></trkpt><trkpt lat="45.876190825107415" lon="14.146744992218421"><ele>795.0</ele><time>2026-05-05T11:47:57Z</time></trkpt><trkpt lat="45.87612902135063" lon="14.14660329360422"><ele>795.0</ele><time>2026-05-05T11:47:58Z</time></trkpt><trkpt lat="45.876115857289776" lon="14.146406785703018"><ele>795.0</ele><time>2026-05-05T11:47:59Z</time></trkpt><trkpt lat="45.876079385356896" lon="14.146168207856368"><ele>795.0</ele><time>2026-05-05T11:48:00Z</time></trkpt><trkpt lat="45.87600012641349" lon="14.145880660137085"><ele>791.0</ele><time>2026-05-05T11:48:01Z</time></trkpt><trkpt lat="45.875898388965176" lon="14.145576904875954"><ele>787.0</ele><time>2026-05-05T11:48:02Z</time></trkpt><trkpt lat="45.87587314265741" lon="14.145309336120212"><ele>783.0</ele><time>2026-05-05T11:48:03Z</time></trkpt><trkpt lat="45.875858294481816" lon="14.145069066623078"><ele>785.3333333333333</ele><time>2026-05-05T11:48:04Z</time></trkpt><trkpt lat="45.875849683910474" lon="14.144848108353333"><ele>787.6666666666666</ele><time>2026-05-05T11:48:05Z</time></trkpt><trkpt lat="45.875821505600555" lon="14.144577698095377"><ele>790.0</ele><time>2026-05-05T11:48:06Z</time></trkpt><trkpt lat="45.87577072326097" lon="14.144267470787037"><ele>795.3333333333333</ele><time>2026-05-05T11:48:07Z</time></trkpt><trkpt lat="45.875686461581424" lon="14.143997369618711"><ele>800.6666666666667</ele><time>2026-05-05T11:48:08Z</time></trkpt><trkpt lat="45.875595292856346" lon="14.14379716062016"><ele>806.0</ele><time>2026-05-05T11:48:09Z</time></trkpt><trkpt lat="45.875480094802306" lon="14.143669226076115"><ele>806.0</ele><time>2026-05-05T11:48:10Z</time></trkpt><trkpt lat="45.87535294671417" lon="14.14358267292095"><ele>806.0</ele><time>2026-05-05T11:48:11Z</time></trkpt><trkpt lat="45.87525747018248" lon="14.14346999137582"><ele>806.0</ele><time>2026-05-05T11:48:12Z</time></trkpt><trkpt lat="45.87520943166446" lon="14.143291415531545"><ele>806.0</ele><time>2026-05-05T11:48:13Z</time></trkpt><trkpt lat="45.87511923130897" lon="14.143141615983582"><ele>809.0</ele><time>2026-05-05T11:48:14Z</time></trkpt><trkpt lat="45.87503086848158" lon="14.143003238860334"><ele>812.0</ele><time>2026-05-05T11:48:15Z</time></trkpt><trkpt lat="45.87490713030277" lon="14.142907318940978"><ele>815.0</ele><time>2026-05-05T11:48:16Z</time></trkpt><trkpt lat="45.87476068886565" lon="14.142848242974654"><ele>818.0</ele><time>2026-05-05T11:48:17Z</time></trkpt><trkpt lat="45.874622916558955" lon="14.142814465337684"><ele>818.0</ele><time>2026-05-05T11:48:18Z</time></trkpt><trkpt lat="45.87452259429132" lon="14.142733741952055"><ele>818.0</ele><time>2026-05-05T11:48:19Z</time></trkpt><trkpt lat="45.874461018207626" lon="14.142607312769547"><ele>818.0</ele><time>2026-05-05T11:48:20Z</time></trkpt><trkpt lat="45.87443510222806" lon="14.14244402804087"><ele>818.0</ele><time>2026-05-05T11:48:21Z</time></trkpt><trkpt lat="45.874400185825685" lon="14.142252385561923"><ele>820.0</ele><time>2026-05-05T11:48:22Z</time></trkpt><trkpt lat="45.87431971981039" lon="14.142042529947798"><ele>822.0</ele><time>2026-05-05T11:48:23Z</time></trkpt><trkpt lat="45.87421296810089" lon="14.14183775082576"><ele>824.0</ele><time>2026-05-05T11:48:24Z</time></trkpt><trkpt lat="45.87409844644664" lon="14.141622493155197"><ele>825.5</ele><time>2026-05-05T11:48:25Z</time></trkpt><trkpt lat="45.87399825957188" lon="14.141465753998647"><ele>827.0</ele><time>2026-05-05T11:48:26Z</time></trkpt><trkpt lat="45.873962609954845" lon="14.141303096705336"><ele>828.5</ele><time>2026-05-05T11:48:27Z</time></trkpt><trkpt lat="45.87394638132346" lon="14.141156688775403"><ele>830.0</ele><time>2026-05-05T11:48:28Z</time></trkpt><trkpt lat="45.87399213326169" lon="14.141008807683269"><ele>830.0</ele><time>2026-05-05T11:48:29Z</time></trkpt><trkpt lat="45.874012266163035" lon="14.14084503938657"><ele>830.0</ele><time>2026-05-05T11:48:30Z</time></trkpt><trkpt lat="45.87399814249097" lon="14.140681196020413"><ele>830.0</ele><time>2026-05-05T11:48:31Z</time></trkpt><trkpt lat="45.87394821629677" lon="14.140534122433952"><ele>830.0</ele><time>2026-05-05T11:48:32Z</time></trkpt><trkpt lat="45.87386045752933" lon="14.140434044116091"><ele>832.3333333333334</ele><time>2026-05-05T11:48:33Z</time></trkpt><trkpt lat="45.87373416267361" lon="14.14037075521347"><ele>834.6666666666667</ele><time>2026-05-05T11:48:34Z</time></trkpt><trkpt lat="45.87357448131252" lon="14.140309317911123"><ele>837.0</ele><time>2026-05-05T11:48:35Z</time></trkpt><trkpt lat="45.87338802903194" lon="14.140170326648388"><ele>837.0</ele><time>2026-05-05T11:48:36Z</time></trkpt><trkpt lat="45.873207456768135" lon="14.140027134663267"><ele>837.0</ele><time>2026-05-05T11:48:37Z</time></trkpt><trkpt lat="45.87309486782706" lon="14.139887421826122"><ele>837.0</ele><time>2026-05-05T11:48:38Z</time></trkpt><trkpt lat="45.873021464500006" lon="14.139740621105156"><ele>838.75</ele><time>2026-05-05T11:48:39Z</time></trkpt><trkpt lat="45.87298048482598" lon="14.139568280520693"><ele>840.5</ele><time>2026-05-05T11:48:40Z</time></trkpt><trkpt lat="45.872919959203784" lon="14.139384641604126"><ele>842.25</ele><time>2026-05-05T11:48:41Z</time></trkpt><trkpt lat="45.87283122074482" lon="14.139200573124576"><ele>844.0</ele><time>2026-05-05T11:48:42Z</time></trkpt><trkpt lat="45.87274826018317" lon="14.139019578977418"><ele>847.25</ele><time>2026-05-05T11:48:43Z</time></trkpt><trkpt lat="45.87268328842908" lon="14.138851611154625"><ele>850.5</ele><time>2026-05-05T11:48:44Z</time></trkpt><trkpt lat="45.87263658625106" lon="14.138696002424876"><ele>853.75</ele><time>2026-05-05T11:48:45Z</time></trkpt><trkpt lat="45.87262433711782" lon="14.138534511430036"><ele>857.0</ele><time>2026-05-05T11:48:46Z</time></trkpt><trkpt lat="45.87264339055089" lon="14.138367664973233"><ele>856.0</ele><time>2026-05-05T11:48:47Z</time></trkpt><trkpt lat="45.87268688911918" lon="14.13818727637484"><ele>855.0</ele><time>2026-05-05T11:48:48Z</time></trkpt><trkpt lat="45.87269789159524" lon="14.137976741587048"><ele>854.0</ele><time>2026-05-05T11:48:49Z</time></trkpt><trkpt lat="45.87269622127442" lon="14.137763685266663"><ele>853.0</ele><time>2026-05-05T11:48:50Z</time></trkpt><trkpt lat="45.872658028604555" lon="14.13755262598282"><ele>848.25</ele><time>2026-05-05T11:48:51Z</time></trkpt><trkpt lat="45.87260313292385" lon="14.137359572122158"><ele>843.5</ele><time>2026-05-05T11:48:52Z</time></trkpt><trkpt lat="45.87257051996841" lon="14.13718169148627"><ele>838.75</ele><time>2026-05-05T11:48:53Z</time></trkpt><trkpt lat="45.87251645650164" lon="14.137035197959907"><ele>834.0</ele><time>2026-05-05T11:48:54Z</time></trkpt><trkpt lat="45.87248927163573" lon="14.136879936537552"><ele>834.0</ele><time>2026-05-05T11:48:55Z</time></trkpt><trkpt lat="45.87247835782718" lon="14.13672176705755"><ele>834.0</ele><time>2026-05-05T11:48:56Z</time></trkpt><trkpt lat="45.872492451672905" lon="14.13656430312348"><ele>834.0</ele><time>2026-05-05T11:48:57Z</time></trkpt><trkpt lat="45.8725342345285" lon="14.13642427984911"><ele>834.0</ele><time>2026-05-05T11:48:58Z</time></trkpt><trkpt lat="45.87259805066301" lon="14.13630025559334"><ele>834.0</ele><time>2026-05-05T11:48:59Z</time></trkpt><trkpt lat="45.87267636343907" lon="14.136185370434244"><ele>839.25</ele><time>2026-05-05T11:49:00Z</time></trkpt><trkpt lat="45.87276229903858" lon="14.136061173583254"><ele>844.5</ele><time>2026-05-05T11:49:01Z</time></trkpt><trkpt lat="45.872838020598316" lon="14.135912855207504"><ele>849.75</ele><time>2026-05-05T11:49:02Z</time></trkpt><trkpt lat="45.872910824573935" lon="14.135749262883062"><ele>855.0</ele><time>2026-05-05T11:49:03Z</time></trkpt><trkpt lat="45.87294272681851" lon="14.135548054851013"><ele>855.0</ele><time>2026-05-05T11:49:04Z</time></trkpt><trkpt lat="45.87294830817599" lon="14.13535177390799"><ele>855.0</ele><time>2026-05-05T11:49:05Z</time></trkpt><trkpt lat="45.872967725174504" lon="14.135163937308482"><ele>855.0</ele><time>2026-05-05T11:49:06Z</time></trkpt><trkpt lat="45.87299393220908" lon="14.134975662230005"><ele>855.0</ele><time>2026-05-05T11:49:07Z</time></trkpt><trkpt lat="45.87302059315333" lon="14.134791060210437"><ele>853.75</ele><time>2026-05-05T11:49:08Z</time></trkpt><trkpt lat="45.87305115913749" lon="14.134622340675266"><ele>852.5</ele><time>2026-05-05T11:49:09Z</time></trkpt><trkpt lat="45.87307915396892" lon="14.134449799726893"><ele>851.25</ele><time>2026-05-05T11:49:10Z</time></trkpt><trkpt lat="45.87310877174205" lon="14.134289179350773"><ele>850.0</ele><time>2026-05-05T11:49:11Z</time></trkpt><trkpt lat="45.873134932469554" lon="14.134147954029185"><ele>849.2</ele><time>2026-05-05T11:49:12Z</time></trkpt><trkpt lat="45.87315210315349" lon="14.134012597372351"><ele>848.4</ele><time>2026-05-05T11:49:13Z</time></trkpt><trkpt lat="45.87317545673278" lon="14.133878001155338"><ele>847.5999999999999</ele><time>2026-05-05T11:49:14Z</time></trkpt><trkpt lat="45.873203208242145" lon="14.133748193188989"><ele>846.8</ele><time>2026-05-05T11:49:15Z</time></trkpt><trkpt lat="45.87323867800494" lon="14.133626037652697"><ele>846.0</ele><time>2026-05-05T11:49:16Z</time></trkpt><trkpt lat="45.873298365081844" lon="14.133521714669776"><ele>846.0</ele><time>2026-05-05T11:49:17Z</time></trkpt><trkpt lat="45.87334849393318" lon="14.133406133219031"><ele>846.0</ele><time>2026-05-05T11:49:18Z</time></trkpt><trkpt lat="45.87339084142252" lon="14.133278281933768"><ele>846.0</ele><time>2026-05-05T11:49:19Z</time></trkpt><trkpt lat="45.873416949436184" lon="14.133127196631401"><ele>846.0</ele><time>2026-05-05T11:49:20Z</time></trkpt><trkpt lat="45.87340514566954" lon="14.132968577216394"><ele>846.0</ele><time>2026-05-05T11:49:21Z</time></trkpt><trkpt lat="45.87336170667216" lon="14.13282161543741"><ele>845.25</ele><time>2026-05-05T11:49:22Z</time></trkpt><trkpt lat="45.873259469521535" lon="14.132696862497095"><ele>844.5</ele><time>2026-05-05T11:49:23Z</time></trkpt><trkpt lat="45.87314255075217" lon="14.132611758808237"><ele>843.75</ele><time>2026-05-05T11:49:24Z</time></trkpt><trkpt lat="45.8730207479405" lon="14.132494172613306"><ele>843.0</ele><time>2026-05-05T11:49:25Z</time></trkpt><trkpt lat="45.872875262956406" lon="14.132364199331038"><ele>842.6666666666667</ele><time>2026-05-05T11:49:26Z</time></trkpt><trkpt lat="45.872715200015875" lon="14.132209429632466"><ele>842.3333333333334</ele><time>2026-05-05T11:49:27Z</time></trkpt><trkpt lat="45.87254691240953" lon="14.132045148616559"><ele>842.0</ele><time>2026-05-05T11:49:28Z</time></trkpt><trkpt lat="45.87237555531085" lon="14.13189754302665"><ele>842.0</ele><time>2026-05-05T11:49:29Z</time></trkpt><trkpt lat="45.872201876279895" lon="14.131782683436098"><ele>842.0</ele><time>2026-05-05T11:49:30Z</time></trkpt><trkpt lat="45.872051283680534" lon="14.131630083897987"><ele>842.0</ele><time>2026-05-05T11:49:31Z</time></trkpt><trkpt lat="45.87189963197036" lon="14.1314808254809"><ele>840.6666666666667</ele><time>2026-05-05T11:49:32Z</time></trkpt><trkpt lat="45.87174304182508" lon="14.131333374705074"><ele>839.3333333333333</ele><time>2026-05-05T11:49:33Z</time></trkpt><trkpt lat="45.87159503526902" lon="14.131208470754869"><ele>838.0</ele><time>2026-05-05T11:49:34Z</time></trkpt><trkpt lat="45.87144875488086" lon="14.131094862121671"><ele>838.0</ele><time>2026-05-05T11:49:35Z</time></trkpt><trkpt lat="45.871307037266966" lon="14.131003193800808"><ele>838.0</ele><time>2026-05-05T11:49:36Z</time></trkpt><trkpt lat="45.871178794682024" lon="14.13092021972142"><ele>838.0</ele><time>2026-05-05T11:49:37Z</time></trkpt><trkpt lat="45.871054277888554" lon="14.130839641200684"><ele>838.0</ele><time>2026-05-05T11:49:38Z</time></trkpt><trkpt lat="45.870925970163626" lon="14.130756618730542"><ele>838.6666666666666</ele><time>2026-05-05T11:49:39Z</time></trkpt><trkpt lat="45.870766490181126" lon="14.130743815927051"><ele>839.3333333333333</ele><time>2026-05-05T11:49:40Z</time></trkpt><trkpt lat="45.870648199233884" lon="14.13058522058502"><ele>840.0</ele><time>2026-05-05T11:49:41Z</time></trkpt><trkpt lat="45.87054636039247" lon="14.130402070353366"><ele>840.0</ele><time>2026-05-05T11:49:42Z</time></trkpt><trkpt lat="45.870454206224075" lon="14.13020816410725"><ele>840.0</ele><time>2026-05-05T11:49:43Z</time></trkpt><trkpt lat="45.87035136832734" lon="14.13003426014693"><ele>840.0</ele><time>2026-05-05T11:49:44Z</time></trkpt><trkpt lat="45.87024491302787" lon="14.129883447756384"><ele>841.0</ele><time>2026-05-05T11:49:45Z</time></trkpt><trkpt lat="45.87013775281839" lon="14.12977064297068"><ele>842.0</ele><time>2026-05-05T11:49:46Z</time></trkpt><trkpt lat="45.870008995991796" lon="14.129665012578306"><ele>843.0</ele><time>2026-05-05T11:49:47Z</time></trkpt><trkpt lat="45.86986411221086" lon="14.129603252255157"><ele>844.0</ele><time>2026-05-05T11:49:48Z</time></trkpt><trkpt lat="45.86972978846285" lon="14.129549860772096"><ele>844.0</ele><time>2026-05-05T11:49:49Z</time></trkpt><trkpt lat="45.86960696958941" lon="14.129492582587948"><ele>844.0</ele><time>2026-05-05T11:49:50Z</time></trkpt><trkpt lat="45.86949940583615" lon="14.129406891552104"><ele>844.0</ele><time>2026-05-05T11:49:51Z</time></trkpt><trkpt lat="45.86942965400862" lon="14.129261887393016"><ele>844.0</ele><time>2026-05-05T11:49:52Z</time></trkpt><trkpt lat="45.86936325175988" lon="14.129118514278554"><ele>844.75</ele><time>2026-05-05T11:49:53Z</time></trkpt><trkpt lat="45.86932698461131" lon="14.128953671103615"><ele>845.5</ele><time>2026-05-05T11:49:54Z</time></trkpt><trkpt lat="45.869322668613265" lon="14.128756624511503"><ele>846.25</ele><time>2026-05-05T11:49:55Z</time></trkpt><trkpt lat="45.86933034369549" lon="14.128547212147895"><ele>847.0</ele><time>2026-05-05T11:49:56Z</time></trkpt><trkpt lat="45.86935726295436" lon="14.128298685895274"><ele>847.3333333333333</ele><time>2026-05-05T11:49:57Z</time></trkpt><trkpt lat="45.86937200604715" lon="14.128036721752"><ele>847.6666666666667</ele><time>2026-05-05T11:49:58Z</time></trkpt><trkpt lat="45.869382329813696" lon="14.127765008638479"><ele>848.0</ele><time>2026-05-05T11:49:59Z</time></trkpt><trkpt lat="45.869380683604525" lon="14.127512896191988"><ele>848.3333333333334</ele><time>2026-05-05T11:50:00Z</time></trkpt><trkpt lat="45.8693859771264" lon="14.127263918350607"><ele>848.6666666666667</ele><time>2026-05-05T11:50:01Z</time></trkpt><trkpt lat="45.86939081804997" lon="14.127012431156189"><ele>849.0</ele><time>2026-05-05T11:50:02Z</time></trkpt><trkpt lat="45.86940508064911" lon="14.126774717697835"><ele>849.0</ele><time>2026-05-05T11:50:03Z</time></trkpt><trkpt lat="45.86939639810547" lon="14.126565872220112"><ele>849.0</ele><time>2026-05-05T11:50:04Z</time></trkpt><trkpt lat="45.86935746077162" lon="14.126384325203327"><ele>849.0</ele><time>2026-05-05T11:50:05Z</time></trkpt><trkpt lat="45.86928063370135" lon="14.126226306787643"><ele>849.0</ele><time>2026-05-05T11:50:06Z</time></trkpt><trkpt lat="45.86917077710385" lon="14.126084497267376"><ele>846.3333333333333</ele><time>2026-05-05T11:50:07Z</time></trkpt><trkpt lat="45.86902158481214" lon="14.125942815084787"><ele>843.6666666666666</ele><time>2026-05-05T11:50:08Z</time></trkpt><trkpt lat="45.86885498943988" lon="14.125783590756571"><ele>841.0</ele><time>2026-05-05T11:50:09Z</time></trkpt><trkpt lat="45.86868520930737" lon="14.125613261377058"><ele>841.0</ele><time>2026-05-05T11:50:10Z</time></trkpt><trkpt lat="45.86853526652987" lon="14.125392091425445"><ele>841.0</ele><time>2026-05-05T11:50:11Z</time></trkpt><trkpt lat="45.8684131356661" lon="14.125125180582026"><ele>841.0</ele><time>2026-05-05T11:50:12Z</time></trkpt><trkpt lat="45.86829615267329" lon="14.124869202641891"><ele>841.0</ele><time>2026-05-05T11:50:13Z</time></trkpt><trkpt lat="45.86818262399142" lon="14.124679170988518"><ele>841.0</ele><time>2026-05-05T11:50:14Z</time></trkpt><trkpt lat="45.86808083940164" lon="14.124486826811365"><ele>841.0</ele><time>2026-05-05T11:50:15Z</time></trkpt><trkpt lat="45.86799472331838" lon="14.12430592961233"><ele>841.0</ele><time>2026-05-05T11:50:16Z</time></trkpt><trkpt lat="45.867886061271804" lon="14.124159747323475"><ele>841.0</ele><time>2026-05-05T11:50:17Z</time></trkpt><trkpt lat="45.86776247654015" lon="14.124070766796043"><ele>841.0</ele><time>2026-05-05T11:50:18Z</time></trkpt><trkpt lat="45.86764063789774" lon="14.123989463443163"><ele>841.0</ele><time>2026-05-05T11:50:19Z</time></trkpt><trkpt lat="45.86752957089026" lon="14.123887254119351"><ele>841.0</ele><time>2026-05-05T11:50:20Z</time></trkpt><trkpt lat="45.86744316494535" lon="14.123736761644544"><ele>841.0</ele><time>2026-05-05T11:50:21Z</time></trkpt><trkpt lat="45.86737014704666" lon="14.123571396050098"><ele>841.0</ele><time>2026-05-05T11:50:22Z</time></trkpt><trkpt lat="45.86727044028501" lon="14.123433785904947"><ele>841.0</ele><time>2026-05-05T11:50:23Z</time></trkpt><trkpt lat="45.86714169494559" lon="14.12333355463618"><ele>841.0</ele><time>2026-05-05T11:50:24Z</time></trkpt><trkpt lat="45.86701670685085" lon="14.12326882529889"><ele>841.0</ele><time>2026-05-05T11:50:25Z</time></trkpt><trkpt lat="45.866892545472915" lon="14.123266553963107"><ele>841.0</ele><time>2026-05-05T11:50:26Z</time></trkpt><trkpt lat="45.86671446689927" lon="14.123285217955091"><ele>841.0</ele><time>2026-05-05T11:50:27Z</time></trkpt><trkpt lat="45.866505599647105" lon="14.12330459392814"><ele>838.0</ele><time>2026-05-05T11:50:28Z</time></trkpt><trkpt lat="45.86629130194849" lon="14.123296857848308"><ele>835.0</ele><time>2026-05-05T11:50:29Z</time></trkpt><trkpt lat="45.8660965361858" lon="14.12326856738657"><ele>832.0</ele><time>2026-05-05T11:50:30Z</time></trkpt><trkpt lat="45.86593173684448" lon="14.123227990374847"><ele>838.6666666666666</ele><time>2026-05-05T11:50:31Z</time></trkpt><trkpt lat="45.86578935337396" lon="14.123171104558335"><ele>845.3333333333333</ele><time>2026-05-05T11:50:32Z</time></trkpt><trkpt lat="45.86565267174634" lon="14.123083152212072"><ele>852.0</ele><time>2026-05-05T11:50:33Z</time></trkpt><trkpt lat="45.8654949311684" lon="14.12299118739817"><ele>852.0</ele><time>2026-05-05T11:50:34Z</time></trkpt><trkpt lat="45.86533594156759" lon="14.122876351262683"><ele>852.0</ele><time>2026-05-05T11:50:35Z</time></trkpt><trkpt lat="45.86517824297537" lon="14.122736609065532"><ele>852.0</ele><time>2026-05-05T11:50:36Z</time></trkpt><trkpt lat="45.8650430420131" lon="14.122583173131485"><ele>850.3333333333333</ele><time>2026-05-05T11:50:37Z</time></trkpt><trkpt lat="45.86493664486055" lon="14.122415271688865"><ele>848.6666666666666</ele><time>2026-05-05T11:50:38Z</time></trkpt><trkpt lat="45.864857801411006" lon="14.122220652800173"><ele>847.0</ele><time>2026-05-05T11:50:39Z</time></trkpt><trkpt lat="45.86479993290239" lon="14.122018091555088"><ele>847.0</ele><time>2026-05-05T11:50:40Z</time></trkpt><trkpt lat="45.864741120925004" lon="14.121813355614691"><ele>847.0</ele><time>2026-05-05T11:50:41Z</time></trkpt><trkpt lat="45.86468908838183" lon="14.121603534101673"><ele>847.0</ele><time>2026-05-05T11:50:42Z</time></trkpt><trkpt lat="45.86464286388066" lon="14.121376848550184"><ele>847.3333333333333</ele><time>2026-05-05T11:50:43Z</time></trkpt><trkpt lat="45.86460820703169" lon="14.121134068657648"><ele>847.6666666666667</ele><time>2026-05-05T11:50:44Z</time></trkpt><trkpt lat="45.86460380095955" lon="14.120888508467981"><ele>848.0</ele><time>2026-05-05T11:50:45Z</time></trkpt><trkpt lat="45.86466001470358" lon="14.120657373560134"><ele>848.0</ele><time>2026-05-05T11:50:46Z</time></trkpt><trkpt lat="45.86471687522445" lon="14.120417087558089"><ele>848.0</ele><time>2026-05-05T11:50:47Z</time></trkpt><trkpt lat="45.864795342153585" lon="14.120160458565259"><ele>848.0</ele><time>2026-05-05T11:50:48Z</time></trkpt><trkpt lat="45.86485744686729" lon="14.119849463827284"><ele>847.0</ele><time>2026-05-05T11:50:49Z</time></trkpt><trkpt lat="45.86486154838744" lon="14.119494422822468"><ele>846.0</ele><time>2026-05-05T11:50:50Z</time></trkpt><trkpt lat="45.864881562196835" lon="14.119133226155256"><ele>845.0</ele><time>2026-05-05T11:50:51Z</time></trkpt><trkpt lat="45.86494111722645" lon="14.11881108517961"><ele>844.0</ele><time>2026-05-05T11:50:52Z</time></trkpt><trkpt lat="45.86498784876611" lon="14.118509476241723"><ele>843.0</ele><time>2026-05-05T11:50:53Z</time></trkpt><trkpt lat="45.86503622146842" lon="14.118222260890493"><ele>841.3333333333333</ele><time>2026-05-05T11:50:54Z</time></trkpt><trkpt lat="45.865087729712954" lon="14.117956020556194"><ele>839.6666666666666</ele><time>2026-05-05T11:50:55Z</time></trkpt><trkpt lat="45.865154380672635" lon="14.117712128123383"><ele>838.0</ele><time>2026-05-05T11:50:56Z</time></trkpt><trkpt lat="45.865214079926965" lon="14.11746704284233"><ele>847.6666666666666</ele><time>2026-05-05T11:50:57Z</time></trkpt><trkpt lat="45.865218935473735" lon="14.117212062447758"><ele>857.3333333333333</ele><time>2026-05-05T11:50:58Z</time></trkpt><trkpt lat="45.86523576557303" lon="14.116970831089686"><ele>867.0</ele><time>2026-05-05T11:50:59Z</time></trkpt><trkpt lat="45.865267175399076" lon="14.116747638118445"><ele>865.0</ele><time>2026-05-05T11:51:00Z</time></trkpt><trkpt lat="45.86528584375397" lon="14.116522685519875"><ele>863.0</ele><time>2026-05-05T11:51:01Z</time></trkpt><trkpt lat="45.86530374670286" lon="14.11629676459881"><ele>861.0</ele><time>2026-05-05T11:51:02Z</time></trkpt><trkpt lat="45.86530315556705" lon="14.116074094085176"><ele>861.0</ele><time>2026-05-05T11:51:03Z</time></trkpt><trkpt lat="45.86531344017352" lon="14.115876742206687"><ele>861.0</ele><time>2026-05-05T11:51:04Z</time></trkpt><trkpt lat="45.86535428072664" lon="14.115705230652566"><ele>861.0</ele><time>2026-05-05T11:51:05Z</time></trkpt><trkpt lat="45.86541950645761" lon="14.115575557231788"><ele>861.0</ele><time>2026-05-05T11:51:06Z</time></trkpt><trkpt lat="45.86549251262416" lon="14.115430882174438"><ele>858.75</ele><time>2026-05-05T11:51:07Z</time></trkpt><trkpt lat="45.86553181615192" lon="14.115254805826611"><ele>856.5</ele><time>2026-05-05T11:51:08Z</time></trkpt><trkpt lat="45.86555980498089" lon="14.115070868026068"><ele>854.25</ele><time>2026-05-05T11:51:09Z</time></trkpt><trkpt lat="45.86555056646724" lon="14.114870396128964"><ele>852.0</ele><time>2026-05-05T11:51:10Z</time></trkpt><trkpt lat="45.86552026673395" lon="14.114669291551552"><ele>851.3333333333333</ele><time>2026-05-05T11:51:11Z</time></trkpt><trkpt lat="45.86546672200878" lon="14.114474926838108"><ele>850.6666666666666</ele><time>2026-05-05T11:51:12Z</time></trkpt><trkpt lat="45.86538839736925" lon="14.114291525574673"><ele>850.0</ele><time>2026-05-05T11:51:13Z</time></trkpt><trkpt lat="45.86527593405967" lon="14.114125778624995"><ele>854.6666666666666</ele><time>2026-05-05T11:51:14Z</time></trkpt><trkpt lat="45.865137085432906" lon="14.11397174093766"><ele>859.3333333333333</ele><time>2026-05-05T11:51:15Z</time></trkpt><trkpt lat="45.86497329661996" lon="14.11381861956709"><ele>864.0</ele><time>2026-05-05T11:51:16Z</time></trkpt><trkpt lat="45.864788439072754" lon="14.113664036422536"><ele>864.5</ele><time>2026-05-05T11:51:17Z</time></trkpt><trkpt lat="45.864591145636986" lon="14.113502840092021"><ele>865.0</ele><time>2026-05-05T11:51:18Z</time></trkpt><trkpt lat="45.86439960772588" lon="14.113303777203717"><ele>869.0</ele><time>2026-05-05T11:51:19Z</time></trkpt><trkpt lat="45.86419782513479" lon="14.113150804427374"><ele>873.0</ele><time>2026-05-05T11:51:20Z</time></trkpt><trkpt lat="45.86403579978276" lon="14.113005464456691"><ele>877.0</ele><time>2026-05-05T11:51:21Z</time></trkpt><trkpt lat="45.86390808830428" lon="14.112854692193741"><ele>877.0</ele><time>2026-05-05T11:51:22Z</time></trkpt><trkpt lat="45.863799642081936" lon="14.112735260891418"><ele>877.0</ele><time>2026-05-05T11:51:23Z</time></trkpt><trkpt lat="45.86371838924905" lon="14.112622105662274"><ele>877.0</ele><time>2026-05-05T11:51:24Z</time></trkpt><trkpt lat="45.86368392663049" lon="14.112527867322619"><ele>877.0</ele><time>2026-05-05T11:51:25Z</time></trkpt><trkpt lat="45.863687780346616" lon="14.112423129217227"><ele>877.0</ele><time>2026-05-05T11:51:26Z</time></trkpt><trkpt lat="45.863705093480945" lon="14.11229502040032"><ele>879.25</ele><time>2026-05-05T11:51:27Z</time></trkpt><trkpt lat="45.863689850504024" lon="14.112136769944511"><ele>881.5</ele><time>2026-05-05T11:51:28Z</time></trkpt><trkpt lat="45.86363286830157" lon="14.111963472712441"><ele>883.75</ele><time>2026-05-05T11:51:29Z</time></trkpt><trkpt lat="45.86359082670805" lon="14.11178954945425"><ele>886.0</ele><time>2026-05-05T11:51:30Z</time></trkpt><trkpt lat="45.86357811521744" lon="14.111632717013997"><ele>884.75</ele><time>2026-05-05T11:51:31Z</time></trkpt><trkpt lat="45.86355172941803" lon="14.111475762349338"><ele>883.5</ele><time>2026-05-05T11:51:32Z</time></trkpt><trkpt lat="45.863549029980575" lon="14.111291678837253"><ele>882.25</ele><time>2026-05-05T11:51:33Z</time></trkpt><trkpt lat="45.86358872647968" lon="14.111119138853331"><ele>881.0</ele><time>2026-05-05T11:51:34Z</time></trkpt><trkpt lat="45.8636269741095" lon="14.110973777114612"><ele>881.0</ele><time>2026-05-05T11:51:35Z</time></trkpt><trkpt lat="45.86369298624593" lon="14.110848541487165"><ele>881.0</ele><time>2026-05-05T11:51:36Z</time></trkpt><trkpt lat="45.86373503804603" lon="14.110685901977211"><ele>881.0</ele><time>2026-05-05T11:51:37Z</time></trkpt><trkpt lat="45.86377609157521" lon="14.110514040187553"><ele>881.0</ele><time>2026-05-05T11:51:38Z</time></trkpt><trkpt lat="45.86379433357368" lon="14.110308191335614"><ele>878.5</ele><time>2026-05-05T11:51:39Z</time></trkpt><trkpt lat="45.8638066209028" lon="14.110096487199632"><ele>876.0</ele><time>2026-05-05T11:51:40Z</time></trkpt><trkpt lat="45.86380781157882" lon="14.109888344341313"><ele>873.5</ele><time>2026-05-05T11:51:41Z</time></trkpt><trkpt lat="45.8637887667559" lon="14.109687037436027"><ele>871.0</ele><time>2026-05-05T11:51:42Z</time></trkpt><trkpt lat="45.86375205436272" lon="14.109484878579446"><ele>869.25</ele><time>2026-05-05T11:51:43Z</time></trkpt><trkpt lat="45.863704409198135" lon="14.109277037506367"><ele>867.5</ele><time>2026-05-05T11:51:44Z</time></trkpt><trkpt lat="45.86368156936321" lon="14.109078103596188"><ele>865.75</ele><time>2026-05-05T11:51:45Z</time></trkpt><trkpt lat="45.86370648674537" lon="14.108871382102176"><ele>864.0</ele><time>2026-05-05T11:51:46Z</time></trkpt><trkpt lat="45.86374246458617" lon="14.108654734325755"><ele>863.6666666666667</ele><time>2026-05-05T11:51:47Z</time></trkpt><trkpt lat="45.86375918505104" lon="14.108415440799407"><ele>863.3333333333334</ele><time>2026-05-05T11:51:48Z</time></trkpt><trkpt lat="45.86379689823" lon="14.108159767659444"><ele>863.0</ele><time>2026-05-05T11:51:49Z</time></trkpt><trkpt lat="45.8638207291443" lon="14.107912144501523"><ele>863.0</ele><time>2026-05-05T11:51:50Z</time></trkpt><trkpt lat="45.86384775827605" lon="14.107681069938085"><ele>863.0</ele><time>2026-05-05T11:51:51Z</time></trkpt><trkpt lat="45.86387672499557" lon="14.107459503291851"><ele>863.0</ele><time>2026-05-05T11:51:52Z</time></trkpt><trkpt lat="45.863904050554964" lon="14.107251471048174"><ele>863.3333333333334</ele><time>2026-05-05T11:51:53Z</time></trkpt><trkpt lat="45.863935290756785" lon="14.107043433509205"><ele>863.6666666666667</ele><time>2026-05-05T11:51:54Z</time></trkpt><trkpt lat="45.86397429182292" lon="14.106830703366066"><ele>864.0</ele><time>2026-05-05T11:51:55Z</time></trkpt><trkpt lat="45.864021994231756" lon="14.106610577173157"><ele>864.3333333333333</ele><time>2026-05-05T11:51:56Z</time></trkpt><trkpt lat="45.86405570533731" lon="14.106390727635844"><ele>864.6666666666666</ele><time>2026-05-05T11:51:57Z</time></trkpt><trkpt lat="45.86409566499109" lon="14.1061757200712"><ele>865.0</ele><time>2026-05-05T11:51:58Z</time></trkpt><trkpt lat="45.86413155531502" lon="14.105960651767898"><ele>867.0</ele><time>2026-05-05T11:51:59Z</time></trkpt><trkpt lat="45.86416997244757" lon="14.105730441888086"><ele>869.0</ele><time>2026-05-05T11:52:00Z</time></trkpt><trkpt lat="45.86400158282341" lon="14.10542759504381"><ele>871.0</ele><time>2026-05-05T11:52:01Z</time></trkpt><trkpt lat="45.86403382012239" lon="14.105203630249457"><ele>871.0</ele><time>2026-05-05T11:52:02Z</time></trkpt><trkpt lat="45.86407803798603" lon="14.104983219422135"><ele>871.0</ele><time>2026-05-05T11:52:03Z</time></trkpt><trkpt lat="45.86410703586325" lon="14.104758353985305"><ele>871.0</ele><time>2026-05-05T11:52:04Z</time></trkpt><trkpt lat="45.86409257942979" lon="14.104529716722032"><ele>869.6666666666666</ele><time>2026-05-05T11:52:05Z</time></trkpt><trkpt lat="45.86407137774658" lon="14.104292198489773"><ele>868.3333333333333</ele><time>2026-05-05T11:52:06Z</time></trkpt><trkpt lat="45.86407411017795" lon="14.104061852234082"><ele>867.0</ele><time>2026-05-05T11:52:07Z</time></trkpt><trkpt lat="45.86409883515726" lon="14.103818833466747"><ele>866.0</ele><time>2026-05-05T11:52:08Z</time></trkpt><trkpt lat="45.864114433756264" lon="14.103553548412393"><ele>865.0</ele><time>2026-05-05T11:52:09Z</time></trkpt><trkpt lat="45.86409234727002" lon="14.103281587848613"><ele>864.0</ele><time>2026-05-05T11:52:10Z</time></trkpt><trkpt lat="45.86405393039385" lon="14.103023396136894"><ele>864.0</ele><time>2026-05-05T11:52:11Z</time></trkpt><trkpt lat="45.864026549422924" lon="14.102779690237899"><ele>864.0</ele><time>2026-05-05T11:52:12Z</time></trkpt><trkpt lat="45.86403959122004" lon="14.102549424600577"><ele>864.0</ele><time>2026-05-05T11:52:13Z</time></trkpt><trkpt lat="45.864074531251475" lon="14.102328042556824"><ele>865.5</ele><time>2026-05-05T11:52:14Z</time></trkpt><trkpt lat="45.86410450261851" lon="14.102106772298521"><ele>867.0</ele><time>2026-05-05T11:52:15Z</time></trkpt><trkpt lat="45.86413228973369" lon="14.101919985773174"><ele>868.5</ele><time>2026-05-05T11:52:16Z</time></trkpt><trkpt lat="45.86413782302461" lon="14.101756131346374"><ele>870.0</ele><time>2026-05-05T11:52:17Z</time></trkpt><trkpt lat="45.86410339393545" lon="14.10162346447522"><ele>873.5</ele><time>2026-05-05T11:52:18Z</time></trkpt><trkpt lat="45.86403345374016" lon="14.101517240228626"><ele>877.0</ele><time>2026-05-05T11:52:19Z</time></trkpt><trkpt lat="45.86394251027512" lon="14.101422046124855"><ele>880.5</ele><time>2026-05-05T11:52:20Z</time></trkpt><trkpt lat="45.86381363352074" lon="14.101381905210918"><ele>884.0</ele><time>2026-05-05T11:52:21Z</time></trkpt><trkpt lat="45.86364862519431" lon="14.101357521608696"><ele>884.0</ele><time>2026-05-05T11:52:22Z</time></trkpt><trkpt lat="45.86345645900297" lon="14.10133103370057"><ele>884.0</ele><time>2026-05-05T11:52:23Z</time></trkpt><trkpt lat="45.86326414187089" lon="14.101294000399294"><ele>884.0</ele><time>2026-05-05T11:52:24Z</time></trkpt><trkpt lat="45.863120012322796" lon="14.10122936307073"><ele>885.0</ele><time>2026-05-05T11:52:25Z</time></trkpt><trkpt lat="45.86300718128059" lon="14.101147586466134"><ele>886.0</ele><time>2026-05-05T11:52:26Z</time></trkpt><trkpt lat="45.86292935062207" lon="14.101021129131553"><ele>887.0</ele><time>2026-05-05T11:52:27Z</time></trkpt><trkpt lat="45.86288237552711" lon="14.100882251528947"><ele>888.0</ele><time>2026-05-05T11:52:28Z</time></trkpt><trkpt lat="45.862863213905314" lon="14.100689107038363"><ele>888.0</ele><time>2026-05-05T11:52:29Z</time></trkpt><trkpt lat="45.862857032734944" lon="14.10048432785991"><ele>888.0</ele><time>2026-05-05T11:52:30Z</time></trkpt><trkpt lat="45.86280043792001" lon="14.10029542582161"><ele>888.0</ele><time>2026-05-05T11:52:31Z</time></trkpt><trkpt lat="45.862742730752764" lon="14.100147212886661"><ele>888.0</ele><time>2026-05-05T11:52:32Z</time></trkpt><trkpt lat="45.8627383956404" lon="14.099995787887433"><ele>885.75</ele><time>2026-05-05T11:52:33Z</time></trkpt><trkpt lat="45.862566470749194" lon="14.099993405306503"><ele>883.5</ele><time>2026-05-05T11:52:34Z</time></trkpt><trkpt lat="45.862448498037345" lon="14.099981855652066"><ele>881.25</ele><time>2026-05-05T11:52:35Z</time></trkpt><trkpt lat="45.86232097624762" lon="14.100007242565965"><ele>879.0</ele><time>2026-05-05T11:52:36Z</time></trkpt><trkpt lat="45.86219612058752" lon="14.100043242712289"><ele>879.0</ele><time>2026-05-05T11:52:37Z</time></trkpt><trkpt lat="45.86207159493717" lon="14.100061822140823"><ele>879.0</ele><time>2026-05-05T11:52:38Z</time></trkpt><trkpt lat="45.86195990079718" lon="14.100019491130691"><ele>879.0</ele><time>2026-05-05T11:52:39Z</time></trkpt><trkpt lat="45.86187875371722" lon="14.099881263317267"><ele>879.0</ele><time>2026-05-05T11:52:40Z</time></trkpt><trkpt lat="45.86183128065075" lon="14.099732897191052"><ele>879.25</ele><time>2026-05-05T11:52:41Z</time></trkpt><trkpt lat="45.86179810520134" lon="14.099563819886372"><ele>879.5</ele><time>2026-05-05T11:52:42Z</time></trkpt><trkpt lat="45.861761925760156" lon="14.099360009048304"><ele>879.75</ele><time>2026-05-05T11:52:43Z</time></trkpt><trkpt lat="45.8617182329832" lon="14.099127666190606"><ele>880.0</ele><time>2026-05-05T11:52:44Z</time></trkpt><trkpt lat="45.86163553520498" lon="14.098913309203827"><ele>881.0</ele><time>2026-05-05T11:52:45Z</time></trkpt><trkpt lat="45.86156153640186" lon="14.098735926933275"><ele>882.0</ele><time>2026-05-05T11:52:46Z</time></trkpt><trkpt lat="45.861484824624476" lon="14.098594633015342"><ele>883.0</ele><time>2026-05-05T11:52:47Z</time></trkpt><trkpt lat="45.861395399322284" lon="14.098440809784908"><ele>884.0</ele><time>2026-05-05T11:52:48Z</time></trkpt><trkpt lat="45.86130861778182" lon="14.098291020185854"><ele>883.75</ele><time>2026-05-05T11:52:49Z</time></trkpt><trkpt lat="45.8612366692454" lon="14.098142624078005"><ele>883.5</ele><time>2026-05-05T11:52:50Z</time></trkpt><trkpt lat="45.86118437890952" lon="14.097988369532912"><ele>883.25</ele><time>2026-05-05T11:52:51Z</time></trkpt><trkpt lat="45.86120118387001" lon="14.097841083739805"><ele>883.0</ele><time>2026-05-05T11:52:52Z</time></trkpt><trkpt lat="45.861225044312235" lon="14.09769873354209"><ele>883.0</ele><time>2026-05-05T11:52:53Z</time></trkpt><trkpt lat="45.86123675625785" lon="14.09751793359324"><ele>883.0</ele><time>2026-05-05T11:52:54Z</time></trkpt><trkpt lat="45.86128195478635" lon="14.09730617831098"><ele>883.0</ele><time>2026-05-05T11:52:55Z</time></trkpt><trkpt lat="45.86132564460898" lon="14.09707423475354"><ele>883.0</ele><time>2026-05-05T11:52:56Z</time></trkpt><trkpt lat="45.861360902416166" lon="14.09687863638714"><ele>883.3333333333333</ele><time>2026-05-05T11:52:57Z</time></trkpt><trkpt lat="45.8613914803072" lon="14.096676000653076"><ele>883.6666666666667</ele><time>2026-05-05T11:52:58Z</time></trkpt><trkpt lat="45.86135289518324" lon="14.096436528166844"><ele>884.0</ele><time>2026-05-05T11:52:59Z</time></trkpt><trkpt lat="45.86131451279106" lon="14.096185853923659"><ele>884.0</ele><time>2026-05-05T11:53:00Z</time></trkpt><trkpt lat="45.86129018099867" lon="14.095953293593537"><ele>884.0</ele><time>2026-05-05T11:53:01Z</time></trkpt><trkpt lat="45.861296920998974" lon="14.09573456527178"><ele>884.0</ele><time>2026-05-05T11:53:02Z</time></trkpt><trkpt lat="45.861333612712954" lon="14.095528645387745"><ele>885.0</ele><time>2026-05-05T11:53:03Z</time></trkpt><trkpt lat="45.86138487758682" lon="14.095318545663138"><ele>886.0</ele><time>2026-05-05T11:53:04Z</time></trkpt><trkpt lat="45.86144812934326" lon="14.095101317065227"><ele>887.0</ele><time>2026-05-05T11:53:05Z</time></trkpt><trkpt lat="45.861502895148234" lon="14.094886364303303"><ele>887.75</ele><time>2026-05-05T11:53:06Z</time></trkpt><trkpt lat="45.86156106704949" lon="14.094687597783144"><ele>888.5</ele><time>2026-05-05T11:53:07Z</time></trkpt><trkpt lat="45.86162305721007" lon="14.094505188047584"><ele>889.25</ele><time>2026-05-05T11:53:08Z</time></trkpt><trkpt lat="45.86168887775178" lon="14.094330857828593"><ele>890.0</ele><time>2026-05-05T11:53:09Z</time></trkpt><trkpt lat="45.861743397424995" lon="14.094164696980966"><ele>888.5</ele><time>2026-05-05T11:53:10Z</time></trkpt><trkpt lat="45.86178101527035" lon="14.09401097860537"><ele>887.0</ele><time>2026-05-05T11:53:11Z</time></trkpt><trkpt lat="45.861792503559826" lon="14.093852745978507"><ele>885.5</ele><time>2026-05-05T11:53:12Z</time></trkpt><trkpt lat="45.861772917782126" lon="14.093668720796284"><ele>884.0</ele><time>2026-05-05T11:53:13Z</time></trkpt><trkpt lat="45.86173160761613" lon="14.093461301922616"><ele>882.0</ele><time>2026-05-05T11:53:14Z</time></trkpt><trkpt lat="45.86170535626765" lon="14.093234862601957"><ele>880.0</ele><time>2026-05-05T11:53:15Z</time></trkpt><trkpt lat="45.86167360804537" lon="14.092985795793336"><ele>878.0</ele><time>2026-05-05T11:53:16Z</time></trkpt><trkpt lat="45.86161914704757" lon="14.092735701332987"><ele>878.0</ele><time>2026-05-05T11:53:17Z</time></trkpt><trkpt lat="45.861561516780135" lon="14.09249934421605"><ele>878.0</ele><time>2026-05-05T11:53:18Z</time></trkpt><trkpt lat="45.861530758410616" lon="14.092255793318431"><ele>878.0</ele><time>2026-05-05T11:53:19Z</time></trkpt><trkpt lat="45.861557264702974" lon="14.092003040556564"><ele>878.0</ele><time>2026-05-05T11:53:20Z</time></trkpt><trkpt lat="45.86158811725376" lon="14.091738811525024"><ele>878.0</ele><time>2026-05-05T11:53:21Z</time></trkpt><trkpt lat="45.861624705534844" lon="14.091478844175152"><ele>878.0</ele><time>2026-05-05T11:53:22Z</time></trkpt><trkpt lat="45.86166168444082" lon="14.091222405457177"><ele>878.25</ele><time>2026-05-05T11:53:23Z</time></trkpt><trkpt lat="45.86169810639914" lon="14.09100889707196"><ele>878.5</ele><time>2026-05-05T11:53:24Z</time></trkpt><trkpt lat="45.861700556351124" lon="14.09081848557185"><ele>878.75</ele><time>2026-05-05T11:53:25Z</time></trkpt><trkpt lat="45.86167227215236" lon="14.090647879277132"><ele>879.0</ele><time>2026-05-05T11:53:26Z</time></trkpt><trkpt lat="45.861615629240056" lon="14.090494796336175"><ele>879.0</ele><time>2026-05-05T11:53:27Z</time></trkpt><trkpt lat="45.86153615091852" lon="14.090355085871707"><ele>879.0</ele><time>2026-05-05T11:53:28Z</time></trkpt><trkpt lat="45.86145171665165" lon="14.090231743636236"><ele>879.0</ele><time>2026-05-05T11:53:29Z</time></trkpt><trkpt lat="45.861395968512475" lon="14.090081540297785"><ele>879.0</ele><time>2026-05-05T11:53:30Z</time></trkpt><trkpt lat="45.86137792618451" lon="14.089886886673522"><ele>879.5</ele><time>2026-05-05T11:53:31Z</time></trkpt><trkpt lat="45.861371528116294" lon="14.089683962978624"><ele>880.0</ele><time>2026-05-05T11:53:32Z</time></trkpt><trkpt lat="45.86134895866945" lon="14.08948704536489"><ele>880.5</ele><time>2026-05-05T11:53:33Z</time></trkpt><trkpt lat="45.86131609525771" lon="14.089298927977056"><ele>881.0</ele><time>2026-05-05T11:53:34Z</time></trkpt><trkpt lat="45.861277524089665" lon="14.089097999712008"><ele>883.0</ele><time>2026-05-05T11:53:35Z</time></trkpt><trkpt lat="45.86125121727501" lon="14.088892442082095"><ele>885.0</ele><time>2026-05-05T11:53:36Z</time></trkpt><trkpt lat="45.86127089999596" lon="14.088675549229311"><ele>887.0</ele><time>2026-05-05T11:53:37Z</time></trkpt><trkpt lat="45.861277657401814" lon="14.088442556648369"><ele>889.6666666666667</ele><time>2026-05-05T11:53:38Z</time></trkpt><trkpt lat="45.86128950419453" lon="14.088188391651945"><ele>892.3333333333333</ele><time>2026-05-05T11:53:39Z</time></trkpt><trkpt lat="45.86129419437663" lon="14.087935191661636"><ele>895.0</ele><time>2026-05-05T11:53:40Z</time></trkpt><trkpt lat="45.86128999217058" lon="14.087719945626166"><ele>895.0</ele><time>2026-05-05T11:53:41Z</time></trkpt><trkpt lat="45.86125892782839" lon="14.087545275325922"><ele>895.0</ele><time>2026-05-05T11:53:42Z</time></trkpt><trkpt lat="45.86119407807476" lon="14.087399104581309"><ele>895.0</ele><time>2026-05-05T11:53:43Z</time></trkpt><trkpt lat="45.86108911598934" lon="14.087279632993722"><ele>895.0</ele><time>2026-05-05T11:53:44Z</time></trkpt><trkpt lat="45.8609497981212" lon="14.087175539869806"><ele>894.3333333333333</ele><time>2026-05-05T11:53:45Z</time></trkpt><trkpt lat="45.86078463034418" lon="14.087060489571492"><ele>893.6666666666667</ele><time>2026-05-05T11:53:46Z</time></trkpt><trkpt lat="45.86060829643512" lon="14.086911309903885"><ele>893.0</ele><time>2026-05-05T11:53:47Z</time></trkpt><trkpt lat="45.86046729081694" lon="14.086731541844982"><ele>894.75</ele><time>2026-05-05T11:53:48Z</time></trkpt><trkpt lat="45.860348437522134" lon="14.086571164081265"><ele>896.5</ele><time>2026-05-05T11:53:49Z</time></trkpt><trkpt lat="45.86025812948319" lon="14.086413923885546"><ele>898.25</ele><time>2026-05-05T11:53:50Z</time></trkpt><trkpt lat="45.860173911733355" lon="14.086275768754577"><ele>900.0</ele><time>2026-05-05T11:53:51Z</time></trkpt><trkpt lat="45.860129007894905" lon="14.086117256162321"><ele>900.0</ele><time>2026-05-05T11:53:52Z</time></trkpt><trkpt lat="45.86012115232204" lon="14.085959959177401"><ele>900.0</ele><time>2026-05-05T11:53:53Z</time></trkpt><trkpt lat="45.86016621462138" lon="14.085816503256236"><ele>900.0</ele><time>2026-05-05T11:53:54Z</time></trkpt><trkpt lat="45.860219027134676" lon="14.085671347042316"><ele>900.0</ele><time>2026-05-05T11:53:55Z</time></trkpt><trkpt lat="45.860267688589715" lon="14.085491378161896"><ele>900.5</ele><time>2026-05-05T11:53:56Z</time></trkpt><trkpt lat="45.86032128155476" lon="14.08531037573914"><ele>901.0</ele><time>2026-05-05T11:53:57Z</time></trkpt><trkpt lat="45.86034120709623" lon="14.08511033599578"><ele>901.5</ele><time>2026-05-05T11:53:58Z</time></trkpt><trkpt lat="45.8603205720919" lon="14.084888595122091"><ele>902.0</ele><time>2026-05-05T11:53:59Z</time></trkpt><trkpt lat="45.8602573019742" lon="14.084648611092723"><ele>902.0</ele><time>2026-05-05T11:54:00Z</time></trkpt><trkpt lat="45.86017351264598" lon="14.084387308181421"><ele>902.0</ele><time>2026-05-05T11:54:01Z</time></trkpt><trkpt lat="45.860083315265534" lon="14.084121423648336"><ele>902.0</ele><time>2026-05-05T11:54:02Z</time></trkpt><trkpt lat="45.86001129511112" lon="14.083869895812922"><ele>896.6666666666667</ele><time>2026-05-05T11:54:03Z</time></trkpt><trkpt lat="45.859941001234674" lon="14.083620051297025"><ele>891.3333333333333</ele><time>2026-05-05T11:54:04Z</time></trkpt><trkpt lat="45.859849109480415" lon="14.083375621881437"><ele>886.0</ele><time>2026-05-05T11:54:05Z</time></trkpt><trkpt lat="45.8597291440004" lon="14.083140917610372"><ele>886.0</ele><time>2026-05-05T11:54:06Z</time></trkpt><trkpt lat="45.85960134973941" lon="14.082888189480567"><ele>886.0</ele><time>2026-05-05T11:54:07Z</time></trkpt><trkpt lat="45.85950625906052" lon="14.082610158911713"><ele>886.0</ele><time>2026-05-05T11:54:08Z</time></trkpt><trkpt lat="45.859406463539436" lon="14.08236216579003"><ele>888.0</ele><time>2026-05-05T11:54:09Z</time></trkpt><trkpt lat="45.85931570323198" lon="14.082146943716781"><ele>890.0</ele><time>2026-05-05T11:54:10Z</time></trkpt><trkpt lat="45.85922576663197" lon="14.081964902635917"><ele>892.0</ele><time>2026-05-05T11:54:11Z</time></trkpt><trkpt lat="45.85922383430344" lon="14.081763795565003"><ele>884.0</ele><time>2026-05-05T11:54:12Z</time></trkpt><trkpt lat="45.85921292703944" lon="14.081543478667673"><ele>876.0</ele><time>2026-05-05T11:54:13Z</time></trkpt><trkpt lat="45.859191312192884" lon="14.08132730598999"><ele>868.0</ele><time>2026-05-05T11:54:14Z</time></trkpt><trkpt lat="45.85918974508029" lon="14.081110992207638"><ele>868.0</ele><time>2026-05-05T11:54:15Z</time></trkpt><trkpt lat="45.85920587854153" lon="14.080879817057314"><ele>868.0</ele><time>2026-05-05T11:54:16Z</time></trkpt><trkpt lat="45.859245534017866" lon="14.080633795296436"><ele>868.0</ele><time>2026-05-05T11:54:17Z</time></trkpt><trkpt lat="45.85929599971789" lon="14.080400972445819"><ele>869.25</ele><time>2026-05-05T11:54:18Z</time></trkpt><trkpt lat="45.85934011817336" lon="14.080205547771213"><ele>870.5</ele><time>2026-05-05T11:54:19Z</time></trkpt><trkpt lat="45.85935024741699" lon="14.080019077601284"><ele>871.75</ele><time>2026-05-05T11:54:20Z</time></trkpt><trkpt lat="45.85932835174835" lon="14.079827002750875"><ele>873.0</ele><time>2026-05-05T11:54:21Z</time></trkpt><trkpt lat="45.85927322890668" lon="14.079616004414914"><ele>873.0</ele><time>2026-05-05T11:54:22Z</time></trkpt><trkpt lat="45.85918089792898" lon="14.079401032852205"><ele>873.0</ele><time>2026-05-05T11:54:23Z</time></trkpt><trkpt lat="45.85905357711895" lon="14.07917975179488"><ele>873.0</ele><time>2026-05-05T11:54:24Z</time></trkpt><trkpt lat="45.8589164208859" lon="14.078977371184866"><ele>873.5</ele><time>2026-05-05T11:54:25Z</time></trkpt><trkpt lat="45.8588028833888" lon="14.078807584745167"><ele>874.0</ele><time>2026-05-05T11:54:26Z</time></trkpt><trkpt lat="45.858701185647185" lon="14.078656129705381"><ele>874.5</ele><time>2026-05-05T11:54:27Z</time></trkpt><trkpt lat="45.858640867872474" lon="14.078527431069338"><ele>875.0</ele><time>2026-05-05T11:54:28Z</time></trkpt><trkpt lat="45.85861992615131" lon="14.078403400807018"><ele>875.0</ele><time>2026-05-05T11:54:29Z</time></trkpt><trkpt lat="45.858636148108026" lon="14.078270585655751"><ele>875.0</ele><time>2026-05-05T11:54:30Z</time></trkpt><trkpt lat="45.858687376654125" lon="14.078144428246217"><ele>875.0</ele><time>2026-05-05T11:54:31Z</time></trkpt><trkpt lat="45.85879095116299" lon="14.078024453365765"><ele>875.0</ele><time>2026-05-05T11:54:32Z</time></trkpt><trkpt lat="45.8588809294676" lon="14.077858488411797"><ele>874.0</ele><time>2026-05-05T11:54:33Z</time></trkpt><trkpt lat="45.85899285643137" lon="14.077713573553197"><ele>873.0</ele><time>2026-05-05T11:54:34Z</time></trkpt><trkpt lat="45.859084424771275" lon="14.077571737055418"><ele>872.0</ele><time>2026-05-05T11:54:35Z</time></trkpt><trkpt lat="45.85914605752436" lon="14.07741524037279"><ele>871.0</ele><time>2026-05-05T11:54:36Z</time></trkpt><trkpt lat="45.85916507797218" lon="14.077224952217923"><ele>870.0</ele><time>2026-05-05T11:54:37Z</time></trkpt><trkpt lat="45.859156559932195" lon="14.077014049568916"><ele>869.0</ele><time>2026-05-05T11:54:38Z</time></trkpt><trkpt lat="45.85911744988943" lon="14.076791395523523"><ele>868.0</ele><time>2026-05-05T11:54:39Z</time></trkpt><trkpt lat="45.85906463151634" lon="14.076545089790306"><ele>868.0</ele><time>2026-05-05T11:54:40Z</time></trkpt><trkpt lat="45.8590315875606" lon="14.076300374585315"><ele>868.0</ele><time>2026-05-05T11:54:41Z</time></trkpt><trkpt lat="45.85902217685234" lon="14.076063548609026"><ele>868.0</ele><time>2026-05-05T11:54:42Z</time></trkpt><trkpt lat="45.85903002819409" lon="14.075814823250363"><ele>868.0</ele><time>2026-05-05T11:54:43Z</time></trkpt><trkpt lat="45.85905334654564" lon="14.075584555870707"><ele>868.0</ele><time>2026-05-05T11:54:44Z</time></trkpt><trkpt lat="45.85908407244923" lon="14.075378216953158"><ele>868.0</ele><time>2026-05-05T11:54:45Z</time></trkpt><trkpt lat="45.85912075333804" lon="14.075188497577807"><ele>868.0</ele><time>2026-05-05T11:54:46Z</time></trkpt><trkpt lat="45.859140180005944" lon="14.074999021272363"><ele>868.0</ele><time>2026-05-05T11:54:47Z</time></trkpt><trkpt lat="45.85914299133022" lon="14.074799226754163"><ele>868.0</ele><time>2026-05-05T11:54:48Z</time></trkpt><trkpt lat="45.85912160931411" lon="14.07458594912831"><ele>868.0</ele><time>2026-05-05T11:54:49Z</time></trkpt><trkpt lat="45.859078170866084" lon="14.074373940511846"><ele>868.0</ele><time>2026-05-05T11:54:50Z</time></trkpt><trkpt lat="45.859017572731595" lon="14.074166878293605"><ele>869.3333333333333</ele><time>2026-05-05T11:54:51Z</time></trkpt><trkpt lat="45.858987140073964" lon="14.073970275793442"><ele>870.6666666666667</ele><time>2026-05-05T11:54:52Z</time></trkpt><trkpt lat="45.85897442129346" lon="14.073763641790238"><ele>872.0</ele><time>2026-05-05T11:54:53Z</time></trkpt><trkpt lat="45.858953123988755" lon="14.073528641758886"><ele>872.0</ele><time>2026-05-05T11:54:54Z</time></trkpt><trkpt lat="45.858923271798254" lon="14.07328345874193"><ele>872.0</ele><time>2026-05-05T11:54:55Z</time></trkpt><trkpt lat="45.85885167123979" lon="14.073053149424103"><ele>872.0</ele><time>2026-05-05T11:54:56Z</time></trkpt><trkpt lat="45.858750680002935" lon="14.072856483991186"><ele>873.0</ele><time>2026-05-05T11:54:57Z</time></trkpt><trkpt lat="45.85864802236044" lon="14.072711611185113"><ele>874.0</ele><time>2026-05-05T11:54:58Z</time></trkpt><trkpt lat="45.85856406325592" lon="14.072581795530526"><ele>875.0</ele><time>2026-05-05T11:54:59Z</time></trkpt><trkpt lat="45.85850096177552" lon="14.07242416043024"><ele>876.0</ele><time>2026-05-05T11:55:00Z</time></trkpt><trkpt lat="45.858456460830055" lon="14.072240436438321"><ele>876.25</ele><time>2026-05-05T11:55:01Z</time></trkpt><trkpt lat="45.858435580599405" lon="14.072048545811272"><ele>876.5</ele><time>2026-05-05T11:55:02Z</time></trkpt><trkpt lat="45.85844618480416" lon="14.071844808855568"><ele>876.75</ele><time>2026-05-05T11:55:03Z</time></trkpt><trkpt lat="45.85847578025664" lon="14.071662589494037"><ele>877.0</ele><time>2026-05-05T11:55:04Z</time></trkpt><trkpt lat="45.85851468308091" lon="14.071487595124175"><ele>875.5</ele><time>2026-05-05T11:55:05Z</time></trkpt><trkpt lat="45.85856587831879" lon="14.07130585067553"><ele>874.0</ele><time>2026-05-05T11:55:06Z</time></trkpt><trkpt lat="45.858640421273805" lon="14.071125783934598"><ele>872.5</ele><time>2026-05-05T11:55:07Z</time></trkpt><trkpt lat="45.85871703420403" lon="14.07093522087387"><ele>871.0</ele><time>2026-05-05T11:55:08Z</time></trkpt><trkpt lat="45.85878893877052" lon="14.070736368729637"><ele>869.6666666666666</ele><time>2026-05-05T11:55:09Z</time></trkpt><trkpt lat="45.858863484762495" lon="14.070533591103397"><ele>868.3333333333333</ele><time>2026-05-05T11:55:10Z</time></trkpt><trkpt lat="45.85895159360729" lon="14.070341611833907"><ele>867.0</ele><time>2026-05-05T11:55:11Z</time></trkpt><trkpt lat="45.85906489062022" lon="14.070145792596621"><ele>865.6666666666667</ele><time>2026-05-05T11:55:12Z</time></trkpt><trkpt lat="45.85910554353188" lon="14.069880324547846"><ele>864.3333333333334</ele><time>2026-05-05T11:55:13Z</time></trkpt><trkpt lat="45.85915663726548" lon="14.069629675789125"><ele>863.0</ele><time>2026-05-05T11:55:14Z</time></trkpt><trkpt lat="45.85923961480069" lon="14.06938320568214"><ele>862.6666666666667</ele><time>2026-05-05T11:55:15Z</time></trkpt><trkpt lat="45.85934651853978" lon="14.069144118722713"><ele>862.3333333333333</ele><time>2026-05-05T11:55:16Z</time></trkpt><trkpt lat="45.85945162804231" lon="14.068917233581317"><ele>862.0</ele><time>2026-05-05T11:55:17Z</time></trkpt><trkpt lat="45.85954625384393" lon="14.068725098899126"><ele>862.0</ele><time>2026-05-05T11:55:18Z</time></trkpt><trkpt lat="45.8596359153567" lon="14.068570469794059"><ele>862.0</ele><time>2026-05-05T11:55:19Z</time></trkpt><trkpt lat="45.859734833581946" lon="14.068440072063764"><ele>862.0</ele><time>2026-05-05T11:55:20Z</time></trkpt><trkpt lat="45.859844168184864" lon="14.068314477942252"><ele>862.0</ele><time>2026-05-05T11:55:21Z</time></trkpt><trkpt lat="45.859973532554456" lon="14.068179068216756"><ele>861.3333333333333</ele><time>2026-05-05T11:55:22Z</time></trkpt><trkpt lat="45.86010378467961" lon="14.068014505416281"><ele>860.6666666666667</ele><time>2026-05-05T11:55:23Z</time></trkpt><trkpt lat="45.86022276344801" lon="14.067828517666303"><ele>860.0</ele><time>2026-05-05T11:55:24Z</time></trkpt><trkpt lat="45.86032042425247" lon="14.067615549038823"><ele>859.0</ele><time>2026-05-05T11:55:25Z</time></trkpt><trkpt lat="45.86041359695659" lon="14.067397185221372"><ele>858.0</ele><time>2026-05-05T11:55:26Z</time></trkpt><trkpt lat="45.8605248272798" lon="14.067214853029698"><ele>857.0</ele><time>2026-05-05T11:55:27Z</time></trkpt><trkpt lat="45.86066600477859" lon="14.067062281483292"><ele>857.0</ele><time>2026-05-05T11:55:28Z</time></trkpt><trkpt lat="45.86083712272667" lon="14.066960654684003"><ele>857.0</ele><time>2026-05-05T11:55:29Z</time></trkpt><trkpt lat="45.860992465043" lon="14.066836189607267"><ele>857.0</ele><time>2026-05-05T11:55:30Z</time></trkpt><trkpt lat="45.861140813511305" lon="14.066738976997778"><ele>856.5</ele><time>2026-05-05T11:55:31Z</time></trkpt><trkpt lat="45.86126951235932" lon="14.066626098489788"><ele>856.0</ele><time>2026-05-05T11:55:32Z</time></trkpt><trkpt lat="45.86139563347067" lon="14.066509164701914"><ele>855.5</ele><time>2026-05-05T11:55:33Z</time></trkpt><trkpt lat="45.86151585827364" lon="14.066409484273759"><ele>855.0</ele><time>2026-05-05T11:55:34Z</time></trkpt><trkpt lat="45.86164115760403" lon="14.0663262102041"><ele>853.0</ele><time>2026-05-05T11:55:35Z</time></trkpt><trkpt lat="45.86176919655442" lon="14.066253922003076"><ele>851.0</ele><time>2026-05-05T11:55:36Z</time></trkpt><trkpt lat="45.86189907064239" lon="14.066176731545223"><ele>849.0</ele><time>2026-05-05T11:55:37Z</time></trkpt><trkpt lat="45.86200700847219" lon="14.066052032257863"><ele>847.0</ele><time>2026-05-05T11:55:38Z</time></trkpt><trkpt lat="45.86210089804844" lon="14.065905713029347"><ele>843.25</ele><time>2026-05-05T11:55:39Z</time></trkpt><trkpt lat="45.862186157048704" lon="14.065764509427153"><ele>839.5</ele><time>2026-05-05T11:55:40Z</time></trkpt><trkpt lat="45.86227475024705" lon="14.06562367332032"><ele>835.75</ele><time>2026-05-05T11:55:41Z</time></trkpt><trkpt lat="45.86236736573641" lon="14.065474885430293"><ele>832.0</ele><time>2026-05-05T11:55:42Z</time></trkpt><trkpt lat="45.86244970436608" lon="14.065313968089082"><ele>832.0</ele><time>2026-05-05T11:55:43Z</time></trkpt><trkpt lat="45.86253314260125" lon="14.065168809751777"><ele>832.0</ele><time>2026-05-05T11:55:44Z</time></trkpt><trkpt lat="45.8626363489792" lon="14.065024403324543"><ele>832.0</ele><time>2026-05-05T11:55:45Z</time></trkpt><trkpt lat="45.86275357307982" lon="14.064878706484468"><ele>832.0</ele><time>2026-05-05T11:55:46Z</time></trkpt><trkpt lat="45.862872366730286" lon="14.06471604326507"><ele>832.6666666666666</ele><time>2026-05-05T11:55:47Z</time></trkpt><trkpt lat="45.86298790368529" lon="14.064547824661512"><ele>833.3333333333333</ele><time>2026-05-05T11:55:48Z</time></trkpt><trkpt lat="45.86309249623453" lon="14.064369138967391"><ele>834.0</ele><time>2026-05-05T11:55:49Z</time></trkpt><trkpt lat="45.86319721155164" lon="14.064186949165668"><ele>836.0</ele><time>2026-05-05T11:55:50Z</time></trkpt><trkpt lat="45.863305364667625" lon="14.064005324677064"><ele>838.0</ele><time>2026-05-05T11:55:51Z</time></trkpt><trkpt lat="45.86340358615829" lon="14.063821843285035"><ele>840.0</ele><time>2026-05-05T11:55:52Z</time></trkpt><trkpt lat="45.86349795124333" lon="14.063650275150984"><ele>840.0</ele><time>2026-05-05T11:55:53Z</time></trkpt><trkpt lat="45.86359614247103" lon="14.063509307766974"><ele>840.0</ele><time>2026-05-05T11:55:54Z</time></trkpt><trkpt lat="45.86370050219064" lon="14.063384983722413"><ele>840.0</ele><time>2026-05-05T11:55:55Z</time></trkpt><trkpt lat="45.863814637972006" lon="14.063277002011544"><ele>840.0</ele><time>2026-05-05T11:55:56Z</time></trkpt><trkpt lat="45.86386114843558" lon="14.063070155924446"><ele>835.6666666666667</ele><time>2026-05-05T11:55:57Z</time></trkpt><trkpt lat="45.86392265618158" lon="14.062873717494709"><ele>831.3333333333334</ele><time>2026-05-05T11:55:58Z</time></trkpt><trkpt lat="45.86397374636364" lon="14.06266210014316"><ele>827.0</ele><time>2026-05-05T11:55:59Z</time></trkpt><trkpt lat="45.864028985886755" lon="14.06244207102303"><ele>823.6666666666667</ele><time>2026-05-05T11:56:00Z</time></trkpt><trkpt lat="45.86408719253997" lon="14.062220351199866"><ele>820.3333333333333</ele><time>2026-05-05T11:56:01Z</time></trkpt><trkpt lat="45.864143758548366" lon="14.062004580471152"><ele>817.0</ele><time>2026-05-05T11:56:02Z</time></trkpt><trkpt lat="45.86420357995119" lon="14.061796896347012"><ele>818.6666666666666</ele><time>2026-05-05T11:56:03Z</time></trkpt><trkpt lat="45.86426875073951" lon="14.06158490885844"><ele>820.3333333333333</ele><time>2026-05-05T11:56:04Z</time></trkpt><trkpt lat="45.86434956152151" lon="14.061381623882767"><ele>822.0</ele><time>2026-05-05T11:56:05Z</time></trkpt><trkpt lat="45.8644552310219" lon="14.06118899570559"><ele>822.0</ele><time>2026-05-05T11:56:06Z</time></trkpt><trkpt lat="45.86458234377854" lon="14.061019879821403"><ele>822.0</ele><time>2026-05-05T11:56:07Z</time></trkpt><trkpt lat="45.86471834899821" lon="14.060868260813029"><ele>822.0</ele><time>2026-05-05T11:56:08Z</time></trkpt><trkpt lat="45.8648654223037" lon="14.060739538427894"><ele>821.0</ele><time>2026-05-05T11:56:09Z</time></trkpt><trkpt lat="45.86501849677238" lon="14.060644279742924"><ele>820.0</ele><time>2026-05-05T11:56:10Z</time></trkpt><trkpt lat="45.86517732693575" lon="14.060579940322324"><ele>819.0</ele><time>2026-05-05T11:56:11Z</time></trkpt><trkpt lat="45.865340786668845" lon="14.060534942038874"><ele>819.0</ele><time>2026-05-05T11:56:12Z</time></trkpt><trkpt lat="45.86550984625272" lon="14.060494661628807"><ele>819.0</ele><time>2026-05-05T11:56:13Z</time></trkpt><trkpt lat="45.86567917205892" lon="14.060440773619543"><ele>819.0</ele><time>2026-05-05T11:56:14Z</time></trkpt><trkpt lat="45.86585385588003" lon="14.06038364045964"><ele>823.6666666666667</ele><time>2026-05-05T11:56:15Z</time></trkpt><trkpt lat="45.86602662431832" lon="14.06029708647335"><ele>828.3333333333334</ele><time>2026-05-05T11:56:16Z</time></trkpt><trkpt lat="45.866195054385905" lon="14.06019744079046"><ele>833.0</ele><time>2026-05-05T11:56:17Z</time></trkpt><trkpt lat="45.86634434697576" lon="14.06006814383066"><ele>827.3333333333334</ele><time>2026-05-05T11:56:18Z</time></trkpt><trkpt lat="45.86649488456356" lon="14.059913092292952"><ele>821.6666666666667</ele><time>2026-05-05T11:56:19Z</time></trkpt><trkpt lat="45.86663394542313" lon="14.059729739651518"><ele>816.0</ele><time>2026-05-05T11:56:20Z</time></trkpt><trkpt lat="45.86675409902984" lon="14.059519577510944"><ele>822.6666666666667</ele><time>2026-05-05T11:56:21Z</time></trkpt><trkpt lat="45.866872559395794" lon="14.059290044456176"><ele>829.3333333333334</ele><time>2026-05-05T11:56:22Z</time></trkpt><trkpt lat="45.86697982272133" lon="14.059039120209643"><ele>836.0</ele><time>2026-05-05T11:56:23Z</time></trkpt><trkpt lat="45.86707056334093" lon="14.058754116025039"><ele>836.0</ele><time>2026-05-05T11:56:24Z</time></trkpt><trkpt lat="45.86713644998209" lon="14.05843775713246"><ele>836.0</ele><time>2026-05-05T11:56:25Z</time></trkpt><trkpt lat="45.86717781455744" lon="14.058111948003768"><ele>833.5</ele><time>2026-05-05T11:56:26Z</time></trkpt><trkpt lat="45.867187969119435" lon="14.057773444991328"><ele>831.0</ele><time>2026-05-05T11:56:27Z</time></trkpt><trkpt lat="45.867164420636534" lon="14.057440730071885"><ele>831.0</ele><time>2026-05-05T11:56:28Z</time></trkpt><trkpt lat="45.86711597330231" lon="14.057110557455994"><ele>831.0</ele><time>2026-05-05T11:56:29Z</time></trkpt><trkpt lat="45.86704356868326" lon="14.056781727090868"><ele>833.5</ele><time>2026-05-05T11:56:30Z</time></trkpt><trkpt lat="45.866967433712" lon="14.056447971490288"><ele>836.0</ele><time>2026-05-05T11:56:31Z</time></trkpt><trkpt lat="45.866912154328425" lon="14.05609507155406"><ele>841.0</ele><time>2026-05-05T11:56:32Z</time></trkpt><trkpt lat="45.86684234864945" lon="14.055751578993362"><ele>846.0</ele><time>2026-05-05T11:56:33Z</time></trkpt><trkpt lat="45.86676389299836" lon="14.05543767806915"><ele>834.3333333333333</ele><time>2026-05-05T11:56:34Z</time></trkpt><trkpt lat="45.86670680695354" lon="14.055143261596395"><ele>822.6666666666666</ele><time>2026-05-05T11:56:35Z</time></trkpt><trkpt lat="45.866655506915436" lon="14.05486131318479"><ele>811.0</ele><time>2026-05-05T11:56:36Z</time></trkpt><trkpt lat="45.866634931538634" lon="14.05457730889072"><ele>811.0</ele><time>2026-05-05T11:56:37Z</time></trkpt><trkpt lat="45.866615691438014" lon="14.05429260415399"><ele>811.0</ele><time>2026-05-05T11:56:38Z</time></trkpt><trkpt lat="45.86659769503114" lon="14.053992115413504"><ele>811.0</ele><time>2026-05-05T11:56:39Z</time></trkpt><trkpt lat="45.86660311219655" lon="14.053671449346249"><ele>810.0</ele><time>2026-05-05T11:56:40Z</time></trkpt><trkpt lat="45.86660898069268" lon="14.053337236616722"><ele>809.0</ele><time>2026-05-05T11:56:41Z</time></trkpt><trkpt lat="45.86661744531404" lon="14.05299997163584"><ele>806.5</ele><time>2026-05-05T11:56:42Z</time></trkpt><trkpt lat="45.866635374014734" lon="14.052664842195961"><ele>804.0</ele><time>2026-05-05T11:56:43Z</time></trkpt><trkpt lat="45.86667629327278" lon="14.05233755826449"><ele>802.6666666666667</ele><time>2026-05-05T11:56:44Z</time></trkpt><trkpt lat="45.86673460441406" lon="14.052033847842726"><ele>801.3333333333334</ele><time>2026-05-05T11:56:45Z</time></trkpt><trkpt lat="45.866810048082286" lon="14.051743860625358"><ele>800.0</ele><time>2026-05-05T11:56:46Z</time></trkpt><trkpt lat="45.866900623692274" lon="14.051451678660014"><ele>813.0</ele><time>2026-05-05T11:56:47Z</time></trkpt><trkpt lat="45.86700643190914" lon="14.051154905208705"><ele>826.0</ele><time>2026-05-05T11:56:48Z</time></trkpt><trkpt lat="45.86712429358921" lon="14.050854405386978"><ele>818.5</ele><time>2026-05-05T11:56:49Z</time></trkpt><trkpt lat="45.86724440112266" lon="14.050538448764357"><ele>811.0</ele><time>2026-05-05T11:56:50Z</time></trkpt><trkpt lat="45.86737025950707" lon="14.050212930020741"><ele>803.0</ele><time>2026-05-05T11:56:51Z</time></trkpt><trkpt lat="45.86748166174982" lon="14.04991241855562"><ele>795.0</ele><time>2026-05-05T11:56:52Z</time></trkpt><trkpt lat="45.86758330942043" lon="14.049628882633776"><ele>803.0</ele><time>2026-05-05T11:56:53Z</time></trkpt><trkpt lat="45.86767899421453" lon="14.049349840445268"><ele>811.0</ele><time>2026-05-05T11:56:54Z</time></trkpt><trkpt lat="45.86776111440498" lon="14.049071638981498"><ele>819.0</ele><time>2026-05-05T11:56:55Z</time></trkpt><trkpt lat="45.867821937902896" lon="14.048780784395463"><ele>819.0</ele><time>2026-05-05T11:56:56Z</time></trkpt><trkpt lat="45.86786772015478" lon="14.04849201991467"><ele>819.0</ele><time>2026-05-05T11:56:57Z</time></trkpt><trkpt lat="45.86791046117307" lon="14.048218689966292"><ele>819.0</ele><time>2026-05-05T11:56:58Z</time></trkpt><trkpt lat="45.86797836780507" lon="14.047969536342023"><ele>814.3333333333333</ele><time>2026-05-05T11:56:59Z</time></trkpt><trkpt lat="45.868069729777794" lon="14.047740006006006"><ele>809.6666666666666</ele><time>2026-05-05T11:57:00Z</time></trkpt><trkpt lat="45.868183678094965" lon="14.047507436160993"><ele>805.0</ele><time>2026-05-05T11:57:01Z</time></trkpt><trkpt lat="45.868305275505605" lon="14.04728304235021"><ele>800.3333333333333</ele><time>2026-05-05T11:57:02Z</time></trkpt><trkpt lat="45.86841722882371" lon="14.047044708206935"><ele>795.6666666666667</ele><time>2026-05-05T11:57:03Z</time></trkpt><trkpt lat="45.86852112294857" lon="14.046794017515085"><ele>791.0</ele><time>2026-05-05T11:57:04Z</time></trkpt><trkpt lat="45.86860820573237" lon="14.046519839560624"><ele>798.6666666666667</ele><time>2026-05-05T11:57:05Z</time></trkpt><trkpt lat="45.868670339701" lon="14.04622807959139"><ele>806.3333333333333</ele><time>2026-05-05T11:57:06Z</time></trkpt><trkpt lat="45.86871530853099" lon="14.045926647610262"><ele>814.0</ele><time>2026-05-05T11:57:07Z</time></trkpt><trkpt lat="45.86874548110543" lon="14.045614715960223"><ele>814.0</ele><time>2026-05-05T11:57:08Z</time></trkpt><trkpt lat="45.86876263874966" lon="14.045292418623234"><ele>814.0</ele><time>2026-05-05T11:57:09Z</time></trkpt><trkpt lat="45.86877132536197" lon="14.044963842104629"><ele>812.0</ele><time>2026-05-05T11:57:10Z</time></trkpt><trkpt lat="45.868790241897685" lon="14.044648637300444"><ele>810.0</ele><time>2026-05-05T11:57:11Z</time></trkpt><trkpt lat="45.86881152379928" lon="14.044339597300059"><ele>808.0</ele><time>2026-05-05T11:57:12Z</time></trkpt><trkpt lat="45.86884446495582" lon="14.044040330677795"><ele>804.6666666666666</ele><time>2026-05-05T11:57:13Z</time></trkpt><trkpt lat="45.86889297761005" lon="14.043741711555958"><ele>801.3333333333333</ele><time>2026-05-05T11:57:14Z</time></trkpt><trkpt lat="45.86897475902555" lon="14.043445456306628"><ele>798.0</ele><time>2026-05-05T11:57:15Z</time></trkpt><trkpt lat="45.869075765846105" lon="14.0431490044165"><ele>790.0</ele><time>2026-05-05T11:57:16Z</time></trkpt><trkpt lat="45.86918774499665" lon="14.042834040214782"><ele>782.0</ele><time>2026-05-05T11:57:17Z</time></trkpt><trkpt lat="45.869299096666055" lon="14.042506165975142"><ele>793.0</ele><time>2026-05-05T11:57:18Z</time></trkpt><trkpt lat="45.86940763622708" lon="14.04218739294293"><ele>804.0</ele><time>2026-05-05T11:57:19Z</time></trkpt><trkpt lat="45.86950848611559" lon="14.041887623053624"><ele>795.5</ele><time>2026-05-05T11:57:20Z</time></trkpt><trkpt lat="45.86961431474922" lon="14.041587327585503"><ele>787.0</ele><time>2026-05-05T11:57:21Z</time></trkpt><trkpt lat="45.869720520765284" lon="14.041290056091244"><ele>787.0</ele><time>2026-05-05T11:57:22Z</time></trkpt><trkpt lat="45.869822324684236" lon="14.041004476135164"><ele>787.0</ele><time>2026-05-05T11:57:23Z</time></trkpt><trkpt lat="45.869921449155434" lon="14.040722737386673"><ele>787.0</ele><time>2026-05-05T11:57:24Z</time></trkpt><trkpt lat="45.870022778097606" lon="14.040443943579282"><ele>794.0</ele><time>2026-05-05T11:57:25Z</time></trkpt><trkpt lat="45.87011659100245" lon="14.040160598366601"><ele>801.0</ele><time>2026-05-05T11:57:26Z</time></trkpt><trkpt lat="45.87022660694232" lon="14.039887728212932"><ele>808.0</ele><time>2026-05-05T11:57:27Z</time></trkpt><trkpt lat="45.87026023694615" lon="14.039562457516094"><ele>808.0</ele><time>2026-05-05T11:57:28Z</time></trkpt><trkpt lat="45.870306166757246" lon="14.039248532402729"><ele>808.0</ele><time>2026-05-05T11:57:29Z</time></trkpt><trkpt lat="45.87034724807423" lon="14.03893629725411"><ele>808.0</ele><time>2026-05-05T11:57:30Z</time></trkpt><trkpt lat="45.870390241733425" lon="14.03863259100789"><ele>804.3333333333333</ele><time>2026-05-05T11:57:31Z</time></trkpt><trkpt lat="45.870429900069034" lon="14.03833607847483"><ele>800.6666666666667</ele><time>2026-05-05T11:57:32Z</time></trkpt><trkpt lat="45.87046638857577" lon="14.038049564731525"><ele>797.0</ele><time>2026-05-05T11:57:33Z</time></trkpt><trkpt lat="45.8704895160809" lon="14.03777493435849"><ele>796.0</ele><time>2026-05-05T11:57:34Z</time></trkpt><trkpt lat="45.8705101324014" lon="14.037504101114065"><ele>795.0</ele><time>2026-05-05T11:57:35Z</time></trkpt><trkpt lat="45.87053193366506" lon="14.037245279165912"><ele>794.0</ele><time>2026-05-05T11:57:36Z</time></trkpt><trkpt lat="45.87055252961755" lon="14.036997264911973"><ele>792.3333333333334</ele><time>2026-05-05T11:57:37Z</time></trkpt><trkpt lat="45.87057269063743" lon="14.036752152993131"><ele>790.6666666666667</ele><time>2026-05-05T11:57:38Z</time></trkpt><trkpt lat="45.87059415222642" lon="14.036507808520403"><ele>789.0</ele><time>2026-05-05T11:57:39Z</time></trkpt><trkpt lat="45.870613619444526" lon="14.03626452146315"><ele>786.3333333333333</ele><time>2026-05-05T11:57:40Z</time></trkpt><trkpt lat="45.87062500150015" lon="14.036018059916044"><ele>783.6666666666666</ele><time>2026-05-05T11:57:41Z</time></trkpt><trkpt lat="45.87062847045393" lon="14.03576665427974"><ele>781.0</ele><time>2026-05-05T11:57:42Z</time></trkpt><trkpt lat="45.87063016729182" lon="14.035510886436123"><ele>779.6666666666666</ele><time>2026-05-05T11:57:43Z</time></trkpt><trkpt lat="45.87063187667506" lon="14.035250864557401"><ele>778.3333333333333</ele><time>2026-05-05T11:57:44Z</time></trkpt><trkpt lat="45.87063638869159" lon="14.034987257798527"><ele>777.0</ele><time>2026-05-05T11:57:45Z</time></trkpt><trkpt lat="45.87064342181182" lon="14.034729377823783"><ele>774.0</ele><time>2026-05-05T11:57:46Z</time></trkpt><trkpt lat="45.87065093799199" lon="14.034477448301484"><ele>771.0</ele><time>2026-05-05T11:57:47Z</time></trkpt><trkpt lat="45.87064820123238" lon="14.034241428600088"><ele>768.0</ele><time>2026-05-05T11:57:48Z</time></trkpt><trkpt lat="45.87063361909108" lon="14.034018601000017"><ele>767.75</ele><time>2026-05-05T11:57:49Z</time></trkpt><trkpt lat="45.87060810777785" lon="14.033802807379175"><ele>767.5</ele><time>2026-05-05T11:57:50Z</time></trkpt><trkpt lat="45.87058169844793" lon="14.033599434399866"><ele>767.25</ele><time>2026-05-05T11:57:51Z</time></trkpt><trkpt lat="45.870558690356944" lon="14.033399977524525"><ele>767.0</ele><time>2026-05-05T11:57:52Z</time></trkpt><trkpt lat="45.870538037684454" lon="14.033202179282108"><ele>766.75</ele><time>2026-05-05T11:57:53Z</time></trkpt><trkpt lat="45.87051742398508" lon="14.033012895398617"><ele>766.5</ele><time>2026-05-05T11:57:54Z</time></trkpt><trkpt lat="45.87049666438088" lon="14.032839115972326"><ele>766.25</ele><time>2026-05-05T11:57:55Z</time></trkpt><trkpt lat="45.87047980028" lon="14.032683482151176"><ele>766.0</ele><time>2026-05-05T11:57:56Z</time></trkpt><trkpt lat="45.87045980630137" lon="14.032530261871244"><ele>766.1999999999999</ele><time>2026-05-05T11:57:57Z</time></trkpt><trkpt lat="45.87043351107596" lon="14.032391520243099"><ele>766.4</ele><time>2026-05-05T11:57:58Z</time></trkpt><trkpt lat="45.87040058873953" lon="14.032259848742791"><ele>766.6</ele><time>2026-05-05T11:57:59Z</time></trkpt><trkpt lat="45.87036199281172" lon="14.032137785317218"><ele>766.8</ele><time>2026-05-05T11:58:00Z</time></trkpt><trkpt lat="45.87031254165333" lon="14.03201946072271"><ele>767.0</ele><time>2026-05-05T11:58:01Z</time></trkpt><trkpt lat="45.870247634889466" lon="14.031899740624958"><ele>767.0</ele><time>2026-05-05T11:58:02Z</time></trkpt><trkpt lat="45.87017248284551" lon="14.031770776696085"><ele>767.0</ele><time>2026-05-05T11:58:03Z</time></trkpt><trkpt lat="45.87009204805339" lon="14.03163604965332"><ele>767.0</ele><time>2026-05-05T11:58:04Z</time></trkpt><trkpt lat="45.87001239079161" lon="14.031510321858633"><ele>767.0</ele><time>2026-05-05T11:58:05Z</time></trkpt><trkpt lat="45.869943950832386" lon="14.031399689995778"><ele>763.4000000000001</ele><time>2026-05-05T11:58:06Z</time></trkpt><trkpt lat="45.869887264647225" lon="14.031291485944934"><ele>759.8000000000001</ele><time>2026-05-05T11:58:07Z</time></trkpt><trkpt lat="45.86983087394174" lon="14.031187151069455"><ele>756.2</ele><time>2026-05-05T11:58:08Z</time></trkpt><trkpt lat="45.86977121526673" lon="14.03106289598413"><ele>752.6</ele><time>2026-05-05T11:58:09Z</time></trkpt><trkpt lat="45.86971706702451" lon="14.030904025435458"><ele>749.0</ele><time>2026-05-05T11:58:10Z</time></trkpt><trkpt lat="45.86966612000014" lon="14.030750576135258"><ele>749.0</ele><time>2026-05-05T11:58:11Z</time></trkpt><trkpt lat="45.86962607461884" lon="14.030558273381985"><ele>749.0</ele><time>2026-05-05T11:58:12Z</time></trkpt><trkpt lat="45.869599877116244" lon="14.030343927798956"><ele>749.0</ele><time>2026-05-05T11:58:13Z</time></trkpt><trkpt lat="45.869594623304984" lon="14.030112822643606"><ele>748.0</ele><time>2026-05-05T11:58:14Z</time></trkpt><trkpt lat="45.8696199028993" lon="14.029866261340985"><ele>747.0</ele><time>2026-05-05T11:58:15Z</time></trkpt><trkpt lat="45.869669554308025" lon="14.029621940985342"><ele>746.0</ele><time>2026-05-05T11:58:16Z</time></trkpt><trkpt lat="45.86973853474405" lon="14.029374502545313"><ele>746.0</ele><time>2026-05-05T11:58:17Z</time></trkpt><trkpt lat="45.869837173864994" lon="14.0291434272663"><ele>746.0</ele><time>2026-05-05T11:58:18Z</time></trkpt><trkpt lat="45.869960832981626" lon="14.028912747501023"><ele>746.0</ele><time>2026-05-05T11:58:19Z</time></trkpt><trkpt lat="45.8701009401015" lon="14.028666558062765"><ele>747.3333333333333</ele><time>2026-05-05T11:58:20Z</time></trkpt><trkpt lat="45.87024625207176" lon="14.02841357403205"><ele>748.6666666666666</ele><time>2026-05-05T11:58:21Z</time></trkpt><trkpt lat="45.87037781029165" lon="14.028162956778612"><ele>750.0</ele><time>2026-05-05T11:58:22Z</time></trkpt><trkpt lat="45.87050730906218" lon="14.027904180109475"><ele>743.0</ele><time>2026-05-05T11:58:23Z</time></trkpt><trkpt lat="45.870634730677885" lon="14.027631546878455"><ele>736.0</ele><time>2026-05-05T11:58:24Z</time></trkpt><trkpt lat="45.87075702426204" lon="14.027345184065984"><ele>730.5</ele><time>2026-05-05T11:58:25Z</time></trkpt><trkpt lat="45.87086521314601" lon="14.027047350491145"><ele>725.0</ele><time>2026-05-05T11:58:26Z</time></trkpt><trkpt lat="45.8709667701098" lon="14.026770607571699"><ele>728.6666666666666</ele><time>2026-05-05T11:58:27Z</time></trkpt><trkpt lat="45.871069083540824" lon="14.026502510253732"><ele>732.3333333333334</ele><time>2026-05-05T11:58:28Z</time></trkpt><trkpt lat="45.87117621299946" lon="14.02621945183234"><ele>736.0</ele><time>2026-05-05T11:58:29Z</time></trkpt><trkpt lat="45.87127001278169" lon="14.025925444184226"><ele>728.5</ele><time>2026-05-05T11:58:30Z</time></trkpt><trkpt lat="45.87137803069805" lon="14.025626758423437"><ele>721.0</ele><time>2026-05-05T11:58:31Z</time></trkpt><trkpt lat="45.8714934767906" lon="14.025325953502303"><ele>721.0</ele><time>2026-05-05T11:58:32Z</time></trkpt><trkpt lat="45.87159949537562" lon="14.025019617239069"><ele>721.0</ele><time>2026-05-05T11:58:33Z</time></trkpt><trkpt lat="45.87168922542729" lon="14.024716495993113"><ele>719.3333333333334</ele><time>2026-05-05T11:58:34Z</time></trkpt><trkpt lat="45.87176188689624" lon="14.024429134977066"><ele>717.6666666666666</ele><time>2026-05-05T11:58:35Z</time></trkpt><trkpt lat="45.871825473778486" lon="14.024146047529277"><ele>716.0</ele><time>2026-05-05T11:58:36Z</time></trkpt><trkpt lat="45.871864989641274" lon="14.02387904915799"><ele>717.75</ele><time>2026-05-05T11:58:37Z</time></trkpt><trkpt lat="45.871877291490094" lon="14.023647900059697"><ele>719.5</ele><time>2026-05-05T11:58:38Z</time></trkpt><trkpt lat="45.87187935121184" lon="14.023442739920304"><ele>721.25</ele><time>2026-05-05T11:58:39Z</time></trkpt><trkpt lat="45.871893895533326" lon="14.023238550679547"><ele>723.0</ele><time>2026-05-05T11:58:40Z</time></trkpt><trkpt lat="45.87196393320579" lon="14.023071859208361"><ele>723.0</ele><time>2026-05-05T11:58:41Z</time></trkpt><trkpt lat="45.87201884476804" lon="14.022904790219147"><ele>723.0</ele><time>2026-05-05T11:58:42Z</time></trkpt><trkpt lat="45.87206429951848" lon="14.022694315413677"><ele>723.0</ele><time>2026-05-05T11:58:43Z</time></trkpt><trkpt lat="45.87211250598918" lon="14.022477565342"><ele>723.0</ele><time>2026-05-05T11:58:44Z</time></trkpt><trkpt lat="45.872155926475344" lon="14.022248253596327"><ele>720.0</ele><time>2026-05-05T11:58:45Z</time></trkpt><trkpt lat="45.87220049997292" lon="14.022018598399915"><ele>717.0</ele><time>2026-05-05T11:58:46Z</time></trkpt><trkpt lat="45.872251894791916" lon="14.021788693411992"><ele>714.0</ele><time>2026-05-05T11:58:47Z</time></trkpt><trkpt lat="45.872309852902994" lon="14.021560134713075"><ele>709.0</ele><time>2026-05-05T11:58:48Z</time></trkpt><trkpt lat="45.87237935894369" lon="14.021327516724694"><ele>704.0</ele><time>2026-05-05T11:58:49Z</time></trkpt><trkpt lat="45.872457239605254" lon="14.021096460465133"><ele>699.0</ele><time>2026-05-05T11:58:50Z</time></trkpt><trkpt lat="45.87253952818982" lon="14.020860239960312"><ele>700.3333333333334</ele><time>2026-05-05T11:58:51Z</time></trkpt><trkpt lat="45.87263006446037" lon="14.020626266741754"><ele>701.6666666666667</ele><time>2026-05-05T11:58:52Z</time></trkpt><trkpt lat="45.87272331577825" lon="14.020376792394925"><ele>703.0</ele><time>2026-05-05T11:58:53Z</time></trkpt><trkpt lat="45.87281345776408" lon="14.020122083563686"><ele>699.3333333333334</ele><time>2026-05-05T11:58:54Z</time></trkpt><trkpt lat="45.872905987640266" lon="14.019861922817235"><ele>695.6666666666666</ele><time>2026-05-05T11:58:55Z</time></trkpt><trkpt lat="45.87299717071352" lon="14.019594715598652"><ele>692.0</ele><time>2026-05-05T11:58:56Z</time></trkpt><trkpt lat="45.873093567016014" lon="14.019318665783725"><ele>685.0</ele><time>2026-05-05T11:58:57Z</time></trkpt><trkpt lat="45.87318663826934" lon="14.019033454317178"><ele>678.0</ele><time>2026-05-05T11:58:58Z</time></trkpt><trkpt lat="45.87329058915953" lon="14.018734938160412"><ele>678.0</ele><time>2026-05-05T11:58:59Z</time></trkpt><trkpt lat="45.8733913166218" lon="14.018428427836355"><ele>678.0</ele><time>2026-05-05T11:59:00Z</time></trkpt><trkpt lat="45.87349980130399" lon="14.01812525661554"><ele>687.0</ele><time>2026-05-05T11:59:01Z</time></trkpt><trkpt lat="45.87360667961753" lon="14.01780456141144"><ele>696.0</ele><time>2026-05-05T11:59:02Z</time></trkpt><trkpt lat="45.87371486112533" lon="14.017489480743867"><ele>687.0</ele><time>2026-05-05T11:59:03Z</time></trkpt><trkpt lat="45.87382246026794" lon="14.017176649653809"><ele>678.0</ele><time>2026-05-05T11:59:04Z</time></trkpt><trkpt lat="45.87392606208023" lon="14.016861998409356"><ele>672.5</ele><time>2026-05-05T11:59:05Z</time></trkpt><trkpt lat="45.87402353465206" lon="14.016545747387157"><ele>667.0</ele><time>2026-05-05T11:59:06Z</time></trkpt><trkpt lat="45.87411282974669" lon="14.016237426300675"><ele>667.0</ele><time>2026-05-05T11:59:07Z</time></trkpt><trkpt lat="45.87418814542857" lon="14.015938968040816"><ele>667.0</ele><time>2026-05-05T11:59:08Z</time></trkpt><trkpt lat="45.874254867143804" lon="14.015643329079763"><ele>667.0</ele><time>2026-05-05T11:59:09Z</time></trkpt><trkpt lat="45.87433299621978" lon="14.015353770502479"><ele>668.0</ele><time>2026-05-05T11:59:10Z</time></trkpt><trkpt lat="45.874413509341316" lon="14.015057479199466"><ele>669.0</ele><time>2026-05-05T11:59:11Z</time></trkpt><trkpt lat="45.87449442694903" lon="14.014761948927013"><ele>670.0</ele><time>2026-05-05T11:59:12Z</time></trkpt><trkpt lat="45.874572345398434" lon="14.014480806357483"><ele>670.0</ele><time>2026-05-05T11:59:13Z</time></trkpt><trkpt lat="45.874645420144354" lon="14.014205663669937"><ele>670.0</ele><time>2026-05-05T11:59:14Z</time></trkpt><trkpt lat="45.874728126157414" lon="14.013938367914584"><ele>670.0</ele><time>2026-05-05T11:59:15Z</time></trkpt><trkpt lat="45.87482338270424" lon="14.01367495595328"><ele>667.3333333333334</ele><time>2026-05-05T11:59:16Z</time></trkpt><trkpt lat="45.87492778644291" lon="14.013427403879783"><ele>664.6666666666666</ele><time>2026-05-05T11:59:17Z</time></trkpt><trkpt lat="45.87504830990124" lon="14.013174219729736"><ele>662.0</ele><time>2026-05-05T11:59:18Z</time></trkpt><trkpt lat="45.87516284807003" lon="14.012928524342804"><ele>662.0</ele><time>2026-05-05T11:59:19Z</time></trkpt><trkpt lat="45.875276962293164" lon="14.012679210076106"><ele>662.0</ele><time>2026-05-05T11:59:20Z</time></trkpt><trkpt lat="45.875391659182824" lon="14.012422173838637"><ele>662.0</ele><time>2026-05-05T11:59:21Z</time></trkpt><trkpt lat="45.87550328092087" lon="14.01216581775059"><ele>656.0</ele><time>2026-05-05T11:59:22Z</time></trkpt><trkpt lat="45.875614849725245" lon="14.011919337992746"><ele>650.0</ele><time>2026-05-05T11:59:23Z</time></trkpt><trkpt lat="45.87572521633199" lon="14.011668736902415"><ele>644.0</ele><time>2026-05-05T11:59:24Z</time></trkpt><trkpt lat="45.87583507682152" lon="14.011415887713174"><ele>641.3333333333333</ele><time>2026-05-05T11:59:25Z</time></trkpt><trkpt lat="45.87594576088368" lon="14.011168767543932"><ele>638.6666666666666</ele><time>2026-05-05T11:59:26Z</time></trkpt><trkpt lat="45.87605700964513" lon="14.010929245397783"><ele>636.0</ele><time>2026-05-05T11:59:27Z</time></trkpt><trkpt lat="45.87617246974938" lon="14.010690926412051"><ele>636.0</ele><time>2026-05-05T11:59:28Z</time></trkpt><trkpt lat="45.8762976351926" lon="14.010464775830684"><ele>636.0</ele><time>2026-05-05T11:59:29Z</time></trkpt><trkpt lat="45.876427178614115" lon="14.010243763026626"><ele>636.0</ele><time>2026-05-05T11:59:30Z</time></trkpt><trkpt lat="45.876551590034104" lon="14.010026250613578"><ele>640.0</ele><time>2026-05-05T11:59:31Z</time></trkpt><trkpt lat="45.876677860053476" lon="14.00980815028133"><ele>644.0</ele><time>2026-05-05T11:59:32Z</time></trkpt><trkpt lat="45.87679942940297" lon="14.009591068479866"><ele>648.0</ele><time>2026-05-05T11:59:33Z</time></trkpt><trkpt lat="45.876920385689196" lon="14.009380353766348"><ele>648.0</ele><time>2026-05-05T11:59:34Z</time></trkpt><trkpt lat="45.87704657751324" lon="14.009173221038049"><ele>648.0</ele><time>2026-05-05T11:59:35Z</time></trkpt><trkpt lat="45.87718335146439" lon="14.008969959533406"><ele>648.0</ele><time>2026-05-05T11:59:36Z</time></trkpt><trkpt lat="45.877329491461325" lon="14.008774452613517"><ele>652.0</ele><time>2026-05-05T11:59:37Z</time></trkpt><trkpt lat="45.87747548263794" lon="14.00858166762165"><ele>656.0</ele><time>2026-05-05T11:59:38Z</time></trkpt><trkpt lat="45.877619766968195" lon="14.008380968732803"><ele>660.0</ele><time>2026-05-05T11:59:39Z</time></trkpt><trkpt lat="45.877770851705755" lon="14.008180955356748"><ele>651.3333333333334</ele><time>2026-05-05T11:59:40Z</time></trkpt><trkpt lat="45.877908211461886" lon="14.007961792298481"><ele>642.6666666666667</ele><time>2026-05-05T11:59:41Z</time></trkpt><trkpt lat="45.87803997939401" lon="14.007729671280972"><ele>634.0</ele><time>2026-05-05T11:59:42Z</time></trkpt><trkpt lat="45.87815614232882" lon="14.007481975350586"><ele>626.3333333333334</ele><time>2026-05-05T11:59:43Z</time></trkpt><trkpt lat="45.87826577577378" lon="14.007217330042247"><ele>618.6666666666666</ele><time>2026-05-05T11:59:44Z</time></trkpt><trkpt lat="45.8783755631307" lon="14.006952835623737"><ele>611.0</ele><time>2026-05-05T11:59:45Z</time></trkpt><trkpt lat="45.87847914162813" lon="14.006704299389632"><ele>617.3333333333333</ele><time>2026-05-05T11:59:46Z</time></trkpt><trkpt lat="45.878600388496324" lon="14.00646825888584"><ele>623.6666666666666</ele><time>2026-05-05T11:59:47Z</time></trkpt><trkpt lat="45.878728085026985" lon="14.006226881764928"><ele>630.0</ele><time>2026-05-05T11:59:48Z</time></trkpt><trkpt lat="45.878833015409796" lon="14.006000303556739"><ele>624.0</ele><time>2026-05-05T11:59:49Z</time></trkpt><trkpt lat="45.878915606661444" lon="14.005806972213168"><ele>618.0</ele><time>2026-05-05T11:59:50Z</time></trkpt><trkpt lat="45.87898587227672" lon="14.005639444259259"><ele>612.0</ele><time>2026-05-05T11:59:51Z</time></trkpt><trkpt lat="45.87905196477347" lon="14.00549475034685"><ele>606.0</ele><time>2026-05-05T11:59:52Z</time></trkpt><trkpt lat="45.879107063822154" lon="14.005348802883816"><ele>606.0</ele><time>2026-05-05T11:59:53Z</time></trkpt><trkpt lat="45.879153956900026" lon="14.005206135014811"><ele>606.0</ele><time>2026-05-05T11:59:54Z</time></trkpt><trkpt lat="45.87919015207292" lon="14.005073636604113"><ele>606.0</ele><time>2026-05-05T11:59:55Z</time></trkpt><trkpt lat="45.87923044735381" lon="14.004954816415971"><ele>606.0</ele><time>2026-05-05T11:59:56Z</time></trkpt><trkpt lat="45.879265051570684" lon="14.004836227513113"><ele>606.0</ele><time>2026-05-05T11:59:57Z</time></trkpt><trkpt lat="45.87928673161827" lon="14.004714438678809"><ele>608.4</ele><time>2026-05-05T11:59:58Z</time></trkpt><trkpt lat="45.879304251874494" lon="14.004597020074272"><ele>610.8</ele><time>2026-05-05T11:59:59Z</time></trkpt><trkpt lat="45.879316530200946" lon="14.004488659114433"><ele>613.1999999999999</ele><time>2026-05-05T12:00:00Z</time></trkpt><trkpt lat="45.87933411963138" lon="14.0043645340992"><ele>615.6</ele><time>2026-05-05T12:00:01Z</time></trkpt><trkpt lat="45.87937023738192" lon="14.004233309099366"><ele>618.0</ele><time>2026-05-05T12:00:02Z</time></trkpt><trkpt lat="45.879413222233616" lon="14.004089983920043"><ele>618.0</ele><time>2026-05-05T12:00:03Z</time></trkpt><trkpt lat="45.87946752556173" lon="14.00394300683048"><ele>618.0</ele><time>2026-05-05T12:00:04Z</time></trkpt><trkpt lat="45.87953718151536" lon="14.003797795268293"><ele>618.0</ele><time>2026-05-05T12:00:05Z</time></trkpt><trkpt lat="45.87959616103577" lon="14.003659762635852"><ele>618.0</ele><time>2026-05-05T12:00:06Z</time></trkpt><trkpt lat="45.879652706993106" lon="14.003540594888506"><ele>618.0</ele><time>2026-05-05T12:00:07Z</time></trkpt><trkpt lat="45.87969545884898" lon="14.003428724808188"><ele>618.0</ele><time>2026-05-05T12:00:08Z</time></trkpt><trkpt lat="45.87973344700937" lon="14.003313530585364"><ele>618.0</ele><time>2026-05-05T12:00:09Z</time></trkpt><trkpt lat="45.87978036948257" lon="14.003197861937236"><ele>618.0</ele><time>2026-05-05T12:00:10Z</time></trkpt><trkpt lat="45.87983069206605" lon="14.003075472078642"><ele>618.0</ele><time>2026-05-05T12:00:11Z</time></trkpt><trkpt lat="45.879876158487654" lon="14.00296068900935"><ele>617.6666666666666</ele><time>2026-05-05T12:00:12Z</time></trkpt><trkpt lat="45.87992295435852" lon="14.002844076431971"><ele>617.3333333333334</ele><time>2026-05-05T12:00:13Z</time></trkpt><trkpt lat="45.87996401002455" lon="14.00274198191787"><ele>617.0</ele><time>2026-05-05T12:00:14Z</time></trkpt><trkpt lat="45.880006218078094" lon="14.002633283922908"><ele>616.6666666666667</ele><time>2026-05-05T12:00:15Z</time></trkpt><trkpt lat="45.880048546828235" lon="14.002510009868393"><ele>616.3333333333334</ele><time>2026-05-05T12:00:16Z</time></trkpt><trkpt lat="45.88008759190529" lon="14.00239284391189"><ele>616.0</ele><time>2026-05-05T12:00:17Z</time></trkpt><trkpt lat="45.88011302178049" lon="14.002291554746572"><ele>616.0</ele><time>2026-05-05T12:00:18Z</time></trkpt><trkpt lat="45.88016733867354" lon="14.002144445903777"><ele>616.0</ele><time>2026-05-05T12:00:20Z</time></trkpt><trkpt lat="45.880256411027" lon="14.002082868431554"><ele>616.0</ele><time>2026-05-05T12:00:22Z</time></trkpt><trkpt lat="45.88035015811979" lon="14.001995467874284"><ele>616.0</ele><time>2026-05-05T12:00:24Z</time></trkpt><trkpt lat="45.88041860758115" lon="14.001982081113498"><ele>616.0</ele><time>2026-05-05T12:00:25Z</time></trkpt><trkpt lat="45.88049163435194" lon="14.002011492142676"><ele>616.0</ele><time>2026-05-05T12:00:26Z</time></trkpt><trkpt lat="45.880564483205234" lon="14.00202422725678"><ele>616.0</ele><time>2026-05-05T12:00:27Z</time></trkpt><trkpt lat="45.880642444144335" lon="14.002009353498549"><ele>616.0</ele><time>2026-05-05T12:00:28Z</time></trkpt><trkpt lat="45.88071519984699" lon="14.00195277916097"><ele>616.0</ele><time>2026-05-05T12:00:29Z</time></trkpt><trkpt lat="45.88078218086802" lon="14.001876606168976"><ele>616.0</ele><time>2026-05-05T12:00:30Z</time></trkpt><trkpt lat="45.88083214697564" lon="14.0017824093493"><ele>616.0</ele><time>2026-05-05T12:00:31Z</time></trkpt><trkpt lat="45.88088076036322" lon="14.001684999801059"><ele>616.0</ele><time>2026-05-05T12:00:32Z</time></trkpt><trkpt lat="45.88092642203646" lon="14.001575379472605"><ele>616.0</ele><time>2026-05-05T12:00:33Z</time></trkpt><trkpt lat="45.88096699383267" lon="14.001482740962215"><ele>616.0</ele><time>2026-05-05T12:00:34Z</time></trkpt><trkpt lat="45.881009894889736" lon="14.001391222766248"><ele>616.0</ele><time>2026-05-05T12:00:35Z</time></trkpt><trkpt lat="45.881047492768204" lon="14.001306655318016"><ele>616.0</ele><time>2026-05-05T12:00:36Z</time></trkpt><trkpt lat="45.88111612168707" lon="14.001158965260238"><ele>616.0</ele><time>2026-05-05T12:00:38Z</time></trkpt><trkpt lat="45.88117813269578" lon="14.001095658295974"><ele>617.0</ele><time>2026-05-05T12:00:40Z</time></trkpt><trkpt lat="45.88125065918802" lon="14.001237459014515"><ele>618.0</ele><time>2026-05-05T12:00:43Z</time></trkpt><trkpt lat="45.88129784569776" lon="14.001320875164122"><ele>619.0</ele><time>2026-05-05T12:00:44Z</time></trkpt><trkpt lat="45.88134160487588" lon="14.001418990338498"><ele>620.0</ele><time>2026-05-05T12:00:45Z</time></trkpt><trkpt lat="45.881381397476915" lon="14.001525317546987"><ele>621.0</ele><time>2026-05-05T12:00:46Z</time></trkpt><trkpt lat="45.881405488196144" lon="14.001636544578632"><ele>622.0</ele><time>2026-05-05T12:00:47Z</time></trkpt><trkpt lat="45.88143298735895" lon="14.00172668648316"><ele>622.0</ele><time>2026-05-05T12:00:48Z</time></trkpt><trkpt lat="45.881538722861116" lon="14.001767481502833"><ele>622.0</ele><time>2026-05-05T12:00:50Z</time></trkpt><trkpt lat="45.88164079448593" lon="14.001670421919254"><ele>622.0</ele><time>2026-05-05T12:00:52Z</time></trkpt><trkpt lat="45.88165013648471" lon="14.001537467523912"><ele>622.0</ele><time>2026-05-05T12:00:53Z</time></trkpt><trkpt lat="45.881619395298344" lon="14.00140167712256"><ele>622.0</ele><time>2026-05-05T12:00:54Z</time></trkpt><trkpt lat="45.88162833114467" lon="14.001232243796471"><ele>622.75</ele><time>2026-05-05T12:00:55Z</time></trkpt><trkpt lat="45.881663371668495" lon="14.00107031288666"><ele>623.5</ele><time>2026-05-05T12:00:56Z</time></trkpt><trkpt lat="45.881711749353386" lon="14.000895635673862"><ele>624.25</ele><time>2026-05-05T12:00:57Z</time></trkpt><trkpt lat="45.881770289373264" lon="14.000723268262684"><ele>625.0</ele><time>2026-05-05T12:00:58Z</time></trkpt><trkpt lat="45.881833947553595" lon="14.0005448045011"><ele>623.0</ele><time>2026-05-05T12:00:59Z</time></trkpt><trkpt lat="45.881900786512546" lon="14.000366048543354"><ele>621.0</ele><time>2026-05-05T12:01:00Z</time></trkpt><trkpt lat="45.881961746731704" lon="14.000169596080077"><ele>619.0</ele><time>2026-05-05T12:01:01Z</time></trkpt><trkpt lat="45.88204965706449" lon="14.000005873271341"><ele>617.0</ele><time>2026-05-05T12:01:02Z</time></trkpt><trkpt lat="45.88212797707" lon="13.999820434845748"><ele>617.0</ele><time>2026-05-05T12:01:03Z</time></trkpt><trkpt lat="45.88220996306898" lon="13.999628757688678"><ele>617.0</ele><time>2026-05-05T12:01:04Z</time></trkpt><trkpt lat="45.88228920327978" lon="13.99947177969671"><ele>617.0</ele><time>2026-05-05T12:01:05Z</time></trkpt><trkpt lat="45.88237802159014" lon="13.999330510699666"><ele>617.0</ele><time>2026-05-05T12:01:06Z</time></trkpt><trkpt lat="45.88248655391732" lon="13.99918827237544"><ele>619.6666666666666</ele><time>2026-05-05T12:01:07Z</time></trkpt><trkpt lat="45.88261711492491" lon="13.999068079824376"><ele>622.3333333333334</ele><time>2026-05-05T12:01:08Z</time></trkpt><trkpt lat="45.882756678367876" lon="13.998955447804567"><ele>625.0</ele><time>2026-05-05T12:01:09Z</time></trkpt><trkpt lat="45.88290954438628" lon="13.998847913372781"><ele>625.0</ele><time>2026-05-05T12:01:10Z</time></trkpt><trkpt lat="45.88306991238087" lon="13.998747979834357"><ele>625.0</ele><time>2026-05-05T12:01:11Z</time></trkpt><trkpt lat="45.88323296596196" lon="13.998642677223826"><ele>625.0</ele><time>2026-05-05T12:01:12Z</time></trkpt><trkpt lat="45.883393154353435" lon="13.998519970962084"><ele>626.3333333333334</ele><time>2026-05-05T12:01:13Z</time></trkpt><trkpt lat="45.88353946203864" lon="13.99838677030411"><ele>627.6666666666666</ele><time>2026-05-05T12:01:14Z</time></trkpt><trkpt lat="45.88367710463045" lon="13.998250492941336"><ele>629.0</ele><time>2026-05-05T12:01:15Z</time></trkpt><trkpt lat="45.883809946435825" lon="13.998107962764353"><ele>629.0</ele><time>2026-05-05T12:01:16Z</time></trkpt><trkpt lat="45.88393068867219" lon="13.997957696223299"><ele>629.0</ele><time>2026-05-05T12:01:17Z</time></trkpt><trkpt lat="45.88402271142203" lon="13.997785717879912"><ele>629.0</ele><time>2026-05-05T12:01:18Z</time></trkpt><trkpt lat="45.88407923023837" lon="13.997587858939186"><ele>630.0</ele><time>2026-05-05T12:01:19Z</time></trkpt><trkpt lat="45.884151382896306" lon="13.99738979368444"><ele>631.0</ele><time>2026-05-05T12:01:20Z</time></trkpt><trkpt lat="45.88422448032453" lon="13.997174562086824"><ele>632.0</ele><time>2026-05-05T12:01:21Z</time></trkpt><trkpt lat="45.88432799295669" lon="13.996971237420372"><ele>634.0</ele><time>2026-05-05T12:01:22Z</time></trkpt><trkpt lat="45.88442823822614" lon="13.996750424246754"><ele>636.0</ele><time>2026-05-05T12:01:23Z</time></trkpt><trkpt lat="45.884530579032905" lon="13.996521791715097"><ele>638.0</ele><time>2026-05-05T12:01:24Z</time></trkpt><trkpt lat="45.884634079911514" lon="13.996278276442451"><ele>633.6666666666666</ele><time>2026-05-05T12:01:25Z</time></trkpt><trkpt lat="45.884720857564595" lon="13.996033993534093"><ele>629.3333333333334</ele><time>2026-05-05T12:01:26Z</time></trkpt><trkpt lat="45.884815269632654" lon="13.995822554544981"><ele>625.0</ele><time>2026-05-05T12:01:27Z</time></trkpt><trkpt lat="45.884925662046975" lon="13.995631071701064"><ele>624.0</ele><time>2026-05-05T12:01:28Z</time></trkpt><trkpt lat="45.88503222609035" lon="13.995428485873987"><ele>623.0</ele><time>2026-05-05T12:01:29Z</time></trkpt><trkpt lat="45.88513075166849" lon="13.995229845729904"><ele>622.0</ele><time>2026-05-05T12:01:30Z</time></trkpt><trkpt lat="45.885202842559465" lon="13.995016077038745"><ele>622.0</ele><time>2026-05-05T12:01:31Z</time></trkpt><trkpt lat="45.885280791517374" lon="13.99481994513001"><ele>622.0</ele><time>2026-05-05T12:01:32Z</time></trkpt><trkpt lat="45.88534227542891" lon="13.994635593991731"><ele>622.0</ele><time>2026-05-05T12:01:33Z</time></trkpt><trkpt lat="45.885359568239274" lon="13.99446615231932"><ele>622.0</ele><time>2026-05-05T12:01:34Z</time></trkpt><trkpt lat="45.8853355254517" lon="13.994317463064645"><ele>621.25</ele><time>2026-05-05T12:01:35Z</time></trkpt><trkpt lat="45.8853045584498" lon="13.994157724408115"><ele>620.5</ele><time>2026-05-05T12:01:36Z</time></trkpt><trkpt lat="45.88528303756467" lon="13.993976545727806"><ele>619.75</ele><time>2026-05-05T12:01:37Z</time></trkpt><trkpt lat="45.88527394468762" lon="13.993781432546486"><ele>619.0</ele><time>2026-05-05T12:01:38Z</time></trkpt><trkpt lat="45.88528540926294" lon="13.993578203316376"><ele>619.0</ele><time>2026-05-05T12:01:39Z</time></trkpt><trkpt lat="45.885334018294046" lon="13.99335942974826"><ele>619.0</ele><time>2026-05-05T12:01:40Z</time></trkpt><trkpt lat="45.885403745111745" lon="13.993119536825272"><ele>619.0</ele><time>2026-05-05T12:01:41Z</time></trkpt><trkpt lat="45.885473645079664" lon="13.992857963824889"><ele>620.3333333333334</ele><time>2026-05-05T12:01:42Z</time></trkpt><trkpt lat="45.885549039230774" lon="13.992584306997232"><ele>621.6666666666666</ele><time>2026-05-05T12:01:43Z</time></trkpt><trkpt lat="45.88562687547424" lon="13.992309737292699"><ele>623.0</ele><time>2026-05-05T12:01:44Z</time></trkpt><trkpt lat="45.88571267267464" lon="13.992045201315966"><ele>623.5</ele><time>2026-05-05T12:01:45Z</time></trkpt><trkpt lat="45.88584527983298" lon="13.99180210955274"><ele>624.0</ele><time>2026-05-05T12:01:46Z</time></trkpt><trkpt lat="45.88597892448111" lon="13.991514804456283"><ele>624.3333333333334</ele><time>2026-05-05T12:01:47Z</time></trkpt><trkpt lat="45.88611093965652" lon="13.991278842994104"><ele>624.6666666666667</ele><time>2026-05-05T12:01:48Z</time></trkpt><trkpt lat="45.88622119182229" lon="13.991071964661291"><ele>625.0</ele><time>2026-05-05T12:01:49Z</time></trkpt><trkpt lat="45.886325891706605" lon="13.990881810409252"><ele>624.6666666666667</ele><time>2026-05-05T12:01:50Z</time></trkpt><trkpt lat="45.886446975687065" lon="13.990699079359153"><ele>624.3333333333334</ele><time>2026-05-05T12:01:51Z</time></trkpt><trkpt lat="45.88659132819265" lon="13.990503505489725"><ele>624.0</ele><time>2026-05-05T12:01:52Z</time></trkpt><trkpt lat="45.88672314652414" lon="13.990308414024783"><ele>624.3333333333334</ele><time>2026-05-05T12:01:53Z</time></trkpt><trkpt lat="45.88685035832152" lon="13.99009284131246"><ele>624.6666666666667</ele><time>2026-05-05T12:01:54Z</time></trkpt><trkpt lat="45.88697133860287" lon="13.989852079152808"><ele>625.0</ele><time>2026-05-05T12:01:55Z</time></trkpt><trkpt lat="45.887074884711964" lon="13.989623317722044"><ele>625.3333333333334</ele><time>2026-05-05T12:01:56Z</time></trkpt><trkpt lat="45.88716533786192" lon="13.989396300533246"><ele>625.6666666666666</ele><time>2026-05-05T12:01:57Z</time></trkpt><trkpt lat="45.8872736527641" lon="13.98916313667093"><ele>626.0</ele><time>2026-05-05T12:01:58Z</time></trkpt><trkpt lat="45.88740977151504" lon="13.988937094935249"><ele>627.0</ele><time>2026-05-05T12:01:59Z</time></trkpt><trkpt lat="45.88755719337738" lon="13.988718831380407"><ele>628.0</ele><time>2026-05-05T12:02:00Z</time></trkpt><trkpt lat="45.887705232739485" lon="13.988502815903079"><ele>629.0</ele><time>2026-05-05T12:02:01Z</time></trkpt><trkpt lat="45.88784318257847" lon="13.988267011751061"><ele>631.0</ele><time>2026-05-05T12:02:02Z</time></trkpt><trkpt lat="45.887972146808636" lon="13.98800916472985"><ele>633.0</ele><time>2026-05-05T12:02:03Z</time></trkpt><trkpt lat="45.888123555126306" lon="13.987751239968484"><ele>632.5</ele><time>2026-05-05T12:02:04Z</time></trkpt><trkpt lat="45.888270474458125" lon="13.987433084185412"><ele>632.0</ele><time>2026-05-05T12:02:05Z</time></trkpt><trkpt lat="45.888395326844375" lon="13.98707561093061"><ele>638.5</ele><time>2026-05-05T12:02:06Z</time></trkpt><trkpt lat="45.888537734468585" lon="13.986725773064494"><ele>645.0</ele><time>2026-05-05T12:02:07Z</time></trkpt><trkpt lat="45.88868528795388" lon="13.98638124370664"><ele>645.5</ele><time>2026-05-05T12:02:08Z</time></trkpt><trkpt lat="45.88883831987498" lon="13.98604115366131"><ele>646.0</ele><time>2026-05-05T12:02:09Z</time></trkpt><trkpt lat="45.88900292614704" lon="13.985691556112233"><ele>646.0</ele><time>2026-05-05T12:02:10Z</time></trkpt><trkpt lat="45.889174841372956" lon="13.985333699568825"><ele>646.0</ele><time>2026-05-05T12:02:11Z</time></trkpt><trkpt lat="45.88934338300639" lon="13.984980489635555"><ele>655.0</ele><time>2026-05-05T12:02:12Z</time></trkpt><trkpt lat="45.88951083999253" lon="13.984633573339442"><ele>664.0</ele><time>2026-05-05T12:02:13Z</time></trkpt><trkpt lat="45.88968112528951" lon="13.984304840394817"><ele>663.5</ele><time>2026-05-05T12:02:14Z</time></trkpt><trkpt lat="45.88985202393405" lon="13.983999631909555"><ele>663.0</ele><time>2026-05-05T12:02:15Z</time></trkpt><trkpt lat="45.89002163072045" lon="13.983712708746554"><ele>669.0</ele><time>2026-05-05T12:02:16Z</time></trkpt><trkpt lat="45.89018937462538" lon="13.98343097517491"><ele>675.0</ele><time>2026-05-05T12:02:17Z</time></trkpt><trkpt lat="45.89035316914964" lon="13.983151562068015"><ele>675.0</ele><time>2026-05-05T12:02:18Z</time></trkpt><trkpt lat="45.890504818451156" lon="13.982888421842837"><ele>675.0</ele><time>2026-05-05T12:02:19Z</time></trkpt><trkpt lat="45.8906484303828" lon="13.982634977587999"><ele>677.0</ele><time>2026-05-05T12:02:20Z</time></trkpt><trkpt lat="45.890787307332765" lon="13.982392173677319"><ele>679.0</ele><time>2026-05-05T12:02:21Z</time></trkpt><trkpt lat="45.890921022135046" lon="13.982158975405953"><ele>681.0</ele><time>2026-05-05T12:02:22Z</time></trkpt><trkpt lat="45.89104052775784" lon="13.981958795047369"><ele>683.0</ele><time>2026-05-05T12:02:23Z</time></trkpt><trkpt lat="45.89114646265524" lon="13.98177833185404"><ele>685.0</ele><time>2026-05-05T12:02:24Z</time></trkpt><trkpt lat="45.891245833343625" lon="13.98160802350466"><ele>687.0</ele><time>2026-05-05T12:02:25Z</time></trkpt><trkpt lat="45.89134774975037" lon="13.981449067395289"><ele>687.0</ele><time>2026-05-05T12:02:26Z</time></trkpt><trkpt lat="45.89146332050262" lon="13.981312813488962"><ele>687.0</ele><time>2026-05-05T12:02:27Z</time></trkpt><trkpt lat="45.89158922673111" lon="13.981191049766228"><ele>687.0</ele><time>2026-05-05T12:02:28Z</time></trkpt><trkpt lat="45.891715585454655" lon="13.981058397725343"><ele>688.25</ele><time>2026-05-05T12:02:29Z</time></trkpt><trkpt lat="45.89181793548235" lon="13.98091848092725"><ele>689.5</ele><time>2026-05-05T12:02:30Z</time></trkpt><trkpt lat="45.891893763020555" lon="13.980767525167545"><ele>690.75</ele><time>2026-05-05T12:02:31Z</time></trkpt><trkpt lat="45.891963877609996" lon="13.980600301564765"><ele>692.0</ele><time>2026-05-05T12:02:32Z</time></trkpt><trkpt lat="45.8920405236806" lon="13.980427104206875"><ele>692.0</ele><time>2026-05-05T12:02:33Z</time></trkpt><trkpt lat="45.89213374348993" lon="13.98024159666185"><ele>692.0</ele><time>2026-05-05T12:02:34Z</time></trkpt><trkpt lat="45.89223431556009" lon="13.980044266292301"><ele>692.0</ele><time>2026-05-05T12:02:35Z</time></trkpt><trkpt lat="45.89233538476846" lon="13.979834161202728"><ele>692.3333333333333</ele><time>2026-05-05T12:02:36Z</time></trkpt><trkpt lat="45.89245165006241" lon="13.97962202292157"><ele>692.6666666666666</ele><time>2026-05-05T12:02:37Z</time></trkpt><trkpt lat="45.892610078214716" lon="13.979450477781455"><ele>693.0</ele><time>2026-05-05T12:02:38Z</time></trkpt><trkpt lat="45.89276221019879" lon="13.97927573624567"><ele>696.0</ele><time>2026-05-05T12:02:39Z</time></trkpt><trkpt lat="45.892927698776184" lon="13.979154261257204"><ele>699.0</ele><time>2026-05-05T12:02:40Z</time></trkpt><trkpt lat="45.89308982970689" lon="13.979035580538874"><ele>702.0</ele><time>2026-05-05T12:02:41Z</time></trkpt><trkpt lat="45.89322945423143" lon="13.978896908567675"><ele>702.0</ele><time>2026-05-05T12:02:42Z</time></trkpt><trkpt lat="45.893344355025064" lon="13.978736686689622"><ele>702.0</ele><time>2026-05-05T12:02:43Z</time></trkpt><trkpt lat="45.89343530815487" lon="13.97854426399175"><ele>702.0</ele><time>2026-05-05T12:02:44Z</time></trkpt><trkpt lat="45.893532594320966" lon="13.978337459437647"><ele>703.3333333333334</ele><time>2026-05-05T12:02:45Z</time></trkpt><trkpt lat="45.893637695092956" lon="13.97810898145588"><ele>704.6666666666667</ele><time>2026-05-05T12:02:46Z</time></trkpt><trkpt lat="45.89373620546484" lon="13.977856529750367"><ele>706.0</ele><time>2026-05-05T12:02:47Z</time></trkpt><trkpt lat="45.893848159682875" lon="13.977574755944007"><ele>703.5</ele><time>2026-05-05T12:02:48Z</time></trkpt><trkpt lat="45.893976718542994" lon="13.97728004927847"><ele>701.0</ele><time>2026-05-05T12:02:49Z</time></trkpt><trkpt lat="45.89411062841513" lon="13.97698579857857"><ele>701.0</ele><time>2026-05-05T12:02:50Z</time></trkpt><trkpt lat="45.89423967021923" lon="13.976712359423864"><ele>701.0</ele><time>2026-05-05T12:02:51Z</time></trkpt><trkpt lat="45.89436044115641" lon="13.976452167287038"><ele>701.0</ele><time>2026-05-05T12:02:52Z</time></trkpt><trkpt lat="45.89447622093366" lon="13.976212368969797"><ele>702.0</ele><time>2026-05-05T12:02:53Z</time></trkpt><trkpt lat="45.894586456444245" lon="13.975985241653769"><ele>703.0</ele><time>2026-05-05T12:02:54Z</time></trkpt><trkpt lat="45.894690590169084" lon="13.975770160216097"><ele>704.0</ele><time>2026-05-05T12:02:55Z</time></trkpt><trkpt lat="45.8948004191673" lon="13.97556818099281"><ele>704.0</ele><time>2026-05-05T12:02:56Z</time></trkpt><trkpt lat="45.89493116619211" lon="13.97538930459859"><ele>704.0</ele><time>2026-05-05T12:02:57Z</time></trkpt><trkpt lat="45.89506485398717" lon="13.975235625266594"><ele>704.0</ele><time>2026-05-05T12:02:58Z</time></trkpt><trkpt lat="45.89518787194446" lon="13.975097652726669"><ele>702.6666666666666</ele><time>2026-05-05T12:02:59Z</time></trkpt><trkpt lat="45.8953002005757" lon="13.974943626291331"><ele>701.3333333333334</ele><time>2026-05-05T12:03:00Z</time></trkpt><trkpt lat="45.89540131006504" lon="13.97476121872077"><ele>700.0</ele><time>2026-05-05T12:03:01Z</time></trkpt><trkpt lat="45.895486906771204" lon="13.974560782991725"><ele>700.0</ele><time>2026-05-05T12:03:02Z</time></trkpt><trkpt lat="45.895559257638446" lon="13.974346583169575"><ele>700.0</ele><time>2026-05-05T12:03:03Z</time></trkpt><trkpt lat="45.89563207643192" lon="13.974133943105564"><ele>700.0</ele><time>2026-05-05T12:03:04Z</time></trkpt><trkpt lat="45.895711164148146" lon="13.97392146763864"><ele>702.3333333333334</ele><time>2026-05-05T12:03:05Z</time></trkpt><trkpt lat="45.895803609817044" lon="13.973688545294616"><ele>704.6666666666666</ele><time>2026-05-05T12:03:06Z</time></trkpt><trkpt lat="45.89590034279652" lon="13.973460784186154"><ele>707.0</ele><time>2026-05-05T12:03:07Z</time></trkpt><trkpt lat="45.89599985482494" lon="13.97324466194952"><ele>708.6666666666666</ele><time>2026-05-05T12:03:08Z</time></trkpt><trkpt lat="45.896109964463875" lon="13.973048824442802"><ele>710.3333333333334</ele><time>2026-05-05T12:03:09Z</time></trkpt><trkpt lat="45.896242188554844" lon="13.97287258666072"><ele>712.0</ele><time>2026-05-05T12:03:10Z</time></trkpt><trkpt lat="45.896398015709515" lon="13.972740930692089"><ele>712.0</ele><time>2026-05-05T12:03:11Z</time></trkpt><trkpt lat="45.896538858471885" lon="13.972628188919117"><ele>712.0</ele><time>2026-05-05T12:03:12Z</time></trkpt><trkpt lat="45.89666133163626" lon="13.972518945324623"><ele>712.0</ele><time>2026-05-05T12:03:13Z</time></trkpt><trkpt lat="45.89675398144187" lon="13.972378371566686"><ele>712.0</ele><time>2026-05-05T12:03:14Z</time></trkpt><trkpt lat="45.89680777148211" lon="13.972202561544178"><ele>710.3333333333334</ele><time>2026-05-05T12:03:15Z</time></trkpt><trkpt lat="45.896846704693885" lon="13.971981244240352"><ele>708.6666666666666</ele><time>2026-05-05T12:03:16Z</time></trkpt><trkpt lat="45.89687270362763" lon="13.971727955925536"><ele>707.0</ele><time>2026-05-05T12:03:17Z</time></trkpt><trkpt lat="45.89689548662215" lon="13.97145259748859"><ele>706.0</ele><time>2026-05-05T12:03:18Z</time></trkpt><trkpt lat="45.896908260373536" lon="13.971164008719578"><ele>705.0</ele><time>2026-05-05T12:03:19Z</time></trkpt><trkpt lat="45.89692751415342" lon="13.970868561085002"><ele>704.0</ele><time>2026-05-05T12:03:20Z</time></trkpt><trkpt lat="45.89695135555" lon="13.970566661995313"><ele>704.0</ele><time>2026-05-05T12:03:21Z</time></trkpt><trkpt lat="45.896980858930085" lon="13.970268394426471"><ele>704.0</ele><time>2026-05-05T12:03:22Z</time></trkpt><trkpt lat="45.89701676304001" lon="13.969975690984908"><ele>704.0</ele><time>2026-05-05T12:03:23Z</time></trkpt><trkpt lat="45.89706560052277" lon="13.969705985836141"><ele>705.6666666666666</ele><time>2026-05-05T12:03:24Z</time></trkpt><trkpt lat="45.897137363237256" lon="13.969449724922102"><ele>707.3333333333334</ele><time>2026-05-05T12:03:25Z</time></trkpt><trkpt lat="45.897230068972725" lon="13.969200599219306"><ele>709.0</ele><time>2026-05-05T12:03:26Z</time></trkpt><trkpt lat="45.89734696023471" lon="13.968966775014229"><ele>709.3333333333334</ele><time>2026-05-05T12:03:27Z</time></trkpt><trkpt lat="45.89747998294661" lon="13.96875796268186"><ele>709.6666666666666</ele><time>2026-05-05T12:03:28Z</time></trkpt><trkpt lat="45.89762144216895" lon="13.968574435912718"><ele>710.0</ele><time>2026-05-05T12:03:29Z</time></trkpt><trkpt lat="45.89776180397015" lon="13.96839484000063"><ele>710.3333333333333</ele><time>2026-05-05T12:03:30Z</time></trkpt><trkpt lat="45.89788708931827" lon="13.968228356316358"><ele>710.6666666666666</ele><time>2026-05-05T12:03:31Z</time></trkpt><trkpt lat="45.89799673302255" lon="13.968078363617915"><ele>711.0</ele><time>2026-05-05T12:03:32Z</time></trkpt><trkpt lat="45.898087202876944" lon="13.967926049177928"><ele>711.0</ele><time>2026-05-05T12:03:33Z</time></trkpt><trkpt lat="45.89814652698375" lon="13.967752548006146"><ele>711.0</ele><time>2026-05-05T12:03:34Z</time></trkpt><trkpt lat="45.8981716126285" lon="13.967556273441291"><ele>711.0</ele><time>2026-05-05T12:03:35Z</time></trkpt><trkpt lat="45.89817037927698" lon="13.967363931569144"><ele>711.0</ele><time>2026-05-05T12:03:36Z</time></trkpt><trkpt lat="45.89814959450209" lon="13.967184995212973"><ele>712.5999999999999</ele><time>2026-05-05T12:03:37Z</time></trkpt><trkpt lat="45.89812168125997" lon="13.967035733388519"><ele>714.2</ele><time>2026-05-05T12:03:38Z</time></trkpt><trkpt lat="45.89811143563482" lon="13.966902961359889"><ele>715.8</ele><time>2026-05-05T12:03:39Z</time></trkpt><trkpt lat="45.8981462788075" lon="13.966780186992072"><ele>717.4000000000001</ele><time>2026-05-05T12:03:40Z</time></trkpt><trkpt lat="45.898217180243726" lon="13.96669290075659"><ele>719.0</ele><time>2026-05-05T12:03:41Z</time></trkpt><trkpt lat="45.89832053777524" lon="13.96663287490493"><ele>722.2</ele><time>2026-05-05T12:03:42Z</time></trkpt><trkpt lat="45.89842248759918" lon="13.966587616387924"><ele>725.4000000000001</ele><time>2026-05-05T12:03:43Z</time></trkpt><trkpt lat="45.8985059844318" lon="13.966552106663052"><ele>728.6</ele><time>2026-05-05T12:03:44Z</time></trkpt><trkpt lat="45.89856609164214" lon="13.966475631139442"><ele>731.8</ele><time>2026-05-05T12:03:45Z</time></trkpt><trkpt lat="45.89859033288334" lon="13.966356474863506"><ele>735.0</ele><time>2026-05-05T12:03:46Z</time></trkpt><trkpt lat="45.898577052163546" lon="13.966216192700069"><ele>735.0</ele><time>2026-05-05T12:03:47Z</time></trkpt><trkpt lat="45.89853953889818" lon="13.966060223540268"><ele>735.0</ele><time>2026-05-05T12:03:48Z</time></trkpt><trkpt lat="45.89848639403335" lon="13.965895864462144"><ele>735.0</ele><time>2026-05-05T12:03:49Z</time></trkpt><trkpt lat="45.898411573973235" lon="13.965739417149432"><ele>735.0</ele><time>2026-05-05T12:03:50Z</time></trkpt><trkpt lat="45.898298913475415" lon="13.965608440566104"><ele>734.6666666666666</ele><time>2026-05-05T12:03:51Z</time></trkpt><trkpt lat="45.898165282550664" lon="13.965516395655161"><ele>734.3333333333333</ele><time>2026-05-05T12:03:52Z</time></trkpt><trkpt lat="45.89801043437399" lon="13.965444237478232"><ele>734.0</ele><time>2026-05-05T12:03:53Z</time></trkpt><trkpt lat="45.89783175264188" lon="13.965354278596294"><ele>734.0</ele><time>2026-05-05T12:03:54Z</time></trkpt><trkpt lat="45.89769216607665" lon="13.965224992406947"><ele>734.0</ele><time>2026-05-05T12:03:55Z</time></trkpt><trkpt lat="45.89758364016793" lon="13.96511866635855"><ele>734.0</ele><time>2026-05-05T12:03:56Z</time></trkpt><trkpt lat="45.8974984360313" lon="13.96499286730313"><ele>734.0</ele><time>2026-05-05T12:03:57Z</time></trkpt><trkpt lat="45.89743051087564" lon="13.964846061201477"><ele>738.0</ele><time>2026-05-05T12:03:58Z</time></trkpt><trkpt lat="45.89737937877694" lon="13.964662560784955"><ele>742.0</ele><time>2026-05-05T12:03:59Z</time></trkpt><trkpt lat="45.89733494320971" lon="13.964471873893213"><ele>746.0</ele><time>2026-05-05T12:04:00Z</time></trkpt><trkpt lat="45.89730667684213" lon="13.964282447778018"><ele>750.0</ele><time>2026-05-05T12:04:01Z</time></trkpt><trkpt lat="45.89728075885431" lon="13.964087441241093"><ele>750.0</ele><time>2026-05-05T12:04:02Z</time></trkpt><trkpt lat="45.89725116629175" lon="13.963888671418232"><ele>750.0</ele><time>2026-05-05T12:04:03Z</time></trkpt><trkpt lat="45.897245923645116" lon="13.963684395906798"><ele>750.0</ele><time>2026-05-05T12:04:04Z</time></trkpt><trkpt lat="45.897255863189166" lon="13.963464078011416"><ele>750.0</ele><time>2026-05-05T12:04:05Z</time></trkpt><trkpt lat="45.897310126840665" lon="13.963250940106612"><ele>749.6666666666666</ele><time>2026-05-05T12:04:06Z</time></trkpt><trkpt lat="45.89737080955421" lon="13.963025899830525"><ele>749.3333333333333</ele><time>2026-05-05T12:04:07Z</time></trkpt><trkpt lat="45.89745485743415" lon="13.96280313815612"><ele>749.0</ele><time>2026-05-05T12:04:08Z</time></trkpt><trkpt lat="45.89756321393029" lon="13.96259704335195"><ele>748.6666666666666</ele><time>2026-05-05T12:04:09Z</time></trkpt><trkpt lat="45.89769421039059" lon="13.962415043503846"><ele>748.3333333333334</ele><time>2026-05-05T12:04:10Z</time></trkpt><trkpt lat="45.8978169402032" lon="13.962238050122357"><ele>748.0</ele><time>2026-05-05T12:04:11Z</time></trkpt><trkpt lat="45.897918953625236" lon="13.96208417842259"><ele>748.0</ele><time>2026-05-05T12:04:12Z</time></trkpt><trkpt lat="45.89798298516228" lon="13.961905395802033"><ele>748.0</ele><time>2026-05-05T12:04:13Z</time></trkpt><trkpt lat="45.898015865985556" lon="13.961686643883205"><ele>748.0</ele><time>2026-05-05T12:04:14Z</time></trkpt><trkpt lat="45.89802832344313" lon="13.961434903414492"><ele>748.3333333333334</ele><time>2026-05-05T12:04:15Z</time></trkpt><trkpt lat="45.89803451968596" lon="13.961180427215632"><ele>748.6666666666666</ele><time>2026-05-05T12:04:16Z</time></trkpt><trkpt lat="45.89807666621559" lon="13.960928385448888"><ele>749.0</ele><time>2026-05-05T12:04:17Z</time></trkpt><trkpt lat="45.898123752621686" lon="13.960661870045913"><ele>751.3333333333333</ele><time>2026-05-05T12:04:18Z</time></trkpt><trkpt lat="45.89821268952964" lon="13.960427675845047"><ele>753.6666666666666</ele><time>2026-05-05T12:04:19Z</time></trkpt><trkpt lat="45.898329688421924" lon="13.960264874039524"><ele>756.0</ele><time>2026-05-05T12:04:20Z</time></trkpt><trkpt lat="45.89840889237203" lon="13.96010630961717"><ele>759.0</ele><time>2026-05-05T12:04:21Z</time></trkpt><trkpt lat="45.89845290453084" lon="13.959954148200332"><ele>762.0</ele><time>2026-05-05T12:04:22Z</time></trkpt><trkpt lat="45.89844437443757" lon="13.95979883925024"><ele>765.0</ele><time>2026-05-05T12:04:23Z</time></trkpt><trkpt lat="45.89841776201402" lon="13.959645083577984"><ele>768.0</ele><time>2026-05-05T12:04:24Z</time></trkpt><trkpt lat="45.898418794701975" lon="13.959466679221524"><ele>768.3333333333333</ele><time>2026-05-05T12:04:25Z</time></trkpt><trkpt lat="45.89849304019174" lon="13.95930723041084"><ele>768.6666666666666</ele><time>2026-05-05T12:04:26Z</time></trkpt><trkpt lat="45.89856307844157" lon="13.959110074771084"><ele>769.0</ele><time>2026-05-05T12:04:27Z</time></trkpt><trkpt lat="45.89866712373986" lon="13.95890756254825"><ele>769.0</ele><time>2026-05-05T12:04:28Z</time></trkpt><trkpt lat="45.8987862569297" lon="13.958674357885517"><ele>769.0</ele><time>2026-05-05T12:04:29Z</time></trkpt><trkpt lat="45.898919153278484" lon="13.958421318338562"><ele>769.0</ele><time>2026-05-05T12:04:30Z</time></trkpt><trkpt lat="45.899061790138674" lon="13.958159027073961"><ele>770.5</ele><time>2026-05-05T12:04:31Z</time></trkpt><trkpt lat="45.89920802959006" lon="13.957895179845533"><ele>772.0</ele><time>2026-05-05T12:04:32Z</time></trkpt><trkpt lat="45.89935505341594" lon="13.957636032884036"><ele>772.0</ele><time>2026-05-05T12:04:33Z</time></trkpt><trkpt lat="45.899474322902805" lon="13.957373596481242"><ele>772.0</ele><time>2026-05-05T12:04:34Z</time></trkpt><trkpt lat="45.89956650524975" lon="13.957094383150343"><ele>772.0</ele><time>2026-05-05T12:04:35Z</time></trkpt><trkpt lat="45.89964936909538" lon="13.956809062900343"><ele>773.3333333333333</ele><time>2026-05-05T12:04:36Z</time></trkpt><trkpt lat="45.899774035418346" lon="13.956589502996975"><ele>774.6666666666667</ele><time>2026-05-05T12:04:37Z</time></trkpt><trkpt lat="45.89990125401382" lon="13.956396916114858"><ele>776.0</ele><time>2026-05-05T12:04:38Z</time></trkpt><trkpt lat="45.89999144821077" lon="13.956169317620345"><ele>776.0</ele><time>2026-05-05T12:04:39Z</time></trkpt><trkpt lat="45.900068276622925" lon="13.955965100033017"><ele>776.0</ele><time>2026-05-05T12:04:40Z</time></trkpt><trkpt lat="45.90013442551747" lon="13.95578478058383"><ele>776.0</ele><time>2026-05-05T12:04:41Z</time></trkpt><trkpt lat="45.90022348346471" lon="13.955633162697437"><ele>776.0</ele><time>2026-05-05T12:04:42Z</time></trkpt><trkpt lat="45.90034367445112" lon="13.955534741294962"><ele>775.75</ele><time>2026-05-05T12:04:43Z</time></trkpt><trkpt lat="45.900460625946494" lon="13.95542860942074"><ele>775.5</ele><time>2026-05-05T12:04:44Z</time></trkpt><trkpt lat="45.90055786704663" lon="13.955274071177346"><ele>775.25</ele><time>2026-05-05T12:04:45Z</time></trkpt><trkpt lat="45.900643156234416" lon="13.955086492077632"><ele>775.0</ele><time>2026-05-05T12:04:46Z</time></trkpt><trkpt lat="45.90073277260858" lon="13.954874931304012"><ele>777.6666666666666</ele><time>2026-05-05T12:04:47Z</time></trkpt><trkpt lat="45.900832911237885" lon="13.954672855385272"><ele>780.3333333333333</ele><time>2026-05-05T12:04:48Z</time></trkpt><trkpt lat="45.900939666019596" lon="13.954476500242299"><ele>783.0</ele><time>2026-05-05T12:04:49Z</time></trkpt><trkpt lat="45.90107055137923" lon="13.954289093803464"><ele>784.0</ele><time>2026-05-05T12:04:50Z</time></trkpt><trkpt lat="45.90120052708415" lon="13.954104880292716"><ele>785.0</ele><time>2026-05-05T12:04:51Z</time></trkpt><trkpt lat="45.901336231670804" lon="13.953918791545508"><ele>786.0</ele><time>2026-05-05T12:04:52Z</time></trkpt><trkpt lat="45.90145998401876" lon="13.953722275368245"><ele>786.0</ele><time>2026-05-05T12:04:53Z</time></trkpt><trkpt lat="45.90157140601682" lon="13.953519328080633"><ele>786.0</ele><time>2026-05-05T12:04:54Z</time></trkpt><trkpt lat="45.901658716316746" lon="13.95331348376409"><ele>786.0</ele><time>2026-05-05T12:04:55Z</time></trkpt><trkpt lat="45.90175207089092" lon="13.953123859349033"><ele>788.0</ele><time>2026-05-05T12:04:56Z</time></trkpt><trkpt lat="45.90187140932947" lon="13.952963897230669"><ele>790.0</ele><time>2026-05-05T12:04:57Z</time></trkpt><trkpt lat="45.9019867196687" lon="13.952813507896066"><ele>792.0</ele><time>2026-05-05T12:04:58Z</time></trkpt><trkpt lat="45.902093079834884" lon="13.952641862562446"><ele>791.3333333333333</ele><time>2026-05-05T12:04:59Z</time></trkpt><trkpt lat="45.902187392419044" lon="13.952451099743806"><ele>790.6666666666666</ele><time>2026-05-05T12:05:00Z</time></trkpt><trkpt lat="45.902268494236395" lon="13.952232097196847"><ele>790.0</ele><time>2026-05-05T12:05:01Z</time></trkpt><trkpt lat="45.90233125334868" lon="13.951999356773621"><ele>790.0</ele><time>2026-05-05T12:05:02Z</time></trkpt><trkpt lat="45.902395319808846" lon="13.951771218424238"><ele>790.0</ele><time>2026-05-05T12:05:03Z</time></trkpt><trkpt lat="45.90250027172061" lon="13.951586140436552"><ele>790.0</ele><time>2026-05-05T12:05:04Z</time></trkpt><trkpt lat="45.902618295059995" lon="13.951437106157078"><ele>791.0</ele><time>2026-05-05T12:05:05Z</time></trkpt><trkpt lat="45.90271484053753" lon="13.951278371918827"><ele>792.0</ele><time>2026-05-05T12:05:06Z</time></trkpt><trkpt lat="45.90280581571706" lon="13.951142688561417"><ele>793.0</ele><time>2026-05-05T12:05:07Z</time></trkpt><trkpt lat="45.90286853668243" lon="13.950974439735688"><ele>794.0</ele><time>2026-05-05T12:05:08Z</time></trkpt><trkpt lat="45.90293893270901" lon="13.950810058684292"><ele>794.0</ele><time>2026-05-05T12:05:09Z</time></trkpt><trkpt lat="45.90304114921557" lon="13.950691130943575"><ele>794.0</ele><time>2026-05-05T12:05:10Z</time></trkpt><trkpt lat="45.90315646852456" lon="13.950602382428169"><ele>794.0</ele><time>2026-05-05T12:05:11Z</time></trkpt><trkpt lat="45.90328143376235" lon="13.950504593210997"><ele>794.0</ele><time>2026-05-05T12:05:12Z</time></trkpt><trkpt lat="45.903404088760006" lon="13.950379158784061"><ele>795.25</ele><time>2026-05-05T12:05:13Z</time></trkpt><trkpt lat="45.90353197981558" lon="13.950254213992519"><ele>796.5</ele><time>2026-05-05T12:05:14Z</time></trkpt><trkpt lat="45.90365044860756" lon="13.950130784189302"><ele>797.75</ele><time>2026-05-05T12:05:15Z</time></trkpt><trkpt lat="45.90375378601879" lon="13.94999452569475"><ele>799.0</ele><time>2026-05-05T12:05:16Z</time></trkpt><trkpt lat="45.903836343201405" lon="13.94984526773378"><ele>799.0</ele><time>2026-05-05T12:05:17Z</time></trkpt><trkpt lat="45.90389500240928" lon="13.949700519826152"><ele>799.0</ele><time>2026-05-05T12:05:18Z</time></trkpt><trkpt lat="45.903916960889106" lon="13.949552098432621"><ele>799.0</ele><time>2026-05-05T12:05:19Z</time></trkpt><trkpt lat="45.90390848552495" lon="13.949395774748616"><ele>799.0</ele><time>2026-05-05T12:05:20Z</time></trkpt><trkpt lat="45.903896998232725" lon="13.94921541978203"><ele>798.5</ele><time>2026-05-05T12:05:21Z</time></trkpt><trkpt lat="45.90392945179129" lon="13.949024995559332"><ele>798.0</ele><time>2026-05-05T12:05:22Z</time></trkpt><trkpt lat="45.90396313479353" lon="13.948823164152909"><ele>797.5</ele><time>2026-05-05T12:05:23Z</time></trkpt><trkpt lat="45.90399042067996" lon="13.94861452269371"><ele>797.0</ele><time>2026-05-05T12:05:24Z</time></trkpt><trkpt lat="45.90403180566657" lon="13.94841454371769"><ele>796.3333333333334</ele><time>2026-05-05T12:05:25Z</time></trkpt><trkpt lat="45.904076446587965" lon="13.948207540267342"><ele>795.6666666666667</ele><time>2026-05-05T12:05:26Z</time></trkpt><trkpt lat="45.90415135952101" lon="13.94800876856582"><ele>795.0</ele><time>2026-05-05T12:05:27Z</time></trkpt><trkpt lat="45.904245703866735" lon="13.947806988285038"><ele>797.6666666666667</ele><time>2026-05-05T12:05:28Z</time></trkpt><trkpt lat="45.904335127721126" lon="13.947589258057134"><ele>800.3333333333334</ele><time>2026-05-05T12:05:29Z</time></trkpt><trkpt lat="45.90443882024644" lon="13.947394180940895"><ele>803.0</ele><time>2026-05-05T12:05:30Z</time></trkpt><trkpt lat="45.90453368721315" lon="13.947196721932459"><ele>803.0</ele><time>2026-05-05T12:05:31Z</time></trkpt><trkpt lat="45.90464153918779" lon="13.947033753849034"><ele>803.0</ele><time>2026-05-05T12:05:32Z</time></trkpt><trkpt lat="45.90478391689291" lon="13.946938629120199"><ele>803.0</ele><time>2026-05-05T12:05:33Z</time></trkpt><trkpt lat="45.904933486787456" lon="13.946875362585834"><ele>804.3333333333334</ele><time>2026-05-05T12:05:34Z</time></trkpt><trkpt lat="45.90509198608792" lon="13.946818181066941"><ele>805.6666666666667</ele><time>2026-05-05T12:05:35Z</time></trkpt><trkpt lat="45.90526122295042" lon="13.946768452342768"><ele>807.0</ele><time>2026-05-05T12:05:36Z</time></trkpt><trkpt lat="45.905431724404494" lon="13.946720841957319"><ele>807.75</ele><time>2026-05-05T12:05:37Z</time></trkpt><trkpt lat="45.90558170971701" lon="13.94667157736542"><ele>808.5</ele><time>2026-05-05T12:05:38Z</time></trkpt><trkpt lat="45.90571347552122" lon="13.9466247362139"><ele>809.25</ele><time>2026-05-05T12:05:39Z</time></trkpt><trkpt lat="45.90583170158389" lon="13.946582242568326"><ele>810.0</ele><time>2026-05-05T12:05:40Z</time></trkpt><trkpt lat="45.905951990088994" lon="13.9465503625913"><ele>812.0</ele><time>2026-05-05T12:05:41Z</time></trkpt><trkpt lat="45.906081747669006" lon="13.946536372755338"><ele>814.0</ele><time>2026-05-05T12:05:42Z</time></trkpt><trkpt lat="45.906208880075724" lon="13.946540579652122"><ele>816.0</ele><time>2026-05-05T12:05:43Z</time></trkpt><trkpt lat="45.90632864570699" lon="13.946518132881625"><ele>818.0</ele><time>2026-05-05T12:05:44Z</time></trkpt><trkpt lat="45.90644777237337" lon="13.946463953362871"><ele>818.0</ele><time>2026-05-05T12:05:45Z</time></trkpt><trkpt lat="45.90656532547122" lon="13.946375719242047"><ele>818.0</ele><time>2026-05-05T12:05:46Z</time></trkpt><trkpt lat="45.906683606689285" lon="13.946274599096116"><ele>818.0</ele><time>2026-05-05T12:05:47Z</time></trkpt><trkpt lat="45.90676639383923" lon="13.946085565699192"><ele>818.0</ele><time>2026-05-05T12:05:48Z</time></trkpt><trkpt lat="45.906855094120246" lon="13.945902124694015"><ele>819.0</ele><time>2026-05-05T12:05:49Z</time></trkpt><trkpt lat="45.90694224179853" lon="13.945705271585629"><ele>820.0</ele><time>2026-05-05T12:05:50Z</time></trkpt><trkpt lat="45.90703200576164" lon="13.945515919099686"><ele>821.0</ele><time>2026-05-05T12:05:51Z</time></trkpt><trkpt lat="45.90712816993604" lon="13.945341909428393"><ele>821.0</ele><time>2026-05-05T12:05:52Z</time></trkpt><trkpt lat="45.90724177662669" lon="13.945209511549201"><ele>821.0</ele><time>2026-05-05T12:05:53Z</time></trkpt><trkpt lat="45.90737864085036" lon="13.945113686835654"><ele>821.0</ele><time>2026-05-05T12:05:54Z</time></trkpt><trkpt lat="45.90752784010712" lon="13.94504577079089"><ele>824.6666666666667</ele><time>2026-05-05T12:05:55Z</time></trkpt><trkpt lat="45.90768609803949" lon="13.944977840400728"><ele>828.3333333333333</ele><time>2026-05-05T12:05:56Z</time></trkpt><trkpt lat="45.90785287161582" lon="13.944920747225012"><ele>832.0</ele><time>2026-05-05T12:05:57Z</time></trkpt><trkpt lat="45.90801393034884" lon="13.944783992455662"><ele>832.0</ele><time>2026-05-05T12:05:58Z</time></trkpt><trkpt lat="45.90819708578851" lon="13.944652777275602"><ele>832.0</ele><time>2026-05-05T12:05:59Z</time></trkpt><trkpt lat="45.90839302845769" lon="13.944535689935565"><ele>832.0</ele><time>2026-05-05T12:06:00Z</time></trkpt><trkpt lat="45.908588998340356" lon="13.944462537283718"><ele>831.6666666666666</ele><time>2026-05-05T12:06:01Z</time></trkpt><trkpt lat="45.9087933818167" lon="13.94441161258795"><ele>831.3333333333333</ele><time>2026-05-05T12:06:02Z</time></trkpt><trkpt lat="45.90898580757406" lon="13.944383168655028"><ele>831.0</ele><time>2026-05-05T12:06:03Z</time></trkpt><trkpt lat="45.90917303438055" lon="13.944352473649229"><ele>835.6666666666667</ele><time>2026-05-05T12:06:04Z</time></trkpt><trkpt lat="45.909355147138676" lon="13.944301990785123"><ele>840.3333333333334</ele><time>2026-05-05T12:06:05Z</time></trkpt><trkpt lat="45.909528951719594" lon="13.944224010192528"><ele>845.0</ele><time>2026-05-05T12:06:06Z</time></trkpt><trkpt lat="45.90969608050827" lon="13.94412838049654"><ele>850.3333333333334</ele><time>2026-05-05T12:06:07Z</time></trkpt><trkpt lat="45.909859458606235" lon="13.944037975942221"><ele>855.6666666666667</ele><time>2026-05-05T12:06:08Z</time></trkpt><trkpt lat="45.91002150887372" lon="13.943987862541363"><ele>861.0</ele><time>2026-05-05T12:06:09Z</time></trkpt><trkpt lat="45.91017235307683" lon="13.944035006816007"><ele>861.0</ele><time>2026-05-05T12:06:10Z</time></trkpt><trkpt lat="45.910314594137105" lon="13.944018825942095"><ele>861.0</ele><time>2026-05-05T12:06:11Z</time></trkpt><trkpt lat="45.91045623594803" lon="13.944018503164475"><ele>861.0</ele><time>2026-05-05T12:06:12Z</time></trkpt><trkpt lat="45.91061544768877" lon="13.943997598399386"><ele>861.0</ele><time>2026-05-05T12:06:13Z</time></trkpt><trkpt lat="45.910780172560266" lon="13.943974709905245"><ele>861.5</ele><time>2026-05-05T12:06:14Z</time></trkpt><trkpt lat="45.91093916980947" lon="13.943933408985286"><ele>862.0</ele><time>2026-05-05T12:06:15Z</time></trkpt><trkpt lat="45.911088799490095" lon="13.94392446186373"><ele>862.5</ele><time>2026-05-05T12:06:16Z</time></trkpt><trkpt lat="45.911218307242386" lon="13.943962322221488"><ele>863.0</ele><time>2026-05-05T12:06:17Z</time></trkpt><trkpt lat="45.91134475592709" lon="13.94399955979725"><ele>863.0</ele><time>2026-05-05T12:06:18Z</time></trkpt><trkpt lat="45.91147452781093" lon="13.943988667773247"><ele>863.0</ele><time>2026-05-05T12:06:19Z</time></trkpt><trkpt lat="45.911601969045435" lon="13.94392694681173"><ele>863.0</ele><time>2026-05-05T12:06:20Z</time></trkpt><trkpt lat="45.91172199204856" lon="13.94384783892465"><ele>863.0</ele><time>2026-05-05T12:06:21Z</time></trkpt><trkpt lat="45.91184831697654" lon="13.94380370215229"><ele>866.0</ele><time>2026-05-05T12:06:22Z</time></trkpt><trkpt lat="45.91198212698606" lon="13.943823547459532"><ele>869.0</ele><time>2026-05-05T12:06:23Z</time></trkpt><trkpt lat="45.91209480245368" lon="13.943923765428027"><ele>872.0</ele><time>2026-05-05T12:06:24Z</time></trkpt><trkpt lat="45.91220697219379" lon="13.94397195167266"><ele>875.0</ele><time>2026-05-05T12:06:25Z</time></trkpt><trkpt lat="45.91230682296018" lon="13.94401916009786"><ele>875.0</ele><time>2026-05-05T12:06:26Z</time></trkpt><trkpt lat="45.91240265252035" lon="13.943995731072057"><ele>875.0</ele><time>2026-05-05T12:06:27Z</time></trkpt><trkpt lat="45.9125027289196" lon="13.943910188064075"><ele>875.0</ele><time>2026-05-05T12:06:28Z</time></trkpt><trkpt lat="45.91260071970607" lon="13.943816970343988"><ele>875.0</ele><time>2026-05-05T12:06:29Z</time></trkpt><trkpt lat="45.912714041532325" lon="13.943701065992009"><ele>876.3333333333334</ele><time>2026-05-05T12:06:30Z</time></trkpt><trkpt lat="45.912825179807776" lon="13.943548409142938"><ele>877.6666666666667</ele><time>2026-05-05T12:06:31Z</time></trkpt><trkpt lat="45.91291530088538" lon="13.943362242437601"><ele>879.0</ele><time>2026-05-05T12:06:32Z</time></trkpt><trkpt lat="45.91301871513731" lon="13.94321703233571"><ele>880.0</ele><time>2026-05-05T12:06:33Z</time></trkpt><trkpt lat="45.91309288196839" lon="13.94307372506336"><ele>881.0</ele><time>2026-05-05T12:06:34Z</time></trkpt><trkpt lat="45.91314134952275" lon="13.942930118022211"><ele>882.0</ele><time>2026-05-05T12:06:35Z</time></trkpt><trkpt lat="45.913142032047794" lon="13.942768535513812"><ele>883.0</ele><time>2026-05-05T12:06:36Z</time></trkpt><trkpt lat="45.91309846698901" lon="13.9426230198776"><ele>883.0</ele><time>2026-05-05T12:06:37Z</time></trkpt><trkpt lat="45.913037448936784" lon="13.94249264583034"><ele>883.0</ele><time>2026-05-05T12:06:38Z</time></trkpt><trkpt lat="45.91294299308544" lon="13.942397482694071"><ele>883.0</ele><time>2026-05-05T12:06:39Z</time></trkpt><trkpt lat="45.91284096940195" lon="13.942349508318893"><ele>883.0</ele><time>2026-05-05T12:06:40Z</time></trkpt><trkpt lat="45.912731472846886" lon="13.942317177731296"><ele>883.0</ele><time>2026-05-05T12:06:41Z</time></trkpt><trkpt lat="45.91262396352227" lon="13.942260047795665"><ele>882.8</ele><time>2026-05-05T12:06:42Z</time></trkpt><trkpt lat="45.91254034294208" lon="13.942174370407226"><ele>882.5999999999999</ele><time>2026-05-05T12:06:43Z</time></trkpt><trkpt lat="45.912490260603796" lon="13.942056084816663"><ele>882.4000000000001</ele><time>2026-05-05T12:06:44Z</time></trkpt><trkpt lat="45.91249887874456" lon="13.941900189631859"><ele>882.2</ele><time>2026-05-05T12:06:45Z</time></trkpt><trkpt lat="45.91249244653618" lon="13.941735518737174"><ele>882.0</ele><time>2026-05-05T12:06:46Z</time></trkpt><trkpt lat="45.91248306242512" lon="13.941552335784296"><ele>879.5</ele><time>2026-05-05T12:06:47Z</time></trkpt><trkpt lat="45.91247122121355" lon="13.941355827227545"><ele>877.0</ele><time>2026-05-05T12:06:48Z</time></trkpt><trkpt lat="45.91245071987999" lon="13.941150348149053"><ele>874.5</ele><time>2026-05-05T12:06:49Z</time></trkpt><trkpt lat="45.91239080731041" lon="13.940945597153625"><ele>872.0</ele><time>2026-05-05T12:06:50Z</time></trkpt><trkpt lat="45.912278365878336" lon="13.940775092155366"><ele>869.6666666666667</ele><time>2026-05-05T12:06:51Z</time></trkpt><trkpt lat="45.912216152159544" lon="13.940560118310426"><ele>867.3333333333333</ele><time>2026-05-05T12:06:52Z</time></trkpt><trkpt lat="45.91216388069925" lon="13.940327864516945"><ele>865.0</ele><time>2026-05-05T12:06:53Z</time></trkpt><trkpt lat="45.91212461810075" lon="13.94011380412051"><ele>861.5</ele><time>2026-05-05T12:06:54Z</time></trkpt><trkpt lat="45.91213466549159" lon="13.939919349193502"><ele>858.0</ele><time>2026-05-05T12:06:55Z</time></trkpt><trkpt lat="45.91215824202191" lon="13.939734541061595"><ele>854.5</ele><time>2026-05-05T12:06:56Z</time></trkpt><trkpt lat="45.912141608413854" lon="13.939573024270548"><ele>851.0</ele><time>2026-05-05T12:06:57Z</time></trkpt><trkpt lat="45.91211720335327" lon="13.939422915091628"><ele>851.0</ele><time>2026-05-05T12:06:58Z</time></trkpt><trkpt lat="45.91204878381194" lon="13.939282491244391"><ele>851.0</ele><time>2026-05-05T12:06:59Z</time></trkpt><trkpt lat="45.91197851175615" lon="13.93914026331596"><ele>851.0</ele><time>2026-05-05T12:07:00Z</time></trkpt><trkpt lat="45.911941342960866" lon="13.938965343637207"><ele>851.0</ele><time>2026-05-05T12:07:01Z</time></trkpt><trkpt lat="45.9119891068485" lon="13.938784285181631"><ele>848.0</ele><time>2026-05-05T12:07:02Z</time></trkpt><trkpt lat="45.91204553580318" lon="13.938585097796265"><ele>845.0</ele><time>2026-05-05T12:07:03Z</time></trkpt><trkpt lat="45.91205615363966" lon="13.938346665906103"><ele>842.0</ele><time>2026-05-05T12:07:04Z</time></trkpt><trkpt lat="45.91209608898876" lon="13.938129046451122"><ele>841.75</ele><time>2026-05-05T12:07:05Z</time></trkpt><trkpt lat="45.912136697998285" lon="13.937911529363257"><ele>841.5</ele><time>2026-05-05T12:07:06Z</time></trkpt><trkpt lat="45.912181711231476" lon="13.937713005301386"><ele>841.25</ele><time>2026-05-05T12:07:07Z</time></trkpt><trkpt lat="45.91225343587464" lon="13.937547495748602"><ele>841.0</ele><time>2026-05-05T12:07:08Z</time></trkpt><trkpt lat="45.91233860454175" lon="13.937362448736742"><ele>841.0</ele><time>2026-05-05T12:07:09Z</time></trkpt><trkpt lat="45.912389731840086" lon="13.937133966722321"><ele>841.0</ele><time>2026-05-05T12:07:10Z</time></trkpt><trkpt lat="45.91246231451753" lon="13.936898726861532"><ele>841.0</ele><time>2026-05-05T12:07:11Z</time></trkpt><trkpt lat="45.9125452769268" lon="13.93665070403355"><ele>839.6666666666666</ele><time>2026-05-05T12:07:12Z</time></trkpt><trkpt lat="45.912644461970345" lon="13.93637745873477"><ele>838.3333333333333</ele><time>2026-05-05T12:07:13Z</time></trkpt><trkpt lat="45.91273658506182" lon="13.936119392639176"><ele>837.0</ele><time>2026-05-05T12:07:14Z</time></trkpt><trkpt lat="45.912817503025465" lon="13.93588825744305"><ele>838.6666666666667</ele><time>2026-05-05T12:07:15Z</time></trkpt><trkpt lat="45.91289488204245" lon="13.935666877423573"><ele>840.3333333333334</ele><time>2026-05-05T12:07:16Z</time></trkpt><trkpt lat="45.91297430988788" lon="13.935448378105805"><ele>842.0</ele><time>2026-05-05T12:07:17Z</time></trkpt><trkpt lat="45.91305093583823" lon="13.93522085383581"><ele>841.3333333333334</ele><time>2026-05-05T12:07:18Z</time></trkpt><trkpt lat="45.91313990036783" lon="13.934989767623101"><ele>840.6666666666667</ele><time>2026-05-05T12:07:19Z</time></trkpt><trkpt lat="45.91325665639006" lon="13.934771049221778"><ele>840.0</ele><time>2026-05-05T12:07:20Z</time></trkpt><trkpt lat="45.91339206048394" lon="13.93456788968368"><ele>839.3333333333333</ele><time>2026-05-05T12:07:21Z</time></trkpt><trkpt lat="45.91353152332446" lon="13.934368243869638"><ele>838.6666666666666</ele><time>2026-05-05T12:07:22Z</time></trkpt><trkpt lat="45.91365315423936" lon="13.934172526313708"><ele>838.0</ele><time>2026-05-05T12:07:23Z</time></trkpt><trkpt lat="45.913775082545605" lon="13.934010767699908"><ele>837.25</ele><time>2026-05-05T12:07:24Z</time></trkpt><trkpt lat="45.91388565018291" lon="13.933851573160615"><ele>836.5</ele><time>2026-05-05T12:07:25Z</time></trkpt><trkpt lat="45.913992495206" lon="13.93370012417202"><ele>835.75</ele><time>2026-05-05T12:07:26Z</time></trkpt><trkpt lat="45.91409046977259" lon="13.93356048745576"><ele>835.0</ele><time>2026-05-05T12:07:27Z</time></trkpt><trkpt lat="45.91418915637301" lon="13.93344360860902"><ele>832.5</ele><time>2026-05-05T12:07:28Z</time></trkpt><trkpt lat="45.914296794744274" lon="13.933367291810288"><ele>830.0</ele><time>2026-05-05T12:07:29Z</time></trkpt><trkpt lat="45.91442028606238" lon="13.93337339575969"><ele>827.5</ele><time>2026-05-05T12:07:30Z</time></trkpt><trkpt lat="45.91452117735307" lon="13.933318693417702"><ele>825.0</ele><time>2026-05-05T12:07:31Z</time></trkpt><trkpt lat="45.91461499106669" lon="13.933250174124948"><ele>825.0</ele><time>2026-05-05T12:07:32Z</time></trkpt><trkpt lat="45.914671973470874" lon="13.933130903738693"><ele>825.0</ele><time>2026-05-05T12:07:33Z</time></trkpt><trkpt lat="45.91469237415945" lon="13.932987248897527"><ele>825.0</ele><time>2026-05-05T12:07:34Z</time></trkpt><trkpt lat="45.91469454619873" lon="13.932829452991633"><ele>825.0</ele><time>2026-05-05T12:07:35Z</time></trkpt><trkpt lat="45.91470886374869" lon="13.932654206715068"><ele>825.0</ele><time>2026-05-05T12:07:36Z</time></trkpt><trkpt lat="45.91473536735983" lon="13.932455116027029"><ele>824.25</ele><time>2026-05-05T12:07:37Z</time></trkpt><trkpt lat="45.914775256394975" lon="13.932248351571406"><ele>823.5</ele><time>2026-05-05T12:07:38Z</time></trkpt><trkpt lat="45.91481174203027" lon="13.932054068279454"><ele>822.75</ele><time>2026-05-05T12:07:39Z</time></trkpt><trkpt lat="45.914824500675834" lon="13.931887876021737"><ele>822.0</ele><time>2026-05-05T12:07:40Z</time></trkpt><trkpt lat="45.914787689109296" lon="13.931740395380976"><ele>820.5</ele><time>2026-05-05T12:07:41Z</time></trkpt><trkpt lat="45.914708098428726" lon="13.931612506484049"><ele>819.0</ele><time>2026-05-05T12:07:42Z</time></trkpt><trkpt lat="45.91460382247612" lon="13.931477145496292"><ele>817.5</ele><time>2026-05-05T12:07:43Z</time></trkpt><trkpt lat="45.914502628349005" lon="13.931302050928776"><ele>816.0</ele><time>2026-05-05T12:07:44Z</time></trkpt><trkpt lat="45.914382905086136" lon="13.931128030355444"><ele>816.0</ele><time>2026-05-05T12:07:45Z</time></trkpt><trkpt lat="45.914255658756005" lon="13.930949351903815"><ele>816.0</ele><time>2026-05-05T12:07:46Z</time></trkpt><trkpt lat="45.91414039397129" lon="13.930746211901216"><ele>816.0</ele><time>2026-05-05T12:07:47Z</time></trkpt><trkpt lat="45.91401543532447" lon="13.930569094460873"><ele>819.6666666666667</ele><time>2026-05-05T12:07:48Z</time></trkpt><trkpt lat="45.91390546586893" lon="13.930397751874805"><ele>823.3333333333334</ele><time>2026-05-05T12:07:49Z</time></trkpt><trkpt lat="45.91380926982234" lon="13.930229232895611"><ele>827.0</ele><time>2026-05-05T12:07:50Z</time></trkpt><trkpt lat="45.913752633922414" lon="13.930030806046249"><ele>827.0</ele><time>2026-05-05T12:07:51Z</time></trkpt><trkpt lat="45.91366968352386" lon="13.929879332130442"><ele>827.0</ele><time>2026-05-05T12:07:52Z</time></trkpt><trkpt lat="45.913605013004435" lon="13.929720228296542"><ele>827.0</ele><time>2026-05-05T12:07:53Z</time></trkpt><trkpt lat="45.91358586690904" lon="13.929554138962526"><ele>827.0</ele><time>2026-05-05T12:07:54Z</time></trkpt><trkpt lat="45.913609103076176" lon="13.929412905382913"><ele>827.0</ele><time>2026-05-05T12:07:55Z</time></trkpt><trkpt lat="45.91365642247477" lon="13.929293663207197"><ele>827.0</ele><time>2026-05-05T12:07:56Z</time></trkpt><trkpt lat="45.91373452710283" lon="13.92920388776628"><ele>827.0</ele><time>2026-05-05T12:07:57Z</time></trkpt><trkpt lat="45.91382104382313" lon="13.929098222023148"><ele>827.0</ele><time>2026-05-05T12:07:58Z</time></trkpt><trkpt lat="45.9139402584318" lon="13.92903926956495"><ele>827.0</ele><time>2026-05-05T12:07:59Z</time></trkpt><trkpt lat="45.91406180999235" lon="13.929005226884822"><ele>827.25</ele><time>2026-05-05T12:08:00Z</time></trkpt><trkpt lat="45.91417843489123" lon="13.928965945495692"><ele>827.5</ele><time>2026-05-05T12:08:01Z</time></trkpt><trkpt lat="45.914290370942396" lon="13.928896870751998"><ele>827.75</ele><time>2026-05-05T12:08:02Z</time></trkpt><trkpt lat="45.914396968493314" lon="13.92880081378538"><ele>828.0</ele><time>2026-05-05T12:08:03Z</time></trkpt><trkpt lat="45.914477725374745" lon="13.928674310008203"><ele>826.0</ele><time>2026-05-05T12:08:04Z</time></trkpt><trkpt lat="45.91451811705712" lon="13.92852622431063"><ele>824.0</ele><time>2026-05-05T12:08:05Z</time></trkpt><trkpt lat="45.91453661454044" lon="13.928358284581968"><ele>822.0</ele><time>2026-05-05T12:08:06Z</time></trkpt><trkpt lat="45.91455361274563" lon="13.928181608691643"><ele>820.0</ele><time>2026-05-05T12:08:07Z</time></trkpt><trkpt lat="45.91459182629037" lon="13.928014408370219"><ele>820.0</ele><time>2026-05-05T12:08:08Z</time></trkpt><trkpt lat="45.9146753821728" lon="13.927868755928301"><ele>820.0</ele><time>2026-05-05T12:08:09Z</time></trkpt><trkpt lat="45.914757595129814" lon="13.927712810291789"><ele>820.0</ele><time>2026-05-05T12:08:10Z</time></trkpt><trkpt lat="45.91489272570945" lon="13.92763850215981"><ele>820.0</ele><time>2026-05-05T12:08:11Z</time></trkpt><trkpt lat="45.91503445742271" lon="13.927549491636166"><ele>821.0</ele><time>2026-05-05T12:08:12Z</time></trkpt><trkpt lat="45.91518144504017" lon="13.927429713970906"><ele>822.0</ele><time>2026-05-05T12:08:13Z</time></trkpt><trkpt lat="45.915327304436026" lon="13.92727960467889"><ele>823.0</ele><time>2026-05-05T12:08:14Z</time></trkpt><trkpt lat="45.91548332953409" lon="13.927135233484577"><ele>823.0</ele><time>2026-05-05T12:08:15Z</time></trkpt><trkpt lat="45.915628593878225" lon="13.926990410443073"><ele>823.0</ele><time>2026-05-05T12:08:16Z</time></trkpt><trkpt lat="45.91576535082326" lon="13.926842968140365"><ele>823.0</ele><time>2026-05-05T12:08:17Z</time></trkpt><trkpt lat="45.915875432055806" lon="13.92668563466863"><ele>823.25</ele><time>2026-05-05T12:08:18Z</time></trkpt><trkpt lat="45.9159677447385" lon="13.926536232952808"><ele>823.5</ele><time>2026-05-05T12:08:19Z</time></trkpt><trkpt lat="45.9160488099017" lon="13.926393722195172"><ele>823.75</ele><time>2026-05-05T12:08:20Z</time></trkpt><trkpt lat="45.91613277658121" lon="13.92627194621061"><ele>824.0</ele><time>2026-05-05T12:08:21Z</time></trkpt><trkpt lat="45.91624442011512" lon="13.926185509363489"><ele>824.0</ele><time>2026-05-05T12:08:22Z</time></trkpt><trkpt lat="45.91637480424301" lon="13.926135806270228"><ele>824.0</ele><time>2026-05-05T12:08:23Z</time></trkpt><trkpt lat="45.91651180835391" lon="13.92608165096038"><ele>824.0</ele><time>2026-05-05T12:08:24Z</time></trkpt><trkpt lat="45.91664921092423" lon="13.926009622235297"><ele>824.0</ele><time>2026-05-05T12:08:25Z</time></trkpt><trkpt lat="45.91678006482173" lon="13.925924895803387"><ele>825.25</ele><time>2026-05-05T12:08:26Z</time></trkpt><trkpt lat="45.91690470022493" lon="13.925812686121787"><ele>826.5</ele><time>2026-05-05T12:08:27Z</time></trkpt><trkpt lat="45.91701177070016" lon="13.925665270762076"><ele>827.75</ele><time>2026-05-05T12:08:28Z</time></trkpt><trkpt lat="45.917098708267865" lon="13.925485297445615"><ele>829.0</ele><time>2026-05-05T12:08:29Z</time></trkpt><trkpt lat="45.917187433439544" lon="13.925293659140697"><ele>829.0</ele><time>2026-05-05T12:08:30Z</time></trkpt><trkpt lat="45.9172842552006" lon="13.925108619836816"><ele>829.0</ele><time>2026-05-05T12:08:31Z</time></trkpt><trkpt lat="45.917396726066485" lon="13.924939523309803"><ele>829.0</ele><time>2026-05-05T12:08:32Z</time></trkpt><trkpt lat="45.917515884892694" lon="13.924789658345334"><ele>828.6666666666666</ele><time>2026-05-05T12:08:33Z</time></trkpt><trkpt lat="45.9176472110652" lon="13.924648082512267"><ele>828.3333333333333</ele><time>2026-05-05T12:08:34Z</time></trkpt><trkpt lat="45.917778331692126" lon="13.924508702140209"><ele>828.0</ele><time>2026-05-05T12:08:35Z</time></trkpt><trkpt lat="45.91789903844476" lon="13.92437268015721"><ele>828.0</ele><time>2026-05-05T12:08:36Z</time></trkpt><trkpt lat="45.91800656614521" lon="13.924246670410154"><ele>828.0</ele><time>2026-05-05T12:08:37Z</time></trkpt><trkpt lat="45.9181049287187" lon="13.924129022904383"><ele>828.0</ele><time>2026-05-05T12:08:38Z</time></trkpt><trkpt lat="45.91819501281941" lon="13.924014456045263"><ele>828.0</ele><time>2026-05-05T12:08:39Z</time></trkpt><trkpt lat="45.918287819614726" lon="13.923902923323608"><ele>827.0</ele><time>2026-05-05T12:08:40Z</time></trkpt><trkpt lat="45.91838604682723" lon="13.9238153377947"><ele>826.0</ele><time>2026-05-05T12:08:41Z</time></trkpt><trkpt lat="45.9185066611904" lon="13.923798619497646"><ele>825.0</ele><time>2026-05-05T12:08:42Z</time></trkpt><trkpt lat="45.9186288330348" lon="13.923804925930924"><ele>824.0</ele><time>2026-05-05T12:08:43Z</time></trkpt><trkpt lat="45.91875244096827" lon="13.92380939747982"><ele>823.0</ele><time>2026-05-05T12:08:44Z</time></trkpt><trkpt lat="45.918875590408916" lon="13.923842587297099"><ele>822.0</ele><time>2026-05-05T12:08:45Z</time></trkpt><trkpt lat="45.91899708479225" lon="13.923854117498932"><ele>821.0</ele><time>2026-05-05T12:08:46Z</time></trkpt><trkpt lat="45.91911452361165" lon="13.923816934332852"><ele>820.0</ele><time>2026-05-05T12:08:47Z</time></trkpt><trkpt lat="45.919226835606736" lon="13.923718451599461"><ele>820.3333333333333</ele><time>2026-05-05T12:08:48Z</time></trkpt><trkpt lat="45.91933813161164" lon="13.923584485746833"><ele>820.6666666666667</ele><time>2026-05-05T12:08:49Z</time></trkpt><trkpt lat="45.919466294802376" lon="13.923439948817162"><ele>821.0</ele><time>2026-05-05T12:08:50Z</time></trkpt><trkpt lat="45.9196043828956" lon="13.923293225773273"><ele>821.0</ele><time>2026-05-05T12:08:51Z</time></trkpt><trkpt lat="45.91973827289423" lon="13.92313017178447"><ele>821.0</ele><time>2026-05-05T12:08:52Z</time></trkpt><trkpt lat="45.919848872809254" lon="13.922935124588484"><ele>821.0</ele><time>2026-05-05T12:08:53Z</time></trkpt><trkpt lat="45.919939642908645" lon="13.922722194771534"><ele>821.3333333333334</ele><time>2026-05-05T12:08:54Z</time></trkpt><trkpt lat="45.92002101014079" lon="13.922505340449804"><ele>821.6666666666667</ele><time>2026-05-05T12:08:55Z</time></trkpt><trkpt lat="45.920122304658875" lon="13.922319679904923"><ele>822.0</ele><time>2026-05-05T12:08:56Z</time></trkpt><trkpt lat="45.92023153132475" lon="13.92215139656783"><ele>820.6666666666667</ele><time>2026-05-05T12:08:57Z</time></trkpt><trkpt lat="45.92035549287359" lon="13.921991587525104"><ele>819.3333333333334</ele><time>2026-05-05T12:08:58Z</time></trkpt><trkpt lat="45.920481352393224" lon="13.921842175978409"><ele>818.0</ele><time>2026-05-05T12:08:59Z</time></trkpt><trkpt lat="45.92063781241433" lon="13.921780953967026"><ele>820.0</ele><time>2026-05-05T12:09:00Z</time></trkpt><trkpt lat="45.92080041032693" lon="13.921725880965674"><ele>822.0</ele><time>2026-05-05T12:09:01Z</time></trkpt><trkpt lat="45.920957508988984" lon="13.921637616319158"><ele>824.0</ele><time>2026-05-05T12:09:02Z</time></trkpt><trkpt lat="45.921115827958644" lon="13.92154401558207"><ele>824.0</ele><time>2026-05-05T12:09:03Z</time></trkpt><trkpt lat="45.92125768850451" lon="13.921433727880927"><ele>824.0</ele><time>2026-05-05T12:09:04Z</time></trkpt><trkpt lat="45.921387159560695" lon="13.921313452578147"><ele>824.0</ele><time>2026-05-05T12:09:05Z</time></trkpt><trkpt lat="45.92150948515335" lon="13.921191675122179"><ele>824.0</ele><time>2026-05-05T12:09:06Z</time></trkpt><trkpt lat="45.92162268280201" lon="13.921065307450403"><ele>824.0</ele><time>2026-05-05T12:09:07Z</time></trkpt><trkpt lat="45.921723031170124" lon="13.920925857385331"><ele>824.0</ele><time>2026-05-05T12:09:08Z</time></trkpt><trkpt lat="45.92181108046713" lon="13.920757282824937"><ele>824.0</ele><time>2026-05-05T12:09:09Z</time></trkpt><trkpt lat="45.92188762214458" lon="13.920565069764429"><ele>824.6666666666667</ele><time>2026-05-05T12:09:10Z</time></trkpt><trkpt lat="45.92195909550312" lon="13.920350437391727"><ele>825.3333333333333</ele><time>2026-05-05T12:09:11Z</time></trkpt><trkpt lat="45.92203391526546" lon="13.920129618920594"><ele>826.0</ele><time>2026-05-05T12:09:12Z</time></trkpt><trkpt lat="45.92211048891616" lon="13.919910520737556"><ele>826.0</ele><time>2026-05-05T12:09:13Z</time></trkpt><trkpt lat="45.92220849666658" lon="13.919703934651789"><ele>826.0</ele><time>2026-05-05T12:09:14Z</time></trkpt><trkpt lat="45.92228469931923" lon="13.919471306872405"><ele>826.0</ele><time>2026-05-05T12:09:15Z</time></trkpt><trkpt lat="45.922385682298255" lon="13.919255444819052"><ele>827.0</ele><time>2026-05-05T12:09:16Z</time></trkpt><trkpt lat="45.922512404234006" lon="13.919078348686492"><ele>828.0</ele><time>2026-05-05T12:09:17Z</time></trkpt><trkpt lat="45.92265481634651" lon="13.918916604499357"><ele>829.0</ele><time>2026-05-05T12:09:18Z</time></trkpt><trkpt lat="45.922786751553495" lon="13.91874657906193"><ele>830.5</ele><time>2026-05-05T12:09:19Z</time></trkpt><trkpt lat="45.92293073708746" lon="13.918610063740983"><ele>832.0</ele><time>2026-05-05T12:09:20Z</time></trkpt><trkpt lat="45.9230468837658" lon="13.918478268652613"><ele>833.5</ele><time>2026-05-05T12:09:21Z</time></trkpt><trkpt lat="45.923145391481796" lon="13.918364154380976"><ele>835.0</ele><time>2026-05-05T12:09:22Z</time></trkpt><trkpt lat="45.9232057236498" lon="13.918201756493126"><ele>836.25</ele><time>2026-05-05T12:09:23Z</time></trkpt><trkpt lat="45.92321711750914" lon="13.918000786343173"><ele>837.5</ele><time>2026-05-05T12:09:24Z</time></trkpt><trkpt lat="45.923227407068225" lon="13.917813087440752"><ele>838.75</ele><time>2026-05-05T12:09:25Z</time></trkpt><trkpt lat="45.92323501614461" lon="13.917644274250044"><ele>840.0</ele><time>2026-05-05T12:09:26Z</time></trkpt><trkpt lat="45.92326807874481" lon="13.917505996511453"><ele>840.5</ele><time>2026-05-05T12:09:27Z</time></trkpt><trkpt lat="45.92335551049984" lon="13.917426136514162"><ele>841.0</ele><time>2026-05-05T12:09:28Z</time></trkpt><trkpt lat="45.92345012103314" lon="13.917311930343688"><ele>841.5</ele><time>2026-05-05T12:09:29Z</time></trkpt><trkpt lat="45.923579956808425" lon="13.917191542201293"><ele>842.0</ele><time>2026-05-05T12:09:30Z</time></trkpt><trkpt lat="45.923727001289606" lon="13.917034599707623"><ele>840.6666666666667</ele><time>2026-05-05T12:09:31Z</time></trkpt><trkpt lat="45.92387525094046" lon="13.91684511314686"><ele>839.3333333333333</ele><time>2026-05-05T12:09:32Z</time></trkpt><trkpt lat="45.924035215364306" lon="13.916640974649539"><ele>838.0</ele><time>2026-05-05T12:09:33Z</time></trkpt><trkpt lat="45.924201235681416" lon="13.916435280573465"><ele>841.0</ele><time>2026-05-05T12:09:34Z</time></trkpt><trkpt lat="45.92437414656299" lon="13.91626051878448"><ele>844.0</ele><time>2026-05-05T12:09:35Z</time></trkpt><trkpt lat="45.924532554007534" lon="13.916093592022772"><ele>847.0</ele><time>2026-05-05T12:09:36Z</time></trkpt><trkpt lat="45.9246765616343" lon="13.915939206359768"><ele>845.5</ele><time>2026-05-05T12:09:37Z</time></trkpt><trkpt lat="45.924809170995026" lon="13.915794041414106"><ele>844.0</ele><time>2026-05-05T12:09:38Z</time></trkpt><trkpt lat="45.924916026220295" lon="13.915651260521194"><ele>842.5</ele><time>2026-05-05T12:09:39Z</time></trkpt><trkpt lat="45.92502299691533" lon="13.915539787198796"><ele>841.0</ele><time>2026-05-05T12:09:40Z</time></trkpt><trkpt lat="45.92512706660314" lon="13.9154353758158"><ele>841.0</ele><time>2026-05-05T12:09:41Z</time></trkpt><trkpt lat="45.925231852619994" lon="13.915339989076863"><ele>841.0</ele><time>2026-05-05T12:09:42Z</time></trkpt><trkpt lat="45.925335161224446" lon="13.915233092110968"><ele>841.0</ele><time>2026-05-05T12:09:43Z</time></trkpt><trkpt lat="45.925429163533764" lon="13.915125414304336"><ele>841.0</ele><time>2026-05-05T12:09:44Z</time></trkpt><trkpt lat="45.92547886762327" lon="13.914970626752064"><ele>838.75</ele><time>2026-05-05T12:09:45Z</time></trkpt><trkpt lat="45.92549189707202" lon="13.914803297950154"><ele>836.5</ele><time>2026-05-05T12:09:46Z</time></trkpt><trkpt lat="45.92544561681942" lon="13.914639457547008"><ele>834.25</ele><time>2026-05-05T12:09:47Z</time></trkpt><trkpt lat="45.92540250255711" lon="13.914487710404483"><ele>832.0</ele><time>2026-05-05T12:09:48Z</time></trkpt><trkpt lat="45.92536934471174" lon="13.914336875531243"><ele>831.6</ele><time>2026-05-05T12:09:49Z</time></trkpt><trkpt lat="45.92537606925081" lon="13.914196327176619"><ele>831.2</ele><time>2026-05-05T12:09:50Z</time></trkpt><trkpt lat="45.925413729080184" lon="13.914067576810933"><ele>830.8</ele><time>2026-05-05T12:09:51Z</time></trkpt><trkpt lat="45.92546773757703" lon="13.913944173792663"><ele>830.4</ele><time>2026-05-05T12:09:52Z</time></trkpt><trkpt lat="45.92553855295637" lon="13.913803082420625"><ele>830.0</ele><time>2026-05-05T12:09:53Z</time></trkpt><trkpt lat="45.925618566241006" lon="13.913652295960903"><ele>830.0</ele><time>2026-05-05T12:09:54Z</time></trkpt><trkpt lat="45.925720409756075" lon="13.913504584245736"><ele>830.0</ele><time>2026-05-05T12:09:55Z</time></trkpt><trkpt lat="45.925839898297205" lon="13.913379454546265"><ele>830.0</ele><time>2026-05-05T12:09:56Z</time></trkpt><trkpt lat="45.92598221312472" lon="13.913301220594576"><ele>830.0</ele><time>2026-05-05T12:09:57Z</time></trkpt><trkpt lat="45.926116682429665" lon="13.913198690733036"><ele>828.0</ele><time>2026-05-05T12:09:58Z</time></trkpt><trkpt lat="45.926256126754446" lon="13.913117569717606"><ele>826.0</ele><time>2026-05-05T12:09:59Z</time></trkpt><trkpt lat="45.92639369544771" lon="13.91302536781447"><ele>824.0</ele><time>2026-05-05T12:10:00Z</time></trkpt><trkpt lat="45.92653091993406" lon="13.912920008559178"><ele>824.0</ele><time>2026-05-05T12:10:01Z</time></trkpt><trkpt lat="45.92666157150002" lon="13.91279645543606"><ele>824.0</ele><time>2026-05-05T12:10:02Z</time></trkpt><trkpt lat="45.92678231614146" lon="13.912661735394227"><ele>824.0</ele><time>2026-05-05T12:10:03Z</time></trkpt><trkpt lat="45.9268362178438" lon="13.912459635569512"><ele>823.25</ele><time>2026-05-05T12:10:04Z</time></trkpt><trkpt lat="45.9268732103288" lon="13.912271849165808"><ele>822.5</ele><time>2026-05-05T12:10:05Z</time></trkpt><trkpt lat="45.92690715064985" lon="13.912091020118769"><ele>821.75</ele><time>2026-05-05T12:10:06Z</time></trkpt><trkpt lat="45.9269456992279" lon="13.911927938610196"><ele>821.0</ele><time>2026-05-05T12:10:07Z</time></trkpt><trkpt lat="45.92701231209466" lon="13.9117883738396"><ele>820.25</ele><time>2026-05-05T12:10:08Z</time></trkpt><trkpt lat="45.92705736980983" lon="13.911633543369543"><ele>819.5</ele><time>2026-05-05T12:10:09Z</time></trkpt><trkpt lat="45.92712514508583" lon="13.911496632665676"><ele>818.75</ele><time>2026-05-05T12:10:10Z</time></trkpt><trkpt lat="45.92719785062748" lon="13.911358219581922"><ele>818.0</ele><time>2026-05-05T12:10:11Z</time></trkpt><trkpt lat="45.92727654016876" lon="13.911215372645641"><ele>818.0</ele><time>2026-05-05T12:10:12Z</time></trkpt><trkpt lat="45.92735030286994" lon="13.911076299532208"><ele>818.0</ele><time>2026-05-05T12:10:13Z</time></trkpt><trkpt lat="45.92741863883428" lon="13.910945778857538"><ele>818.0</ele><time>2026-05-05T12:10:14Z</time></trkpt><trkpt lat="45.92748241985461" lon="13.910822721154918"><ele>818.0</ele><time>2026-05-05T12:10:15Z</time></trkpt><trkpt lat="45.92753230956807" lon="13.910705342618618"><ele>818.0</ele><time>2026-05-05T12:10:16Z</time></trkpt><trkpt lat="45.92757217298917" lon="13.910592457347425"><ele>818.2</ele><time>2026-05-05T12:10:17Z</time></trkpt><trkpt lat="45.92761239346597" lon="13.910465153351565"><ele>818.4</ele><time>2026-05-05T12:10:18Z</time></trkpt><trkpt lat="45.92765504388775" lon="13.910322877005418"><ele>818.6</ele><time>2026-05-05T12:10:19Z</time></trkpt><trkpt lat="45.927698887807345" lon="13.91016845423739"><ele>818.8000000000001</ele><time>2026-05-05T12:10:20Z</time></trkpt><trkpt lat="45.927741961389245" lon="13.910016063466085"><ele>819.0</ele><time>2026-05-05T12:10:21Z</time></trkpt><trkpt lat="45.9277950569298" lon="13.909882099844275"><ele>819.2</ele><time>2026-05-05T12:10:22Z</time></trkpt><trkpt lat="45.92786596123884" lon="13.909758456039794"><ele>819.4000000000001</ele><time>2026-05-05T12:10:23Z</time></trkpt><trkpt lat="45.927968107307045" lon="13.909678967236035"><ele>819.6</ele><time>2026-05-05T12:10:24Z</time></trkpt><trkpt lat="45.92805593778173" lon="13.909581240745904"><ele>819.8</ele><time>2026-05-05T12:10:25Z</time></trkpt><trkpt lat="45.928132497464006" lon="13.90950690145449"><ele>820.0</ele><time>2026-05-05T12:10:26Z</time></trkpt><trkpt lat="45.92818775667537" lon="13.909393850176441"><ele>820.0</ele><time>2026-05-05T12:10:27Z</time></trkpt><trkpt lat="45.92821046977494" lon="13.909246370181757"><ele>820.0</ele><time>2026-05-05T12:10:28Z</time></trkpt><trkpt lat="45.92820723112717" lon="13.909084057815715"><ele>820.0</ele><time>2026-05-05T12:10:29Z</time></trkpt><trkpt lat="45.92819400722597" lon="13.908907495707783"><ele>820.0</ele><time>2026-05-05T12:10:30Z</time></trkpt><trkpt lat="45.928188130155455" lon="13.908718908404538"><ele>821.0</ele><time>2026-05-05T12:10:31Z</time></trkpt><trkpt lat="45.92823657265861" lon="13.908524274740417"><ele>822.0</ele><time>2026-05-05T12:10:32Z</time></trkpt><trkpt lat="45.928285542983346" lon="13.908310118359607"><ele>823.0</ele><time>2026-05-05T12:10:33Z</time></trkpt><trkpt lat="45.92836980420814" lon="13.908105966524172"><ele>829.3333333333333</ele><time>2026-05-05T12:10:34Z</time></trkpt><trkpt lat="45.92846156127027" lon="13.907897957516598"><ele>835.6666666666667</ele><time>2026-05-05T12:10:35Z</time></trkpt><trkpt lat="45.92854706884686" lon="13.907665554232777"><ele>842.0</ele><time>2026-05-05T12:10:36Z</time></trkpt><trkpt lat="45.92860020655986" lon="13.907416743889991"><ele>845.0</ele><time>2026-05-05T12:10:37Z</time></trkpt><trkpt lat="45.92861789355482" lon="13.907154097876465"><ele>848.0</ele><time>2026-05-05T12:10:38Z</time></trkpt><trkpt lat="45.92862388827463" lon="13.906915063756625"><ele>851.0</ele><time>2026-05-05T12:10:39Z</time></trkpt><trkpt lat="45.92864787701786" lon="13.906683983023493"><ele>851.0</ele><time>2026-05-05T12:10:40Z</time></trkpt><trkpt lat="45.928694507065735" lon="13.906480246989963"><ele>851.0</ele><time>2026-05-05T12:10:41Z</time></trkpt><trkpt lat="45.9287527599955" lon="13.906302387859803"><ele>851.0</ele><time>2026-05-05T12:10:42Z</time></trkpt><trkpt lat="45.92883064162132" lon="13.906154269151335"><ele>851.0</ele><time>2026-05-05T12:10:43Z</time></trkpt><trkpt lat="45.92892976802465" lon="13.906024579371318"><ele>850.0</ele><time>2026-05-05T12:10:44Z</time></trkpt><trkpt lat="45.92903852334329" lon="13.905892577168878"><ele>849.0</ele><time>2026-05-05T12:10:45Z</time></trkpt><trkpt lat="45.92914752409494" lon="13.90575408027468"><ele>848.0</ele><time>2026-05-05T12:10:46Z</time></trkpt><trkpt lat="45.92925845683885" lon="13.9056206236419"><ele>847.0</ele><time>2026-05-05T12:10:47Z</time></trkpt><trkpt lat="45.929373483590965" lon="13.905508388445039"><ele>847.0</ele><time>2026-05-05T12:10:48Z</time></trkpt><trkpt lat="45.92948713612279" lon="13.905410178150712"><ele>847.0</ele><time>2026-05-05T12:10:49Z</time></trkpt><trkpt lat="45.9295911291958" lon="13.905330306829525"><ele>847.0</ele><time>2026-05-05T12:10:50Z</time></trkpt><trkpt lat="45.92969384281974" lon="13.905276943084703"><ele>847.0</ele><time>2026-05-05T12:10:51Z</time></trkpt><trkpt lat="45.9298019903136" lon="13.905262586870156"><ele>847.0</ele><time>2026-05-05T12:10:52Z</time></trkpt><trkpt lat="45.9299121586885" lon="13.905282789418218"><ele>847.0</ele><time>2026-05-05T12:10:53Z</time></trkpt><trkpt lat="45.93000574994778" lon="13.905367740599207"><ele>847.0</ele><time>2026-05-05T12:10:54Z</time></trkpt><trkpt lat="45.93011531934252" lon="13.905429013665822"><ele>847.0</ele><time>2026-05-05T12:10:55Z</time></trkpt><trkpt lat="45.930216760783765" lon="13.905515746675208"><ele>847.5</ele><time>2026-05-05T12:10:56Z</time></trkpt><trkpt lat="45.930328407266266" lon="13.905566921431703"><ele>848.0</ele><time>2026-05-05T12:10:57Z</time></trkpt><trkpt lat="45.930455845133416" lon="13.905575805543851"><ele>848.5</ele><time>2026-05-05T12:10:58Z</time></trkpt><trkpt lat="45.93058791020346" lon="13.905533142695361"><ele>849.0</ele><time>2026-05-05T12:10:59Z</time></trkpt><trkpt lat="45.93071464910387" lon="13.905449412000598"><ele>849.0</ele><time>2026-05-05T12:11:00Z</time></trkpt><trkpt lat="45.93083459426451" lon="13.905332727233445"><ele>849.0</ele><time>2026-05-05T12:11:01Z</time></trkpt><trkpt lat="45.930957357633254" lon="13.90520285595477"><ele>849.0</ele><time>2026-05-05T12:11:02Z</time></trkpt><trkpt lat="45.93107523898965" lon="13.90507460562361"><ele>849.0</ele><time>2026-05-05T12:11:03Z</time></trkpt><trkpt lat="45.93118349693717" lon="13.904969633275298"><ele>846.2</ele><time>2026-05-05T12:11:03.999Z</time></trkpt><trkpt lat="45.93127286054708" lon="13.904861871793795"><ele>843.4000000000001</ele><time>2026-05-05T12:11:04.999Z</time></trkpt><trkpt lat="45.93136710399476" lon="13.904775061863283"><ele>840.6</ele><time>2026-05-05T12:11:05.999Z</time></trkpt><trkpt lat="45.93147297985957" lon="13.904733519705092"><ele>837.8</ele><time>2026-05-05T12:11:06.999Z</time></trkpt><trkpt lat="45.9315806109063" lon="13.904757358577797"><ele>835.0</ele><time>2026-05-05T12:11:07.999Z</time></trkpt><trkpt lat="45.93167322879368" lon="13.904835588502236"><ele>836.25</ele><time>2026-05-05T12:11:08.999Z</time></trkpt><trkpt lat="45.93175994968045" lon="13.904945418408705"><ele>837.5</ele><time>2026-05-05T12:11:09.999Z</time></trkpt><trkpt lat="45.93183345868049" lon="13.905072968235205"><ele>838.75</ele><time>2026-05-05T12:11:10.999Z</time></trkpt><trkpt lat="45.93191082206786" lon="13.905199802202688"><ele>840.0</ele><time>2026-05-05T12:11:11.999Z</time></trkpt><trkpt lat="45.932005907274224" lon="13.905306582895404"><ele>841.5</ele><time>2026-05-05T12:11:12.999Z</time></trkpt><trkpt lat="45.932114887146575" lon="13.905372459662392"><ele>843.0</ele><time>2026-05-05T12:11:13.999Z</time></trkpt><trkpt lat="45.93223063353552" lon="13.905394525199071"><ele>844.5</ele><time>2026-05-05T12:11:14.999Z</time></trkpt><trkpt lat="45.932344063951064" lon="13.905370119562056"><ele>846.0</ele><time>2026-05-05T12:11:15.999Z</time></trkpt><trkpt lat="45.9324477094952" lon="13.905294756713596"><ele>846.0</ele><time>2026-05-05T12:11:16.999Z</time></trkpt><trkpt lat="45.93254243496357" lon="13.905201470426546"><ele>846.0</ele><time>2026-05-05T12:11:17.999Z</time></trkpt><trkpt lat="45.932651946485265" lon="13.90513087905922"><ele>846.0</ele><time>2026-05-05T12:11:18.999Z</time></trkpt><trkpt lat="45.93278375899483" lon="13.905107805047749"><ele>846.0</ele><time>2026-05-05T12:11:19.999Z</time></trkpt><trkpt lat="45.93292807863821" lon="13.905079279721656"><ele>845.3333333333333</ele><time>2026-05-05T12:11:20.999Z</time></trkpt><trkpt lat="45.93307784905489" lon="13.905036698320101"><ele>844.6666666666666</ele><time>2026-05-05T12:11:21.999Z</time></trkpt><trkpt lat="45.93323002916836" lon="13.904959770181796"><ele>844.0</ele><time>2026-05-05T12:11:22.999Z</time></trkpt><trkpt lat="45.93337302846902" lon="13.904867135484759"><ele>846.6666666666666</ele><time>2026-05-05T12:11:23.999Z</time></trkpt><trkpt lat="45.93351307034122" lon="13.904749461855264"><ele>849.3333333333333</ele><time>2026-05-05T12:11:24.999Z</time></trkpt><trkpt lat="45.933652777210504" lon="13.904626092318649"><ele>852.0</ele><time>2026-05-05T12:11:25.999Z</time></trkpt><trkpt lat="45.933796893457796" lon="13.90450944221401"><ele>852.0</ele><time>2026-05-05T12:11:26.999Z</time></trkpt><trkpt lat="45.933939741708265" lon="13.90439725329871"><ele>852.0</ele><time>2026-05-05T12:11:27.999Z</time></trkpt><trkpt lat="45.93407420657609" lon="13.904294676189089"><ele>852.0</ele><time>2026-05-05T12:11:28.999Z</time></trkpt><trkpt lat="45.93420850874035" lon="13.904197488572951"><ele>858.0</ele><time>2026-05-05T12:11:29.999Z</time></trkpt><trkpt lat="45.93435135663051" lon="13.904123237089856"><ele>864.0</ele><time>2026-05-05T12:11:30.999Z</time></trkpt><trkpt lat="45.934477354768966" lon="13.903998984742088"><ele>870.0</ele><time>2026-05-05T12:11:31.999Z</time></trkpt><trkpt lat="45.93460722336563" lon="13.903890535781965"><ele>870.0</ele><time>2026-05-05T12:11:32.999Z</time></trkpt><trkpt lat="45.93474213101784" lon="13.903792766423656"><ele>870.0</ele><time>2026-05-05T12:11:33.999Z</time></trkpt><trkpt lat="45.93489351437269" lon="13.903733577156839"><ele>870.0</ele><time>2026-05-05T12:11:34.999Z</time></trkpt><trkpt lat="45.935046891644035" lon="13.90369447916046"><ele>873.5</ele><time>2026-05-05T12:11:35.999Z</time></trkpt><trkpt lat="45.93519165543459" lon="13.903723948477296"><ele>877.0</ele><time>2026-05-05T12:11:36.999Z</time></trkpt><trkpt lat="45.93532762302104" lon="13.90375791278036"><ele>880.5</ele><time>2026-05-05T12:11:37.999Z</time></trkpt><trkpt lat="45.93546765548644" lon="13.903767289742865"><ele>884.0</ele><time>2026-05-05T12:11:38.999Z</time></trkpt><trkpt lat="45.93559951840067" lon="13.903780188079306"><ele>884.0</ele><time>2026-05-05T12:11:39.999Z</time></trkpt><trkpt lat="45.93571816431579" lon="13.903756552686781"><ele>884.0000000000001</ele><time>2026-05-05T12:11:40.999Z</time></trkpt><trkpt lat="45.93581686275809" lon="13.903687769715567"><ele>884.0000000000001</ele><time>2026-05-05T12:11:41.999Z</time></trkpt><trkpt lat="45.93588176365047" lon="13.903574716746936"><ele>884.0</ele><time>2026-05-05T12:11:42.999Z</time></trkpt><trkpt lat="45.93591794632186" lon="13.903450089642416"><ele>884.0</ele><time>2026-05-05T12:11:43.999Z</time></trkpt><trkpt lat="45.935940118891416" lon="13.903311924396933"><ele>885.6</ele><time>2026-05-05T12:11:44.999Z</time></trkpt><trkpt lat="45.935895592084314" lon="13.903172103706835"><ele>887.2</ele><time>2026-05-05T12:11:45.999Z</time></trkpt><trkpt lat="45.93585504023026" lon="13.903077697426056"><ele>888.8000000000001</ele><time>2026-05-05T12:11:46.999Z</time></trkpt><trkpt lat="45.93582086838459" lon="13.902957063424132"><ele>890.4000000000001</ele><time>2026-05-05T12:11:48.999Z</time></trkpt><trkpt lat="45.935922441302544" lon="13.9028956063245"><ele>892.0</ele><time>2026-05-05T12:11:50.999Z</time></trkpt><trkpt lat="45.93597983286857" lon="13.902962157113102"><ele>892.0</ele><time>2026-05-05T12:11:51.999Z</time></trkpt><trkpt lat="45.93602087768142" lon="13.903062117186611"><ele>892.0</ele><time>2026-05-05T12:11:52.999Z</time></trkpt><trkpt lat="45.93609078828005" lon="13.90314543196905"><ele>892.0</ele><time>2026-05-05T12:11:53.999Z</time></trkpt><trkpt lat="45.93614843728585" lon="13.903263440337998"><ele>892.0</ele><time>2026-05-05T12:11:54.999Z</time></trkpt><trkpt lat="45.93620112303198" lon="13.903345811386009"><ele>892.0</ele><time>2026-05-05T12:11:55.999Z</time></trkpt><trkpt lat="45.93632021974183" lon="13.9033120137186"><ele>892.0</ele><time>2026-05-05T12:11:57.999Z</time></trkpt><trkpt lat="45.93635342703106" lon="13.903214579367166"><ele>892.0</ele><time>2026-05-05T12:11:58.999Z</time></trkpt><trkpt lat="45.93635727895716" lon="13.90309027941529"><ele>892.0</ele><time>2026-05-05T12:11:59.999Z</time></trkpt><trkpt lat="45.93633250618081" lon="13.902958565548628"><ele>892.0</ele><time>2026-05-05T12:12:00.999Z</time></trkpt><trkpt lat="45.936294070801566" lon="13.902825276094049"><ele>892.0</ele><time>2026-05-05T12:12:01.999Z</time></trkpt><trkpt lat="45.9362846004064" lon="13.902681201978798"><ele>892.25</ele><time>2026-05-05T12:12:02.999Z</time></trkpt><trkpt lat="45.93630151968229" lon="13.90253536960807"><ele>892.5</ele><time>2026-05-05T12:12:03.999Z</time></trkpt><trkpt lat="45.93635334848762" lon="13.902382417693826"><ele>892.75</ele><time>2026-05-05T12:12:04.999Z</time></trkpt><trkpt lat="45.93641135376769" lon="13.902214931131795"><ele>893.0</ele><time>2026-05-05T12:12:05.999Z</time></trkpt><trkpt lat="45.936468270438" lon="13.902042089147391"><ele>893.0</ele><time>2026-05-05T12:12:06.999Z</time></trkpt><trkpt lat="45.93657349802606" lon="13.901930040225905"><ele>893.0</ele><time>2026-05-05T12:12:07.999Z</time></trkpt><trkpt lat="45.936682362674965" lon="13.901858233220096"><ele>893.0</ele><time>2026-05-05T12:12:08.999Z</time></trkpt><trkpt lat="45.936795845386804" lon="13.901781222114387"><ele>893.0</ele><time>2026-05-05T12:12:09.999Z</time></trkpt><trkpt lat="45.93689461883028" lon="13.901671574651093"><ele>894.25</ele><time>2026-05-05T12:12:10.999Z</time></trkpt><trkpt lat="45.93699029909395" lon="13.901547605334637"><ele>895.5</ele><time>2026-05-05T12:12:11.999Z</time></trkpt><trkpt lat="45.93706779725307" lon="13.901392490294052"><ele>896.75</ele><time>2026-05-05T12:12:12.999Z</time></trkpt><trkpt lat="45.937137298546446" lon="13.901227274821588"><ele>898.0</ele><time>2026-05-05T12:12:13.999Z</time></trkpt><trkpt lat="45.937228861860554" lon="13.901135131113971"><ele>898.0</ele><time>2026-05-05T12:12:14.999Z</time></trkpt><trkpt lat="45.93731348446015" lon="13.901027410047957"><ele>898.0</ele><time>2026-05-05T12:12:15.999Z</time></trkpt><trkpt lat="45.93741774819413" lon="13.900943023329676"><ele>898.0</ele><time>2026-05-05T12:12:16.999Z</time></trkpt><trkpt lat="45.9375427115899" lon="13.900959938641115"><ele>898.0</ele><time>2026-05-05T12:12:17.999Z</time></trkpt><trkpt lat="45.93767751356131" lon="13.900950730911525"><ele>897.5</ele><time>2026-05-05T12:12:18.999Z</time></trkpt><trkpt lat="45.937814794340255" lon="13.90091411904346"><ele>897.0</ele><time>2026-05-05T12:12:19.999Z</time></trkpt><trkpt lat="45.93793937578522" lon="13.900840877287804"><ele>896.5</ele><time>2026-05-05T12:12:20.999Z</time></trkpt><trkpt lat="45.93802647219551" lon="13.900684991058906"><ele>896.0</ele><time>2026-05-05T12:12:21.999Z</time></trkpt><trkpt lat="45.938100908704996" lon="13.900524662928955"><ele>896.0</ele><time>2026-05-05T12:12:22.999Z</time></trkpt><trkpt lat="45.93816662264766" lon="13.900356000737853"><ele>896.0</ele><time>2026-05-05T12:12:23.999Z</time></trkpt><trkpt lat="45.938181814167024" lon="13.900151218273663"><ele>896.0</ele><time>2026-05-05T12:12:24.999Z</time></trkpt><trkpt lat="45.938227960114325" lon="13.899959252412684"><ele>896.0</ele><time>2026-05-05T12:12:25.999Z</time></trkpt><trkpt lat="45.93826904785372" lon="13.899760836716748"><ele>896.0</ele><time>2026-05-05T12:12:26.999Z</time></trkpt><trkpt lat="45.93830109659262" lon="13.89956782888793"><ele>896.0</ele><time>2026-05-05T12:12:27.999Z</time></trkpt><trkpt lat="45.9383676448565" lon="13.89941471253839"><ele>896.0</ele><time>2026-05-05T12:12:28.999Z</time></trkpt><trkpt lat="45.9384666268793" lon="13.899328750123983"><ele>896.0</ele><time>2026-05-05T12:12:29.999Z</time></trkpt><trkpt lat="45.93856620417527" lon="13.89929906512552"><ele>897.0</ele><time>2026-05-05T12:12:30.999Z</time></trkpt><trkpt lat="45.93866875196669" lon="13.899296150991741"><ele>897.9999999999999</ele><time>2026-05-05T12:12:31.999Z</time></trkpt><trkpt lat="45.9387772237129" lon="13.899264634320497"><ele>898.9999999999999</ele><time>2026-05-05T12:12:32.999Z</time></trkpt><trkpt lat="45.93888163425863" lon="13.899227882406963"><ele>900.0</ele><time>2026-05-05T12:12:33.999Z</time></trkpt><trkpt lat="45.93897467132002" lon="13.899123871192838"><ele>901.0</ele><time>2026-05-05T12:12:34.999Z</time></trkpt><trkpt lat="45.939066651699584" lon="13.898981781078565"><ele>901.0</ele><time>2026-05-05T12:12:35.999Z</time></trkpt><trkpt lat="45.939166311670924" lon="13.898833322353225"><ele>901.0</ele><time>2026-05-05T12:12:36.999Z</time></trkpt><trkpt lat="45.939270161423984" lon="13.89869120306414"><ele>901.0</ele><time>2026-05-05T12:12:37.999Z</time></trkpt><trkpt lat="45.93936996384185" lon="13.898548644144322"><ele>901.0</ele><time>2026-05-05T12:12:38.999Z</time></trkpt><trkpt lat="45.93946744716933" lon="13.898413411417335"><ele>900.0</ele><time>2026-05-05T12:12:39.999Z</time></trkpt><trkpt lat="45.93958147259113" lon="13.89829539500614"><ele>899.0</ele><time>2026-05-05T12:12:40.999Z</time></trkpt><trkpt lat="45.93970883230067" lon="13.898199615922907"><ele>898.0</ele><time>2026-05-05T12:12:41.999Z</time></trkpt><trkpt lat="45.93984385444702" lon="13.89811593906972"><ele>897.0</ele><time>2026-05-05T12:12:43Z</time></trkpt><trkpt lat="45.93997666820578" lon="13.898025544418187"><ele>899.0</ele><time>2026-05-05T12:12:44Z</time></trkpt><trkpt lat="45.940090967093056" lon="13.897910256483772"><ele>901.0</ele><time>2026-05-05T12:12:45Z</time></trkpt><trkpt lat="45.940188226041506" lon="13.897774071772387"><ele>903.0</ele><time>2026-05-05T12:12:46Z</time></trkpt><trkpt lat="45.94027751462605" lon="13.897636425491841"><ele>905.0</ele><time>2026-05-05T12:12:47Z</time></trkpt><trkpt lat="45.940365968727065" lon="13.897486766093111"><ele>905.0</ele><time>2026-05-05T12:12:48Z</time></trkpt><trkpt lat="45.94044092872894" lon="13.897316719813974"><ele>905.0</ele><time>2026-05-05T12:12:49Z</time></trkpt><trkpt lat="45.94051736409732" lon="13.89717395283035"><ele>905.0</ele><time>2026-05-05T12:12:50Z</time></trkpt><trkpt lat="45.940586994849625" lon="13.897034703228917"><ele>905.0</ele><time>2026-05-05T12:12:51Z</time></trkpt><trkpt lat="45.94065038779736" lon="13.896881563236548"><ele>903.2</ele><time>2026-05-05T12:12:52Z</time></trkpt><trkpt lat="45.940663604886005" lon="13.896718469319865"><ele>901.4</ele><time>2026-05-05T12:12:53Z</time></trkpt><trkpt lat="45.94067841961841" lon="13.896566388083714"><ele>899.5999999999999</ele><time>2026-05-05T12:12:54Z</time></trkpt><trkpt lat="45.94068801766806" lon="13.896416343022365"><ele>897.8</ele><time>2026-05-05T12:12:55Z</time></trkpt><trkpt lat="45.94070967555275" lon="13.896267357880557"><ele>896.0</ele><time>2026-05-05T12:12:56Z</time></trkpt><trkpt lat="45.94077042058956" lon="13.896132960186995"><ele>896.0</ele><time>2026-05-05T12:12:57Z</time></trkpt><trkpt lat="45.9408415151495" lon="13.895992275786595"><ele>896.0</ele><time>2026-05-05T12:12:58Z</time></trkpt><trkpt lat="45.94092956329541" lon="13.895846052679373"><ele>896.0</ele><time>2026-05-05T12:12:59Z</time></trkpt><trkpt lat="45.94101767647066" lon="13.89569524010074"><ele>896.0</ele><time>2026-05-05T12:13:00Z</time></trkpt><trkpt lat="45.94112381977562" lon="13.895569293458909"><ele>895.5</ele><time>2026-05-05T12:13:01Z</time></trkpt><trkpt lat="45.94122715636977" lon="13.8954563228827"><ele>895.0</ele><time>2026-05-05T12:13:02Z</time></trkpt><trkpt lat="45.94131655101051" lon="13.895336626158079"><ele>894.5</ele><time>2026-05-05T12:13:03Z</time></trkpt><trkpt lat="45.94137714500902" lon="13.895197163685609"><ele>894.0</ele><time>2026-05-05T12:13:04Z</time></trkpt><trkpt lat="45.941403552078114" lon="13.895018281948508"><ele>892.75</ele><time>2026-05-05T12:13:05Z</time></trkpt><trkpt lat="45.94140989256471" lon="13.894845214013312"><ele>891.5</ele><time>2026-05-05T12:13:06Z</time></trkpt><trkpt lat="45.941431549874316" lon="13.89466830563727"><ele>890.25</ele><time>2026-05-05T12:13:07Z</time></trkpt><trkpt lat="45.94151166637684" lon="13.894506135854051"><ele>889.0</ele><time>2026-05-05T12:13:08Z</time></trkpt><trkpt lat="45.94157700431181" lon="13.894322091376653"><ele>890.25</ele><time>2026-05-05T12:13:09Z</time></trkpt><trkpt lat="45.94166216457813" lon="13.894171181522307"><ele>891.5</ele><time>2026-05-05T12:13:10Z</time></trkpt><trkpt lat="45.9417432421027" lon="13.894032958544914"><ele>892.75</ele><time>2026-05-05T12:13:11Z</time></trkpt><trkpt lat="45.94181188283744" lon="13.8939016112654"><ele>894.0</ele><time>2026-05-05T12:13:12Z</time></trkpt><trkpt lat="45.94186546942852" lon="13.893749629193952"><ele>894.0</ele><time>2026-05-05T12:13:13Z</time></trkpt><trkpt lat="45.94189662531462" lon="13.893566577943496"><ele>894.0</ele><time>2026-05-05T12:13:14Z</time></trkpt><trkpt lat="45.941904952294315" lon="13.893358095785322"><ele>894.0</ele><time>2026-05-05T12:13:15Z</time></trkpt><trkpt lat="45.94190328046218" lon="13.89313158803732"><ele>894.0</ele><time>2026-05-05T12:13:16Z</time></trkpt><trkpt lat="45.94189551591266" lon="13.89289645342088"><ele>893.0</ele><time>2026-05-05T12:13:17Z</time></trkpt><trkpt lat="45.94188050535584" lon="13.892657777228717"><ele>892.0</ele><time>2026-05-05T12:13:18Z</time></trkpt><trkpt lat="45.94186673840589" lon="13.892420589023589"><ele>891.0</ele><time>2026-05-05T12:13:19Z</time></trkpt><trkpt lat="45.94186763117841" lon="13.892182624678863"><ele>891.0</ele><time>2026-05-05T12:13:20Z</time></trkpt><trkpt lat="45.94189651618541" lon="13.891958917398048"><ele>891.0</ele><time>2026-05-05T12:13:21Z</time></trkpt><trkpt lat="45.94193735673931" lon="13.89175031062213"><ele>891.0</ele><time>2026-05-05T12:13:22Z</time></trkpt><trkpt lat="45.94197713949082" lon="13.891557057919877"><ele>891.0</ele><time>2026-05-05T12:13:23Z</time></trkpt><trkpt lat="45.94201375846749" lon="13.891368812139225"><ele>890.75</ele><time>2026-05-05T12:13:24Z</time></trkpt><trkpt lat="45.94205745072499" lon="13.891186009585155"><ele>890.5</ele><time>2026-05-05T12:13:25Z</time></trkpt><trkpt lat="45.942110047988145" lon="13.891016894315557"><ele>890.25</ele><time>2026-05-05T12:13:26Z</time></trkpt><trkpt lat="45.94218551871558" lon="13.89086391943526"><ele>890.0</ele><time>2026-05-05T12:13:27Z</time></trkpt><trkpt lat="45.9422625316007" lon="13.890731871779893"><ele>889.75</ele><time>2026-05-05T12:13:28Z</time></trkpt><trkpt lat="45.94237020856684" lon="13.890623343414266"><ele>889.5</ele><time>2026-05-05T12:13:29Z</time></trkpt><trkpt lat="45.94249979210751" lon="13.890541546350056"><ele>889.25</ele><time>2026-05-05T12:13:30Z</time></trkpt><trkpt lat="45.94263816505547" lon="13.890450339477095"><ele>889.0</ele><time>2026-05-05T12:13:31Z</time></trkpt><trkpt lat="45.94278251206369" lon="13.890339508116726"><ele>890.0</ele><time>2026-05-05T12:13:32Z</time></trkpt><trkpt lat="45.94292835451055" lon="13.890214988614424"><ele>891.0</ele><time>2026-05-05T12:13:33Z</time></trkpt><trkpt lat="45.943072972368725" lon="13.890087289766356"><ele>892.0</ele><time>2026-05-05T12:13:34Z</time></trkpt><trkpt lat="45.94320447251953" lon="13.889976919834679"><ele>892.0</ele><time>2026-05-05T12:13:35Z</time></trkpt><trkpt lat="45.94332779938078" lon="13.889879379869653"><ele>892.0</ele><time>2026-05-05T12:13:36Z</time></trkpt><trkpt lat="45.94344378242379" lon="13.889786620881797"><ele>892.0</ele><time>2026-05-05T12:13:37Z</time></trkpt><trkpt lat="45.943557296685064" lon="13.889694698280662"><ele>892.0</ele><time>2026-05-05T12:13:38Z</time></trkpt><trkpt lat="45.94366618599229" lon="13.889589640114991"><ele>895.5</ele><time>2026-05-05T12:13:39Z</time></trkpt><trkpt lat="45.943776900005005" lon="13.8894749983883"><ele>899.0</ele><time>2026-05-05T12:13:40Z</time></trkpt><trkpt lat="45.94388400823089" lon="13.889335525387063"><ele>902.5</ele><time>2026-05-05T12:13:41Z</time></trkpt><trkpt lat="45.94398043228297" lon="13.889165702992537"><ele>906.0</ele><time>2026-05-05T12:13:42Z</time></trkpt><trkpt lat="45.94405517688927" lon="13.888963631244511"><ele>906.0</ele><time>2026-05-05T12:13:43Z</time></trkpt><trkpt lat="45.94410596769234" lon="13.888747129794258"><ele>906.0</ele><time>2026-05-05T12:13:44Z</time></trkpt><trkpt lat="45.94413825194999" lon="13.888520966748478"><ele>906.0</ele><time>2026-05-05T12:13:45Z</time></trkpt><trkpt lat="45.94417640545136" lon="13.888313233156884"><ele>907.0</ele><time>2026-05-05T12:13:46Z</time></trkpt><trkpt lat="45.9442173511097" lon="13.888127198601438"><ele>908.0</ele><time>2026-05-05T12:13:47Z</time></trkpt><trkpt lat="45.944266473732256" lon="13.887945373574277"><ele>909.0</ele><time>2026-05-05T12:13:48Z</time></trkpt><trkpt lat="45.94429614617547" lon="13.887757722680021"><ele>910.0</ele><time>2026-05-05T12:13:49Z</time></trkpt><trkpt lat="45.94428855823635" lon="13.887577821159441"><ele>910.0</ele><time>2026-05-05T12:13:50Z</time></trkpt><trkpt lat="45.944258378542685" lon="13.887400667466013"><ele>910.0</ele><time>2026-05-05T12:13:51Z</time></trkpt><trkpt lat="45.94421401212527" lon="13.887220541140017"><ele>910.0</ele><time>2026-05-05T12:13:52Z</time></trkpt><trkpt lat="45.94418761505613" lon="13.88702183699016"><ele>910.0</ele><time>2026-05-05T12:13:53Z</time></trkpt><trkpt lat="45.944143521829346" lon="13.886840629986795"><ele>908.25</ele><time>2026-05-05T12:13:54Z</time></trkpt><trkpt lat="45.94409076380026" lon="13.886665832968632"><ele>906.5</ele><time>2026-05-05T12:13:55Z</time></trkpt><trkpt lat="45.94401378430707" lon="13.886518309064593"><ele>904.75</ele><time>2026-05-05T12:13:56Z</time></trkpt><trkpt lat="45.94394618506819" lon="13.88635939976228"><ele>903.0</ele><time>2026-05-05T12:13:57Z</time></trkpt><trkpt lat="45.94386935401645" lon="13.886188247448157"><ele>903.0</ele><time>2026-05-05T12:13:58Z</time></trkpt><trkpt lat="45.94378862191245" lon="13.886004822874563"><ele>903.0</ele><time>2026-05-05T12:13:59Z</time></trkpt><trkpt lat="45.94369325469027" lon="13.885823766622272"><ele>903.0</ele><time>2026-05-05T12:14:00Z</time></trkpt><trkpt lat="45.94359522603639" lon="13.88563472349771"><ele>903.0</ele><time>2026-05-05T12:14:01Z</time></trkpt><trkpt lat="45.94347422537696" lon="13.885467864867774"><ele>903.0</ele><time>2026-05-05T12:14:02Z</time></trkpt><trkpt lat="45.943434731408225" lon="13.885188495362042"><ele>903.0</ele><time>2026-05-05T12:14:03Z</time></trkpt><trkpt lat="45.94335452756308" lon="13.884953636493218"><ele>903.0</ele><time>2026-05-05T12:14:04Z</time></trkpt><trkpt lat="45.943315080489505" lon="13.884692089463359"><ele>903.0</ele><time>2026-05-05T12:14:05Z</time></trkpt><trkpt lat="45.94328777994775" lon="13.884455817377335"><ele>903.0</ele><time>2026-05-05T12:14:06Z</time></trkpt><trkpt lat="45.94326907187223" lon="13.884242033772"><ele>903.75</ele><time>2026-05-05T12:14:07Z</time></trkpt><trkpt lat="45.94328666176273" lon="13.884028274772248"><ele>904.5</ele><time>2026-05-05T12:14:08Z</time></trkpt><trkpt lat="45.94328335512093" lon="13.883817533568793"><ele>905.25</ele><time>2026-05-05T12:14:09Z</time></trkpt><trkpt lat="45.9432829952987" lon="13.883620645881681"><ele>906.0</ele><time>2026-05-05T12:14:10Z</time></trkpt><trkpt lat="45.943281195726016" lon="13.88343442800163"><ele>905.75</ele><time>2026-05-05T12:14:11Z</time></trkpt><trkpt lat="45.94332685663033" lon="13.88326634370009"><ele>905.5</ele><time>2026-05-05T12:14:12Z</time></trkpt><trkpt lat="45.943391272906595" lon="13.883124227527654"><ele>905.25</ele><time>2026-05-05T12:14:13Z</time></trkpt><trkpt lat="45.943453536826034" lon="13.882973726711683"><ele>905.0</ele><time>2026-05-05T12:14:14Z</time></trkpt><trkpt lat="45.94349165080545" lon="13.882825681300131"><ele>906.2</ele><time>2026-05-05T12:14:15Z</time></trkpt><trkpt lat="45.94354166518316" lon="13.882699186185583"><ele>907.4</ele><time>2026-05-05T12:14:16Z</time></trkpt><trkpt lat="45.94355235946143" lon="13.882571743764524"><ele>908.5999999999999</ele><time>2026-05-05T12:14:17Z</time></trkpt><trkpt lat="45.94350020434676" lon="13.882435218575978"><ele>909.8</ele><time>2026-05-05T12:14:18Z</time></trkpt><trkpt lat="45.94344954888075" lon="13.882295492149302"><ele>911.0</ele><time>2026-05-05T12:14:19Z</time></trkpt><trkpt lat="45.94339006516894" lon="13.882146231211435"><ele>910.5</ele><time>2026-05-05T12:14:20Z</time></trkpt><trkpt lat="45.943359335591595" lon="13.881969222138093"><ele>910.0</ele><time>2026-05-05T12:14:21Z</time></trkpt><trkpt lat="45.943316351888775" lon="13.881793704465279"><ele>909.5</ele><time>2026-05-05T12:14:22Z</time></trkpt><trkpt lat="45.94332584177648" lon="13.88161067000023"><ele>909.0</ele><time>2026-05-05T12:14:23Z</time></trkpt><trkpt lat="45.9433314435465" lon="13.881426711415136"><ele>908.25</ele><time>2026-05-05T12:14:24Z</time></trkpt><trkpt lat="45.94332437586671" lon="13.881233122675779"><ele>907.5</ele><time>2026-05-05T12:14:25Z</time></trkpt><trkpt lat="45.94333756008116" lon="13.881060400842285"><ele>906.75</ele><time>2026-05-05T12:14:26Z</time></trkpt><trkpt lat="45.94335707442702" lon="13.880915227913391"><ele>906.0</ele><time>2026-05-05T12:14:27Z</time></trkpt><trkpt lat="45.943410442630906" lon="13.880786802380191"><ele>905.0</ele><time>2026-05-05T12:14:28Z</time></trkpt><trkpt lat="45.94349025855718" lon="13.880703308426824"><ele>903.9999999999999</ele><time>2026-05-05T12:14:29Z</time></trkpt><trkpt lat="45.943572478070394" lon="13.880669566309603"><ele>902.9999999999999</ele><time>2026-05-05T12:14:30Z</time></trkpt><trkpt lat="45.94365820374462" lon="13.88064669774596"><ele>902.0</ele><time>2026-05-05T12:14:31Z</time></trkpt><trkpt lat="45.94375037690081" lon="13.880596659190417"><ele>901.0</ele><time>2026-05-05T12:14:32Z</time></trkpt><trkpt lat="45.94385257793709" lon="13.88051506275794"><ele>901.0</ele><time>2026-05-05T12:14:33Z</time></trkpt><trkpt lat="45.943961067108816" lon="13.880417368005455"><ele>901.0</ele><time>2026-05-05T12:14:34Z</time></trkpt><trkpt lat="45.94407707379318" lon="13.88030291141222"><ele>901.0</ele><time>2026-05-05T12:14:35Z</time></trkpt><trkpt lat="45.94418318394218" lon="13.880162360382446"><ele>901.0</ele><time>2026-05-05T12:14:36Z</time></trkpt><trkpt lat="45.94428238219293" lon="13.87998688403"><ele>898.6666666666666</ele><time>2026-05-05T12:14:37Z</time></trkpt><trkpt lat="45.94436931669358" lon="13.879784738455092"><ele>896.3333333333333</ele><time>2026-05-05T12:14:38Z</time></trkpt><trkpt lat="45.944467578568116" lon="13.87959796340059"><ele>894.0</ele><time>2026-05-05T12:14:39Z</time></trkpt><trkpt lat="45.94456845009281" lon="13.879427769056203"><ele>895.0</ele><time>2026-05-05T12:14:40Z</time></trkpt><trkpt lat="45.94464464266717" lon="13.879260873681021"><ele>896.0</ele><time>2026-05-05T12:14:41Z</time></trkpt><trkpt lat="45.944683139055925" lon="13.879093176511523"><ele>897.0</ele><time>2026-05-05T12:14:42Z</time></trkpt><trkpt lat="45.944695712267645" lon="13.878919900356088"><ele>898.0</ele><time>2026-05-05T12:14:43Z</time></trkpt><trkpt lat="45.94470010724497" lon="13.878728120800035"><ele>898.0</ele><time>2026-05-05T12:14:44Z</time></trkpt><trkpt lat="45.944713328656455" lon="13.878502912375183"><ele>898.0</ele><time>2026-05-05T12:14:45Z</time></trkpt><trkpt lat="45.944701075975146" lon="13.878262571481818"><ele>898.0</ele><time>2026-05-05T12:14:46Z</time></trkpt><trkpt lat="45.94468623830652" lon="13.878008602091366"><ele>898.3333333333333</ele><time>2026-05-05T12:14:47Z</time></trkpt><trkpt lat="45.94467255695556" lon="13.877765024208575"><ele>898.6666666666667</ele><time>2026-05-05T12:14:48Z</time></trkpt><trkpt lat="45.94465624513129" lon="13.877538382776814"><ele>899.0</ele><time>2026-05-05T12:14:49Z</time></trkpt><trkpt lat="45.944641557756974" lon="13.877335077237126"><ele>898.25</ele><time>2026-05-05T12:14:50Z</time></trkpt><trkpt lat="45.9446223234791" lon="13.87714383106369"><ele>897.5</ele><time>2026-05-05T12:14:51Z</time></trkpt><trkpt lat="45.94460105930695" lon="13.876959262741982"><ele>896.75</ele><time>2026-05-05T12:14:52Z</time></trkpt><trkpt lat="45.94453090327165" lon="13.876799844540985"><ele>896.0</ele><time>2026-05-05T12:14:53Z</time></trkpt><trkpt lat="45.944434654426104" lon="13.876670179167212"><ele>896.0</ele><time>2026-05-05T12:14:54Z</time></trkpt><trkpt lat="45.94429269716" lon="13.876606594443214"><ele>896.0</ele><time>2026-05-05T12:14:55Z</time></trkpt><trkpt lat="45.94417344642665" lon="13.876531648339933"><ele>896.0</ele><time>2026-05-05T12:14:56Z</time></trkpt><trkpt lat="45.944068764151176" lon="13.876463393149695"><ele>896.0</ele><time>2026-05-05T12:14:57Z</time></trkpt><trkpt lat="45.94396743842761" lon="13.876400819834007"><ele>895.5000000000001</ele><time>2026-05-05T12:14:58Z</time></trkpt><trkpt lat="45.943880299659" lon="13.876334891961246"><ele>895.0</ele><time>2026-05-05T12:14:59Z</time></trkpt><trkpt lat="45.94382812283127" lon="13.876251055856839"><ele>894.5</ele><time>2026-05-05T12:15:00Z</time></trkpt><trkpt lat="45.943824657051785" lon="13.876143434761367"><ele>894.0</ele><time>2026-05-05T12:15:01Z</time></trkpt><trkpt lat="45.94387054202528" lon="13.876022887622486"><ele>893.5000000000001</ele><time>2026-05-05T12:15:02Z</time></trkpt><trkpt lat="45.94390190559817" lon="13.875884208581086"><ele>893.0</ele><time>2026-05-05T12:15:03Z</time></trkpt><trkpt lat="45.943955725289584" lon="13.875731699248881"><ele>893.0</ele><time>2026-05-05T12:15:04Z</time></trkpt><trkpt lat="45.944007876256904" lon="13.87554785886766"><ele>893.0</ele><time>2026-05-05T12:15:05Z</time></trkpt><trkpt lat="45.94404168360638" lon="13.875345491568208"><ele>893.0</ele><time>2026-05-05T12:15:06Z</time></trkpt><trkpt lat="45.94408165957583" lon="13.875176191974349"><ele>893.0</ele><time>2026-05-05T12:15:07Z</time></trkpt><trkpt lat="45.94416488135713" lon="13.874982602897552"><ele>894.6666666666667</ele><time>2026-05-05T12:15:08Z</time></trkpt><trkpt lat="45.94427120168401" lon="13.874810946999702"><ele>896.3333333333333</ele><time>2026-05-05T12:15:09Z</time></trkpt><trkpt lat="45.94437837735227" lon="13.874645108335235"><ele>898.0</ele><time>2026-05-05T12:15:10Z</time></trkpt><trkpt lat="45.94449121454672" lon="13.874482172856418"><ele>898.0</ele><time>2026-05-05T12:15:11Z</time></trkpt><trkpt lat="45.94459101963576" lon="13.874329471147114"><ele>898.0</ele><time>2026-05-05T12:15:12Z</time></trkpt><trkpt lat="45.944690358017915" lon="13.874196324195868"><ele>898.0</ele><time>2026-05-05T12:15:13Z</time></trkpt><trkpt lat="45.94477179858697" lon="13.874071351146739"><ele>898.0</ele><time>2026-05-05T12:15:14Z</time></trkpt><trkpt lat="45.94482404788708" lon="13.873918627468347"><ele>896.8</ele><time>2026-05-05T12:15:15Z</time></trkpt><trkpt lat="45.94483700825557" lon="13.873764346201316"><ele>895.5999999999999</ele><time>2026-05-05T12:15:16Z</time></trkpt><trkpt lat="45.94483622701419" lon="13.873609103834882"><ele>894.4000000000001</ele><time>2026-05-05T12:15:17Z</time></trkpt><trkpt lat="45.9448580111035" lon="13.873480214993679"><ele>893.2</ele><time>2026-05-05T12:15:18Z</time></trkpt><trkpt lat="45.9448619916281" lon="13.873360437799164"><ele>892.0</ele><time>2026-05-05T12:15:19Z</time></trkpt><trkpt lat="45.944916994274394" lon="13.873249435952603"><ele>891.4000000000001</ele><time>2026-05-05T12:15:20Z</time></trkpt><trkpt lat="45.944978802128226" lon="13.87314931249602"><ele>890.8000000000001</ele><time>2026-05-05T12:15:21Z</time></trkpt><trkpt lat="45.94507021490171" lon="13.873081936054309"><ele>890.2</ele><time>2026-05-05T12:15:22Z</time></trkpt><trkpt lat="45.945162928506825" lon="13.873040962964186"><ele>889.6</ele><time>2026-05-05T12:15:23Z</time></trkpt><trkpt lat="45.94525523373599" lon="13.872999354577345"><ele>889.0</ele><time>2026-05-05T12:15:24Z</time></trkpt><trkpt lat="45.945353952522034" lon="13.87295924374366"><ele>890.5</ele><time>2026-05-05T12:15:25Z</time></trkpt><trkpt lat="45.94545947751875" lon="13.872895340211766"><ele>892.0</ele><time>2026-05-05T12:15:26Z</time></trkpt><trkpt lat="45.94557509669439" lon="13.872862691320798"><ele>893.5</ele><time>2026-05-05T12:15:27Z</time></trkpt><trkpt lat="45.945684284105006" lon="13.872825789316106"><ele>895.0</ele><time>2026-05-05T12:15:28Z</time></trkpt><trkpt lat="45.94582439932894" lon="13.872764658768507"><ele>893.75</ele><time>2026-05-05T12:15:29Z</time></trkpt><trkpt lat="45.9459153435162" lon="13.872668451729682"><ele>892.5</ele><time>2026-05-05T12:15:30Z</time></trkpt><trkpt lat="45.946002389707694" lon="13.872554626306256"><ele>891.25</ele><time>2026-05-05T12:15:31Z</time></trkpt><trkpt lat="45.94608908021913" lon="13.87244719559048"><ele>890.0</ele><time>2026-05-05T12:15:32Z</time></trkpt><trkpt lat="45.946104692105585" lon="13.872265927758171"><ele>890.0</ele><time>2026-05-05T12:15:33Z</time></trkpt><trkpt lat="45.946117809225186" lon="13.872101872366837"><ele>890.0</ele><time>2026-05-05T12:15:34Z</time></trkpt><trkpt lat="45.94613146711837" lon="13.871958621538603"><ele>890.0</ele><time>2026-05-05T12:15:35Z</time></trkpt><trkpt lat="45.946149628986504" lon="13.871822462817871"><ele>890.0</ele><time>2026-05-05T12:15:36Z</time></trkpt><trkpt lat="45.94615736172349" lon="13.871692366845092"><ele>890.0</ele><time>2026-05-05T12:15:37Z</time></trkpt><trkpt lat="45.94619856639878" lon="13.871566365887393"><ele>891.4</ele><time>2026-05-05T12:15:38Z</time></trkpt><trkpt lat="45.94624063161302" lon="13.871430840148474"><ele>892.8</ele><time>2026-05-05T12:15:39Z</time></trkpt><trkpt lat="45.94631107460752" lon="13.871313834751069"><ele>894.2</ele><time>2026-05-05T12:15:40Z</time></trkpt><trkpt lat="45.94638374795949" lon="13.871199968359408"><ele>895.6</ele><time>2026-05-05T12:15:41Z</time></trkpt><trkpt lat="45.94645267171552" lon="13.871064407617766"><ele>897.0</ele><time>2026-05-05T12:15:42Z</time></trkpt><trkpt lat="45.94654155002365" lon="13.870983394950867"><ele>898.3333333333334</ele><time>2026-05-05T12:15:43Z</time></trkpt><trkpt lat="45.94662359771398" lon="13.870895240757699"><ele>899.6666666666667</ele><time>2026-05-05T12:15:44Z</time></trkpt><trkpt lat="45.94668866622748" lon="13.870798782534488"><ele>901.0</ele><time>2026-05-05T12:15:45Z</time></trkpt><trkpt lat="45.94672674468485" lon="13.87068538056543"><ele>902.3333333333334</ele><time>2026-05-05T12:15:46Z</time></trkpt><trkpt lat="45.94676587835843" lon="13.870600509383712"><ele>903.6666666666667</ele><time>2026-05-05T12:15:47Z</time></trkpt><trkpt lat="45.946790816053934" lon="13.870512901236381"><ele>905.0</ele><time>2026-05-05T12:15:48Z</time></trkpt><trkpt lat="45.94680586661005" lon="13.87037214937903"><ele>905.0</ele><time>2026-05-05T12:15:50Z</time></trkpt><trkpt lat="45.94679658997346" lon="13.87027714037164"><ele>905.0</ele><time>2026-05-05T12:15:53Z</time></trkpt><trkpt lat="45.94675292799202" lon="13.87019274821158"><ele>905.0</ele><time>2026-05-05T12:17:02Z</time></trkpt><trkpt lat="45.94668755814973" lon="13.87011964582282"><ele>905.0</ele><time>2026-05-05T12:17:06Z</time></trkpt><trkpt lat="45.946485164566795" lon="13.87021513167014"><ele>905.0</ele><time>2026-05-05T12:17:08Z</time></trkpt><trkpt lat="45.94641156150293" lon="13.870289511283275"><ele>901.6</ele><time>2026-05-05T12:17:09Z</time></trkpt><trkpt lat="45.94634380705059" lon="13.870349036723711"><ele>898.2</ele><time>2026-05-05T12:17:10Z</time></trkpt><trkpt lat="45.94627837574367" lon="13.870393882795241"><ele>894.8</ele><time>2026-05-05T12:17:11Z</time></trkpt><trkpt lat="45.94618695931356" lon="13.870450169518461"><ele>891.4</ele><time>2026-05-05T12:17:12Z</time></trkpt><trkpt lat="45.94608574487191" lon="13.870522984629465"><ele>888.0</ele><time>2026-05-05T12:17:13Z</time></trkpt><trkpt lat="45.945955517772205" lon="13.8705778951109"><ele>888.0</ele><time>2026-05-05T12:17:14Z</time></trkpt><trkpt lat="45.94585453817403" lon="13.87063633159706"><ele>888.0</ele><time>2026-05-05T12:17:15Z</time></trkpt><trkpt lat="45.94572005545969" lon="13.870715248495252"><ele>888.0</ele><time>2026-05-05T12:17:16Z</time></trkpt><trkpt lat="45.9456048069073" lon="13.870820204514843"><ele>888.0</ele><time>2026-05-05T12:17:17Z</time></trkpt><trkpt lat="45.94546823548851" lon="13.870951985877976"><ele>884.6666666666667</ele><time>2026-05-05T12:17:18Z</time></trkpt><trkpt lat="45.94530372952651" lon="13.871135430656087"><ele>881.3333333333334</ele><time>2026-05-05T12:17:19Z</time></trkpt><trkpt lat="45.94520570786196" lon="13.871280600525257"><ele>878.0</ele><time>2026-05-05T12:17:20Z</time></trkpt><trkpt lat="45.94508840501292" lon="13.87141427613575"><ele>878.25</ele><time>2026-05-05T12:17:21Z</time></trkpt><trkpt lat="45.94497433385231" lon="13.871537683528572"><ele>878.5</ele><time>2026-05-05T12:17:22Z</time></trkpt><trkpt lat="45.944867634743495" lon="13.871663193073745"><ele>878.75</ele><time>2026-05-05T12:17:23Z</time></trkpt><trkpt lat="45.94476535506696" lon="13.871787327745"><ele>879.0</ele><time>2026-05-05T12:17:24Z</time></trkpt><trkpt lat="45.94464956707589" lon="13.87191197487806"><ele>879.0</ele><time>2026-05-05T12:17:25Z</time></trkpt><trkpt lat="45.94452486186207" lon="13.872007730769598"><ele>879.0</ele><time>2026-05-05T12:17:26Z</time></trkpt><trkpt lat="45.944403899339534" lon="13.872078886201002"><ele>879.0</ele><time>2026-05-05T12:17:27Z</time></trkpt><trkpt lat="45.94428173921992" lon="13.872147677691968"><ele>879.0</ele><time>2026-05-05T12:17:28Z</time></trkpt><trkpt lat="45.944159222685464" lon="13.872218168535774"><ele>875.4000000000001</ele><time>2026-05-05T12:17:29Z</time></trkpt><trkpt lat="45.944049677485744" lon="13.872276774492441"><ele>871.8000000000001</ele><time>2026-05-05T12:17:30Z</time></trkpt><trkpt lat="45.94395346968392" lon="13.87231835148636"><ele>868.1999999999999</ele><time>2026-05-05T12:17:31Z</time></trkpt><trkpt lat="45.94386853824106" lon="13.872343507971893"><ele>864.5999999999999</ele><time>2026-05-05T12:17:32Z</time></trkpt><trkpt lat="45.9437819488058" lon="13.8723538400067"><ele>861.0</ele><time>2026-05-05T12:17:33Z</time></trkpt><trkpt lat="45.94370822579834" lon="13.87234462100285"><ele>861.0</ele><time>2026-05-05T12:17:34Z</time></trkpt><trkpt lat="45.94360948659402" lon="13.872263510939982"><ele>860.9999999999999</ele><time>2026-05-05T12:17:36Z</time></trkpt><trkpt lat="45.94359563274215" lon="13.872102468376351"><ele>860.9999999999999</ele><time>2026-05-05T12:17:38Z</time></trkpt><trkpt lat="45.94357745786558" lon="13.871966639989704"><ele>861.0</ele><time>2026-05-05T12:17:39Z</time></trkpt><trkpt lat="45.9435707062046" lon="13.871823521505135"><ele>861.0</ele><time>2026-05-05T12:17:40Z</time></trkpt><trkpt lat="45.94357287684673" lon="13.871672100122584"><ele>864.25</ele><time>2026-05-05T12:17:41Z</time></trkpt><trkpt lat="45.943549706039576" lon="13.871491205822174"><ele>867.5</ele><time>2026-05-05T12:17:42Z</time></trkpt><trkpt lat="45.943496623854536" lon="13.871335636407613"><ele>870.75</ele><time>2026-05-05T12:17:43Z</time></trkpt><trkpt lat="45.94342657241817" lon="13.871187130184024"><ele>874.0</ele><time>2026-05-05T12:17:44Z</time></trkpt><trkpt lat="45.943358367632584" lon="13.871051594311183"><ele>869.0</ele><time>2026-05-05T12:17:45Z</time></trkpt><trkpt lat="45.94326079075102" lon="13.870946029146912"><ele>864.0000000000001</ele><time>2026-05-05T12:17:46Z</time></trkpt><trkpt lat="45.943183535057024" lon="13.87083437975444"><ele>859.0</ele><time>2026-05-05T12:17:47Z</time></trkpt><trkpt lat="45.943110761919634" lon="13.870751284409648"><ele>854.0</ele><time>2026-05-05T12:17:48Z</time></trkpt><trkpt lat="45.94303452489997" lon="13.870721139259214"><ele>849.0</ele><time>2026-05-05T12:17:49Z</time></trkpt><trkpt lat="45.942950185232036" lon="13.8707592533901"><ele>849.0</ele><time>2026-05-05T12:17:50Z</time></trkpt><trkpt lat="45.942885979618566" lon="13.870832194503794"><ele>849.0</ele><time>2026-05-05T12:17:51Z</time></trkpt><trkpt lat="45.942833048928875" lon="13.87091296373443"><ele>849.0</ele><time>2026-05-05T12:17:52Z</time></trkpt><trkpt lat="45.9427613637996" lon="13.870921808747681"><ele>849.0</ele><time>2026-05-05T12:17:53Z</time></trkpt><trkpt lat="45.9426996698786" lon="13.870880469501923"><ele>849.0</ele><time>2026-05-05T12:17:54Z</time></trkpt><trkpt lat="45.94267896264963" lon="13.870771475298802"><ele>849.0</ele><time>2026-05-05T12:17:55Z</time></trkpt><trkpt lat="45.942633514470096" lon="13.870658156573956"><ele>849.0</ele><time>2026-05-05T12:17:56Z</time></trkpt><trkpt lat="45.94260065300064" lon="13.870538967270795"><ele>849.0</ele><time>2026-05-05T12:17:57Z</time></trkpt><trkpt lat="45.94257273618665" lon="13.870411019461242"><ele>849.0</ele><time>2026-05-05T12:17:58Z</time></trkpt><trkpt lat="45.94255038245831" lon="13.87027166925831"><ele>849.0</ele><time>2026-05-05T12:17:59Z</time></trkpt><trkpt lat="45.94259518394785" lon="13.870134223659916"><ele>849.0</ele><time>2026-05-05T12:18:00Z</time></trkpt><trkpt lat="45.94257427998008" lon="13.870034876084894"><ele>853.0</ele><time>2026-05-05T12:18:01Z</time></trkpt><trkpt lat="45.94256519287308" lon="13.869941739244169"><ele>857.0</ele><time>2026-05-05T12:18:02Z</time></trkpt><trkpt lat="45.94252240481693" lon="13.869867914772312"><ele>861.0</ele><time>2026-05-05T12:18:03Z</time></trkpt><trkpt lat="45.94244993073733" lon="13.869823291613402"><ele>865.0</ele><time>2026-05-05T12:18:04Z</time></trkpt><trkpt lat="45.94235277623812" lon="13.869872540177516"><ele>869.0</ele><time>2026-05-05T12:18:05Z</time></trkpt><trkpt lat="45.94226390820525" lon="13.869931656655686"><ele>873.0</ele><time>2026-05-05T12:18:06Z</time></trkpt><trkpt lat="45.94217219943789" lon="13.869995396799983"><ele>863.2</ele><time>2026-05-05T12:18:07Z</time></trkpt><trkpt lat="45.94206662598532" lon="13.870015194677821"><ele>853.4</ele><time>2026-05-05T12:18:08Z</time></trkpt><trkpt lat="45.94197351376489" lon="13.870063468710944"><ele>843.6</ele><time>2026-05-05T12:18:09Z</time></trkpt><trkpt lat="45.941884478171126" lon="13.870097762386905"><ele>833.8000000000001</ele><time>2026-05-05T12:18:10Z</time></trkpt><trkpt lat="45.94178799687822" lon="13.870179920224226"><ele>824.0</ele><time>2026-05-05T12:18:11Z</time></trkpt><trkpt lat="45.94168159529338" lon="13.870266182544592"><ele>816.0</ele><time>2026-05-05T12:18:12Z</time></trkpt><trkpt lat="45.94162801006485" lon="13.870381518418027"><ele>808.0</ele><time>2026-05-05T12:18:13Z</time></trkpt><trkpt lat="45.941566129178696" lon="13.870452450769955"><ele>800.0</ele><time>2026-05-05T12:18:14Z</time></trkpt><trkpt lat="45.941490383303" lon="13.870559386655167"><ele>792.0</ele><time>2026-05-05T12:18:16Z</time></trkpt><trkpt lat="45.94137012951001" lon="13.870529099583102"><ele>784.0</ele><time>2026-05-05T12:18:18Z</time></trkpt><trkpt lat="45.941281929346" lon="13.870537037668175"><ele>784.0</ele><time>2026-05-05T12:18:19Z</time></trkpt><trkpt lat="45.94117470334284" lon="13.870526201847028"><ele>784.0</ele><time>2026-05-05T12:18:20Z</time></trkpt><trkpt lat="45.94106710478569" lon="13.870504857962102"><ele>784.0</ele><time>2026-05-05T12:18:21Z</time></trkpt><trkpt lat="45.94096071708407" lon="13.870470664293416"><ele>784.0</ele><time>2026-05-05T12:18:22Z</time></trkpt><trkpt lat="45.94084868059021" lon="13.870459016681526"><ele>784.0</ele><time>2026-05-05T12:18:23Z</time></trkpt><trkpt lat="45.94071564380004" lon="13.870496416477737"><ele>787.75</ele><time>2026-05-05T12:18:24Z</time></trkpt><trkpt lat="45.94058110905103" lon="13.870554494612094"><ele>791.5</ele><time>2026-05-05T12:18:25Z</time></trkpt><trkpt lat="45.940453172697666" lon="13.870589669819015"><ele>795.25</ele><time>2026-05-05T12:18:26Z</time></trkpt><trkpt lat="45.940329205709375" lon="13.870620159824593"><ele>799.0</ele><time>2026-05-05T12:18:27Z</time></trkpt><trkpt lat="45.940207689937914" lon="13.870651242226483"><ele>799.0</ele><time>2026-05-05T12:18:28Z</time></trkpt><trkpt lat="45.940088941275164" lon="13.870654646310541"><ele>799.0</ele><time>2026-05-05T12:18:29Z</time></trkpt><trkpt lat="45.93998783876069" lon="13.870650589649474"><ele>799.0</ele><time>2026-05-05T12:18:30Z</time></trkpt><trkpt lat="45.93990604983671" lon="13.870633489050935"><ele>799.0</ele><time>2026-05-05T12:18:31Z</time></trkpt><trkpt lat="45.939836801779435" lon="13.87058022123376"><ele>799.0</ele><time>2026-05-05T12:18:32Z</time></trkpt><trkpt lat="45.939767791647746" lon="13.870511863775091"><ele>796.8333333333333</ele><time>2026-05-05T12:18:33Z</time></trkpt><trkpt lat="45.93970512454124" lon="13.870439187269858"><ele>794.6666666666666</ele><time>2026-05-05T12:18:34Z</time></trkpt><trkpt lat="45.9396763759524" lon="13.87033567532232"><ele>792.5</ele><time>2026-05-05T12:18:35Z</time></trkpt><trkpt lat="45.93965058180359" lon="13.870243687664665"><ele>790.3333333333333</ele><time>2026-05-05T12:18:36Z</time></trkpt><trkpt lat="45.93961805242249" lon="13.870146652251028"><ele>788.1666666666666</ele><time>2026-05-05T12:18:37Z</time></trkpt><trkpt lat="45.93960487594652" lon="13.870020768399298"><ele>786.0</ele><time>2026-05-05T12:18:38Z</time></trkpt><trkpt lat="45.93956628872433" lon="13.869894496972389"><ele>793.1999999999999</ele><time>2026-05-05T12:18:39Z</time></trkpt><trkpt lat="45.939536878630385" lon="13.869757754158893"><ele>800.4</ele><time>2026-05-05T12:18:40Z</time></trkpt><trkpt lat="45.939515041637044" lon="13.869655449130992"><ele>807.6</ele><time>2026-05-05T12:18:41Z</time></trkpt><trkpt lat="45.93948289539777" lon="13.869489049085361"><ele>814.8</ele><time>2026-05-05T12:18:42Z</time></trkpt><trkpt lat="45.93946284449803" lon="13.869349248500805"><ele>822.0</ele><time>2026-05-05T12:18:43Z</time></trkpt><trkpt lat="45.93943276195809" lon="13.869208186443426"><ele>825.1666666666666</ele><time>2026-05-05T12:18:44Z</time></trkpt><trkpt lat="45.939420592695186" lon="13.869069909243272"><ele>828.3333333333333</ele><time>2026-05-05T12:18:45Z</time></trkpt><trkpt lat="45.93939712097" lon="13.868952612370302"><ele>831.5</ele><time>2026-05-05T12:18:46Z</time></trkpt><trkpt lat="45.93934905262367" lon="13.86886723555492"><ele>834.6666666666666</ele><time>2026-05-05T12:18:47Z</time></trkpt><trkpt lat="45.93927640215766" lon="13.86882618649154"><ele>837.8333333333333</ele><time>2026-05-05T12:18:48Z</time></trkpt><trkpt lat="45.93919251040529" lon="13.868832767921047"><ele>841.0</ele><time>2026-05-05T12:18:49Z</time></trkpt><trkpt lat="45.93911248633664" lon="13.868882871811675"><ele>829.8</ele><time>2026-05-05T12:18:50Z</time></trkpt><trkpt lat="45.93903960825912" lon="13.86897458013597"><ele>818.5999999999999</ele><time>2026-05-05T12:18:51Z</time></trkpt><trkpt lat="45.93896460248601" lon="13.869073856647924"><ele>807.4</ele><time>2026-05-05T12:18:52Z</time></trkpt><trkpt lat="45.93889056983276" lon="13.86916122527814"><ele>796.2</ele><time>2026-05-05T12:18:53Z</time></trkpt><trkpt lat="45.938807979207056" lon="13.869241570504839"><ele>785.0</ele><time>2026-05-05T12:18:54Z</time></trkpt><trkpt lat="45.938705086763036" lon="13.869276309961975"><ele>785.0</ele><time>2026-05-05T12:18:55Z</time></trkpt><trkpt lat="45.93861835535338" lon="13.869295349676701"><ele>785.0</ele><time>2026-05-05T12:18:56Z</time></trkpt><trkpt lat="45.93852645798677" lon="13.869245272255663"><ele>785.0</ele><time>2026-05-05T12:18:57Z</time></trkpt><trkpt lat="45.93841256331482" lon="13.869224591779664"><ele>785.0</ele><time>2026-05-05T12:18:58Z</time></trkpt><trkpt lat="45.93828493383621" lon="13.869190640588258"><ele>785.0</ele><time>2026-05-05T12:18:59Z</time></trkpt><trkpt lat="45.93816130448339" lon="13.86915476541976"><ele>782.5</ele><time>2026-05-05T12:19:00Z</time></trkpt><trkpt lat="45.938038020240356" lon="13.869110955557439"><ele>780.0</ele><time>2026-05-05T12:19:01Z</time></trkpt><trkpt lat="45.93792011098755" lon="13.869100853995779"><ele>777.5</ele><time>2026-05-05T12:19:02Z</time></trkpt><trkpt lat="45.93779716127661" lon="13.869136425791115"><ele>775.0</ele><time>2026-05-05T12:19:03Z</time></trkpt><trkpt lat="45.9376954621677" lon="13.869235444666684"><ele>771.75</ele><time>2026-05-05T12:19:04Z</time></trkpt><trkpt lat="45.93756562090492" lon="13.869335133821746"><ele>768.5</ele><time>2026-05-05T12:19:05Z</time></trkpt><trkpt lat="45.9374571748497" lon="13.869449000369782"><ele>765.25</ele><time>2026-05-05T12:19:06Z</time></trkpt><trkpt lat="45.937341252143725" lon="13.869555003254257"><ele>762.0</ele><time>2026-05-05T12:19:07Z</time></trkpt><trkpt lat="45.937227104105965" lon="13.869619233086713"><ele>762.0</ele><time>2026-05-05T12:19:08Z</time></trkpt><trkpt lat="45.9370984745927" lon="13.869619320876406"><ele>762.0</ele><time>2026-05-05T12:19:09Z</time></trkpt><trkpt lat="45.93697007187029" lon="13.869636013021156"><ele>762.0</ele><time>2026-05-05T12:19:10Z</time></trkpt><trkpt lat="45.936841924054406" lon="13.869614251913053"><ele>762.0</ele><time>2026-05-05T12:19:11Z</time></trkpt><trkpt lat="45.93671682884645" lon="13.869637618556542"><ele>759.25</ele><time>2026-05-05T12:19:12Z</time></trkpt><trkpt lat="45.93658452273962" lon="13.869655024911703"><ele>756.5</ele><time>2026-05-05T12:19:13Z</time></trkpt><trkpt lat="45.9364546013755" lon="13.869709820035219"><ele>753.75</ele><time>2026-05-05T12:19:14Z</time></trkpt><trkpt lat="45.93632755489155" lon="13.869816257671065"><ele>751.0</ele><time>2026-05-05T12:19:15Z</time></trkpt><trkpt lat="45.936196810874684" lon="13.869940073960732"><ele>751.0</ele><time>2026-05-05T12:19:16Z</time></trkpt><trkpt lat="45.93605733429469" lon="13.870055309587544"><ele>751.0</ele><time>2026-05-05T12:19:17Z</time></trkpt><trkpt lat="45.93589797416191" lon="13.870163939835459"><ele>751.0</ele><time>2026-05-05T12:19:18Z</time></trkpt><trkpt lat="45.935736481306016" lon="13.870216667515328"><ele>745.6666666666667</ele><time>2026-05-05T12:19:19Z</time></trkpt><trkpt lat="45.93557455443756" lon="13.87026735582917"><ele>740.3333333333334</ele><time>2026-05-05T12:19:20Z</time></trkpt><trkpt lat="45.93541630851877" lon="13.870310024032566"><ele>735.0</ele><time>2026-05-05T12:19:21Z</time></trkpt><trkpt lat="45.93527606688216" lon="13.870367045236895"><ele>735.0</ele><time>2026-05-05T12:19:22Z</time></trkpt><trkpt lat="45.93513790369443" lon="13.870389051822482"><ele>735.0</ele><time>2026-05-05T12:19:23Z</time></trkpt><trkpt lat="45.93499029765527" lon="13.870422971480007"><ele>735.0</ele><time>2026-05-05T12:19:24Z</time></trkpt><trkpt lat="45.93485036288541" lon="13.870437023983632"><ele>735.0</ele><time>2026-05-05T12:19:25Z</time></trkpt><trkpt lat="45.93471197642417" lon="13.870433804513686"><ele>732.25</ele><time>2026-05-05T12:19:26Z</time></trkpt><trkpt lat="45.93457710632028" lon="13.87040964131806"><ele>729.5</ele><time>2026-05-05T12:19:27Z</time></trkpt><trkpt lat="45.93444066310334" lon="13.870380269299048"><ele>726.75</ele><time>2026-05-05T12:19:28Z</time></trkpt><trkpt lat="45.93430314236432" lon="13.870383369131282"><ele>724.0</ele><time>2026-05-05T12:19:29Z</time></trkpt><trkpt lat="45.93416688067606" lon="13.870424833272915"><ele>723.0</ele><time>2026-05-05T12:19:30Z</time></trkpt><trkpt lat="45.934035430112395" lon="13.870495400051269"><ele>722.0</ele><time>2026-05-05T12:19:31Z</time></trkpt><trkpt lat="45.933924872314776" lon="13.870614135882812"><ele>721.0</ele><time>2026-05-05T12:19:32Z</time></trkpt><trkpt lat="45.93382737828367" lon="13.87075913814231"><ele>720.0</ele><time>2026-05-05T12:19:33Z</time></trkpt><trkpt lat="45.933715485885386" lon="13.870918455095333"><ele>715.0</ele><time>2026-05-05T12:19:34Z</time></trkpt><trkpt lat="45.93360398186007" lon="13.871089248192034"><ele>710.0</ele><time>2026-05-05T12:19:35Z</time></trkpt><trkpt lat="45.93349782965036" lon="13.871252754218006"><ele>705.0</ele><time>2026-05-05T12:19:36Z</time></trkpt><trkpt lat="45.9334008543375" lon="13.871401494281091"><ele>707.25</ele><time>2026-05-05T12:19:37Z</time></trkpt><trkpt lat="45.93329637103204" lon="13.871535125434319"><ele>709.5</ele><time>2026-05-05T12:19:38Z</time></trkpt><trkpt lat="45.93321054232501" lon="13.871668178835394"><ele>711.75</ele><time>2026-05-05T12:19:39Z</time></trkpt><trkpt lat="45.93312799706709" lon="13.871784095463864"><ele>714.0</ele><time>2026-05-05T12:19:40Z</time></trkpt><trkpt lat="45.93305372492737" lon="13.871872197812628"><ele>714.0</ele><time>2026-05-05T12:19:41Z</time></trkpt><trkpt lat="45.93297782964361" lon="13.87193250849413"><ele>714.0</ele><time>2026-05-05T12:19:42Z</time></trkpt><trkpt lat="45.93289843415305" lon="13.87194742992135"><ele>714.0</ele><time>2026-05-05T12:19:43Z</time></trkpt><trkpt lat="45.93280837359708" lon="13.871925882888512"><ele>714.0</ele><time>2026-05-05T12:19:44Z</time></trkpt><trkpt lat="45.93270148593167" lon="13.871867886721526"><ele>714.0</ele><time>2026-05-05T12:19:45Z</time></trkpt><trkpt lat="45.93259142522938" lon="13.87179309640923"><ele>712.0</ele><time>2026-05-05T12:19:46Z</time></trkpt><trkpt lat="45.932465000533625" lon="13.87169955594572"><ele>710.0</ele><time>2026-05-05T12:19:47Z</time></trkpt><trkpt lat="45.93230600097064" lon="13.871647212171947"><ele>708.0</ele><time>2026-05-05T12:19:48Z</time></trkpt><trkpt lat="45.932141380641184" lon="13.871581873241576"><ele>708.0</ele><time>2026-05-05T12:19:49Z</time></trkpt><trkpt lat="45.93195509674233" lon="13.871566355288822"><ele>708.0</ele><time>2026-05-05T12:19:50Z</time></trkpt><trkpt lat="45.931770521981846" lon="13.871585621019143"><ele>708.0</ele><time>2026-05-05T12:19:51Z</time></trkpt><trkpt lat="45.93161106174022" lon="13.871606100312354"><ele>703.6666666666666</ele><time>2026-05-05T12:19:52Z</time></trkpt><trkpt lat="45.931453427059616" lon="13.871566463786314"><ele>699.3333333333333</ele><time>2026-05-05T12:19:53Z</time></trkpt><trkpt lat="45.93129803038576" lon="13.871495117968356"><ele>695.0</ele><time>2026-05-05T12:19:54Z</time></trkpt><trkpt lat="45.93116428138353" lon="13.871335203166863"><ele>695.0</ele><time>2026-05-05T12:19:55Z</time></trkpt><trkpt lat="45.93100685125602" lon="13.871247257254012"><ele>695.0</ele><time>2026-05-05T12:19:56Z</time></trkpt><trkpt lat="45.93084396973228" lon="13.871201277984005"><ele>695.0</ele><time>2026-05-05T12:19:57Z</time></trkpt><trkpt lat="45.93068869957555" lon="13.871110703487984"><ele>694.3333333333333</ele><time>2026-05-05T12:19:58Z</time></trkpt><trkpt lat="45.9305489030082" lon="13.8709875895294"><ele>693.6666666666666</ele><time>2026-05-05T12:19:59Z</time></trkpt><trkpt lat="45.930410175388154" lon="13.870876771442886"><ele>693.0</ele><time>2026-05-05T12:20:00Z</time></trkpt><trkpt lat="45.93025754606462" lon="13.870797220469127"><ele>693.0</ele><time>2026-05-05T12:20:01Z</time></trkpt><trkpt lat="45.930106648426005" lon="13.870756467305027"><ele>693.0</ele><time>2026-05-05T12:20:02Z</time></trkpt><trkpt lat="45.92995411339308" lon="13.8707149637104"><ele>693.0</ele><time>2026-05-05T12:20:03Z</time></trkpt><trkpt lat="45.92980863877743" lon="13.87067986599598"><ele>688.3333333333334</ele><time>2026-05-05T12:20:04Z</time></trkpt><trkpt lat="45.92966510778476" lon="13.87066239259282"><ele>683.6666666666667</ele><time>2026-05-05T12:20:05Z</time></trkpt><trkpt lat="45.929514017441974" lon="13.870629787481578"><ele>679.0</ele><time>2026-05-05T12:20:06Z</time></trkpt><trkpt lat="45.92935686577388" lon="13.870611514055295"><ele>676.5</ele><time>2026-05-05T12:20:07Z</time></trkpt><trkpt lat="45.9292105702261" lon="13.870588524918881"><ele>674.0</ele><time>2026-05-05T12:20:08Z</time></trkpt><trkpt lat="45.92906620941994" lon="13.87058290976214"><ele>671.5</ele><time>2026-05-05T12:20:09Z</time></trkpt><trkpt lat="45.92893896249478" lon="13.870596924528186"><ele>669.0</ele><time>2026-05-05T12:20:10Z</time></trkpt><trkpt lat="45.928821674797675" lon="13.87063748269422"><ele>669.0</ele><time>2026-05-05T12:20:11Z</time></trkpt><trkpt lat="45.92870465964668" lon="13.870732034807208"><ele>669.0</ele><time>2026-05-05T12:20:12Z</time></trkpt><trkpt lat="45.92860536825866" lon="13.870845093215033"><ele>669.0</ele><time>2026-05-05T12:20:13Z</time></trkpt><trkpt lat="45.92851145013759" lon="13.87098984159268"><ele>669.0</ele><time>2026-05-05T12:20:14Z</time></trkpt><trkpt lat="45.92841741217517" lon="13.871143613011277"><ele>663.75</ele><time>2026-05-05T12:20:15Z</time></trkpt><trkpt lat="45.928319323890456" lon="13.871287410896473"><ele>658.5</ele><time>2026-05-05T12:20:16Z</time></trkpt><trkpt lat="45.92821982865209" lon="13.871411598526565"><ele>653.25</ele><time>2026-05-05T12:20:17Z</time></trkpt><trkpt lat="45.9281018218469" lon="13.871482802998765"><ele>648.0</ele><time>2026-05-05T12:20:18Z</time></trkpt><trkpt lat="45.92797206350301" lon="13.871543524076001"><ele>648.0</ele><time>2026-05-05T12:20:19Z</time></trkpt><trkpt lat="45.927839404143924" lon="13.871592785641845"><ele>648.0</ele><time>2026-05-05T12:20:20Z</time></trkpt><trkpt lat="45.92770825921791" lon="13.871626699026399"><ele>648.0</ele><time>2026-05-05T12:20:21Z</time></trkpt><trkpt lat="45.92758578348882" lon="13.87165685260708"><ele>648.0</ele><time>2026-05-05T12:20:22Z</time></trkpt><trkpt lat="45.927473416619264" lon="13.871703836702128"><ele>648.5</ele><time>2026-05-05T12:20:23Z</time></trkpt><trkpt lat="45.92738070726043" lon="13.871744784793936"><ele>649.0</ele><time>2026-05-05T12:20:24Z</time></trkpt><trkpt lat="45.92730767288049" lon="13.871828048704268"><ele>649.5</ele><time>2026-05-05T12:20:25Z</time></trkpt><trkpt lat="45.92726972672902" lon="13.87192104767472"><ele>650.0</ele><time>2026-05-05T12:20:26Z</time></trkpt><trkpt lat="45.92726510586546" lon="13.872029410315893"><ele>650.5</ele><time>2026-05-05T12:20:27Z</time></trkpt><trkpt lat="45.92728958350998" lon="13.872132842064625"><ele>651.0</ele><time>2026-05-05T12:20:28Z</time></trkpt><trkpt lat="45.92732940722973" lon="13.87222115896387"><ele>648.0</ele><time>2026-05-05T12:20:29Z</time></trkpt><trkpt lat="45.92742436272555" lon="13.872272482901906"><ele>645.0</ele><time>2026-05-05T12:20:30Z</time></trkpt><trkpt lat="45.92753400950139" lon="13.872257728608483"><ele>642.0</ele><time>2026-05-05T12:20:31Z</time></trkpt><trkpt lat="45.92765401009189" lon="13.872261002131474"><ele>639.0</ele><time>2026-05-05T12:20:32Z</time></trkpt><trkpt lat="45.92780484246434" lon="13.872258130157084"><ele>636.25</ele><time>2026-05-05T12:20:33Z</time></trkpt><trkpt lat="45.927960665179675" lon="13.872255219309382"><ele>633.5</ele><time>2026-05-05T12:20:34Z</time></trkpt><trkpt lat="45.92810275470744" lon="13.872230743942293"><ele>630.75</ele><time>2026-05-05T12:20:35Z</time></trkpt><trkpt lat="45.928242533468534" lon="13.872231122694414"><ele>628.0</ele><time>2026-05-05T12:20:36Z</time></trkpt><trkpt lat="45.928376228031176" lon="13.8722592264717"><ele>629.0</ele><time>2026-05-05T12:20:37Z</time></trkpt><trkpt lat="45.92851125073805" lon="13.872268257902123"><ele>630.0</ele><time>2026-05-05T12:20:38Z</time></trkpt><trkpt lat="45.92865303278588" lon="13.8722801019592"><ele>631.0</ele><time>2026-05-05T12:20:39Z</time></trkpt><trkpt lat="45.928792816787144" lon="13.872288792171876"><ele>632.0</ele><time>2026-05-05T12:20:40Z</time></trkpt><trkpt lat="45.92893534577274" lon="13.872361729834783"><ele>632.0</ele><time>2026-05-05T12:20:41Z</time></trkpt><trkpt lat="45.9290738917942" lon="13.872450900812376"><ele>632.0</ele><time>2026-05-05T12:20:42Z</time></trkpt><trkpt lat="45.92920380123364" lon="13.872574706558007"><ele>632.0</ele><time>2026-05-05T12:20:43Z</time></trkpt><trkpt lat="45.929317781975534" lon="13.872712037288405"><ele>630.25</ele><time>2026-05-05T12:20:44Z</time></trkpt><trkpt lat="45.92940576626811" lon="13.872833501447857"><ele>628.5</ele><time>2026-05-05T12:20:45Z</time></trkpt><trkpt lat="45.92947006454195" lon="13.872990508576457"><ele>626.75</ele><time>2026-05-05T12:20:46Z</time></trkpt><trkpt lat="45.92950658081675" lon="13.873164196813361"><ele>625.0</ele><time>2026-05-05T12:20:47Z</time></trkpt><trkpt lat="45.929522414924385" lon="13.873343403987384"><ele>622.75</ele><time>2026-05-05T12:20:48Z</time></trkpt><trkpt lat="45.92952841351855" lon="13.87353406582478"><ele>620.5</ele><time>2026-05-05T12:20:49Z</time></trkpt><trkpt lat="45.92953012793988" lon="13.873749945244063"><ele>618.25</ele><time>2026-05-05T12:20:50Z</time></trkpt><trkpt lat="45.92951712310337" lon="13.873978262029075"><ele>616.0</ele><time>2026-05-05T12:20:51Z</time></trkpt><trkpt lat="45.929489701420735" lon="13.874205588750199"><ele>615.0</ele><time>2026-05-05T12:20:52Z</time></trkpt><trkpt lat="45.92950454956143" lon="13.874440402211581"><ele>614.0</ele><time>2026-05-05T12:20:53Z</time></trkpt><trkpt lat="45.92952259599621" lon="13.87467401484312"><ele>613.0</ele><time>2026-05-05T12:20:54Z</time></trkpt><trkpt lat="45.92955117787044" lon="13.874916950661051"><ele>609.3333333333334</ele><time>2026-05-05T12:20:55Z</time></trkpt><trkpt lat="45.92957787869744" lon="13.875164460786255"><ele>605.6666666666666</ele><time>2026-05-05T12:20:56Z</time></trkpt><trkpt lat="45.9295985711101" lon="13.875416476386627"><ele>602.0</ele><time>2026-05-05T12:20:57Z</time></trkpt><trkpt lat="45.92961627955307" lon="13.875650699788803"><ele>602.0</ele><time>2026-05-05T12:20:58Z</time></trkpt><trkpt lat="45.929612690438034" lon="13.875880759551354"><ele>602.0</ele><time>2026-05-05T12:20:59Z</time></trkpt><trkpt lat="45.929641629766806" lon="13.876085412330127"><ele>602.0</ele><time>2026-05-05T12:21:00Z</time></trkpt><trkpt lat="45.929659773715926" lon="13.876269888555468"><ele>602.0</ele><time>2026-05-05T12:21:01Z</time></trkpt><trkpt lat="45.929693717579966" lon="13.876432130551741"><ele>599.2</ele><time>2026-05-05T12:21:02Z</time></trkpt><trkpt lat="45.92974428749422" lon="13.876577120256396"><ele>596.4000000000001</ele><time>2026-05-05T12:21:03Z</time></trkpt><trkpt lat="45.9298093279211" lon="13.876689217330524"><ele>593.5999999999999</ele><time>2026-05-05T12:21:04Z</time></trkpt><trkpt lat="45.929884389636186" lon="13.876760209792286"><ele>590.8</ele><time>2026-05-05T12:21:05Z</time></trkpt><trkpt lat="45.92997029497593" lon="13.87679650478412"><ele>588.0</ele><time>2026-05-05T12:21:06Z</time></trkpt><trkpt lat="45.93005860424121" lon="13.876819566294111"><ele>580.25</ele><time>2026-05-05T12:21:07Z</time></trkpt><trkpt lat="45.93015723863507" lon="13.876779161203888"><ele>572.5</ele><time>2026-05-05T12:21:08Z</time></trkpt><trkpt lat="45.930262639435135" lon="13.876708556779507"><ele>564.75</ele><time>2026-05-05T12:21:09Z</time></trkpt><trkpt lat="45.930347411387366" lon="13.87659060176566"><ele>557.0</ele><time>2026-05-05T12:21:10Z</time></trkpt><trkpt lat="45.93041888421929" lon="13.876454102201473"><ele>557.0</ele><time>2026-05-05T12:21:11Z</time></trkpt><trkpt lat="45.93049730374382" lon="13.876323880594457"><ele>557.0</ele><time>2026-05-05T12:21:12Z</time></trkpt><trkpt lat="45.93059354540574" lon="13.876205516225923"><ele>557.0</ele><time>2026-05-05T12:21:13Z</time></trkpt><trkpt lat="45.930676441317225" lon="13.876078272494295"><ele>557.0</ele><time>2026-05-05T12:21:14Z</time></trkpt><trkpt lat="45.930764811539525" lon="13.875942625616426"><ele>556.5</ele><time>2026-05-05T12:21:15Z</time></trkpt><trkpt lat="45.930855187891" lon="13.875803899433594"><ele>556.0</ele><time>2026-05-05T12:21:16Z</time></trkpt><trkpt lat="45.93095003270865" lon="13.875661250018005"><ele>555.5</ele><time>2026-05-05T12:21:17Z</time></trkpt><trkpt lat="45.93104099955038" lon="13.8755034209073"><ele>555.0</ele><time>2026-05-05T12:21:18Z</time></trkpt><trkpt lat="45.931151226948835" lon="13.875383177673205"><ele>555.0</ele><time>2026-05-05T12:21:19Z</time></trkpt><trkpt lat="45.93126563140749" lon="13.875262640776132"><ele>555.0</ele><time>2026-05-05T12:21:20Z</time></trkpt><trkpt lat="45.9313887568055" lon="13.875160499354122"><ele>555.0</ele><time>2026-05-05T12:21:21Z</time></trkpt><trkpt lat="45.93152168812162" lon="13.875125373069507"><ele>555.0</ele><time>2026-05-05T12:21:22Z</time></trkpt><trkpt lat="45.93163928812917" lon="13.875116546993372"><ele>557.25</ele><time>2026-05-05T12:21:23Z</time></trkpt><trkpt lat="45.931739354015306" lon="13.875108093632791"><ele>559.5</ele><time>2026-05-05T12:21:24Z</time></trkpt><trkpt lat="45.93184470608979" lon="13.87519719291838"><ele>561.75</ele><time>2026-05-05T12:21:25Z</time></trkpt><trkpt lat="45.93196489076614" lon="13.875284729212522"><ele>564.0</ele><time>2026-05-05T12:21:26Z</time></trkpt><trkpt lat="45.93206503658433" lon="13.875430637480704"><ele>564.0</ele><time>2026-05-05T12:21:27Z</time></trkpt><trkpt lat="45.932187767578085" lon="13.875523053237107"><ele>564.0</ele><time>2026-05-05T12:21:28Z</time></trkpt><trkpt lat="45.93230614157189" lon="13.87560648643612"><ele>564.0</ele><time>2026-05-05T12:21:29Z</time></trkpt><trkpt lat="45.93241597347493" lon="13.875676359447239"><ele>564.0</ele><time>2026-05-05T12:21:30Z</time></trkpt><trkpt lat="45.93250848359923" lon="13.875723810962336"><ele>566.4</ele><time>2026-05-05T12:21:31Z</time></trkpt><trkpt lat="45.93257704633121" lon="13.875827517440875"><ele>568.8</ele><time>2026-05-05T12:21:32Z</time></trkpt><trkpt lat="45.93258140926113" lon="13.875982632298433"><ele>571.2</ele><time>2026-05-05T12:21:33Z</time></trkpt><trkpt lat="45.93261066084577" lon="13.876123858666986"><ele>573.6</ele><time>2026-05-05T12:21:34Z</time></trkpt><trkpt lat="45.932624048136034" lon="13.876282857852635"><ele>576.0</ele><time>2026-05-05T12:21:35Z</time></trkpt><trkpt lat="45.93266557377231" lon="13.876419551249572"><ele>570.0</ele><time>2026-05-05T12:21:36Z</time></trkpt><trkpt lat="45.932737490261886" lon="13.87653509148856"><ele>564.0</ele><time>2026-05-05T12:21:37Z</time></trkpt><trkpt lat="45.932840071888485" lon="13.876617287451223"><ele>558.0</ele><time>2026-05-05T12:21:38Z</time></trkpt><trkpt lat="45.932970382237464" lon="13.87667862847344"><ele>552.0</ele><time>2026-05-05T12:21:39Z</time></trkpt><trkpt lat="45.933106478373176" lon="13.876758081516977"><ele>546.6666666666666</ele><time>2026-05-05T12:21:40Z</time></trkpt><trkpt lat="45.93322595383416" lon="13.876895823045208"><ele>541.3333333333333</ele><time>2026-05-05T12:21:41Z</time></trkpt><trkpt lat="45.933342848690145" lon="13.877029951857907"><ele>536.0</ele><time>2026-05-05T12:21:42Z</time></trkpt><trkpt lat="45.93345298457951" lon="13.877174409143056"><ele>536.0</ele><time>2026-05-05T12:21:43Z</time></trkpt><trkpt lat="45.933574687198075" lon="13.877303610409523"><ele>536.0</ele><time>2026-05-05T12:21:44Z</time></trkpt><trkpt lat="45.93372382034904" lon="13.877377695419945"><ele>536.0</ele><time>2026-05-05T12:21:45Z</time></trkpt><trkpt lat="45.93388100550916" lon="13.877417806361652"><ele>536.0</ele><time>2026-05-05T12:21:46Z</time></trkpt><trkpt lat="45.9340416713449" lon="13.877423828303236"><ele>536.0</ele><time>2026-05-05T12:21:47Z</time></trkpt><trkpt lat="45.93420760687816" lon="13.87742109476348"><ele>536.0</ele><time>2026-05-05T12:21:48Z</time></trkpt><trkpt lat="45.93438039927154" lon="13.877420265722758"><ele>540.0</ele><time>2026-05-05T12:21:49Z</time></trkpt><trkpt lat="45.93455760666129" lon="13.87742437944623"><ele>544.0</ele><time>2026-05-05T12:21:50Z</time></trkpt><trkpt lat="45.93475399384606" lon="13.877442693539205"><ele>548.0</ele><time>2026-05-05T12:21:51Z</time></trkpt><trkpt lat="45.93494737487836" lon="13.87746754369229"><ele>552.0</ele><time>2026-05-05T12:21:52Z</time></trkpt><trkpt lat="45.93512031532375" lon="13.877488187242957"><ele>556.0</ele><time>2026-05-05T12:21:53Z</time></trkpt><trkpt lat="45.935272811762076" lon="13.877477655885123"><ele>560.0</ele><time>2026-05-05T12:21:54Z</time></trkpt><trkpt lat="45.935409185603206" lon="13.877444227382243"><ele>560.0</ele><time>2026-05-05T12:21:55Z</time></trkpt><trkpt lat="45.93553748694869" lon="13.877435259576785"><ele>560.0</ele><time>2026-05-05T12:21:56Z</time></trkpt><trkpt lat="45.935654627593614" lon="13.877462268333971"><ele>560.0</ele><time>2026-05-05T12:21:57Z</time></trkpt><trkpt lat="45.93575464976061" lon="13.877508876782123"><ele>560.0</ele><time>2026-05-05T12:21:58Z</time></trkpt><trkpt lat="45.93583033004746" lon="13.87757076262718"><ele>560.0</ele><time>2026-05-05T12:21:59Z</time></trkpt><trkpt lat="45.93590205196705" lon="13.877641621889836"><ele>563.2</ele><time>2026-05-05T12:22:00Z</time></trkpt><trkpt lat="45.93595756380709" lon="13.877739641548608"><ele>566.4</ele><time>2026-05-05T12:22:01Z</time></trkpt><trkpt lat="45.93598597419674" lon="13.877863447093446"><ele>569.6</ele><time>2026-05-05T12:22:02Z</time></trkpt><trkpt lat="45.935966568148174" lon="13.878014894143085"><ele>572.8</ele><time>2026-05-05T12:22:03Z</time></trkpt><trkpt lat="45.93597285372276" lon="13.878181538963007"><ele>576.0</ele><time>2026-05-05T12:22:04Z</time></trkpt><trkpt lat="45.93598402664533" lon="13.878374375036419"><ele>578.0</ele><time>2026-05-05T12:22:05Z</time></trkpt><trkpt lat="45.93595879020032" lon="13.878574640555664"><ele>580.0</ele><time>2026-05-05T12:22:06Z</time></trkpt><trkpt lat="45.93589516155154" lon="13.878762238303615"><ele>582.0</ele><time>2026-05-05T12:22:07Z</time></trkpt><trkpt lat="45.93583644640003" lon="13.879002286619995"><ele>576.0</ele><time>2026-05-05T12:22:08Z</time></trkpt><trkpt lat="45.93577517208283" lon="13.879223191089768"><ele>570.0</ele><time>2026-05-05T12:22:09Z</time></trkpt><trkpt lat="45.93576735479577" lon="13.879469498868087"><ele>564.0</ele><time>2026-05-05T12:22:10Z</time></trkpt><trkpt lat="45.93575877398296" lon="13.879728830204838"><ele>564.0</ele><time>2026-05-05T12:22:11Z</time></trkpt><trkpt lat="45.93575767482448" lon="13.880001865976764"><ele>564.0</ele><time>2026-05-05T12:22:12Z</time></trkpt><trkpt lat="45.935766014772014" lon="13.880284630144015"><ele>564.0</ele><time>2026-05-05T12:22:13Z</time></trkpt><trkpt lat="45.93577226823569" lon="13.880564294978338"><ele>566.3333333333334</ele><time>2026-05-05T12:22:14Z</time></trkpt><trkpt lat="45.9357489430734" lon="13.880820294081166"><ele>568.6666666666667</ele><time>2026-05-05T12:22:15Z</time></trkpt><trkpt lat="45.93572959406759" lon="13.881061656071045"><ele>571.0</ele><time>2026-05-05T12:22:16Z</time></trkpt><trkpt lat="45.93565020961097" lon="13.881250544872167"><ele>571.75</ele><time>2026-05-05T12:22:17Z</time></trkpt><trkpt lat="45.93557229522314" lon="13.881407722672424"><ele>572.5</ele><time>2026-05-05T12:22:18Z</time></trkpt><trkpt lat="45.93550112979761" lon="13.88155575789099"><ele>573.25</ele><time>2026-05-05T12:22:19Z</time></trkpt><trkpt lat="45.93546349872602" lon="13.881719210776165"><ele>574.0</ele><time>2026-05-05T12:22:20Z</time></trkpt><trkpt lat="45.93543536283218" lon="13.88189395768814"><ele>576.0</ele><time>2026-05-05T12:22:21Z</time></trkpt><trkpt lat="45.93543230386197" lon="13.882095396582022"><ele>578.0</ele><time>2026-05-05T12:22:22Z</time></trkpt><trkpt lat="45.93543880881271" lon="13.882316931812877"><ele>580.0</ele><time>2026-05-05T12:22:23Z</time></trkpt><trkpt lat="45.935447475534644" lon="13.882544676616499"><ele>583.5</ele><time>2026-05-05T12:22:24Z</time></trkpt><trkpt lat="45.935418032006154" lon="13.88275532621747"><ele>587.0</ele><time>2026-05-05T12:22:25Z</time></trkpt><trkpt lat="45.935362567824335" lon="13.882949030970359"><ele>590.5</ele><time>2026-05-05T12:22:26Z</time></trkpt><trkpt lat="45.93527682490004" lon="13.883094660300367"><ele>594.0</ele><time>2026-05-05T12:22:27Z</time></trkpt><trkpt lat="45.93517079875211" lon="13.883219370113004"><ele>587.0</ele><time>2026-05-05T12:22:28Z</time></trkpt><trkpt lat="45.935047705825426" lon="13.883334694480677"><ele>580.0</ele><time>2026-05-05T12:22:29Z</time></trkpt><trkpt lat="45.93493391405134" lon="13.883479094937199"><ele>573.0</ele><time>2026-05-05T12:22:30Z</time></trkpt><trkpt lat="45.93482652391785" lon="13.883634148045703"><ele>573.0</ele><time>2026-05-05T12:22:31Z</time></trkpt><trkpt lat="45.93473469326481" lon="13.883820944657733"><ele>573.0</ele><time>2026-05-05T12:22:32Z</time></trkpt><trkpt lat="45.93465793386288" lon="13.884023309169534"><ele>573.0</ele><time>2026-05-05T12:22:33Z</time></trkpt><trkpt lat="45.93459949315054" lon="13.884224803900567"><ele>575.0</ele><time>2026-05-05T12:22:34Z</time></trkpt><trkpt lat="45.93454900841574" lon="13.88441774810589"><ele>577.0</ele><time>2026-05-05T12:22:35Z</time></trkpt><trkpt lat="45.934480738614596" lon="13.884588711815576"><ele>579.0</ele><time>2026-05-05T12:22:36Z</time></trkpt><trkpt lat="45.934375581596676" lon="13.884709920765578"><ele>581.0</ele><time>2026-05-05T12:22:37Z</time></trkpt><trkpt lat="45.934260473786225" lon="13.884812072650599"><ele>579.3333333333333</ele><time>2026-05-05T12:22:38Z</time></trkpt><trkpt lat="45.934123918175096" lon="13.884904219904882"><ele>577.6666666666666</ele><time>2026-05-05T12:22:39Z</time></trkpt><trkpt lat="45.93398159738278" lon="13.885010575740134"><ele>576.0</ele><time>2026-05-05T12:22:40Z</time></trkpt><trkpt lat="45.93383458123192" lon="13.88509823167047"><ele>576.0</ele><time>2026-05-05T12:22:41Z</time></trkpt><trkpt lat="45.93369901833581" lon="13.885193912367082"><ele>576.0</ele><time>2026-05-05T12:22:42Z</time></trkpt><trkpt lat="45.93357318466231" lon="13.885294626898718"><ele>576.0</ele><time>2026-05-05T12:22:43Z</time></trkpt><trkpt lat="45.93345156381003" lon="13.885388411582714"><ele>576.0</ele><time>2026-05-05T12:22:44Z</time></trkpt><trkpt lat="45.93332056134987" lon="13.885491423564103"><ele>569.6666666666666</ele><time>2026-05-05T12:22:45Z</time></trkpt><trkpt lat="45.933180917873315" lon="13.885600910412009"><ele>563.3333333333333</ele><time>2026-05-05T12:22:46Z</time></trkpt><trkpt lat="45.93303570123497" lon="13.885730908914677"><ele>557.0</ele><time>2026-05-05T12:22:47Z</time></trkpt><trkpt lat="45.93289610082141" lon="13.885879706825852"><ele>562.6666666666666</ele><time>2026-05-05T12:22:48Z</time></trkpt><trkpt lat="45.93277337109325" lon="13.886040013655677"><ele>568.3333333333334</ele><time>2026-05-05T12:22:49Z</time></trkpt><trkpt lat="45.93267228779607" lon="13.886215876850958"><ele>574.0</ele><time>2026-05-05T12:22:50Z</time></trkpt><trkpt lat="45.932567195809966" lon="13.88637523340364"><ele>566.3333333333334</ele><time>2026-05-05T12:22:51Z</time></trkpt><trkpt lat="45.93243612835495" lon="13.886495877935115"><ele>558.6666666666666</ele><time>2026-05-05T12:22:52Z</time></trkpt><trkpt lat="45.932289080518345" lon="13.88658834100636"><ele>551.0</ele><time>2026-05-05T12:22:53Z</time></trkpt><trkpt lat="45.932138873226386" lon="13.88669663414656"><ele>551.0</ele><time>2026-05-05T12:22:54Z</time></trkpt><trkpt lat="45.93198499510279" lon="13.886834368291144"><ele>551.0</ele><time>2026-05-05T12:22:55Z</time></trkpt><trkpt lat="45.93183326930418" lon="13.886983316219457"><ele>551.0</ele><time>2026-05-05T12:22:56Z</time></trkpt><trkpt lat="45.93169537928229" lon="13.88715239202224"><ele>551.0</ele><time>2026-05-05T12:22:57Z</time></trkpt><trkpt lat="45.93155267420715" lon="13.887319390149566"><ele>551.0</ele><time>2026-05-05T12:22:58Z</time></trkpt><trkpt lat="45.93139307893631" lon="13.887433912252003"><ele>551.0</ele><time>2026-05-05T12:22:59Z</time></trkpt><trkpt lat="45.93121886511988" lon="13.887529096396257"><ele>553.6666666666666</ele><time>2026-05-05T12:23:00Z</time></trkpt><trkpt lat="45.931039665884924" lon="13.887662120411552"><ele>556.3333333333334</ele><time>2026-05-05T12:23:01Z</time></trkpt><trkpt lat="45.93087376239415" lon="13.887828415363755"><ele>559.0</ele><time>2026-05-05T12:23:02Z</time></trkpt><trkpt lat="45.93070389247434" lon="13.888008617104438"><ele>553.0</ele><time>2026-05-05T12:23:03Z</time></trkpt><trkpt lat="45.93055582080877" lon="13.8881913250505"><ele>547.0</ele><time>2026-05-05T12:23:04Z</time></trkpt><trkpt lat="45.93043322768934" lon="13.888364982229534"><ele>541.0</ele><time>2026-05-05T12:23:05Z</time></trkpt><trkpt lat="45.93030917512496" lon="13.88848902671412"><ele>541.0</ele><time>2026-05-05T12:23:06Z</time></trkpt><trkpt lat="45.93019035905673" lon="13.88860819273737"><ele>541.0</ele><time>2026-05-05T12:23:07Z</time></trkpt><trkpt lat="45.930071856456905" lon="13.888723116666998"><ele>541.0</ele><time>2026-05-05T12:23:08Z</time></trkpt><trkpt lat="45.9299754623943" lon="13.888849536850946"><ele>541.0</ele><time>2026-05-05T12:23:09Z</time></trkpt><trkpt lat="45.92989147195178" lon="13.888976121539008"><ele>539.0</ele><time>2026-05-05T12:23:10Z</time></trkpt><trkpt lat="45.92983278939292" lon="13.889130692595186"><ele>537.0</ele><time>2026-05-05T12:23:11Z</time></trkpt><trkpt lat="45.9298022021424" lon="13.889321539126469"><ele>535.0</ele><time>2026-05-05T12:23:12Z</time></trkpt><trkpt lat="45.92977544985491" lon="13.88953542476667"><ele>533.0</ele><time>2026-05-05T12:23:13Z</time></trkpt><trkpt lat="45.92970680071271" lon="13.88976412739824"><ele>533.0</ele><time>2026-05-05T12:23:14Z</time></trkpt><trkpt lat="45.929622012732565" lon="13.890004116685647"><ele>533.0</ele><time>2026-05-05T12:23:15Z</time></trkpt><trkpt lat="45.92951449395573" lon="13.890226417629743"><ele>533.0</ele><time>2026-05-05T12:23:16Z</time></trkpt><trkpt lat="45.92937863135187" lon="13.89040831544263"><ele>536.0</ele><time>2026-05-05T12:23:17Z</time></trkpt><trkpt lat="45.92923982803224" lon="13.89057414181325"><ele>539.0</ele><time>2026-05-05T12:23:18Z</time></trkpt><trkpt lat="45.92910836324593" lon="13.890736053671636"><ele>542.0</ele><time>2026-05-05T12:23:19Z</time></trkpt><trkpt lat="45.92900715201333" lon="13.890898776881548"><ele>539.0</ele><time>2026-05-05T12:23:20Z</time></trkpt><trkpt lat="45.928903638904664" lon="13.891036737853332"><ele>536.0</ele><time>2026-05-05T12:23:21Z</time></trkpt><trkpt lat="45.92878405515556" lon="13.891129129142554"><ele>533.0</ele><time>2026-05-05T12:23:22Z</time></trkpt><trkpt lat="45.92865305899991" lon="13.891248546888784"><ele>530.0</ele><time>2026-05-05T12:23:23Z</time></trkpt><trkpt lat="45.92849595102712" lon="13.891353978990157"><ele>525.0</ele><time>2026-05-05T12:23:24Z</time></trkpt><trkpt lat="45.92832321627514" lon="13.891459120294858"><ele>520.0</ele><time>2026-05-05T12:23:25Z</time></trkpt><trkpt lat="45.928136744642906" lon="13.891566344536137"><ele>515.0</ele><time>2026-05-05T12:23:26Z</time></trkpt><trkpt lat="45.927947159050284" lon="13.891671557453519"><ele>514.0</ele><time>2026-05-05T12:23:27Z</time></trkpt><trkpt lat="45.927769218873756" lon="13.891787803651829"><ele>513.0</ele><time>2026-05-05T12:23:28Z</time></trkpt><trkpt lat="45.92761006555416" lon="13.891924927307482"><ele>512.0</ele><time>2026-05-05T12:23:29Z</time></trkpt><trkpt lat="45.92746651709017" lon="13.892080890641592"><ele>512.0</ele><time>2026-05-05T12:23:30Z</time></trkpt><trkpt lat="45.92734741341018" lon="13.892261106288654"><ele>512.0</ele><time>2026-05-05T12:23:31Z</time></trkpt><trkpt lat="45.927251227836216" lon="13.89244133009499"><ele>512.0</ele><time>2026-05-05T12:23:32Z</time></trkpt><trkpt lat="45.927156714228914" lon="13.892594018280239"><ele>514.0</ele><time>2026-05-05T12:23:33Z</time></trkpt><trkpt lat="45.92706359137426" lon="13.892724309467873"><ele>516.0</ele><time>2026-05-05T12:23:34Z</time></trkpt><trkpt lat="45.92695685398991" lon="13.892847297623499"><ele>518.0</ele><time>2026-05-05T12:23:35Z</time></trkpt><trkpt lat="45.9268335047862" lon="13.89295778870957"><ele>520.0</ele><time>2026-05-05T12:23:36Z</time></trkpt><trkpt lat="45.926695117321394" lon="13.893060945521889"><ele>512.6666666666667</ele><time>2026-05-05T12:23:37Z</time></trkpt><trkpt lat="45.92653873083375" lon="13.893167739344543"><ele>505.33333333333337</ele><time>2026-05-05T12:23:38Z</time></trkpt><trkpt lat="45.92637029909459" lon="13.893275767548296"><ele>498.0</ele><time>2026-05-05T12:23:39Z</time></trkpt><trkpt lat="45.926196373732935" lon="13.893402002070912"><ele>497.0</ele><time>2026-05-05T12:23:40Z</time></trkpt><trkpt lat="45.926004369297885" lon="13.893475310520655"><ele>496.0</ele><time>2026-05-05T12:23:41Z</time></trkpt><trkpt lat="45.92582122011396" lon="13.89356872642348"><ele>495.0</ele><time>2026-05-05T12:23:42Z</time></trkpt><trkpt lat="45.92564652515668" lon="13.893681553980786"><ele>495.0</ele><time>2026-05-05T12:23:43Z</time></trkpt><trkpt lat="45.92546801363046" lon="13.893773536001387"><ele>495.0</ele><time>2026-05-05T12:23:44Z</time></trkpt><trkpt lat="45.92529112650814" lon="13.893861576168515"><ele>495.0</ele><time>2026-05-05T12:23:45Z</time></trkpt><trkpt lat="45.92512272751172" lon="13.893941266104473"><ele>491.33333333333337</ele><time>2026-05-05T12:23:46Z</time></trkpt><trkpt lat="45.924960743484114" lon="13.894014306540038"><ele>487.6666666666667</ele><time>2026-05-05T12:23:47Z</time></trkpt><trkpt lat="45.92480936472581" lon="13.894097358432486"><ele>484.0</ele><time>2026-05-05T12:23:48Z</time></trkpt><trkpt lat="45.92467099310783" lon="13.894211828604336"><ele>486.33333333333337</ele><time>2026-05-05T12:23:49Z</time></trkpt><trkpt lat="45.92455400912812" lon="13.894361136598166"><ele>488.66666666666663</ele><time>2026-05-05T12:23:50Z</time></trkpt><trkpt lat="45.92442238950361" lon="13.894523046744577"><ele>491.0</ele><time>2026-05-05T12:23:51Z</time></trkpt><trkpt lat="45.92427318558461" lon="13.894647079430708"><ele>486.3333333333333</ele><time>2026-05-05T12:23:52Z</time></trkpt><trkpt lat="45.92411078381202" lon="13.894773034331314"><ele>481.66666666666663</ele><time>2026-05-05T12:23:53Z</time></trkpt><trkpt lat="45.92394741285497" lon="13.894902490398735"><ele>477.0</ele><time>2026-05-05T12:23:54Z</time></trkpt><trkpt lat="45.92376587883977" lon="13.894948949510754"><ele>477.0</ele><time>2026-05-05T12:23:55Z</time></trkpt><trkpt lat="45.92360398628249" lon="13.895050613601809"><ele>477.0</ele><time>2026-05-05T12:23:56Z</time></trkpt><trkpt lat="45.92345270598403" lon="13.895121617262564"><ele>477.0</ele><time>2026-05-05T12:23:57Z</time></trkpt><trkpt lat="45.923318800793744" lon="13.895198076797733"><ele>475.25</ele><time>2026-05-05T12:23:58Z</time></trkpt><trkpt lat="45.92319312848569" lon="13.895258425067157"><ele>473.5</ele><time>2026-05-05T12:23:59Z</time></trkpt><trkpt lat="45.92307627317978" lon="13.895321335388251"><ele>471.75</ele><time>2026-05-05T12:24:00Z</time></trkpt><trkpt lat="45.92297207220596" lon="13.89542230903862"><ele>470.0</ele><time>2026-05-05T12:24:01Z</time></trkpt><trkpt lat="45.92289278674023" lon="13.89556730004979"><ele>470.0</ele><time>2026-05-05T12:24:02Z</time></trkpt><trkpt lat="45.9228363275951" lon="13.895750614908675"><ele>470.0</ele><time>2026-05-05T12:24:03Z</time></trkpt><trkpt lat="45.92277475963338" lon="13.895953324547877"><ele>470.0</ele><time>2026-05-05T12:24:04Z</time></trkpt><trkpt lat="45.9227004028471" lon="13.896152474700257"><ele>472.3333333333333</ele><time>2026-05-05T12:24:05Z</time></trkpt><trkpt lat="45.92259781824278" lon="13.896315072539318"><ele>474.66666666666663</ele><time>2026-05-05T12:24:06Z</time></trkpt><trkpt lat="45.922491231002546" lon="13.896471278554182"><ele>477.0</ele><time>2026-05-05T12:24:07Z</time></trkpt><trkpt lat="45.9223673934263" lon="13.896584337502905"><ele>473.25</ele><time>2026-05-05T12:24:08Z</time></trkpt><trkpt lat="45.922241967694234" lon="13.896693862162138"><ele>469.5</ele><time>2026-05-05T12:24:09Z</time></trkpt><trkpt lat="45.92213800219882" lon="13.896827685627377"><ele>465.75</ele><time>2026-05-05T12:24:10Z</time></trkpt><trkpt lat="45.922081349581795" lon="13.896964679859893"><ele>462.0</ele><time>2026-05-05T12:24:11Z</time></trkpt><trkpt lat="45.922018038952864" lon="13.897055505271233"><ele>462.0</ele><time>2026-05-05T12:24:12Z</time></trkpt><trkpt lat="45.921947579618255" lon="13.8971236251557"><ele>462.0</ele><time>2026-05-05T12:24:13Z</time></trkpt><trkpt lat="45.921867354349835" lon="13.897149652938342"><ele>462.0</ele><time>2026-05-05T12:24:14Z</time></trkpt><trkpt lat="45.921792626897705" lon="13.897089682980482"><ele>462.0</ele><time>2026-05-05T12:24:15Z</time></trkpt><trkpt lat="45.92172226532033" lon="13.897043143045938"><ele>462.0</ele><time>2026-05-05T12:24:16Z</time></trkpt><trkpt lat="45.921660138860524" lon="13.896941210300316"><ele>462.0</ele><time>2026-05-05T12:24:17Z</time></trkpt><trkpt lat="45.92160186290182" lon="13.896819333366235"><ele>456.25</ele><time>2026-05-05T12:24:18Z</time></trkpt><trkpt lat="45.92153542658318" lon="13.896682791302709"><ele>450.5</ele><time>2026-05-05T12:24:19Z</time></trkpt><trkpt lat="45.92146000372353" lon="13.896533500603985"><ele>444.75</ele><time>2026-05-05T12:24:20Z</time></trkpt><trkpt lat="45.9213939338196" lon="13.89637503567689"><ele>439.0</ele><time>2026-05-05T12:24:21Z</time></trkpt><trkpt lat="45.921342526510195" lon="13.8962070328232"><ele>439.0</ele><time>2026-05-05T12:24:22Z</time></trkpt><trkpt lat="45.92134775059015" lon="13.896034205118596"><ele>439.0</ele><time>2026-05-05T12:24:23Z</time></trkpt><trkpt lat="45.92136415484536" lon="13.895875954155901"><ele>439.0</ele><time>2026-05-05T12:24:24Z</time></trkpt><trkpt lat="45.921390425093485" lon="13.895714213765347"><ele>439.0</ele><time>2026-05-05T12:24:25Z</time></trkpt><trkpt lat="45.92141132570044" lon="13.895545560767859"><ele>438.0</ele><time>2026-05-05T12:24:26Z</time></trkpt><trkpt lat="45.92146359657541" lon="13.895379800378734"><ele>437.0</ele><time>2026-05-05T12:24:27Z</time></trkpt><trkpt lat="45.92155757803065" lon="13.895235647105604"><ele>436.0</ele><time>2026-05-05T12:24:28Z</time></trkpt><trkpt lat="45.92163581494581" lon="13.895053786546637"><ele>435.0</ele><time>2026-05-05T12:24:29Z</time></trkpt><trkpt lat="45.921738578965744" lon="13.894895674380532"><ele>437.66666666666663</ele><time>2026-05-05T12:24:30Z</time></trkpt><trkpt lat="45.92184959213911" lon="13.894743938312535"><ele>440.3333333333333</ele><time>2026-05-05T12:24:31Z</time></trkpt><trkpt lat="45.92195655141256" lon="13.894584819967937"><ele>443.0</ele><time>2026-05-05T12:24:32Z</time></trkpt><trkpt lat="45.92204252665592" lon="13.894403950825106"><ele>438.75</ele><time>2026-05-05T12:24:33Z</time></trkpt><trkpt lat="45.922106069827834" lon="13.894204465431663"><ele>434.5</ele><time>2026-05-05T12:24:34Z</time></trkpt><trkpt lat="45.922175345308666" lon="13.894022690103782"><ele>430.25</ele><time>2026-05-05T12:24:35Z</time></trkpt><trkpt lat="45.92227152311526" lon="13.89386374852277"><ele>426.0</ele><time>2026-05-05T12:24:36Z</time></trkpt><trkpt lat="45.9223770743048" lon="13.893710507059952"><ele>426.0</ele><time>2026-05-05T12:24:37Z</time></trkpt><trkpt lat="45.92247318264338" lon="13.89355067055105"><ele>426.0</ele><time>2026-05-05T12:24:38Z</time></trkpt><trkpt lat="45.92255657424834" lon="13.893386094831515"><ele>426.0</ele><time>2026-05-05T12:24:39Z</time></trkpt><trkpt lat="45.922648965133604" lon="13.893259047121074"><ele>426.0</ele><time>2026-05-05T12:24:40Z</time></trkpt><trkpt lat="45.922749879354235" lon="13.893163619055231"><ele>427.6</ele><time>2026-05-05T12:24:41Z</time></trkpt><trkpt lat="45.922836823653405" lon="13.893063941387311"><ele>429.20000000000005</ele><time>2026-05-05T12:24:42Z</time></trkpt><trkpt lat="45.92290826757527" lon="13.89294317471537"><ele>430.79999999999995</ele><time>2026-05-05T12:24:43Z</time></trkpt><trkpt lat="45.922969367230664" lon="13.892824403111375"><ele>432.4</ele><time>2026-05-05T12:24:44Z</time></trkpt><trkpt lat="45.92300230816797" lon="13.892704134454503"><ele>434.0</ele><time>2026-05-05T12:24:45Z</time></trkpt><trkpt lat="45.92301236274345" lon="13.892574722126477"><ele>428.25</ele><time>2026-05-05T12:24:46Z</time></trkpt><trkpt lat="45.92297960743867" lon="13.892439506290264"><ele>422.5</ele><time>2026-05-05T12:24:47Z</time></trkpt><trkpt lat="45.92292595437661" lon="13.892295180253516"><ele>416.75</ele><time>2026-05-05T12:24:48Z</time></trkpt><trkpt lat="45.92285346744537" lon="13.892137832070041"><ele>411.0</ele><time>2026-05-05T12:24:49Z</time></trkpt><trkpt lat="45.92276969910315" lon="13.891960371658326"><ele>411.0</ele><time>2026-05-05T12:24:50Z</time></trkpt><trkpt lat="45.92266578637133" lon="13.891779945548304"><ele>411.0</ele><time>2026-05-05T12:24:51Z</time></trkpt><trkpt lat="45.92253486013044" lon="13.89159878421108"><ele>411.0</ele><time>2026-05-05T12:24:52Z</time></trkpt><trkpt lat="45.922391992401124" lon="13.891429082386868"><ele>401.0</ele><time>2026-05-05T12:24:53Z</time></trkpt><trkpt lat="45.92224933309768" lon="13.89127313365567"><ele>391.0</ele><time>2026-05-05T12:24:54Z</time></trkpt><trkpt lat="45.922103177296954" lon="13.891132743774829"><ele>381.0</ele><time>2026-05-05T12:24:55Z</time></trkpt><trkpt lat="45.92197050705846" lon="13.891004740850674"><ele>381.75</ele><time>2026-05-05T12:24:56Z</time></trkpt><trkpt lat="45.92184051526725" lon="13.890892829394437"><ele>382.5</ele><time>2026-05-05T12:24:57Z</time></trkpt><trkpt lat="45.9217061560169" lon="13.890813472058968"><ele>383.25</ele><time>2026-05-05T12:24:58Z</time></trkpt><trkpt lat="45.92156196449181" lon="13.890768988476788"><ele>384.0</ele><time>2026-05-05T12:24:59Z</time></trkpt><trkpt lat="45.92142158793458" lon="13.890749923086327"><ele>382.5</ele><time>2026-05-05T12:25:00Z</time></trkpt><trkpt lat="45.921298813767216" lon="13.890765477296554"><ele>381.0</ele><time>2026-05-05T12:25:01Z</time></trkpt><trkpt lat="45.92119582072916" lon="13.890825053008182"><ele>379.5</ele><time>2026-05-05T12:25:02Z</time></trkpt><trkpt lat="45.92110760262049" lon="13.890928464010225"><ele>378.0</ele><time>2026-05-05T12:25:03Z</time></trkpt><trkpt lat="45.92104105176023" lon="13.891070948167226"><ele>378.0</ele><time>2026-05-05T12:25:04Z</time></trkpt><trkpt lat="45.92098911537178" lon="13.891224667222334"><ele>378.0</ele><time>2026-05-05T12:25:05Z</time></trkpt><trkpt lat="45.92092354939504" lon="13.891370704918796"><ele>378.0</ele><time>2026-05-05T12:25:06Z</time></trkpt><trkpt lat="45.92084151229561" lon="13.89150945104745"><ele>378.0</ele><time>2026-05-05T12:25:07Z</time></trkpt><trkpt lat="45.92074329842051" lon="13.891639796665782"><ele>374.25</ele><time>2026-05-05T12:25:08Z</time></trkpt><trkpt lat="45.92062996682811" lon="13.891757563734593"><ele>370.5</ele><time>2026-05-05T12:25:09Z</time></trkpt><trkpt lat="45.92049456146263" lon="13.891826621856168"><ele>366.75</ele><time>2026-05-05T12:25:10Z</time></trkpt><trkpt lat="45.9203580768295" lon="13.891868882317178"><ele>363.0</ele><time>2026-05-05T12:25:11Z</time></trkpt><trkpt lat="45.92022278278902" lon="13.891909881834202"><ele>363.0</ele><time>2026-05-05T12:25:12Z</time></trkpt><trkpt lat="45.920084855227806" lon="13.891888429339891"><ele>363.0</ele><time>2026-05-05T12:25:13Z</time></trkpt><trkpt lat="45.919967156152055" lon="13.89178817606436"><ele>363.0</ele><time>2026-05-05T12:25:14Z</time></trkpt><trkpt lat="45.919841694550634" lon="13.89171319749801"><ele>363.0</ele><time>2026-05-05T12:25:15Z</time></trkpt><trkpt lat="45.91971424235993" lon="13.89167227209113"><ele>360.0</ele><time>2026-05-05T12:25:16Z</time></trkpt><trkpt lat="45.91958607936451" lon="13.891625724294041"><ele>357.0</ele><time>2026-05-05T12:25:17Z</time></trkpt><trkpt lat="45.91945739934585" lon="13.89159205072785"><ele>354.0</ele><time>2026-05-05T12:25:18Z</time></trkpt><trkpt lat="45.91933499735734" lon="13.89156932804898"><ele>351.0</ele><time>2026-05-05T12:25:19Z</time></trkpt><trkpt lat="45.91921671194956" lon="13.891552861062001"><ele>349.0</ele><time>2026-05-05T12:25:20Z</time></trkpt><trkpt lat="45.919100295263036" lon="13.891604292133414"><ele>347.0</ele><time>2026-05-05T12:25:21Z</time></trkpt><trkpt lat="45.91898520809803" lon="13.891660255913134"><ele>345.0</ele><time>2026-05-05T12:25:22Z</time></trkpt><trkpt lat="45.91889001209807" lon="13.891770482626459"><ele>343.0</ele><time>2026-05-05T12:25:23Z</time></trkpt><trkpt lat="45.918811537184105" lon="13.891908220793447"><ele>343.0</ele><time>2026-05-05T12:25:24Z</time></trkpt><trkpt lat="45.91874739334266" lon="13.8920602507013"><ele>343.0</ele><time>2026-05-05T12:25:25Z</time></trkpt><trkpt lat="45.91868931067678" lon="13.89222079106391"><ele>343.0</ele><time>2026-05-05T12:25:26Z</time></trkpt><trkpt lat="45.91865366479328" lon="13.892385252503738"><ele>343.0</ele><time>2026-05-05T12:25:27Z</time></trkpt><trkpt lat="45.918649252797664" lon="13.892539703032279"><ele>342.5</ele><time>2026-05-05T12:25:28Z</time></trkpt><trkpt lat="45.91864994847684" lon="13.89266647763337"><ele>342.0</ele><time>2026-05-05T12:25:29Z</time></trkpt><trkpt lat="45.91867803546723" lon="13.892786332744315"><ele>341.5</ele><time>2026-05-05T12:25:30Z</time></trkpt><trkpt lat="45.91871045201184" lon="13.892891409766976"><ele>341.0</ele><time>2026-05-05T12:25:31Z</time></trkpt><trkpt lat="45.91872336255994" lon="13.892983384368232"><ele>340.5</ele><time>2026-05-05T12:25:32Z</time></trkpt><trkpt lat="45.91868281818332" lon="13.893125458804107"><ele>340.0</ele><time>2026-05-05T12:25:34Z</time></trkpt><trkpt lat="45.918618915328864" lon="13.89318058746162"><ele>340.0</ele><time>2026-05-05T12:25:35Z</time></trkpt><trkpt lat="45.91853697318714" lon="13.89319178731571"><ele>340.0</ele><time>2026-05-05T12:25:36Z</time></trkpt><trkpt lat="45.918460932658654" lon="13.893152123582444"><ele>340.0</ele><time>2026-05-05T12:25:37Z</time></trkpt><trkpt lat="45.91841507597295" lon="13.893045247505972"><ele>340.0</ele><time>2026-05-05T12:25:38Z</time></trkpt><trkpt lat="45.91835146060945" lon="13.892942064830576"><ele>340.0</ele><time>2026-05-05T12:25:39Z</time></trkpt><trkpt lat="45.918285610504675" lon="13.89281446771869"><ele>335.4</ele><time>2026-05-05T12:25:40Z</time></trkpt><trkpt lat="45.91821846376986" lon="13.892686620223287"><ele>330.8</ele><time>2026-05-05T12:25:41Z</time></trkpt><trkpt lat="45.91815812360445" lon="13.892564454092195"><ele>326.2</ele><time>2026-05-05T12:25:42Z</time></trkpt><trkpt lat="45.91807752903055" lon="13.892445698111805"><ele>321.6</ele><time>2026-05-05T12:25:43Z</time></trkpt><trkpt lat="45.9179850469951" lon="13.892359466138311"><ele>317.0</ele><time>2026-05-05T12:25:44Z</time></trkpt><trkpt lat="45.917875639784214" lon="13.892314559573387"><ele>317.0</ele><time>2026-05-05T12:25:45Z</time></trkpt><trkpt lat="45.917766800854196" lon="13.892315335113109"><ele>317.0</ele><time>2026-05-05T12:25:46Z</time></trkpt><trkpt lat="45.917682822362956" lon="13.892358196890076"><ele>317.0</ele><time>2026-05-05T12:25:47Z</time></trkpt><trkpt lat="45.91757292380473" lon="13.892387150170185"><ele>317.0</ele><time>2026-05-05T12:25:48Z</time></trkpt><trkpt lat="45.91747168110677" lon="13.892417457207792"><ele>317.0</ele><time>2026-05-05T12:25:49Z</time></trkpt><trkpt lat="45.91739233132663" lon="13.892368481243935"><ele>312.6</ele><time>2026-05-05T12:25:50Z</time></trkpt><trkpt lat="45.917349339008844" lon="13.892249998153003"><ele>308.2</ele><time>2026-05-05T12:25:51Z</time></trkpt><trkpt lat="45.91733185294878" lon="13.892119641975315"><ele>303.8</ele><time>2026-05-05T12:25:52Z</time></trkpt><trkpt lat="45.91733448739923" lon="13.891978781086298"><ele>299.4</ele><time>2026-05-05T12:25:53Z</time></trkpt><trkpt lat="45.917336463282965" lon="13.891824213868789"><ele>295.0</ele><time>2026-05-05T12:25:54Z</time></trkpt><trkpt lat="45.91733183653388" lon="13.891669421382007"><ele>295.0</ele><time>2026-05-05T12:25:55Z</time></trkpt><trkpt lat="45.9173178921589" lon="13.891537276972707"><ele>295.0</ele><time>2026-05-05T12:25:56Z</time></trkpt><trkpt lat="45.9172966320271" lon="13.89141963610904"><ele>295.0</ele><time>2026-05-05T12:25:57Z</time></trkpt><trkpt lat="45.91726782544622" lon="13.891335538389734"><ele>295.0</ele><time>2026-05-05T12:25:58Z</time></trkpt><trkpt lat="45.91716604439809" lon="13.891323187523689"><ele>295.0</ele><time>2026-05-05T12:26:00Z</time></trkpt><trkpt lat="45.9170676073273" lon="13.891476271685749"><ele>295.0</ele><time>2026-05-05T12:26:02Z</time></trkpt><trkpt lat="45.917012041606846" lon="13.8915916487201"><ele>295.0</ele><time>2026-05-05T12:26:03Z</time></trkpt><trkpt lat="45.916925338610554" lon="13.891712072893466"><ele>295.0</ele><time>2026-05-05T12:26:04Z</time></trkpt><trkpt lat="45.916826582471344" lon="13.891842718067249"><ele>295.0</ele><time>2026-05-05T12:26:05Z</time></trkpt><trkpt lat="45.91673192225242" lon="13.89195031307002"><ele>290.8</ele><time>2026-05-05T12:26:06Z</time></trkpt><trkpt lat="45.916649465571794" lon="13.892056620121874"><ele>286.6</ele><time>2026-05-05T12:26:07Z</time></trkpt><trkpt lat="45.91659765442926" lon="13.892189282832923"><ele>282.4</ele><time>2026-05-05T12:26:08Z</time></trkpt><trkpt lat="45.916580367348615" lon="13.892329557767841"><ele>278.2</ele><time>2026-05-05T12:26:09Z</time></trkpt><trkpt lat="45.916621914049294" lon="13.892468735808533"><ele>274.0</ele><time>2026-05-05T12:26:10Z</time></trkpt><trkpt lat="45.916654398848706" lon="13.89256392305048"><ele>273.0</ele><time>2026-05-05T12:26:11Z</time></trkpt><trkpt lat="45.91666812716749" lon="13.892692723457607"><ele>272.0</ele><time>2026-05-05T12:26:12Z</time></trkpt><trkpt lat="45.91661936151056" lon="13.8928147142047"><ele>271.0</ele><time>2026-05-05T12:26:13Z</time></trkpt><trkpt lat="45.91658000947757" lon="13.892946955466043"><ele>270.0</ele><time>2026-05-05T12:26:14Z</time></trkpt><trkpt lat="45.916563378686675" lon="13.893087089236783"><ele>269.0</ele><time>2026-05-05T12:26:15Z</time></trkpt><trkpt lat="45.916567165702126" lon="13.893212878590624"><ele>269.0</ele><time>2026-05-05T12:26:16Z</time></trkpt><trkpt lat="45.91659972729124" lon="13.893335506365098"><ele>269.0</ele><time>2026-05-05T12:26:17Z</time></trkpt><trkpt lat="45.91662552858763" lon="13.893459567115272"><ele>269.0</ele><time>2026-05-05T12:26:18Z</time></trkpt><trkpt lat="45.91665801219631" lon="13.893562114813399"><ele>269.0</ele><time>2026-05-05T12:26:19Z</time></trkpt><trkpt lat="45.91668921099844" lon="13.893660606175278"><ele>269.0</ele><time>2026-05-05T12:26:20Z</time></trkpt><trkpt lat="45.91671445411562" lon="13.893751684916564"><ele>269.0</ele><time>2026-05-05T12:26:21Z</time></trkpt><trkpt lat="45.916722739138955" lon="13.893849577847233"><ele>268.1666666666667</ele><time>2026-05-05T12:26:22Z</time></trkpt><trkpt lat="45.91667440805872" lon="13.893947060761478"><ele>267.33333333333337</ele><time>2026-05-05T12:26:23Z</time></trkpt><trkpt lat="45.91660776156742" lon="13.894001130719799"><ele>266.5</ele><time>2026-05-05T12:26:24Z</time></trkpt><trkpt lat="45.91652905749362" lon="13.893968349107068"><ele>265.6666666666667</ele><time>2026-05-05T12:26:25Z</time></trkpt><trkpt lat="45.916466430974694" lon="13.893871521675358"><ele>264.8333333333333</ele><time>2026-05-05T12:26:26Z</time></trkpt><trkpt lat="45.9164440635313" lon="13.893734013397793"><ele>264.0</ele><time>2026-05-05T12:26:27Z</time></trkpt><trkpt lat="45.91638970841014" lon="13.893624546525825"><ele>264.0</ele><time>2026-05-05T12:26:28Z</time></trkpt><trkpt lat="45.91632204896178" lon="13.893505175578369"><ele>264.0</ele><time>2026-05-05T12:26:29Z</time></trkpt><trkpt lat="45.91623658418295" lon="13.893400417229882"><ele>264.0</ele><time>2026-05-05T12:26:30Z</time></trkpt><trkpt lat="45.916136036597656" lon="13.893313281197665"><ele>264.0</ele><time>2026-05-05T12:26:31Z</time></trkpt><trkpt lat="45.91602836252892" lon="13.893241860719371"><ele>265.25</ele><time>2026-05-05T12:26:32Z</time></trkpt><trkpt lat="45.91591230208421" lon="13.893194945361095"><ele>266.5</ele><time>2026-05-05T12:26:33Z</time></trkpt><trkpt lat="45.9157913730417" lon="13.893166397535246"><ele>267.75</ele><time>2026-05-05T12:26:34Z</time></trkpt><trkpt lat="45.91566518842819" lon="13.893158977594474"><ele>269.0</ele><time>2026-05-05T12:26:35Z</time></trkpt><trkpt lat="45.91553915461011" lon="13.89318803264619"><ele>264.75</ele><time>2026-05-05T12:26:36Z</time></trkpt><trkpt lat="45.91541881352075" lon="13.89325335750768"><ele>260.5</ele><time>2026-05-05T12:26:37Z</time></trkpt><trkpt lat="45.915305007177146" lon="13.893350025455064"><ele>256.25</ele><time>2026-05-05T12:26:38Z</time></trkpt><trkpt lat="45.915199607444286" lon="13.893464523091088"><ele>252.0</ele><time>2026-05-05T12:26:39Z</time></trkpt><trkpt lat="45.91509569908315" lon="13.893578751585556"><ele>249.33333333333334</ele><time>2026-05-05T12:26:40Z</time></trkpt><trkpt lat="45.91499326688676" lon="13.893677833432777"><ele>246.66666666666669</ele><time>2026-05-05T12:26:41Z</time></trkpt><trkpt lat="45.914905597522434" lon="13.89374837984233"><ele>244.0</ele><time>2026-05-05T12:26:42Z</time></trkpt><trkpt lat="45.91483092104481" lon="13.893791081900334"><ele>241.33333333333334</ele><time>2026-05-05T12:26:43Z</time></trkpt><trkpt lat="45.91476147689313" lon="13.893805007548565"><ele>238.66666666666669</ele><time>2026-05-05T12:26:44Z</time></trkpt><trkpt lat="45.91469580441984" lon="13.89378834421548"><ele>236.0</ele><time>2026-05-05T12:26:45Z</time></trkpt><trkpt lat="45.914637209773595" lon="13.893735819947631"><ele>236.00000000000003</ele><time>2026-05-05T12:26:46Z</time></trkpt><trkpt lat="45.91459456574988" lon="13.89364714286111"><ele>236.0</ele><time>2026-05-05T12:26:47Z</time></trkpt><trkpt lat="45.914607074614324" lon="13.893527316198803"><ele>236.0</ele><time>2026-05-05T12:26:48Z</time></trkpt><trkpt lat="45.91464601111838" lon="13.893423615480394"><ele>236.0</ele><time>2026-05-05T12:26:49Z</time></trkpt><trkpt lat="45.91466333928586" lon="13.893294606096351"><ele>236.00000000000003</ele><time>2026-05-05T12:26:50Z</time></trkpt><trkpt lat="45.9146677863684" lon="13.89315480401337"><ele>236.0</ele><time>2026-05-05T12:26:51Z</time></trkpt><trkpt lat="45.914670136028185" lon="13.893012262229613"><ele>236.0</ele><time>2026-05-05T12:26:52Z</time></trkpt><trkpt lat="45.914652186152566" lon="13.892863345817315"><ele>236.0</ele><time>2026-05-05T12:26:53Z</time></trkpt><trkpt lat="45.914630702056456" lon="13.892709263437839"><ele>236.0</ele><time>2026-05-05T12:26:54Z</time></trkpt><trkpt lat="45.91459315937312" lon="13.8925455673144"><ele>236.0</ele><time>2026-05-05T12:26:55Z</time></trkpt><trkpt lat="45.91456200759436" lon="13.892365960853043"><ele>236.0</ele><time>2026-05-05T12:26:56Z</time></trkpt><trkpt lat="45.9145383167523" lon="13.89218318239263"><ele>236.0</ele><time>2026-05-05T12:26:57Z</time></trkpt><trkpt lat="45.91452005176867" lon="13.89201086017822"><ele>236.0</ele><time>2026-05-05T12:26:58Z</time></trkpt><trkpt lat="45.91449648572778" lon="13.891840865852805"><ele>236.0</ele><time>2026-05-05T12:26:59Z</time></trkpt><trkpt lat="45.91447180112579" lon="13.891672518623801"><ele>235.0</ele><time>2026-05-05T12:27:00Z</time></trkpt><trkpt lat="45.914451848104335" lon="13.891505975524636"><ele>234.00000000000003</ele><time>2026-05-05T12:27:01Z</time></trkpt><trkpt lat="45.91442959137766" lon="13.891356059972354"><ele>233.00000000000003</ele><time>2026-05-05T12:27:02Z</time></trkpt><trkpt lat="45.91440516577641" lon="13.891233585446422"><ele>232.0</ele><time>2026-05-05T12:27:03Z</time></trkpt><trkpt lat="45.91438082484442" lon="13.891126507863115"><ele>231.0</ele><time>2026-05-05T12:27:04Z</time></trkpt><trkpt lat="45.91429580131527" lon="13.891063363758501"><ele>228.5</ele><time>2026-05-05T12:27:05Z</time></trkpt><trkpt lat="45.91420827930291" lon="13.89100345020681"><ele>226.0</ele><time>2026-05-05T12:27:06Z</time></trkpt><trkpt lat="45.91412924194951" lon="13.890938066187319"><ele>223.5</ele><time>2026-05-05T12:27:07Z</time></trkpt><trkpt lat="45.914053461495875" lon="13.890897207656764"><ele>221.0</ele><time>2026-05-05T12:27:08Z</time></trkpt><trkpt lat="45.91397185931237" lon="13.890891733225962"><ele>218.5</ele><time>2026-05-05T12:27:09Z</time></trkpt><trkpt lat="45.913891499906384" lon="13.890925773414882"><ele>216.0</ele><time>2026-05-05T12:27:10Z</time></trkpt><trkpt lat="45.91382038918734" lon="13.890996194351471"><ele>216.0</ele><time>2026-05-05T12:27:11Z</time></trkpt><trkpt lat="45.91377482500126" lon="13.891112024127986"><ele>216.00000000000003</ele><time>2026-05-05T12:27:12Z</time></trkpt><trkpt lat="45.91374607632444" lon="13.8912580935139"><ele>216.00000000000003</ele><time>2026-05-05T12:27:13Z</time></trkpt><trkpt lat="45.91371286330916" lon="13.89142155448717"><ele>216.0</ele><time>2026-05-05T12:27:14Z</time></trkpt><trkpt lat="45.913668573559015" lon="13.891587861711942"><ele>216.0</ele><time>2026-05-05T12:27:15Z</time></trkpt><trkpt lat="45.91361577152432" lon="13.891752567445954"><ele>216.75</ele><time>2026-05-05T12:27:16Z</time></trkpt><trkpt lat="45.91356519770158" lon="13.89190827916319"><ele>217.5</ele><time>2026-05-05T12:27:17Z</time></trkpt><trkpt lat="45.91350347362738" lon="13.892052420511064"><ele>218.25</ele><time>2026-05-05T12:27:18Z</time></trkpt><trkpt lat="45.91341786206046" lon="13.892163254230958"><ele>219.0</ele><time>2026-05-05T12:27:19Z</time></trkpt><trkpt lat="45.9133123417032" lon="13.89223436847211"><ele>214.5</ele><time>2026-05-05T12:27:20Z</time></trkpt><trkpt lat="45.913203295464164" lon="13.89227881278409"><ele>210.0</ele><time>2026-05-05T12:27:21Z</time></trkpt><trkpt lat="45.913089022048375" lon="13.892293828661018"><ele>205.5</ele><time>2026-05-05T12:27:22Z</time></trkpt><trkpt lat="45.91297661979058" lon="13.89223750140959"><ele>201.0</ele><time>2026-05-05T12:27:23Z</time></trkpt><trkpt lat="45.912853051959374" lon="13.8922018878771"><ele>201.0</ele><time>2026-05-05T12:27:24Z</time></trkpt><trkpt lat="45.91274180184736" lon="13.892112700299883"><ele>201.0</ele><time>2026-05-05T12:27:25Z</time></trkpt><trkpt lat="45.91263526665519" lon="13.89201774608476"><ele>201.0</ele><time>2026-05-05T12:27:26Z</time></trkpt><trkpt lat="45.912527598501654" lon="13.891930063658723"><ele>201.0</ele><time>2026-05-05T12:27:27Z</time></trkpt><trkpt lat="45.91241516668854" lon="13.891858704739375"><ele>198.75</ele><time>2026-05-05T12:27:28Z</time></trkpt><trkpt lat="45.912303801526015" lon="13.891805657168643"><ele>196.5</ele><time>2026-05-05T12:27:29Z</time></trkpt><trkpt lat="45.912187597404554" lon="13.89177917984859"><ele>194.25</ele><time>2026-05-05T12:27:30Z</time></trkpt><trkpt lat="45.91207453832476" lon="13.891789345962561"><ele>192.0</ele><time>2026-05-05T12:27:31Z</time></trkpt><trkpt lat="45.911947987227784" lon="13.891835945373613"><ele>192.0</ele><time>2026-05-05T12:27:32Z</time></trkpt><trkpt lat="45.91181514493995" lon="13.891883915665892"><ele>192.0</ele><time>2026-05-05T12:27:33Z</time></trkpt><trkpt lat="45.9116847044039" lon="13.891857975433982"><ele>192.0</ele><time>2026-05-05T12:27:34Z</time></trkpt><trkpt lat="45.911547931420074" lon="13.89181235457959"><ele>192.0</ele><time>2026-05-05T12:27:35Z</time></trkpt><trkpt lat="45.911402887156996" lon="13.891782337296624"><ele>189.33333333333334</ele><time>2026-05-05T12:27:36Z</time></trkpt><trkpt lat="45.91125707552481" lon="13.891723082661306"><ele>186.66666666666669</ele><time>2026-05-05T12:27:37Z</time></trkpt><trkpt lat="45.91110897038943" lon="13.891668994422808"><ele>184.0</ele><time>2026-05-05T12:27:38Z</time></trkpt><trkpt lat="45.910968211459306" lon="13.891605118576868"><ele>183.25</ele><time>2026-05-05T12:27:39Z</time></trkpt><trkpt lat="45.91084308797478" lon="13.891496098556926"><ele>182.5</ele><time>2026-05-05T12:27:40Z</time></trkpt><trkpt lat="45.91070379479905" lon="13.891419391532217"><ele>181.75</ele><time>2026-05-05T12:27:41Z</time></trkpt><trkpt lat="45.910581275016256" lon="13.891318117634757"><ele>181.0</ele><time>2026-05-05T12:27:42Z</time></trkpt><trkpt lat="45.910471711821174" lon="13.891237404846688"><ele>181.0</ele><time>2026-05-05T12:27:43Z</time></trkpt><trkpt lat="45.91039184290297" lon="13.891154581498482"><ele>181.0</ele><time>2026-05-05T12:27:44Z</time></trkpt><trkpt lat="45.910347693121295" lon="13.891049727774265"><ele>181.0</ele><time>2026-05-05T12:27:45Z</time></trkpt><trkpt lat="45.91034242905153" lon="13.89089914516008"><ele>181.0</ele><time>2026-05-05T12:27:46Z</time></trkpt><trkpt lat="45.91028859649186" lon="13.890773191492096"><ele>181.0</ele><time>2026-05-05T12:27:47Z</time></trkpt><trkpt lat="45.910133914861575" lon="13.890717449511664"><ele>179.33333333333334</ele><time>2026-05-05T12:27:48Z</time></trkpt><trkpt lat="45.909995504188906" lon="13.890644636997123"><ele>177.66666666666666</ele><time>2026-05-05T12:27:49Z</time></trkpt><trkpt lat="45.90985193582902" lon="13.890575689855885"><ele>176.0</ele><time>2026-05-05T12:27:50Z</time></trkpt><trkpt lat="45.90970302096954" lon="13.890506344418556"><ele>176.0</ele><time>2026-05-05T12:27:51Z</time></trkpt><trkpt lat="45.90956007719356" lon="13.890452260519792"><ele>176.0</ele><time>2026-05-05T12:27:52Z</time></trkpt><trkpt lat="45.90943556858339" lon="13.890421194727208"><ele>176.0</ele><time>2026-05-05T12:27:53Z</time></trkpt><trkpt lat="45.909316469698716" lon="13.89040090950626"><ele>176.0</ele><time>2026-05-05T12:27:54Z</time></trkpt><trkpt lat="45.90919967477336" lon="13.890403621438942"><ele>175.20000000000002</ele><time>2026-05-05T12:27:55Z</time></trkpt><trkpt lat="45.90909177889445" lon="13.890423704592385"><ele>174.4</ele><time>2026-05-05T12:27:56Z</time></trkpt><trkpt lat="45.90899625961554" lon="13.890456275559366"><ele>173.6</ele><time>2026-05-05T12:27:57Z</time></trkpt><trkpt lat="45.90890984437559" lon="13.890482331349064"><ele>172.8</ele><time>2026-05-05T12:27:58Z</time></trkpt><trkpt lat="45.90883028264154" lon="13.890475446712387"><ele>172.0</ele><time>2026-05-05T12:27:59Z</time></trkpt><trkpt lat="45.90875768724762" lon="13.890430738224792"><ele>172.0</ele><time>2026-05-05T12:28:00Z</time></trkpt><trkpt lat="45.908706261014196" lon="13.890351948568673"><ele>172.0</ele><time>2026-05-05T12:28:01Z</time></trkpt><trkpt lat="45.90866662147316" lon="13.890269116829298"><ele>172.0</ele><time>2026-05-05T12:28:02Z</time></trkpt><trkpt lat="45.90861961172362" lon="13.89018404404816"><ele>172.0</ele><time>2026-05-05T12:28:03Z</time></trkpt><trkpt lat="45.90855954125686" lon="13.890081485936438"><ele>172.0</ele><time>2026-05-05T12:28:04Z</time></trkpt><trkpt lat="45.908487035374" lon="13.889975982034679"><ele>172.0</ele><time>2026-05-05T12:28:05Z</time></trkpt><trkpt lat="45.90839680961074" lon="13.889876367909839"><ele>171.66666666666669</ele><time>2026-05-05T12:28:06Z</time></trkpt><trkpt lat="45.908264208989834" lon="13.889788452979728"><ele>171.33333333333334</ele><time>2026-05-05T12:28:07Z</time></trkpt><trkpt lat="45.90812953327352" lon="13.889684045115512"><ele>171.0</ele><time>2026-05-05T12:28:08Z</time></trkpt><trkpt lat="45.907971757549376" lon="13.88955264463207"><ele>171.0</ele><time>2026-05-05T12:28:09Z</time></trkpt><trkpt lat="45.90780720507114" lon="13.889391012000551"><ele>171.0</ele><time>2026-05-05T12:28:10Z</time></trkpt><trkpt lat="45.907641731415374" lon="13.889191267991936"><ele>171.0</ele><time>2026-05-05T12:28:11Z</time></trkpt><trkpt lat="45.90747558794537" lon="13.888984243511887"><ele>169.5</ele><time>2026-05-05T12:28:12Z</time></trkpt><trkpt lat="45.90730910251513" lon="13.888758314172199"><ele>168.0</ele><time>2026-05-05T12:28:13Z</time></trkpt><trkpt lat="45.90713082726855" lon="13.888561815474882"><ele>168.33333333333334</ele><time>2026-05-05T12:28:14Z</time></trkpt><trkpt lat="45.90695337256605" lon="13.888397976815705"><ele>168.66666666666669</ele><time>2026-05-05T12:28:15Z</time></trkpt><trkpt lat="45.90678479607053" lon="13.888250280493887"><ele>169.0</ele><time>2026-05-05T12:28:16Z</time></trkpt><trkpt lat="45.906632465939964" lon="13.888075992330956"><ele>169.0</ele><time>2026-05-05T12:28:17Z</time></trkpt><trkpt lat="45.90649446306354" lon="13.887891422995786"><ele>169.0</ele><time>2026-05-05T12:28:18Z</time></trkpt><trkpt lat="45.90635946042552" lon="13.887729403918627"><ele>169.0</ele><time>2026-05-05T12:28:19Z</time></trkpt><trkpt lat="45.90621040443815" lon="13.887612765337654"><ele>168.33333333333334</ele><time>2026-05-05T12:28:20Z</time></trkpt><trkpt lat="45.90604546730108" lon="13.887540486182006"><ele>167.66666666666666</ele><time>2026-05-05T12:28:21Z</time></trkpt><trkpt lat="45.90587344964425" lon="13.88744783029131"><ele>167.0</ele><time>2026-05-05T12:28:22Z</time></trkpt><trkpt lat="45.9057318103491" lon="13.887288203428971"><ele>167.0</ele><time>2026-05-05T12:28:23Z</time></trkpt><trkpt lat="45.905591535766774" lon="13.887119684622121"><ele>167.0</ele><time>2026-05-05T12:28:24Z</time></trkpt><trkpt lat="45.90546449728401" lon="13.886944911431565"><ele>167.0</ele><time>2026-05-05T12:28:25Z</time></trkpt><trkpt lat="45.90535912963704" lon="13.886761848589869"><ele>169.33333333333331</ele><time>2026-05-05T12:28:26Z</time></trkpt><trkpt lat="45.9052727950489" lon="13.886533477314261"><ele>171.66666666666666</ele><time>2026-05-05T12:28:27Z</time></trkpt><trkpt lat="45.90521820007995" lon="13.8863192280424"><ele>174.0</ele><time>2026-05-05T12:28:28Z</time></trkpt><trkpt lat="45.905140050275065" lon="13.88614077101695"><ele>173.0</ele><time>2026-05-05T12:28:29Z</time></trkpt><trkpt lat="45.90503883074411" lon="13.885994461821417"><ele>172.0</ele><time>2026-05-05T12:28:30Z</time></trkpt><trkpt lat="45.90491620981414" lon="13.885875441014877"><ele>171.0</ele><time>2026-05-05T12:28:31Z</time></trkpt><trkpt lat="45.90478200314272" lon="13.885761341105445"><ele>170.0</ele><time>2026-05-05T12:28:32Z</time></trkpt><trkpt lat="45.90464427768642" lon="13.885617567545758"><ele>170.0</ele><time>2026-05-05T12:28:33Z</time></trkpt><trkpt lat="45.90451174683318" lon="13.885449922032402"><ele>170.0</ele><time>2026-05-05T12:28:34Z</time></trkpt><trkpt lat="45.904397633455204" lon="13.885284886683113"><ele>170.0</ele><time>2026-05-05T12:28:35Z</time></trkpt><trkpt lat="45.90429462741003" lon="13.885122859306513"><ele>170.0</ele><time>2026-05-05T12:28:36Z</time></trkpt><trkpt lat="45.90419942409758" lon="13.884950514269114"><ele>170.0</ele><time>2026-05-05T12:28:37Z</time></trkpt><trkpt lat="45.904096253185976" lon="13.884795706465763"><ele>170.0</ele><time>2026-05-05T12:28:38Z</time></trkpt><trkpt lat="45.90402260616867" lon="13.884615040585711"><ele>170.0</ele><time>2026-05-05T12:28:39Z</time></trkpt><trkpt lat="45.90400448069245" lon="13.884401701511063"><ele>170.75</ele><time>2026-05-05T12:28:40Z</time></trkpt><trkpt lat="45.903936216608365" lon="13.88422115275096"><ele>171.5</ele><time>2026-05-05T12:28:41Z</time></trkpt><trkpt lat="45.903835954554665" lon="13.884075792547518"><ele>172.25</ele><time>2026-05-05T12:28:42Z</time></trkpt><trkpt lat="45.90374695295094" lon="13.883903725993934"><ele>173.0</ele><time>2026-05-05T12:28:43Z</time></trkpt><trkpt lat="45.903649734486244" lon="13.883771437462741"><ele>173.0</ele><time>2026-05-05T12:28:44Z</time></trkpt><trkpt lat="45.90355637677661" lon="13.883654149478522"><ele>173.0</ele><time>2026-05-05T12:28:45Z</time></trkpt><trkpt lat="45.903471834848816" lon="13.88353323753091"><ele>173.0</ele><time>2026-05-05T12:28:46Z</time></trkpt><trkpt lat="45.90340069559915" lon="13.883404837254913"><ele>173.0</ele><time>2026-05-05T12:28:47Z</time></trkpt><trkpt lat="45.9033397916193" lon="13.883261069250977"><ele>171.5</ele><time>2026-05-05T12:28:48Z</time></trkpt><trkpt lat="45.90327711696254" lon="13.883118779524887"><ele>170.0</ele><time>2026-05-05T12:28:49Z</time></trkpt><trkpt lat="45.90320611603474" lon="13.882984944997766"><ele>168.5</ele><time>2026-05-05T12:28:50Z</time></trkpt><trkpt lat="45.90311268195431" lon="13.882885654902243"><ele>167.0</ele><time>2026-05-05T12:28:51Z</time></trkpt><trkpt lat="45.90303777745344" lon="13.88276919810592"><ele>167.0</ele><time>2026-05-05T12:28:52Z</time></trkpt><trkpt lat="45.90295885531869" lon="13.882656155943085"><ele>167.0</ele><time>2026-05-05T12:28:53Z</time></trkpt><trkpt lat="45.90288678272102" lon="13.88254667336752"><ele>167.0</ele><time>2026-05-05T12:28:54Z</time></trkpt><trkpt lat="45.902819557244754" lon="13.882436471419329"><ele>167.0</ele><time>2026-05-05T12:28:55Z</time></trkpt><trkpt lat="45.9027533025201" lon="13.882326472343172"><ele>167.0</ele><time>2026-05-05T12:28:56Z</time></trkpt><trkpt lat="45.90268827739875" lon="13.882215312411088"><ele>167.2</ele><time>2026-05-05T12:28:57Z</time></trkpt><trkpt lat="45.9026220832754" lon="13.882100863893603"><ele>167.39999999999998</ele><time>2026-05-05T12:28:58Z</time></trkpt><trkpt lat="45.9025573126673" lon="13.881975191309337"><ele>167.60000000000002</ele><time>2026-05-05T12:28:59Z</time></trkpt><trkpt lat="45.90249474901541" lon="13.881833247412425"><ele>167.8</ele><time>2026-05-05T12:29:00Z</time></trkpt><trkpt lat="45.90241679064488" lon="13.881709566445574"><ele>168.0</ele><time>2026-05-05T12:29:01Z</time></trkpt><trkpt lat="45.90234119731807" lon="13.881570995668042"><ele>166.75</ele><time>2026-05-05T12:29:02Z</time></trkpt><trkpt lat="45.90225434274072" lon="13.881434889059548"><ele>165.5</ele><time>2026-05-05T12:29:03Z</time></trkpt><trkpt lat="45.90215231488104" lon="13.881304113985662"><ele>164.25</ele><time>2026-05-05T12:29:04Z</time></trkpt><trkpt lat="45.90204252866919" lon="13.881164311675679"><ele>163.0</ele><time>2026-05-05T12:29:05Z</time></trkpt><trkpt lat="45.90194431832974" lon="13.881028009153997"><ele>163.0</ele><time>2026-05-05T12:29:06Z</time></trkpt><trkpt lat="45.9018617352861" lon="13.880890390161241"><ele>163.0</ele><time>2026-05-05T12:29:07Z</time></trkpt><trkpt lat="45.90179218339491" lon="13.880769606711604"><ele>163.0</ele><time>2026-05-05T12:29:08Z</time></trkpt><trkpt lat="45.90173061369418" lon="13.880657686242492"><ele>163.0</ele><time>2026-05-05T12:29:09Z</time></trkpt><trkpt lat="45.90167897966532" lon="13.880554694769783"><ele>163.0</ele><time>2026-05-05T12:29:10Z</time></trkpt><trkpt lat="45.90163517922887" lon="13.880460181952934"><ele>163.0</ele><time>2026-05-05T12:29:11Z</time></trkpt><trkpt lat="45.9015722878336" lon="13.880369117858454"><ele>163.0</ele><time>2026-05-05T12:29:13Z</time></trkpt><trkpt lat="45.901403156871204" lon="13.880529503521755"><ele>163.0</ele><time>2026-05-05T12:29:14Z</time></trkpt><trkpt lat="45.90131278988733" lon="13.88061424379902"><ele>163.0</ele><time>2026-05-05T12:29:15Z</time></trkpt><trkpt lat="45.90121660471674" lon="13.880720045531728"><ele>163.0</ele><time>2026-05-05T12:29:16Z</time></trkpt><trkpt lat="45.90110833653171" lon="13.880821863313772"><ele>163.0</ele><time>2026-05-05T12:29:17Z</time></trkpt><trkpt lat="45.900993307923265" lon="13.880922775122123"><ele>163.0</ele><time>2026-05-05T12:29:18Z</time></trkpt><trkpt lat="45.90087049029514" lon="13.881031527079031"><ele>163.0</ele><time>2026-05-05T12:29:19Z</time></trkpt><trkpt lat="45.900741576336834" lon="13.881153790838455"><ele>161.33333333333334</ele><time>2026-05-05T12:29:20Z</time></trkpt><trkpt lat="45.900593446229536" lon="13.881283642228174"><ele>159.66666666666666</ele><time>2026-05-05T12:29:21Z</time></trkpt><trkpt lat="45.90044628120586" lon="13.881446151648314"><ele>158.0</ele><time>2026-05-05T12:29:22Z</time></trkpt><trkpt lat="45.9002955598802" lon="13.881611769857889"><ele>157.66666666666666</ele><time>2026-05-05T12:29:23Z</time></trkpt><trkpt lat="45.90015171387537" lon="13.8817835284245"><ele>157.33333333333334</ele><time>2026-05-05T12:29:24Z</time></trkpt><trkpt lat="45.900008880942714" lon="13.881955120488188"><ele>157.0</ele><time>2026-05-05T12:29:25Z</time></trkpt><trkpt lat="45.899860783620305" lon="13.8821263139466"><ele>155.33333333333334</ele><time>2026-05-05T12:29:26Z</time></trkpt><trkpt lat="45.89971634096824" lon="13.88228989752883"><ele>153.66666666666666</ele><time>2026-05-05T12:29:27Z</time></trkpt><trkpt lat="45.89958087580757" lon="13.882444838465318"><ele>152.0</ele><time>2026-05-05T12:29:28Z</time></trkpt><trkpt lat="45.89945584129954" lon="13.882583588244172"><ele>152.0</ele><time>2026-05-05T12:29:29Z</time></trkpt><trkpt lat="45.89933684467809" lon="13.882709546452169"><ele>152.0</ele><time>2026-05-05T12:29:30Z</time></trkpt><trkpt lat="45.89922416191287" lon="13.882831999754373"><ele>152.0</ele><time>2026-05-05T12:29:31Z</time></trkpt><trkpt lat="45.89911319755138" lon="13.882953035725237"><ele>152.0</ele><time>2026-05-05T12:29:32Z</time></trkpt><trkpt lat="45.89900180000446" lon="13.883074757774546"><ele>151.5</ele><time>2026-05-05T12:29:33Z</time></trkpt><trkpt lat="45.89889339150731" lon="13.883187791444417"><ele>151.0</ele><time>2026-05-05T12:29:34Z</time></trkpt><trkpt lat="45.89878638619447" lon="13.883299223619685"><ele>150.5</ele><time>2026-05-05T12:29:35Z</time></trkpt><trkpt lat="45.89868529004019" lon="13.883403324845741"><ele>150.0</ele><time>2026-05-05T12:29:36Z</time></trkpt><trkpt lat="45.89858979657725" lon="13.883499180891352"><ele>149.83333333333334</ele><time>2026-05-05T12:29:37Z</time></trkpt><trkpt lat="45.89851171605344" lon="13.8835785757069"><ele>149.66666666666666</ele><time>2026-05-05T12:29:38Z</time></trkpt><trkpt lat="45.89844709714977" lon="13.883639885219445"><ele>149.5</ele><time>2026-05-05T12:29:39Z</time></trkpt><trkpt lat="45.89839361883815" lon="13.883692852116631"><ele>149.33333333333331</ele><time>2026-05-05T12:29:40Z</time></trkpt><trkpt lat="45.898300943174576" lon="13.883750366225046"><ele>149.16666666666666</ele><time>2026-05-05T12:29:42Z</time></trkpt><trkpt lat="45.89832550247152" lon="13.88363901782464"><ele>149.0</ele><time>2026-05-05T12:29:45Z</time></trkpt><trkpt lat="45.89836231228499" lon="13.883512434961002"><ele>149.2</ele><time>2026-05-05T12:29:47Z</time></trkpt><trkpt lat="45.89839989621645" lon="13.883410028717115"><ele>149.4</ele><time>2026-05-05T12:29:48Z</time></trkpt><trkpt lat="45.89845160878578" lon="13.88327552328813"><ele>149.6</ele><time>2026-05-05T12:29:49Z</time></trkpt><trkpt lat="45.898495684407095" lon="13.883118505865232"><ele>149.8</ele><time>2026-05-05T12:29:50Z</time></trkpt><trkpt lat="45.89858318614389" lon="13.882967202083941"><ele>150.0</ele><time>2026-05-05T12:29:51Z</time></trkpt><trkpt lat="45.89864312767351" lon="13.882798494720193"><ele>150.0</ele><time>2026-05-05T12:29:52Z</time></trkpt><trkpt lat="45.89871403053001" lon="13.88266003958832"><ele>150.0</ele><time>2026-05-05T12:29:53Z</time></trkpt><trkpt lat="45.89875751026362" lon="13.882508785133037"><ele>150.0</ele><time>2026-05-05T12:29:54Z</time></trkpt><trkpt lat="45.898786462329085" lon="13.882347120620949"><ele>150.0</ele><time>2026-05-05T12:29:55Z</time></trkpt><trkpt lat="45.898798888020046" lon="13.88218021338897"><ele>150.0</ele><time>2026-05-05T12:29:56Z</time></trkpt><trkpt lat="45.89879929163655" lon="13.882010881952098"><ele>150.0</ele><time>2026-05-05T12:29:57Z</time></trkpt><trkpt lat="45.89879436576715" lon="13.881842166531056"><ele>150.0</ele><time>2026-05-05T12:29:58Z</time></trkpt><trkpt lat="45.89879479997948" lon="13.881672466628562"><ele>150.0</ele><time>2026-05-05T12:29:59Z</time></trkpt><trkpt lat="45.89881740769036" lon="13.881510136039571"><ele>150.0</ele><time>2026-05-05T12:30:00Z</time></trkpt><trkpt lat="45.89884500854698" lon="13.881353092678962"><ele>150.0</ele><time>2026-05-05T12:30:01Z</time></trkpt><trkpt lat="45.8988752135728" lon="13.881191265086155"><ele>150.0</ele><time>2026-05-05T12:30:02Z</time></trkpt><trkpt lat="45.89892648075731" lon="13.881032250210046"><ele>150.0</ele><time>2026-05-05T12:30:03Z</time></trkpt><trkpt lat="45.898984097887734" lon="13.880869506704371"><ele>149.75</ele><time>2026-05-05T12:30:04Z</time></trkpt><trkpt lat="45.899058444393425" lon="13.880704184237237"><ele>149.5</ele><time>2026-05-05T12:30:05Z</time></trkpt><trkpt lat="45.899144057126236" lon="13.880538790403794"><ele>149.25</ele><time>2026-05-05T12:30:06Z</time></trkpt><trkpt lat="45.89921956889138" lon="13.880380757993832"><ele>149.0</ele><time>2026-05-05T12:30:07Z</time></trkpt><trkpt lat="45.89927993330968" lon="13.880201868385393"><ele>151.0</ele><time>2026-05-05T12:30:08Z</time></trkpt><trkpt lat="45.899320397745115" lon="13.880017738151937"><ele>153.0</ele><time>2026-05-05T12:30:09Z</time></trkpt><trkpt lat="45.89936199805033" lon="13.879841273207232"><ele>155.0</ele><time>2026-05-05T12:30:10Z</time></trkpt><trkpt lat="45.899420651539295" lon="13.879692703314957"><ele>157.0</ele><time>2026-05-05T12:30:11Z</time></trkpt><trkpt lat="45.89947782761863" lon="13.879539171169183"><ele>157.0</ele><time>2026-05-05T12:30:12Z</time></trkpt><trkpt lat="45.899521395983726" lon="13.879392565936502"><ele>157.0</ele><time>2026-05-05T12:30:13Z</time></trkpt><trkpt lat="45.89956093531147" lon="13.879238153346789"><ele>157.0</ele><time>2026-05-05T12:30:14Z</time></trkpt><trkpt lat="45.89959622817214" lon="13.879085013782426"><ele>157.0</ele><time>2026-05-05T12:30:15Z</time></trkpt><trkpt lat="45.89963146675844" lon="13.878941948968956"><ele>157.0</ele><time>2026-05-05T12:30:16Z</time></trkpt><trkpt lat="45.89965659634771" lon="13.878816965882264"><ele>157.33333333333334</ele><time>2026-05-05T12:30:17Z</time></trkpt><trkpt lat="45.89966959252522" lon="13.878723073665862"><ele>157.66666666666669</ele><time>2026-05-05T12:30:18Z</time></trkpt><trkpt lat="45.89971138322882" lon="13.878637287401496"><ele>158.0</ele><time>2026-05-05T12:30:20Z</time></trkpt><trkpt lat="45.89972649300364" lon="13.878543286646913"><ele>158.33333333333334</ele><time>2026-05-05T12:30:22Z</time></trkpt><trkpt lat="45.89968928930455" lon="13.878363563732337"><ele>158.66666666666666</ele><time>2026-05-05T12:30:24Z</time></trkpt><trkpt lat="45.89964371368425" lon="13.878228334220156"><ele>159.0</ele><time>2026-05-05T12:30:25Z</time></trkpt><trkpt lat="45.899576932732096" lon="13.878081781114773"><ele>159.25</ele><time>2026-05-05T12:30:26Z</time></trkpt><trkpt lat="45.89949284139202" lon="13.877944175764268"><ele>159.5</ele><time>2026-05-05T12:30:27Z</time></trkpt><trkpt lat="45.89941680285242" lon="13.877768659863678"><ele>159.75</ele><time>2026-05-05T12:30:28Z</time></trkpt><trkpt lat="45.89932762751805" lon="13.87760315151514"><ele>160.0</ele><time>2026-05-05T12:30:29Z</time></trkpt><trkpt lat="45.89924163136879" lon="13.877443543660583"><ele>158.5</ele><time>2026-05-05T12:30:30Z</time></trkpt><trkpt lat="45.89916383417572" lon="13.877300684255966"><ele>157.0</ele><time>2026-05-05T12:30:31Z</time></trkpt><trkpt lat="45.8990732322985" lon="13.877172990003613"><ele>155.5</ele><time>2026-05-05T12:30:32Z</time></trkpt><trkpt lat="45.89899935806788" lon="13.877019051520087"><ele>154.0</ele><time>2026-05-05T12:30:33Z</time></trkpt><trkpt lat="45.89891578114167" lon="13.876865492289026"><ele>154.5</ele><time>2026-05-05T12:30:34Z</time></trkpt><trkpt lat="45.89882843823876" lon="13.876705080299471"><ele>155.0</ele><time>2026-05-05T12:30:35Z</time></trkpt><trkpt lat="45.89874260369446" lon="13.87654164641712"><ele>155.5</ele><time>2026-05-05T12:30:36Z</time></trkpt><trkpt lat="45.89865682245678" lon="13.876381727693097"><ele>156.0</ele><time>2026-05-05T12:30:37Z</time></trkpt><trkpt lat="45.898578261872196" lon="13.876225362690484"><ele>156.0</ele><time>2026-05-05T12:30:38Z</time></trkpt><trkpt lat="45.89850288742304" lon="13.876067763396808"><ele>156.0</ele><time>2026-05-05T12:30:39Z</time></trkpt><trkpt lat="45.898429830331615" lon="13.87591087280223"><ele>156.0</ele><time>2026-05-05T12:30:40Z</time></trkpt><trkpt lat="45.898354833791394" lon="13.875755271268945"><ele>156.0</ele><time>2026-05-05T12:30:41Z</time></trkpt><trkpt lat="45.89829110605963" lon="13.87562053622022"><ele>154.5</ele><time>2026-05-05T12:30:42Z</time></trkpt><trkpt lat="45.89822914160806" lon="13.875483845806519"><ele>153.0</ele><time>2026-05-05T12:30:43Z</time></trkpt><trkpt lat="45.89816019557852" lon="13.875332630764673"><ele>151.5</ele><time>2026-05-05T12:30:44Z</time></trkpt><trkpt lat="45.898086056809156" lon="13.875180714049295"><ele>150.0</ele><time>2026-05-05T12:30:45Z</time></trkpt><trkpt lat="45.89800871087137" lon="13.875022258500563"><ele>150.0</ele><time>2026-05-05T12:30:46Z</time></trkpt><trkpt lat="45.897927024909634" lon="13.874850634878502"><ele>150.0</ele><time>2026-05-05T12:30:47Z</time></trkpt><trkpt lat="45.89784203735775" lon="13.874681311223702"><ele>150.0</ele><time>2026-05-05T12:30:48Z</time></trkpt><trkpt lat="45.897764658229924" lon="13.87450185250625"><ele>150.0</ele><time>2026-05-05T12:30:49Z</time></trkpt><trkpt lat="45.89766474320837" lon="13.874349481142715"><ele>150.0</ele><time>2026-05-05T12:30:50Z</time></trkpt><trkpt lat="45.89755262526166" lon="13.874214961226897"><ele>150.0</ele><time>2026-05-05T12:30:51Z</time></trkpt><trkpt lat="45.8974457393349" lon="13.874108569529493"><ele>150.0</ele><time>2026-05-05T12:30:52Z</time></trkpt><trkpt lat="45.897377046718574" lon="13.87397197745595"><ele>150.0</ele><time>2026-05-05T12:30:53Z</time></trkpt><trkpt lat="45.89730379725966" lon="13.873825951943406"><ele>150.0</ele><time>2026-05-05T12:30:54Z</time></trkpt><trkpt lat="45.8972378058841" lon="13.873670252679773"><ele>150.0</ele><time>2026-05-05T12:30:55Z</time></trkpt><trkpt lat="45.897156257305454" lon="13.87351281945225"><ele>150.0</ele><time>2026-05-05T12:30:56Z</time></trkpt><trkpt lat="45.89709656320194" lon="13.873347427048815"><ele>150.0</ele><time>2026-05-05T12:30:57Z</time></trkpt><trkpt lat="45.89701766505114" lon="13.873187327988875"><ele>151.0</ele><time>2026-05-05T12:30:58Z</time></trkpt><trkpt lat="45.896932003351225" lon="13.873031587086034"><ele>152.0</ele><time>2026-05-05T12:30:59Z</time></trkpt><trkpt lat="45.896825282975364" lon="13.872911873488283"><ele>153.0</ele><time>2026-05-05T12:31:00Z</time></trkpt><trkpt lat="45.89672587398531" lon="13.872777712408912"><ele>154.0</ele><time>2026-05-05T12:31:01Z</time></trkpt><trkpt lat="45.896625700572216" lon="13.872638779118496"><ele>153.75</ele><time>2026-05-05T12:31:02Z</time></trkpt><trkpt lat="45.8965183591923" lon="13.872515089388246"><ele>153.5</ele><time>2026-05-05T12:31:03Z</time></trkpt><trkpt lat="45.89640792631531" lon="13.872370826236779"><ele>153.25</ele><time>2026-05-05T12:31:04Z</time></trkpt><trkpt lat="45.896287331173745" lon="13.872221844731408"><ele>153.0</ele><time>2026-05-05T12:31:05Z</time></trkpt><trkpt lat="45.89616184196897" lon="13.872058260795942"><ele>153.0</ele><time>2026-05-05T12:31:06Z</time></trkpt><trkpt lat="45.896032970382784" lon="13.871890010286664"><ele>153.0</ele><time>2026-05-05T12:31:07Z</time></trkpt><trkpt lat="45.89590152553906" lon="13.871720605381826"><ele>153.0</ele><time>2026-05-05T12:31:08Z</time></trkpt><trkpt lat="45.89576530861444" lon="13.87154416738684"><ele>153.0</ele><time>2026-05-05T12:31:09Z</time></trkpt><trkpt lat="45.8956194331325" lon="13.871356163633383"><ele>153.0</ele><time>2026-05-05T12:31:10Z</time></trkpt><trkpt lat="45.895468842967844" lon="13.871162066226635"><ele>153.0</ele><time>2026-05-05T12:31:11Z</time></trkpt><trkpt lat="45.89530842907784" lon="13.870956045365768"><ele>154.5</ele><time>2026-05-05T12:31:12Z</time></trkpt><trkpt lat="45.8951315912294" lon="13.870727306610972"><ele>156.0</ele><time>2026-05-05T12:31:13Z</time></trkpt><trkpt lat="45.89495013089047" lon="13.87049727351745"><ele>156.66666666666666</ele><time>2026-05-05T12:31:14Z</time></trkpt><trkpt lat="45.89479570391488" lon="13.870301593067872"><ele>157.33333333333331</ele><time>2026-05-05T12:31:15Z</time></trkpt><trkpt lat="45.894659953165394" lon="13.87012447181711"><ele>158.0</ele><time>2026-05-05T12:31:16Z</time></trkpt><trkpt lat="45.894533459185" lon="13.869965280463743"><ele>158.0</ele><time>2026-05-05T12:31:17Z</time></trkpt><trkpt lat="45.89441161480537" lon="13.869810940641983"><ele>158.0</ele><time>2026-05-05T12:31:18Z</time></trkpt><trkpt lat="45.89429514415126" lon="13.86966179830605"><ele>158.0</ele><time>2026-05-05T12:31:19Z</time></trkpt><trkpt lat="45.89416889857412" lon="13.86950638817899"><ele>158.33333333333331</ele><time>2026-05-05T12:31:20Z</time></trkpt><trkpt lat="45.8940346454021" lon="13.869340669216799"><ele>158.66666666666666</ele><time>2026-05-05T12:31:21Z</time></trkpt><trkpt lat="45.89391079965654" lon="13.869148610809807"><ele>159.0</ele><time>2026-05-05T12:31:22Z</time></trkpt><trkpt lat="45.8937615661092" lon="13.868963119470587"><ele>159.33333333333334</ele><time>2026-05-05T12:31:23Z</time></trkpt><trkpt lat="45.893606686041245" lon="13.868780655134373"><ele>159.66666666666669</ele><time>2026-05-05T12:31:24Z</time></trkpt><trkpt lat="45.89344743857476" lon="13.868599952976876"><ele>160.0</ele><time>2026-05-05T12:31:25Z</time></trkpt><trkpt lat="45.893293824999155" lon="13.86843228462839"><ele>157.66666666666669</ele><time>2026-05-05T12:31:26Z</time></trkpt><trkpt lat="45.89315037926818" lon="13.868273659356626"><ele>155.33333333333334</ele><time>2026-05-05T12:31:27Z</time></trkpt><trkpt lat="45.89300255876533" lon="13.868121170890385"><ele>153.0</ele><time>2026-05-05T12:31:28Z</time></trkpt><trkpt lat="45.89284720417303" lon="13.867992901888679"><ele>153.0</ele><time>2026-05-05T12:31:29Z</time></trkpt><trkpt lat="45.892694408443305" lon="13.867894058846318"><ele>153.0</ele><time>2026-05-05T12:31:30Z</time></trkpt><trkpt lat="45.89256247530912" lon="13.867787803578308"><ele>153.0</ele><time>2026-05-05T12:31:31Z</time></trkpt><trkpt lat="45.8924549535978" lon="13.867697460569508"><ele>153.0</ele><time>2026-05-05T12:31:32Z</time></trkpt><trkpt lat="45.89236411359026" lon="13.867617026269645"><ele>150.0</ele><time>2026-05-05T12:31:33Z</time></trkpt><trkpt lat="45.8922839677768" lon="13.867536505137663"><ele>147.0</ele><time>2026-05-05T12:31:34Z</time></trkpt><trkpt lat="45.89218766538815" lon="13.86749921360169"><ele>144.0</ele><time>2026-05-05T12:31:35Z</time></trkpt><trkpt lat="45.89207885490341" lon="13.867516387557197"><ele>141.0</ele><time>2026-05-05T12:31:36Z</time></trkpt><trkpt lat="45.89197323694621" lon="13.867635263590422"><ele>138.0</ele><time>2026-05-05T12:31:37Z</time></trkpt><trkpt lat="45.89185815323734" lon="13.86775423293485"><ele>135.75</ele><time>2026-05-05T12:31:38Z</time></trkpt><trkpt lat="45.891745400295946" lon="13.867879599044011"><ele>133.5</ele><time>2026-05-05T12:31:39Z</time></trkpt><trkpt lat="45.89162857850855" lon="13.867982559360556"><ele>131.25</ele><time>2026-05-05T12:31:40Z</time></trkpt><trkpt lat="45.891530693068354" lon="13.868103737435392"><ele>129.0</ele><time>2026-05-05T12:31:41Z</time></trkpt><trkpt lat="45.89143954636676" lon="13.868221888369964"><ele>129.0</ele><time>2026-05-05T12:31:42Z</time></trkpt><trkpt lat="45.89133933215211" lon="13.868309844567047"><ele>129.0</ele><time>2026-05-05T12:31:43Z</time></trkpt><trkpt lat="45.891212897165694" lon="13.868359819369212"><ele>129.0</ele><time>2026-05-05T12:31:44Z</time></trkpt><trkpt lat="45.89106220526096" lon="13.868322078791193"><ele>129.0</ele><time>2026-05-05T12:31:45Z</time></trkpt><trkpt lat="45.890904406761685" lon="13.868299531728457"><ele>126.66666666666666</ele><time>2026-05-05T12:31:46Z</time></trkpt><trkpt lat="45.89072372258634" lon="13.868287107791508"><ele>124.33333333333333</ele><time>2026-05-05T12:31:47Z</time></trkpt><trkpt lat="45.890542950710795" lon="13.86824556062025"><ele>122.0</ele><time>2026-05-05T12:31:48Z</time></trkpt><trkpt lat="45.89035165401425" lon="13.868196957883747"><ele>122.0</ele><time>2026-05-05T12:31:49Z</time></trkpt><trkpt lat="45.89016731498406" lon="13.868145618095127"><ele>122.0</ele><time>2026-05-05T12:31:50Z</time></trkpt><trkpt lat="45.88998610431306" lon="13.868085375215255"><ele>122.0</ele><time>2026-05-05T12:31:51Z</time></trkpt><trkpt lat="45.88980491242125" lon="13.868024331174587"><ele>120.66666666666666</ele><time>2026-05-05T12:31:52Z</time></trkpt><trkpt lat="45.88963739164142" lon="13.867947093137548"><ele>119.33333333333334</ele><time>2026-05-05T12:31:53Z</time></trkpt><trkpt lat="45.88947852459526" lon="13.867891494507505"><ele>118.0</ele><time>2026-05-05T12:31:54Z</time></trkpt><trkpt lat="45.88931711747797" lon="13.867856304251035"><ele>118.0</ele><time>2026-05-05T12:31:55Z</time></trkpt><trkpt lat="45.8891672130415" lon="13.867783470887987"><ele>118.0</ele><time>2026-05-05T12:31:56Z</time></trkpt><trkpt lat="45.88903138854118" lon="13.867691020453336"><ele>118.0</ele><time>2026-05-05T12:31:57Z</time></trkpt><trkpt lat="45.88893261481866" lon="13.867543770498674"><ele>118.0</ele><time>2026-05-05T12:31:58Z</time></trkpt><trkpt lat="45.888847032608254" lon="13.867394126406984"><ele>118.0</ele><time>2026-05-05T12:31:59Z</time></trkpt><trkpt lat="45.88874233384035" lon="13.867266344336489"><ele>118.0</ele><time>2026-05-05T12:32:00Z</time></trkpt><trkpt lat="45.888653120084854" lon="13.867112564432457"><ele>118.0</ele><time>2026-05-05T12:32:01Z</time></trkpt><trkpt lat="45.88855547020437" lon="13.866960921783631"><ele>118.0</ele><time>2026-05-05T12:32:02Z</time></trkpt><trkpt lat="45.888459705139496" lon="13.866802226572217"><ele>118.0</ele><time>2026-05-05T12:32:03Z</time></trkpt><trkpt lat="45.88836701849182" lon="13.866637638239231"><ele>118.0</ele><time>2026-05-05T12:32:04Z</time></trkpt><trkpt lat="45.88827865051843" lon="13.866477507435095"><ele>118.0</ele><time>2026-05-05T12:32:05Z</time></trkpt><trkpt lat="45.88819552166715" lon="13.866332604552136"><ele>118.4</ele><time>2026-05-05T12:32:06Z</time></trkpt><trkpt lat="45.888110887876444" lon="13.86620911558161"><ele>118.80000000000001</ele><time>2026-05-05T12:32:07Z</time></trkpt><trkpt lat="45.88802468456721" lon="13.866095074917483"><ele>119.2</ele><time>2026-05-05T12:32:08Z</time></trkpt><trkpt lat="45.88794855291179" lon="13.865993717009605"><ele>119.6</ele><time>2026-05-05T12:32:09Z</time></trkpt><trkpt lat="45.88787785219064" lon="13.865905295198495"><ele>120.0</ele><time>2026-05-05T12:32:10Z</time></trkpt><trkpt lat="45.88782382305309" lon="13.86583655228544"><ele>120.16666666666667</ele><time>2026-05-05T12:32:11Z</time></trkpt><trkpt lat="45.88777345187242" lon="13.865768103710904"><ele>120.33333333333334</ele><time>2026-05-05T12:32:13Z</time></trkpt><trkpt lat="45.887724159170425" lon="13.865708502990302"><ele>120.5</ele><time>2026-05-05T12:32:17Z</time></trkpt><trkpt lat="45.88767397675994" lon="13.86563808901527"><ele>120.66666666666667</ele><time>2026-05-05T12:32:19Z</time></trkpt><trkpt lat="45.88773013294312" lon="13.865464409863034"><ele>120.83333333333334</ele><time>2026-05-05T12:32:21Z</time></trkpt><trkpt lat="45.887763908525066" lon="13.865348009847096"><ele>121.0</ele><time>2026-05-05T12:32:22Z</time></trkpt><trkpt lat="45.887792358112115" lon="13.865203221186782"><ele>121.33333333333334</ele><time>2026-05-05T12:32:23Z</time></trkpt><trkpt lat="45.88786485768386" lon="13.86502067611501"><ele>121.66666666666666</ele><time>2026-05-05T12:32:24Z</time></trkpt><trkpt lat="45.88794799213766" lon="13.864791090941027"><ele>122.0</ele><time>2026-05-05T12:32:25Z</time></trkpt><trkpt lat="45.88803128685543" lon="13.864554444825524"><ele>122.0</ele><time>2026-05-05T12:32:26Z</time></trkpt><trkpt lat="45.888098173549146" lon="13.86435714035991"><ele>122.0</ele><time>2026-05-05T12:32:27Z</time></trkpt><trkpt lat="45.888153731474674" lon="13.864170561724718"><ele>122.0</ele><time>2026-05-05T12:32:28Z</time></trkpt><trkpt lat="45.88819006897342" lon="13.864009102657592"><ele>122.0</ele><time>2026-05-05T12:32:29Z</time></trkpt><trkpt lat="45.88822175801016" lon="13.863849902606502"><ele>122.0</ele><time>2026-05-05T12:32:30Z</time></trkpt><trkpt lat="45.888253296448504" lon="13.863686559433217"><ele>122.0</ele><time>2026-05-05T12:32:31Z</time></trkpt><trkpt lat="45.88828517348569" lon="13.86352034904095"><ele>122.0</ele><time>2026-05-05T12:32:32Z</time></trkpt><trkpt lat="45.8883161450256" lon="13.863359056352817"><ele>122.0</ele><time>2026-05-05T12:32:33Z</time></trkpt><trkpt lat="45.888350092980886" lon="13.86319943228175"><ele>122.0</ele><time>2026-05-05T12:32:34Z</time></trkpt><trkpt lat="45.888382113186644" lon="13.863032133779095"><ele>122.0</ele><time>2026-05-05T12:32:35Z</time></trkpt><trkpt lat="45.88842304409208" lon="13.862861277617675"><ele>122.0</ele><time>2026-05-05T12:32:36Z</time></trkpt><trkpt lat="45.88845660153814" lon="13.862684640790897"><ele>122.0</ele><time>2026-05-05T12:32:37Z</time></trkpt><trkpt lat="45.88849222141433" lon="13.862514827668988"><ele>122.75</ele><time>2026-05-05T12:32:38Z</time></trkpt><trkpt lat="45.88853072454334" lon="13.862351489365256"><ele>123.5</ele><time>2026-05-05T12:32:39Z</time></trkpt><trkpt lat="45.888569339051976" lon="13.862187721416452"><ele>124.25</ele><time>2026-05-05T12:32:40Z</time></trkpt><trkpt lat="45.88860784436524" lon="13.862022303310498"><ele>125.0</ele><time>2026-05-05T12:32:41Z</time></trkpt><trkpt lat="45.88864508160819" lon="13.861856936129842"><ele>124.5</ele><time>2026-05-05T12:32:42Z</time></trkpt><trkpt lat="45.88868047868435" lon="13.861688709269755"><ele>124.0</ele><time>2026-05-05T12:32:43Z</time></trkpt><trkpt lat="45.88871813621442" lon="13.86152368501903"><ele>123.5</ele><time>2026-05-05T12:32:44Z</time></trkpt><trkpt lat="45.88876018083535" lon="13.86135042049381"><ele>123.0</ele><time>2026-05-05T12:32:45Z</time></trkpt><trkpt lat="45.88880296089329" lon="13.86116166096515"><ele>123.0</ele><time>2026-05-05T12:32:46Z</time></trkpt><trkpt lat="45.888834790550355" lon="13.860958984428049"><ele>123.0</ele><time>2026-05-05T12:32:47Z</time></trkpt><trkpt lat="45.88884014143408" lon="13.860740274472178"><ele>123.0</ele><time>2026-05-05T12:32:48Z</time></trkpt><trkpt lat="45.88881709263206" lon="13.86050432644465"><ele>123.0</ele><time>2026-05-05T12:32:49Z</time></trkpt><trkpt lat="45.888770227974874" lon="13.86025123164945"><ele>123.0</ele><time>2026-05-05T12:32:50Z</time></trkpt><trkpt lat="45.88870945919867" lon="13.859980768250175"><ele>123.0</ele><time>2026-05-05T12:32:51Z</time></trkpt><trkpt lat="45.88864704480417" lon="13.859702065249595"><ele>122.66666666666666</ele><time>2026-05-05T12:32:52Z</time></trkpt><trkpt lat="45.888588812596794" lon="13.859412911657783"><ele>122.33333333333333</ele><time>2026-05-05T12:32:53Z</time></trkpt><trkpt lat="45.88852400141207" lon="13.85912207918517"><ele>122.0</ele><time>2026-05-05T12:32:54Z</time></trkpt><trkpt lat="45.88844202287499" lon="13.858841976443152"><ele>121.0</ele><time>2026-05-05T12:32:55Z</time></trkpt><trkpt lat="45.88834152569708" lon="13.858568144788114"><ele>120.0</ele><time>2026-05-05T12:32:56Z</time></trkpt><trkpt lat="45.888233031007424" lon="13.858319192820545"><ele>119.0</ele><time>2026-05-05T12:32:57Z</time></trkpt><trkpt lat="45.88812132650292" lon="13.858064001616844"><ele>119.0</ele><time>2026-05-05T12:32:58Z</time></trkpt><trkpt lat="45.88802037159983" lon="13.857807911507741"><ele>119.0</ele><time>2026-05-05T12:32:59Z</time></trkpt><trkpt lat="45.887954774155695" lon="13.857529808107529"><ele>119.0</ele><time>2026-05-05T12:33:00Z</time></trkpt><trkpt lat="45.887894686589824" lon="13.857246971938602"><ele>119.66666666666666</ele><time>2026-05-05T12:33:01Z</time></trkpt><trkpt lat="45.88785192903097" lon="13.85697698961009"><ele>120.33333333333334</ele><time>2026-05-05T12:33:02Z</time></trkpt><trkpt lat="45.88780902502376" lon="13.856704797594407"><ele>121.0</ele><time>2026-05-05T12:33:03Z</time></trkpt><trkpt lat="45.88779106398113" lon="13.85642452312678"><ele>122.66666666666667</ele><time>2026-05-05T12:33:04Z</time></trkpt><trkpt lat="45.887783763347855" lon="13.856150824627607"><ele>124.33333333333334</ele><time>2026-05-05T12:33:05Z</time></trkpt><trkpt lat="45.887784390966566" lon="13.855885811131165"><ele>126.0</ele><time>2026-05-05T12:33:06Z</time></trkpt><trkpt lat="45.8877942139705" lon="13.855613710962093"><ele>127.0</ele><time>2026-05-05T12:33:07Z</time></trkpt><trkpt lat="45.8878160357213" lon="13.855337703438902"><ele>128.0</ele><time>2026-05-05T12:33:08Z</time></trkpt><trkpt lat="45.88784932511089" lon="13.855049094372056"><ele>129.0</ele><time>2026-05-05T12:33:09Z</time></trkpt><trkpt lat="45.88789402890176" lon="13.854759215661119"><ele>129.33333333333334</ele><time>2026-05-05T12:33:10Z</time></trkpt><trkpt lat="45.8879407906159" lon="13.854470831416108"><ele>129.66666666666669</ele><time>2026-05-05T12:33:11Z</time></trkpt><trkpt lat="45.887985291519286" lon="13.854181328464866"><ele>130.0</ele><time>2026-05-05T12:33:12Z</time></trkpt><trkpt lat="45.88801739311983" lon="13.853891052674593"><ele>130.0</ele><time>2026-05-05T12:33:13Z</time></trkpt><trkpt lat="45.88803255738254" lon="13.853602481578442"><ele>130.0</ele><time>2026-05-05T12:33:14Z</time></trkpt><trkpt lat="45.8880224917984" lon="13.853315111481512"><ele>130.0</ele><time>2026-05-05T12:33:15Z</time></trkpt><trkpt lat="45.88798590693446" lon="13.85302539264912"><ele>128.66666666666669</ele><time>2026-05-05T12:33:16Z</time></trkpt><trkpt lat="45.88792016908188" lon="13.852748315859259"><ele>127.33333333333334</ele><time>2026-05-05T12:33:17Z</time></trkpt><trkpt lat="45.887836774905374" lon="13.852492790014047"><ele>126.0</ele><time>2026-05-05T12:33:18Z</time></trkpt><trkpt lat="45.887733181400066" lon="13.852254256229065"><ele>124.66666666666666</ele><time>2026-05-05T12:33:19Z</time></trkpt><trkpt lat="45.887611109008645" lon="13.852029067266638"><ele>123.33333333333333</ele><time>2026-05-05T12:33:20Z</time></trkpt><trkpt lat="45.88747754297652" lon="13.851832070888708"><ele>122.0</ele><time>2026-05-05T12:33:21Z</time></trkpt><trkpt lat="45.88734603604293" lon="13.851663605523882"><ele>121.33333333333333</ele><time>2026-05-05T12:33:22Z</time></trkpt><trkpt lat="45.88722163476185" lon="13.851501777806268"><ele>120.66666666666666</ele><time>2026-05-05T12:33:23Z</time></trkpt><trkpt lat="45.88709720303586" lon="13.851330596112492"><ele>120.0</ele><time>2026-05-05T12:33:24Z</time></trkpt><trkpt lat="45.886988957538165" lon="13.851146914415486"><ele>120.0</ele><time>2026-05-05T12:33:25Z</time></trkpt><trkpt lat="45.88687672190502" lon="13.85096195703182"><ele>120.0</ele><time>2026-05-05T12:33:26Z</time></trkpt><trkpt lat="45.886772320068374" lon="13.85076044472855"><ele>120.0</ele><time>2026-05-05T12:33:27Z</time></trkpt><trkpt lat="45.88668437012785" lon="13.850542850724741"><ele>120.0</ele><time>2026-05-05T12:33:28Z</time></trkpt><trkpt lat="45.88662046367409" lon="13.850327073357636"><ele>120.0</ele><time>2026-05-05T12:33:29Z</time></trkpt><trkpt lat="45.88657488256348" lon="13.850107993810703"><ele>120.0</ele><time>2026-05-05T12:33:30Z</time></trkpt><trkpt lat="45.88654591787252" lon="13.849891684951707"><ele>120.0</ele><time>2026-05-05T12:33:31Z</time></trkpt><trkpt lat="45.886531316816956" lon="13.849675514872153"><ele>120.0</ele><time>2026-05-05T12:33:32Z</time></trkpt><trkpt lat="45.88653279528263" lon="13.849459885110024"><ele>120.0</ele><time>2026-05-05T12:33:33Z</time></trkpt><trkpt lat="45.88654440901603" lon="13.849247067585164"><ele>120.5</ele><time>2026-05-05T12:33:34Z</time></trkpt><trkpt lat="45.88656899578606" lon="13.849050404418135"><ele>121.0</ele><time>2026-05-05T12:33:35Z</time></trkpt><trkpt lat="45.88660315570473" lon="13.848861729910121"><ele>121.5</ele><time>2026-05-05T12:33:36Z</time></trkpt><trkpt lat="45.886646821733855" lon="13.848676604847164"><ele>122.0</ele><time>2026-05-05T12:33:37Z</time></trkpt><trkpt lat="45.886693904944956" lon="13.848487552501313"><ele>122.75</ele><time>2026-05-05T12:33:38Z</time></trkpt><trkpt lat="45.88674633439294" lon="13.848306456920612"><ele>123.5</ele><time>2026-05-05T12:33:39Z</time></trkpt><trkpt lat="45.88679452855284" lon="13.848124994509744"><ele>124.25</ele><time>2026-05-05T12:33:40Z</time></trkpt><trkpt lat="45.886834889589856" lon="13.84794852176058"><ele>125.0</ele><time>2026-05-05T12:33:41Z</time></trkpt><trkpt lat="45.88687552097599" lon="13.84778675124632"><ele>125.0</ele><time>2026-05-05T12:33:42Z</time></trkpt><trkpt lat="45.88691070785621" lon="13.847630225329448"><ele>125.0</ele><time>2026-05-05T12:33:43Z</time></trkpt><trkpt lat="45.886933120006795" lon="13.847485193402074"><ele>125.0</ele><time>2026-05-05T12:33:44Z</time></trkpt><trkpt lat="45.88694044678813" lon="13.847362118523167"><ele>125.0</ele><time>2026-05-05T12:33:45Z</time></trkpt><trkpt lat="45.88694097667018" lon="13.847222401451175"><ele>125.0</ele><time>2026-05-05T12:33:46Z</time></trkpt><trkpt lat="45.88693366291128" lon="13.847051743178127"><ele>125.0</ele><time>2026-05-05T12:33:47Z</time></trkpt><trkpt lat="45.88692192943833" lon="13.846853080040674"><ele>125.0</ele><time>2026-05-05T12:33:48Z</time></trkpt><trkpt lat="45.88689432150643" lon="13.846638795102205"><ele>125.0</ele><time>2026-05-05T12:33:49Z</time></trkpt><trkpt lat="45.886854404341555" lon="13.84642670496904"><ele>125.0</ele><time>2026-05-05T12:33:50Z</time></trkpt><trkpt lat="45.886805058593296" lon="13.846218138447947"><ele>124.0</ele><time>2026-05-05T12:33:51Z</time></trkpt><trkpt lat="45.886739439777394" lon="13.846007613100845"><ele>123.0</ele><time>2026-05-05T12:33:52Z</time></trkpt><trkpt lat="45.88665321159651" lon="13.845798552408244"><ele>122.0</ele><time>2026-05-05T12:33:53Z</time></trkpt><trkpt lat="45.88656531021259" lon="13.845557126382856"><ele>121.5</ele><time>2026-05-05T12:33:54Z</time></trkpt><trkpt lat="45.886425729678" lon="13.845311511680825"><ele>121.0</ele><time>2026-05-05T12:33:55Z</time></trkpt><trkpt lat="45.88626773323038" lon="13.845059586313145"><ele>120.0</ele><time>2026-05-05T12:33:56Z</time></trkpt><trkpt lat="45.88609782493932" lon="13.844790093069403"><ele>119.0</ele><time>2026-05-05T12:33:57Z</time></trkpt><trkpt lat="45.88593504014519" lon="13.84453540955468"><ele>119.66666666666666</ele><time>2026-05-05T12:33:58Z</time></trkpt><trkpt lat="45.88577700551292" lon="13.84431290786102"><ele>120.33333333333334</ele><time>2026-05-05T12:33:59Z</time></trkpt><trkpt lat="45.88564155278565" lon="13.844090507627637"><ele>121.0</ele><time>2026-05-05T12:34:00Z</time></trkpt><trkpt lat="45.88551200693879" lon="13.84387615698074"><ele>121.0</ele><time>2026-05-05T12:34:01Z</time></trkpt><trkpt lat="45.88539117957468" lon="13.843651664881031"><ele>121.0</ele><time>2026-05-05T12:34:02Z</time></trkpt><trkpt lat="45.88528956211831" lon="13.843424791071653"><ele>121.0</ele><time>2026-05-05T12:34:03Z</time></trkpt><trkpt lat="45.8852098068265" lon="13.843202226721893"><ele>123.0</ele><time>2026-05-05T12:34:04Z</time></trkpt><trkpt lat="45.8851457379117" lon="13.842988688300727"><ele>125.0</ele><time>2026-05-05T12:34:05Z</time></trkpt><trkpt lat="45.8850925184454" lon="13.84278789647823"><ele>127.0</ele><time>2026-05-05T12:34:06Z</time></trkpt><trkpt lat="45.885051479752995" lon="13.842595128267016"><ele>124.0</ele><time>2026-05-05T12:34:07Z</time></trkpt><trkpt lat="45.88502028368104" lon="13.84241481838929"><ele>121.0</ele><time>2026-05-05T12:34:08Z</time></trkpt><trkpt lat="45.88499131185533" lon="13.84223666465602"><ele>118.0</ele><time>2026-05-05T12:34:09Z</time></trkpt><trkpt lat="45.88496637359607" lon="13.842074523061013"><ele>115.0</ele><time>2026-05-05T12:34:10Z</time></trkpt><trkpt lat="45.884940191471706" lon="13.841921634630156"><ele>115.0</ele><time>2026-05-05T12:34:11Z</time></trkpt><trkpt lat="45.884916361568266" lon="13.841784287453823"><ele>115.0</ele><time>2026-05-05T12:34:12Z</time></trkpt><trkpt lat="45.88489310448417" lon="13.841651978789681"><ele>115.0</ele><time>2026-05-05T12:34:13Z</time></trkpt><trkpt lat="45.88486930802626" lon="13.841515042885803"><ele>115.0</ele><time>2026-05-05T12:34:14Z</time></trkpt><trkpt lat="45.884848043364876" lon="13.841375064830236"><ele>115.0</ele><time>2026-05-05T12:34:15Z</time></trkpt><trkpt lat="45.884830600178965" lon="13.841237800810081"><ele>115.0</ele><time>2026-05-05T12:34:16Z</time></trkpt><trkpt lat="45.88480985108657" lon="13.84109026786224"><ele>115.0</ele><time>2026-05-05T12:34:17Z</time></trkpt><trkpt lat="45.88479762011675" lon="13.84094179298609"><ele>115.0</ele><time>2026-05-05T12:34:18Z</time></trkpt><trkpt lat="45.88478964899263" lon="13.840798755359565"><ele>115.0</ele><time>2026-05-05T12:34:19Z</time></trkpt><trkpt lat="45.88479794542042" lon="13.840653389183277"><ele>115.0</ele><time>2026-05-05T12:34:20Z</time></trkpt><trkpt lat="45.8848159304933" lon="13.840513045710935"><ele>115.2</ele><time>2026-05-05T12:34:21Z</time></trkpt><trkpt lat="45.884840506853585" lon="13.840378294330694"><ele>115.4</ele><time>2026-05-05T12:34:22Z</time></trkpt><trkpt lat="45.88486761154447" lon="13.840243028545549"><ele>115.6</ele><time>2026-05-05T12:34:23Z</time></trkpt><trkpt lat="45.884894026821044" lon="13.840106863184241"><ele>115.8</ele><time>2026-05-05T12:34:24Z</time></trkpt><trkpt lat="45.884918616233875" lon="13.839956651897637"><ele>116.0</ele><time>2026-05-05T12:34:25Z</time></trkpt><trkpt lat="45.88494155873436" lon="13.839794297489872"><ele>116.25</ele><time>2026-05-05T12:34:26Z</time></trkpt><trkpt lat="45.884966426196925" lon="13.839627736133146"><ele>116.5</ele><time>2026-05-05T12:34:27Z</time></trkpt><trkpt lat="45.884987323831034" lon="13.839455616434783"><ele>116.75</ele><time>2026-05-05T12:34:28Z</time></trkpt><trkpt lat="45.8850016438865" lon="13.839264867452302"><ele>117.0</ele><time>2026-05-05T12:34:29Z</time></trkpt><trkpt lat="45.88500373837034" lon="13.839056929753198"><ele>117.0</ele><time>2026-05-05T12:34:30Z</time></trkpt><trkpt lat="45.884994064770396" lon="13.838832003150683"><ele>117.0</ele><time>2026-05-05T12:34:31Z</time></trkpt><trkpt lat="45.88498259917127" lon="13.838586743615778"><ele>117.0</ele><time>2026-05-05T12:34:32Z</time></trkpt><trkpt lat="45.88496545248182" lon="13.838327493655834"><ele>116.66666666666666</ele><time>2026-05-05T12:34:33Z</time></trkpt><trkpt lat="45.88494940622161" lon="13.838062144189205"><ele>116.33333333333333</ele><time>2026-05-05T12:34:34Z</time></trkpt><trkpt lat="45.88493919963843" lon="13.837792859698965"><ele>116.0</ele><time>2026-05-05T12:34:35Z</time></trkpt><trkpt lat="45.8849415968452" lon="13.837534980618909"><ele>116.33333333333333</ele><time>2026-05-05T12:34:36Z</time></trkpt><trkpt lat="45.88495068032321" lon="13.837279758406268"><ele>116.66666666666666</ele><time>2026-05-05T12:34:37Z</time></trkpt><trkpt lat="45.88497133863826" lon="13.83701833367967"><ele>117.0</ele><time>2026-05-05T12:34:38Z</time></trkpt><trkpt lat="45.88500593175123" lon="13.836742925002426"><ele>117.0</ele><time>2026-05-05T12:34:39Z</time></trkpt><trkpt lat="45.88505758140599" lon="13.8364620183824"><ele>117.0</ele><time>2026-05-05T12:34:40Z</time></trkpt><trkpt lat="45.885123456132234" lon="13.8361843797638"><ele>117.0</ele><time>2026-05-05T12:34:41Z</time></trkpt><trkpt lat="45.8852045710919" lon="13.835906765509339"><ele>114.33333333333334</ele><time>2026-05-05T12:34:42Z</time></trkpt><trkpt lat="45.88529693728034" lon="13.835618477226726"><ele>111.66666666666667</ele><time>2026-05-05T12:34:43Z</time></trkpt><trkpt lat="45.885396214062744" lon="13.835327705679846"><ele>109.0</ele><time>2026-05-05T12:34:44Z</time></trkpt><trkpt lat="45.88548929149484" lon="13.83503173368212"><ele>107.66666666666667</ele><time>2026-05-05T12:34:45Z</time></trkpt><trkpt lat="45.885571195600804" lon="13.834733734911879"><ele>106.33333333333334</ele><time>2026-05-05T12:34:46Z</time></trkpt><trkpt lat="45.885641705998054" lon="13.834436132339574"><ele>105.0</ele><time>2026-05-05T12:34:47Z</time></trkpt><trkpt lat="45.88568521811359" lon="13.83414745581587"><ele>104.33333333333334</ele><time>2026-05-05T12:34:48Z</time></trkpt><trkpt lat="45.885706719367434" lon="13.833839279401051"><ele>103.66666666666667</ele><time>2026-05-05T12:34:49Z</time></trkpt><trkpt lat="45.885703741860546" lon="13.833527373700527"><ele>103.0</ele><time>2026-05-05T12:34:50Z</time></trkpt><trkpt lat="45.88567784952344" lon="13.833220467115018"><ele>103.0</ele><time>2026-05-05T12:34:51Z</time></trkpt><trkpt lat="45.88563408700862" lon="13.8329249296094"><ele>103.0</ele><time>2026-05-05T12:34:52Z</time></trkpt><trkpt lat="45.885573845835914" lon="13.832632710705623"><ele>103.0</ele><time>2026-05-05T12:34:53Z</time></trkpt><trkpt lat="45.885509678156886" lon="13.832341718818833"><ele>103.0</ele><time>2026-05-05T12:34:54Z</time></trkpt><trkpt lat="45.88545323933402" lon="13.832049755299444"><ele>103.0</ele><time>2026-05-05T12:34:55Z</time></trkpt><trkpt lat="45.88541920553059" lon="13.831753184741446"><ele>103.0</ele><time>2026-05-05T12:34:56Z</time></trkpt><trkpt lat="45.88541273210732" lon="13.831453667739346"><ele>103.0</ele><time>2026-05-05T12:34:57Z</time></trkpt><trkpt lat="45.88543194707216" lon="13.831159716700036"><ele>103.0</ele><time>2026-05-05T12:34:58Z</time></trkpt><trkpt lat="45.88547805677895" lon="13.830877712429645"><ele>103.0</ele><time>2026-05-05T12:34:59Z</time></trkpt><trkpt lat="45.885547435240376" lon="13.830600297022746"><ele>102.66666666666667</ele><time>2026-05-05T12:35:00Z</time></trkpt><trkpt lat="45.88563968538334" lon="13.830337916867094"><ele>102.33333333333334</ele><time>2026-05-05T12:35:01Z</time></trkpt><trkpt lat="45.88574624448623" lon="13.830093999200255"><ele>102.0</ele><time>2026-05-05T12:35:02Z</time></trkpt><trkpt lat="45.88587303084887" lon="13.829875854716603"><ele>103.33333333333334</ele><time>2026-05-05T12:35:03Z</time></trkpt><trkpt lat="45.88601499701909" lon="13.829674291188162"><ele>104.66666666666667</ele><time>2026-05-05T12:35:04Z</time></trkpt><trkpt lat="45.886170784541804" lon="13.82949475355981"><ele>106.0</ele><time>2026-05-05T12:35:05Z</time></trkpt><trkpt lat="45.88636491338257" lon="13.829342247883773"><ele>105.33333333333334</ele><time>2026-05-05T12:35:06Z</time></trkpt><trkpt lat="45.8865255033924" lon="13.82919826105424"><ele>104.66666666666666</ele><time>2026-05-05T12:35:07Z</time></trkpt><trkpt lat="45.88666096018182" lon="13.829076088636999"><ele>104.0</ele><time>2026-05-05T12:35:08Z</time></trkpt><trkpt lat="45.88682669356103" lon="13.828885853212817"><ele>105.66666666666666</ele><time>2026-05-05T12:35:09Z</time></trkpt><trkpt lat="45.88697851335906" lon="13.828713650030595"><ele>107.33333333333334</ele><time>2026-05-05T12:35:10Z</time></trkpt><trkpt lat="45.88710848374083" lon="13.828514166821783"><ele>109.0</ele><time>2026-05-05T12:35:11Z</time></trkpt><trkpt lat="45.88722315022945" lon="13.8282902182086"><ele>109.0</ele><time>2026-05-05T12:35:12Z</time></trkpt><trkpt lat="45.88732130588983" lon="13.828047997173972"><ele>109.0</ele><time>2026-05-05T12:35:13Z</time></trkpt><trkpt lat="45.887404903511886" lon="13.827793137861114"><ele>109.0</ele><time>2026-05-05T12:35:14Z</time></trkpt><trkpt lat="45.88747897194999" lon="13.827525598879836"><ele>109.33333333333334</ele><time>2026-05-05T12:35:15Z</time></trkpt><trkpt lat="45.88753795961464" lon="13.827246399833275"><ele>109.66666666666666</ele><time>2026-05-05T12:35:16Z</time></trkpt><trkpt lat="45.887587930076" lon="13.826955167966984"><ele>110.0</ele><time>2026-05-05T12:35:17Z</time></trkpt><trkpt lat="45.88762894867015" lon="13.826652181121913"><ele>110.0</ele><time>2026-05-05T12:35:18Z</time></trkpt><trkpt lat="45.88768643861038" lon="13.826361211289518"><ele>110.0</ele><time>2026-05-05T12:35:19Z</time></trkpt><trkpt lat="45.88773436718532" lon="13.826069418482462"><ele>110.0</ele><time>2026-05-05T12:35:20Z</time></trkpt><trkpt lat="45.887779863329506" lon="13.825791449050637"><ele>110.33333333333333</ele><time>2026-05-05T12:35:21Z</time></trkpt><trkpt lat="45.88782151777207" lon="13.82553637961379"><ele>110.66666666666666</ele><time>2026-05-05T12:35:22Z</time></trkpt><trkpt lat="45.88786096160765" lon="13.825294848237624"><ele>111.0</ele><time>2026-05-05T12:35:23Z</time></trkpt><trkpt lat="45.887900792317744" lon="13.825050946404767"><ele>111.0</ele><time>2026-05-05T12:35:24Z</time></trkpt><trkpt lat="45.88792458192473" lon="13.824798195001362"><ele>111.0</ele><time>2026-05-05T12:35:25Z</time></trkpt><trkpt lat="45.88796603726503" lon="13.824551428076209"><ele>111.0</ele><time>2026-05-05T12:35:26Z</time></trkpt><trkpt lat="45.888007375371394" lon="13.824303817734288"><ele>111.33333333333334</ele><time>2026-05-05T12:35:27Z</time></trkpt><trkpt lat="45.88804402905304" lon="13.824066356648313"><ele>111.66666666666667</ele><time>2026-05-05T12:35:28Z</time></trkpt><trkpt lat="45.8880764240793" lon="13.823837452497894"><ele>112.0</ele><time>2026-05-05T12:35:29Z</time></trkpt><trkpt lat="45.88811126776718" lon="13.823612565065122"><ele>112.0</ele><time>2026-05-05T12:35:30Z</time></trkpt><trkpt lat="45.88815007218422" lon="13.823397208919365"><ele>112.0</ele><time>2026-05-05T12:35:31Z</time></trkpt><trkpt lat="45.888191566362" lon="13.823186386497472"><ele>112.0</ele><time>2026-05-05T12:35:32Z</time></trkpt><trkpt lat="45.8882297891944" lon="13.82298381489671"><ele>112.0</ele><time>2026-05-05T12:35:33Z</time></trkpt><trkpt lat="45.888265604359695" lon="13.822770929187165"><ele>112.0</ele><time>2026-05-05T12:35:34Z</time></trkpt><trkpt lat="45.888295372799575" lon="13.822533242116338"><ele>112.0</ele><time>2026-05-05T12:35:35Z</time></trkpt><trkpt lat="45.888314684939" lon="13.822312327091879"><ele>112.5</ele><time>2026-05-05T12:35:36Z</time></trkpt><trkpt lat="45.888328742190104" lon="13.822143951257958"><ele>113.0</ele><time>2026-05-05T12:35:37Z</time></trkpt><trkpt lat="45.88835873554651" lon="13.821952896667776"><ele>113.5</ele><time>2026-05-05T12:35:38Z</time></trkpt><trkpt lat="45.88839473755175" lon="13.82176113570287"><ele>114.0</ele><time>2026-05-05T12:35:39Z</time></trkpt><trkpt lat="45.88842877397199" lon="13.821567220439086"><ele>114.25</ele><time>2026-05-05T12:35:40Z</time></trkpt><trkpt lat="45.88846558316504" lon="13.821375490265194"><ele>114.5</ele><time>2026-05-05T12:35:41Z</time></trkpt><trkpt lat="45.88849608021745" lon="13.821180443038196"><ele>114.75</ele><time>2026-05-05T12:35:42Z</time></trkpt><trkpt lat="45.88853575882908" lon="13.820978377752976"><ele>115.0</ele><time>2026-05-05T12:35:43Z</time></trkpt><trkpt lat="45.88857524940095" lon="13.820771199239333"><ele>116.0</ele><time>2026-05-05T12:35:44Z</time></trkpt><trkpt lat="45.88861525306037" lon="13.820556089115977"><ele>117.0</ele><time>2026-05-05T12:35:45Z</time></trkpt><trkpt lat="45.88865854291438" lon="13.820330513751301"><ele>118.0</ele><time>2026-05-05T12:35:46Z</time></trkpt><trkpt lat="45.888704584950354" lon="13.820102336259742"><ele>118.0</ele><time>2026-05-05T12:35:47Z</time></trkpt><trkpt lat="45.88874576879609" lon="13.81988048692837"><ele>118.0</ele><time>2026-05-05T12:35:48Z</time></trkpt><trkpt lat="45.888785521156336" lon="13.819674781628802"><ele>118.0</ele><time>2026-05-05T12:35:49Z</time></trkpt><trkpt lat="45.88882653017124" lon="13.819474471534734"><ele>118.0</ele><time>2026-05-05T12:35:50Z</time></trkpt><trkpt lat="45.888863903160676" lon="13.819274161874292"><ele>118.0</ele><time>2026-05-05T12:35:51Z</time></trkpt><trkpt lat="45.88890289639752" lon="13.819074526532145"><ele>118.0</ele><time>2026-05-05T12:35:52Z</time></trkpt><trkpt lat="45.88894947349472" lon="13.818873675101663"><ele>118.0</ele><time>2026-05-05T12:35:53Z</time></trkpt><trkpt lat="45.8890111587556" lon="13.818669877592624"><ele>118.0</ele><time>2026-05-05T12:35:54Z</time></trkpt><trkpt lat="45.88908657243977" lon="13.81846066353021"><ele>118.0</ele><time>2026-05-05T12:35:55Z</time></trkpt><trkpt lat="45.88917593536053" lon="13.818242571788653"><ele>118.0</ele><time>2026-05-05T12:35:56Z</time></trkpt><trkpt lat="45.88930340071042" lon="13.818041606253473"><ele>117.66666666666667</ele><time>2026-05-05T12:35:57Z</time></trkpt><trkpt lat="45.88942904878003" lon="13.817807759331005"><ele>117.33333333333334</ele><time>2026-05-05T12:35:58Z</time></trkpt><trkpt lat="45.88957750626244" lon="13.817539304170833"><ele>117.0</ele><time>2026-05-05T12:35:59Z</time></trkpt><trkpt lat="45.88973730122238" lon="13.817249466618199"><ele>116.0</ele><time>2026-05-05T12:36:00Z</time></trkpt><trkpt lat="45.88990195064996" lon="13.816946959792853"><ele>115.0</ele><time>2026-05-05T12:36:01Z</time></trkpt><trkpt lat="45.89005449052848" lon="13.816646295966027"><ele>113.5</ele><time>2026-05-05T12:36:02Z</time></trkpt><trkpt lat="45.89021846033475" lon="13.816366986928463"><ele>112.0</ele><time>2026-05-05T12:36:03Z</time></trkpt><trkpt lat="45.8903717404179" lon="13.816095432961527"><ele>111.0</ele><time>2026-05-05T12:36:04Z</time></trkpt><trkpt lat="45.890516267822065" lon="13.815835418929888"><ele>110.0</ele><time>2026-05-05T12:36:05Z</time></trkpt><trkpt lat="45.890656526499264" lon="13.815576319384649"><ele>110.0</ele><time>2026-05-05T12:36:06Z</time></trkpt><trkpt lat="45.89078177286991" lon="13.81530422416883"><ele>110.0</ele><time>2026-05-05T12:36:07Z</time></trkpt><trkpt lat="45.890893447690765" lon="13.815014513028661"><ele>111.0</ele><time>2026-05-05T12:36:08Z</time></trkpt><trkpt lat="45.89099607322414" lon="13.814710496439032"><ele>112.0</ele><time>2026-05-05T12:36:09Z</time></trkpt><trkpt lat="45.8910983406879" lon="13.814403446219334"><ele>111.5</ele><time>2026-05-05T12:36:10Z</time></trkpt><trkpt lat="45.891200280221966" lon="13.814102010397555"><ele>111.0</ele><time>2026-05-05T12:36:11Z</time></trkpt><trkpt lat="45.89132536520501" lon="13.813790516338699"><ele>111.5</ele><time>2026-05-05T12:36:12Z</time></trkpt><trkpt lat="45.89144741973765" lon="13.813437499008982"><ele>112.0</ele><time>2026-05-05T12:36:13Z</time></trkpt><trkpt lat="45.89158070051455" lon="13.813064122020235"><ele>112.0</ele><time>2026-05-05T12:36:14Z</time></trkpt><trkpt lat="45.89171470443094" lon="13.812677184021414"><ele>112.0</ele><time>2026-05-05T12:36:15Z</time></trkpt><trkpt lat="45.89183555742155" lon="13.812324001130873"><ele>114.0</ele><time>2026-05-05T12:36:16Z</time></trkpt><trkpt lat="45.89193230649326" lon="13.812005925732997"><ele>116.0</ele><time>2026-05-05T12:36:17Z</time></trkpt><trkpt lat="45.89203346075061" lon="13.811712396066806"><ele>116.0</ele><time>2026-05-05T12:36:18Z</time></trkpt><trkpt lat="45.892121640294334" lon="13.811422720126359"><ele>116.0</ele><time>2026-05-05T12:36:19Z</time></trkpt><trkpt lat="45.892192809574055" lon="13.811148394010326"><ele>116.0</ele><time>2026-05-05T12:36:20Z</time></trkpt><trkpt lat="45.892249928648596" lon="13.810899734624059"><ele>116.0</ele><time>2026-05-05T12:36:21Z</time></trkpt><trkpt lat="45.892306848135924" lon="13.810667943495652"><ele>116.0</ele><time>2026-05-05T12:36:22Z</time></trkpt><trkpt lat="45.89236783277477" lon="13.810453724841034"><ele>116.0</ele><time>2026-05-05T12:36:23Z</time></trkpt><trkpt lat="45.892434738116656" lon="13.810243672214794"><ele>117.33333333333333</ele><time>2026-05-05T12:36:24Z</time></trkpt><trkpt lat="45.89250846839847" lon="13.810031007156656"><ele>118.66666666666666</ele><time>2026-05-05T12:36:25Z</time></trkpt><trkpt lat="45.892592957750985" lon="13.809820974245065"><ele>120.0</ele><time>2026-05-05T12:36:26Z</time></trkpt><trkpt lat="45.89268580817927" lon="13.809616079173237"><ele>120.0</ele><time>2026-05-05T12:36:27Z</time></trkpt><trkpt lat="45.8927813147784" lon="13.809414071261045"><ele>120.0</ele><time>2026-05-05T12:36:28Z</time></trkpt><trkpt lat="45.892872413164376" lon="13.809206554935761"><ele>120.0</ele><time>2026-05-05T12:36:29Z</time></trkpt><trkpt lat="45.892961321792136" lon="13.808992096932974"><ele>120.0</ele><time>2026-05-05T12:36:30Z</time></trkpt><trkpt lat="45.893052847122526" lon="13.808764091520816"><ele>120.0</ele><time>2026-05-05T12:36:31Z</time></trkpt><trkpt lat="45.893146145600674" lon="13.808532149372162"><ele>120.0</ele><time>2026-05-05T12:36:32Z</time></trkpt><trkpt lat="45.8932468594887" lon="13.808289959694457"><ele>119.66666666666666</ele><time>2026-05-05T12:36:33Z</time></trkpt><trkpt lat="45.893354180291915" lon="13.808044605330549"><ele>119.33333333333333</ele><time>2026-05-05T12:36:34Z</time></trkpt><trkpt lat="45.89346619059469" lon="13.807792876939411"><ele>119.0</ele><time>2026-05-05T12:36:35Z</time></trkpt><trkpt lat="45.89357888500856" lon="13.807539383917723"><ele>118.66666666666666</ele><time>2026-05-05T12:36:36Z</time></trkpt><trkpt lat="45.89369010058288" lon="13.807278087348964"><ele>118.33333333333334</ele><time>2026-05-05T12:36:37Z</time></trkpt><trkpt lat="45.893798894063835" lon="13.807026420546936"><ele>118.0</ele><time>2026-05-05T12:36:38Z</time></trkpt><trkpt lat="45.893898058745364" lon="13.806798793458968"><ele>117.0</ele><time>2026-05-05T12:36:39Z</time></trkpt><trkpt lat="45.89399474725153" lon="13.806578095558148"><ele>116.0</ele><time>2026-05-05T12:36:40Z</time></trkpt><trkpt lat="45.894092258869065" lon="13.806367102587474"><ele>115.0</ele><time>2026-05-05T12:36:41Z</time></trkpt><trkpt lat="45.89419913816871" lon="13.806161091712363"><ele>114.33333333333334</ele><time>2026-05-05T12:36:42Z</time></trkpt><trkpt lat="45.894301773033554" lon="13.80596179845958"><ele>113.66666666666666</ele><time>2026-05-05T12:36:43Z</time></trkpt><trkpt lat="45.89441139712174" lon="13.805765528983372"><ele>113.0</ele><time>2026-05-05T12:36:44Z</time></trkpt><trkpt lat="45.89451923224975" lon="13.805561613315762"><ele>113.0</ele><time>2026-05-05T12:36:45Z</time></trkpt><trkpt lat="45.894624138187105" lon="13.80535677505767"><ele>113.0</ele><time>2026-05-05T12:36:46Z</time></trkpt><trkpt lat="45.89472820349497" lon="13.805144734158434"><ele>113.0</ele><time>2026-05-05T12:36:47Z</time></trkpt><trkpt lat="45.894828972004376" lon="13.804928249391182"><ele>112.66666666666666</ele><time>2026-05-05T12:36:48Z</time></trkpt><trkpt lat="45.89493414643882" lon="13.80470664119686"><ele>112.33333333333334</ele><time>2026-05-05T12:36:49Z</time></trkpt><trkpt lat="45.89504385977504" lon="13.804478481046525"><ele>112.0</ele><time>2026-05-05T12:36:50Z</time></trkpt><trkpt lat="45.895155659975956" lon="13.804237899673522"><ele>113.0</ele><time>2026-05-05T12:36:51Z</time></trkpt><trkpt lat="45.895269052715385" lon="13.803982386727968"><ele>114.0</ele><time>2026-05-05T12:36:52Z</time></trkpt><trkpt lat="45.89539116740623" lon="13.803732767306512"><ele>115.0</ele><time>2026-05-05T12:36:53Z</time></trkpt><trkpt lat="45.89552026252707" lon="13.80347374090747"><ele>115.33333333333334</ele><time>2026-05-05T12:36:54Z</time></trkpt><trkpt lat="45.89564429194373" lon="13.803218816972258"><ele>115.66666666666666</ele><time>2026-05-05T12:36:55Z</time></trkpt><trkpt lat="45.8957607780342" lon="13.802977321730292"><ele>116.0</ele><time>2026-05-05T12:36:56Z</time></trkpt><trkpt lat="45.89586251218186" lon="13.802762966791708"><ele>118.33333333333333</ele><time>2026-05-05T12:36:57Z</time></trkpt><trkpt lat="45.895945142704925" lon="13.802559076921911"><ele>120.66666666666666</ele><time>2026-05-05T12:36:58Z</time></trkpt><trkpt lat="45.89599785828549" lon="13.802347714818996"><ele>123.0</ele><time>2026-05-05T12:36:59Z</time></trkpt><trkpt lat="45.89601541921983" lon="13.802124371924325"><ele>123.0</ele><time>2026-05-05T12:37:00Z</time></trkpt><trkpt lat="45.89600057176602" lon="13.801888913464788"><ele>123.0</ele><time>2026-05-05T12:37:01Z</time></trkpt><trkpt lat="45.895963580904606" lon="13.801649244520153"><ele>123.0</ele><time>2026-05-05T12:37:02Z</time></trkpt><trkpt lat="45.89591507287158" lon="13.801402604091301"><ele>123.0</ele><time>2026-05-05T12:37:03Z</time></trkpt><trkpt lat="45.89584951026272" lon="13.801147062472348"><ele>123.0</ele><time>2026-05-05T12:37:04Z</time></trkpt><trkpt lat="45.89576861323076" lon="13.800891054507252"><ele>123.0</ele><time>2026-05-05T12:37:05Z</time></trkpt><trkpt lat="45.89566500442854" lon="13.800624724462812"><ele>126.33333333333334</ele><time>2026-05-05T12:37:06Z</time></trkpt><trkpt lat="45.89553838568603" lon="13.800363332198664"><ele>129.66666666666669</ele><time>2026-05-05T12:37:07Z</time></trkpt><trkpt lat="45.89541041679331" lon="13.800102419637227"><ele>133.0</ele><time>2026-05-05T12:37:08Z</time></trkpt><trkpt lat="45.895280250052444" lon="13.799887415018793"><ele>133.0</ele><time>2026-05-05T12:37:09Z</time></trkpt><trkpt lat="45.895132337858946" lon="13.799714872790027"><ele>133.0</ele><time>2026-05-05T12:37:10Z</time></trkpt><trkpt lat="45.89496030727794" lon="13.799555454198853"><ele>133.0</ele><time>2026-05-05T12:37:11Z</time></trkpt><trkpt lat="45.89477678867681" lon="13.799422754952948"><ele>133.33333333333334</ele><time>2026-05-05T12:37:12Z</time></trkpt><trkpt lat="45.89457882336595" lon="13.799323020842435"><ele>133.66666666666666</ele><time>2026-05-05T12:37:13Z</time></trkpt><trkpt lat="45.89437215910583" lon="13.799241392596743"><ele>134.0</ele><time>2026-05-05T12:37:14Z</time></trkpt><trkpt lat="45.89416714680804" lon="13.799173836174038"><ele>134.0</ele><time>2026-05-05T12:37:15Z</time></trkpt><trkpt lat="45.89395692043796" lon="13.799114983673938"><ele>134.0</ele><time>2026-05-05T12:37:16Z</time></trkpt><trkpt lat="45.893747605159334" lon="13.799054584882226"><ele>134.0</ele><time>2026-05-05T12:37:17Z</time></trkpt><trkpt lat="45.89354128337252" lon="13.798987098640431"><ele>133.66666666666666</ele><time>2026-05-05T12:37:18Z</time></trkpt><trkpt lat="45.893349739421666" lon="13.79890568630697"><ele>133.33333333333334</ele><time>2026-05-05T12:37:19Z</time></trkpt><trkpt lat="45.8931789168447" lon="13.798805142351931"><ele>133.0</ele><time>2026-05-05T12:37:20Z</time></trkpt><trkpt lat="45.893038125277904" lon="13.798685150923067"><ele>133.0</ele><time>2026-05-05T12:37:21Z</time></trkpt><trkpt lat="45.892913986767574" lon="13.79852780294561"><ele>133.0</ele><time>2026-05-05T12:37:22Z</time></trkpt><trkpt lat="45.89280393239721" lon="13.798344895169194"><ele>133.0</ele><time>2026-05-05T12:37:23Z</time></trkpt><trkpt lat="45.8927170590292" lon="13.798134988876281"><ele>134.0</ele><time>2026-05-05T12:37:24Z</time></trkpt><trkpt lat="45.89265122700611" lon="13.797908747523117"><ele>135.0</ele><time>2026-05-05T12:37:25Z</time></trkpt><trkpt lat="45.89261087216078" lon="13.797676015785003"><ele>136.0</ele><time>2026-05-05T12:37:26Z</time></trkpt><trkpt lat="45.892599851307516" lon="13.797433939709448"><ele>137.33333333333334</ele><time>2026-05-05T12:37:27Z</time></trkpt><trkpt lat="45.8926190304458" lon="13.797193771142094"><ele>138.66666666666666</ele><time>2026-05-05T12:37:28Z</time></trkpt><trkpt lat="45.89265709330684" lon="13.796959582657013"><ele>140.0</ele><time>2026-05-05T12:37:29Z</time></trkpt><trkpt lat="45.89271812653792" lon="13.796734920263257"><ele>141.0</ele><time>2026-05-05T12:37:30Z</time></trkpt><trkpt lat="45.892798449758814" lon="13.796536074433556"><ele>142.0</ele><time>2026-05-05T12:37:31Z</time></trkpt><trkpt lat="45.892879872954225" lon="13.796337658649332"><ele>143.0</ele><time>2026-05-05T12:37:32Z</time></trkpt><trkpt lat="45.89296793646753" lon="13.79613995085727"><ele>143.0</ele><time>2026-05-05T12:37:33Z</time></trkpt><trkpt lat="45.89305468108336" lon="13.79595699029339"><ele>143.0</ele><time>2026-05-05T12:37:34Z</time></trkpt><trkpt lat="45.89313375989484" lon="13.79578522883002"><ele>143.0</ele><time>2026-05-05T12:37:35Z</time></trkpt><trkpt lat="45.8931982007695" lon="13.79561423052923"><ele>143.0</ele><time>2026-05-05T12:37:36Z</time></trkpt><trkpt lat="45.893264832152916" lon="13.79543757306136"><ele>143.0</ele><time>2026-05-05T12:37:37Z</time></trkpt><trkpt lat="45.89332895694893" lon="13.795282693686438"><ele>143.0</ele><time>2026-05-05T12:37:38Z</time></trkpt><trkpt lat="45.89338656286478" lon="13.79509062698296"><ele>143.0</ele><time>2026-05-05T12:37:39Z</time></trkpt><trkpt lat="45.893426557798" lon="13.794895876642311"><ele>143.0</ele><time>2026-05-05T12:37:40Z</time></trkpt><trkpt lat="45.89344865891051" lon="13.794694041030256"><ele>143.5</ele><time>2026-05-05T12:37:41Z</time></trkpt><trkpt lat="45.89345366471856" lon="13.794494706984594"><ele>144.0</ele><time>2026-05-05T12:37:42Z</time></trkpt><trkpt lat="45.89345131352143" lon="13.794294028564135"><ele>144.5</ele><time>2026-05-05T12:37:43Z</time></trkpt><trkpt lat="45.89345586484054" lon="13.794095777994196"><ele>145.0</ele><time>2026-05-05T12:37:44Z</time></trkpt><trkpt lat="45.89345772073832" lon="13.793901085482549"><ele>145.0</ele><time>2026-05-05T12:37:45Z</time></trkpt><trkpt lat="45.893470685577356" lon="13.79369524941564"><ele>145.0</ele><time>2026-05-05T12:37:46Z</time></trkpt><trkpt lat="45.89347662781515" lon="13.793494493991632"><ele>145.0</ele><time>2026-05-05T12:37:47Z</time></trkpt><trkpt lat="45.89348130290612" lon="13.79329118996371"><ele>145.0</ele><time>2026-05-05T12:37:48Z</time></trkpt><trkpt lat="45.893485398105376" lon="13.793076450259973"><ele>145.25</ele><time>2026-05-05T12:37:49Z</time></trkpt><trkpt lat="45.89348747629693" lon="13.792871857834024"><ele>145.5</ele><time>2026-05-05T12:37:50Z</time></trkpt><trkpt lat="45.893493257773066" lon="13.792669770115666"><ele>145.75</ele><time>2026-05-05T12:37:51Z</time></trkpt><trkpt lat="45.89349669088688" lon="13.792464779182183"><ele>146.0</ele><time>2026-05-05T12:37:52Z</time></trkpt><trkpt lat="45.89349599439554" lon="13.792259114657822"><ele>146.0</ele><time>2026-05-05T12:37:53Z</time></trkpt><trkpt lat="45.89349594232082" lon="13.792061676948574"><ele>146.0</ele><time>2026-05-05T12:37:54Z</time></trkpt><trkpt lat="45.89349706911694" lon="13.791874050459178"><ele>146.0</ele><time>2026-05-05T12:37:55Z</time></trkpt><trkpt lat="45.89350241129777" lon="13.791691275387272"><ele>146.0</ele><time>2026-05-05T12:37:56Z</time></trkpt><trkpt lat="45.893507571202136" lon="13.79152281158386"><ele>146.0</ele><time>2026-05-05T12:37:57Z</time></trkpt><trkpt lat="45.89351454053117" lon="13.791354501723909"><ele>146.0</ele><time>2026-05-05T12:37:58Z</time></trkpt><trkpt lat="45.89352612923771" lon="13.791184675137552"><ele>146.0</ele><time>2026-05-05T12:37:59Z</time></trkpt><trkpt lat="45.89354815129607" lon="13.791009823368569"><ele>146.0</ele><time>2026-05-05T12:38:00Z</time></trkpt><trkpt lat="45.893582101719005" lon="13.790829005958035"><ele>146.25</ele><time>2026-05-05T12:38:01Z</time></trkpt><trkpt lat="45.893628913940205" lon="13.790663667083896"><ele>146.5</ele><time>2026-05-05T12:38:02Z</time></trkpt><trkpt lat="45.89367824501571" lon="13.790509794959037"><ele>146.75</ele><time>2026-05-05T12:38:03Z</time></trkpt><trkpt lat="45.8937336066056" lon="13.790368930946205"><ele>147.0</ele><time>2026-05-05T12:38:04Z</time></trkpt><trkpt lat="45.89379563236365" lon="13.790243654681593"><ele>146.4</ele><time>2026-05-05T12:38:05Z</time></trkpt><trkpt lat="45.89385948820972" lon="13.790126037436568"><ele>145.79999999999998</ele><time>2026-05-05T12:38:06Z</time></trkpt><trkpt lat="45.89392309107586" lon="13.790018557586764"><ele>145.2</ele><time>2026-05-05T12:38:07Z</time></trkpt><trkpt lat="45.89399210966708" lon="13.789911340406602"><ele>144.6</ele><time>2026-05-05T12:38:08Z</time></trkpt><trkpt lat="45.894067997846676" lon="13.78980404354639"><ele>144.0</ele><time>2026-05-05T12:38:09Z</time></trkpt><trkpt lat="45.89414891701294" lon="13.789698323338223"><ele>144.0</ele><time>2026-05-05T12:38:10Z</time></trkpt><trkpt lat="45.894227678099426" lon="13.789595076305476"><ele>144.0</ele><time>2026-05-05T12:38:11Z</time></trkpt><trkpt lat="45.89430777905826" lon="13.789487881144925"><ele>144.0</ele><time>2026-05-05T12:38:12Z</time></trkpt><trkpt lat="45.89439397433303" lon="13.789377366319242"><ele>144.0</ele><time>2026-05-05T12:38:13Z</time></trkpt><trkpt lat="45.89447858560567" lon="13.789268318487865"><ele>144.0</ele><time>2026-05-05T12:38:14Z</time></trkpt><trkpt lat="45.89456965591615" lon="13.789155591916284"><ele>143.25</ele><time>2026-05-05T12:38:15Z</time></trkpt><trkpt lat="45.89466315426749" lon="13.78904048175695"><ele>142.5</ele><time>2026-05-05T12:38:16Z</time></trkpt><trkpt lat="45.89475219215432" lon="13.788928648482372"><ele>141.75</ele><time>2026-05-05T12:38:17Z</time></trkpt><trkpt lat="45.894839023439076" lon="13.788816414412398"><ele>141.0</ele><time>2026-05-05T12:38:18Z</time></trkpt><trkpt lat="45.894922006264956" lon="13.788714147484098"><ele>141.0</ele><time>2026-05-05T12:38:19Z</time></trkpt><trkpt lat="45.895003454560296" lon="13.788634644908624"><ele>141.0</ele><time>2026-05-05T12:38:20Z</time></trkpt><trkpt lat="45.89508621866204" lon="13.788552969668254"><ele>141.0</ele><time>2026-05-05T12:38:21Z</time></trkpt><trkpt lat="45.89518571172057" lon="13.788493633993301"><ele>141.0</ele><time>2026-05-05T12:38:22Z</time></trkpt><trkpt lat="45.895286659713996" lon="13.78844419079574"><ele>141.0</ele><time>2026-05-05T12:38:23Z</time></trkpt><trkpt lat="45.895412016423464" lon="13.788401545556082"><ele>140.0</ele><time>2026-05-05T12:38:24Z</time></trkpt><trkpt lat="45.89556033905519" lon="13.788359838129052"><ele>139.0</ele><time>2026-05-05T12:38:25Z</time></trkpt><trkpt lat="45.89572638546089" lon="13.788322885766767"><ele>138.0</ele><time>2026-05-05T12:38:26Z</time></trkpt><trkpt lat="45.8958776569038" lon="13.788230554951646"><ele>138.0</ele><time>2026-05-05T12:38:27Z</time></trkpt><trkpt lat="45.896001971989364" lon="13.78816369123709"><ele>138.0</ele><time>2026-05-05T12:38:28Z</time></trkpt><trkpt lat="45.89612706832102" lon="13.788023259541037"><ele>138.0</ele><time>2026-05-05T12:38:30Z</time></trkpt><trkpt lat="45.89627622890821" lon="13.787925163448463"><ele>138.0</ele><time>2026-05-05T12:38:31Z</time></trkpt><trkpt lat="45.89641386730328" lon="13.787787884981046"><ele>138.0</ele><time>2026-05-05T12:38:32Z</time></trkpt><trkpt lat="45.896540059345426" lon="13.787615490863859"><ele>138.0</ele><time>2026-05-05T12:38:33Z</time></trkpt><trkpt lat="45.89664983979471" lon="13.787417647553726"><ele>138.0</ele><time>2026-05-05T12:38:34Z</time></trkpt><trkpt lat="45.89674301617723" lon="13.787206956305608"><ele>138.0</ele><time>2026-05-05T12:38:35Z</time></trkpt><trkpt lat="45.89682201925174" lon="13.786984478665532"><ele>138.0</ele><time>2026-05-05T12:38:36Z</time></trkpt><trkpt lat="45.89689842113305" lon="13.786761940120783"><ele>137.66666666666666</ele><time>2026-05-05T12:38:37Z</time></trkpt><trkpt lat="45.89697882903467" lon="13.786537978531266"><ele>137.33333333333331</ele><time>2026-05-05T12:38:38Z</time></trkpt><trkpt lat="45.897070858346815" lon="13.786308818064555"><ele>137.0</ele><time>2026-05-05T12:38:39Z</time></trkpt><trkpt lat="45.89717465222022" lon="13.78607619936511"><ele>137.66666666666666</ele><time>2026-05-05T12:38:40Z</time></trkpt><trkpt lat="45.89729018797689" lon="13.785846077299505"><ele>138.33333333333334</ele><time>2026-05-05T12:38:41Z</time></trkpt><trkpt lat="45.89742312763617" lon="13.785623009770411"><ele>139.0</ele><time>2026-05-05T12:38:42Z</time></trkpt><trkpt lat="45.89756881854612" lon="13.785399222036238"><ele>145.5</ele><time>2026-05-05T12:38:43Z</time></trkpt><trkpt lat="45.89773646867853" lon="13.785191508924393"><ele>152.0</ele><time>2026-05-05T12:38:44Z</time></trkpt><trkpt lat="45.89789507067221" lon="13.78493775285711"><ele>152.0</ele><time>2026-05-05T12:38:45Z</time></trkpt><trkpt lat="45.89806167095729" lon="13.784696287429439"><ele>152.0</ele><time>2026-05-05T12:38:46Z</time></trkpt><trkpt lat="45.89824293322156" lon="13.784487914995"><ele>147.5</ele><time>2026-05-05T12:38:47Z</time></trkpt><trkpt lat="45.89842819226703" lon="13.784294793034821"><ele>143.0</ele><time>2026-05-05T12:38:48Z</time></trkpt><trkpt lat="45.89861304044699" lon="13.784102316046276"><ele>143.0</ele><time>2026-05-05T12:38:49Z</time></trkpt><trkpt lat="45.89876754667917" lon="13.783907889701284"><ele>143.0</ele><time>2026-05-05T12:38:50Z</time></trkpt><trkpt lat="45.89892442885574" lon="13.783749443657792"><ele>143.0</ele><time>2026-05-05T12:38:51Z</time></trkpt><trkpt lat="45.899070477008294" lon="13.783592371249187"><ele>142.66666666666666</ele><time>2026-05-05T12:38:52Z</time></trkpt><trkpt lat="45.89920672194816" lon="13.783443957413114"><ele>142.33333333333334</ele><time>2026-05-05T12:38:53Z</time></trkpt><trkpt lat="45.89932736926328" lon="13.78331148995539"><ele>142.0</ele><time>2026-05-05T12:38:54Z</time></trkpt><trkpt lat="45.89944017118374" lon="13.783172833182634"><ele>144.0</ele><time>2026-05-05T12:38:55Z</time></trkpt><trkpt lat="45.899551127450195" lon="13.783033404273368"><ele>146.0</ele><time>2026-05-05T12:38:56Z</time></trkpt><trkpt lat="45.89964994176776" lon="13.782866966332241"><ele>148.0</ele><time>2026-05-05T12:38:57Z</time></trkpt><trkpt lat="45.89973834568689" lon="13.78268334863763"><ele>149.0</ele><time>2026-05-05T12:38:58Z</time></trkpt><trkpt lat="45.899817206823776" lon="13.782497523501446"><ele>150.0</ele><time>2026-05-05T12:38:59Z</time></trkpt><trkpt lat="45.899905792943024" lon="13.782322378911184"><ele>151.0</ele><time>2026-05-05T12:39:00Z</time></trkpt><trkpt lat="45.90000492025032" lon="13.782164469088514"><ele>151.5</ele><time>2026-05-05T12:39:01Z</time></trkpt><trkpt lat="45.90010997175458" lon="13.782016886559994"><ele>152.0</ele><time>2026-05-05T12:39:02Z</time></trkpt><trkpt lat="45.90021358536158" lon="13.781875854681287"><ele>152.5</ele><time>2026-05-05T12:39:03Z</time></trkpt><trkpt lat="45.90031052951434" lon="13.781731838556722"><ele>153.0</ele><time>2026-05-05T12:39:04Z</time></trkpt><trkpt lat="45.900409966555856" lon="13.781592106653077"><ele>153.0</ele><time>2026-05-05T12:39:05Z</time></trkpt><trkpt lat="45.90050125940858" lon="13.781451803257582"><ele>153.0</ele><time>2026-05-05T12:39:06Z</time></trkpt><trkpt lat="45.90060286987043" lon="13.781319268641077"><ele>153.0</ele><time>2026-05-05T12:39:07Z</time></trkpt><trkpt lat="45.90071580517563" lon="13.781209887887243"><ele>153.0</ele><time>2026-05-05T12:39:08Z</time></trkpt><trkpt lat="45.900840965822894" lon="13.781116756219484"><ele>152.5</ele><time>2026-05-05T12:39:09Z</time></trkpt><trkpt lat="45.90096397929106" lon="13.781032262901194"><ele>152.0</ele><time>2026-05-05T12:39:10Z</time></trkpt><trkpt lat="45.90109615547217" lon="13.780963305315563"><ele>151.5</ele><time>2026-05-05T12:39:11Z</time></trkpt><trkpt lat="45.901227566167655" lon="13.780890658148802"><ele>151.0</ele><time>2026-05-05T12:39:12Z</time></trkpt><trkpt lat="45.90136212983054" lon="13.780805831456505"><ele>151.0</ele><time>2026-05-05T12:39:13Z</time></trkpt><trkpt lat="45.90149626213907" lon="13.780722438487107"><ele>151.0</ele><time>2026-05-05T12:39:14Z</time></trkpt><trkpt lat="45.90163943540595" lon="13.780636222223317"><ele>151.0</ele><time>2026-05-05T12:39:15Z</time></trkpt><trkpt lat="45.90178571172623" lon="13.780556723225505"><ele>153.66666666666669</ele><time>2026-05-05T12:39:16Z</time></trkpt><trkpt lat="45.90194034680001" lon="13.780464151988177"><ele>156.33333333333334</ele><time>2026-05-05T12:39:17Z</time></trkpt><trkpt lat="45.902098008434386" lon="13.780371871705999"><ele>159.0</ele><time>2026-05-05T12:39:18Z</time></trkpt><trkpt lat="45.90225698025159" lon="13.780270235837763"><ele>156.33333333333334</ele><time>2026-05-05T12:39:19Z</time></trkpt><trkpt lat="45.9024154559954" lon="13.780164302286371"><ele>153.66666666666669</ele><time>2026-05-05T12:39:20Z</time></trkpt><trkpt lat="45.90255799450112" lon="13.780049068152517"><ele>151.0</ele><time>2026-05-05T12:39:21Z</time></trkpt><trkpt lat="45.9026878242467" lon="13.779916842278402"><ele>151.0</ele><time>2026-05-05T12:39:22Z</time></trkpt><trkpt lat="45.90280751618741" lon="13.779766850338355"><ele>151.0</ele><time>2026-05-05T12:39:23Z</time></trkpt><trkpt lat="45.90291977934663" lon="13.779620674986075"><ele>151.0</ele><time>2026-05-05T12:39:24Z</time></trkpt><trkpt lat="45.90302966757499" lon="13.779488128349918"><ele>151.0</ele><time>2026-05-05T12:39:25Z</time></trkpt><trkpt lat="45.90314217219906" lon="13.779358046330188"><ele>151.0</ele><time>2026-05-05T12:39:26Z</time></trkpt><trkpt lat="45.90324927431328" lon="13.779237648023026"><ele>151.0</ele><time>2026-05-05T12:39:27Z</time></trkpt><trkpt lat="45.90335366469053" lon="13.779130350621951"><ele>151.0</ele><time>2026-05-05T12:39:28Z</time></trkpt><trkpt lat="45.90346717262301" lon="13.779058199928212"><ele>149.25</ele><time>2026-05-05T12:39:29Z</time></trkpt><trkpt lat="45.90359214376972" lon="13.779033730140771"><ele>147.5</ele><time>2026-05-05T12:39:30Z</time></trkpt><trkpt lat="45.9037171689568" lon="13.779059040130603"><ele>145.75</ele><time>2026-05-05T12:39:31Z</time></trkpt><trkpt lat="45.90384328541127" lon="13.779113335921886"><ele>144.0</ele><time>2026-05-05T12:39:32Z</time></trkpt><trkpt lat="45.90395206710091" lon="13.779199486508707"><ele>144.0</ele><time>2026-05-05T12:39:33Z</time></trkpt><trkpt lat="45.904046727573515" lon="13.779316249514675"><ele>144.0</ele><time>2026-05-05T12:39:34Z</time></trkpt><trkpt lat="45.904119495207894" lon="13.77945293543799"><ele>144.0</ele><time>2026-05-05T12:39:35Z</time></trkpt><trkpt lat="45.904183588393245" lon="13.779600410367468"><ele>144.0</ele><time>2026-05-05T12:39:36Z</time></trkpt><trkpt lat="45.90423969468795" lon="13.779758523337268"><ele>143.25</ele><time>2026-05-05T12:39:37Z</time></trkpt><trkpt lat="45.90429345184106" lon="13.779909091699938"><ele>142.5</ele><time>2026-05-05T12:39:38Z</time></trkpt><trkpt lat="45.90435541073374" lon="13.78004788756677"><ele>141.75</ele><time>2026-05-05T12:39:39Z</time></trkpt><trkpt lat="45.90441943900013" lon="13.780187047622128"><ele>141.0</ele><time>2026-05-05T12:39:40Z</time></trkpt><trkpt lat="45.904490877132254" lon="13.780324292306924"><ele>142.5</ele><time>2026-05-05T12:39:41Z</time></trkpt><trkpt lat="45.90457632786474" lon="13.780447261170227"><ele>144.0</ele><time>2026-05-05T12:39:42Z</time></trkpt><trkpt lat="45.904676141011706" lon="13.780538835935728"><ele>145.5</ele><time>2026-05-05T12:39:43Z</time></trkpt><trkpt lat="45.90479185233446" lon="13.780592508815792"><ele>147.0</ele><time>2026-05-05T12:39:44Z</time></trkpt><trkpt lat="45.90491735152905" lon="13.78060381341371"><ele>147.0</ele><time>2026-05-05T12:39:45Z</time></trkpt><trkpt lat="45.90504796296955" lon="13.780577151901142"><ele>147.0</ele><time>2026-05-05T12:39:46Z</time></trkpt><trkpt lat="45.905188090305536" lon="13.780520366751198"><ele>147.0</ele><time>2026-05-05T12:39:47Z</time></trkpt><trkpt lat="45.90534389502503" lon="13.780449553607742"><ele>147.0</ele><time>2026-05-05T12:39:48Z</time></trkpt><trkpt lat="45.90550489994941" lon="13.780386245040889"><ele>147.66666666666666</ele><time>2026-05-05T12:39:49Z</time></trkpt><trkpt lat="45.9056636056163" lon="13.780332125613752"><ele>148.33333333333331</ele><time>2026-05-05T12:39:50Z</time></trkpt><trkpt lat="45.90581951175623" lon="13.780283641822814"><ele>149.0</ele><time>2026-05-05T12:39:51Z</time></trkpt><trkpt lat="45.90597536204844" lon="13.780241478826314"><ele>149.25</ele><time>2026-05-05T12:39:52Z</time></trkpt><trkpt lat="45.906123158589736" lon="13.78020346532101"><ele>149.5</ele><time>2026-05-05T12:39:53Z</time></trkpt><trkpt lat="45.90626142316151" lon="13.780167628027705"><ele>149.75</ele><time>2026-05-05T12:39:54Z</time></trkpt><trkpt lat="45.906389152391164" lon="13.780138509706298"><ele>150.0</ele><time>2026-05-05T12:39:55Z</time></trkpt><trkpt lat="45.90650773792473" lon="13.780114980533234"><ele>150.0</ele><time>2026-05-05T12:39:56Z</time></trkpt><trkpt lat="45.906618962037165" lon="13.780095115646246"><ele>150.0</ele><time>2026-05-05T12:39:57Z</time></trkpt><trkpt lat="45.906727447937286" lon="13.780077414277853"><ele>150.0</ele><time>2026-05-05T12:39:58Z</time></trkpt><trkpt lat="45.90683057715307" lon="13.780062750480571"><ele>150.0</ele><time>2026-05-05T12:39:59Z</time></trkpt><trkpt lat="45.90693742475753" lon="13.780061731047024"><ele>150.0</ele><time>2026-05-05T12:40:00Z</time></trkpt><trkpt lat="45.90704630051447" lon="13.780055933536739"><ele>151.4</ele><time>2026-05-05T12:40:01Z</time></trkpt><trkpt lat="45.90715257673187" lon="13.78004375689742"><ele>152.8</ele><time>2026-05-05T12:40:02Z</time></trkpt><trkpt lat="45.90725136814442" lon="13.780002858114665"><ele>154.2</ele><time>2026-05-05T12:40:03Z</time></trkpt><trkpt lat="45.907353733833475" lon="13.779938628037682"><ele>155.6</ele><time>2026-05-05T12:40:04Z</time></trkpt><trkpt lat="45.9074365714493" lon="13.779845192150905"><ele>157.0</ele><time>2026-05-05T12:40:05Z</time></trkpt><trkpt lat="45.90750892507149" lon="13.779727535273476"><ele>157.0</ele><time>2026-05-05T12:40:06Z</time></trkpt><trkpt lat="45.907572654652384" lon="13.779570698510762"><ele>157.0</ele><time>2026-05-05T12:40:07Z</time></trkpt><trkpt lat="45.90762304887473" lon="13.779410223111991"><ele>157.0</ele><time>2026-05-05T12:40:08Z</time></trkpt><trkpt lat="45.90767002724324" lon="13.779257643082468"><ele>157.0</ele><time>2026-05-05T12:40:09Z</time></trkpt><trkpt lat="45.907713985212894" lon="13.779105821371585"><ele>159.6</ele><time>2026-05-05T12:40:10Z</time></trkpt><trkpt lat="45.9077570226847" lon="13.778970855907758"><ele>162.2</ele><time>2026-05-05T12:40:11Z</time></trkpt><trkpt lat="45.90780054023267" lon="13.778842492463633"><ele>164.8</ele><time>2026-05-05T12:40:12Z</time></trkpt><trkpt lat="45.90784070656543" lon="13.77872303057906"><ele>167.4</ele><time>2026-05-05T12:40:13Z</time></trkpt><trkpt lat="45.907873727403526" lon="13.77859941827502"><ele>170.0</ele><time>2026-05-05T12:40:14Z</time></trkpt><trkpt lat="45.9079169468477" lon="13.778482332873237"><ele>170.0</ele><time>2026-05-05T12:40:15Z</time></trkpt><trkpt lat="45.90795221432354" lon="13.778366070272098"><ele>170.0</ele><time>2026-05-05T12:40:16Z</time></trkpt><trkpt lat="45.907994789559176" lon="13.778247368166028"><ele>170.0</ele><time>2026-05-05T12:40:17Z</time></trkpt><trkpt lat="45.90804024872034" lon="13.77812412212763"><ele>170.0</ele><time>2026-05-05T12:40:18Z</time></trkpt><trkpt lat="45.90808789758481" lon="13.777995173500335"><ele>170.0</ele><time>2026-05-05T12:40:19Z</time></trkpt><trkpt lat="45.90813231509591" lon="13.777862695340794"><ele>170.0</ele><time>2026-05-05T12:40:20Z</time></trkpt><trkpt lat="45.9081778952496" lon="13.777724380903043"><ele>170.0</ele><time>2026-05-05T12:40:21Z</time></trkpt><trkpt lat="45.908223761175115" lon="13.777586544592074"><ele>170.0</ele><time>2026-05-05T12:40:22Z</time></trkpt><trkpt lat="45.9082738060167" lon="13.777449804924329"><ele>170.0</ele><time>2026-05-05T12:40:23Z</time></trkpt><trkpt lat="45.908332746955615" lon="13.777316004708101"><ele>170.0</ele><time>2026-05-05T12:40:24Z</time></trkpt><trkpt lat="45.908408800714575" lon="13.777184214279123"><ele>172.5</ele><time>2026-05-05T12:40:25Z</time></trkpt><trkpt lat="45.90847305314236" lon="13.77705321612273"><ele>175.0</ele><time>2026-05-05T12:40:26Z</time></trkpt><trkpt lat="45.90852501023215" lon="13.77691107322935"><ele>177.5</ele><time>2026-05-05T12:40:27Z</time></trkpt><trkpt lat="45.90856538147303" lon="13.776759116077395"><ele>180.0</ele><time>2026-05-05T12:40:28Z</time></trkpt><trkpt lat="45.90859644911541" lon="13.776573171732736"><ele>180.0</ele><time>2026-05-05T12:40:29Z</time></trkpt><trkpt lat="45.90861441051586" lon="13.7763499425674"><ele>180.0</ele><time>2026-05-05T12:40:30Z</time></trkpt><trkpt lat="45.90863014329133" lon="13.776090703242641"><ele>180.0</ele><time>2026-05-05T12:40:31Z</time></trkpt><trkpt lat="45.90867208784893" lon="13.77579135005384"><ele>174.5</ele><time>2026-05-05T12:40:32Z</time></trkpt><trkpt lat="45.90870795903078" lon="13.775463917699922"><ele>169.0</ele><time>2026-05-05T12:40:33Z</time></trkpt><trkpt lat="45.90874652329055" lon="13.775105620676257"><ele>167.5</ele><time>2026-05-05T12:40:34Z</time></trkpt><trkpt lat="45.90878758689328" lon="13.774706612231336"><ele>166.0</ele><time>2026-05-05T12:40:35Z</time></trkpt><trkpt lat="45.90883107069868" lon="13.774291354861951"><ele>166.0</ele><time>2026-05-05T12:40:36Z</time></trkpt><trkpt lat="45.9088739644889" lon="13.773887977633972"><ele>166.0</ele><time>2026-05-05T12:40:37Z</time></trkpt><trkpt lat="45.90891369817296" lon="13.773535109015812"><ele>166.33333333333334</ele><time>2026-05-05T12:40:38Z</time></trkpt><trkpt lat="45.90893437555619" lon="13.773227920576966"><ele>166.66666666666666</ele><time>2026-05-05T12:40:39Z</time></trkpt><trkpt lat="45.90897564799291" lon="13.77293835292327"><ele>167.0</ele><time>2026-05-05T12:40:40Z</time></trkpt><trkpt lat="45.90902219261845" lon="13.772658797382682"><ele>168.0</ele><time>2026-05-05T12:40:41Z</time></trkpt><trkpt lat="45.909081029172846" lon="13.772393926246941"><ele>169.0</ele><time>2026-05-05T12:40:42Z</time></trkpt><trkpt lat="45.90914483584504" lon="13.772155594546312"><ele>170.0</ele><time>2026-05-05T12:40:43Z</time></trkpt><trkpt lat="45.90921337467358" lon="13.771925204214511"><ele>172.33333333333331</ele><time>2026-05-05T12:40:44Z</time></trkpt><trkpt lat="45.90928642054829" lon="13.771692682624977"><ele>174.66666666666666</ele><time>2026-05-05T12:40:45Z</time></trkpt><trkpt lat="45.909365536759616" lon="13.771457796039474"><ele>177.0</ele><time>2026-05-05T12:40:46Z</time></trkpt><trkpt lat="45.9094491971944" lon="13.77120792896296"><ele>176.66666666666666</ele><time>2026-05-05T12:40:47Z</time></trkpt><trkpt lat="45.90952463798365" lon="13.770950864379408"><ele>176.33333333333331</ele><time>2026-05-05T12:40:48Z</time></trkpt><trkpt lat="45.9096098119356" lon="13.770699773675972"><ele>176.0</ele><time>2026-05-05T12:40:49Z</time></trkpt><trkpt lat="45.909690758347516" lon="13.770451402266826"><ele>176.0</ele><time>2026-05-05T12:40:50Z</time></trkpt><trkpt lat="45.90975249198971" lon="13.7701958149211"><ele>176.0</ele><time>2026-05-05T12:40:51Z</time></trkpt><trkpt lat="45.90979015011979" lon="13.769927190446792"><ele>176.0</ele><time>2026-05-05T12:40:52Z</time></trkpt><trkpt lat="45.90980098783258" lon="13.769654854651654"><ele>175.33333333333331</ele><time>2026-05-05T12:40:53Z</time></trkpt><trkpt lat="45.90979200253752" lon="13.769378273850013"><ele>174.66666666666666</ele><time>2026-05-05T12:40:54Z</time></trkpt><trkpt lat="45.909776535958784" lon="13.769113381699777"><ele>174.0</ele><time>2026-05-05T12:40:55Z</time></trkpt><trkpt lat="45.9097601526974" lon="13.76887276340248"><ele>172.33333333333334</ele><time>2026-05-05T12:40:56Z</time></trkpt><trkpt lat="45.90974463395942" lon="13.768634700979595"><ele>170.66666666666669</ele><time>2026-05-05T12:40:57Z</time></trkpt><trkpt lat="45.90973886838299" lon="13.768422289063093"><ele>169.0</ele><time>2026-05-05T12:40:58Z</time></trkpt><trkpt lat="45.90974054661562" lon="13.768221222475056"><ele>168.25</ele><time>2026-05-05T12:40:59Z</time></trkpt><trkpt lat="45.909758012773224" lon="13.768033881744287"><ele>167.5</ele><time>2026-05-05T12:41:00Z</time></trkpt><trkpt lat="45.90980450116096" lon="13.767858968217336"><ele>166.75</ele><time>2026-05-05T12:41:01Z</time></trkpt><trkpt lat="45.909885768899066" lon="13.767715567424089"><ele>166.0</ele><time>2026-05-05T12:41:02Z</time></trkpt><trkpt lat="45.909998259749635" lon="13.767592140457813"><ele>164.66666666666669</ele><time>2026-05-05T12:41:03Z</time></trkpt><trkpt lat="45.91011889216896" lon="13.767467399223351"><ele>163.33333333333334</ele><time>2026-05-05T12:41:04Z</time></trkpt><trkpt lat="45.91025444938214" lon="13.767354264039005"><ele>162.0</ele><time>2026-05-05T12:41:05Z</time></trkpt><trkpt lat="45.910398178982405" lon="13.767244563884082"><ele>162.0</ele><time>2026-05-05T12:41:06Z</time></trkpt><trkpt lat="45.91055729160233" lon="13.767142141734563"><ele>162.0</ele><time>2026-05-05T12:41:07Z</time></trkpt><trkpt lat="45.910732523053746" lon="13.767061347291266"><ele>162.0</ele><time>2026-05-05T12:41:08Z</time></trkpt><trkpt lat="45.910914893050794" lon="13.76701118783998"><ele>160.66666666666666</ele><time>2026-05-05T12:41:09Z</time></trkpt><trkpt lat="45.91109734441512" lon="13.766983865733796"><ele>159.33333333333331</ele><time>2026-05-05T12:41:10Z</time></trkpt><trkpt lat="45.91128187042736" lon="13.766980886848476"><ele>158.0</ele><time>2026-05-05T12:41:11Z</time></trkpt><trkpt lat="45.91146803871893" lon="13.767008128531574"><ele>158.0</ele><time>2026-05-05T12:41:12Z</time></trkpt><trkpt lat="45.91164245119994" lon="13.767066381176297"><ele>158.0</ele><time>2026-05-05T12:41:13Z</time></trkpt><trkpt lat="45.91180493126556" lon="13.76714129529879"><ele>158.0</ele><time>2026-05-05T12:41:14Z</time></trkpt><trkpt lat="45.911956654886396" lon="13.767237815104806"><ele>157.33333333333331</ele><time>2026-05-05T12:41:15Z</time></trkpt><trkpt lat="45.91207899076872" lon="13.767399967168174"><ele>156.66666666666666</ele><time>2026-05-05T12:41:16Z</time></trkpt><trkpt lat="45.912206165389456" lon="13.767560794803137"><ele>156.0</ele><time>2026-05-05T12:41:17Z</time></trkpt><trkpt lat="45.91230844155991" lon="13.76773470011457"><ele>156.0</ele><time>2026-05-05T12:41:18Z</time></trkpt><trkpt lat="45.912429751293516" lon="13.767876811655611"><ele>156.0</ele><time>2026-05-05T12:41:19Z</time></trkpt><trkpt lat="45.91257182241725" lon="13.767972381777469"><ele>156.0</ele><time>2026-05-05T12:41:20Z</time></trkpt><trkpt lat="45.91272930158222" lon="13.768024034091889"><ele>154.33333333333334</ele><time>2026-05-05T12:41:21Z</time></trkpt><trkpt lat="45.91289086252102" lon="13.768037854481092"><ele>152.66666666666669</ele><time>2026-05-05T12:41:22Z</time></trkpt><trkpt lat="45.9130469218682" lon="13.768026076551179"><ele>151.0</ele><time>2026-05-05T12:41:23Z</time></trkpt><trkpt lat="45.913201276927595" lon="13.767994074248206"><ele>151.0</ele><time>2026-05-05T12:41:24Z</time></trkpt><trkpt lat="45.9133596798542" lon="13.767940201446983"><ele>151.0</ele><time>2026-05-05T12:41:25Z</time></trkpt><trkpt lat="45.91351102639042" lon="13.767860090846616"><ele>151.0</ele><time>2026-05-05T12:41:26Z</time></trkpt><trkpt lat="45.91365775903131" lon="13.767751953675512"><ele>147.66666666666669</ele><time>2026-05-05T12:41:27Z</time></trkpt><trkpt lat="45.91380285176856" lon="13.76762383762965"><ele>144.33333333333334</ele><time>2026-05-05T12:41:28Z</time></trkpt><trkpt lat="45.9139462976404" lon="13.767493076271501"><ele>141.0</ele><time>2026-05-05T12:41:29Z</time></trkpt><trkpt lat="45.914092216835286" lon="13.767364972841218"><ele>141.0</ele><time>2026-05-05T12:41:30Z</time></trkpt><trkpt lat="45.91423379906427" lon="13.767242782627116"><ele>141.0</ele><time>2026-05-05T12:41:31Z</time></trkpt><trkpt lat="45.9143717728709" lon="13.767120949776093"><ele>141.0</ele><time>2026-05-05T12:41:32Z</time></trkpt><trkpt lat="45.914504116768406" lon="13.766987073589107"><ele>140.66666666666666</ele><time>2026-05-05T12:41:33Z</time></trkpt><trkpt lat="45.91462491749218" lon="13.766834492565238"><ele>140.33333333333331</ele><time>2026-05-05T12:41:34Z</time></trkpt><trkpt lat="45.91473297693782" lon="13.766661946851968"><ele>140.0</ele><time>2026-05-05T12:41:35Z</time></trkpt><trkpt lat="45.91483715995355" lon="13.766480934495764"><ele>140.0</ele><time>2026-05-05T12:41:36Z</time></trkpt><trkpt lat="45.91493968520542" lon="13.76630499005163"><ele>140.0</ele><time>2026-05-05T12:41:37Z</time></trkpt><trkpt lat="45.9150456976932" lon="13.766128876756628"><ele>140.0</ele><time>2026-05-05T12:41:38Z</time></trkpt><trkpt lat="45.91515463749391" lon="13.765955161312442"><ele>139.33333333333331</ele><time>2026-05-05T12:41:39Z</time></trkpt><trkpt lat="45.915258984767625" lon="13.76579213926137"><ele>138.66666666666666</ele><time>2026-05-05T12:41:40Z</time></trkpt><trkpt lat="45.9153667706411" lon="13.765606665513806"><ele>138.0</ele><time>2026-05-05T12:41:41Z</time></trkpt><trkpt lat="45.91546561038752" lon="13.76541600738872"><ele>138.0</ele><time>2026-05-05T12:41:42Z</time></trkpt><trkpt lat="45.915565535637384" lon="13.765226827197273"><ele>138.0</ele><time>2026-05-05T12:41:43Z</time></trkpt><trkpt lat="45.915657212462094" lon="13.76504941310231"><ele>138.0</ele><time>2026-05-05T12:41:44Z</time></trkpt><trkpt lat="45.91575530448947" lon="13.764862542156692"><ele>138.66666666666666</ele><time>2026-05-05T12:41:45Z</time></trkpt><trkpt lat="45.91585762785794" lon="13.764658190510358"><ele>139.33333333333331</ele><time>2026-05-05T12:41:46Z</time></trkpt><trkpt lat="45.91597566856435" lon="13.764443144661035"><ele>140.0</ele><time>2026-05-05T12:41:47Z</time></trkpt><trkpt lat="45.91610308728502" lon="13.764226076919424"><ele>137.0</ele><time>2026-05-05T12:41:48Z</time></trkpt><trkpt lat="45.91623940585977" lon="13.764001915037118"><ele>134.0</ele><time>2026-05-05T12:41:49Z</time></trkpt><trkpt lat="45.91638276420474" lon="13.76378042669581"><ele>131.0</ele><time>2026-05-05T12:41:50Z</time></trkpt><trkpt lat="45.91653725463318" lon="13.763555261761189"><ele>128.5</ele><time>2026-05-05T12:41:51Z</time></trkpt><trkpt lat="45.91669675470639" lon="13.76332683612804"><ele>126.0</ele><time>2026-05-05T12:41:52Z</time></trkpt><trkpt lat="45.916858607009424" lon="13.763101300113627"><ele>126.0</ele><time>2026-05-05T12:41:53Z</time></trkpt><trkpt lat="45.917022041603566" lon="13.76286558719301"><ele>126.0</ele><time>2026-05-05T12:41:54Z</time></trkpt><trkpt lat="45.91718131629739" lon="13.762628657939675"><ele>125.5</ele><time>2026-05-05T12:41:55Z</time></trkpt><trkpt lat="45.91733577709636" lon="13.762388354006486"><ele>125.0</ele><time>2026-05-05T12:41:56Z</time></trkpt><trkpt lat="45.91747970537505" lon="13.762127676406799"><ele>124.0</ele><time>2026-05-05T12:41:57Z</time></trkpt><trkpt lat="45.917617574556836" lon="13.761842295059694"><ele>123.0</ele><time>2026-05-05T12:41:58Z</time></trkpt><trkpt lat="45.91776013713428" lon="13.761514253379133"><ele>123.0</ele><time>2026-05-05T12:41:59Z</time></trkpt><trkpt lat="45.91790771939103" lon="13.761162089785131"><ele>123.0</ele><time>2026-05-05T12:42:00Z</time></trkpt><trkpt lat="45.918072380782036" lon="13.760786507118583"><ele>121.5</ele><time>2026-05-05T12:42:01Z</time></trkpt><trkpt lat="45.91823636744642" lon="13.760423683942877"><ele>120.0</ele><time>2026-05-05T12:42:02Z</time></trkpt><trkpt lat="45.91838216011704" lon="13.760108893876328"><ele>119.5</ele><time>2026-05-05T12:42:03Z</time></trkpt><trkpt lat="45.918521406937586" lon="13.759814042290307"><ele>119.0</ele><time>2026-05-05T12:42:04Z</time></trkpt><trkpt lat="45.918662200263064" lon="13.759542038303696"><ele>120.0</ele><time>2026-05-05T12:42:05Z</time></trkpt><trkpt lat="45.91880906625821" lon="13.759281004989441"><ele>121.0</ele><time>2026-05-05T12:42:06Z</time></trkpt><trkpt lat="45.918956228859365" lon="13.759027682082715"><ele>121.0</ele><time>2026-05-05T12:42:07Z</time></trkpt><trkpt lat="45.91911500162961" lon="13.758769862879198"><ele>121.0</ele><time>2026-05-05T12:42:08Z</time></trkpt><trkpt lat="45.91930312675073" lon="13.758563416366883"><ele>119.5</ele><time>2026-05-05T12:42:09Z</time></trkpt><trkpt lat="45.91949674061651" lon="13.758362024283526"><ele>118.0</ele><time>2026-05-05T12:42:10Z</time></trkpt><trkpt lat="45.919671984018166" lon="13.758125277370974"><ele>118.0</ele><time>2026-05-05T12:42:11Z</time></trkpt><trkpt lat="45.91983029011247" lon="13.757847191782986"><ele>118.0</ele><time>2026-05-05T12:42:12Z</time></trkpt><trkpt lat="45.9199978665944" lon="13.757554995752752"><ele>121.0</ele><time>2026-05-05T12:42:13Z</time></trkpt><trkpt lat="45.920176666077126" lon="13.75725145082197"><ele>124.0</ele><time>2026-05-05T12:42:14Z</time></trkpt><trkpt lat="45.92036492984597" lon="13.75694298617794"><ele>122.0</ele><time>2026-05-05T12:42:15Z</time></trkpt><trkpt lat="45.920557594749155" lon="13.75664838190271"><ele>120.0</ele><time>2026-05-05T12:42:16Z</time></trkpt><trkpt lat="45.92074989270228" lon="13.75637457486153"><ele>123.5</ele><time>2026-05-05T12:42:17Z</time></trkpt><trkpt lat="45.920936761664215" lon="13.756123808316056"><ele>127.0</ele><time>2026-05-05T12:42:18Z</time></trkpt><trkpt lat="45.92110338966399" lon="13.755903168427812"><ele>127.33333333333334</ele><time>2026-05-05T12:42:19Z</time></trkpt><trkpt lat="45.92126219004445" lon="13.755706399923605"><ele>127.66666666666666</ele><time>2026-05-05T12:42:20Z</time></trkpt><trkpt lat="45.9214254984529" lon="13.755560711020472"><ele>128.0</ele><time>2026-05-05T12:42:21Z</time></trkpt><trkpt lat="45.92160490543056" lon="13.755458483545471"><ele>129.0</ele><time>2026-05-05T12:42:22Z</time></trkpt><trkpt lat="45.92179763422678" lon="13.755386176918641"><ele>130.0</ele><time>2026-05-05T12:42:23Z</time></trkpt><trkpt lat="45.92200191858564" lon="13.75532726382341"><ele>131.0</ele><time>2026-05-05T12:42:24Z</time></trkpt><trkpt lat="45.92221407527846" lon="13.755274846765948"><ele>131.0</ele><time>2026-05-05T12:42:25Z</time></trkpt><trkpt lat="45.92244214608774" lon="13.755217641450152"><ele>131.0</ele><time>2026-05-05T12:42:26Z</time></trkpt><trkpt lat="45.9226718809189" lon="13.755152213181217"><ele>130.33333333333331</ele><time>2026-05-05T12:42:27Z</time></trkpt><trkpt lat="45.92288698684781" lon="13.755092017722149"><ele>129.66666666666666</ele><time>2026-05-05T12:42:28Z</time></trkpt><trkpt lat="45.923092375196426" lon="13.755033754548936"><ele>129.0</ele><time>2026-05-05T12:42:29Z</time></trkpt><trkpt lat="45.92328442491225" lon="13.754982391488197"><ele>129.0</ele><time>2026-05-05T12:42:30Z</time></trkpt><trkpt lat="45.92347163508953" lon="13.754959627271884"><ele>129.0</ele><time>2026-05-05T12:42:31Z</time></trkpt><trkpt lat="45.92366276089291" lon="13.75496736521757"><ele>129.0</ele><time>2026-05-05T12:42:32Z</time></trkpt><trkpt lat="45.9238593102737" lon="13.754992430111537"><ele>129.0</ele><time>2026-05-05T12:42:33Z</time></trkpt><trkpt lat="45.92405173100981" lon="13.755018632597537"><ele>129.0</ele><time>2026-05-05T12:42:34Z</time></trkpt><trkpt lat="45.92423928530713" lon="13.755034209932608"><ele>129.0</ele><time>2026-05-05T12:42:35Z</time></trkpt><trkpt lat="45.92442072531229" lon="13.755049351022057"><ele>128.33333333333334</ele><time>2026-05-05T12:42:36Z</time></trkpt><trkpt lat="45.92460393107774" lon="13.755051336892977"><ele>127.66666666666667</ele><time>2026-05-05T12:42:37Z</time></trkpt><trkpt lat="45.92478096987411" lon="13.755046818629202"><ele>127.0</ele><time>2026-05-05T12:42:38Z</time></trkpt><trkpt lat="45.924950582851245" lon="13.755021976693447"><ele>127.25</ele><time>2026-05-05T12:42:39Z</time></trkpt><trkpt lat="45.925106360509986" lon="13.75496890643918"><ele>127.5</ele><time>2026-05-05T12:42:40Z</time></trkpt><trkpt lat="45.9252445615458" lon="13.754894353844303"><ele>127.75</ele><time>2026-05-05T12:42:41Z</time></trkpt><trkpt lat="45.925370084629336" lon="13.754802233321042"><ele>128.0</ele><time>2026-05-05T12:42:42Z</time></trkpt><trkpt lat="45.92548863568582" lon="13.754693725564378"><ele>128.0</ele><time>2026-05-05T12:42:43Z</time></trkpt><trkpt lat="45.92560442000867" lon="13.754577107818143"><ele>128.0</ele><time>2026-05-05T12:42:44Z</time></trkpt><trkpt lat="45.92571368826678" lon="13.754451527920878"><ele>128.0</ele><time>2026-05-05T12:42:45Z</time></trkpt><trkpt lat="45.92581722200088" lon="13.754313066382345"><ele>128.0</ele><time>2026-05-05T12:42:46Z</time></trkpt><trkpt lat="45.92591205050307" lon="13.754152776264409"><ele>127.0</ele><time>2026-05-05T12:42:47Z</time></trkpt><trkpt lat="45.92600089254324" lon="13.75397938283657"><ele>126.0</ele><time>2026-05-05T12:42:48Z</time></trkpt><trkpt lat="45.92608903931931" lon="13.75380246808936"><ele>125.0</ele><time>2026-05-05T12:42:49Z</time></trkpt><trkpt lat="45.92618112941473" lon="13.75361823264251"><ele>124.0</ele><time>2026-05-05T12:42:50Z</time></trkpt><trkpt lat="45.92627061535869" lon="13.753431339410449"><ele>123.0</ele><time>2026-05-05T12:42:51Z</time></trkpt><trkpt lat="45.926361251675715" lon="13.753245366839145"><ele>122.0</ele><time>2026-05-05T12:42:52Z</time></trkpt><trkpt lat="45.92644827578004" lon="13.7530693014071"><ele>122.0</ele><time>2026-05-05T12:42:53Z</time></trkpt><trkpt lat="45.92653585971505" lon="13.75289341945221"><ele>122.0</ele><time>2026-05-05T12:42:54Z</time></trkpt><trkpt lat="45.926622883025445" lon="13.752717985042729"><ele>122.0</ele><time>2026-05-05T12:42:55Z</time></trkpt><trkpt lat="45.92671188360586" lon="13.752534521731828"><ele>121.0</ele><time>2026-05-05T12:42:56Z</time></trkpt><trkpt lat="45.92680960650096" lon="13.75235204677117"><ele>120.0</ele><time>2026-05-05T12:42:57Z</time></trkpt><trkpt lat="45.92692043808231" lon="13.752178042307033"><ele>119.0</ele><time>2026-05-05T12:42:58Z</time></trkpt><trkpt lat="45.927035054512885" lon="13.752003640083185"><ele>117.66666666666666</ele><time>2026-05-05T12:42:59Z</time></trkpt><trkpt lat="45.927150738391624" lon="13.751827968714313"><ele>116.33333333333334</ele><time>2026-05-05T12:43:00Z</time></trkpt><trkpt lat="45.92726906678553" lon="13.75164330989639"><ele>115.0</ele><time>2026-05-05T12:43:01Z</time></trkpt><trkpt lat="45.92738869796045" lon="13.751456351886262"><ele>115.0</ele><time>2026-05-05T12:43:02Z</time></trkpt><trkpt lat="45.92750938793269" lon="13.751266547998291"><ele>115.0</ele><time>2026-05-05T12:43:03Z</time></trkpt><trkpt lat="45.92762958254598" lon="13.751074748484985"><ele>115.0</ele><time>2026-05-05T12:43:04Z</time></trkpt><trkpt lat="45.92774836529842" lon="13.750880776191694"><ele>114.66666666666667</ele><time>2026-05-05T12:43:05Z</time></trkpt><trkpt lat="45.92785727166109" lon="13.750682762569191"><ele>114.33333333333334</ele><time>2026-05-05T12:43:06Z</time></trkpt><trkpt lat="45.927953892049175" lon="13.750471692009011"><ele>114.0</ele><time>2026-05-05T12:43:07Z</time></trkpt><trkpt lat="45.92803168345045" lon="13.750246398900453"><ele>113.66666666666666</ele><time>2026-05-05T12:43:08Z</time></trkpt><trkpt lat="45.928086112050195" lon="13.750019774908232"><ele>113.33333333333333</ele><time>2026-05-05T12:43:09Z</time></trkpt><trkpt lat="45.928126850600634" lon="13.74978814889876"><ele>113.0</ele><time>2026-05-05T12:43:10Z</time></trkpt><trkpt lat="45.92815399954064" lon="13.749554877367016"><ele>113.0</ele><time>2026-05-05T12:43:11Z</time></trkpt><trkpt lat="45.92814750301234" lon="13.749309031841333"><ele>113.0</ele><time>2026-05-05T12:43:12Z</time></trkpt><trkpt lat="45.92811985877847" lon="13.74905725487153"><ele>113.0</ele><time>2026-05-05T12:43:13Z</time></trkpt><trkpt lat="45.928089177477744" lon="13.748807164378217"><ele>113.0</ele><time>2026-05-05T12:43:14Z</time></trkpt><trkpt lat="45.928063367182254" lon="13.748560840148752"><ele>113.0</ele><time>2026-05-05T12:43:15Z</time></trkpt><trkpt lat="45.92803974515437" lon="13.748310723543115"><ele>113.0</ele><time>2026-05-05T12:43:16Z</time></trkpt><trkpt lat="45.92801788784325" lon="13.748061351219688"><ele>112.0</ele><time>2026-05-05T12:43:17Z</time></trkpt><trkpt lat="45.92799708600943" lon="13.747823710801018"><ele>111.0</ele><time>2026-05-05T12:43:18Z</time></trkpt><trkpt lat="45.92797582526334" lon="13.747596616374846"><ele>110.0</ele><time>2026-05-05T12:43:19Z</time></trkpt><trkpt lat="45.92795298988695" lon="13.747368656739136"><ele>108.0</ele><time>2026-05-05T12:43:20Z</time></trkpt><trkpt lat="45.927932613869736" lon="13.747142050626652"><ele>106.0</ele><time>2026-05-05T12:43:21Z</time></trkpt><trkpt lat="45.927910620657926" lon="13.746910659837978"><ele>104.0</ele><time>2026-05-05T12:43:22Z</time></trkpt><trkpt lat="45.92788877484925" lon="13.746681383836918"><ele>103.33333333333333</ele><time>2026-05-05T12:43:23Z</time></trkpt><trkpt lat="45.92786564571439" lon="13.74645399539259"><ele>102.66666666666666</ele><time>2026-05-05T12:43:24Z</time></trkpt><trkpt lat="45.92784078351772" lon="13.746223587180175"><ele>102.0</ele><time>2026-05-05T12:43:25Z</time></trkpt><trkpt lat="45.92781821741016" lon="13.74598388812676"><ele>102.0</ele><time>2026-05-05T12:43:26Z</time></trkpt><trkpt lat="45.927795530085305" lon="13.745738968939682"><ele>102.0</ele><time>2026-05-05T12:43:27Z</time></trkpt><trkpt lat="45.927771927631596" lon="13.745471442299683"><ele>102.0</ele><time>2026-05-05T12:43:28Z</time></trkpt><trkpt lat="45.92775238785919" lon="13.745180551255036"><ele>102.33333333333334</ele><time>2026-05-05T12:43:29Z</time></trkpt><trkpt lat="45.927737741097296" lon="13.744870553812603"><ele>102.66666666666667</ele><time>2026-05-05T12:43:30Z</time></trkpt><trkpt lat="45.92773503270837" lon="13.744550411638729"><ele>103.0</ele><time>2026-05-05T12:43:31Z</time></trkpt><trkpt lat="45.92775030619566" lon="13.744217896745834"><ele>103.33333333333334</ele><time>2026-05-05T12:43:32Z</time></trkpt><trkpt lat="45.92777844523711" lon="13.743910677783028"><ele>103.66666666666666</ele><time>2026-05-05T12:43:33Z</time></trkpt><trkpt lat="45.927823200648575" lon="13.743630825693744"><ele>104.0</ele><time>2026-05-05T12:43:34Z</time></trkpt><trkpt lat="45.92786749462486" lon="13.743371027730014"><ele>104.0</ele><time>2026-05-05T12:43:35Z</time></trkpt><trkpt lat="45.92791766137487" lon="13.743144943036722"><ele>104.0</ele><time>2026-05-05T12:43:36Z</time></trkpt><trkpt lat="45.92798682215772" lon="13.742951199024844"><ele>104.0</ele><time>2026-05-05T12:43:37Z</time></trkpt><trkpt lat="45.928070836028326" lon="13.742771372232394"><ele>101.0</ele><time>2026-05-05T12:43:38Z</time></trkpt><trkpt lat="45.928174980566666" lon="13.742601265011954"><ele>98.0</ele><time>2026-05-05T12:43:39Z</time></trkpt><trkpt lat="45.9282958791216" lon="13.742460252566175"><ele>95.0</ele><time>2026-05-05T12:43:40Z</time></trkpt><trkpt lat="45.928435157940086" lon="13.742323928738008"><ele>95.0</ele><time>2026-05-05T12:43:41Z</time></trkpt><trkpt lat="45.92858991794525" lon="13.742202722613872"><ele>95.0</ele><time>2026-05-05T12:43:42Z</time></trkpt><trkpt lat="45.92876126240043" lon="13.74209502631271"><ele>95.0</ele><time>2026-05-05T12:43:43Z</time></trkpt><trkpt lat="45.92894441275936" lon="13.741978068520574"><ele>92.66666666666667</ele><time>2026-05-05T12:43:44Z</time></trkpt><trkpt lat="45.92913598742833" lon="13.741848517813786"><ele>90.33333333333333</ele><time>2026-05-05T12:43:45Z</time></trkpt><trkpt lat="45.929329941567374" lon="13.741711954977633"><ele>88.0</ele><time>2026-05-05T12:43:46Z</time></trkpt><trkpt lat="45.929523739915474" lon="13.741581714485408"><ele>88.0</ele><time>2026-05-05T12:43:47Z</time></trkpt><trkpt lat="45.92969885113185" lon="13.741460568165996"><ele>88.0</ele><time>2026-05-05T12:43:48Z</time></trkpt><trkpt lat="45.92984798091116" lon="13.741329626609367"><ele>88.0</ele><time>2026-05-05T12:43:49Z</time></trkpt><trkpt lat="45.92997510828287" lon="13.74117407121431"><ele>88.5</ele><time>2026-05-05T12:43:50Z</time></trkpt><trkpt lat="45.930080043800956" lon="13.740999499913134"><ele>89.0</ele><time>2026-05-05T12:43:51Z</time></trkpt><trkpt lat="45.9301651577384" lon="13.740832102188842"><ele>89.5</ele><time>2026-05-05T12:43:52Z</time></trkpt><trkpt lat="45.930237940984085" lon="13.740680751992928"><ele>90.0</ele><time>2026-05-05T12:43:53Z</time></trkpt><trkpt lat="45.930310548662234" lon="13.740548735514638"><ele>90.0</ele><time>2026-05-05T12:43:54Z</time></trkpt><trkpt lat="45.93037909794242" lon="13.740424981081073"><ele>90.0</ele><time>2026-05-05T12:43:55Z</time></trkpt><trkpt lat="45.93044392156723" lon="13.740311611774974"><ele>90.0</ele><time>2026-05-05T12:43:56Z</time></trkpt><trkpt lat="45.93050445134477" lon="13.740206820972174"><ele>90.0</ele><time>2026-05-05T12:43:57Z</time></trkpt><trkpt lat="45.93056163660414" lon="13.740108560813383"><ele>90.0</ele><time>2026-05-05T12:43:58Z</time></trkpt><trkpt lat="45.930614047262445" lon="13.7400169934606"><ele>89.2</ele><time>2026-05-05T12:43:59Z</time></trkpt><trkpt lat="45.93066022269178" lon="13.739935736712695"><ele>88.4</ele><time>2026-05-05T12:44:00Z</time></trkpt><trkpt lat="45.930722894893975" lon="13.73983257344469"><ele>87.6</ele><time>2026-05-05T12:44:02Z</time></trkpt><trkpt lat="45.93050870129959" lon="13.739799512858445"><ele>86.8</ele><time>2026-05-05T12:44:19Z</time></trkpt><trkpt lat="45.93047481031568" lon="13.739877850714944"><ele>86.0</ele><time>2026-05-05T12:44:22Z</time></trkpt><trkpt lat="45.93040516341441" lon="13.739984820706542"><ele>86.0</ele><time>2026-05-05T12:50:06Z</time></trkpt><trkpt lat="45.93036124788957" lon="13.740090330445856"><ele>86.0</ele><time>2026-05-05T12:51:51Z</time></trkpt><trkpt lat="45.93034589922171" lon="13.7402168217154"><ele>86.0</ele><time>2026-05-05T12:51:53Z</time></trkpt><trkpt lat="45.93039371885876" lon="13.740295747619834"><ele>86.0</ele><time>2026-05-05T12:52:01Z</time></trkpt><trkpt lat="45.93047663974983" lon="13.740316692795169"><ele>86.0</ele><time>2026-05-05T12:52:06Z</time></trkpt><trkpt lat="45.930553036017514" lon="13.740168935680256"><ele>86.0</ele><time>2026-05-05T12:52:08Z</time></trkpt><trkpt lat="45.930598872452514" lon="13.740073284552901"><ele>86.0</ele><time>2026-05-05T12:52:09Z</time></trkpt><trkpt lat="45.93065061138871" lon="13.739974969818128"><ele>86.0</ele><time>2026-05-05T12:52:10Z</time></trkpt><trkpt lat="45.930701630845014" lon="13.739879727431154"><ele>86.0</ele><time>2026-05-05T12:52:11Z</time></trkpt><trkpt lat="45.93075516673504" lon="13.739788582240203"><ele>86.0</ele><time>2026-05-05T12:52:12Z</time></trkpt><trkpt lat="45.9308067007228" lon="13.739707963433718"><ele>86.0</ele><time>2026-05-05T12:52:13Z</time></trkpt><trkpt lat="45.93088648809977" lon="13.739580958606158"><ele>86.0</ele><time>2026-05-05T12:52:15Z</time></trkpt><trkpt lat="45.93095203288472" lon="13.739470181448535"><ele>86.0</ele><time>2026-05-05T12:52:17Z</time></trkpt><trkpt lat="45.931020226990974" lon="13.739350217514396"><ele>86.0</ele><time>2026-05-05T12:52:19Z</time></trkpt><trkpt lat="45.93109788696134" lon="13.739237217746386"><ele>86.0</ele><time>2026-05-05T12:52:21Z</time></trkpt><trkpt lat="45.93117949638501" lon="13.739113373005402"><ele>86.0</ele><time>2026-05-05T12:52:23Z</time></trkpt><trkpt lat="45.93128920546108" lon="13.73897925268315"><ele>85.83333333333334</ele><time>2026-05-05T12:52:25Z</time></trkpt><trkpt lat="45.93134628582096" lon="13.738903815692165"><ele>85.66666666666667</ele><time>2026-05-05T12:52:26Z</time></trkpt><trkpt lat="45.931429246228504" lon="13.73880490949385"><ele>85.5</ele><time>2026-05-05T12:52:27Z</time></trkpt><trkpt lat="45.93150682372658" lon="13.738707809488982"><ele>85.33333333333333</ele><time>2026-05-05T12:52:28Z</time></trkpt><trkpt lat="45.93157077515846" lon="13.738625738135758"><ele>85.16666666666666</ele><time>2026-05-05T12:52:29Z</time></trkpt><trkpt lat="45.93162500810583" lon="13.738559168219616"><ele>85.0</ele><time>2026-05-05T12:52:30Z</time></trkpt><trkpt lat="45.93171957243154" lon="13.738446014424024"><ele>85.6</ele><time>2026-05-05T12:52:32Z</time></trkpt><trkpt lat="45.931771084223" lon="13.738387558703554"><ele>86.2</ele><time>2026-05-05T12:52:33Z</time></trkpt><trkpt lat="45.9318268627798" lon="13.738324279079851"><ele>86.80000000000001</ele><time>2026-05-05T12:52:34Z</time></trkpt><trkpt lat="45.93192301224659" lon="13.738220357466606"><ele>87.4</ele><time>2026-05-05T12:52:36Z</time></trkpt><trkpt lat="45.93201455589314" lon="13.738114356483214"><ele>88.0</ele><time>2026-05-05T12:52:38Z</time></trkpt><trkpt lat="45.93212412728494" lon="13.73803487451291"><ele>88.0</ele><time>2026-05-05T12:52:40Z</time></trkpt><trkpt lat="45.932184534545215" lon="13.737984125073329"><ele>88.0</ele><time>2026-05-05T12:52:41Z</time></trkpt><trkpt lat="45.93224681395976" lon="13.737928362799948"><ele>88.0</ele><time>2026-05-05T12:52:42Z</time></trkpt><trkpt lat="45.932312471861934" lon="13.73786319611538"><ele>88.0</ele><time>2026-05-05T12:52:43Z</time></trkpt><trkpt lat="45.93237733569707" lon="13.737796948453697"><ele>88.0</ele><time>2026-05-05T12:52:44Z</time></trkpt><trkpt lat="45.93244560629446" lon="13.737727942442383"><ele>88.0</ele><time>2026-05-05T12:52:45Z</time></trkpt><trkpt lat="45.93251001050348" lon="13.737667081490876"><ele>87.60000000000001</ele><time>2026-05-05T12:52:46Z</time></trkpt><trkpt lat="45.93257575272024" lon="13.737605445325192"><ele>87.2</ele><time>2026-05-05T12:52:47Z</time></trkpt><trkpt lat="45.93263072579454" lon="13.737537518826734"><ele>86.8</ele><time>2026-05-05T12:52:48Z</time></trkpt><trkpt lat="45.93270894433413" lon="13.737426206194828"><ele>86.4</ele><time>2026-05-05T12:52:50Z</time></trkpt><trkpt lat="45.93278855404849" lon="13.737315788180352"><ele>86.0</ele><time>2026-05-05T12:52:52Z</time></trkpt><trkpt lat="45.932867781390044" lon="13.737198926776834"><ele>86.0</ele><time>2026-05-05T12:52:54Z</time></trkpt><trkpt lat="45.93294072625526" lon="13.737054245469453"><ele>86.0</ele><time>2026-05-05T12:52:56Z</time></trkpt><trkpt lat="45.93299988906658" lon="13.736912233518156"><ele>86.0</ele><time>2026-05-05T12:52:58Z</time></trkpt><trkpt lat="45.93304633631753" lon="13.73677984415609"><ele>86.0</ele><time>2026-05-05T12:53:00Z</time></trkpt><trkpt lat="45.93307438566423" lon="13.736695020843433"><ele>86.0</ele><time>2026-05-05T12:53:01Z</time></trkpt><trkpt lat="45.93310518836721" lon="13.736592181705587"><ele>85.25</ele><time>2026-05-05T12:53:02Z</time></trkpt><trkpt lat="45.93313471560376" lon="13.736472402797975"><ele>84.5</ele><time>2026-05-05T12:53:03Z</time></trkpt><trkpt lat="45.93315710641388" lon="13.736322901356624"><ele>83.75</ele><time>2026-05-05T12:53:04Z</time></trkpt><trkpt lat="45.93317429194707" lon="13.73614695154962"><ele>83.0</ele><time>2026-05-05T12:53:05Z</time></trkpt><trkpt lat="45.93318583300437" lon="13.735951561148388"><ele>82.33333333333334</ele><time>2026-05-05T12:53:06Z</time></trkpt><trkpt lat="45.93319167337408" lon="13.735720991656958"><ele>81.66666666666667</ele><time>2026-05-05T12:53:07Z</time></trkpt><trkpt lat="45.93319376379083" lon="13.735472431519165"><ele>81.0</ele><time>2026-05-05T12:53:08Z</time></trkpt><trkpt lat="45.93319267946147" lon="13.735214362838462"><ele>81.0</ele><time>2026-05-05T12:53:09Z</time></trkpt><trkpt lat="45.93319562982304" lon="13.734943826602677"><ele>81.0</ele><time>2026-05-05T12:53:10Z</time></trkpt><trkpt lat="45.93320485654251" lon="13.73469305524797"><ele>81.0</ele><time>2026-05-05T12:53:11Z</time></trkpt><trkpt lat="45.9332388650265" lon="13.734457589407832"><ele>80.33333333333333</ele><time>2026-05-05T12:53:12Z</time></trkpt><trkpt lat="45.93328849626611" lon="13.734224709565375"><ele>79.66666666666666</ele><time>2026-05-05T12:53:13Z</time></trkpt><trkpt lat="45.933356225649355" lon="13.734000262364413"><ele>79.0</ele><time>2026-05-05T12:53:14Z</time></trkpt><trkpt lat="45.933427252153" lon="13.733775784864715"><ele>78.66666666666666</ele><time>2026-05-05T12:53:15Z</time></trkpt><trkpt lat="45.93349030762414" lon="13.73354851785562"><ele>78.33333333333333</ele><time>2026-05-05T12:53:16Z</time></trkpt><trkpt lat="45.93355211848117" lon="13.733312959724556"><ele>78.0</ele><time>2026-05-05T12:53:17Z</time></trkpt><trkpt lat="45.93361490619779" lon="13.73307501045685"><ele>78.0</ele><time>2026-05-05T12:53:18Z</time></trkpt><trkpt lat="45.93367736362194" lon="13.732832451548425"><ele>78.0</ele><time>2026-05-05T12:53:19Z</time></trkpt><trkpt lat="45.93374574176844" lon="13.732586495349775"><ele>78.0</ele><time>2026-05-05T12:53:20Z</time></trkpt><trkpt lat="45.93381638913178" lon="13.7323444375839"><ele>77.66666666666667</ele><time>2026-05-05T12:53:21Z</time></trkpt><trkpt lat="45.93389537225377" lon="13.732106611303031"><ele>77.33333333333334</ele><time>2026-05-05T12:53:22Z</time></trkpt><trkpt lat="45.93398663715399" lon="13.731876513684522"><ele>77.0</ele><time>2026-05-05T12:53:23Z</time></trkpt><trkpt lat="45.93408753237353" lon="13.731643035838388"><ele>77.0</ele><time>2026-05-05T12:53:24Z</time></trkpt><trkpt lat="45.93419330744956" lon="13.731421468877466"><ele>77.0</ele><time>2026-05-05T12:53:25Z</time></trkpt><trkpt lat="45.93430707406389" lon="13.731204849417532"><ele>77.0</ele><time>2026-05-05T12:53:26Z</time></trkpt><trkpt lat="45.93442368583916" lon="13.730984779906528"><ele>77.0</ele><time>2026-05-05T12:53:27Z</time></trkpt><trkpt lat="45.93454156644721" lon="13.730766626241225"><ele>77.0</ele><time>2026-05-05T12:53:28Z</time></trkpt><trkpt lat="45.93466119371261" lon="13.730550372720352"><ele>77.0</ele><time>2026-05-05T12:53:29Z</time></trkpt><trkpt lat="45.9347778089415" lon="13.730329588232104"><ele>77.0</ele><time>2026-05-05T12:53:30Z</time></trkpt><trkpt lat="45.93489714932188" lon="13.730107166747112"><ele>77.0</ele><time>2026-05-05T12:53:31Z</time></trkpt><trkpt lat="45.93501673935191" lon="13.729883979044956"><ele>77.0</ele><time>2026-05-05T12:53:32Z</time></trkpt><trkpt lat="45.93513449023904" lon="13.729665658533696"><ele>76.33333333333334</ele><time>2026-05-05T12:53:33Z</time></trkpt><trkpt lat="45.93525186812076" lon="13.729444593988415"><ele>75.66666666666667</ele><time>2026-05-05T12:53:34Z</time></trkpt><trkpt lat="45.935369492801186" lon="13.729230323387682"><ele>75.0</ele><time>2026-05-05T12:53:35Z</time></trkpt><trkpt lat="45.93549252408471" lon="13.729008599544928"><ele>75.0</ele><time>2026-05-05T12:53:36Z</time></trkpt><trkpt lat="45.93561202410039" lon="13.728788228618118"><ele>75.0</ele><time>2026-05-05T12:53:37Z</time></trkpt><trkpt lat="45.93572993775884" lon="13.728569083664594"><ele>75.0</ele><time>2026-05-05T12:53:38Z</time></trkpt><trkpt lat="45.93584221969279" lon="13.728361056058622"><ele>76.0</ele><time>2026-05-05T12:53:39Z</time></trkpt><trkpt lat="45.93594734730406" lon="13.728153703762093"><ele>77.0</ele><time>2026-05-05T12:53:40Z</time></trkpt><trkpt lat="45.93605571282054" lon="13.727958897175444"><ele>78.0</ele><time>2026-05-05T12:53:41Z</time></trkpt><trkpt lat="45.93616732225905" lon="13.727762919169681"><ele>78.0</ele><time>2026-05-05T12:53:42Z</time></trkpt><trkpt lat="45.93628968043689" lon="13.727565923285631"><ele>78.0</ele><time>2026-05-05T12:53:43Z</time></trkpt><trkpt lat="45.936428096880206" lon="13.727375804282776"><ele>78.0</ele><time>2026-05-05T12:53:44Z</time></trkpt><trkpt lat="45.936575566555184" lon="13.72718358720574"><ele>77.33333333333333</ele><time>2026-05-05T12:53:45Z</time></trkpt><trkpt lat="45.936728290850624" lon="13.726987112320067"><ele>76.66666666666666</ele><time>2026-05-05T12:53:46Z</time></trkpt><trkpt lat="45.93687094936889" lon="13.726767179439998"><ele>76.0</ele><time>2026-05-05T12:53:47Z</time></trkpt><trkpt lat="45.9370065045384" lon="13.726537224455944"><ele>76.0</ele><time>2026-05-05T12:53:48Z</time></trkpt><trkpt lat="45.93713077292186" lon="13.726283188449962"><ele>76.0</ele><time>2026-05-05T12:53:49Z</time></trkpt><trkpt lat="45.937254760516076" lon="13.726017382404429"><ele>76.0</ele><time>2026-05-05T12:53:50Z</time></trkpt><trkpt lat="45.93737756061624" lon="13.725740028815602"><ele>75.5</ele><time>2026-05-05T12:53:51Z</time></trkpt><trkpt lat="45.937488900260874" lon="13.725439109887121"><ele>75.0</ele><time>2026-05-05T12:53:52Z</time></trkpt><trkpt lat="45.9375771010838" lon="13.72511158239935"><ele>73.5</ele><time>2026-05-05T12:53:53Z</time></trkpt><trkpt lat="45.93764960665744" lon="13.724762452545447"><ele>72.0</ele><time>2026-05-05T12:53:54Z</time></trkpt><trkpt lat="45.93771861809342" lon="13.72441809530892"><ele>71.5</ele><time>2026-05-05T12:53:55Z</time></trkpt><trkpt lat="45.93779339785915" lon="13.724087877324518"><ele>71.0</ele><time>2026-05-05T12:53:56Z</time></trkpt><trkpt lat="45.937873811939774" lon="13.723760940846551"><ele>70.5</ele><time>2026-05-05T12:53:57Z</time></trkpt><trkpt lat="45.937976291581215" lon="13.723451069707721"><ele>70.0</ele><time>2026-05-05T12:53:58Z</time></trkpt><trkpt lat="45.938093441332725" lon="13.72316395487642"><ele>70.0</ele><time>2026-05-05T12:53:59Z</time></trkpt><trkpt lat="45.93820660043293" lon="13.722885761565378"><ele>70.0</ele><time>2026-05-05T12:54:00Z</time></trkpt><trkpt lat="45.93831082681774" lon="13.722609613693482"><ele>70.0</ele><time>2026-05-05T12:54:01Z</time></trkpt><trkpt lat="45.93840709404426" lon="13.722342620907524"><ele>71.66666666666666</ele><time>2026-05-05T12:54:02Z</time></trkpt><trkpt lat="45.93849714046852" lon="13.72208107491062"><ele>73.33333333333333</ele><time>2026-05-05T12:54:03Z</time></trkpt><trkpt lat="45.938581277128094" lon="13.721815829329428"><ele>75.0</ele><time>2026-05-05T12:54:04Z</time></trkpt><trkpt lat="45.93866282695087" lon="13.721562563384696"><ele>75.33333333333333</ele><time>2026-05-05T12:54:05Z</time></trkpt><trkpt lat="45.938746151752134" lon="13.721317101185392"><ele>75.66666666666666</ele><time>2026-05-05T12:54:06Z</time></trkpt><trkpt lat="45.93883873393591" lon="13.721078511180174"><ele>76.0</ele><time>2026-05-05T12:54:07Z</time></trkpt><trkpt lat="45.938946414188244" lon="13.72083391543443"><ele>75.0</ele><time>2026-05-05T12:54:08Z</time></trkpt><trkpt lat="45.93906844974068" lon="13.720605166837814"><ele>74.0</ele><time>2026-05-05T12:54:09Z</time></trkpt><trkpt lat="45.939195608201125" lon="13.720409922400304"><ele>73.0</ele><time>2026-05-05T12:54:10Z</time></trkpt><trkpt lat="45.93931906823507" lon="13.720239026329835"><ele>72.75</ele><time>2026-05-05T12:54:11Z</time></trkpt><trkpt lat="45.93943375440498" lon="13.720086221242349"><ele>72.5</ele><time>2026-05-05T12:54:12Z</time></trkpt><trkpt lat="45.93953311271796" lon="13.719959577392869"><ele>72.25</ele><time>2026-05-05T12:54:13Z</time></trkpt><trkpt lat="45.939615163063905" lon="13.71985312309044"><ele>72.0</ele><time>2026-05-05T12:54:14Z</time></trkpt><trkpt lat="45.939683154377825" lon="13.719767433333953"><ele>72.0</ele><time>2026-05-05T12:54:15Z</time></trkpt><trkpt lat="45.93973647970684" lon="13.719702716393924"><ele>72.0</ele><time>2026-05-05T12:54:16Z</time></trkpt><trkpt lat="45.9398271282537" lon="13.719596242079179"><ele>72.0</ele><time>2026-05-05T12:54:18Z</time></trkpt><trkpt lat="45.939899833994" lon="13.719516580979787"><ele>72.0</ele><time>2026-05-05T12:54:20Z</time></trkpt><trkpt lat="45.939973991701045" lon="13.719443984865247"><ele>72.0</ele><time>2026-05-05T12:54:22Z</time></trkpt><trkpt lat="45.94003210153795" lon="13.719382456681728"><ele>72.0</ele><time>2026-05-05T12:54:23Z</time></trkpt><trkpt lat="45.94009614251321" lon="13.71932136991387"><ele>71.4</ele><time>2026-05-05T12:54:24Z</time></trkpt><trkpt lat="45.94017108208573" lon="13.719254827931536"><ele>70.80000000000001</ele><time>2026-05-05T12:54:25Z</time></trkpt><trkpt lat="45.940247848585955" lon="13.719189438729675"><ele>70.2</ele><time>2026-05-05T12:54:26Z</time></trkpt><trkpt lat="45.94032873517101" lon="13.719118425897184"><ele>69.60000000000001</ele><time>2026-05-05T12:54:27Z</time></trkpt><trkpt lat="45.94041308498619" lon="13.719047931624827"><ele>69.0</ele><time>2026-05-05T12:54:28Z</time></trkpt><trkpt lat="45.940502533414666" lon="13.718973677262634"><ele>69.0</ele><time>2026-05-05T12:54:29Z</time></trkpt><trkpt lat="45.94058548412099" lon="13.718897557085125"><ele>69.0</ele><time>2026-05-05T12:54:30Z</time></trkpt><trkpt lat="45.94067259583971" lon="13.718816554381553"><ele>69.0</ele><time>2026-05-05T12:54:31Z</time></trkpt><trkpt lat="45.94077780442553" lon="13.71872121392053"><ele>69.0</ele><time>2026-05-05T12:54:32Z</time></trkpt><trkpt lat="45.94089284151301" lon="13.718614758541221"><ele>69.0</ele><time>2026-05-05T12:54:33Z</time></trkpt><trkpt lat="45.94101445224305" lon="13.718488779153782"><ele>69.0</ele><time>2026-05-05T12:54:34Z</time></trkpt><trkpt lat="45.94114401619359" lon="13.718340511063271"><ele>69.0</ele><time>2026-05-05T12:54:35Z</time></trkpt><trkpt lat="45.941275664832396" lon="13.718180530291725"><ele>69.0</ele><time>2026-05-05T12:54:36Z</time></trkpt><trkpt lat="45.94139783325001" lon="13.718017781874797"><ele>69.0</ele><time>2026-05-05T12:54:37Z</time></trkpt><trkpt lat="45.94151183856643" lon="13.717860557893435"><ele>69.0</ele><time>2026-05-05T12:54:38Z</time></trkpt><trkpt lat="45.941614832338246" lon="13.717709162401905"><ele>68.33333333333333</ele><time>2026-05-05T12:54:39Z</time></trkpt><trkpt lat="45.94172374673996" lon="13.71755741749185"><ele>67.66666666666666</ele><time>2026-05-05T12:54:40Z</time></trkpt><trkpt lat="45.941841020267056" lon="13.717405214728302"><ele>67.0</ele><time>2026-05-05T12:54:41Z</time></trkpt><trkpt lat="45.94196244047471" lon="13.71724686886898"><ele>67.0</ele><time>2026-05-05T12:54:42Z</time></trkpt><trkpt lat="45.94209498106686" lon="13.717071073831105"><ele>67.0</ele><time>2026-05-05T12:54:43Z</time></trkpt><trkpt lat="45.942239810745974" lon="13.71687504996515"><ele>67.0</ele><time>2026-05-05T12:54:44Z</time></trkpt><trkpt lat="45.942399231183195" lon="13.716659605507619"><ele>67.0</ele><time>2026-05-05T12:54:45Z</time></trkpt><trkpt lat="45.942584286872766" lon="13.716409129648781"><ele>67.0</ele><time>2026-05-05T12:54:46Z</time></trkpt><trkpt lat="45.94278703524291" lon="13.716145753460834"><ele>69.0</ele><time>2026-05-05T12:54:47Z</time></trkpt><trkpt lat="45.94300521997063" lon="13.71589072789052"><ele>71.0</ele><time>2026-05-05T12:54:48Z</time></trkpt><trkpt lat="45.94323490073713" lon="13.715656450448614"><ele>69.5</ele><time>2026-05-05T12:54:49Z</time></trkpt><trkpt lat="45.94346347156054" lon="13.71545316118558"><ele>68.0</ele><time>2026-05-05T12:54:50Z</time></trkpt><trkpt lat="45.9436773559287" lon="13.715254122873755"><ele>68.5</ele><time>2026-05-05T12:54:51Z</time></trkpt><trkpt lat="45.94387768216707" lon="13.715023523105629"><ele>69.0</ele><time>2026-05-05T12:54:52Z</time></trkpt><trkpt lat="45.944072261111515" lon="13.714763563450397"><ele>69.0</ele><time>2026-05-05T12:54:53Z</time></trkpt><trkpt lat="45.94425971670922" lon="13.71449864334554"><ele>69.0</ele><time>2026-05-05T12:54:54Z</time></trkpt><trkpt lat="45.94445432193269" lon="13.714222935017375"><ele>67.5</ele><time>2026-05-05T12:54:55Z</time></trkpt><trkpt lat="45.944681130378704" lon="13.713960938735003"><ele>66.0</ele><time>2026-05-05T12:54:56Z</time></trkpt><trkpt lat="45.94490393469678" lon="13.713680793650976"><ele>65.5</ele><time>2026-05-05T12:54:57Z</time></trkpt><trkpt lat="45.94512626644808" lon="13.713401656765958"><ele>65.0</ele><time>2026-05-05T12:54:58Z</time></trkpt><trkpt lat="45.9453418254655" lon="13.713121986727746"><ele>65.0</ele><time>2026-05-05T12:54:59Z</time></trkpt><trkpt lat="45.945562087172924" lon="13.712853942110627"><ele>65.0</ele><time>2026-05-05T12:55:00Z</time></trkpt><trkpt lat="45.945770833169796" lon="13.712598893005747"><ele>64.5</ele><time>2026-05-05T12:55:01Z</time></trkpt><trkpt lat="45.94595871279699" lon="13.712367200192057"><ele>64.0</ele><time>2026-05-05T12:55:02Z</time></trkpt><trkpt lat="45.94613408175513" lon="13.712146397026139"><ele>64.0</ele><time>2026-05-05T12:55:03Z</time></trkpt><trkpt lat="45.94629625291926" lon="13.711938967001991"><ele>64.0</ele><time>2026-05-05T12:55:04Z</time></trkpt><trkpt lat="45.94645142092222" lon="13.711739603471848"><ele>64.0</ele><time>2026-05-05T12:55:05Z</time></trkpt><trkpt lat="45.946590215861264" lon="13.711559312853426"><ele>64.0</ele><time>2026-05-05T12:55:06Z</time></trkpt><trkpt lat="45.94671830523788" lon="13.711387617442421"><ele>64.0</ele><time>2026-05-05T12:55:07Z</time></trkpt><trkpt lat="45.94684122897037" lon="13.71121152420477"><ele>64.0</ele><time>2026-05-05T12:55:08Z</time></trkpt><trkpt lat="45.946960571662395" lon="13.711034134901434"><ele>64.0</ele><time>2026-05-05T12:55:09Z</time></trkpt><trkpt lat="45.947070782799415" lon="13.710858523167"><ele>64.0</ele><time>2026-05-05T12:55:10Z</time></trkpt><trkpt lat="45.947172505226895" lon="13.710680216337352"><ele>64.0</ele><time>2026-05-05T12:55:11Z</time></trkpt><trkpt lat="45.947266849734476" lon="13.710496497727457"><ele>64.0</ele><time>2026-05-05T12:55:12Z</time></trkpt><trkpt lat="45.94735628561896" lon="13.710300387953822"><ele>64.0</ele><time>2026-05-05T12:55:13Z</time></trkpt><trkpt lat="45.94744367419948" lon="13.710098937157092"><ele>64.0</ele><time>2026-05-05T12:55:14Z</time></trkpt><trkpt lat="45.94752291359332" lon="13.709886125598048"><ele>63.0</ele><time>2026-05-05T12:55:15Z</time></trkpt><trkpt lat="45.947590822467625" lon="13.709662301974534"><ele>62.0</ele><time>2026-05-05T12:55:16Z</time></trkpt><trkpt lat="45.947654834252525" lon="13.709426594927088"><ele>61.0</ele><time>2026-05-05T12:55:17Z</time></trkpt><trkpt lat="45.947715451134314" lon="13.709182449321922"><ele>61.0</ele><time>2026-05-05T12:55:18Z</time></trkpt><trkpt lat="45.947771861550336" lon="13.70893350556058"><ele>61.0</ele><time>2026-05-05T12:55:19Z</time></trkpt><trkpt lat="45.94782664360187" lon="13.708671872376394"><ele>61.0</ele><time>2026-05-05T12:55:20Z</time></trkpt><trkpt lat="45.94788578811353" lon="13.708397341280612"><ele>61.0</ele><time>2026-05-05T12:55:21Z</time></trkpt><trkpt lat="45.94794922565332" lon="13.70811753639034"><ele>61.0</ele><time>2026-05-05T12:55:22Z</time></trkpt><trkpt lat="45.948016983749625" lon="13.707823760486587"><ele>61.0</ele><time>2026-05-05T12:55:23Z</time></trkpt><trkpt lat="45.948081128915774" lon="13.707552062613859"><ele>61.666666666666664</ele><time>2026-05-05T12:55:24Z</time></trkpt><trkpt lat="45.948142934012544" lon="13.707292721117927"><ele>62.33333333333333</ele><time>2026-05-05T12:55:25Z</time></trkpt><trkpt lat="45.94820201192104" lon="13.70703314798604"><ele>63.0</ele><time>2026-05-05T12:55:26Z</time></trkpt><trkpt lat="45.9482630959101" lon="13.706772660827925"><ele>63.33333333333333</ele><time>2026-05-05T12:55:27Z</time></trkpt><trkpt lat="45.94832057644015" lon="13.70650997903198"><ele>63.666666666666664</ele><time>2026-05-05T12:55:28Z</time></trkpt><trkpt lat="45.94838125960648" lon="13.706245633905239"><ele>64.0</ele><time>2026-05-05T12:55:29Z</time></trkpt><trkpt lat="45.94844548627588" lon="13.705975304623468"><ele>63.33333333333333</ele><time>2026-05-05T12:55:30Z</time></trkpt><trkpt lat="45.94850954851777" lon="13.705694470912725"><ele>62.66666666666667</ele><time>2026-05-05T12:55:31Z</time></trkpt><trkpt lat="45.94857967223777" lon="13.705411701997727"><ele>62.0</ele><time>2026-05-05T12:55:32Z</time></trkpt><trkpt lat="45.94864835296165" lon="13.705119457732513"><ele>61.333333333333336</ele><time>2026-05-05T12:55:33Z</time></trkpt><trkpt lat="45.94871518510259" lon="13.704823554827618"><ele>60.66666666666667</ele><time>2026-05-05T12:55:34Z</time></trkpt><trkpt lat="45.94877714280586" lon="13.704546544595356"><ele>60.0</ele><time>2026-05-05T12:55:35Z</time></trkpt><trkpt lat="45.94883370656036" lon="13.704295614674328"><ele>60.0</ele><time>2026-05-05T12:55:36Z</time></trkpt><trkpt lat="45.948889423605735" lon="13.704047917617025"><ele>60.0</ele><time>2026-05-05T12:55:37Z</time></trkpt><trkpt lat="45.948944012310506" lon="13.703801378991008"><ele>60.0</ele><time>2026-05-05T12:55:38Z</time></trkpt><trkpt lat="45.949002918833514" lon="13.703554452148673"><ele>61.0</ele><time>2026-05-05T12:55:39Z</time></trkpt><trkpt lat="45.94906211031142" lon="13.703309589402624"><ele>62.0</ele><time>2026-05-05T12:55:40Z</time></trkpt><trkpt lat="45.949123727855934" lon="13.703067021721928"><ele>63.0</ele><time>2026-05-05T12:55:41Z</time></trkpt><trkpt lat="45.949179252685255" lon="13.702836217446205"><ele>64.0</ele><time>2026-05-05T12:55:42Z</time></trkpt><trkpt lat="45.94922996150094" lon="13.702615761105658"><ele>65.0</ele><time>2026-05-05T12:55:43Z</time></trkpt><trkpt lat="45.94927985504537" lon="13.702399694147962"><ele>66.0</ele><time>2026-05-05T12:55:44Z</time></trkpt><trkpt lat="45.94932893999732" lon="13.702184297475485"><ele>66.0</ele><time>2026-05-05T12:55:45Z</time></trkpt><trkpt lat="45.94937460444835" lon="13.701968406721388"><ele>66.0</ele><time>2026-05-05T12:55:46Z</time></trkpt><trkpt lat="45.94941600984247" lon="13.701747365754688"><ele>66.0</ele><time>2026-05-05T12:55:47Z</time></trkpt><trkpt lat="45.94945494915205" lon="13.701534383127546"><ele>66.0</ele><time>2026-05-05T12:55:48Z</time></trkpt><trkpt lat="45.949490886658445" lon="13.70133253679968"><ele>66.0</ele><time>2026-05-05T12:55:49Z</time></trkpt><trkpt lat="45.94951815458361" lon="13.70113069539467"><ele>66.0</ele><time>2026-05-05T12:55:50Z</time></trkpt><trkpt lat="45.94954259069404" lon="13.700934720958301"><ele>66.0</ele><time>2026-05-05T12:55:51Z</time></trkpt><trkpt lat="45.949555995912306" lon="13.700747107126722"><ele>66.25</ele><time>2026-05-05T12:55:52Z</time></trkpt><trkpt lat="45.94956958489302" lon="13.700573875897586"><ele>66.5</ele><time>2026-05-05T12:55:53Z</time></trkpt><trkpt lat="45.94958301110108" lon="13.70040857147914"><ele>66.75</ele><time>2026-05-05T12:55:54Z</time></trkpt><trkpt lat="45.949594712448885" lon="13.700239207424376"><ele>67.0</ele><time>2026-05-05T12:55:55Z</time></trkpt><trkpt lat="45.94961693974085" lon="13.700080754379467"><ele>66.66666666666666</ele><time>2026-05-05T12:55:56Z</time></trkpt><trkpt lat="45.94964054986718" lon="13.69993526303698"><ele>66.33333333333333</ele><time>2026-05-05T12:55:57Z</time></trkpt><trkpt lat="45.94966414388921" lon="13.699809307524657"><ele>66.0</ele><time>2026-05-05T12:55:58Z</time></trkpt><trkpt lat="45.9496879566952" lon="13.699691432596731"><ele>65.66666666666667</ele><time>2026-05-05T12:55:59Z</time></trkpt><trkpt lat="45.94971622958352" lon="13.699590989082326"><ele>65.33333333333334</ele><time>2026-05-05T12:56:00Z</time></trkpt><trkpt lat="45.94974282003449" lon="13.69950448474722"><ele>65.0</ele><time>2026-05-05T12:56:01Z</time></trkpt><trkpt lat="45.949809029616354" lon="13.699368934168197"><ele>64.8</ele><time>2026-05-05T12:56:03Z</time></trkpt><trkpt lat="45.94985101079193" lon="13.699299316299868"><ele>64.6</ele><time>2026-05-05T12:56:04Z</time></trkpt><trkpt lat="45.9498785760185" lon="13.699113715907975"><ele>64.4</ele><time>2026-05-05T12:56:06Z</time></trkpt><trkpt lat="45.949870091892706" lon="13.698994712566728"><ele>64.2</ele><time>2026-05-05T12:56:07Z</time></trkpt><trkpt lat="45.949873608881255" lon="13.698868305772349"><ele>64.0</ele><time>2026-05-05T12:56:08Z</time></trkpt><trkpt lat="45.94990191573456" lon="13.698718919964449"><ele>64.25</ele><time>2026-05-05T12:56:09Z</time></trkpt><trkpt lat="45.94995183514761" lon="13.6985536630488"><ele>64.5</ele><time>2026-05-05T12:56:10Z</time></trkpt><trkpt lat="45.95001782350807" lon="13.698369887927083"><ele>64.75</ele><time>2026-05-05T12:56:11Z</time></trkpt><trkpt lat="45.95009974966335" lon="13.69817369310037"><ele>65.0</ele><time>2026-05-05T12:56:12Z</time></trkpt><trkpt lat="45.95019296824133" lon="13.697958331814329"><ele>66.66666666666667</ele><time>2026-05-05T12:56:13Z</time></trkpt><trkpt lat="45.95028911900124" lon="13.697724195205748"><ele>68.33333333333333</ele><time>2026-05-05T12:56:14Z</time></trkpt><trkpt lat="45.950386401241495" lon="13.697474743254151"><ele>70.0</ele><time>2026-05-05T12:56:15Z</time></trkpt><trkpt lat="45.95050465246837" lon="13.69719958555656"><ele>69.5</ele><time>2026-05-05T12:56:16Z</time></trkpt><trkpt lat="45.95065234183305" lon="13.696882234086127"><ele>69.0</ele><time>2026-05-05T12:56:17Z</time></trkpt><trkpt lat="45.950806904191815" lon="13.696559878449285"><ele>70.0</ele><time>2026-05-05T12:56:18Z</time></trkpt><trkpt lat="45.95094899417592" lon="13.696280951108625"><ele>71.0</ele><time>2026-05-05T12:56:19Z</time></trkpt><trkpt lat="45.95107831127724" lon="13.696031093142357"><ele>71.0</ele><time>2026-05-05T12:56:20Z</time></trkpt><trkpt lat="45.95118801804749" lon="13.695797413392276"><ele>71.0</ele><time>2026-05-05T12:56:21Z</time></trkpt><trkpt lat="45.95128043646965" lon="13.695585006209022"><ele>71.0</ele><time>2026-05-05T12:56:22Z</time></trkpt><trkpt lat="45.951360107467764" lon="13.695400975378965"><ele>71.0</ele><time>2026-05-05T12:56:23Z</time></trkpt><trkpt lat="45.951438473180346" lon="13.695223119104199"><ele>71.0</ele><time>2026-05-05T12:56:24Z</time></trkpt><trkpt lat="45.95151707994719" lon="13.695047849522133"><ele>71.0</ele><time>2026-05-05T12:56:25Z</time></trkpt><trkpt lat="45.951599006952385" lon="13.694871106400162"><ele>71.0</ele><time>2026-05-05T12:56:26Z</time></trkpt><trkpt lat="45.951680583806514" lon="13.6946945199439"><ele>71.0</ele><time>2026-05-05T12:56:27Z</time></trkpt><trkpt lat="45.951767764878824" lon="13.694501002736112"><ele>71.0</ele><time>2026-05-05T12:56:28Z</time></trkpt><trkpt lat="45.95186134751892" lon="13.69428718812063"><ele>71.0</ele><time>2026-05-05T12:56:29Z</time></trkpt><trkpt lat="45.95194925504663" lon="13.694084613318939"><ele>71.0</ele><time>2026-05-05T12:56:30Z</time></trkpt><trkpt lat="45.952028507323305" lon="13.693915274375906"><ele>71.0</ele><time>2026-05-05T12:56:31Z</time></trkpt><trkpt lat="45.9521018120273" lon="13.693752825132119"><ele>71.0</ele><time>2026-05-05T12:56:32Z</time></trkpt><trkpt lat="45.95217625256822" lon="13.69359506045611"><ele>71.0</ele><time>2026-05-05T12:56:33Z</time></trkpt><trkpt lat="45.952252624673775" lon="13.693431077323924"><ele>71.25</ele><time>2026-05-05T12:56:34Z</time></trkpt><trkpt lat="45.952328359727126" lon="13.693271013097117"><ele>71.5</ele><time>2026-05-05T12:56:35Z</time></trkpt><trkpt lat="45.95240261719704" lon="13.693106199864"><ele>71.75</ele><time>2026-05-05T12:56:36Z</time></trkpt><trkpt lat="45.95247685527393" lon="13.692941234455995"><ele>72.0</ele><time>2026-05-05T12:56:37Z</time></trkpt><trkpt lat="45.952553124849" lon="13.69277893100142"><ele>72.75</ele><time>2026-05-05T12:56:38Z</time></trkpt><trkpt lat="45.95263234713131" lon="13.692616023489533"><ele>73.5</ele><time>2026-05-05T12:56:39Z</time></trkpt><trkpt lat="45.95270953886554" lon="13.692452796424003"><ele>74.25</ele><time>2026-05-05T12:56:40Z</time></trkpt><trkpt lat="45.952786619074075" lon="13.692281183660361"><ele>75.0</ele><time>2026-05-05T12:56:41Z</time></trkpt><trkpt lat="45.95286603295885" lon="13.692102231793317"><ele>75.0</ele><time>2026-05-05T12:56:42Z</time></trkpt><trkpt lat="45.95295536973305" lon="13.691917809973601"><ele>75.0</ele><time>2026-05-05T12:56:43Z</time></trkpt><trkpt lat="45.95304982484842" lon="13.691714044411897"><ele>75.0</ele><time>2026-05-05T12:56:44Z</time></trkpt><trkpt lat="45.95314877316568" lon="13.691496129549092"><ele>75.0</ele><time>2026-05-05T12:56:45Z</time></trkpt><trkpt lat="45.953249060365344" lon="13.69127706705477"><ele>75.0</ele><time>2026-05-05T12:56:46Z</time></trkpt><trkpt lat="45.953346786020504" lon="13.69106657724689"><ele>75.0</ele><time>2026-05-05T12:56:47Z</time></trkpt><trkpt lat="45.9534383338845" lon="13.690863587885922"><ele>76.33333333333333</ele><time>2026-05-05T12:56:48Z</time></trkpt><trkpt lat="45.95353181700045" lon="13.690656646014686"><ele>77.66666666666666</ele><time>2026-05-05T12:56:49Z</time></trkpt><trkpt lat="45.953621464170105" lon="13.690444522463418"><ele>79.0</ele><time>2026-05-05T12:56:50Z</time></trkpt><trkpt lat="45.95371520046467" lon="13.69023731046171"><ele>80.0</ele><time>2026-05-05T12:56:51Z</time></trkpt><trkpt lat="45.95380841372299" lon="13.690021634167792"><ele>81.0</ele><time>2026-05-05T12:56:52Z</time></trkpt><trkpt lat="45.95389862596051" lon="13.689804231850609"><ele>82.0</ele><time>2026-05-05T12:56:53Z</time></trkpt><trkpt lat="45.95398760769736" lon="13.689587880833493"><ele>82.66666666666666</ele><time>2026-05-05T12:56:54Z</time></trkpt><trkpt lat="45.954078301788975" lon="13.689367833687605"><ele>83.33333333333333</ele><time>2026-05-05T12:56:55Z</time></trkpt><trkpt lat="45.9541750119354" lon="13.689135770118542"><ele>84.0</ele><time>2026-05-05T12:56:56Z</time></trkpt><trkpt lat="45.954269552005854" lon="13.688891437026252"><ele>84.0</ele><time>2026-05-05T12:56:57Z</time></trkpt><trkpt lat="45.95436187588169" lon="13.68863414847459"><ele>84.0</ele><time>2026-05-05T12:56:58Z</time></trkpt><trkpt lat="45.95444555620674" lon="13.688373011140767"><ele>84.0</ele><time>2026-05-05T12:56:59Z</time></trkpt><trkpt lat="45.95452427538831" lon="13.688095185602993"><ele>84.5</ele><time>2026-05-05T12:57:00Z</time></trkpt><trkpt lat="45.954608191892504" lon="13.68779237239985"><ele>85.0</ele><time>2026-05-05T12:57:01Z</time></trkpt><trkpt lat="45.95470747206781" lon="13.687464949924424"><ele>89.0</ele><time>2026-05-05T12:57:02Z</time></trkpt><trkpt lat="45.954804189256436" lon="13.687131444810083"><ele>93.0</ele><time>2026-05-05T12:57:03Z</time></trkpt><trkpt lat="45.954891701464106" lon="13.68679428030526"><ele>96.0</ele><time>2026-05-05T12:57:04Z</time></trkpt><trkpt lat="45.95497338737185" lon="13.686455832320311"><ele>99.0</ele><time>2026-05-05T12:57:05Z</time></trkpt><trkpt lat="45.95504741307966" lon="13.686107983806043"><ele>102.5</ele><time>2026-05-05T12:57:06Z</time></trkpt><trkpt lat="45.95511422801262" lon="13.685752600984292"><ele>106.0</ele><time>2026-05-05T12:57:07Z</time></trkpt><trkpt lat="45.955181934688994" lon="13.685391114826393"><ele>108.5</ele><time>2026-05-05T12:57:08Z</time></trkpt><trkpt lat="45.95525584353441" lon="13.685032630969312"><ele>111.0</ele><time>2026-05-05T12:57:09Z</time></trkpt><trkpt lat="45.955333393611326" lon="13.684661288950284"><ele>112.5</ele><time>2026-05-05T12:57:10Z</time></trkpt><trkpt lat="45.955425477704786" lon="13.684279793884558"><ele>114.0</ele><time>2026-05-05T12:57:11Z</time></trkpt><trkpt lat="45.95553953673412" lon="13.683892974612595"><ele>115.0</ele><time>2026-05-05T12:57:12Z</time></trkpt><trkpt lat="45.955664686653904" lon="13.683515098723754"><ele>116.0</ele><time>2026-05-05T12:57:13Z</time></trkpt><trkpt lat="45.9558009738548" lon="13.68314903662502"><ele>115.5</ele><time>2026-05-05T12:57:14Z</time></trkpt><trkpt lat="45.955952100169554" lon="13.682801838126066"><ele>115.0</ele><time>2026-05-05T12:57:15Z</time></trkpt><trkpt lat="45.95610948545692" lon="13.682453737664883"><ele>112.5</ele><time>2026-05-05T12:57:16Z</time></trkpt><trkpt lat="45.956269323472" lon="13.68212514839838"><ele>110.0</ele><time>2026-05-05T12:57:17Z</time></trkpt><trkpt lat="45.95641828783327" lon="13.681797380653562"><ele>108.5</ele><time>2026-05-05T12:57:18Z</time></trkpt><trkpt lat="45.95655749329949" lon="13.681461316495968"><ele>107.0</ele><time>2026-05-05T12:57:19Z</time></trkpt><trkpt lat="45.95668133652606" lon="13.681126347550281"><ele>110.5</ele><time>2026-05-05T12:57:20Z</time></trkpt><trkpt lat="45.956788842403974" lon="13.680794741437825"><ele>114.0</ele><time>2026-05-05T12:57:21Z</time></trkpt><trkpt lat="45.95687357967451" lon="13.680478327704437"><ele>116.0</ele><time>2026-05-05T12:57:22Z</time></trkpt><trkpt lat="45.956939035215534" lon="13.680155800405554"><ele>118.0</ele><time>2026-05-05T12:57:23Z</time></trkpt><trkpt lat="45.9569803964772" lon="13.67984732098103"><ele>118.0</ele><time>2026-05-05T12:57:24Z</time></trkpt><trkpt lat="45.95700424142735" lon="13.679552406362998"><ele>118.0</ele><time>2026-05-05T12:57:25Z</time></trkpt><trkpt lat="45.95701155279632" lon="13.679257500744324"><ele>118.0</ele><time>2026-05-05T12:57:26Z</time></trkpt><trkpt lat="45.95699712556874" lon="13.678968633272381"><ele>119.66666666666667</ele><time>2026-05-05T12:57:27Z</time></trkpt><trkpt lat="45.95696664120413" lon="13.67869451995509"><ele>121.33333333333334</ele><time>2026-05-05T12:57:28Z</time></trkpt><trkpt lat="45.956928771331384" lon="13.678434220844217"><ele>123.0</ele><time>2026-05-05T12:57:29Z</time></trkpt><trkpt lat="45.95688637290635" lon="13.678183662486353"><ele>123.0</ele><time>2026-05-05T12:57:30Z</time></trkpt><trkpt lat="45.95682821068754" lon="13.677921930123244"><ele>123.0</ele><time>2026-05-05T12:57:31Z</time></trkpt><trkpt lat="45.95675214983244" lon="13.677637704060977"><ele>123.0</ele><time>2026-05-05T12:57:32Z</time></trkpt><trkpt lat="45.956676001651054" lon="13.677329636161172"><ele>121.0</ele><time>2026-05-05T12:57:33Z</time></trkpt><trkpt lat="45.956604194262006" lon="13.677003167100079"><ele>119.0</ele><time>2026-05-05T12:57:34Z</time></trkpt><trkpt lat="45.956542997719986" lon="13.676680995177982"><ele>119.0</ele><time>2026-05-05T12:57:35Z</time></trkpt><trkpt lat="45.956474516480135" lon="13.67635009205237"><ele>119.0</ele><time>2026-05-05T12:57:36Z</time></trkpt><trkpt lat="45.956402039368584" lon="13.676016964339214"><ele>123.0</ele><time>2026-05-05T12:57:37Z</time></trkpt><trkpt lat="45.956333922946264" lon="13.675690461289316"><ele>127.0</ele><time>2026-05-05T12:57:38Z</time></trkpt><trkpt lat="45.95627155897733" lon="13.675367402776667"><ele>128.5</ele><time>2026-05-05T12:57:39Z</time></trkpt><trkpt lat="45.95621405351475" lon="13.675040225247002"><ele>130.0</ele><time>2026-05-05T12:57:40Z</time></trkpt><trkpt lat="45.95615987779941" lon="13.674709540521686"><ele>128.0</ele><time>2026-05-05T12:57:41Z</time></trkpt><trkpt lat="45.956116423282744" lon="13.674376506161106"><ele>126.0</ele><time>2026-05-05T12:57:42Z</time></trkpt><trkpt lat="45.956079375227986" lon="13.67404164065819"><ele>126.0</ele><time>2026-05-05T12:57:43Z</time></trkpt><trkpt lat="45.956053737236125" lon="13.673715574530878"><ele>126.0</ele><time>2026-05-05T12:57:44Z</time></trkpt><trkpt lat="45.95604529307135" lon="13.67340614357645"><ele>126.0</ele><time>2026-05-05T12:57:45Z</time></trkpt><trkpt lat="45.9560469424438" lon="13.673107338339118"><ele>124.0</ele><time>2026-05-05T12:57:46Z</time></trkpt><trkpt lat="45.95605674347834" lon="13.67283161469854"><ele>122.0</ele><time>2026-05-05T12:57:47Z</time></trkpt><trkpt lat="45.95606935902845" lon="13.672581225083528"><ele>120.0</ele><time>2026-05-05T12:57:48Z</time></trkpt><trkpt lat="45.95608896204035" lon="13.672352834146016"><ele>119.75</ele><time>2026-05-05T12:57:49Z</time></trkpt><trkpt lat="45.9561056770081" lon="13.672138383046642"><ele>119.5</ele><time>2026-05-05T12:57:50Z</time></trkpt><trkpt lat="45.95612741348469" lon="13.671947556361568"><ele>119.25</ele><time>2026-05-05T12:57:51Z</time></trkpt><trkpt lat="45.95615002295579" lon="13.671765780083401"><ele>119.0</ele><time>2026-05-05T12:57:52Z</time></trkpt><trkpt lat="45.956171706657294" lon="13.671603844492598"><ele>118.99999999999999</ele><time>2026-05-05T12:57:53Z</time></trkpt><trkpt lat="45.95619008372671" lon="13.671464696811675"><ele>119.0</ele><time>2026-05-05T12:57:54Z</time></trkpt><trkpt lat="45.95620804715516" lon="13.671353209122467"><ele>119.0</ele><time>2026-05-05T12:57:55Z</time></trkpt><trkpt lat="45.956237363317605" lon="13.671193719324895"><ele>119.0</ele><time>2026-05-05T12:57:57Z</time></trkpt><trkpt lat="45.95625963358356" lon="13.67108330718906"><ele>118.99999999999999</ele><time>2026-05-05T12:57:59Z</time></trkpt><trkpt lat="45.95627788374468" lon="13.670989911830901"><ele>119.0</ele><time>2026-05-05T12:58:00Z</time></trkpt><trkpt lat="45.95630116671832" lon="13.67086011168034"><ele>118.25</ele><time>2026-05-05T12:58:01Z</time></trkpt><trkpt lat="45.956329210615365" lon="13.670719640891779"><ele>117.5</ele><time>2026-05-05T12:58:02Z</time></trkpt><trkpt lat="45.956364145516915" lon="13.670565612636555"><ele>116.75</ele><time>2026-05-05T12:58:03Z</time></trkpt><trkpt lat="45.95641002755238" lon="13.670397878672834"><ele>116.0</ele><time>2026-05-05T12:58:04Z</time></trkpt><trkpt lat="45.95643895469405" lon="13.67020456987494"><ele>114.66666666666666</ele><time>2026-05-05T12:58:05Z</time></trkpt><trkpt lat="45.95648012437459" lon="13.67000123642769"><ele>113.33333333333334</ele><time>2026-05-05T12:58:06Z</time></trkpt><trkpt lat="45.95652581377601" lon="13.6697855489072"><ele>112.0</ele><time>2026-05-05T12:58:07Z</time></trkpt><trkpt lat="45.95657396123418" lon="13.66955166405237"><ele>112.0</ele><time>2026-05-05T12:58:08Z</time></trkpt><trkpt lat="45.956623000974204" lon="13.669303781924441"><ele>112.0</ele><time>2026-05-05T12:58:09Z</time></trkpt><trkpt lat="45.95667356079653" lon="13.66904962940955"><ele>112.0</ele><time>2026-05-05T12:58:10Z</time></trkpt><trkpt lat="45.95672710287438" lon="13.668784999983737"><ele>115.33333333333334</ele><time>2026-05-05T12:58:11Z</time></trkpt><trkpt lat="45.956782945414076" lon="13.668518120573202"><ele>118.66666666666666</ele><time>2026-05-05T12:58:12Z</time></trkpt><trkpt lat="45.956837417351174" lon="13.668250663010248"><ele>122.0</ele><time>2026-05-05T12:58:13Z</time></trkpt><trkpt lat="45.95689519470043" lon="13.667977238755103"><ele>122.0</ele><time>2026-05-05T12:58:14Z</time></trkpt><trkpt lat="45.95694851190293" lon="13.667700570404085"><ele>122.0</ele><time>2026-05-05T12:58:15Z</time></trkpt><trkpt lat="45.95700100839521" lon="13.66742211951889"><ele>122.0</ele><time>2026-05-05T12:58:16Z</time></trkpt><trkpt lat="45.95705264322564" lon="13.667132254741238"><ele>121.33333333333333</ele><time>2026-05-05T12:58:17Z</time></trkpt><trkpt lat="45.95710095280284" lon="13.66684191716669"><ele>120.66666666666666</ele><time>2026-05-05T12:58:18Z</time></trkpt><trkpt lat="45.95714216923995" lon="13.666536203229844"><ele>120.0</ele><time>2026-05-05T12:58:19Z</time></trkpt><trkpt lat="45.95717516215386" lon="13.666227671020815"><ele>119.0</ele><time>2026-05-05T12:58:20Z</time></trkpt><trkpt lat="45.95720088913112" lon="13.665922989817807"><ele>118.0</ele><time>2026-05-05T12:58:21Z</time></trkpt><trkpt lat="45.95722586886054" lon="13.665641127261072"><ele>117.0</ele><time>2026-05-05T12:58:22Z</time></trkpt><trkpt lat="45.957236304982885" lon="13.665379733601183"><ele>116.33333333333334</ele><time>2026-05-05T12:58:23Z</time></trkpt><trkpt lat="45.957245499050636" lon="13.665130107295678"><ele>115.66666666666667</ele><time>2026-05-05T12:58:24Z</time></trkpt><trkpt lat="45.957253324742986" lon="13.664900546876"><ele>115.0</ele><time>2026-05-05T12:58:25Z</time></trkpt><trkpt lat="45.957259287987924" lon="13.664687727641205"><ele>115.0</ele><time>2026-05-05T12:58:26Z</time></trkpt><trkpt lat="45.9572618695035" lon="13.664487772375084"><ele>115.0</ele><time>2026-05-05T12:58:27Z</time></trkpt><trkpt lat="45.95726673270984" lon="13.664306480675412"><ele>115.0</ele><time>2026-05-05T12:58:28Z</time></trkpt><trkpt lat="45.95727258487641" lon="13.664138217687396"><ele>115.0</ele><time>2026-05-05T12:58:29Z</time></trkpt><trkpt lat="45.95727955728434" lon="13.663972813127149"><ele>114.75</ele><time>2026-05-05T12:58:30Z</time></trkpt><trkpt lat="45.95728761626682" lon="13.66380647490471"><ele>114.5</ele><time>2026-05-05T12:58:31Z</time></trkpt><trkpt lat="45.95729691771717" lon="13.663629441181985"><ele>114.25</ele><time>2026-05-05T12:58:32Z</time></trkpt><trkpt lat="45.95731154521798" lon="13.66345432529295"><ele>114.0</ele><time>2026-05-05T12:58:33Z</time></trkpt><trkpt lat="45.957311361379986" lon="13.663295399107051"><ele>113.83333333333333</ele><time>2026-05-05T12:58:34Z</time></trkpt><trkpt lat="45.957314586096864" lon="13.663157932048334"><ele>113.66666666666666</ele><time>2026-05-05T12:58:35Z</time></trkpt><trkpt lat="45.95731655624246" lon="13.663051050028848"><ele>113.5</ele><time>2026-05-05T12:58:36Z</time></trkpt><trkpt lat="45.95731909804537" lon="13.662953233229837"><ele>113.33333333333333</ele><time>2026-05-05T12:58:37Z</time></trkpt><trkpt lat="45.957323041628385" lon="13.66285632103213"><ele>113.16666666666666</ele><time>2026-05-05T12:58:38Z</time></trkpt><trkpt lat="45.9573276755581" lon="13.662749125062717"><ele>113.0</ele><time>2026-05-05T12:58:39Z</time></trkpt><trkpt lat="45.957333455890485" lon="13.662634600709534"><ele>113.0</ele><time>2026-05-05T12:58:40Z</time></trkpt><trkpt lat="45.957339410606565" lon="13.662512578136036"><ele>113.00000000000001</ele><time>2026-05-05T12:58:41Z</time></trkpt><trkpt lat="45.95734261267123" lon="13.662379508280864"><ele>113.00000000000001</ele><time>2026-05-05T12:58:42Z</time></trkpt><trkpt lat="45.95734167648773" lon="13.662243471116877"><ele>113.0</ele><time>2026-05-05T12:58:43Z</time></trkpt><trkpt lat="45.957340809489295" lon="13.662097487681958"><ele>113.0</ele><time>2026-05-05T12:58:44Z</time></trkpt><trkpt lat="45.95734327100087" lon="13.661938299757315"><ele>112.75</ele><time>2026-05-05T12:58:45Z</time></trkpt><trkpt lat="45.957346130554214" lon="13.661770254706576"><ele>112.5</ele><time>2026-05-05T12:58:46Z</time></trkpt><trkpt lat="45.95734506647971" lon="13.661604216537985"><ele>112.25</ele><time>2026-05-05T12:58:47Z</time></trkpt><trkpt lat="45.95734341590908" lon="13.661439813121634"><ele>112.0</ele><time>2026-05-05T12:58:48Z</time></trkpt><trkpt lat="45.95734024534842" lon="13.661280337590343"><ele>111.25</ele><time>2026-05-05T12:58:49Z</time></trkpt><trkpt lat="45.957338152301006" lon="13.661111027211547"><ele>110.5</ele><time>2026-05-05T12:58:50Z</time></trkpt><trkpt lat="45.95733769264855" lon="13.660931006432438"><ele>109.75</ele><time>2026-05-05T12:58:51Z</time></trkpt><trkpt lat="45.95734089564858" lon="13.660747026153715"><ele>109.0</ele><time>2026-05-05T12:58:52Z</time></trkpt><trkpt lat="45.957342440204386" lon="13.660565941632123"><ele>109.0</ele><time>2026-05-05T12:58:53Z</time></trkpt><trkpt lat="45.95734808288003" lon="13.660391333598424"><ele>109.0</ele><time>2026-05-05T12:58:54Z</time></trkpt><trkpt lat="45.95735452301435" lon="13.660224690160357"><ele>109.0</ele><time>2026-05-05T12:58:55Z</time></trkpt><trkpt lat="45.95735882109992" lon="13.660059549497621"><ele>109.0</ele><time>2026-05-05T12:58:56Z</time></trkpt><trkpt lat="45.957361303655674" lon="13.659897388017816"><ele>109.0</ele><time>2026-05-05T12:58:57Z</time></trkpt><trkpt lat="45.95736376720514" lon="13.659737238274165"><ele>109.0</ele><time>2026-05-05T12:58:58Z</time></trkpt><trkpt lat="45.957366248361716" lon="13.659583268217139"><ele>109.0</ele><time>2026-05-05T12:58:59Z</time></trkpt><trkpt lat="45.9573690724823" lon="13.659441364122118"><ele>109.0</ele><time>2026-05-05T12:59:00Z</time></trkpt><trkpt lat="45.95737112861519" lon="13.659305916771727"><ele>109.0</ele><time>2026-05-05T12:59:01Z</time></trkpt><trkpt lat="45.957375382217045" lon="13.65916116586812"><ele>109.0</ele><time>2026-05-05T12:59:02Z</time></trkpt><trkpt lat="45.95737807234793" lon="13.65901812236029"><ele>109.0</ele><time>2026-05-05T12:59:03Z</time></trkpt><trkpt lat="45.95738170481796" lon="13.658868676422347"><ele>109.0</ele><time>2026-05-05T12:59:04Z</time></trkpt><trkpt lat="45.95738196161112" lon="13.658726622907286"><ele>109.0</ele><time>2026-05-05T12:59:05Z</time></trkpt><trkpt lat="45.95738568447023" lon="13.658573789421066"><ele>109.0</ele><time>2026-05-05T12:59:06Z</time></trkpt><trkpt lat="45.9573863864691" lon="13.658424564274052"><ele>109.6</ele><time>2026-05-05T12:59:07Z</time></trkpt><trkpt lat="45.95738493527539" lon="13.658282620086226"><ele>110.2</ele><time>2026-05-05T12:59:08Z</time></trkpt><trkpt lat="45.957391570265585" lon="13.658145620598503"><ele>110.79999999999998</ele><time>2026-05-05T12:59:09Z</time></trkpt><trkpt lat="45.95738498281995" lon="13.657965268770363"><ele>111.39999999999999</ele><time>2026-05-05T12:59:10Z</time></trkpt><trkpt lat="45.957390000696975" lon="13.657818468052342"><ele>112.0</ele><time>2026-05-05T12:59:11Z</time></trkpt><trkpt lat="45.95740053748758" lon="13.657660067473527"><ele>112.75</ele><time>2026-05-05T12:59:12Z</time></trkpt><trkpt lat="45.957417511600156" lon="13.657499550502632"><ele>113.5</ele><time>2026-05-05T12:59:13Z</time></trkpt><trkpt lat="45.95743029158678" lon="13.65733431946536"><ele>114.25</ele><time>2026-05-05T12:59:14Z</time></trkpt><trkpt lat="45.95745043845553" lon="13.657158900000404"><ele>115.0</ele><time>2026-05-05T12:59:15Z</time></trkpt><trkpt lat="45.95747674791362" lon="13.656975734907304"><ele>114.75</ele><time>2026-05-05T12:59:16Z</time></trkpt><trkpt lat="45.957506971068476" lon="13.656788794678292"><ele>114.5</ele><time>2026-05-05T12:59:17Z</time></trkpt><trkpt lat="45.957543556019466" lon="13.656605883829968"><ele>114.25</ele><time>2026-05-05T12:59:18Z</time></trkpt><trkpt lat="45.95758563456622" lon="13.656435702913305"><ele>114.0</ele><time>2026-05-05T12:59:19Z</time></trkpt><trkpt lat="45.95762363726106" lon="13.656262527679752"><ele>114.25</ele><time>2026-05-05T12:59:20Z</time></trkpt><trkpt lat="45.95766251999637" lon="13.656086962726674"><ele>114.5</ele><time>2026-05-05T12:59:21Z</time></trkpt><trkpt lat="45.95770035313089" lon="13.655908933796244"><ele>114.75</ele><time>2026-05-05T12:59:22Z</time></trkpt><trkpt lat="45.957736539872975" lon="13.655728849319209"><ele>115.0</ele><time>2026-05-05T12:59:23Z</time></trkpt><trkpt lat="45.95777327459938" lon="13.655542806769725"><ele>115.0</ele><time>2026-05-05T12:59:24Z</time></trkpt><trkpt lat="45.95781106846058" lon="13.655359591496957"><ele>115.0</ele><time>2026-05-05T12:59:25Z</time></trkpt><trkpt lat="45.9578467718876" lon="13.655183344175983"><ele>115.0</ele><time>2026-05-05T12:59:26Z</time></trkpt><trkpt lat="45.95788085448495" lon="13.655012069506807"><ele>115.0</ele><time>2026-05-05T12:59:27Z</time></trkpt><trkpt lat="45.95791482030675" lon="13.654845924756664"><ele>114.5</ele><time>2026-05-05T12:59:28Z</time></trkpt><trkpt lat="45.95794763704856" lon="13.654682337155885"><ele>114.0</ele><time>2026-05-05T12:59:29Z</time></trkpt><trkpt lat="45.95798135293775" lon="13.654516059888909"><ele>113.5</ele><time>2026-05-05T12:59:30Z</time></trkpt><trkpt lat="45.95801239057144" lon="13.654353034007231"><ele>113.0</ele><time>2026-05-05T12:59:31Z</time></trkpt><trkpt lat="45.95804375076433" lon="13.654201563932483"><ele>112.60000000000001</ele><time>2026-05-05T12:59:32Z</time></trkpt><trkpt lat="45.95807680651797" lon="13.654043317174317"><ele>112.20000000000002</ele><time>2026-05-05T12:59:33Z</time></trkpt><trkpt lat="45.958109246079914" lon="13.653893786708212"><ele>111.8</ele><time>2026-05-05T12:59:34Z</time></trkpt><trkpt lat="45.95814239311459" lon="13.653744284593463"><ele>111.4</ele><time>2026-05-05T12:59:35Z</time></trkpt><trkpt lat="45.95817651007271" lon="13.653611139297144"><ele>111.0</ele><time>2026-05-05T12:59:36Z</time></trkpt><trkpt lat="45.95821103405184" lon="13.653476852168765"><ele>110.83333333333333</ele><time>2026-05-05T12:59:37Z</time></trkpt><trkpt lat="45.95824504912791" lon="13.653350957500377"><ele>110.66666666666666</ele><time>2026-05-05T12:59:38Z</time></trkpt><trkpt lat="45.9582836092415" lon="13.653236204986943"><ele>110.5</ele><time>2026-05-05T12:59:39Z</time></trkpt><trkpt lat="45.958324074771" lon="13.653132333959768"><ele>110.33333333333333</ele><time>2026-05-05T12:59:40Z</time></trkpt><trkpt lat="45.958369480336295" lon="13.653047392721113"><ele>110.16666666666666</ele><time>2026-05-05T12:59:41Z</time></trkpt><trkpt lat="45.95838465305744" lon="13.652959178235593"><ele>110.0</ele><time>2026-05-05T12:59:42Z</time></trkpt><trkpt lat="45.95845761488636" lon="13.652923568673367"><ele>110.33333333333333</ele><time>2026-05-05T12:59:43Z</time></trkpt><trkpt lat="45.95852861626223" lon="13.652881803776669"><ele>110.66666666666666</ele><time>2026-05-05T12:59:45Z</time></trkpt><trkpt lat="45.95862784014219" lon="13.652836916018488"><ele>111.0</ele><time>2026-05-05T12:59:47Z</time></trkpt><trkpt lat="45.95868100017292" lon="13.652784680641867"><ele>111.33333333333334</ele><time>2026-05-05T12:59:48Z</time></trkpt><trkpt lat="45.958730415977264" lon="13.652716141098141"><ele>111.66666666666667</ele><time>2026-05-05T12:59:49Z</time></trkpt><trkpt lat="45.95878381367196" lon="13.652640825907646"><ele>112.0</ele><time>2026-05-05T12:59:50Z</time></trkpt><trkpt lat="45.95884821504582" lon="13.652582034580034"><ele>110.8</ele><time>2026-05-05T12:59:51Z</time></trkpt><trkpt lat="45.95892431490999" lon="13.652546491127794"><ele>109.6</ele><time>2026-05-05T12:59:52Z</time></trkpt><trkpt lat="45.95900539418978" lon="13.652542767632482"><ele>108.39999999999999</ele><time>2026-05-05T12:59:53Z</time></trkpt><trkpt lat="45.959092944008674" lon="13.652581908867225"><ele>107.19999999999999</ele><time>2026-05-05T12:59:54Z</time></trkpt><trkpt lat="45.959185249410076" lon="13.65264013740618"><ele>106.0</ele><time>2026-05-05T12:59:55Z</time></trkpt><trkpt lat="45.9592976890904" lon="13.652707308618647"><ele>107.33333333333334</ele><time>2026-05-05T12:59:56Z</time></trkpt><trkpt lat="45.959427942057026" lon="13.652791517956413"><ele>108.66666666666666</ele><time>2026-05-05T12:59:57Z</time></trkpt><trkpt lat="45.959573159585126" lon="13.65289010747217"><ele>110.0</ele><time>2026-05-05T12:59:58Z</time></trkpt><trkpt lat="45.959723822622784" lon="13.653000480051277"><ele>110.0</ele><time>2026-05-05T12:59:59Z</time></trkpt><trkpt lat="45.9598667161314" lon="13.653112344607527"><ele>110.0</ele><time>2026-05-05T13:00:00Z</time></trkpt><trkpt lat="45.960006140435304" lon="13.653224299423014"><ele>110.0</ele><time>2026-05-05T13:00:01Z</time></trkpt><trkpt lat="45.96013552267552" lon="13.653358893073936"><ele>111.33333333333333</ele><time>2026-05-05T13:00:02Z</time></trkpt><trkpt lat="45.960262180576365" lon="13.653475175449422"><ele>112.66666666666666</ele><time>2026-05-05T13:00:03Z</time></trkpt><trkpt lat="45.960388848479056" lon="13.65358323466532"><ele>114.0</ele><time>2026-05-05T13:00:04Z</time></trkpt><trkpt lat="45.96051924271898" lon="13.653698944632739"><ele>114.0</ele><time>2026-05-05T13:00:05Z</time></trkpt><trkpt lat="45.960646176014656" lon="13.653814626258034"><ele>114.0</ele><time>2026-05-05T13:00:06Z</time></trkpt><trkpt lat="45.960773079620644" lon="13.653928038541899"><ele>114.0</ele><time>2026-05-05T13:00:07Z</time></trkpt><trkpt lat="45.96091924380103" lon="13.654040780866083"><ele>111.66666666666666</ele><time>2026-05-05T13:00:08Z</time></trkpt><trkpt lat="45.96108726961081" lon="13.654184558440578"><ele>109.33333333333333</ele><time>2026-05-05T13:00:09Z</time></trkpt><trkpt lat="45.96127878689633" lon="13.65428995984683"><ele>107.0</ele><time>2026-05-05T13:00:10Z</time></trkpt><trkpt lat="45.96145809430744" lon="13.654423342606153"><ele>109.33333333333333</ele><time>2026-05-05T13:00:11Z</time></trkpt><trkpt lat="45.96163855854485" lon="13.654537155723133"><ele>111.66666666666666</ele><time>2026-05-05T13:00:12Z</time></trkpt><trkpt lat="45.96182148404106" lon="13.654623878535846"><ele>114.0</ele><time>2026-05-05T13:00:13Z</time></trkpt><trkpt lat="45.961998296011394" lon="13.654691036772114"><ele>114.33333333333334</ele><time>2026-05-05T13:00:14Z</time></trkpt><trkpt lat="45.96217446570714" lon="13.654749048326167"><ele>114.66666666666667</ele><time>2026-05-05T13:00:15Z</time></trkpt><trkpt lat="45.96234752641849" lon="13.654795765904055"><ele>115.0</ele><time>2026-05-05T13:00:16Z</time></trkpt><trkpt lat="45.962523820603984" lon="13.654835224936765"><ele>116.66666666666667</ele><time>2026-05-05T13:00:17Z</time></trkpt><trkpt lat="45.96270351067173" lon="13.65486663750521"><ele>118.33333333333334</ele><time>2026-05-05T13:00:18Z</time></trkpt><trkpt lat="45.96288176975257" lon="13.65488376924616"><ele>120.0</ele><time>2026-05-05T13:00:19Z</time></trkpt><trkpt lat="45.963060761939765" lon="13.6548863042366"><ele>120.0</ele><time>2026-05-05T13:00:20Z</time></trkpt><trkpt lat="45.96323859318952" lon="13.654885665579926"><ele>120.0</ele><time>2026-05-05T13:00:21Z</time></trkpt><trkpt lat="45.96341342188357" lon="13.654889051955367"><ele>120.0</ele><time>2026-05-05T13:00:22Z</time></trkpt><trkpt lat="45.96360357201085" lon="13.65484632186468"><ele>122.66666666666666</ele><time>2026-05-05T13:00:23Z</time></trkpt><trkpt lat="45.96378853252931" lon="13.654809305260015"><ele>125.33333333333333</ele><time>2026-05-05T13:00:24Z</time></trkpt><trkpt lat="45.96398204639448" lon="13.65476158376645"><ele>128.0</ele><time>2026-05-05T13:00:25Z</time></trkpt><trkpt lat="45.964198052806225" lon="13.65470277305734"><ele>131.5</ele><time>2026-05-05T13:00:26Z</time></trkpt><trkpt lat="45.9644305479491" lon="13.654614194770629"><ele>135.0</ele><time>2026-05-05T13:00:27Z</time></trkpt><trkpt lat="45.964679834508786" lon="13.654508258929283"><ele>128.0</ele><time>2026-05-05T13:00:28Z</time></trkpt><trkpt lat="45.964940145132815" lon="13.654389733275357"><ele>121.0</ele><time>2026-05-05T13:00:29Z</time></trkpt><trkpt lat="45.96521194254076" lon="13.654271085921105"><ele>121.0</ele><time>2026-05-05T13:00:30Z</time></trkpt><trkpt lat="45.96548638579646" lon="13.654149577401638"><ele>121.0</ele><time>2026-05-05T13:00:31Z</time></trkpt><trkpt lat="45.965763487017924" lon="13.65403557848721"><ele>126.5</ele><time>2026-05-05T13:00:32Z</time></trkpt><trkpt lat="45.96603980571563" lon="13.653918686710712"><ele>132.0</ele><time>2026-05-05T13:00:33Z</time></trkpt><trkpt lat="45.96631943739761" lon="13.65380097734749"><ele>132.0</ele><time>2026-05-05T13:00:34Z</time></trkpt><trkpt lat="45.96659040006005" lon="13.653686508700591"><ele>132.0</ele><time>2026-05-05T13:00:35Z</time></trkpt><trkpt lat="45.96684688046079" lon="13.653576913742784"><ele>129.5</ele><time>2026-05-05T13:00:36Z</time></trkpt><trkpt lat="45.967096684325206" lon="13.653466912265186"><ele>127.0</ele><time>2026-05-05T13:00:37Z</time></trkpt><trkpt lat="45.96734250773097" lon="13.653357290589563"><ele>129.5</ele><time>2026-05-05T13:00:38Z</time></trkpt><trkpt lat="45.967591507530635" lon="13.653245674591657"><ele>132.0</ele><time>2026-05-05T13:00:39Z</time></trkpt><trkpt lat="45.9678361971241" lon="13.653136576923238"><ele>132.0</ele><time>2026-05-05T13:00:40Z</time></trkpt><trkpt lat="45.96807929356775" lon="13.653026020280004"><ele>132.0</ele><time>2026-05-05T13:00:41Z</time></trkpt><trkpt lat="45.96831275314011" lon="13.65291396492311"><ele>135.5</ele><time>2026-05-05T13:00:42Z</time></trkpt><trkpt lat="45.96852856161704" lon="13.652815859875167"><ele>139.0</ele><time>2026-05-05T13:00:43Z</time></trkpt><trkpt lat="45.96874334311883" lon="13.652714470634589"><ele>132.0</ele><time>2026-05-05T13:00:44Z</time></trkpt><trkpt lat="45.968963309680326" lon="13.652609521791526"><ele>125.0</ele><time>2026-05-05T13:00:45Z</time></trkpt><trkpt lat="45.969179979784634" lon="13.652507574471771"><ele>130.66666666666666</ele><time>2026-05-05T13:00:46Z</time></trkpt><trkpt lat="45.96939192163692" lon="13.652412184536164"><ele>136.33333333333334</ele><time>2026-05-05T13:00:47Z</time></trkpt><trkpt lat="45.96960434055144" lon="13.652316322955686"><ele>142.0</ele><time>2026-05-05T13:00:48Z</time></trkpt><trkpt lat="45.96981580034415" lon="13.652216216488284"><ele>143.33333333333334</ele><time>2026-05-05T13:00:49Z</time></trkpt><trkpt lat="45.97002579698892" lon="13.652116232047815"><ele>144.66666666666666</ele><time>2026-05-05T13:00:50Z</time></trkpt><trkpt lat="45.97022682714891" lon="13.652001216235211"><ele>146.0</ele><time>2026-05-05T13:00:51Z</time></trkpt><trkpt lat="45.97042991023855" lon="13.651927868628162"><ele>146.0</ele><time>2026-05-05T13:00:52Z</time></trkpt><trkpt lat="45.970640953669836" lon="13.651828867403074"><ele>146.0</ele><time>2026-05-05T13:00:53.017Z</time></trkpt><trkpt lat="45.97085058976502" lon="13.651730526370695"><ele>146.0</ele><time>2026-05-05T13:00:54.017Z</time></trkpt><trkpt lat="45.97105620792241" lon="13.651634070161276"><ele>144.0</ele><time>2026-05-05T13:00:55.015Z</time></trkpt><trkpt lat="45.97125312123053" lon="13.651541697409721"><ele>142.0</ele><time>2026-05-05T13:00:56.014Z</time></trkpt><trkpt lat="45.9714657167157" lon="13.651441968110404"><ele>140.0</ele><time>2026-05-05T13:00:57.016Z</time></trkpt><trkpt lat="45.971677139382265" lon="13.651342788998315"><ele>137.0</ele><time>2026-05-05T13:00:58.015Z</time></trkpt><trkpt lat="45.97189065524296" lon="13.651242627948408"><ele>134.0</ele><time>2026-05-05T13:00:59.017Z</time></trkpt><trkpt lat="45.972124180338064" lon="13.651132303138594"><ele>133.33333333333331</ele><time>2026-05-05T13:01:00.012Z</time></trkpt><trkpt lat="45.97232535934332" lon="13.651037406311326"><ele>132.66666666666666</ele><time>2026-05-05T13:01:01Z</time></trkpt><trkpt lat="45.97246922055995" lon="13.650967738600952"><ele>132.0</ele><time>2026-05-05T13:01:03Z</time></trkpt><trkpt lat="45.97261729153821" lon="13.650907599517394"><ele>132.0</ele><time>2026-05-05T13:01:04Z</time></trkpt><trkpt lat="45.972761216841945" lon="13.650846991076286"><ele>132.0</ele><time>2026-05-05T13:01:05Z</time></trkpt><trkpt lat="45.972905903320616" lon="13.650793437106811"><ele>132.0</ele><time>2026-05-05T13:01:06Z</time></trkpt><trkpt lat="45.973045860294874" lon="13.650732193615102"><ele>132.0</ele><time>2026-05-05T13:01:07Z</time></trkpt><trkpt lat="45.97319239978318" lon="13.650700896490315"><ele>132.33333333333334</ele><time>2026-05-05T13:01:08Z</time></trkpt><trkpt lat="45.97335713877676" lon="13.650656497348002"><ele>132.66666666666669</ele><time>2026-05-05T13:01:09Z</time></trkpt><trkpt lat="45.97350552993732" lon="13.650653073434153"><ele>133.0</ele><time>2026-05-05T13:01:10Z</time></trkpt><trkpt lat="45.973649846688886" lon="13.650635225878668"><ele>133.0</ele><time>2026-05-05T13:01:11Z</time></trkpt><trkpt lat="45.9737950263825" lon="13.650606171969025"><ele>133.0</ele><time>2026-05-05T13:01:12Z</time></trkpt><trkpt lat="45.97394014558497" lon="13.650612538416109"><ele>133.0</ele><time>2026-05-05T13:01:13Z</time></trkpt><trkpt lat="45.97408172907113" lon="13.650615196427013"><ele>133.0</ele><time>2026-05-05T13:01:14Z</time></trkpt><trkpt lat="45.97421768324766" lon="13.650619073102611"><ele>130.25</ele><time>2026-05-05T13:01:15Z</time></trkpt><trkpt lat="45.974361385974895" lon="13.650631415406687"><ele>127.5</ele><time>2026-05-05T13:01:16Z</time></trkpt><trkpt lat="45.974509752656154" lon="13.650652003195884"><ele>124.75</ele><time>2026-05-05T13:01:17Z</time></trkpt><trkpt lat="45.97464593661821" lon="13.65067532581196"><ele>122.0</ele><time>2026-05-05T13:01:18Z</time></trkpt><trkpt lat="45.97476590441431" lon="13.650701657661855"><ele>121.99999999999999</ele><time>2026-05-05T13:01:19Z</time></trkpt><trkpt lat="45.97487041043948" lon="13.650718355878842"><ele>122.0</ele><time>2026-05-05T13:01:20Z</time></trkpt><trkpt lat="45.97497148411802" lon="13.650739046474303"><ele>122.0</ele><time>2026-05-05T13:01:21Z</time></trkpt><trkpt lat="45.97505923309063" lon="13.650761124417897"><ele>122.0</ele><time>2026-05-05T13:01:22Z</time></trkpt><trkpt lat="45.97513585361224" lon="13.650778131049021"><ele>121.99999999999999</ele><time>2026-05-05T13:01:23Z</time></trkpt><trkpt lat="45.97520822136388" lon="13.650801392112722"><ele>122.0</ele><time>2026-05-05T13:01:24Z</time></trkpt><trkpt lat="45.97527373477107" lon="13.650817723518081"><ele>119.6</ele><time>2026-05-05T13:01:25Z</time></trkpt><trkpt lat="45.9753697864337" lon="13.650832919514638"><ele>117.19999999999999</ele><time>2026-05-05T13:01:27Z</time></trkpt><trkpt lat="45.97543805989468" lon="13.650849511063003"><ele>114.8</ele><time>2026-05-05T13:01:31Z</time></trkpt><trkpt lat="45.97553293242228" lon="13.65087445852313"><ele>112.4</ele><time>2026-05-05T13:01:37Z</time></trkpt><trkpt lat="45.97562454791202" lon="13.650898877496763"><ele>110.0</ele><time>2026-05-05T13:01:39Z</time></trkpt><trkpt lat="45.97572611794849" lon="13.65085744682621"><ele>110.0</ele><time>2026-05-05T13:01:41Z</time></trkpt><trkpt lat="45.97579795385544" lon="13.650715182799365"><ele>110.0</ele><time>2026-05-05T13:01:43Z</time></trkpt><trkpt lat="45.97581475021414" lon="13.65060333374246"><ele>110.0</ele><time>2026-05-05T13:01:44Z</time></trkpt><trkpt lat="45.97582878177033" lon="13.65046287205616"><ele>110.0</ele><time>2026-05-05T13:01:45Z</time></trkpt><trkpt lat="45.97584012494528" lon="13.650307727549999"><ele>110.0</ele><time>2026-05-05T13:01:46Z</time></trkpt><trkpt lat="45.97585067459506" lon="13.650127266055403"><ele>107.25</ele><time>2026-05-05T13:01:47Z</time></trkpt><trkpt lat="45.97585083550488" lon="13.649932349224988"><ele>104.5</ele><time>2026-05-05T13:01:48Z</time></trkpt><trkpt lat="45.97583508838618" lon="13.649755756726071"><ele>101.75</ele><time>2026-05-05T13:01:49Z</time></trkpt><trkpt lat="45.975800288034634" lon="13.6496009728227"><ele>99.0</ele><time>2026-05-05T13:01:50Z</time></trkpt><trkpt lat="45.97575704157601" lon="13.649473364861445"><ele>99.16666666666667</ele><time>2026-05-05T13:01:51Z</time></trkpt><trkpt lat="45.975713276886424" lon="13.64936065203878"><ele>99.33333333333334</ele><time>2026-05-05T13:01:52Z</time></trkpt><trkpt lat="45.975674939820834" lon="13.649254999286613"><ele>99.5</ele><time>2026-05-05T13:01:53Z</time></trkpt><trkpt lat="45.975655197156385" lon="13.649149360873198"><ele>99.66666666666667</ele><time>2026-05-05T13:01:54Z</time></trkpt><trkpt lat="45.975662971385816" lon="13.649046477147829"><ele>99.83333333333334</ele><time>2026-05-05T13:01:55Z</time></trkpt><trkpt lat="45.975692459921646" lon="13.648944903371735"><ele>100.0</ele><time>2026-05-05T13:01:56Z</time></trkpt><trkpt lat="45.97573478279857" lon="13.648829617359958"><ele>100.0</ele><time>2026-05-05T13:01:57Z</time></trkpt><trkpt lat="45.97578556027421" lon="13.648684469189345"><ele>100.0</ele><time>2026-05-05T13:01:58Z</time></trkpt><trkpt lat="45.97583749602822" lon="13.648494740880935"><ele>100.0</ele><time>2026-05-05T13:01:59Z</time></trkpt><trkpt lat="45.97590606067968" lon="13.648265495441478"><ele>100.0</ele><time>2026-05-05T13:02:00Z</time></trkpt><trkpt lat="45.97599706483547" lon="13.6480047876836"><ele>91.0</ele><time>2026-05-05T13:02:01Z</time></trkpt><trkpt lat="45.97610075509204" lon="13.647739637100345"><ele>82.0</ele><time>2026-05-05T13:02:02Z</time></trkpt><trkpt lat="45.976194631069916" lon="13.647494605003315"><ele>73.0</ele><time>2026-05-05T13:02:03Z</time></trkpt><trkpt lat="45.976272176267734" lon="13.647266122101529"><ele>73.0</ele><time>2026-05-05T13:02:04Z</time></trkpt><trkpt lat="45.976333511944986" lon="13.647058350711424"><ele>73.0</ele><time>2026-05-05T13:02:05Z</time></trkpt><trkpt lat="45.97636979373057" lon="13.646848677307277"><ele>73.0</ele><time>2026-05-05T13:02:06Z</time></trkpt><trkpt lat="45.97637701233267" lon="13.646635078632798"><ele>80.33333333333333</ele><time>2026-05-05T13:02:07Z</time></trkpt><trkpt lat="45.976358873944804" lon="13.646418465144139"><ele>87.66666666666667</ele><time>2026-05-05T13:02:08Z</time></trkpt><trkpt lat="45.97631147834441" lon="13.646204548029347"><ele>95.0</ele><time>2026-05-05T13:02:09Z</time></trkpt><trkpt lat="45.97624668866314" lon="13.645983972295857"><ele>95.0</ele><time>2026-05-05T13:02:10Z</time></trkpt><trkpt lat="45.97616579988023" lon="13.645756017790104"><ele>95.0</ele><time>2026-05-05T13:02:11Z</time></trkpt><trkpt lat="45.97606953671807" lon="13.645506317792035"><ele>95.0</ele><time>2026-05-05T13:02:12Z</time></trkpt><trkpt lat="45.97598338801667" lon="13.64525445052292"><ele>95.0</ele><time>2026-05-05T13:02:13Z</time></trkpt><trkpt lat="45.97592776682072" lon="13.645017116793257"><ele>95.0</ele><time>2026-05-05T13:02:14Z</time></trkpt><trkpt lat="45.97588404539234" lon="13.64477653638269"><ele>95.0</ele><time>2026-05-05T13:02:15Z</time></trkpt><trkpt lat="45.97589915310787" lon="13.644541505805071"><ele>95.0</ele><time>2026-05-05T13:02:16Z</time></trkpt><trkpt lat="45.97589495936542" lon="13.644293441550461"><ele>95.0</ele><time>2026-05-05T13:02:17Z</time></trkpt><trkpt lat="45.97589458342122" lon="13.644026232670893"><ele>95.0</ele><time>2026-05-05T13:02:18Z</time></trkpt><trkpt lat="45.97589208641262" lon="13.643766097986791"><ele>115.33333333333334</ele><time>2026-05-05T13:02:19Z</time></trkpt><trkpt lat="45.97588590675116" lon="13.643502623850525"><ele>135.66666666666666</ele><time>2026-05-05T13:02:20Z</time></trkpt><trkpt lat="45.975885698960106" lon="13.643231452280435"><ele>156.0</ele><time>2026-05-05T13:02:21Z</time></trkpt><trkpt lat="45.97587376317733" lon="13.64300107197681"><ele>151.0</ele><time>2026-05-05T13:02:22Z</time></trkpt><trkpt lat="45.97584856626203" lon="13.64279679779415"><ele>146.0</ele><time>2026-05-05T13:02:23Z</time></trkpt><trkpt lat="45.975808660699535" lon="13.642607085657614"><ele>141.0</ele><time>2026-05-05T13:02:24Z</time></trkpt><trkpt lat="45.9757624444634" lon="13.64244162552466"><ele>136.0</ele><time>2026-05-05T13:02:25Z</time></trkpt><trkpt lat="45.97571195528476" lon="13.642307716777323"><ele>136.0</ele><time>2026-05-05T13:02:26Z</time></trkpt><trkpt lat="45.97567160007273" lon="13.642199134068067"><ele>136.0</ele><time>2026-05-05T13:02:27Z</time></trkpt><trkpt lat="45.975666530100696" lon="13.642102995579652"><ele>136.0</ele><time>2026-05-05T13:02:28Z</time></trkpt><trkpt lat="45.975763621054575" lon="13.641981653321627"><ele>136.0</ele><time>2026-05-05T13:02:30Z</time></trkpt><trkpt lat="45.97584990040908" lon="13.642012192792432"><ele>136.0</ele><time>2026-05-05T13:02:31Z</time></trkpt><trkpt lat="45.97590104072064" lon="13.64210642776125"><ele>140.0</ele><time>2026-05-05T13:02:32Z</time></trkpt><trkpt lat="45.97591499430309" lon="13.642203674967446"><ele>144.0</ele><time>2026-05-05T13:02:33Z</time></trkpt><trkpt lat="45.97591336159973" lon="13.642308370899636"><ele>148.0</ele><time>2026-05-05T13:02:34Z</time></trkpt><trkpt lat="45.97592617251088" lon="13.642465291583434"><ele>152.0</ele><time>2026-05-05T13:02:35Z</time></trkpt><trkpt lat="45.97597294300985" lon="13.64266366661954"><ele>156.0</ele><time>2026-05-05T13:02:36Z</time></trkpt><trkpt lat="45.97601708473464" lon="13.64290471068058"><ele>156.0</ele><time>2026-05-05T13:02:37Z</time></trkpt><trkpt lat="45.97607517060845" lon="13.643172825183402"><ele>156.0</ele><time>2026-05-05T13:02:38Z</time></trkpt><trkpt lat="45.976144372666134" lon="13.643453033842391"><ele>156.0</ele><time>2026-05-05T13:02:39Z</time></trkpt><trkpt lat="45.97622530120866" lon="13.64373963077238"><ele>156.0</ele><time>2026-05-05T13:02:40Z</time></trkpt><trkpt lat="45.976322421118134" lon="13.644036665831136"><ele>156.0</ele><time>2026-05-05T13:02:41Z</time></trkpt><trkpt lat="45.97642595663211" lon="13.644320112671997"><ele>156.0</ele><time>2026-05-05T13:02:42Z</time></trkpt><trkpt lat="45.976530599083716" lon="13.644589203645543"><ele>156.0</ele><time>2026-05-05T13:02:43Z</time></trkpt><trkpt lat="45.97664361069066" lon="13.64483793445619"><ele>156.0</ele><time>2026-05-05T13:02:44Z</time></trkpt><trkpt lat="45.976757823497735" lon="13.645070977765092"><ele>156.0</ele><time>2026-05-05T13:02:45Z</time></trkpt><trkpt lat="45.97686635805917" lon="13.645283402486726"><ele>156.0</ele><time>2026-05-05T13:02:46Z</time></trkpt><trkpt lat="45.976967966571785" lon="13.645479631860098"><ele>156.0</ele><time>2026-05-05T13:02:47Z</time></trkpt><trkpt lat="45.97705740635411" lon="13.645658475848283"><ele>156.0</ele><time>2026-05-05T13:02:48Z</time></trkpt><trkpt lat="45.97711515253823" lon="13.645831796830429"><ele>156.0</ele><time>2026-05-05T13:02:49Z</time></trkpt><trkpt lat="45.97714589434344" lon="13.645977044377915"><ele>156.0</ele><time>2026-05-05T13:02:50Z</time></trkpt><trkpt lat="45.97716146322705" lon="13.646098543094205"><ele>156.0</ele><time>2026-05-05T13:02:51Z</time></trkpt><trkpt lat="45.97718408855616" lon="13.646192110626814"><ele>156.0</ele><time>2026-05-05T13:02:52Z</time></trkpt><trkpt lat="45.977243085420426" lon="13.64634714424846"><ele>156.0</ele><time>2026-05-05T13:02:54Z</time></trkpt><trkpt lat="45.97730515805309" lon="13.646387999309663"><ele>156.0</ele><time>2026-05-05T13:02:55Z</time></trkpt><trkpt lat="45.977379831887205" lon="13.646377400508262"><ele>156.0</ele><time>2026-05-05T13:02:56Z</time></trkpt><trkpt lat="45.97744713194942" lon="13.646317716023068"><ele>156.0</ele><time>2026-05-05T13:02:57Z</time></trkpt><trkpt lat="45.97749091880908" lon="13.646220413930862"><ele>156.0</ele><time>2026-05-05T13:02:58Z</time></trkpt><trkpt lat="45.977478458920764" lon="13.64608708120135"><ele>156.0</ele><time>2026-05-05T13:02:59Z</time></trkpt><trkpt lat="45.97743971931944" lon="13.64597018515531"><ele>156.0</ele><time>2026-05-05T13:03:00Z</time></trkpt><trkpt lat="45.97737169007943" lon="13.645858286513992"><ele>156.0</ele><time>2026-05-05T13:03:01Z</time></trkpt><trkpt lat="45.977272389333464" lon="13.645727173285639"><ele>156.0</ele><time>2026-05-05T13:03:02Z</time></trkpt><trkpt lat="45.977177591372744" lon="13.64554266850298"><ele>156.0</ele><time>2026-05-05T13:03:03Z</time></trkpt><trkpt lat="45.9770946568218" lon="13.64531721751618"><ele>156.0</ele><time>2026-05-05T13:03:04Z</time></trkpt><trkpt lat="45.977016641373076" lon="13.64506144399533"><ele>156.0</ele><time>2026-05-05T13:03:05Z</time></trkpt><trkpt lat="45.9769608715248" lon="13.644813385331"><ele>156.0</ele><time>2026-05-05T13:03:06Z</time></trkpt><trkpt lat="45.97693263417889" lon="13.644543654426398"><ele>156.0</ele><time>2026-05-05T13:03:07Z</time></trkpt><trkpt lat="45.97690082701421" lon="13.644245030195925"><ele>156.0</ele><time>2026-05-05T13:03:08Z</time></trkpt><trkpt lat="45.976869601636494" lon="13.643957716551716"><ele>156.0</ele><time>2026-05-05T13:03:09Z</time></trkpt><trkpt lat="45.9768446649104" lon="13.643664411401566"><ele>156.0</ele><time>2026-05-05T13:03:10Z</time></trkpt><trkpt lat="45.97682464797859" lon="13.643364648060063"><ele>156.0</ele><time>2026-05-05T13:03:11Z</time></trkpt><trkpt lat="45.97681218588122" lon="13.643068815692072"><ele>156.0</ele><time>2026-05-05T13:03:12Z</time></trkpt><trkpt lat="45.97680729609017" lon="13.642774067357458"><ele>182.66666666666669</ele><time>2026-05-05T13:03:13Z</time></trkpt><trkpt lat="45.97681490337473" lon="13.642493655757303"><ele>209.33333333333334</ele><time>2026-05-05T13:03:14Z</time></trkpt><trkpt lat="45.97683000641016" lon="13.642221681961916"><ele>236.0</ele><time>2026-05-05T13:03:15Z</time></trkpt><trkpt lat="45.976849822491616" lon="13.641956960469923"><ele>236.0</ele><time>2026-05-05T13:03:16Z</time></trkpt><trkpt lat="45.97687409187509" lon="13.64168122189777"><ele>236.0</ele><time>2026-05-05T13:03:17Z</time></trkpt><trkpt lat="45.976900515107346" lon="13.641407345882964"><ele>236.0</ele><time>2026-05-05T13:03:18Z</time></trkpt><trkpt lat="45.976936421520904" lon="13.641111491287447"><ele>238.0</ele><time>2026-05-05T13:03:19Z</time></trkpt><trkpt lat="45.976983902263555" lon="13.640804642171348"><ele>240.0</ele><time>2026-05-05T13:03:20Z</time></trkpt><trkpt lat="45.97704032857511" lon="13.640493429902616"><ele>242.0</ele><time>2026-05-05T13:03:21Z</time></trkpt><trkpt lat="45.977126972412904" lon="13.640216476824687"><ele>237.66666666666669</ele><time>2026-05-05T13:03:22Z</time></trkpt><trkpt lat="45.977199688303685" lon="13.639953683442121"><ele>233.33333333333331</ele><time>2026-05-05T13:03:23Z</time></trkpt><trkpt lat="45.97729032335479" lon="13.6397280530067"><ele>229.0</ele><time>2026-05-05T13:03:24Z</time></trkpt><trkpt lat="45.97738387164566" lon="13.639514950192108"><ele>225.33333333333331</ele><time>2026-05-05T13:03:25Z</time></trkpt><trkpt lat="45.977468915109625" lon="13.639296005505859"><ele>221.66666666666669</ele><time>2026-05-05T13:03:26Z</time></trkpt><trkpt lat="45.97755082162228" lon="13.639072810561249"><ele>218.0</ele><time>2026-05-05T13:03:27Z</time></trkpt><trkpt lat="45.977635975785454" lon="13.638844495793062"><ele>229.33333333333334</ele><time>2026-05-05T13:03:28Z</time></trkpt><trkpt lat="45.977721947972654" lon="13.638616001358185"><ele>240.66666666666669</ele><time>2026-05-05T13:03:29Z</time></trkpt><trkpt lat="45.97780616305955" lon="13.638389267922134"><ele>252.0</ele><time>2026-05-05T13:03:30Z</time></trkpt><trkpt lat="45.977895835118645" lon="13.638172299290844"><ele>252.0</ele><time>2026-05-05T13:03:31Z</time></trkpt><trkpt lat="45.97799821173749" lon="13.637987953249272"><ele>252.0</ele><time>2026-05-05T13:03:32Z</time></trkpt><trkpt lat="45.97811609987396" lon="13.63782252228327"><ele>252.0</ele><time>2026-05-05T13:03:33Z</time></trkpt><trkpt lat="45.97823849387959" lon="13.637656257792074"><ele>245.66666666666669</ele><time>2026-05-05T13:03:34Z</time></trkpt><trkpt lat="45.978349431163764" lon="13.637467399710433"><ele>239.33333333333334</ele><time>2026-05-05T13:03:35Z</time></trkpt><trkpt lat="45.97846202147673" lon="13.637271687792119"><ele>233.0</ele><time>2026-05-05T13:03:36Z</time></trkpt><trkpt lat="45.97858025647944" lon="13.63706128499815"><ele>239.33333333333334</ele><time>2026-05-05T13:03:37Z</time></trkpt><trkpt lat="45.97870318841966" lon="13.636841967623042"><ele>245.66666666666669</ele><time>2026-05-05T13:03:38Z</time></trkpt><trkpt lat="45.97883145914088" lon="13.636623742159673"><ele>252.0</ele><time>2026-05-05T13:03:39Z</time></trkpt><trkpt lat="45.97895842488105" lon="13.636402701338243"><ele>252.0</ele><time>2026-05-05T13:03:40Z</time></trkpt><trkpt lat="45.979099726559085" lon="13.636160427887374"><ele>252.0</ele><time>2026-05-05T13:03:41Z</time></trkpt><trkpt lat="45.979264477455644" lon="13.635873555815017"><ele>252.5</ele><time>2026-05-05T13:03:42Z</time></trkpt><trkpt lat="45.97943361600907" lon="13.63557941256486"><ele>253.0</ele><time>2026-05-05T13:03:43Z</time></trkpt><trkpt lat="45.97960046664642" lon="13.63528326916958"><ele>253.0</ele><time>2026-05-05T13:03:44Z</time></trkpt><trkpt lat="45.97976686479433" lon="13.634985901728623"><ele>253.0</ele><time>2026-05-05T13:03:45Z</time></trkpt><trkpt lat="45.979932810217996" lon="13.634703749265512"><ele>260.0</ele><time>2026-05-05T13:03:46Z</time></trkpt><trkpt lat="45.98009627003616" lon="13.634414020952686"><ele>267.0</ele><time>2026-05-05T13:03:47Z</time></trkpt><trkpt lat="45.98026254571228" lon="13.63411551831681"><ele>267.0</ele><time>2026-05-05T13:03:48Z</time></trkpt><trkpt lat="45.98042895188338" lon="13.633823542753644"><ele>267.0</ele><time>2026-05-05T13:03:49Z</time></trkpt><trkpt lat="45.980590516833146" lon="13.633547051941099"><ele>256.0</ele><time>2026-05-05T13:03:50Z</time></trkpt><trkpt lat="45.98073934322317" lon="13.633285506007038"><ele>245.0</ele><time>2026-05-05T13:03:51Z</time></trkpt><trkpt lat="45.980882208063974" lon="13.633036580221145"><ele>252.33333333333334</ele><time>2026-05-05T13:03:52Z</time></trkpt><trkpt lat="45.98101916635797" lon="13.632795057300527"><ele>259.6666666666667</ele><time>2026-05-05T13:03:53Z</time></trkpt><trkpt lat="45.981150516179014" lon="13.632565717220155"><ele>267.0</ele><time>2026-05-05T13:03:54Z</time></trkpt><trkpt lat="45.98127834995673" lon="13.632345460062712"><ele>267.0</ele><time>2026-05-05T13:03:55Z</time></trkpt><trkpt lat="45.981404972983306" lon="13.632128667511282"><ele>267.0</ele><time>2026-05-05T13:03:56Z</time></trkpt><trkpt lat="45.9815280197667" lon="13.631918726296004"><ele>267.0</ele><time>2026-05-05T13:03:57Z</time></trkpt><trkpt lat="45.981650028168694" lon="13.631732944232727"><ele>272.0</ele><time>2026-05-05T13:03:58Z</time></trkpt><trkpt lat="45.98176661779543" lon="13.63156225218916"><ele>277.0</ele><time>2026-05-05T13:03:59Z</time></trkpt><trkpt lat="45.98186223590313" lon="13.631388089732365"><ele>282.0</ele><time>2026-05-05T13:04:00Z</time></trkpt><trkpt lat="45.98193050025733" lon="13.631174878817049"><ele>277.0</ele><time>2026-05-05T13:04:01Z</time></trkpt><trkpt lat="45.98199515628666" lon="13.630941977365989"><ele>272.0</ele><time>2026-05-05T13:04:02Z</time></trkpt><trkpt lat="45.98205635945585" lon="13.630691500789974"><ele>267.0</ele><time>2026-05-05T13:04:03Z</time></trkpt><trkpt lat="45.982117661464315" lon="13.630419384516783"><ele>263.3333333333333</ele><time>2026-05-05T13:04:04Z</time></trkpt><trkpt lat="45.982189704036024" lon="13.630130220597959"><ele>259.66666666666663</ele><time>2026-05-05T13:04:05Z</time></trkpt><trkpt lat="45.982287376751685" lon="13.629839311617545"><ele>256.0</ele><time>2026-05-05T13:04:06Z</time></trkpt><trkpt lat="45.98241474231273" lon="13.629521998613198"><ele>270.5</ele><time>2026-05-05T13:04:07Z</time></trkpt><trkpt lat="45.9825521708858" lon="13.629202840434786"><ele>285.0</ele><time>2026-05-05T13:04:08Z</time></trkpt><trkpt lat="45.98267670064286" lon="13.628909122200083"><ele>285.0</ele><time>2026-05-05T13:04:09Z</time></trkpt><trkpt lat="45.98278240823513" lon="13.628647448204157"><ele>285.0</ele><time>2026-05-05T13:04:10Z</time></trkpt><trkpt lat="45.98287558578385" lon="13.628423958628458"><ele>285.0</ele><time>2026-05-05T13:04:11Z</time></trkpt><trkpt lat="45.982958460149206" lon="13.628227191457022"><ele>278.3333333333333</ele><time>2026-05-05T13:04:12Z</time></trkpt><trkpt lat="45.98303697117727" lon="13.628036998812261"><ele>271.66666666666663</ele><time>2026-05-05T13:04:13Z</time></trkpt><trkpt lat="45.983104796656306" lon="13.627835929012823"><ele>265.0</ele><time>2026-05-05T13:04:14Z</time></trkpt><trkpt lat="45.98315318469654" lon="13.6276216759238"><ele>259.0</ele><time>2026-05-05T13:04:15Z</time></trkpt><trkpt lat="45.98318622310994" lon="13.627361654654031"><ele>253.0</ele><time>2026-05-05T13:04:16Z</time></trkpt><trkpt lat="45.98322926867567" lon="13.6271014059817"><ele>247.0</ele><time>2026-05-05T13:04:17Z</time></trkpt><trkpt lat="45.98332691089978" lon="13.626825956569267"><ele>258.0</ele><time>2026-05-05T13:04:18Z</time></trkpt><trkpt lat="45.983420826346666" lon="13.626538816616893"><ele>269.0</ele><time>2026-05-05T13:04:19Z</time></trkpt><trkpt lat="45.98351587909624" lon="13.626227696930917"><ele>264.0</ele><time>2026-05-05T13:04:20Z</time></trkpt><trkpt lat="45.98361206164657" lon="13.625936788174974"><ele>259.0</ele><time>2026-05-05T13:04:21Z</time></trkpt><trkpt lat="45.98370000572382" lon="13.625656989752947"><ele>254.0</ele><time>2026-05-05T13:04:22Z</time></trkpt><trkpt lat="45.983786556685516" lon="13.625393074957499"><ele>248.66666666666669</ele><time>2026-05-05T13:04:23Z</time></trkpt><trkpt lat="45.983871744443526" lon="13.625135459606586"><ele>243.33333333333331</ele><time>2026-05-05T13:04:24Z</time></trkpt><trkpt lat="45.98395725554977" lon="13.624878685350511"><ele>238.0</ele><time>2026-05-05T13:04:25Z</time></trkpt><trkpt lat="45.984043553042326" lon="13.624621660676752"><ele>232.33333333333331</ele><time>2026-05-05T13:04:26Z</time></trkpt><trkpt lat="45.984127582621376" lon="13.62437434356808"><ele>226.66666666666669</ele><time>2026-05-05T13:04:27Z</time></trkpt><trkpt lat="45.98420662063631" lon="13.62414213149079"><ele>221.0</ele><time>2026-05-05T13:04:28Z</time></trkpt><trkpt lat="45.984275808392525" lon="13.623929541857464"><ele>222.0</ele><time>2026-05-05T13:04:29Z</time></trkpt><trkpt lat="45.98434635415341" lon="13.6237217760891"><ele>223.0</ele><time>2026-05-05T13:04:30Z</time></trkpt><trkpt lat="45.98442209557818" lon="13.623530964879224"><ele>224.0</ele><time>2026-05-05T13:04:31Z</time></trkpt><trkpt lat="45.984529835786695" lon="13.623381730651442"><ele>224.0</ele><time>2026-05-05T13:04:32Z</time></trkpt><trkpt lat="45.98464129064729" lon="13.62323557139595"><ele>224.0</ele><time>2026-05-05T13:04:33Z</time></trkpt><trkpt lat="45.984746652736874" lon="13.623080801954973"><ele>224.0</ele><time>2026-05-05T13:04:34Z</time></trkpt><trkpt lat="45.98485171872727" lon="13.622948950762053"><ele>224.0</ele><time>2026-05-05T13:04:35Z</time></trkpt><trkpt lat="45.98494495258426" lon="13.622829927222986"><ele>228.75</ele><time>2026-05-05T13:04:36Z</time></trkpt><trkpt lat="45.98500362211515" lon="13.622701548421768"><ele>233.5</ele><time>2026-05-05T13:04:37Z</time></trkpt><trkpt lat="45.985027211925114" lon="13.62254957549749"><ele>238.25</ele><time>2026-05-05T13:04:38Z</time></trkpt><trkpt lat="45.98503196570153" lon="13.622383128271334"><ele>243.0</ele><time>2026-05-05T13:04:39Z</time></trkpt><trkpt lat="45.98502740048788" lon="13.6221938139345"><ele>243.0</ele><time>2026-05-05T13:04:40Z</time></trkpt><trkpt lat="45.98502807612078" lon="13.621993938265877"><ele>243.0</ele><time>2026-05-05T13:04:41Z</time></trkpt><trkpt lat="45.98502985819215" lon="13.621772480753142"><ele>243.0</ele><time>2026-05-05T13:04:42Z</time></trkpt><trkpt lat="45.98503485503614" lon="13.6215336330089"><ele>238.0</ele><time>2026-05-05T13:04:43Z</time></trkpt><trkpt lat="45.98505371771363" lon="13.621299747667"><ele>233.0</ele><time>2026-05-05T13:04:44Z</time></trkpt><trkpt lat="45.9850912701167" lon="13.621077074722319"><ele>228.0</ele><time>2026-05-05T13:04:45Z</time></trkpt><trkpt lat="45.985155551434005" lon="13.620860395181658"><ele>221.66666666666669</ele><time>2026-05-05T13:04:46Z</time></trkpt><trkpt lat="45.98524304244788" lon="13.62066216766647"><ele>215.33333333333334</ele><time>2026-05-05T13:04:47Z</time></trkpt><trkpt lat="45.9853512444386" lon="13.620481804567554"><ele>209.0</ele><time>2026-05-05T13:04:48Z</time></trkpt><trkpt lat="45.98547201612687" lon="13.620327281289413"><ele>211.0</ele><time>2026-05-05T13:04:49Z</time></trkpt><trkpt lat="45.985603319256214" lon="13.6201932963936"><ele>213.0</ele><time>2026-05-05T13:04:50Z</time></trkpt><trkpt lat="45.98572977073414" lon="13.620055809954797"><ele>215.0</ele><time>2026-05-05T13:04:51Z</time></trkpt><trkpt lat="45.98584829484405" lon="13.619916567531444"><ele>215.0</ele><time>2026-05-05T13:04:52Z</time></trkpt><trkpt lat="45.985953761099765" lon="13.61977215992717"><ele>215.0</ele><time>2026-05-05T13:04:53Z</time></trkpt><trkpt lat="45.98603628179267" lon="13.619629046484615"><ele>215.0</ele><time>2026-05-05T13:04:54Z</time></trkpt><trkpt lat="45.986097262656" lon="13.619460672973524"><ele>215.0</ele><time>2026-05-05T13:04:55Z</time></trkpt><trkpt lat="45.98613231350437" lon="13.619276219724167"><ele>209.5</ele><time>2026-05-05T13:04:56Z</time></trkpt><trkpt lat="45.98614212807474" lon="13.619084565926904"><ele>204.0</ele><time>2026-05-05T13:04:57Z</time></trkpt><trkpt lat="45.986148220793886" lon="13.618888874865165"><ele>198.5</ele><time>2026-05-05T13:04:58Z</time></trkpt><trkpt lat="45.986161366356825" lon="13.618691747472084"><ele>193.0</ele><time>2026-05-05T13:04:59Z</time></trkpt><trkpt lat="45.986186323496014" lon="13.618490301615022"><ele>186.33333333333331</ele><time>2026-05-05T13:05:00Z</time></trkpt><trkpt lat="45.986233512781304" lon="13.618282356062972"><ele>179.66666666666666</ele><time>2026-05-05T13:05:01Z</time></trkpt><trkpt lat="45.98630901002791" lon="13.61807251582248"><ele>173.0</ele><time>2026-05-05T13:05:02Z</time></trkpt><trkpt lat="45.98640148040748" lon="13.61787046918208"><ele>173.0</ele><time>2026-05-05T13:05:03Z</time></trkpt><trkpt lat="45.98651019032147" lon="13.617693027560238"><ele>173.0</ele><time>2026-05-05T13:05:04Z</time></trkpt><trkpt lat="45.98663443748331" lon="13.617540207118713"><ele>173.0</ele><time>2026-05-05T13:05:05Z</time></trkpt><trkpt lat="45.98677072570592" lon="13.617401670523533"><ele>173.0</ele><time>2026-05-05T13:05:06Z</time></trkpt><trkpt lat="45.986909324246376" lon="13.61727194909754"><ele>173.0</ele><time>2026-05-05T13:05:07Z</time></trkpt><trkpt lat="45.9870441346293" lon="13.617145246283895"><ele>173.0</ele><time>2026-05-05T13:05:08Z</time></trkpt><trkpt lat="45.98715932099037" lon="13.617015992310176"><ele>168.75</ele><time>2026-05-05T13:05:09Z</time></trkpt><trkpt lat="45.9872381991352" lon="13.616862540604252"><ele>164.5</ele><time>2026-05-05T13:05:10Z</time></trkpt><trkpt lat="45.98728615844994" lon="13.61667658027927"><ele>160.25</ele><time>2026-05-05T13:05:11Z</time></trkpt><trkpt lat="45.98731180173047" lon="13.616483821949627"><ele>156.0</ele><time>2026-05-05T13:05:12Z</time></trkpt><trkpt lat="45.98733849365657" lon="13.616291384284066"><ele>153.5</ele><time>2026-05-05T13:05:13Z</time></trkpt><trkpt lat="45.987382595447855" lon="13.616101953604186"><ele>151.0</ele><time>2026-05-05T13:05:14Z</time></trkpt><trkpt lat="45.987453306362625" lon="13.615910503763457"><ele>148.5</ele><time>2026-05-05T13:05:15Z</time></trkpt><trkpt lat="45.987534393031744" lon="13.615729858768375"><ele>146.0</ele><time>2026-05-05T13:05:16Z</time></trkpt><trkpt lat="45.98762003439906" lon="13.615562965144557"><ele>150.25</ele><time>2026-05-05T13:05:17Z</time></trkpt><trkpt lat="45.98769099390496" lon="13.61539803091966"><ele>154.5</ele><time>2026-05-05T13:05:18Z</time></trkpt><trkpt lat="45.987740928298365" lon="13.615224450156333"><ele>158.75</ele><time>2026-05-05T13:05:19Z</time></trkpt><trkpt lat="45.987761342803545" lon="13.615043026953712"><ele>163.0</ele><time>2026-05-05T13:05:20Z</time></trkpt><trkpt lat="45.98774822038552" lon="13.614863088861972"><ele>163.0</ele><time>2026-05-05T13:05:21Z</time></trkpt><trkpt lat="45.987707330622456" lon="13.614690947335182"><ele>163.0</ele><time>2026-05-05T13:05:22Z</time></trkpt><trkpt lat="45.987641095491476" lon="13.614514332305438"><ele>163.0</ele><time>2026-05-05T13:05:23Z</time></trkpt><trkpt lat="45.98755219960649" lon="13.614342697793617"><ele>163.0</ele><time>2026-05-05T13:05:24Z</time></trkpt><trkpt lat="45.9874582125801" lon="13.614168608563967"><ele>155.0</ele><time>2026-05-05T13:05:25Z</time></trkpt><trkpt lat="45.98737289302094" lon="13.613988936604402"><ele>147.0</ele><time>2026-05-05T13:05:26Z</time></trkpt><trkpt lat="45.98729570409987" lon="13.613799616649715"><ele>139.0</ele><time>2026-05-05T13:05:27Z</time></trkpt><trkpt lat="45.98722516799223" lon="13.613596230069996"><ele>139.0</ele><time>2026-05-05T13:05:28Z</time></trkpt><trkpt lat="45.98715753663047" lon="13.613384713462501"><ele>139.0</ele><time>2026-05-05T13:05:29Z</time></trkpt><trkpt lat="45.98708518854294" lon="13.613167373571912"><ele>139.0</ele><time>2026-05-05T13:05:30Z</time></trkpt><trkpt lat="45.98701245682083" lon="13.612928052481186"><ele>138.66666666666669</ele><time>2026-05-05T13:05:31Z</time></trkpt><trkpt lat="45.98695072354558" lon="13.612671615158215"><ele>138.33333333333334</ele><time>2026-05-05T13:05:32Z</time></trkpt><trkpt lat="45.98689793787558" lon="13.612398633353916"><ele>138.0</ele><time>2026-05-05T13:05:33Z</time></trkpt><trkpt lat="45.98684823021465" lon="13.61210539354119"><ele>132.66666666666666</ele><time>2026-05-05T13:05:34Z</time></trkpt><trkpt lat="45.986796041027056" lon="13.611828104896231"><ele>127.33333333333333</ele><time>2026-05-05T13:05:35Z</time></trkpt><trkpt lat="45.98676152382232" lon="13.611520949398418"><ele>122.0</ele><time>2026-05-05T13:05:36Z</time></trkpt><trkpt lat="45.98673057302833" lon="13.611215972984189"><ele>118.5</ele><time>2026-05-05T13:05:37Z</time></trkpt><trkpt lat="45.986707931585464" lon="13.610901522360907"><ele>115.0</ele><time>2026-05-05T13:05:38Z</time></trkpt><trkpt lat="45.98669168187894" lon="13.610568886327812"><ele>111.5</ele><time>2026-05-05T13:05:39Z</time></trkpt><trkpt lat="45.98667491419827" lon="13.610216093502927"><ele>108.0</ele><time>2026-05-05T13:05:40Z</time></trkpt><trkpt lat="45.98667009929701" lon="13.609854059574406"><ele>108.0</ele><time>2026-05-05T13:05:41Z</time></trkpt><trkpt lat="45.986675119207476" lon="13.609503951702193"><ele>108.0</ele><time>2026-05-05T13:05:42Z</time></trkpt><trkpt lat="45.98669045585871" lon="13.609163786943512"><ele>114.5</ele><time>2026-05-05T13:05:43Z</time></trkpt><trkpt lat="45.98672125530024" lon="13.608835388041745"><ele>121.0</ele><time>2026-05-05T13:05:44Z</time></trkpt><trkpt lat="45.98675471965439" lon="13.608512654100982"><ele>121.33333333333334</ele><time>2026-05-05T13:05:45Z</time></trkpt><trkpt lat="45.98681861921952" lon="13.608205639700678"><ele>121.66666666666666</ele><time>2026-05-05T13:05:46Z</time></trkpt><trkpt lat="45.986884792629475" lon="13.60791089925916"><ele>122.0</ele><time>2026-05-05T13:05:47Z</time></trkpt><trkpt lat="45.9869578536658" lon="13.607640087445727"><ele>120.66666666666666</ele><time>2026-05-05T13:05:48Z</time></trkpt><trkpt lat="45.98704512025722" lon="13.607384965106341"><ele>119.33333333333334</ele><time>2026-05-05T13:05:49Z</time></trkpt><trkpt lat="45.98713349955952" lon="13.607157993465561"><ele>118.0</ele><time>2026-05-05T13:05:50Z</time></trkpt><trkpt lat="45.987230092781324" lon="13.606949304719121"><ele>118.33333333333334</ele><time>2026-05-05T13:05:51Z</time></trkpt><trkpt lat="45.98733685736102" lon="13.606758892558917"><ele>118.66666666666666</ele><time>2026-05-05T13:05:52Z</time></trkpt><trkpt lat="45.987450342693045" lon="13.606578114149901"><ele>119.0</ele><time>2026-05-05T13:05:53Z</time></trkpt><trkpt lat="45.9875753315391" lon="13.60641789193202"><ele>119.0</ele><time>2026-05-05T13:05:54Z</time></trkpt><trkpt lat="45.98770685283765" lon="13.606266003896184"><ele>119.0</ele><time>2026-05-05T13:05:55Z</time></trkpt><trkpt lat="45.98785339052257" lon="13.606117281739767"><ele>119.0</ele><time>2026-05-05T13:05:56Z</time></trkpt><trkpt lat="45.988008250056616" lon="13.60598123871779"><ele>115.33333333333333</ele><time>2026-05-05T13:05:57Z</time></trkpt><trkpt lat="45.98816926666166" lon="13.605849900418235"><ele>111.66666666666666</ele><time>2026-05-05T13:05:58Z</time></trkpt><trkpt lat="45.988333334070596" lon="13.605737850625403"><ele>108.0</ele><time>2026-05-05T13:05:59Z</time></trkpt><trkpt lat="45.988503906855414" lon="13.60564269393572"><ele>108.0</ele><time>2026-05-05T13:06:00Z</time></trkpt><trkpt lat="45.98867445761897" lon="13.605567184497588"><ele>108.0</ele><time>2026-05-05T13:06:01Z</time></trkpt><trkpt lat="45.98884761228462" lon="13.605507762740736"><ele>108.0</ele><time>2026-05-05T13:06:02Z</time></trkpt><trkpt lat="45.98900908894343" lon="13.60546909077779"><ele>108.0</ele><time>2026-05-05T13:06:03Z</time></trkpt><trkpt lat="45.989166923650295" lon="13.60544157822779"><ele>108.0</ele><time>2026-05-05T13:06:04Z</time></trkpt><trkpt lat="45.9893189484941" lon="13.605424572428062"><ele>108.0</ele><time>2026-05-05T13:06:05Z</time></trkpt><trkpt lat="45.989468135546126" lon="13.605424017645403"><ele>109.0</ele><time>2026-05-05T13:06:06Z</time></trkpt><trkpt lat="45.98961269289449" lon="13.605436734362002"><ele>110.0</ele><time>2026-05-05T13:06:07Z</time></trkpt><trkpt lat="45.98975681865828" lon="13.605452916584689"><ele>111.0</ele><time>2026-05-05T13:06:08Z</time></trkpt><trkpt lat="45.98991193285229" lon="13.605475256991348"><ele>112.0</ele><time>2026-05-05T13:06:09Z</time></trkpt><trkpt lat="45.99007226897531" lon="13.605502092755447"><ele>112.33333333333334</ele><time>2026-05-05T13:06:10Z</time></trkpt><trkpt lat="45.99024851865886" lon="13.605525654690139"><ele>112.66666666666666</ele><time>2026-05-05T13:06:11Z</time></trkpt><trkpt lat="45.99043513104992" lon="13.605547050599698"><ele>113.0</ele><time>2026-05-05T13:06:12Z</time></trkpt><trkpt lat="45.99062325012089" lon="13.605562112781836"><ele>113.0</ele><time>2026-05-05T13:06:13Z</time></trkpt><trkpt lat="45.99081030815486" lon="13.605561848028621"><ele>113.0</ele><time>2026-05-05T13:06:14Z</time></trkpt><trkpt lat="45.99099257442754" lon="13.605543536071764"><ele>113.0</ele><time>2026-05-05T13:06:15Z</time></trkpt><trkpt lat="45.991176483165766" lon="13.605499373486763"><ele>112.66666666666666</ele><time>2026-05-05T13:06:16Z</time></trkpt><trkpt lat="45.99136237445448" lon="13.605430912688604"><ele>112.33333333333334</ele><time>2026-05-05T13:06:17Z</time></trkpt><trkpt lat="45.99154946546903" lon="13.605344133015612"><ele>112.0</ele><time>2026-05-05T13:06:18Z</time></trkpt><trkpt lat="45.99173183205877" lon="13.605282477845826"><ele>112.0</ele><time>2026-05-05T13:06:19Z</time></trkpt><trkpt lat="45.991905480580016" lon="13.605221763703687"><ele>112.0</ele><time>2026-05-05T13:06:20Z</time></trkpt><trkpt lat="45.99205709395584" lon="13.605050982790006"><ele>112.0</ele><time>2026-05-05T13:06:21Z</time></trkpt><trkpt lat="45.99222718173756" lon="13.604960668851055"><ele>112.0</ele><time>2026-05-05T13:06:22Z</time></trkpt><trkpt lat="45.99239503009948" lon="13.604889766143888"><ele>112.0</ele><time>2026-05-05T13:06:23Z</time></trkpt><trkpt lat="45.99256802377415" lon="13.604831886419307"><ele>112.0</ele><time>2026-05-05T13:06:24Z</time></trkpt><trkpt lat="45.99274655105391" lon="13.604788266531688"><ele>112.0</ele><time>2026-05-05T13:06:25Z</time></trkpt><trkpt lat="45.99292327438004" lon="13.604751520794528"><ele>112.0</ele><time>2026-05-05T13:06:26Z</time></trkpt><trkpt lat="45.9930953007516" lon="13.604716787374452"><ele>112.0</ele><time>2026-05-05T13:06:27Z</time></trkpt><trkpt lat="45.99326416269638" lon="13.60467897913046"><ele>114.33333333333334</ele><time>2026-05-05T13:06:28Z</time></trkpt><trkpt lat="45.99343166434472" lon="13.604644239848428"><ele>116.66666666666666</ele><time>2026-05-05T13:06:29Z</time></trkpt><trkpt lat="45.99360293225159" lon="13.60460957437854"><ele>119.0</ele><time>2026-05-05T13:06:30Z</time></trkpt><trkpt lat="45.99378077716575" lon="13.604575820664879"><ele>119.0</ele><time>2026-05-05T13:06:31Z</time></trkpt><trkpt lat="45.99395913025902" lon="13.60453089269399"><ele>119.0</ele><time>2026-05-05T13:06:32Z</time></trkpt><trkpt lat="45.99413385637627" lon="13.604466306784163"><ele>119.0</ele><time>2026-05-05T13:06:33Z</time></trkpt><trkpt lat="45.99430417568397" lon="13.60437541092023"><ele>119.66666666666666</ele><time>2026-05-05T13:06:34Z</time></trkpt><trkpt lat="45.9944758274235" lon="13.604257008144902"><ele>120.33333333333334</ele><time>2026-05-05T13:06:35Z</time></trkpt><trkpt lat="45.99464350815212" lon="13.604115868114386"><ele>121.0</ele><time>2026-05-05T13:06:36Z</time></trkpt><trkpt lat="45.99480215218305" lon="13.60397744841548"><ele>121.0</ele><time>2026-05-05T13:06:37Z</time></trkpt><trkpt lat="45.994962907758186" lon="13.603845272753325"><ele>121.0</ele><time>2026-05-05T13:06:38Z</time></trkpt><trkpt lat="45.9951233035827" lon="13.603722196118925"><ele>121.0</ele><time>2026-05-05T13:06:39Z</time></trkpt><trkpt lat="45.99527736131759" lon="13.60360303454431"><ele>122.33333333333334</ele><time>2026-05-05T13:06:40Z</time></trkpt><trkpt lat="45.995419181909604" lon="13.603484516193966"><ele>123.66666666666666</ele><time>2026-05-05T13:06:41Z</time></trkpt><trkpt lat="45.995548888185844" lon="13.603343976285847"><ele>125.0</ele><time>2026-05-05T13:06:42Z</time></trkpt><trkpt lat="45.99566156720561" lon="13.603178539134174"><ele>125.0</ele><time>2026-05-05T13:06:43Z</time></trkpt><trkpt lat="45.9957619324137" lon="13.60299036480567"><ele>125.0</ele><time>2026-05-05T13:06:44Z</time></trkpt><trkpt lat="45.99586665572471" lon="13.60279714280883"><ele>125.0</ele><time>2026-05-05T13:06:45Z</time></trkpt><trkpt lat="45.995979519623674" lon="13.602599758115456"><ele>127.66666666666666</ele><time>2026-05-05T13:06:46Z</time></trkpt><trkpt lat="45.996105392748944" lon="13.602402176064393"><ele>130.33333333333334</ele><time>2026-05-05T13:06:47Z</time></trkpt><trkpt lat="45.99623978079882" lon="13.60221978824138"><ele>133.0</ele><time>2026-05-05T13:06:48Z</time></trkpt><trkpt lat="45.99638288304622" lon="13.6020500132076"><ele>132.66666666666669</ele><time>2026-05-05T13:06:49Z</time></trkpt><trkpt lat="45.99653638040254" lon="13.60187576069084"><ele>132.33333333333334</ele><time>2026-05-05T13:06:50Z</time></trkpt><trkpt lat="45.99669001737085" lon="13.601694705014884"><ele>132.0</ele><time>2026-05-05T13:06:51Z</time></trkpt><trkpt lat="45.99684376694312" lon="13.601501093631564"><ele>132.0</ele><time>2026-05-05T13:06:52Z</time></trkpt><trkpt lat="45.996987457949906" lon="13.601299130847867"><ele>132.0</ele><time>2026-05-05T13:06:53Z</time></trkpt><trkpt lat="45.99711569511808" lon="13.601093401115648"><ele>132.0</ele><time>2026-05-05T13:06:54Z</time></trkpt><trkpt lat="45.99723596146057" lon="13.60087101495999"><ele>131.0</ele><time>2026-05-05T13:06:55Z</time></trkpt><trkpt lat="45.997341491428884" lon="13.600620751807885"><ele>130.0</ele><time>2026-05-05T13:06:56Z</time></trkpt><trkpt lat="45.9974364967583" lon="13.600375889690566"><ele>129.0</ele><time>2026-05-05T13:06:57Z</time></trkpt><trkpt lat="45.99752001335591" lon="13.600151387580727"><ele>132.0</ele><time>2026-05-05T13:06:58Z</time></trkpt><trkpt lat="45.99759996065976" lon="13.599937881664033"><ele>135.0</ele><time>2026-05-05T13:06:59Z</time></trkpt><trkpt lat="45.997681023416895" lon="13.599729271512585"><ele>138.0</ele><time>2026-05-05T13:07:00Z</time></trkpt><trkpt lat="45.99777130196476" lon="13.599518117554988"><ele>135.0</ele><time>2026-05-05T13:07:01Z</time></trkpt><trkpt lat="45.99787101316915" lon="13.599305384197317"><ele>132.0</ele><time>2026-05-05T13:07:02Z</time></trkpt><trkpt lat="45.99797168834102" lon="13.59907770838646"><ele>129.0</ele><time>2026-05-05T13:07:03Z</time></trkpt><trkpt lat="45.99808664386434" lon="13.598848078974275"><ele>127.66666666666666</ele><time>2026-05-05T13:07:04Z</time></trkpt><trkpt lat="45.99822140272173" lon="13.59860996778939"><ele>126.33333333333333</ele><time>2026-05-05T13:07:05Z</time></trkpt><trkpt lat="45.99836454298763" lon="13.598344560585804"><ele>125.0</ele><time>2026-05-05T13:07:06Z</time></trkpt><trkpt lat="45.998514921878794" lon="13.59804479394108"><ele>130.0</ele><time>2026-05-05T13:07:07Z</time></trkpt><trkpt lat="45.998681577752826" lon="13.59771607200306"><ele>135.0</ele><time>2026-05-05T13:07:08Z</time></trkpt><trkpt lat="45.99885718862218" lon="13.597380844680757"><ele>135.0</ele><time>2026-05-05T13:07:09Z</time></trkpt><trkpt lat="45.99901933065385" lon="13.597052340531619"><ele>135.0</ele><time>2026-05-05T13:07:10Z</time></trkpt><trkpt lat="45.999162383123455" lon="13.596725464796892"><ele>136.5</ele><time>2026-05-05T13:07:11Z</time></trkpt><trkpt lat="45.999283079548974" lon="13.596394625079972"><ele>138.0</ele><time>2026-05-05T13:07:12Z</time></trkpt><trkpt lat="45.99938622001428" lon="13.596069674663633"><ele>138.0</ele><time>2026-05-05T13:07:13Z</time></trkpt><trkpt lat="45.999472543860456" lon="13.595740684156263"><ele>138.0</ele><time>2026-05-05T13:07:14Z</time></trkpt><trkpt lat="45.99953738251616" lon="13.5954113688629"><ele>134.5</ele><time>2026-05-05T13:07:15Z</time></trkpt><trkpt lat="45.99957990971338" lon="13.595082202980022"><ele>131.0</ele><time>2026-05-05T13:07:16Z</time></trkpt><trkpt lat="45.99960171368586" lon="13.594750498743059"><ele>135.0</ele><time>2026-05-05T13:07:17Z</time></trkpt><trkpt lat="45.99960225352112" lon="13.594428388977043"><ele>139.0</ele><time>2026-05-05T13:07:18Z</time></trkpt><trkpt lat="45.999585437500485" lon="13.594106084131466"><ele>143.0</ele><time>2026-05-05T13:07:19Z</time></trkpt><trkpt lat="45.99954939031596" lon="13.593787515481468"><ele>148.0</ele><time>2026-05-05T13:07:20Z</time></trkpt><trkpt lat="45.99949599481869" lon="13.59347514125952"><ele>153.0</ele><time>2026-05-05T13:07:21Z</time></trkpt><trkpt lat="45.99942708742551" lon="13.593171142669847"><ele>158.0</ele><time>2026-05-05T13:07:22Z</time></trkpt><trkpt lat="45.99933902328227" lon="13.59287784181567"><ele>162.0</ele><time>2026-05-05T13:07:23Z</time></trkpt><trkpt lat="45.99923194834948" lon="13.592602066432905"><ele>166.0</ele><time>2026-05-05T13:07:24Z</time></trkpt><trkpt lat="45.99911310291306" lon="13.592346258158067"><ele>170.0</ele><time>2026-05-05T13:07:25Z</time></trkpt><trkpt lat="45.99898515470103" lon="13.592109431764337"><ele>165.33333333333331</ele><time>2026-05-05T13:07:26Z</time></trkpt><trkpt lat="45.998856419125296" lon="13.591876114861547"><ele>160.66666666666666</ele><time>2026-05-05T13:07:27Z</time></trkpt><trkpt lat="45.99873080203935" lon="13.591634009712998"><ele>156.0</ele><time>2026-05-05T13:07:28Z</time></trkpt><trkpt lat="45.99861050002931" lon="13.591396220345787"><ele>153.0</ele><time>2026-05-05T13:07:29Z</time></trkpt><trkpt lat="45.9985015908605" lon="13.591163749334637"><ele>150.0</ele><time>2026-05-05T13:07:30Z</time></trkpt><trkpt lat="45.99840374667568" lon="13.590914175150948"><ele>147.0</ele><time>2026-05-05T13:07:31Z</time></trkpt><trkpt lat="45.99831622991211" lon="13.590645380451882"><ele>147.0</ele><time>2026-05-05T13:07:32Z</time></trkpt><trkpt lat="45.99823565860088" lon="13.590356914791355"><ele>147.0</ele><time>2026-05-05T13:07:33Z</time></trkpt><trkpt lat="45.99817342796923" lon="13.590070206190019"><ele>147.0</ele><time>2026-05-05T13:07:34Z</time></trkpt><trkpt lat="45.9981307447051" lon="13.589779630811385"><ele>151.33333333333334</ele><time>2026-05-05T13:07:35Z</time></trkpt><trkpt lat="45.9981049338405" lon="13.589492773457062"><ele>155.66666666666669</ele><time>2026-05-05T13:07:36Z</time></trkpt><trkpt lat="45.998092412009" lon="13.589213382549199"><ele>160.0</ele><time>2026-05-05T13:07:37Z</time></trkpt><trkpt lat="45.99809928895612" lon="13.588931058553353"><ele>159.33333333333334</ele><time>2026-05-05T13:07:38Z</time></trkpt><trkpt lat="45.99811580883063" lon="13.588642062298986"><ele>158.66666666666666</ele><time>2026-05-05T13:07:39Z</time></trkpt><trkpt lat="45.99814853862466" lon="13.588357310606982"><ele>158.0</ele><time>2026-05-05T13:07:40Z</time></trkpt><trkpt lat="45.998194843802324" lon="13.588075241741725"><ele>157.0</ele><time>2026-05-05T13:07:41Z</time></trkpt><trkpt lat="45.99824648066307" lon="13.58779568775589"><ele>156.0</ele><time>2026-05-05T13:07:42Z</time></trkpt><trkpt lat="45.998304424925024" lon="13.587520847090165"><ele>155.0</ele><time>2026-05-05T13:07:43Z</time></trkpt><trkpt lat="45.99836554136437" lon="13.587248107077027"><ele>163.66666666666666</ele><time>2026-05-05T13:07:44Z</time></trkpt><trkpt lat="45.998429286862304" lon="13.586969762403934"><ele>172.33333333333334</ele><time>2026-05-05T13:07:45Z</time></trkpt><trkpt lat="45.998499428960194" lon="13.586688199479495"><ele>181.0</ele><time>2026-05-05T13:07:46Z</time></trkpt><trkpt lat="45.99857638781262" lon="13.586410173597573"><ele>174.33333333333334</ele><time>2026-05-05T13:07:47Z</time></trkpt><trkpt lat="45.99866210291811" lon="13.586125458652411"><ele>167.66666666666666</ele><time>2026-05-05T13:07:48Z</time></trkpt><trkpt lat="45.99874966551518" lon="13.585853657184154"><ele>161.0</ele><time>2026-05-05T13:07:49Z</time></trkpt><trkpt lat="45.99884471096447" lon="13.585604760544427"><ele>161.0</ele><time>2026-05-05T13:07:50Z</time></trkpt><trkpt lat="45.998967522340536" lon="13.585374645851942"><ele>161.0</ele><time>2026-05-05T13:07:51Z</time></trkpt><trkpt lat="45.99913489270215" lon="13.585199922173432"><ele>161.0</ele><time>2026-05-05T13:07:52Z</time></trkpt><trkpt lat="45.99930145327622" lon="13.58503903638073"><ele>160.66666666666666</ele><time>2026-05-05T13:07:53Z</time></trkpt><trkpt lat="45.999484060156924" lon="13.584904902969543"><ele>160.33333333333334</ele><time>2026-05-05T13:07:54Z</time></trkpt><trkpt lat="45.99966865437049" lon="13.584773367869703"><ele>160.0</ele><time>2026-05-05T13:07:55Z</time></trkpt><trkpt lat="45.99986918930962" lon="13.584702279229736"><ele>160.0</ele><time>2026-05-05T13:07:56Z</time></trkpt><trkpt lat="46.00008111807552" lon="13.584640580995892"><ele>160.0</ele><time>2026-05-05T13:07:57Z</time></trkpt><trkpt lat="46.00029512495491" lon="13.584571774959388"><ele>160.0</ele><time>2026-05-05T13:07:58Z</time></trkpt><trkpt lat="46.00051357127323" lon="13.58448408516067"><ele>162.5</ele><time>2026-05-05T13:07:59Z</time></trkpt><trkpt lat="46.00074312715767" lon="13.584377334162635"><ele>165.0</ele><time>2026-05-05T13:08:00Z</time></trkpt><trkpt lat="46.000968982927894" lon="13.584260705914891"><ele>165.0</ele><time>2026-05-05T13:08:01Z</time></trkpt><trkpt lat="46.0011898934608" lon="13.584139116065952"><ele>165.0</ele><time>2026-05-05T13:08:02Z</time></trkpt><trkpt lat="46.001400569451334" lon="13.584013733681774"><ele>165.0</ele><time>2026-05-05T13:08:03Z</time></trkpt><trkpt lat="46.001597343125354" lon="13.583889437566727"><ele>165.0</ele><time>2026-05-05T13:08:04Z</time></trkpt><trkpt lat="46.00177573502236" lon="13.583775214516244"><ele>165.0</ele><time>2026-05-05T13:08:05Z</time></trkpt><trkpt lat="46.001951328758295" lon="13.583707387408829"><ele>172.0</ele><time>2026-05-05T13:08:06Z</time></trkpt><trkpt lat="46.002123318853066" lon="13.58362802227908"><ele>179.0</ele><time>2026-05-05T13:08:07Z</time></trkpt><trkpt lat="46.00230823507823" lon="13.583615084401337"><ele>186.0</ele><time>2026-05-05T13:08:08Z</time></trkpt><trkpt lat="46.002489353703105" lon="13.583634308643898"><ele>182.66666666666666</ele><time>2026-05-05T13:08:09Z</time></trkpt><trkpt lat="46.002665569901225" lon="13.58368505336316"><ele>179.33333333333331</ele><time>2026-05-05T13:08:10Z</time></trkpt><trkpt lat="46.002835929445986" lon="13.583771826263641"><ele>176.0</ele><time>2026-05-05T13:08:11Z</time></trkpt><trkpt lat="46.00299482622774" lon="13.583885174306634"><ele>176.0</ele><time>2026-05-05T13:08:12Z</time></trkpt><trkpt lat="46.0031441860498" lon="13.584001361051895"><ele>176.0</ele><time>2026-05-05T13:08:13Z</time></trkpt><trkpt lat="46.00329694753544" lon="13.584084864289796"><ele>176.0</ele><time>2026-05-05T13:08:14Z</time></trkpt><trkpt lat="46.003469851669585" lon="13.584111028413929"><ele>177.33333333333331</ele><time>2026-05-05T13:08:15Z</time></trkpt><trkpt lat="46.00363017332103" lon="13.584192617357038"><ele>178.66666666666666</ele><time>2026-05-05T13:08:16Z</time></trkpt><trkpt lat="46.003792520576546" lon="13.584258284171266"><ele>180.0</ele><time>2026-05-05T13:08:17Z</time></trkpt><trkpt lat="46.00401429827764" lon="13.583972935299252"><ele>179.66666666666666</ele><time>2026-05-05T13:08:18Z</time></trkpt><trkpt lat="46.00418314560611" lon="13.583842147195123"><ele>179.33333333333331</ele><time>2026-05-05T13:08:19Z</time></trkpt><trkpt lat="46.004338653837436" lon="13.583667939029448"><ele>179.0</ele><time>2026-05-05T13:08:20Z</time></trkpt><trkpt lat="46.004479627802226" lon="13.583455839341047"><ele>179.0</ele><time>2026-05-05T13:08:21Z</time></trkpt><trkpt lat="46.0046014455744" lon="13.583201588507118"><ele>179.0</ele><time>2026-05-05T13:08:22Z</time></trkpt><trkpt lat="46.004720286691544" lon="13.582912068461802"><ele>179.0</ele><time>2026-05-05T13:08:23Z</time></trkpt><trkpt lat="46.00486493532973" lon="13.582591385375784"><ele>180.0</ele><time>2026-05-05T13:08:24Z</time></trkpt><trkpt lat="46.00504362137245" lon="13.582281016004854"><ele>181.0</ele><time>2026-05-05T13:08:25Z</time></trkpt><trkpt lat="46.00523527390792" lon="13.581987989463501"><ele>187.5</ele><time>2026-05-05T13:08:26Z</time></trkpt><trkpt lat="46.005437289245656" lon="13.581716310970366"><ele>194.0</ele><time>2026-05-05T13:08:27Z</time></trkpt><trkpt lat="46.005655109363666" lon="13.581468472751022"><ele>194.0</ele><time>2026-05-05T13:08:28Z</time></trkpt><trkpt lat="46.00588997447272" lon="13.58125569348184"><ele>194.0</ele><time>2026-05-05T13:08:29Z</time></trkpt><trkpt lat="46.00613993054495" lon="13.58107639329843"><ele>194.0</ele><time>2026-05-05T13:08:30Z</time></trkpt><trkpt lat="46.00639984990301" lon="13.580917433112402"><ele>194.0</ele><time>2026-05-05T13:08:31Z</time></trkpt><trkpt lat="46.006657731687916" lon="13.58077540315049"><ele>194.5</ele><time>2026-05-05T13:08:32Z</time></trkpt><trkpt lat="46.00690200008585" lon="13.580615361471997"><ele>195.0</ele><time>2026-05-05T13:08:33Z</time></trkpt><trkpt lat="46.00712851408902" lon="13.58040739420012"><ele>196.0</ele><time>2026-05-05T13:08:34Z</time></trkpt><trkpt lat="46.007331212910074" lon="13.580152282529486"><ele>197.0</ele><time>2026-05-05T13:08:35Z</time></trkpt><trkpt lat="46.007506605250086" lon="13.57986495668176"><ele>197.0</ele><time>2026-05-05T13:08:36Z</time></trkpt><trkpt lat="46.00765053011035" lon="13.57955849312917"><ele>197.0</ele><time>2026-05-05T13:08:37Z</time></trkpt><trkpt lat="46.007765069407334" lon="13.579251401408722"><ele>199.33333333333334</ele><time>2026-05-05T13:08:38Z</time></trkpt><trkpt lat="46.007863838705596" lon="13.578959483763974"><ele>201.66666666666669</ele><time>2026-05-05T13:08:39Z</time></trkpt><trkpt lat="46.007975183152546" lon="13.578709574566485"><ele>204.0</ele><time>2026-05-05T13:08:40Z</time></trkpt><trkpt lat="46.00810671293952" lon="13.578514664131752"><ele>205.66666666666669</ele><time>2026-05-05T13:08:41Z</time></trkpt><trkpt lat="46.00826454397732" lon="13.578363454807175"><ele>207.33333333333334</ele><time>2026-05-05T13:08:42Z</time></trkpt><trkpt lat="46.008429131813394" lon="13.578254040119175"><ele>209.0</ele><time>2026-05-05T13:08:43Z</time></trkpt><trkpt lat="46.00861520847489" lon="13.578196668782535"><ele>209.0</ele><time>2026-05-05T13:08:44Z</time></trkpt><trkpt lat="46.00880675324375" lon="13.578172439191412"><ele>209.0</ele><time>2026-05-05T13:08:45Z</time></trkpt><trkpt lat="46.008999344034876" lon="13.578131467487989"><ele>209.0</ele><time>2026-05-05T13:08:46Z</time></trkpt><trkpt lat="46.00919512250232" lon="13.578070969940823"><ele>210.0</ele><time>2026-05-05T13:08:47Z</time></trkpt><trkpt lat="46.00936827523685" lon="13.578011016384513"><ele>211.0</ele><time>2026-05-05T13:08:48Z</time></trkpt><trkpt lat="46.009508913482335" lon="13.577970702411388"><ele>212.0</ele><time>2026-05-05T13:08:49Z</time></trkpt><trkpt lat="46.00963675510298" lon="13.577970428558574"><ele>213.0</ele><time>2026-05-05T13:08:50Z</time></trkpt><trkpt lat="46.00977315421416" lon="13.578019256182175"><ele>213.0</ele><time>2026-05-05T13:08:51Z</time></trkpt><trkpt lat="46.00989954707889" lon="13.578108519544298"><ele>213.0</ele><time>2026-05-05T13:08:52Z</time></trkpt><trkpt lat="46.00999526222465" lon="13.57820767816353"><ele>213.0</ele><time>2026-05-05T13:08:53Z</time></trkpt><trkpt lat="46.010080906639594" lon="13.578271168638205"><ele>213.0</ele><time>2026-05-05T13:08:54Z</time></trkpt><trkpt lat="46.010161142837504" lon="13.57827912546539"><ele>213.0</ele><time>2026-05-05T13:08:55Z</time></trkpt><trkpt lat="46.01022267549295" lon="13.578220127403599"><ele>213.83333333333334</ele><time>2026-05-05T13:08:56Z</time></trkpt><trkpt lat="46.01025340316957" lon="13.578121437763919"><ele>214.66666666666669</ele><time>2026-05-05T13:08:57Z</time></trkpt><trkpt lat="46.01025136259918" lon="13.578005386737576"><ele>215.5</ele><time>2026-05-05T13:08:58Z</time></trkpt><trkpt lat="46.01020699223886" lon="13.577894796513307"><ele>216.33333333333334</ele><time>2026-05-05T13:08:59Z</time></trkpt><trkpt lat="46.010123419347806" lon="13.577827812589923"><ele>217.16666666666669</ele><time>2026-05-05T13:09:00Z</time></trkpt><trkpt lat="46.01002761787212" lon="13.57780353072868"><ele>218.0</ele><time>2026-05-05T13:09:01Z</time></trkpt><trkpt lat="46.00991531917223" lon="13.577763426643997"><ele>218.0</ele><time>2026-05-05T13:09:02Z</time></trkpt><trkpt lat="46.00977981809832" lon="13.57769815207472"><ele>218.0</ele><time>2026-05-05T13:09:03Z</time></trkpt><trkpt lat="46.009641267669984" lon="13.5775972651174"><ele>218.0</ele><time>2026-05-05T13:09:04Z</time></trkpt><trkpt lat="46.009518290604056" lon="13.577477964945546"><ele>218.0</ele><time>2026-05-05T13:09:05Z</time></trkpt><trkpt lat="46.009436844642316" lon="13.57734874199063"><ele>218.0</ele><time>2026-05-05T13:09:06Z</time></trkpt><trkpt lat="46.009399518645445" lon="13.577201810746393"><ele>218.0</ele><time>2026-05-05T13:09:07Z</time></trkpt><trkpt lat="46.00941104041326" lon="13.577052583373902"><ele>218.0</ele><time>2026-05-05T13:09:08Z</time></trkpt><trkpt lat="46.00945838549548" lon="13.57691070774532"><ele>218.0</ele><time>2026-05-05T13:09:09Z</time></trkpt><trkpt lat="46.0095424952651" lon="13.576783902095702"><ele>218.0</ele><time>2026-05-05T13:09:10Z</time></trkpt><trkpt lat="46.009638670406886" lon="13.576651758585374"><ele>218.33333333333334</ele><time>2026-05-05T13:09:11Z</time></trkpt><trkpt lat="46.00974036591174" lon="13.576503208796979"><ele>218.66666666666669</ele><time>2026-05-05T13:09:12Z</time></trkpt><trkpt lat="46.00981867515474" lon="13.576313562707801"><ele>219.0</ele><time>2026-05-05T13:09:13Z</time></trkpt><trkpt lat="46.009881403353795" lon="13.576103268015673"><ele>221.0</ele><time>2026-05-05T13:09:14Z</time></trkpt><trkpt lat="46.00995021810897" lon="13.575886946683482"><ele>223.0</ele><time>2026-05-05T13:09:15Z</time></trkpt><trkpt lat="46.010041017378526" lon="13.575705109265078"><ele>225.0</ele><time>2026-05-05T13:09:16Z</time></trkpt><trkpt lat="46.010150466263966" lon="13.57555574697673"><ele>226.5</ele><time>2026-05-05T13:09:17Z</time></trkpt><trkpt lat="46.01027155859027" lon="13.575428325429659"><ele>228.0</ele><time>2026-05-05T13:09:18Z</time></trkpt><trkpt lat="46.01039600347813" lon="13.575346384700884"><ele>229.5</ele><time>2026-05-05T13:09:19Z</time></trkpt><trkpt lat="46.010514235813616" lon="13.575294726003072"><ele>231.0</ele><time>2026-05-05T13:09:20Z</time></trkpt><trkpt lat="46.01061220654043" lon="13.575247955572241"><ele>232.8</ele><time>2026-05-05T13:09:21Z</time></trkpt><trkpt lat="46.01067707789517" lon="13.575167426726681"><ele>234.60000000000002</ele><time>2026-05-05T13:09:22Z</time></trkpt><trkpt lat="46.01073238705675" lon="13.575084510509186"><ele>236.4</ele><time>2026-05-05T13:09:23Z</time></trkpt><trkpt lat="46.01070927259012" lon="13.574943665921102"><ele>238.2</ele><time>2026-05-05T13:09:24Z</time></trkpt><trkpt lat="46.01065959851652" lon="13.574844461585444"><ele>240.0</ele><time>2026-05-05T13:09:25Z</time></trkpt><trkpt lat="46.0105558716793" lon="13.574801613548388"><ele>240.0</ele><time>2026-05-05T13:09:26Z</time></trkpt><trkpt lat="46.010450316361926" lon="13.574821399183277"><ele>240.0</ele><time>2026-05-05T13:09:27Z</time></trkpt><trkpt lat="46.010335611700505" lon="13.574820487125685"><ele>240.0</ele><time>2026-05-05T13:09:28Z</time></trkpt><trkpt lat="46.01019592684819" lon="13.574844101202716"><ele>240.0</ele><time>2026-05-05T13:09:29Z</time></trkpt><trkpt lat="46.01004533525767" lon="13.574878004826731"><ele>241.25</ele><time>2026-05-05T13:09:30Z</time></trkpt><trkpt lat="46.009889780317124" lon="13.57487711597504"><ele>242.5</ele><time>2026-05-05T13:09:31Z</time></trkpt><trkpt lat="46.0097455988118" lon="13.574878817268312"><ele>243.75</ele><time>2026-05-05T13:09:32Z</time></trkpt><trkpt lat="46.00961380800195" lon="13.57488994656321"><ele>245.0</ele><time>2026-05-05T13:09:33Z</time></trkpt><trkpt lat="46.009501656184675" lon="13.574917972742856"><ele>245.0</ele><time>2026-05-05T13:09:34Z</time></trkpt><trkpt lat="46.009411474043276" lon="13.574963781267439"><ele>245.0</ele><time>2026-05-05T13:09:35Z</time></trkpt><trkpt lat="46.009343170141236" lon="13.574997510760122"><ele>245.0</ele><time>2026-05-05T13:09:36Z</time></trkpt><trkpt lat="46.00923416775284" lon="13.575007321900136"><ele>245.0</ele><time>2026-05-05T13:09:38Z</time></trkpt><trkpt lat="46.00913669601456" lon="13.5749329093732"><ele>245.0</ele><time>2026-05-05T13:09:40Z</time></trkpt><trkpt lat="46.00912193030116" lon="13.57478959017399"><ele>245.0</ele><time>2026-05-05T13:09:42Z</time></trkpt><trkpt lat="46.00923149227352" lon="13.5746777328859"><ele>245.0</ele><time>2026-05-05T13:09:44Z</time></trkpt><trkpt lat="46.00931769811403" lon="13.5746359593344"><ele>245.0</ele><time>2026-05-05T13:09:45Z</time></trkpt><trkpt lat="46.00943492264563" lon="13.57457488265351"><ele>245.0</ele><time>2026-05-05T13:09:46Z</time></trkpt><trkpt lat="46.00958092995255" lon="13.57450475189334"><ele>245.33333333333334</ele><time>2026-05-05T13:09:47Z</time></trkpt><trkpt lat="46.00973485142758" lon="13.57442554150046"><ele>245.66666666666669</ele><time>2026-05-05T13:09:48Z</time></trkpt><trkpt lat="46.00989509433205" lon="13.574348738200019"><ele>246.0</ele><time>2026-05-05T13:09:49Z</time></trkpt><trkpt lat="46.010058760517985" lon="13.574273379567876"><ele>247.5</ele><time>2026-05-05T13:09:50Z</time></trkpt><trkpt lat="46.010192788296735" lon="13.57420872183543"><ele>249.0</ele><time>2026-05-05T13:09:51Z</time></trkpt><trkpt lat="46.010307189132114" lon="13.574127254321386"><ele>250.5</ele><time>2026-05-05T13:09:52Z</time></trkpt><trkpt lat="46.01040700385908" lon="13.574010449484938"><ele>252.0</ele><time>2026-05-05T13:09:53Z</time></trkpt><trkpt lat="46.01049435829502" lon="13.573868482172863"><ele>252.0</ele><time>2026-05-05T13:09:54Z</time></trkpt><trkpt lat="46.01056777591591" lon="13.573700363463383"><ele>252.0</ele><time>2026-05-05T13:09:55Z</time></trkpt><trkpt lat="46.0106222452201" lon="13.57350379615341"><ele>252.0</ele><time>2026-05-05T13:09:56Z</time></trkpt><trkpt lat="46.01067432107326" lon="13.573287016754708"><ele>252.0</ele><time>2026-05-05T13:09:57Z</time></trkpt><trkpt lat="46.010722115331994" lon="13.573058540709837"><ele>248.66666666666669</ele><time>2026-05-05T13:09:58Z</time></trkpt><trkpt lat="46.010766664188026" lon="13.57280731746547"><ele>245.33333333333334</ele><time>2026-05-05T13:09:59Z</time></trkpt><trkpt lat="46.010797111900295" lon="13.57255495698601"><ele>242.0</ele><time>2026-05-05T13:10:00Z</time></trkpt><trkpt lat="46.0108115990523" lon="13.572316563639578"><ele>247.5</ele><time>2026-05-05T13:10:01Z</time></trkpt><trkpt lat="46.01082543014604" lon="13.572091213710568"><ele>253.0</ele><time>2026-05-05T13:10:02Z</time></trkpt><trkpt lat="46.01086059810755" lon="13.571894352595464"><ele>258.5</ele><time>2026-05-05T13:10:03Z</time></trkpt><trkpt lat="46.01092528832491" lon="13.57170598190917"><ele>264.0</ele><time>2026-05-05T13:10:04Z</time></trkpt><trkpt lat="46.011031084787696" lon="13.571538661744105"><ele>264.3333333333333</ele><time>2026-05-05T13:10:05Z</time></trkpt><trkpt lat="46.01112706875099" lon="13.571331346070345"><ele>264.66666666666663</ele><time>2026-05-05T13:10:06Z</time></trkpt><trkpt lat="46.0112442084727" lon="13.57112632898066"><ele>265.0</ele><time>2026-05-05T13:10:07Z</time></trkpt><trkpt lat="46.01136368971935" lon="13.570916805665783"><ele>266.66666666666663</ele><time>2026-05-05T13:10:08Z</time></trkpt><trkpt lat="46.01148120551512" lon="13.570713367294799"><ele>268.3333333333333</ele><time>2026-05-05T13:10:09Z</time></trkpt><trkpt lat="46.011601375729235" lon="13.57052152508252"><ele>270.0</ele><time>2026-05-05T13:10:10Z</time></trkpt><trkpt lat="46.011723152691076" lon="13.570352597707734"><ele>270.0</ele><time>2026-05-05T13:10:11Z</time></trkpt><trkpt lat="46.01185456214291" lon="13.570194832687491"><ele>270.0</ele><time>2026-05-05T13:10:12Z</time></trkpt><trkpt lat="46.01199007917837" lon="13.57006878739957"><ele>270.0</ele><time>2026-05-05T13:10:13Z</time></trkpt><trkpt lat="46.01212185954863" lon="13.56995913171373"><ele>270.0</ele><time>2026-05-05T13:10:14Z</time></trkpt><trkpt lat="46.01224650263479" lon="13.56984669785757"><ele>270.0</ele><time>2026-05-05T13:10:15Z</time></trkpt><trkpt lat="46.01234897233726" lon="13.569705748416217"><ele>270.0</ele><time>2026-05-05T13:10:16Z</time></trkpt><trkpt lat="46.01241694984426" lon="13.569530540572934"><ele>270.0</ele><time>2026-05-05T13:10:17Z</time></trkpt><trkpt lat="46.012441629034235" lon="13.569327741646502"><ele>269.25</ele><time>2026-05-05T13:10:18Z</time></trkpt><trkpt lat="46.0124376395576" lon="13.569123269581736"><ele>268.5</ele><time>2026-05-05T13:10:19Z</time></trkpt><trkpt lat="46.012423323976044" lon="13.568909034976548"><ele>267.75</ele><time>2026-05-05T13:10:20Z</time></trkpt><trkpt lat="46.01243514156389" lon="13.56870196628479"><ele>267.0</ele><time>2026-05-05T13:10:21Z</time></trkpt><trkpt lat="46.012492671585264" lon="13.568505415870957"><ele>271.75</ele><time>2026-05-05T13:10:22Z</time></trkpt><trkpt lat="46.012570724406736" lon="13.568333883278495"><ele>276.5</ele><time>2026-05-05T13:10:23Z</time></trkpt><trkpt lat="46.01263404031134" lon="13.568155600542129"><ele>281.25</ele><time>2026-05-05T13:10:24Z</time></trkpt><trkpt lat="46.01266892357302" lon="13.567969886550626"><ele>286.0</ele><time>2026-05-05T13:10:25Z</time></trkpt><trkpt lat="46.01265724892547" lon="13.56777170565936"><ele>287.25</ele><time>2026-05-05T13:10:26Z</time></trkpt><trkpt lat="46.01262414290342" lon="13.567586748725555"><ele>288.5</ele><time>2026-05-05T13:10:27Z</time></trkpt><trkpt lat="46.012575026570865" lon="13.567410886040577"><ele>289.75</ele><time>2026-05-05T13:10:28Z</time></trkpt><trkpt lat="46.01253553244835" lon="13.567264394583253"><ele>291.0</ele><time>2026-05-05T13:10:29Z</time></trkpt><trkpt lat="46.01250498957823" lon="13.567121189182297"><ele>292.2</ele><time>2026-05-05T13:10:30Z</time></trkpt><trkpt lat="46.01248978874359" lon="13.566986694740327"><ele>293.40000000000003</ele><time>2026-05-05T13:10:31Z</time></trkpt><trkpt lat="46.012491064706786" lon="13.56685017484757"><ele>294.6</ele><time>2026-05-05T13:10:32Z</time></trkpt><trkpt lat="46.01250971756284" lon="13.566717805608882"><ele>295.8</ele><time>2026-05-05T13:10:33Z</time></trkpt><trkpt lat="46.0125156631416" lon="13.566590459589591"><ele>297.0</ele><time>2026-05-05T13:10:34Z</time></trkpt><trkpt lat="46.012485285626774" lon="13.566463005622557"><ele>293.0</ele><time>2026-05-05T13:10:35Z</time></trkpt><trkpt lat="46.012418959681774" lon="13.566325125079207"><ele>289.0</ele><time>2026-05-05T13:10:36Z</time></trkpt><trkpt lat="46.01235201313865" lon="13.5661404976192"><ele>285.0</ele><time>2026-05-05T13:10:37Z</time></trkpt><trkpt lat="46.01229400417338" lon="13.56591563003857"><ele>281.0</ele><time>2026-05-05T13:10:38Z</time></trkpt><trkpt lat="46.01223467575154" lon="13.565673968986765"><ele>281.0</ele><time>2026-05-05T13:10:39Z</time></trkpt><trkpt lat="46.01217131642734" lon="13.565433569334834"><ele>281.0</ele><time>2026-05-05T13:10:40Z</time></trkpt><trkpt lat="46.01210894084352" lon="13.565197712541027"><ele>281.0</ele><time>2026-05-05T13:10:41Z</time></trkpt><trkpt lat="46.01204277262675" lon="13.564988743337041"><ele>283.25</ele><time>2026-05-05T13:10:42Z</time></trkpt><trkpt lat="46.01197266314833" lon="13.564812768538294"><ele>285.5</ele><time>2026-05-05T13:10:43Z</time></trkpt><trkpt lat="46.01188749526767" lon="13.564678983553867"><ele>287.75</ele><time>2026-05-05T13:10:44Z</time></trkpt><trkpt lat="46.01178809218824" lon="13.564571912951832"><ele>290.0</ele><time>2026-05-05T13:10:45Z</time></trkpt><trkpt lat="46.011669246160174" lon="13.564495166374307"><ele>292.33333333333337</ele><time>2026-05-05T13:10:46Z</time></trkpt><trkpt lat="46.011532778440255" lon="13.564433262994354"><ele>294.6666666666667</ele><time>2026-05-05T13:10:47Z</time></trkpt><trkpt lat="46.01138854733042" lon="13.564391829634232"><ele>297.0</ele><time>2026-05-05T13:10:48Z</time></trkpt><trkpt lat="46.011227584413284" lon="13.564341109226222"><ele>297.0</ele><time>2026-05-05T13:10:49Z</time></trkpt><trkpt lat="46.01105305537428" lon="13.564280466077443"><ele>297.0</ele><time>2026-05-05T13:10:50Z</time></trkpt><trkpt lat="46.01087824043735" lon="13.564212458947011"><ele>297.0</ele><time>2026-05-05T13:10:51Z</time></trkpt><trkpt lat="46.01070585253558" lon="13.564133891265216"><ele>291.3333333333333</ele><time>2026-05-05T13:10:52Z</time></trkpt><trkpt lat="46.010531111671824" lon="13.564047054959637"><ele>285.66666666666663</ele><time>2026-05-05T13:10:53Z</time></trkpt><trkpt lat="46.01036150786771" lon="13.563942213398116"><ele>280.0</ele><time>2026-05-05T13:10:54Z</time></trkpt><trkpt lat="46.01021432500609" lon="13.563809010685018"><ele>277.3333333333333</ele><time>2026-05-05T13:10:55Z</time></trkpt><trkpt lat="46.0100801188446" lon="13.563634084141613"><ele>274.6666666666667</ele><time>2026-05-05T13:10:56Z</time></trkpt><trkpt lat="46.009972701926394" lon="13.563443612664248"><ele>272.0</ele><time>2026-05-05T13:10:57Z</time></trkpt><trkpt lat="46.0098821131863" lon="13.563238009548233"><ele>272.0</ele><time>2026-05-05T13:10:58Z</time></trkpt><trkpt lat="46.00980152972338" lon="13.563026137172002"><ele>272.0</ele><time>2026-05-05T13:10:59Z</time></trkpt><trkpt lat="46.009717996198916" lon="13.562804998506579"><ele>272.0</ele><time>2026-05-05T13:11:00Z</time></trkpt><trkpt lat="46.00961863503109" lon="13.562590580717343"><ele>277.6666666666667</ele><time>2026-05-05T13:11:01Z</time></trkpt><trkpt lat="46.00950030775926" lon="13.56239393419862"><ele>283.3333333333333</ele><time>2026-05-05T13:11:02Z</time></trkpt><trkpt lat="46.00937573178864" lon="13.562206915960267"><ele>289.0</ele><time>2026-05-05T13:11:03Z</time></trkpt><trkpt lat="46.00925482776783" lon="13.562017680153682"><ele>286.3333333333333</ele><time>2026-05-05T13:11:04Z</time></trkpt><trkpt lat="46.0091581019062" lon="13.561821814945361"><ele>283.6666666666667</ele><time>2026-05-05T13:11:05Z</time></trkpt><trkpt lat="46.009089812937326" lon="13.561616263524678"><ele>281.0</ele><time>2026-05-05T13:11:06Z</time></trkpt><trkpt lat="46.00904817972592" lon="13.561401006858578"><ele>275.6666666666667</ele><time>2026-05-05T13:11:07Z</time></trkpt><trkpt lat="46.00903228953835" lon="13.56117648127692"><ele>270.3333333333333</ele><time>2026-05-05T13:11:08Z</time></trkpt><trkpt lat="46.00903376054456" lon="13.560956638697274"><ele>265.0</ele><time>2026-05-05T13:11:09Z</time></trkpt><trkpt lat="46.00905468264783" lon="13.560741336575731"><ele>265.0</ele><time>2026-05-05T13:11:10Z</time></trkpt><trkpt lat="46.009080456713875" lon="13.560520315433923"><ele>265.0</ele><time>2026-05-05T13:11:11Z</time></trkpt><trkpt lat="46.0090928084729" lon="13.560294785171171"><ele>265.0</ele><time>2026-05-05T13:11:12Z</time></trkpt><trkpt lat="46.00908396490171" lon="13.560069770597906"><ele>263.3333333333333</ele><time>2026-05-05T13:11:13Z</time></trkpt><trkpt lat="46.00904111928723" lon="13.559857728843985"><ele>261.6666666666667</ele><time>2026-05-05T13:11:14Z</time></trkpt><trkpt lat="46.00897727024598" lon="13.55966388300861"><ele>260.0</ele><time>2026-05-05T13:11:15Z</time></trkpt><trkpt lat="46.008894223460956" lon="13.55947581027496"><ele>264.0</ele><time>2026-05-05T13:11:16Z</time></trkpt><trkpt lat="46.008787348558855" lon="13.559290643093746"><ele>268.0</ele><time>2026-05-05T13:11:17Z</time></trkpt><trkpt lat="46.008665655028615" lon="13.55911248353524"><ele>272.0</ele><time>2026-05-05T13:11:18Z</time></trkpt><trkpt lat="46.00853384984338" lon="13.558938358880907"><ele>272.0</ele><time>2026-05-05T13:11:19Z</time></trkpt><trkpt lat="46.008394612712564" lon="13.558764021398071"><ele>272.0</ele><time>2026-05-05T13:11:20Z</time></trkpt><trkpt lat="46.00825682988792" lon="13.558605112034975"><ele>272.0</ele><time>2026-05-05T13:11:21Z</time></trkpt><trkpt lat="46.008111942667824" lon="13.558442969957326"><ele>265.6666666666667</ele><time>2026-05-05T13:11:22Z</time></trkpt><trkpt lat="46.00796451588536" lon="13.558269589908312"><ele>259.3333333333333</ele><time>2026-05-05T13:11:23Z</time></trkpt><trkpt lat="46.00782858974727" lon="13.558090107404398"><ele>253.0</ele><time>2026-05-05T13:11:24Z</time></trkpt><trkpt lat="46.007710868615305" lon="13.557903539189589"><ele>250.0</ele><time>2026-05-05T13:11:25Z</time></trkpt><trkpt lat="46.00760117100807" lon="13.557718310691573"><ele>247.0</ele><time>2026-05-05T13:11:26Z</time></trkpt><trkpt lat="46.007494399521015" lon="13.557538235181662"><ele>244.0</ele><time>2026-05-05T13:11:27Z</time></trkpt><trkpt lat="46.00738998145606" lon="13.557366951507952"><ele>244.0</ele><time>2026-05-05T13:11:28Z</time></trkpt><trkpt lat="46.00728112908804" lon="13.557202024511323"><ele>244.0</ele><time>2026-05-05T13:11:29Z</time></trkpt><trkpt lat="46.007164412636605" lon="13.557059206660577"><ele>244.0</ele><time>2026-05-05T13:11:30Z</time></trkpt><trkpt lat="46.00702686088371" lon="13.55694419791189"><ele>246.33333333333331</ele><time>2026-05-05T13:11:31Z</time></trkpt><trkpt lat="46.006876422903346" lon="13.556847981546158"><ele>248.66666666666669</ele><time>2026-05-05T13:11:32Z</time></trkpt><trkpt lat="46.006723932510056" lon="13.556766197427349"><ele>251.0</ele><time>2026-05-05T13:11:33Z</time></trkpt><trkpt lat="46.00657558023143" lon="13.556688458415916"><ele>251.0</ele><time>2026-05-05T13:11:34Z</time></trkpt><trkpt lat="46.00642938876208" lon="13.55660483624627"><ele>251.0</ele><time>2026-05-05T13:11:35Z</time></trkpt><trkpt lat="46.00628286858914" lon="13.556516241196276"><ele>251.0</ele><time>2026-05-05T13:11:36Z</time></trkpt><trkpt lat="46.006146850030085" lon="13.556413557480985"><ele>251.0</ele><time>2026-05-05T13:11:37Z</time></trkpt><trkpt lat="46.0060219604369" lon="13.556293972946092"><ele>251.0</ele><time>2026-05-05T13:11:38Z</time></trkpt><trkpt lat="46.005903363072704" lon="13.556168902566442"><ele>251.0</ele><time>2026-05-05T13:11:39Z</time></trkpt><trkpt lat="46.005787231208224" lon="13.556055032013077"><ele>251.0</ele><time>2026-05-05T13:11:40Z</time></trkpt><trkpt lat="46.00565841932783" lon="13.555979259857805"><ele>252.0</ele><time>2026-05-05T13:11:41Z</time></trkpt><trkpt lat="46.00552740722702" lon="13.555936639839313"><ele>253.0</ele><time>2026-05-05T13:11:42Z</time></trkpt><trkpt lat="46.005396469570385" lon="13.555941017113504"><ele>254.0</ele><time>2026-05-05T13:11:43Z</time></trkpt><trkpt lat="46.005254892108894" lon="13.555962931532813"><ele>255.0</ele><time>2026-05-05T13:11:44Z</time></trkpt><trkpt lat="46.00511012101294" lon="13.555965521749805"><ele>249.66666666666669</ele><time>2026-05-05T13:11:45Z</time></trkpt><trkpt lat="46.00496061164239" lon="13.555939546926725"><ele>244.33333333333334</ele><time>2026-05-05T13:11:46Z</time></trkpt><trkpt lat="46.00481325226505" lon="13.555905707764804"><ele>239.0</ele><time>2026-05-05T13:11:47Z</time></trkpt><trkpt lat="46.0046622936176" lon="13.55586205096426"><ele>239.0</ele><time>2026-05-05T13:11:48Z</time></trkpt><trkpt lat="46.004519537937966" lon="13.555806620398993"><ele>239.0</ele><time>2026-05-05T13:11:49Z</time></trkpt><trkpt lat="46.004384615921275" lon="13.55573284870995"><ele>239.0</ele><time>2026-05-05T13:11:50Z</time></trkpt><trkpt lat="46.00427195555439" lon="13.555629518388388"><ele>239.0</ele><time>2026-05-05T13:11:51Z</time></trkpt><trkpt lat="46.004176746656455" lon="13.555513257589158"><ele>232.25</ele><time>2026-05-05T13:11:52Z</time></trkpt><trkpt lat="46.004099780619015" lon="13.555375192695209"><ele>225.5</ele><time>2026-05-05T13:11:53Z</time></trkpt><trkpt lat="46.0040465647114" lon="13.555210717253638"><ele>218.75</ele><time>2026-05-05T13:11:54Z</time></trkpt><trkpt lat="46.004005109542646" lon="13.555034052395161"><ele>212.0</ele><time>2026-05-05T13:11:55Z</time></trkpt><trkpt lat="46.00397502277664" lon="13.554850802871076"><ele>212.0</ele><time>2026-05-05T13:11:56Z</time></trkpt><trkpt lat="46.00396138505346" lon="13.554660127792792"><ele>212.0</ele><time>2026-05-05T13:11:57Z</time></trkpt><trkpt lat="46.003974832679845" lon="13.554465943188834"><ele>212.0</ele><time>2026-05-05T13:11:58Z</time></trkpt><trkpt lat="46.004007257830686" lon="13.554254825095928"><ele>212.0</ele><time>2026-05-05T13:11:59Z</time></trkpt><trkpt lat="46.004042942570905" lon="13.55403478187193"><ele>212.0</ele><time>2026-05-05T13:12:00Z</time></trkpt><trkpt lat="46.00406788413476" lon="13.553816597422413"><ele>212.0</ele><time>2026-05-05T13:12:01Z</time></trkpt><trkpt lat="46.00407889272666" lon="13.553596770789131"><ele>212.0</ele><time>2026-05-05T13:12:02Z</time></trkpt><trkpt lat="46.0040826880705" lon="13.553366531737895"><ele>210.0</ele><time>2026-05-05T13:12:03Z</time></trkpt><trkpt lat="46.004082603903534" lon="13.553138989660521"><ele>208.0</ele><time>2026-05-05T13:12:04Z</time></trkpt><trkpt lat="46.00408125649375" lon="13.55292753910968"><ele>206.0</ele><time>2026-05-05T13:12:05Z</time></trkpt><trkpt lat="46.0040826820475" lon="13.552724609115035"><ele>204.0</ele><time>2026-05-05T13:12:06Z</time></trkpt><trkpt lat="46.004086632913655" lon="13.552529336403198"><ele>202.0</ele><time>2026-05-05T13:12:07Z</time></trkpt><trkpt lat="46.00410725307996" lon="13.552351341358227"><ele>200.0</ele><time>2026-05-05T13:12:08Z</time></trkpt><trkpt lat="46.00413914788605" lon="13.552147103680044"><ele>198.0</ele><time>2026-05-05T13:12:09Z</time></trkpt><trkpt lat="46.00419923406236" lon="13.551951506381352"><ele>196.0</ele><time>2026-05-05T13:12:10Z</time></trkpt><trkpt lat="46.00426444105247" lon="13.55173132403499"><ele>202.0</ele><time>2026-05-05T13:12:11Z</time></trkpt><trkpt lat="46.00432082595901" lon="13.551492515631054"><ele>208.0</ele><time>2026-05-05T13:12:12Z</time></trkpt><trkpt lat="46.0043784558205" lon="13.551234829730475"><ele>214.0</ele><time>2026-05-05T13:12:13Z</time></trkpt><trkpt lat="46.00443574263628" lon="13.55095759849058"><ele>214.0</ele><time>2026-05-05T13:12:14Z</time></trkpt><trkpt lat="46.00450019235652" lon="13.550671297674299"><ele>214.0</ele><time>2026-05-05T13:12:15Z</time></trkpt><trkpt lat="46.004569056378806" lon="13.550376178037146"><ele>214.0</ele><time>2026-05-05T13:12:16Z</time></trkpt><trkpt lat="46.004632731153855" lon="13.55009177502751"><ele>210.0</ele><time>2026-05-05T13:12:17Z</time></trkpt><trkpt lat="46.00468246776669" lon="13.549803184936351"><ele>206.0</ele><time>2026-05-05T13:12:18Z</time></trkpt><trkpt lat="46.00471062589338" lon="13.549507202422932"><ele>202.0</ele><time>2026-05-05T13:12:19Z</time></trkpt><trkpt lat="46.00472186634692" lon="13.549217759131738"><ele>196.33333333333331</ele><time>2026-05-05T13:12:20Z</time></trkpt><trkpt lat="46.0047241488671" lon="13.548929327986807"><ele>190.66666666666666</ele><time>2026-05-05T13:12:21Z</time></trkpt><trkpt lat="46.0047308263916" lon="13.548631581333888"><ele>185.0</ele><time>2026-05-05T13:12:22Z</time></trkpt><trkpt lat="46.0047383809387" lon="13.54834195564417"><ele>182.66666666666666</ele><time>2026-05-05T13:12:23Z</time></trkpt><trkpt lat="46.004753594242224" lon="13.548058553536098"><ele>180.33333333333334</ele><time>2026-05-05T13:12:24Z</time></trkpt><trkpt lat="46.00477629080527" lon="13.547807252587965"><ele>178.0</ele><time>2026-05-05T13:12:25Z</time></trkpt><trkpt lat="46.00480317110625" lon="13.547573522531154"><ele>178.0</ele><time>2026-05-05T13:12:26Z</time></trkpt><trkpt lat="46.00483246893891" lon="13.547356579153224"><ele>178.0</ele><time>2026-05-05T13:12:27Z</time></trkpt><trkpt lat="46.0048718405911" lon="13.547153160853107"><ele>178.0</ele><time>2026-05-05T13:12:28Z</time></trkpt><trkpt lat="46.00491625515118" lon="13.546960862786458"><ele>178.0</ele><time>2026-05-05T13:12:29Z</time></trkpt><trkpt lat="46.0049736266874" lon="13.546765830559549"><ele>182.66666666666669</ele><time>2026-05-05T13:12:30Z</time></trkpt><trkpt lat="46.005053121275026" lon="13.546561139092267"><ele>187.33333333333334</ele><time>2026-05-05T13:12:31Z</time></trkpt><trkpt lat="46.005149719539865" lon="13.546355541944168"><ele>192.0</ele><time>2026-05-05T13:12:32Z</time></trkpt><trkpt lat="46.005254666733755" lon="13.546132733680842"><ele>192.0</ele><time>2026-05-05T13:12:33Z</time></trkpt><trkpt lat="46.00536191110024" lon="13.545896359841032"><ele>192.0</ele><time>2026-05-05T13:12:34Z</time></trkpt><trkpt lat="46.00546795703367" lon="13.545661735958983"><ele>192.0</ele><time>2026-05-05T13:12:35Z</time></trkpt><trkpt lat="46.00558953666418" lon="13.545467500729737"><ele>193.33333333333331</ele><time>2026-05-05T13:12:36Z</time></trkpt><trkpt lat="46.00572913020387" lon="13.54532172039036"><ele>194.66666666666666</ele><time>2026-05-05T13:12:37Z</time></trkpt><trkpt lat="46.00588837617779" lon="13.545213654910194"><ele>196.0</ele><time>2026-05-05T13:12:38Z</time></trkpt><trkpt lat="46.00604507702295" lon="13.54512710348056"><ele>196.0</ele><time>2026-05-05T13:12:39Z</time></trkpt><trkpt lat="46.00619249460252" lon="13.545025774431313"><ele>196.0</ele><time>2026-05-05T13:12:40Z</time></trkpt><trkpt lat="46.0063323307411" lon="13.544898213460641"><ele>196.0</ele><time>2026-05-05T13:12:41Z</time></trkpt><trkpt lat="46.00645657904901" lon="13.544742326872248"><ele>196.0</ele><time>2026-05-05T13:12:42Z</time></trkpt><trkpt lat="46.00656271426115" lon="13.544566520010054"><ele>196.0</ele><time>2026-05-05T13:12:43Z</time></trkpt><trkpt lat="46.00665676194903" lon="13.54436736759032"><ele>196.0</ele><time>2026-05-05T13:12:44Z</time></trkpt><trkpt lat="46.006745638348164" lon="13.544170605216241"><ele>197.0</ele><time>2026-05-05T13:12:45Z</time></trkpt><trkpt lat="46.006838032365394" lon="13.544002074714763"><ele>198.0</ele><time>2026-05-05T13:12:46Z</time></trkpt><trkpt lat="46.00693210923113" lon="13.54389675933176"><ele>199.0</ele><time>2026-05-05T13:12:47Z</time></trkpt><trkpt lat="46.00705177211433" lon="13.543877523610774"><ele>200.0</ele><time>2026-05-05T13:12:48Z</time></trkpt><trkpt lat="46.00716682376545" lon="13.543836947642086"><ele>200.0</ele><time>2026-05-05T13:12:49Z</time></trkpt><trkpt lat="46.00728756336464" lon="13.543827028656859"><ele>200.0</ele><time>2026-05-05T13:12:50Z</time></trkpt><trkpt lat="46.00740933049314" lon="13.543790748413754"><ele>200.0</ele><time>2026-05-05T13:12:51Z</time></trkpt><trkpt lat="46.0075282786941" lon="13.54372864418738"><ele>200.0</ele><time>2026-05-05T13:12:52Z</time></trkpt><trkpt lat="46.00763399505573" lon="13.543639112750572"><ele>199.0</ele><time>2026-05-05T13:12:53Z</time></trkpt><trkpt lat="46.00771478361186" lon="13.543513137851205"><ele>198.0</ele><time>2026-05-05T13:12:54Z</time></trkpt><trkpt lat="46.0077698862646" lon="13.543357603286724"><ele>197.0</ele><time>2026-05-05T13:12:55Z</time></trkpt><trkpt lat="46.00779591475141" lon="13.54318138006912"><ele>196.0</ele><time>2026-05-05T13:12:56Z</time></trkpt><trkpt lat="46.00778643563335" lon="13.542998261644373"><ele>194.0</ele><time>2026-05-05T13:12:57Z</time></trkpt><trkpt lat="46.00774873698956" lon="13.542809192388463"><ele>192.0</ele><time>2026-05-05T13:12:58Z</time></trkpt><trkpt lat="46.007693519869285" lon="13.542617536082316"><ele>190.0</ele><time>2026-05-05T13:12:59Z</time></trkpt><trkpt lat="46.0076353011523" lon="13.542413700686291"><ele>188.0</ele><time>2026-05-05T13:13:00Z</time></trkpt><trkpt lat="46.00757557963588" lon="13.542206428545416"><ele>188.33333333333331</ele><time>2026-05-05T13:13:01Z</time></trkpt><trkpt lat="46.00750640206981" lon="13.542005622262746"><ele>188.66666666666666</ele><time>2026-05-05T13:13:02Z</time></trkpt><trkpt lat="46.00742572300932" lon="13.541807314756705"><ele>189.0</ele><time>2026-05-05T13:13:03Z</time></trkpt><trkpt lat="46.00733817615233" lon="13.541615841687747"><ele>189.0</ele><time>2026-05-05T13:13:04Z</time></trkpt><trkpt lat="46.00724810756091" lon="13.541444167571388"><ele>189.0</ele><time>2026-05-05T13:13:05Z</time></trkpt><trkpt lat="46.007159232919086" lon="13.54128053247736"><ele>189.0</ele><time>2026-05-05T13:13:06Z</time></trkpt><trkpt lat="46.00706473252272" lon="13.541112517508434"><ele>189.0</ele><time>2026-05-05T13:13:07Z</time></trkpt><trkpt lat="46.0069596412886" lon="13.540966628761124"><ele>185.66666666666666</ele><time>2026-05-05T13:13:08Z</time></trkpt><trkpt lat="46.006842041494934" lon="13.540835953732227"><ele>182.33333333333331</ele><time>2026-05-05T13:13:09Z</time></trkpt><trkpt lat="46.00670473651083" lon="13.540728719786891"><ele>179.0</ele><time>2026-05-05T13:13:10Z</time></trkpt><trkpt lat="46.006559690361925" lon="13.540649750259897"><ele>177.0</ele><time>2026-05-05T13:13:11Z</time></trkpt><trkpt lat="46.006419797899845" lon="13.540587415343385"><ele>175.0</ele><time>2026-05-05T13:13:12Z</time></trkpt><trkpt lat="46.00630126798588" lon="13.540484634598274"><ele>173.0</ele><time>2026-05-05T13:13:13Z</time></trkpt><trkpt lat="46.006196912422865" lon="13.540364175537198"><ele>171.0</ele><time>2026-05-05T13:13:14Z</time></trkpt><trkpt lat="46.006089322250325" lon="13.540232451042199"><ele>169.75</ele><time>2026-05-05T13:13:15Z</time></trkpt><trkpt lat="46.006018637483194" lon="13.540059144752288"><ele>168.5</ele><time>2026-05-05T13:13:16Z</time></trkpt><trkpt lat="46.005975698030646" lon="13.539856337795499"><ele>167.25</ele><time>2026-05-05T13:13:17Z</time></trkpt><trkpt lat="46.00592545235898" lon="13.539647844270139"><ele>166.0</ele><time>2026-05-05T13:13:18Z</time></trkpt><trkpt lat="46.00586818981354" lon="13.539434856098866"><ele>163.0</ele><time>2026-05-05T13:13:19Z</time></trkpt><trkpt lat="46.00582872062132" lon="13.539209127753297"><ele>160.0</ele><time>2026-05-05T13:13:20Z</time></trkpt><trkpt lat="46.00577657519662" lon="13.538986257382822"><ele>157.0</ele><time>2026-05-05T13:13:21Z</time></trkpt><trkpt lat="46.00570826770999" lon="13.538770666754937"><ele>152.66666666666669</ele><time>2026-05-05T13:13:22Z</time></trkpt><trkpt lat="46.00562832932665" lon="13.53855885860802"><ele>148.33333333333334</ele><time>2026-05-05T13:13:23Z</time></trkpt><trkpt lat="46.005535397586364" lon="13.538355486553948"><ele>144.0</ele><time>2026-05-05T13:13:24Z</time></trkpt><trkpt lat="46.00543127221421" lon="13.538158488755938"><ele>144.0</ele><time>2026-05-05T13:13:25Z</time></trkpt><trkpt lat="46.00533042372302" lon="13.53796100657755"><ele>144.0</ele><time>2026-05-05T13:13:26Z</time></trkpt><trkpt lat="46.00522785451044" lon="13.537770145891978"><ele>144.0</ele><time>2026-05-05T13:13:27Z</time></trkpt><trkpt lat="46.00510570923028" lon="13.537612305953623"><ele>143.0</ele><time>2026-05-05T13:13:28Z</time></trkpt><trkpt lat="46.004966236853875" lon="13.537503073271624"><ele>142.0</ele><time>2026-05-05T13:13:29Z</time></trkpt><trkpt lat="46.00482278848674" lon="13.537427021439687"><ele>141.0</ele><time>2026-05-05T13:13:30Z</time></trkpt><trkpt lat="46.004679575068316" lon="13.53735821948227"><ele>141.0</ele><time>2026-05-05T13:13:31Z</time></trkpt><trkpt lat="46.00455581844102" lon="13.537241170394488"><ele>141.0</ele><time>2026-05-05T13:13:32Z</time></trkpt><trkpt lat="46.0044326748545" lon="13.537126532557863"><ele>141.0</ele><time>2026-05-05T13:13:33Z</time></trkpt><trkpt lat="46.004328596476036" lon="13.536962893227326"><ele>141.0</ele><time>2026-05-05T13:13:34Z</time></trkpt><trkpt lat="46.00421449118832" lon="13.536822771279153"><ele>142.0</ele><time>2026-05-05T13:13:35Z</time></trkpt><trkpt lat="46.004084466113376" lon="13.53670722145648"><ele>143.0</ele><time>2026-05-05T13:13:36Z</time></trkpt><trkpt lat="46.00393586385296" lon="13.536616139567544"><ele>144.0</ele><time>2026-05-05T13:13:37Z</time></trkpt><trkpt lat="46.003776933021044" lon="13.536543002503013"><ele>144.0</ele><time>2026-05-05T13:13:38Z</time></trkpt><trkpt lat="46.00361172727448" lon="13.536479762063697"><ele>144.0</ele><time>2026-05-05T13:13:39Z</time></trkpt><trkpt lat="46.0034581956629" lon="13.536391709765866"><ele>144.0</ele><time>2026-05-05T13:13:40Z</time></trkpt><trkpt lat="46.00332837553864" lon="13.536277511693145"><ele>144.5</ele><time>2026-05-05T13:13:41Z</time></trkpt><trkpt lat="46.00321701178633" lon="13.536157735199815"><ele>145.0</ele><time>2026-05-05T13:13:42Z</time></trkpt><trkpt lat="46.00313227556483" lon="13.536029084553672"><ele>145.5</ele><time>2026-05-05T13:13:43Z</time></trkpt><trkpt lat="46.00305282876772" lon="13.535919828698708"><ele>146.0</ele><time>2026-05-05T13:13:44Z</time></trkpt><trkpt lat="46.0029864843155" lon="13.535809825355463"><ele>146.0</ele><time>2026-05-05T13:13:45Z</time></trkpt><trkpt lat="46.00290063288339" lon="13.535732418795341"><ele>146.0</ele><time>2026-05-05T13:13:46Z</time></trkpt><trkpt lat="46.00279794618017" lon="13.535694556472489"><ele>146.0</ele><time>2026-05-05T13:13:47Z</time></trkpt><trkpt lat="46.002691454374165" lon="13.53570542437439"><ele>146.0</ele><time>2026-05-05T13:13:48Z</time></trkpt><trkpt lat="46.00258932346828" lon="13.535761111826483"><ele>146.0</ele><time>2026-05-05T13:13:49Z</time></trkpt><trkpt lat="46.0024837344519" lon="13.535834081650366"><ele>147.25</ele><time>2026-05-05T13:13:50Z</time></trkpt><trkpt lat="46.00236571060765" lon="13.535902745540277"><ele>148.5</ele><time>2026-05-05T13:13:51Z</time></trkpt><trkpt lat="46.00223726636297" lon="13.535935659214966"><ele>149.75</ele><time>2026-05-05T13:13:52Z</time></trkpt><trkpt lat="46.002107512662484" lon="13.535954296640389"><ele>151.0</ele><time>2026-05-05T13:13:53Z</time></trkpt><trkpt lat="46.0019638995434" lon="13.53594497822846"><ele>151.0</ele><time>2026-05-05T13:13:54Z</time></trkpt><trkpt lat="46.00180768347215" lon="13.53595000935489"><ele>151.0</ele><time>2026-05-05T13:13:55Z</time></trkpt><trkpt lat="46.00164196847604" lon="13.535920908094056"><ele>151.0</ele><time>2026-05-05T13:13:56Z</time></trkpt><trkpt lat="46.00147222666518" lon="13.535897065140132"><ele>149.75</ele><time>2026-05-05T13:13:57Z</time></trkpt><trkpt lat="46.00131016813376" lon="13.535872452678547"><ele>148.5</ele><time>2026-05-05T13:13:58Z</time></trkpt><trkpt lat="46.00116708127066" lon="13.535820806994206"><ele>147.25</ele><time>2026-05-05T13:13:59Z</time></trkpt><trkpt lat="46.00104413263455" lon="13.535759169676895"><ele>146.0</ele><time>2026-05-05T13:14:00Z</time></trkpt><trkpt lat="46.00091327819981" lon="13.535671033174085"><ele>145.66666666666666</ele><time>2026-05-05T13:14:01Z</time></trkpt><trkpt lat="46.00077259759089" lon="13.535554111929446"><ele>145.33333333333334</ele><time>2026-05-05T13:14:02Z</time></trkpt><trkpt lat="46.000656848869966" lon="13.53541898045479"><ele>145.0</ele><time>2026-05-05T13:14:03Z</time></trkpt><trkpt lat="46.00054563451794" lon="13.535272029082877"><ele>145.0</ele><time>2026-05-05T13:14:04Z</time></trkpt><trkpt lat="46.00044738585555" lon="13.535120966032391"><ele>145.0</ele><time>2026-05-05T13:14:05Z</time></trkpt><trkpt lat="46.00038030965548" lon="13.534945112548176"><ele>145.0</ele><time>2026-05-05T13:14:06Z</time></trkpt><trkpt lat="46.00033517916872" lon="13.534759741031124"><ele>145.0</ele><time>2026-05-05T13:14:07Z</time></trkpt><trkpt lat="46.000293864638756" lon="13.534569697585521"><ele>144.25</ele><time>2026-05-05T13:14:08Z</time></trkpt><trkpt lat="46.00025319886334" lon="13.534378919776335"><ele>143.5</ele><time>2026-05-05T13:14:09Z</time></trkpt><trkpt lat="46.000224919331814" lon="13.534190122746995"><ele>142.75</ele><time>2026-05-05T13:14:10Z</time></trkpt><trkpt lat="46.00021979268449" lon="13.534005976683003"><ele>142.0</ele><time>2026-05-05T13:14:11Z</time></trkpt><trkpt lat="46.00024526051047" lon="13.533835091258323"><ele>139.75</ele><time>2026-05-05T13:14:12Z</time></trkpt><trkpt lat="46.00028536681492" lon="13.533670129971723"><ele>137.5</ele><time>2026-05-05T13:14:13Z</time></trkpt><trkpt lat="46.00032787191808" lon="13.533515262850031"><ele>135.25</ele><time>2026-05-05T13:14:14Z</time></trkpt><trkpt lat="46.00038431274956" lon="13.533376090838317"><ele>133.0</ele><time>2026-05-05T13:14:15Z</time></trkpt><trkpt lat="46.00046487106161" lon="13.533265993649177"><ele>133.0</ele><time>2026-05-05T13:14:16Z</time></trkpt><trkpt lat="46.0005783990981" lon="13.53320891962519"><ele>133.0</ele><time>2026-05-05T13:14:17Z</time></trkpt><trkpt lat="46.00068824137925" lon="13.533174168280086"><ele>133.0</ele><time>2026-05-05T13:14:18Z</time></trkpt><trkpt lat="46.00080041072208" lon="13.5331683903466"><ele>133.0</ele><time>2026-05-05T13:14:19Z</time></trkpt><trkpt lat="46.00091384475895" lon="13.533162839126334"><ele>134.20000000000002</ele><time>2026-05-05T13:14:20Z</time></trkpt><trkpt lat="46.00100460923577" lon="13.533102709515497"><ele>135.4</ele><time>2026-05-05T13:14:21Z</time></trkpt><trkpt lat="46.00107464006602" lon="13.532997996395249"><ele>136.60000000000002</ele><time>2026-05-05T13:14:22Z</time></trkpt><trkpt lat="46.001123613414" lon="13.532890285744527"><ele>137.8</ele><time>2026-05-05T13:14:23Z</time></trkpt><trkpt lat="46.00112337211867" lon="13.532752023291227"><ele>139.0</ele><time>2026-05-05T13:14:24Z</time></trkpt><trkpt lat="46.001086591942354" lon="13.532568714488246"><ele>136.0</ele><time>2026-05-05T13:14:25Z</time></trkpt><trkpt lat="46.001051449779126" lon="13.532411738444111"><ele>133.0</ele><time>2026-05-05T13:14:26Z</time></trkpt><trkpt lat="46.00100783193378" lon="13.532251940241355"><ele>130.0</ele><time>2026-05-05T13:14:27Z</time></trkpt><trkpt lat="46.0009524802494" lon="13.532095027450689"><ele>127.0</ele><time>2026-05-05T13:14:28Z</time></trkpt><trkpt lat="46.00088716372069" lon="13.531958517291422"><ele>124.75</ele><time>2026-05-05T13:14:29Z</time></trkpt><trkpt lat="46.00081514425655" lon="13.53183317779563"><ele>122.5</ele><time>2026-05-05T13:14:30Z</time></trkpt><trkpt lat="46.000695509781394" lon="13.531800448643718"><ele>120.25</ele><time>2026-05-05T13:14:31Z</time></trkpt><trkpt lat="46.00058092342066" lon="13.531789370419801"><ele>118.0</ele><time>2026-05-05T13:14:32Z</time></trkpt><trkpt lat="46.00045985103713" lon="13.53178542897811"><ele>118.0</ele><time>2026-05-05T13:14:33Z</time></trkpt><trkpt lat="46.00033522903939" lon="13.53176168141335"><ele>118.0</ele><time>2026-05-05T13:14:34Z</time></trkpt><trkpt lat="46.000214760243026" lon="13.531689486327862"><ele>118.0</ele><time>2026-05-05T13:14:35Z</time></trkpt><trkpt lat="46.00011520914452" lon="13.531567522131828"><ele>118.0</ele><time>2026-05-05T13:14:36Z</time></trkpt><trkpt lat="46.00002248012452" lon="13.531420660618778"><ele>118.0</ele><time>2026-05-05T13:14:37Z</time></trkpt><trkpt lat="45.999927702538365" lon="13.53125208771956"><ele>118.0</ele><time>2026-05-05T13:14:38Z</time></trkpt><trkpt lat="45.999836303779084" lon="13.531083381152174"><ele>118.0</ele><time>2026-05-05T13:14:39Z</time></trkpt><trkpt lat="45.99975044435166" lon="13.530920133064077"><ele>118.0</ele><time>2026-05-05T13:14:40Z</time></trkpt><trkpt lat="45.99967168007718" lon="13.530766075976238"><ele>117.5</ele><time>2026-05-05T13:14:41Z</time></trkpt><trkpt lat="45.99959750172661" lon="13.530620928538978"><ele>117.0</ele><time>2026-05-05T13:14:42Z</time></trkpt><trkpt lat="45.99952132325661" lon="13.530466974759362"><ele>116.5</ele><time>2026-05-05T13:14:43Z</time></trkpt><trkpt lat="45.9994586958773" lon="13.53029448094053"><ele>116.0</ele><time>2026-05-05T13:14:44Z</time></trkpt><trkpt lat="45.99937240318031" lon="13.530152905507984"><ele>116.25</ele><time>2026-05-05T13:14:45Z</time></trkpt><trkpt lat="45.99925908663817" lon="13.530030711966436"><ele>116.5</ele><time>2026-05-05T13:14:46Z</time></trkpt><trkpt lat="45.999135658623224" lon="13.529928638469015"><ele>116.75</ele><time>2026-05-05T13:14:47Z</time></trkpt><trkpt lat="45.99900046213107" lon="13.529842975995988"><ele>117.0</ele><time>2026-05-05T13:14:48Z</time></trkpt><trkpt lat="45.9988454142243" lon="13.529785659653598"><ele>117.0</ele><time>2026-05-05T13:14:49Z</time></trkpt><trkpt lat="45.99870021590697" lon="13.529738162951963"><ele>117.0</ele><time>2026-05-05T13:14:50Z</time></trkpt><trkpt lat="45.99857108341001" lon="13.529658638593725"><ele>117.0</ele><time>2026-05-05T13:14:51Z</time></trkpt><trkpt lat="45.998441550389224" lon="13.529585273276513"><ele>117.0</ele><time>2026-05-05T13:14:52Z</time></trkpt><trkpt lat="45.9983227615828" lon="13.529474802374027"><ele>118.75</ele><time>2026-05-05T13:14:53Z</time></trkpt><trkpt lat="45.9982088750384" lon="13.529351460087158"><ele>120.5</ele><time>2026-05-05T13:14:54Z</time></trkpt><trkpt lat="45.99810028926911" lon="13.529221724950858"><ele>122.25</ele><time>2026-05-05T13:14:55Z</time></trkpt><trkpt lat="45.998002105892084" lon="13.52908892094699"><ele>124.0</ele><time>2026-05-05T13:14:56Z</time></trkpt><trkpt lat="45.997922022220436" lon="13.528945999091723"><ele>124.0</ele><time>2026-05-05T13:14:57Z</time></trkpt><trkpt lat="45.99786277130629" lon="13.528792231671995"><ele>124.0</ele><time>2026-05-05T13:14:58Z</time></trkpt><trkpt lat="45.99782818448577" lon="13.528631164358139"><ele>124.0</ele><time>2026-05-05T13:14:59Z</time></trkpt><trkpt lat="45.997801385374665" lon="13.52845417980773"><ele>124.0</ele><time>2026-05-05T13:15:00Z</time></trkpt><trkpt lat="45.99777313371514" lon="13.528285410473025"><ele>123.5</ele><time>2026-05-05T13:15:01Z</time></trkpt><trkpt lat="45.997744005090155" lon="13.528110656961566"><ele>123.0</ele><time>2026-05-05T13:15:02Z</time></trkpt><trkpt lat="45.997710099130636" lon="13.527947448973213"><ele>122.5</ele><time>2026-05-05T13:15:03Z</time></trkpt><trkpt lat="45.99767763267259" lon="13.527802117545185"><ele>122.0</ele><time>2026-05-05T13:15:04Z</time></trkpt><trkpt lat="45.997639530616574" lon="13.527660990337123"><ele>121.19999999999999</ele><time>2026-05-05T13:15:05Z</time></trkpt><trkpt lat="45.99759832065096" lon="13.527520415833044"><ele>120.39999999999999</ele><time>2026-05-05T13:15:06Z</time></trkpt><trkpt lat="45.99755835803517" lon="13.527387761730733"><ele>119.60000000000001</ele><time>2026-05-05T13:15:07Z</time></trkpt><trkpt lat="45.99752832430254" lon="13.527261532852181"><ele>118.80000000000001</ele><time>2026-05-05T13:15:08Z</time></trkpt><trkpt lat="45.99751458406709" lon="13.527148839201416"><ele>118.0</ele><time>2026-05-05T13:15:09Z</time></trkpt><trkpt lat="45.997511359001074" lon="13.527034268541602"><ele>117.0</ele><time>2026-05-05T13:15:10Z</time></trkpt><trkpt lat="45.99752931811197" lon="13.5269078167995"><ele>116.00000000000001</ele><time>2026-05-05T13:15:11Z</time></trkpt><trkpt lat="45.997558591690336" lon="13.526767135246962"><ele>115.00000000000001</ele><time>2026-05-05T13:15:12Z</time></trkpt><trkpt lat="45.997597828808054" lon="13.526611146077386"><ele>114.0</ele><time>2026-05-05T13:15:13Z</time></trkpt><trkpt lat="45.99762934571381" lon="13.526425656733693"><ele>113.0</ele><time>2026-05-05T13:15:14Z</time></trkpt><trkpt lat="45.9976597386076" lon="13.526223138116523"><ele>111.33333333333333</ele><time>2026-05-05T13:15:15Z</time></trkpt><trkpt lat="45.99768729515565" lon="13.526007766303925"><ele>109.66666666666666</ele><time>2026-05-05T13:15:16Z</time></trkpt><trkpt lat="45.99771036159401" lon="13.525772436127529"><ele>108.0</ele><time>2026-05-05T13:15:17Z</time></trkpt><trkpt lat="45.997727145454434" lon="13.525526544577328"><ele>106.66666666666666</ele><time>2026-05-05T13:15:18Z</time></trkpt><trkpt lat="45.99774391112937" lon="13.525290325015115"><ele>105.33333333333333</ele><time>2026-05-05T13:15:19Z</time></trkpt><trkpt lat="45.99776027995148" lon="13.52505550651962"><ele>104.0</ele><time>2026-05-05T13:15:20Z</time></trkpt><trkpt lat="45.99777421070046" lon="13.524834855065574"><ele>104.0</ele><time>2026-05-05T13:15:21Z</time></trkpt><trkpt lat="45.99779148797971" lon="13.52463508731477"><ele>104.0</ele><time>2026-05-05T13:15:22Z</time></trkpt><trkpt lat="45.99782406923496" lon="13.52446297652371"><ele>104.0</ele><time>2026-05-05T13:15:23Z</time></trkpt><trkpt lat="45.99787711900502" lon="13.524332084254995"><ele>104.0</ele><time>2026-05-05T13:15:24Z</time></trkpt><trkpt lat="45.997951048481276" lon="13.524223105052592"><ele>104.5</ele><time>2026-05-05T13:15:25Z</time></trkpt><trkpt lat="45.99804647551475" lon="13.524130012156744"><ele>105.0</ele><time>2026-05-05T13:15:26Z</time></trkpt><trkpt lat="45.99815933383284" lon="13.524051316991608"><ele>105.5</ele><time>2026-05-05T13:15:27Z</time></trkpt><trkpt lat="45.99827701607778" lon="13.523972495232925"><ele>106.0</ele><time>2026-05-05T13:15:28Z</time></trkpt><trkpt lat="45.99839880824829" lon="13.523896735983008"><ele>103.75</ele><time>2026-05-05T13:15:29Z</time></trkpt><trkpt lat="45.99851665785325" lon="13.523816704215704"><ele>101.5</ele><time>2026-05-05T13:15:30Z</time></trkpt><trkpt lat="45.99863243485754" lon="13.523752778411167"><ele>99.25</ele><time>2026-05-05T13:15:31Z</time></trkpt><trkpt lat="45.99874963946622" lon="13.523699850014324"><ele>97.0</ele><time>2026-05-05T13:15:32Z</time></trkpt><trkpt lat="45.99887451504373" lon="13.523674399384792"><ele>97.0</ele><time>2026-05-05T13:15:33Z</time></trkpt><trkpt lat="45.99900664318785" lon="13.523670539924668"><ele>97.0</ele><time>2026-05-05T13:15:34Z</time></trkpt><trkpt lat="45.99914665001585" lon="13.523688070227937"><ele>97.0</ele><time>2026-05-05T13:15:35Z</time></trkpt><trkpt lat="45.99928739143529" lon="13.523737897790458"><ele>97.0</ele><time>2026-05-05T13:15:36Z</time></trkpt><trkpt lat="45.99942847462381" lon="13.523801235579459"><ele>95.5</ele><time>2026-05-05T13:15:37Z</time></trkpt><trkpt lat="45.99957021362842" lon="13.523865593297797"><ele>94.0</ele><time>2026-05-05T13:15:38Z</time></trkpt><trkpt lat="45.999715624887564" lon="13.523938857543401"><ele>92.5</ele><time>2026-05-05T13:15:39Z</time></trkpt><trkpt lat="45.999855100557824" lon="13.523985446470581"><ele>91.0</ele><time>2026-05-05T13:15:40Z</time></trkpt><trkpt lat="45.99999367749943" lon="13.524037439496453"><ele>91.0</ele><time>2026-05-05T13:15:41Z</time></trkpt><trkpt lat="46.00013330573818" lon="13.524085871965234"><ele>91.0</ele><time>2026-05-05T13:15:42Z</time></trkpt><trkpt lat="46.00027651819712" lon="13.524130433969114"><ele>91.0</ele><time>2026-05-05T13:15:43Z</time></trkpt><trkpt lat="46.00041071613469" lon="13.524167426812108"><ele>91.0</ele><time>2026-05-05T13:15:44Z</time></trkpt><trkpt lat="46.00054205328175" lon="13.524202775625195"><ele>91.0</ele><time>2026-05-05T13:15:45Z</time></trkpt><trkpt lat="46.000663120712524" lon="13.52423668185704"><ele>91.0</ele><time>2026-05-05T13:15:46Z</time></trkpt><trkpt lat="46.000775729710284" lon="13.524274142725336"><ele>91.0</ele><time>2026-05-05T13:15:47Z</time></trkpt><trkpt lat="46.000876321488406" lon="13.524317987795117"><ele>91.0</ele><time>2026-05-05T13:15:48Z</time></trkpt><trkpt lat="46.000964866886136" lon="13.524335624460015"><ele>91.0</ele><time>2026-05-05T13:15:49Z</time></trkpt><trkpt lat="46.00102803886998" lon="13.52442474178988"><ele>91.8</ele><time>2026-05-05T13:15:50Z</time></trkpt><trkpt lat="46.0010924386378" lon="13.524453851988447"><ele>92.6</ele><time>2026-05-05T13:15:51Z</time></trkpt><trkpt lat="46.00118276393735" lon="13.524357805648929"><ele>93.4</ele><time>2026-05-05T13:15:53Z</time></trkpt><trkpt lat="46.00115379627611" lon="13.524169128171327"><ele>94.2</ele><time>2026-05-05T13:15:55Z</time></trkpt><trkpt lat="46.001116370260284" lon="13.524047916176277"><ele>95.0</ele><time>2026-05-05T13:15:56Z</time></trkpt><trkpt lat="46.00108776221423" lon="13.523883179802029"><ele>94.33333333333334</ele><time>2026-05-05T13:15:57Z</time></trkpt><trkpt lat="46.00107209560979" lon="13.523682789241516"><ele>93.66666666666667</ele><time>2026-05-05T13:15:58Z</time></trkpt><trkpt lat="46.00106843950802" lon="13.523467907158905"><ele>93.0</ele><time>2026-05-05T13:15:59Z</time></trkpt><trkpt lat="46.0010564518211" lon="13.523234072936509"><ele>93.0</ele><time>2026-05-05T13:16:00Z</time></trkpt><trkpt lat="46.00102006975418" lon="13.522993208389854"><ele>93.0</ele><time>2026-05-05T13:16:01Z</time></trkpt><trkpt lat="46.00095200846192" lon="13.5227656234823"><ele>93.0</ele><time>2026-05-05T13:16:02Z</time></trkpt><trkpt lat="46.00084284815684" lon="13.522580620675969"><ele>92.66666666666667</ele><time>2026-05-05T13:16:03Z</time></trkpt><trkpt lat="46.0007431776906" lon="13.522385578917705"><ele>92.33333333333334</ele><time>2026-05-05T13:16:04Z</time></trkpt><trkpt lat="46.00063423416153" lon="13.522199046501818"><ele>92.0</ele><time>2026-05-05T13:16:05Z</time></trkpt><trkpt lat="46.00054178807296" lon="13.521997860155974"><ele>91.0</ele><time>2026-05-05T13:16:06Z</time></trkpt><trkpt lat="46.000475999092686" lon="13.521793527230548"><ele>90.0</ele><time>2026-05-05T13:16:07Z</time></trkpt><trkpt lat="46.00043587467251" lon="13.521580878326757"><ele>89.0</ele><time>2026-05-05T13:16:08Z</time></trkpt><trkpt lat="46.00041656117034" lon="13.521364548837372"><ele>88.33333333333334</ele><time>2026-05-05T13:16:09Z</time></trkpt><trkpt lat="46.000413518551824" lon="13.521146243363818"><ele>87.66666666666667</ele><time>2026-05-05T13:16:10Z</time></trkpt><trkpt lat="46.0004348050507" lon="13.52092943711186"><ele>87.0</ele><time>2026-05-05T13:16:11Z</time></trkpt><trkpt lat="46.00047826350034" lon="13.520709058532567"><ele>87.0</ele><time>2026-05-05T13:16:12Z</time></trkpt><trkpt lat="46.00053934723975" lon="13.520493791693534"><ele>87.0</ele><time>2026-05-05T13:16:13Z</time></trkpt><trkpt lat="46.00060753070345" lon="13.52028093102163"><ele>87.0</ele><time>2026-05-05T13:16:14Z</time></trkpt><trkpt lat="46.000680271433474" lon="13.520084107167731"><ele>87.0</ele><time>2026-05-05T13:16:15Z</time></trkpt><trkpt lat="46.00075639853001" lon="13.519895322086937"><ele>87.0</ele><time>2026-05-05T13:16:16Z</time></trkpt><trkpt lat="46.00083264052666" lon="13.519719523118995"><ele>87.0</ele><time>2026-05-05T13:16:17Z</time></trkpt><trkpt lat="46.00091222995947" lon="13.519548144389635"><ele>87.0</ele><time>2026-05-05T13:16:18Z</time></trkpt><trkpt lat="46.00099354288203" lon="13.519373603022963"><ele>87.0</ele><time>2026-05-05T13:16:19Z</time></trkpt><trkpt lat="46.00107733437266" lon="13.519196092577927"><ele>87.0</ele><time>2026-05-05T13:16:20Z</time></trkpt><trkpt lat="46.001153773064416" lon="13.519008744766433"><ele>87.0</ele><time>2026-05-05T13:16:21Z</time></trkpt><trkpt lat="46.001216900491706" lon="13.518811326687205"><ele>87.33333333333333</ele><time>2026-05-05T13:16:22Z</time></trkpt><trkpt lat="46.00126676886666" lon="13.518595602429214"><ele>87.66666666666666</ele><time>2026-05-05T13:16:23Z</time></trkpt><trkpt lat="46.00129355582227" lon="13.518368401965066"><ele>88.0</ele><time>2026-05-05T13:16:24Z</time></trkpt><trkpt lat="46.00130041132724" lon="13.518138943125418"><ele>88.0</ele><time>2026-05-05T13:16:25Z</time></trkpt><trkpt lat="46.00131408561792" lon="13.517897439527438"><ele>88.0</ele><time>2026-05-05T13:16:26Z</time></trkpt><trkpt lat="46.00132988279649" lon="13.517666387490452"><ele>88.0</ele><time>2026-05-05T13:16:27Z</time></trkpt><trkpt lat="46.00135496333026" lon="13.517427752952102"><ele>88.0</ele><time>2026-05-05T13:16:28Z</time></trkpt><trkpt lat="46.00139021005188" lon="13.517184506195347"><ele>88.0</ele><time>2026-05-05T13:16:29Z</time></trkpt><trkpt lat="46.00142949513121" lon="13.516923685029996"><ele>88.0</ele><time>2026-05-05T13:16:30Z</time></trkpt><trkpt lat="46.00146872744098" lon="13.516656703291622"><ele>87.66666666666666</ele><time>2026-05-05T13:16:31Z</time></trkpt><trkpt lat="46.00150955306643" lon="13.516373440201903"><ele>87.33333333333333</ele><time>2026-05-05T13:16:32Z</time></trkpt><trkpt lat="46.00154809922558" lon="13.51608291808183"><ele>87.0</ele><time>2026-05-05T13:16:33Z</time></trkpt><trkpt lat="46.00157581089158" lon="13.515810610941806"><ele>86.66666666666667</ele><time>2026-05-05T13:16:34Z</time></trkpt><trkpt lat="46.00158376347769" lon="13.51555941456669"><ele>86.33333333333334</ele><time>2026-05-05T13:16:35Z</time></trkpt><trkpt lat="46.0015788700232" lon="13.51532641033729"><ele>86.0</ele><time>2026-05-05T13:16:36Z</time></trkpt><trkpt lat="46.00158429206187" lon="13.51512484918702"><ele>85.75</ele><time>2026-05-05T13:16:37Z</time></trkpt><trkpt lat="46.00162724221064" lon="13.514948676711473"><ele>85.5</ele><time>2026-05-05T13:16:38Z</time></trkpt><trkpt lat="46.00170478345045" lon="13.514804132192781"><ele>85.25</ele><time>2026-05-05T13:16:39Z</time></trkpt><trkpt lat="46.00181004641092" lon="13.514668215675508"><ele>85.0</ele><time>2026-05-05T13:16:40Z</time></trkpt><trkpt lat="46.00192672094215" lon="13.514555611230282"><ele>85.0</ele><time>2026-05-05T13:16:41Z</time></trkpt><trkpt lat="46.00204113604652" lon="13.514426433881614"><ele>85.0</ele><time>2026-05-05T13:16:42Z</time></trkpt><trkpt lat="46.002138711184834" lon="13.514257532067843"><ele>85.0</ele><time>2026-05-05T13:16:43Z</time></trkpt><trkpt lat="46.00222130230357" lon="13.514045085384515"><ele>85.0</ele><time>2026-05-05T13:16:44Z</time></trkpt><trkpt lat="46.00230076935234" lon="13.513807960252498"><ele>85.0</ele><time>2026-05-05T13:16:45Z</time></trkpt><trkpt lat="46.002384212348026" lon="13.513568173077005"><ele>85.0</ele><time>2026-05-05T13:16:46Z</time></trkpt><trkpt lat="46.00246904922947" lon="13.51332110675583"><ele>85.0</ele><time>2026-05-05T13:16:47Z</time></trkpt><trkpt lat="46.00252935398105" lon="13.513065183971033"><ele>85.0</ele><time>2026-05-05T13:16:48Z</time></trkpt><trkpt lat="46.002560878040356" lon="13.512799422600915"><ele>85.0</ele><time>2026-05-05T13:16:49Z</time></trkpt><trkpt lat="46.00257445196931" lon="13.512538474130183"><ele>84.33333333333333</ele><time>2026-05-05T13:16:50Z</time></trkpt><trkpt lat="46.00259584123461" lon="13.512305009245612"><ele>83.66666666666667</ele><time>2026-05-05T13:16:51Z</time></trkpt><trkpt lat="46.00264434229494" lon="13.512089264563603"><ele>83.0</ele><time>2026-05-05T13:16:52Z</time></trkpt><trkpt lat="46.00271899043248" lon="13.511882078061321"><ele>83.0</ele><time>2026-05-05T13:16:53Z</time></trkpt><trkpt lat="46.0028218722735" lon="13.511682800509426"><ele>83.0</ele><time>2026-05-05T13:16:54Z</time></trkpt><trkpt lat="46.00293710887354" lon="13.511495292108865"><ele>83.0</ele><time>2026-05-05T13:16:55Z</time></trkpt><trkpt lat="46.00304846238828" lon="13.511316323055206"><ele>83.33333333333334</ele><time>2026-05-05T13:16:56Z</time></trkpt><trkpt lat="46.00316583714263" lon="13.511129027781951"><ele>83.66666666666667</ele><time>2026-05-05T13:16:57Z</time></trkpt><trkpt lat="46.00328279573996" lon="13.51093798962432"><ele>84.0</ele><time>2026-05-05T13:16:58Z</time></trkpt><trkpt lat="46.00340558025175" lon="13.510728583808305"><ele>85.0</ele><time>2026-05-05T13:16:59Z</time></trkpt><trkpt lat="46.0035122197131" lon="13.510527082543495"><ele>86.0</ele><time>2026-05-05T13:17:00Z</time></trkpt><trkpt lat="46.00359897177149" lon="13.510322151689136"><ele>87.0</ele><time>2026-05-05T13:17:01Z</time></trkpt><trkpt lat="46.003656442554494" lon="13.51009744764793"><ele>87.0</ele><time>2026-05-05T13:17:02Z</time></trkpt><trkpt lat="46.00367855906716" lon="13.509870887997423"><ele>87.0</ele><time>2026-05-05T13:17:03Z</time></trkpt><trkpt lat="46.00366565279359" lon="13.509642506506951"><ele>87.0</ele><time>2026-05-05T13:17:04Z</time></trkpt><trkpt lat="46.003625663876434" lon="13.509409740719319"><ele>87.0</ele><time>2026-05-05T13:17:05Z</time></trkpt><trkpt lat="46.00355751986279" lon="13.509191798287999"><ele>87.0</ele><time>2026-05-05T13:17:06Z</time></trkpt><trkpt lat="46.00346792447416" lon="13.508988766077115"><ele>87.0</ele><time>2026-05-05T13:17:07Z</time></trkpt><trkpt lat="46.003369776908805" lon="13.508797180300556"><ele>86.0</ele><time>2026-05-05T13:17:08Z</time></trkpt><trkpt lat="46.00326118751415" lon="13.508612941287195"><ele>85.0</ele><time>2026-05-05T13:17:09Z</time></trkpt><trkpt lat="46.00314151655728" lon="13.508441677008802"><ele>84.0</ele><time>2026-05-05T13:17:10Z</time></trkpt><trkpt lat="46.003020161902384" lon="13.508261270766434"><ele>84.0</ele><time>2026-05-05T13:17:11Z</time></trkpt><trkpt lat="46.00291620639201" lon="13.508075091735384"><ele>84.0</ele><time>2026-05-05T13:17:12Z</time></trkpt><trkpt lat="46.00283526110086" lon="13.507892088613994"><ele>84.0</ele><time>2026-05-05T13:17:13Z</time></trkpt><trkpt lat="46.00279702382736" lon="13.507704467501076"><ele>83.75</ele><time>2026-05-05T13:17:14Z</time></trkpt><trkpt lat="46.002812634195635" lon="13.507518216257788"><ele>83.5</ele><time>2026-05-05T13:17:15Z</time></trkpt><trkpt lat="46.00282843333837" lon="13.507343216345342"><ele>83.25</ele><time>2026-05-05T13:17:16Z</time></trkpt><trkpt lat="46.00288595991968" lon="13.507157266890681"><ele>83.0</ele><time>2026-05-05T13:17:17Z</time></trkpt><trkpt lat="46.002955904848676" lon="13.50696419954802"><ele>82.66666666666667</ele><time>2026-05-05T13:17:18Z</time></trkpt><trkpt lat="46.00303680226122" lon="13.506762305850536"><ele>82.33333333333333</ele><time>2026-05-05T13:17:19Z</time></trkpt><trkpt lat="46.00311562999791" lon="13.506551662969542"><ele>82.0</ele><time>2026-05-05T13:17:20Z</time></trkpt><trkpt lat="46.0031736344165" lon="13.506341664899521"><ele>81.33333333333333</ele><time>2026-05-05T13:17:21Z</time></trkpt><trkpt lat="46.003189061462514" lon="13.506122607671067"><ele>80.66666666666667</ele><time>2026-05-05T13:17:22Z</time></trkpt><trkpt lat="46.00317159887586" lon="13.50589305792625"><ele>80.0</ele><time>2026-05-05T13:17:23Z</time></trkpt><trkpt lat="46.00314651866826" lon="13.505658278885333"><ele>80.0</ele><time>2026-05-05T13:17:24Z</time></trkpt><trkpt lat="46.00313297249727" lon="13.505425313867894"><ele>80.0</ele><time>2026-05-05T13:17:25Z</time></trkpt><trkpt lat="46.00311603624849" lon="13.505178605315454"><ele>80.0</ele><time>2026-05-05T13:17:26Z</time></trkpt><trkpt lat="46.00309613908352" lon="13.50491986182278"><ele>80.0</ele><time>2026-05-05T13:17:27Z</time></trkpt><trkpt lat="46.003078823672354" lon="13.504678186560891"><ele>80.0</ele><time>2026-05-05T13:17:28Z</time></trkpt><trkpt lat="46.003070881533574" lon="13.504463699355599"><ele>80.0</ele><time>2026-05-05T13:17:29Z</time></trkpt><trkpt lat="46.003083464998916" lon="13.504268514235338"><ele>80.5</ele><time>2026-05-05T13:17:30Z</time></trkpt><trkpt lat="46.00313097154633" lon="13.504094712834481"><ele>81.0</ele><time>2026-05-05T13:17:31Z</time></trkpt><trkpt lat="46.003212876112116" lon="13.503955333906346"><ele>81.5</ele><time>2026-05-05T13:17:32Z</time></trkpt><trkpt lat="46.00332494217276" lon="13.503858303766203"><ele>82.0</ele><time>2026-05-05T13:17:33Z</time></trkpt><trkpt lat="46.00345928915861" lon="13.503773386956224"><ele>82.66666666666666</ele><time>2026-05-05T13:17:34Z</time></trkpt><trkpt lat="46.00361382042322" lon="13.503683734974738"><ele>83.33333333333333</ele><time>2026-05-05T13:17:35Z</time></trkpt><trkpt lat="46.003777303925986" lon="13.503583876413542"><ele>84.0</ele><time>2026-05-05T13:17:36Z</time></trkpt><trkpt lat="46.003944016382135" lon="13.503477046098954"><ele>84.0</ele><time>2026-05-05T13:17:37Z</time></trkpt><trkpt lat="46.004113396370975" lon="13.503369067395566"><ele>84.0</ele><time>2026-05-05T13:17:38Z</time></trkpt><trkpt lat="46.00427143065369" lon="13.5032842188762"><ele>84.0</ele><time>2026-05-05T13:17:39Z</time></trkpt><trkpt lat="46.00442046097277" lon="13.503214999398484"><ele>84.25</ele><time>2026-05-05T13:17:40Z</time></trkpt><trkpt lat="46.004567369484306" lon="13.503155692239192"><ele>84.5</ele><time>2026-05-05T13:17:41Z</time></trkpt><trkpt lat="46.004710613871914" lon="13.503102328782552"><ele>84.75</ele><time>2026-05-05T13:17:42Z</time></trkpt><trkpt lat="46.00485364865421" lon="13.503047050675528"><ele>85.0</ele><time>2026-05-05T13:17:43Z</time></trkpt><trkpt lat="46.00499285580915" lon="13.50299765175783"><ele>85.25</ele><time>2026-05-05T13:17:44Z</time></trkpt><trkpt lat="46.0051255850632" lon="13.502942364331863"><ele>85.5</ele><time>2026-05-05T13:17:45Z</time></trkpt><trkpt lat="46.005254847538055" lon="13.502861117841064"><ele>85.75</ele><time>2026-05-05T13:17:46Z</time></trkpt><trkpt lat="46.00536584324658" lon="13.50274540677987"><ele>86.0</ele><time>2026-05-05T13:17:47Z</time></trkpt><trkpt lat="46.005445323971415" lon="13.502604213249887"><ele>86.19999999999999</ele><time>2026-05-05T13:17:48Z</time></trkpt><trkpt lat="46.00550368727169" lon="13.502469277243373"><ele>86.39999999999999</ele><time>2026-05-05T13:17:49Z</time></trkpt><trkpt lat="46.00554070891936" lon="13.50233709469054"><ele>86.6</ele><time>2026-05-05T13:17:50Z</time></trkpt><trkpt lat="46.005551985165816" lon="13.502219722912953"><ele>86.8</ele><time>2026-05-05T13:17:51Z</time></trkpt><trkpt lat="46.00550843467401" lon="13.502078601414892"><ele>87.0</ele><time>2026-05-05T13:17:53Z</time></trkpt><trkpt lat="46.00545529100537" lon="13.502021423528992"><ele>87.0</ele><time>2026-05-05T13:17:54Z</time></trkpt><trkpt lat="46.005371695659" lon="13.501962761194637"><ele>87.0</ele><time>2026-05-05T13:17:55Z</time></trkpt><trkpt lat="46.005259370523454" lon="13.501892648115911"><ele>87.0</ele><time>2026-05-05T13:17:56Z</time></trkpt><trkpt lat="46.005130729588" lon="13.501809760645177"><ele>87.0</ele><time>2026-05-05T13:17:57Z</time></trkpt><trkpt lat="46.004983395920945" lon="13.50171457118409"><ele>87.0</ele><time>2026-05-05T13:17:58Z</time></trkpt><trkpt lat="46.00481112911143" lon="13.501611864915192"><ele>87.0</ele><time>2026-05-05T13:17:59Z</time></trkpt><trkpt lat="46.004619292365106" lon="13.50150690136297"><ele>87.0</ele><time>2026-05-05T13:18:00Z</time></trkpt><trkpt lat="46.00441771166629" lon="13.501376223385924"><ele>88.5</ele><time>2026-05-05T13:18:01Z</time></trkpt><trkpt lat="46.00421205726548" lon="13.50120971431147"><ele>90.0</ele><time>2026-05-05T13:18:02Z</time></trkpt><trkpt lat="46.00400897359846" lon="13.501041325208181"><ele>88.0</ele><time>2026-05-05T13:18:03Z</time></trkpt><trkpt lat="46.003805599669526" lon="13.500908415729773"><ele>86.0</ele><time>2026-05-05T13:18:04Z</time></trkpt><trkpt lat="46.00362713356335" lon="13.5008135495829"><ele>84.0</ele><time>2026-05-05T13:18:05Z</time></trkpt><trkpt lat="46.003475259534866" lon="13.500721284838571"><ele>84.0</ele><time>2026-05-05T13:18:06Z</time></trkpt><trkpt lat="46.00334097965545" lon="13.500618225375772"><ele>84.0</ele><time>2026-05-05T13:18:07Z</time></trkpt><trkpt lat="46.00322094100239" lon="13.500496732793863"><ele>84.0</ele><time>2026-05-05T13:18:08Z</time></trkpt><trkpt lat="46.003115232436855" lon="13.50035559452134"><ele>84.0</ele><time>2026-05-05T13:18:09Z</time></trkpt><trkpt lat="46.00303000634361" lon="13.50019613780289"><ele>82.66666666666667</ele><time>2026-05-05T13:18:10Z</time></trkpt><trkpt lat="46.002948605152554" lon="13.499998019018342"><ele>81.33333333333334</ele><time>2026-05-05T13:18:11Z</time></trkpt><trkpt lat="46.00287375613998" lon="13.499758775407466"><ele>80.0</ele><time>2026-05-05T13:18:12Z</time></trkpt><trkpt lat="46.00279878119203" lon="13.49949817845624"><ele>80.0</ele><time>2026-05-05T13:18:13Z</time></trkpt><trkpt lat="46.002715744396895" lon="13.499209809192015"><ele>80.0</ele><time>2026-05-05T13:18:14Z</time></trkpt><trkpt lat="46.002626877743985" lon="13.49891068747579"><ele>80.0</ele><time>2026-05-05T13:18:15Z</time></trkpt><trkpt lat="46.0025296715674" lon="13.49858372945438"><ele>79.0</ele><time>2026-05-05T13:18:16Z</time></trkpt><trkpt lat="46.00243101556653" lon="13.498238337913078"><ele>78.0</ele><time>2026-05-05T13:18:17Z</time></trkpt><trkpt lat="46.00233419336122" lon="13.497892951990394"><ele>77.5</ele><time>2026-05-05T13:18:18Z</time></trkpt><trkpt lat="46.00223919604981" lon="13.497547135698099"><ele>77.0</ele><time>2026-05-05T13:18:19Z</time></trkpt><trkpt lat="46.00214371499847" lon="13.497206128624565"><ele>77.0</ele><time>2026-05-05T13:18:20Z</time></trkpt><trkpt lat="46.00205094114391" lon="13.496871115993228"><ele>77.0</ele><time>2026-05-05T13:18:21Z</time></trkpt><trkpt lat="46.00195865620356" lon="13.496551128934541"><ele>77.0</ele><time>2026-05-05T13:18:22Z</time></trkpt><trkpt lat="46.00187617258738" lon="13.49625426428665"><ele>77.0</ele><time>2026-05-05T13:18:23Z</time></trkpt><trkpt lat="46.00180374793699" lon="13.495995856060997"><ele>77.0</ele><time>2026-05-05T13:18:24Z</time></trkpt><trkpt lat="46.001745642479335" lon="13.495782084319483"><ele>77.25</ele><time>2026-05-05T13:18:25Z</time></trkpt><trkpt lat="46.00169696628764" lon="13.495585860248761"><ele>77.5</ele><time>2026-05-05T13:18:26Z</time></trkpt><trkpt lat="46.00167193762954" lon="13.495391122541895"><ele>77.75</ele><time>2026-05-05T13:18:27Z</time></trkpt><trkpt lat="46.00168808604827" lon="13.495194602521636"><ele>78.0</ele><time>2026-05-05T13:18:28Z</time></trkpt><trkpt lat="46.00174052592034" lon="13.494993608411962"><ele>78.33333333333333</ele><time>2026-05-05T13:18:29Z</time></trkpt><trkpt lat="46.00179915232556" lon="13.494782847101993"><ele>78.66666666666666</ele><time>2026-05-05T13:18:30Z</time></trkpt><trkpt lat="46.001830658538374" lon="13.494539393706013"><ele>79.0</ele><time>2026-05-05T13:18:31Z</time></trkpt><trkpt lat="46.00182594568593" lon="13.494266327740426"><ele>79.0</ele><time>2026-05-05T13:18:32Z</time></trkpt><trkpt lat="46.00181291628042" lon="13.49397667396154"><ele>79.0</ele><time>2026-05-05T13:18:33Z</time></trkpt><trkpt lat="46.001810971528286" lon="13.493679230815673"><ele>79.0</ele><time>2026-05-05T13:18:34Z</time></trkpt><trkpt lat="46.00182077106893" lon="13.493369094137103"><ele>79.0</ele><time>2026-05-05T13:18:35Z</time></trkpt><trkpt lat="46.001838290698366" lon="13.493065598468732"><ele>79.0</ele><time>2026-05-05T13:18:36Z</time></trkpt><trkpt lat="46.00185028945891" lon="13.492754769286082"><ele>79.0</ele><time>2026-05-05T13:18:37Z</time></trkpt><trkpt lat="46.001848144537355" lon="13.492472842730557"><ele>79.33333333333333</ele><time>2026-05-05T13:18:38Z</time></trkpt><trkpt lat="46.00185990258013" lon="13.492192214276832"><ele>79.66666666666667</ele><time>2026-05-05T13:18:39Z</time></trkpt><trkpt lat="46.00189430406003" lon="13.491899630601752"><ele>80.0</ele><time>2026-05-05T13:18:40Z</time></trkpt><trkpt lat="46.00194500632848" lon="13.49159869584821"><ele>79.0</ele><time>2026-05-05T13:18:41Z</time></trkpt><trkpt lat="46.00199412975865" lon="13.491286260286467"><ele>78.0</ele><time>2026-05-05T13:18:42Z</time></trkpt><trkpt lat="46.00204077820178" lon="13.49098776035579"><ele>77.0</ele><time>2026-05-05T13:18:43Z</time></trkpt><trkpt lat="46.002085973452374" lon="13.490702380468624"><ele>77.0</ele><time>2026-05-05T13:18:44Z</time></trkpt><trkpt lat="46.002126561248986" lon="13.490433494822803"><ele>77.0</ele><time>2026-05-05T13:18:45Z</time></trkpt><trkpt lat="46.00216590683334" lon="13.490162186786716"><ele>77.0</ele><time>2026-05-05T13:18:46Z</time></trkpt><trkpt lat="46.002215752021904" lon="13.489888013486286"><ele>77.0</ele><time>2026-05-05T13:18:47Z</time></trkpt><trkpt lat="46.00229317591926" lon="13.489625508170096"><ele>77.0</ele><time>2026-05-05T13:18:48Z</time></trkpt><trkpt lat="46.002386220194595" lon="13.489380945277615"><ele>77.0</ele><time>2026-05-05T13:18:49Z</time></trkpt><trkpt lat="46.002471514027704" lon="13.489141429933676"><ele>77.33333333333334</ele><time>2026-05-05T13:18:50Z</time></trkpt><trkpt lat="46.00253748471259" lon="13.4888897986394"><ele>77.66666666666667</ele><time>2026-05-05T13:18:51Z</time></trkpt><trkpt lat="46.00258441984417" lon="13.488620185557652"><ele>78.0</ele><time>2026-05-05T13:18:52Z</time></trkpt><trkpt lat="46.00262526249069" lon="13.488350271373983"><ele>78.0</ele><time>2026-05-05T13:18:53Z</time></trkpt><trkpt lat="46.002679142721504" lon="13.488081451027924"><ele>78.0</ele><time>2026-05-05T13:18:54Z</time></trkpt><trkpt lat="46.002756928554014" lon="13.487834743810032"><ele>78.0</ele><time>2026-05-05T13:18:55Z</time></trkpt><trkpt lat="46.002853521516464" lon="13.487598996974521"><ele>77.0</ele><time>2026-05-05T13:18:56Z</time></trkpt><trkpt lat="46.002968285547226" lon="13.487370573023581"><ele>76.0</ele><time>2026-05-05T13:18:57Z</time></trkpt><trkpt lat="46.003095487955406" lon="13.487148142463777"><ele>75.0</ele><time>2026-05-05T13:18:58Z</time></trkpt><trkpt lat="46.00323363749203" lon="13.486936418207609"><ele>76.0</ele><time>2026-05-05T13:18:59Z</time></trkpt><trkpt lat="46.00337239043901" lon="13.486746971694629"><ele>77.0</ele><time>2026-05-05T13:19:00Z</time></trkpt><trkpt lat="46.00349313341834" lon="13.486565318510966"><ele>78.0</ele><time>2026-05-05T13:19:01Z</time></trkpt><trkpt lat="46.00360420166492" lon="13.4863566912542"><ele>77.0</ele><time>2026-05-05T13:19:02Z</time></trkpt><trkpt lat="46.0036972618457" lon="13.486126446410328"><ele>76.0</ele><time>2026-05-05T13:19:03Z</time></trkpt><trkpt lat="46.00376720446219" lon="13.48588357670944"><ele>75.0</ele><time>2026-05-05T13:19:04Z</time></trkpt><trkpt lat="46.00381590658219" lon="13.485635633948348"><ele>74.33333333333333</ele><time>2026-05-05T13:19:05Z</time></trkpt><trkpt lat="46.00387377249481" lon="13.485386246926277"><ele>73.66666666666666</ele><time>2026-05-05T13:19:06Z</time></trkpt><trkpt lat="46.003944886422026" lon="13.485132096035139"><ele>73.0</ele><time>2026-05-05T13:19:07Z</time></trkpt><trkpt lat="46.00402527715254" lon="13.484877904747474"><ele>73.0</ele><time>2026-05-05T13:19:08Z</time></trkpt><trkpt lat="46.004110530114495" lon="13.484636518291397"><ele>73.0</ele><time>2026-05-05T13:19:09Z</time></trkpt><trkpt lat="46.00419645411157" lon="13.484424382160038"><ele>73.0</ele><time>2026-05-05T13:19:10Z</time></trkpt><trkpt lat="46.004291690032694" lon="13.484243998346853"><ele>73.0</ele><time>2026-05-05T13:19:11Z</time></trkpt><trkpt lat="46.004394408649375" lon="13.484084256655102"><ele>73.0</ele><time>2026-05-05T13:19:12Z</time></trkpt><trkpt lat="46.00448937380333" lon="13.483903156629781"><ele>73.0</ele><time>2026-05-05T13:19:13Z</time></trkpt><trkpt lat="46.004548906010555" lon="13.483721083772593"><ele>73.0</ele><time>2026-05-05T13:19:14Z</time></trkpt><trkpt lat="46.00458358597903" lon="13.483538323804305"><ele>73.0</ele><time>2026-05-05T13:19:15Z</time></trkpt><trkpt lat="46.00459575014894" lon="13.483343752845162"><ele>73.0</ele><time>2026-05-05T13:19:16Z</time></trkpt><trkpt lat="46.004587361115284" lon="13.483122842369486"><ele>73.0</ele><time>2026-05-05T13:19:17Z</time></trkpt><trkpt lat="46.00457281537368" lon="13.482883409111823"><ele>73.0</ele><time>2026-05-05T13:19:18Z</time></trkpt><trkpt lat="46.004557669120125" lon="13.482637996362154"><ele>73.0</ele><time>2026-05-05T13:19:19Z</time></trkpt><trkpt lat="46.00454952131965" lon="13.482377685712866"><ele>73.0</ele><time>2026-05-05T13:19:20Z</time></trkpt><trkpt lat="46.00453905460518" lon="13.482111716559773"><ele>73.0</ele><time>2026-05-05T13:19:21Z</time></trkpt><trkpt lat="46.004529813039014" lon="13.481863069284552"><ele>73.0</ele><time>2026-05-05T13:19:22Z</time></trkpt><trkpt lat="46.00452088071444" lon="13.481634789683302"><ele>73.0</ele><time>2026-05-05T13:19:23Z</time></trkpt><trkpt lat="46.00450956980977" lon="13.481431035073012"><ele>73.0</ele><time>2026-05-05T13:19:24Z</time></trkpt><trkpt lat="46.00450602251724" lon="13.481251120198321"><ele>73.0</ele><time>2026-05-05T13:19:25Z</time></trkpt><trkpt lat="46.00450890870771" lon="13.481079685368977"><ele>73.0</ele><time>2026-05-05T13:19:26Z</time></trkpt><trkpt lat="46.00452234334236" lon="13.480914417823294"><ele>73.0</ele><time>2026-05-05T13:19:27Z</time></trkpt><trkpt lat="46.00453955569521" lon="13.480742730385641"><ele>73.0</ele><time>2026-05-05T13:19:28Z</time></trkpt><trkpt lat="46.00455221005899" lon="13.48057707572434"><ele>73.0</ele><time>2026-05-05T13:19:29Z</time></trkpt><trkpt lat="46.00454781625275" lon="13.48039626260701"><ele>73.0</ele><time>2026-05-05T13:19:30Z</time></trkpt><trkpt lat="46.004525497175464" lon="13.48018204654563"><ele>73.0</ele><time>2026-05-05T13:19:31Z</time></trkpt><trkpt lat="46.00449458809958" lon="13.47993879926372"><ele>73.0</ele><time>2026-05-05T13:19:32Z</time></trkpt><trkpt lat="46.00444538650305" lon="13.479670409578498"><ele>73.0</ele><time>2026-05-05T13:19:33Z</time></trkpt><trkpt lat="46.00439147622816" lon="13.479407782910114"><ele>73.0</ele><time>2026-05-05T13:19:34Z</time></trkpt><trkpt lat="46.004346535575365" lon="13.47916366121188"><ele>73.0</ele><time>2026-05-05T13:19:35Z</time></trkpt><trkpt lat="46.0043144300569" lon="13.478940334608657"><ele>73.0</ele><time>2026-05-05T13:19:36Z</time></trkpt><trkpt lat="46.00429629705335" lon="13.478726232617966"><ele>73.0</ele><time>2026-05-05T13:19:37Z</time></trkpt><trkpt lat="46.00429019617202" lon="13.47850764839914"><ele>73.25</ele><time>2026-05-05T13:19:38Z</time></trkpt><trkpt lat="46.004281336240346" lon="13.478299881636133"><ele>73.5</ele><time>2026-05-05T13:19:39Z</time></trkpt><trkpt lat="46.00426257143438" lon="13.478092992479002"><ele>73.75</ele><time>2026-05-05T13:19:40Z</time></trkpt><trkpt lat="46.00421943991718" lon="13.477901195282774"><ele>74.0</ele><time>2026-05-05T13:19:41Z</time></trkpt><trkpt lat="46.004149357901255" lon="13.47772788361048"><ele>73.25</ele><time>2026-05-05T13:19:42Z</time></trkpt><trkpt lat="46.00407561206383" lon="13.477551680141415"><ele>72.5</ele><time>2026-05-05T13:19:43Z</time></trkpt><trkpt lat="46.00401331657224" lon="13.477391599461903"><ele>71.75</ele><time>2026-05-05T13:19:44Z</time></trkpt><trkpt lat="46.00394998964006" lon="13.477232600234874"><ele>71.0</ele><time>2026-05-05T13:19:45Z</time></trkpt><trkpt lat="46.00388388123435" lon="13.477075213271725"><ele>71.0</ele><time>2026-05-05T13:19:46Z</time></trkpt><trkpt lat="46.003819899921304" lon="13.476898484464856"><ele>71.0</ele><time>2026-05-05T13:19:47Z</time></trkpt><trkpt lat="46.003767036821515" lon="13.476697682582024"><ele>71.0</ele><time>2026-05-05T13:19:48Z</time></trkpt><trkpt lat="46.00373583137091" lon="13.476477200006151"><ele>71.0</ele><time>2026-05-05T13:19:49Z</time></trkpt><trkpt lat="46.00372685820245" lon="13.476257739950027"><ele>71.0</ele><time>2026-05-05T13:19:50Z</time></trkpt><trkpt lat="46.0037427739883" lon="13.476010230712461"><ele>71.0</ele><time>2026-05-05T13:19:51Z</time></trkpt><trkpt lat="46.00376165093911" lon="13.475772344109693"><ele>71.0</ele><time>2026-05-05T13:19:52Z</time></trkpt><trkpt lat="46.00377665255918" lon="13.475495358078678"><ele>71.0</ele><time>2026-05-05T13:19:53Z</time></trkpt><trkpt lat="46.00378438529272" lon="13.475198314914685"><ele>71.0</ele><time>2026-05-05T13:19:54Z</time></trkpt><trkpt lat="46.00379589021581" lon="13.4748952573688"><ele>71.0</ele><time>2026-05-05T13:19:55Z</time></trkpt><trkpt lat="46.00380391858782" lon="13.47457001748896"><ele>71.0</ele><time>2026-05-05T13:19:56Z</time></trkpt><trkpt lat="46.00381160907036" lon="13.474245748689809"><ele>71.0</ele><time>2026-05-05T13:19:57Z</time></trkpt><trkpt lat="46.00382217916395" lon="13.473944918671409"><ele>71.0</ele><time>2026-05-05T13:19:58Z</time></trkpt><trkpt lat="46.00383620839402" lon="13.473653204770462"><ele>71.0</ele><time>2026-05-05T13:19:59Z</time></trkpt><trkpt lat="46.003849263914894" lon="13.473373487599293"><ele>71.0</ele><time>2026-05-05T13:20:00Z</time></trkpt><trkpt lat="46.00386442913121" lon="13.473094702350432"><ele>71.0</ele><time>2026-05-05T13:20:01Z</time></trkpt><trkpt lat="46.003876615189846" lon="13.47281487349581"><ele>70.66666666666667</ele><time>2026-05-05T13:20:02Z</time></trkpt><trkpt lat="46.00389400902135" lon="13.47254473457393"><ele>70.33333333333333</ele><time>2026-05-05T13:20:03Z</time></trkpt><trkpt lat="46.00391272834148" lon="13.472261255543836"><ele>70.0</ele><time>2026-05-05T13:20:04Z</time></trkpt><trkpt lat="46.00392386588769" lon="13.471993818327942"><ele>69.33333333333333</ele><time>2026-05-05T13:20:05Z</time></trkpt><trkpt lat="46.00393942944033" lon="13.471724934812148"><ele>68.66666666666667</ele><time>2026-05-05T13:20:06Z</time></trkpt><trkpt lat="46.00395592926396" lon="13.471469640869273"><ele>68.0</ele><time>2026-05-05T13:20:07Z</time></trkpt><trkpt lat="46.00398462687109" lon="13.471232154905483"><ele>67.66666666666667</ele><time>2026-05-05T13:20:08Z</time></trkpt><trkpt lat="46.00402335940709" lon="13.471008165772254"><ele>67.33333333333333</ele><time>2026-05-05T13:20:09Z</time></trkpt><trkpt lat="46.00405485308268" lon="13.470786021880132"><ele>67.0</ele><time>2026-05-05T13:20:10Z</time></trkpt><trkpt lat="46.00407199894506" lon="13.470564621418017"><ele>67.5</ele><time>2026-05-05T13:20:11Z</time></trkpt><trkpt lat="46.00407236181679" lon="13.470356585811519"><ele>68.0</ele><time>2026-05-05T13:20:12Z</time></trkpt><trkpt lat="46.00404553053587" lon="13.47015246784953"><ele>68.5</ele><time>2026-05-05T13:20:13Z</time></trkpt><trkpt lat="46.00400517711384" lon="13.469963809416752"><ele>69.0</ele><time>2026-05-05T13:20:14Z</time></trkpt><trkpt lat="46.003947140781726" lon="13.469789543959513"><ele>69.0</ele><time>2026-05-05T13:20:15Z</time></trkpt><trkpt lat="46.0038760722865" lon="13.469609083301588"><ele>69.0</ele><time>2026-05-05T13:20:16Z</time></trkpt><trkpt lat="46.00380349769058" lon="13.469437410147636"><ele>69.0</ele><time>2026-05-05T13:20:17Z</time></trkpt><trkpt lat="46.003721632849654" lon="13.469264207850902"><ele>69.0</ele><time>2026-05-05T13:20:18Z</time></trkpt><trkpt lat="46.003646074852256" lon="13.469103051277203"><ele>69.2</ele><time>2026-05-05T13:20:19Z</time></trkpt><trkpt lat="46.00357662646168" lon="13.468960421159624"><ele>69.4</ele><time>2026-05-05T13:20:20Z</time></trkpt><trkpt lat="46.00350749352544" lon="13.468845881356897"><ele>69.6</ele><time>2026-05-05T13:20:21Z</time></trkpt><trkpt lat="46.003468255707745" lon="13.468718570401176"><ele>69.8</ele><time>2026-05-05T13:20:22Z</time></trkpt><trkpt lat="46.00342172513424" lon="13.46861505077384"><ele>70.0</ele><time>2026-05-05T13:20:23Z</time></trkpt><trkpt lat="46.00341129167589" lon="13.468495489167436"><ele>70.4</ele><time>2026-05-05T13:20:24Z</time></trkpt><trkpt lat="46.0034121538314" lon="13.4683896429892"><ele>70.8</ele><time>2026-05-05T13:20:25Z</time></trkpt><trkpt lat="46.00338493795901" lon="13.468283253817072"><ele>71.2</ele><time>2026-05-05T13:20:27Z</time></trkpt><trkpt lat="46.00336689398512" lon="13.468187317115198"><ele>71.6</ele><time>2026-05-05T13:20:56Z</time></trkpt><trkpt lat="46.00318490643522" lon="13.46823331694446"><ele>72.0</ele><time>2026-05-05T13:21:00Z</time></trkpt><trkpt lat="46.00314137891319" lon="13.468318515959641"><ele>72.0</ele><time>2026-05-05T13:21:01Z</time></trkpt><trkpt lat="46.003081653814625" lon="13.46839509812971"><ele>72.0</ele><time>2026-05-05T13:21:02Z</time></trkpt><trkpt lat="46.00301969791788" lon="13.468470818380595"><ele>72.0</ele><time>2026-05-05T13:21:03Z</time></trkpt><trkpt lat="46.002955856586105" lon="13.468550846453818"><ele>72.0</ele><time>2026-05-05T13:21:04Z</time></trkpt><trkpt lat="46.00288540586145" lon="13.46863654390055"><ele>72.0</ele><time>2026-05-05T13:21:05Z</time></trkpt><trkpt lat="46.00280072573657" lon="13.468721457173194"><ele>72.0</ele><time>2026-05-05T13:21:06Z</time></trkpt><trkpt lat="46.0026951427789" lon="13.468781505984673"><ele>71.5</ele><time>2026-05-05T13:21:07Z</time></trkpt><trkpt lat="46.002578769560664" lon="13.46885152260982"><ele>71.0</ele><time>2026-05-05T13:21:08Z</time></trkpt><trkpt lat="46.002460903274745" lon="13.468933110670303"><ele>70.5</ele><time>2026-05-05T13:21:09Z</time></trkpt><trkpt lat="46.00232982098597" lon="13.468995041362872"><ele>70.0</ele><time>2026-05-05T13:21:10Z</time></trkpt><trkpt lat="46.00219767227234" lon="13.469070675897598"><ele>70.0</ele><time>2026-05-05T13:21:11Z</time></trkpt><trkpt lat="46.00206150674544" lon="13.469147056661116"><ele>70.0</ele><time>2026-05-05T13:21:12Z</time></trkpt><trkpt lat="46.00192413321095" lon="13.469219109216736"><ele>70.0</ele><time>2026-05-05T13:21:13Z</time></trkpt><trkpt lat="46.00177827858512" lon="13.469287082012563"><ele>70.0</ele><time>2026-05-05T13:21:14Z</time></trkpt><trkpt lat="46.00161825871729" lon="13.46933791025998"><ele>69.33333333333333</ele><time>2026-05-05T13:21:15Z</time></trkpt><trkpt lat="46.00146030918784" lon="13.469367867341793"><ele>68.66666666666667</ele><time>2026-05-05T13:21:16Z</time></trkpt><trkpt lat="46.00127646918136" lon="13.469382294123657"><ele>68.0</ele><time>2026-05-05T13:21:17Z</time></trkpt><trkpt lat="46.0010670000306" lon="13.4693626936052"><ele>68.0</ele><time>2026-05-05T13:21:18Z</time></trkpt><trkpt lat="46.00084983842659" lon="13.46931007244522"><ele>68.0</ele><time>2026-05-05T13:21:19Z</time></trkpt><trkpt lat="46.00061200495445" lon="13.4692239499379"><ele>69.0</ele><time>2026-05-05T13:21:20Z</time></trkpt><trkpt lat="46.000346694293455" lon="13.469127321160542"><ele>70.0</ele><time>2026-05-05T13:21:21Z</time></trkpt><trkpt lat="46.00006457814194" lon="13.469023400655256"><ele>70.0</ele><time>2026-05-05T13:21:22Z</time></trkpt><trkpt lat="45.99977060890011" lon="13.46891376815909"><ele>70.0</ele><time>2026-05-05T13:21:23Z</time></trkpt><trkpt lat="45.99949700425898" lon="13.468813325133198"><ele>68.0</ele><time>2026-05-05T13:21:24Z</time></trkpt><trkpt lat="45.99924565355852" lon="13.468724278005078"><ele>66.0</ele><time>2026-05-05T13:21:25Z</time></trkpt><trkpt lat="45.999000991832304" lon="13.468643442072924"><ele>66.0</ele><time>2026-05-05T13:21:26Z</time></trkpt><trkpt lat="45.99877787104546" lon="13.468559762317529"><ele>66.0</ele><time>2026-05-05T13:21:27Z</time></trkpt><trkpt lat="45.99857818975892" lon="13.468505457658265"><ele>66.0</ele><time>2026-05-05T13:21:28Z</time></trkpt><trkpt lat="45.99838283883753" lon="13.468486229372816"><ele>66.66666666666667</ele><time>2026-05-05T13:21:29Z</time></trkpt><trkpt lat="45.99819350210276" lon="13.468495964324768"><ele>67.33333333333334</ele><time>2026-05-05T13:21:30Z</time></trkpt><trkpt lat="45.99800511953122" lon="13.468546883934845"><ele>68.0</ele><time>2026-05-05T13:21:31Z</time></trkpt><trkpt lat="45.99781197964381" lon="13.468632552121031"><ele>68.0</ele><time>2026-05-05T13:21:32Z</time></trkpt><trkpt lat="45.99761689433867" lon="13.468714600463828"><ele>68.0</ele><time>2026-05-05T13:21:33Z</time></trkpt><trkpt lat="45.99741526199501" lon="13.468782158601595"><ele>68.0</ele><time>2026-05-05T13:21:34Z</time></trkpt><trkpt lat="45.99720437860105" lon="13.468766143726597"><ele>67.0</ele><time>2026-05-05T13:21:35Z</time></trkpt><trkpt lat="45.9969728757756" lon="13.468707311394487"><ele>66.0</ele><time>2026-05-05T13:21:36Z</time></trkpt><trkpt lat="45.99670761162918" lon="13.468634179207877"><ele>66.5</ele><time>2026-05-05T13:21:37Z</time></trkpt><trkpt lat="45.99641614418636" lon="13.468561231155123"><ele>67.0</ele><time>2026-05-05T13:21:38Z</time></trkpt><trkpt lat="45.99610981022565" lon="13.46849480797198"><ele>69.0</ele><time>2026-05-05T13:21:39Z</time></trkpt><trkpt lat="45.995783397088914" lon="13.468439244094446"><ele>71.0</ele><time>2026-05-05T13:21:40Z</time></trkpt><trkpt lat="45.99546450216065" lon="13.468411505703168"><ele>71.0</ele><time>2026-05-05T13:21:41Z</time></trkpt><trkpt lat="45.995160372365554" lon="13.46835681355499"><ele>71.0</ele><time>2026-05-05T13:21:42Z</time></trkpt><trkpt lat="45.994880285715915" lon="13.468305285686645"><ele>72.0</ele><time>2026-05-05T13:21:43Z</time></trkpt><trkpt lat="45.994615254066225" lon="13.468239672330643"><ele>73.0</ele><time>2026-05-05T13:21:44Z</time></trkpt><trkpt lat="45.99437062058952" lon="13.468182040821635"><ele>72.0</ele><time>2026-05-05T13:21:45Z</time></trkpt><trkpt lat="45.99413283966694" lon="13.468118652357564"><ele>71.0</ele><time>2026-05-05T13:21:46Z</time></trkpt><trkpt lat="45.993895557552605" lon="13.46805497802579"><ele>71.0</ele><time>2026-05-05T13:21:47Z</time></trkpt><trkpt lat="45.99366585731229" lon="13.467988948408793"><ele>71.0</ele><time>2026-05-05T13:21:48Z</time></trkpt><trkpt lat="45.99344855648979" lon="13.467923598006895"><ele>69.33333333333334</ele><time>2026-05-05T13:21:49Z</time></trkpt><trkpt lat="45.993247163935216" lon="13.467867643032378"><ele>67.66666666666667</ele><time>2026-05-05T13:21:50Z</time></trkpt><trkpt lat="45.99305882165969" lon="13.46781810753572"><ele>66.0</ele><time>2026-05-05T13:21:51Z</time></trkpt><trkpt lat="45.9928839681502" lon="13.467746587365104"><ele>66.0</ele><time>2026-05-05T13:21:52Z</time></trkpt><trkpt lat="45.99271653965566" lon="13.467711858881618"><ele>66.0</ele><time>2026-05-05T13:21:53Z</time></trkpt><trkpt lat="45.99256416988233" lon="13.46765189811545"><ele>66.0</ele><time>2026-05-05T13:21:54Z</time></trkpt><trkpt lat="45.992426662604444" lon="13.467599088266066"><ele>65.8</ele><time>2026-05-05T13:21:55Z</time></trkpt><trkpt lat="45.992303008588884" lon="13.467550070075463"><ele>65.6</ele><time>2026-05-05T13:21:56Z</time></trkpt><trkpt lat="45.99220026169143" lon="13.467504902692657"><ele>65.4</ele><time>2026-05-05T13:21:57Z</time></trkpt><trkpt lat="45.99211497365701" lon="13.467467018490911"><ele>65.2</ele><time>2026-05-05T13:21:58Z</time></trkpt><trkpt lat="45.99203341483893" lon="13.467418750798451"><ele>65.0</ele><time>2026-05-05T13:21:59Z</time></trkpt><trkpt lat="45.99197036745122" lon="13.467385877856705"><ele>65.0</ele><time>2026-05-05T13:22:00Z</time></trkpt><trkpt lat="45.991942090742754" lon="13.46713402040824"><ele>65.0</ele><time>2026-05-05T13:22:02Z</time></trkpt><trkpt lat="45.991959063041605" lon="13.466996513814536"><ele>65.0</ele><time>2026-05-05T13:22:03Z</time></trkpt><trkpt lat="45.991978714750815" lon="13.46684547108773"><ele>65.0</ele><time>2026-05-05T13:22:04Z</time></trkpt><trkpt lat="45.99199160553335" lon="13.466633220893291"><ele>64.33333333333334</ele><time>2026-05-05T13:22:05Z</time></trkpt><trkpt lat="45.992009119406205" lon="13.466379908457986"><ele>63.66666666666667</ele><time>2026-05-05T13:22:06Z</time></trkpt><trkpt lat="45.99203170549785" lon="13.466096848585872"><ele>63.0</ele><time>2026-05-05T13:22:07Z</time></trkpt><trkpt lat="45.99205887630797" lon="13.46581066326105"><ele>62.66666666666667</ele><time>2026-05-05T13:22:08Z</time></trkpt><trkpt lat="45.99207565506201" lon="13.465522528430197"><ele>62.333333333333336</ele><time>2026-05-05T13:22:09Z</time></trkpt><trkpt lat="45.992075271446964" lon="13.465254119810877"><ele>62.0</ele><time>2026-05-05T13:22:10Z</time></trkpt><trkpt lat="45.99204514612124" lon="13.464998673840046"><ele>62.0</ele><time>2026-05-05T13:22:11Z</time></trkpt><trkpt lat="45.99199838827237" lon="13.464760623914845"><ele>62.0</ele><time>2026-05-05T13:22:12Z</time></trkpt><trkpt lat="45.99194979084463" lon="13.464539567432679"><ele>62.0</ele><time>2026-05-05T13:22:13Z</time></trkpt><trkpt lat="45.99190546257672" lon="13.46431248479012"><ele>63.0</ele><time>2026-05-05T13:22:14Z</time></trkpt><trkpt lat="45.99186444456825" lon="13.464084202061875"><ele>64.0</ele><time>2026-05-05T13:22:15Z</time></trkpt><trkpt lat="45.9918218986929" lon="13.463864668764195"><ele>65.0</ele><time>2026-05-05T13:22:16Z</time></trkpt><trkpt lat="45.991780296169246" lon="13.463642657699365"><ele>65.33333333333334</ele><time>2026-05-05T13:22:17Z</time></trkpt><trkpt lat="45.991741467096496" lon="13.463425664431107"><ele>65.66666666666667</ele><time>2026-05-05T13:22:18Z</time></trkpt><trkpt lat="45.99170450618816" lon="13.46321204302284"><ele>66.0</ele><time>2026-05-05T13:22:19Z</time></trkpt><trkpt lat="45.991671192804425" lon="13.463004596985634"><ele>68.0</ele><time>2026-05-05T13:22:20Z</time></trkpt><trkpt lat="45.991638200253675" lon="13.4627911052594"><ele>70.0</ele><time>2026-05-05T13:22:21Z</time></trkpt><trkpt lat="45.99159715238798" lon="13.462572530727602"><ele>72.0</ele><time>2026-05-05T13:22:22Z</time></trkpt><trkpt lat="45.991541277982144" lon="13.462344172804867"><ele>72.0</ele><time>2026-05-05T13:22:23Z</time></trkpt><trkpt lat="45.99149224096983" lon="13.462115079667768"><ele>72.0</ele><time>2026-05-05T13:22:24Z</time></trkpt><trkpt lat="45.9913808692577" lon="13.461872643662367"><ele>72.0</ele><time>2026-05-05T13:22:25Z</time></trkpt><trkpt lat="45.99128292907345" lon="13.461587511737088"><ele>72.0</ele><time>2026-05-05T13:22:26Z</time></trkpt><trkpt lat="45.99117571824803" lon="13.461283164643474"><ele>72.0</ele><time>2026-05-05T13:22:27Z</time></trkpt><trkpt lat="45.99106483981376" lon="13.460958963677864"><ele>71.0</ele><time>2026-05-05T13:22:28Z</time></trkpt><trkpt lat="45.99094969810966" lon="13.460627807726544"><ele>70.0</ele><time>2026-05-05T13:22:28.999Z</time></trkpt><trkpt lat="45.99083224024957" lon="13.460293308574046"><ele>72.0</ele><time>2026-05-05T13:22:29.999Z</time></trkpt><trkpt lat="45.99071645332889" lon="13.45998384736141"><ele>74.0</ele><time>2026-05-05T13:22:30.999Z</time></trkpt><trkpt lat="45.99060260808716" lon="13.459703105372627"><ele>73.66666666666667</ele><time>2026-05-05T13:22:31.999Z</time></trkpt><trkpt lat="45.9904986142326" lon="13.45943560173349"><ele>73.33333333333333</ele><time>2026-05-05T13:22:32.999Z</time></trkpt><trkpt lat="45.990403526392065" lon="13.459183349146521"><ele>73.0</ele><time>2026-05-05T13:22:33.999Z</time></trkpt><trkpt lat="45.9903049936638" lon="13.458933228182206"><ele>73.0</ele><time>2026-05-05T13:22:34.999Z</time></trkpt><trkpt lat="45.99020726978963" lon="13.458689597612752"><ele>73.0</ele><time>2026-05-05T13:22:35.999Z</time></trkpt><trkpt lat="45.99010803194958" lon="13.45843495201359"><ele>73.0</ele><time>2026-05-05T13:22:36.999Z</time></trkpt><trkpt lat="45.99001060085177" lon="13.458188939265572"><ele>73.66666666666666</ele><time>2026-05-05T13:22:37.999Z</time></trkpt><trkpt lat="45.989914456924865" lon="13.457946097983235"><ele>74.33333333333333</ele><time>2026-05-05T13:22:38.999Z</time></trkpt><trkpt lat="45.989824881248616" lon="13.457703565641422"><ele>75.0</ele><time>2026-05-05T13:22:39.999Z</time></trkpt><trkpt lat="45.98975526998904" lon="13.457457085888255"><ele>75.0</ele><time>2026-05-05T13:22:40.999Z</time></trkpt><trkpt lat="45.98971629378695" lon="13.457202067654364"><ele>75.0</ele><time>2026-05-05T13:22:41.999Z</time></trkpt><trkpt lat="45.98970839865077" lon="13.456954239198746"><ele>75.0</ele><time>2026-05-05T13:22:42.999Z</time></trkpt><trkpt lat="45.98971195348625" lon="13.456720504789272"><ele>75.33333333333333</ele><time>2026-05-05T13:22:43.999Z</time></trkpt><trkpt lat="45.989713666590966" lon="13.456487219126831"><ele>75.66666666666666</ele><time>2026-05-05T13:22:44.999Z</time></trkpt><trkpt lat="45.98971340396259" lon="13.45625010582489"><ele>76.0</ele><time>2026-05-05T13:22:45.999Z</time></trkpt><trkpt lat="45.98971968071141" lon="13.45602732768175"><ele>76.0</ele><time>2026-05-05T13:22:46.999Z</time></trkpt><trkpt lat="45.989751589265936" lon="13.455817516149782"><ele>76.0</ele><time>2026-05-05T13:22:47.999Z</time></trkpt><trkpt lat="45.989821798512956" lon="13.455635747678242"><ele>76.0</ele><time>2026-05-05T13:22:48.999Z</time></trkpt><trkpt lat="45.989914765033106" lon="13.455474068713851"><ele>76.0</ele><time>2026-05-05T13:22:49.999Z</time></trkpt><trkpt lat="45.99002523721293" lon="13.455337339612687"><ele>76.5</ele><time>2026-05-05T13:22:50.999Z</time></trkpt><trkpt lat="45.9901455346996" lon="13.455217502117362"><ele>77.0</ele><time>2026-05-05T13:22:51.999Z</time></trkpt><trkpt lat="45.990265298895885" lon="13.455097964527702"><ele>77.5</ele><time>2026-05-05T13:22:52.999Z</time></trkpt><trkpt lat="45.99037451808016" lon="13.454981934536038"><ele>78.0</ele><time>2026-05-05T13:22:53.999Z</time></trkpt><trkpt lat="45.9904665030714" lon="13.454861537809126"><ele>78.0</ele><time>2026-05-05T13:22:54.999Z</time></trkpt><trkpt lat="45.990518143594294" lon="13.454732762907874"><ele>78.0</ele><time>2026-05-05T13:22:55.999Z</time></trkpt><trkpt lat="45.99052392616651" lon="13.454594606712547"><ele>78.0</ele><time>2026-05-05T13:22:56.999Z</time></trkpt><trkpt lat="45.99049911004958" lon="13.454458013194262"><ele>78.0</ele><time>2026-05-05T13:22:57.999Z</time></trkpt><trkpt lat="45.990455108550044" lon="13.454294646465655"><ele>78.0</ele><time>2026-05-05T13:22:58.999Z</time></trkpt><trkpt lat="45.99040015408476" lon="13.454114977541725"><ele>78.25</ele><time>2026-05-05T13:22:59.999Z</time></trkpt><trkpt lat="45.99034198724282" lon="13.453921688051558"><ele>78.5</ele><time>2026-05-05T13:23:00.999Z</time></trkpt><trkpt lat="45.99029062000536" lon="13.453730600263267"><ele>78.75</ele><time>2026-05-05T13:23:01.999Z</time></trkpt><trkpt lat="45.99023596887561" lon="13.453534605488505"><ele>79.0</ele><time>2026-05-05T13:23:02.999Z</time></trkpt><trkpt lat="45.99018467459162" lon="13.453348375027723"><ele>79.0</ele><time>2026-05-05T13:23:03.999Z</time></trkpt><trkpt lat="45.990141206835254" lon="13.453163817191548"><ele>79.0</ele><time>2026-05-05T13:23:04.999Z</time></trkpt><trkpt lat="45.9901181947032" lon="13.452972137960787"><ele>79.0</ele><time>2026-05-05T13:23:05.999Z</time></trkpt><trkpt lat="45.99012332650978" lon="13.45277410741607"><ele>79.0</ele><time>2026-05-05T13:23:06.999Z</time></trkpt><trkpt lat="45.990151375409376" lon="13.452592629471622"><ele>79.0</ele><time>2026-05-05T13:23:07.999Z</time></trkpt><trkpt lat="45.990175445853176" lon="13.4524038836913"><ele>79.0</ele><time>2026-05-05T13:23:08.999Z</time></trkpt><trkpt lat="45.99018684362057" lon="13.452204289450503"><ele>79.0</ele><time>2026-05-05T13:23:09.999Z</time></trkpt><trkpt lat="45.990174027522144" lon="13.452015844408526"><ele>79.0</ele><time>2026-05-05T13:23:10.999Z</time></trkpt><trkpt lat="45.99013816397626" lon="13.451835806471315"><ele>79.0</ele><time>2026-05-05T13:23:11.999Z</time></trkpt><trkpt lat="45.99006452555237" lon="13.451660349790288"><ele>79.0</ele><time>2026-05-05T13:23:12.999Z</time></trkpt><trkpt lat="45.98998549570109" lon="13.451490891964825"><ele>79.0</ele><time>2026-05-05T13:23:13.999Z</time></trkpt><trkpt lat="45.989921596779055" lon="13.451297963078565"><ele>79.0</ele><time>2026-05-05T13:23:14.999Z</time></trkpt><trkpt lat="45.98987092055003" lon="13.4510887553763"><ele>79.0</ele><time>2026-05-05T13:23:15.999Z</time></trkpt><trkpt lat="45.98984162237348" lon="13.450862285171427"><ele>79.0</ele><time>2026-05-05T13:23:16.999Z</time></trkpt><trkpt lat="45.98981179741433" lon="13.450635932198146"><ele>79.0</ele><time>2026-05-05T13:23:17.999Z</time></trkpt><trkpt lat="45.989778755717246" lon="13.450411683894114"><ele>79.0</ele><time>2026-05-05T13:23:18.999Z</time></trkpt><trkpt lat="45.98973319164237" lon="13.45017758200754"><ele>79.0</ele><time>2026-05-05T13:23:19.999Z</time></trkpt><trkpt lat="45.98968151630063" lon="13.449942033232007"><ele>79.0</ele><time>2026-05-05T13:23:20.999Z</time></trkpt><trkpt lat="45.98962350745191" lon="13.449706981132687"><ele>79.0</ele><time>2026-05-05T13:23:21.999Z</time></trkpt><trkpt lat="45.98956661032037" lon="13.449471263598598"><ele>79.0</ele><time>2026-05-05T13:23:22.999Z</time></trkpt><trkpt lat="45.98951020106619" lon="13.44923778474192"><ele>79.0</ele><time>2026-05-05T13:23:23.999Z</time></trkpt><trkpt lat="45.989449437571324" lon="13.449000871604138"><ele>79.33333333333333</ele><time>2026-05-05T13:23:24.999Z</time></trkpt><trkpt lat="45.98938661272077" lon="13.448760185525755"><ele>79.66666666666667</ele><time>2026-05-05T13:23:25.999Z</time></trkpt><trkpt lat="45.989326410186074" lon="13.448528986627712"><ele>80.0</ele><time>2026-05-05T13:23:26.999Z</time></trkpt><trkpt lat="45.98927527791688" lon="13.448317354604123"><ele>80.0</ele><time>2026-05-05T13:23:27.999Z</time></trkpt><trkpt lat="45.98923533160478" lon="13.448118380676954"><ele>80.0</ele><time>2026-05-05T13:23:28.999Z</time></trkpt><trkpt lat="45.989214168259714" lon="13.447936411506397"><ele>80.0</ele><time>2026-05-05T13:23:29.999Z</time></trkpt><trkpt lat="45.989214963260736" lon="13.447776571851444"><ele>80.0</ele><time>2026-05-05T13:23:30.999Z</time></trkpt><trkpt lat="45.98921988411012" lon="13.447636968856674"><ele>80.0</ele><time>2026-05-05T13:23:31.999Z</time></trkpt><trkpt lat="45.989236456692595" lon="13.447511471051325"><ele>80.0</ele><time>2026-05-05T13:23:33Z</time></trkpt><trkpt lat="45.98926020139249" lon="13.447399203726263"><ele>80.0</ele><time>2026-05-05T13:23:34Z</time></trkpt><trkpt lat="45.98928621348985" lon="13.447298354952034"><ele>80.0</ele><time>2026-05-05T13:23:35Z</time></trkpt><trkpt lat="45.989312733118986" lon="13.4471935913332"><ele>80.0</ele><time>2026-05-05T13:23:36Z</time></trkpt><trkpt lat="45.98935175078629" lon="13.447093200685382"><ele>80.0</ele><time>2026-05-05T13:23:37Z</time></trkpt><trkpt lat="45.989400401604954" lon="13.446998311571068"><ele>80.0</ele><time>2026-05-05T13:23:38Z</time></trkpt><trkpt lat="45.98944119383589" lon="13.446902546258412"><ele>80.0</ele><time>2026-05-05T13:23:39Z</time></trkpt><trkpt lat="45.989457434896735" lon="13.446808770022912"><ele>80.0</ele><time>2026-05-05T13:23:40Z</time></trkpt><trkpt lat="45.9894441612867" lon="13.446712855674901"><ele>80.0</ele><time>2026-05-05T13:23:41Z</time></trkpt><trkpt lat="45.98939608362684" lon="13.446634714085203"><ele>80.0</ele><time>2026-05-05T13:23:42Z</time></trkpt><trkpt lat="45.98932037250786" lon="13.446579905280373"><ele>80.0</ele><time>2026-05-05T13:23:43Z</time></trkpt><trkpt lat="45.98923060531522" lon="13.446535937708322"><ele>79.75</ele><time>2026-05-05T13:23:44Z</time></trkpt><trkpt lat="45.9891317624478" lon="13.44645956756261"><ele>79.5</ele><time>2026-05-05T13:23:45Z</time></trkpt><trkpt lat="45.9890401252558" lon="13.446333240514898"><ele>79.25</ele><time>2026-05-05T13:23:46Z</time></trkpt><trkpt lat="45.988952575140516" lon="13.446181849910293"><ele>79.0</ele><time>2026-05-05T13:23:47Z</time></trkpt><trkpt lat="45.98887348403282" lon="13.446022300500667"><ele>79.0</ele><time>2026-05-05T13:23:48Z</time></trkpt><trkpt lat="45.98880478849057" lon="13.445855673842706"><ele>79.0</ele><time>2026-05-05T13:23:49Z</time></trkpt><trkpt lat="45.98874950725256" lon="13.445685954278138"><ele>79.0</ele><time>2026-05-05T13:23:50Z</time></trkpt><trkpt lat="45.98870105999685" lon="13.445523531692688"><ele>79.0</ele><time>2026-05-05T13:23:51Z</time></trkpt><trkpt lat="45.988655620779866" lon="13.445376801348017"><ele>79.0</ele><time>2026-05-05T13:23:52Z</time></trkpt><trkpt lat="45.98861093245634" lon="13.445237515503951"><ele>79.0</ele><time>2026-05-05T13:23:53Z</time></trkpt><trkpt lat="45.98856572836968" lon="13.445098651169552"><ele>79.0</ele><time>2026-05-05T13:23:54Z</time></trkpt><trkpt lat="45.98852327287853" lon="13.444962939891724"><ele>79.0</ele><time>2026-05-05T13:23:55Z</time></trkpt><trkpt lat="45.988487069062266" lon="13.444832375222063"><ele>79.0</ele><time>2026-05-05T13:23:56Z</time></trkpt><trkpt lat="45.9884577720272" lon="13.444723637072235"><ele>79.0</ele><time>2026-05-05T13:23:57Z</time></trkpt><trkpt lat="45.98842840579013" lon="13.444629206809294"><ele>79.0</ele><time>2026-05-05T13:23:58Z</time></trkpt><trkpt lat="45.98840027733017" lon="13.444532490335728"><ele>79.0</ele><time>2026-05-05T13:23:59Z</time></trkpt><trkpt lat="45.988368167464444" lon="13.44444509732946"><ele>79.0</ele><time>2026-05-05T13:24:00Z</time></trkpt><trkpt lat="45.98833979535428" lon="13.444354396944721"><ele>79.0</ele><time>2026-05-05T13:24:01Z</time></trkpt><trkpt lat="45.98829602246437" lon="13.444237015894917"><ele>79.0</ele><time>2026-05-05T13:24:02Z</time></trkpt><trkpt lat="45.988253044481425" lon="13.444090162175469"><ele>79.0</ele><time>2026-05-05T13:24:03Z</time></trkpt><trkpt lat="45.988211904419536" lon="13.443915063503471"><ele>79.0</ele><time>2026-05-05T13:24:04Z</time></trkpt><trkpt lat="45.98816218644351" lon="13.443729300756113"><ele>79.0</ele><time>2026-05-05T13:24:05Z</time></trkpt><trkpt lat="45.98810658010847" lon="13.443529060184513"><ele>79.0</ele><time>2026-05-05T13:24:06Z</time></trkpt><trkpt lat="45.988041561371766" lon="13.443319922676245"><ele>78.66666666666666</ele><time>2026-05-05T13:24:07Z</time></trkpt><trkpt lat="45.98797422111784" lon="13.443101108477626"><ele>78.33333333333333</ele><time>2026-05-05T13:24:08Z</time></trkpt><trkpt lat="45.987906194365586" lon="13.442878138738514"><ele>78.0</ele><time>2026-05-05T13:24:09Z</time></trkpt><trkpt lat="45.9878380322217" lon="13.442655806202744"><ele>78.0</ele><time>2026-05-05T13:24:10Z</time></trkpt><trkpt lat="45.98776998506903" lon="13.442434449258846"><ele>78.0</ele><time>2026-05-05T13:24:11Z</time></trkpt><trkpt lat="45.98769958145844" lon="13.442200831461909"><ele>78.0</ele><time>2026-05-05T13:24:12Z</time></trkpt><trkpt lat="45.98762584170587" lon="13.441948264929389"><ele>78.0</ele><time>2026-05-05T13:24:13Z</time></trkpt><trkpt lat="45.98754935865755" lon="13.441681865657738"><ele>78.0</ele><time>2026-05-05T13:24:14Z</time></trkpt><trkpt lat="45.9874662649335" lon="13.441387574221654"><ele>78.0</ele><time>2026-05-05T13:24:15Z</time></trkpt><trkpt lat="45.98737772951934" lon="13.441077585032863"><ele>78.0</ele><time>2026-05-05T13:24:16Z</time></trkpt><trkpt lat="45.98728556671438" lon="13.440759135106925"><ele>78.0</ele><time>2026-05-05T13:24:17Z</time></trkpt><trkpt lat="45.987186992965185" lon="13.440439648030173"><ele>78.0</ele><time>2026-05-05T13:24:18Z</time></trkpt><trkpt lat="45.98709088883909" lon="13.440122200446046"><ele>78.0</ele><time>2026-05-05T13:24:19Z</time></trkpt><trkpt lat="45.9869992943583" lon="13.439809303805157"><ele>77.5</ele><time>2026-05-05T13:24:20Z</time></trkpt><trkpt lat="45.98690713074982" lon="13.439508942686812"><ele>77.0</ele><time>2026-05-05T13:24:21Z</time></trkpt><trkpt lat="45.98681792079608" lon="13.439214874726689"><ele>77.0</ele><time>2026-05-05T13:24:22Z</time></trkpt><trkpt lat="45.98673111722834" lon="13.43892035933537"><ele>77.0</ele><time>2026-05-05T13:24:23Z</time></trkpt><trkpt lat="45.98664538818986" lon="13.4386306487381"><ele>77.0</ele><time>2026-05-05T13:24:24Z</time></trkpt><trkpt lat="45.986561251704124" lon="13.438344088424177"><ele>77.0</ele><time>2026-05-05T13:24:25Z</time></trkpt><trkpt lat="45.98647749680675" lon="13.438057721215193"><ele>77.0</ele><time>2026-05-05T13:24:26Z</time></trkpt><trkpt lat="45.98639036298675" lon="13.437768031692444"><ele>77.0</ele><time>2026-05-05T13:24:27Z</time></trkpt><trkpt lat="45.98630302368693" lon="13.437475938456949"><ele>76.66666666666667</ele><time>2026-05-05T13:24:28Z</time></trkpt><trkpt lat="45.98621268678509" lon="13.437179331333303"><ele>76.33333333333333</ele><time>2026-05-05T13:24:29Z</time></trkpt><trkpt lat="45.98612480984531" lon="13.436882702343576"><ele>76.0</ele><time>2026-05-05T13:24:30Z</time></trkpt><trkpt lat="45.986039167737644" lon="13.436580398283265"><ele>75.0</ele><time>2026-05-05T13:24:31Z</time></trkpt><trkpt lat="45.985954898982065" lon="13.436277196150769"><ele>74.0</ele><time>2026-05-05T13:24:32Z</time></trkpt><trkpt lat="45.98587031586215" lon="13.435974300612592"><ele>73.66666666666667</ele><time>2026-05-05T13:24:33Z</time></trkpt><trkpt lat="45.98578408174034" lon="13.435674415333075"><ele>73.33333333333333</ele><time>2026-05-05T13:24:34Z</time></trkpt><trkpt lat="45.98570074082537" lon="13.435376560773658"><ele>73.0</ele><time>2026-05-05T13:24:35Z</time></trkpt><trkpt lat="45.985620898705236" lon="13.435075492363435"><ele>73.0</ele><time>2026-05-05T13:24:36Z</time></trkpt><trkpt lat="45.98554289245752" lon="13.434782134157919"><ele>73.0</ele><time>2026-05-05T13:24:37Z</time></trkpt><trkpt lat="45.9854651889503" lon="13.43449720581347"><ele>73.0</ele><time>2026-05-05T13:24:38Z</time></trkpt><trkpt lat="45.985388509778666" lon="13.434224114868062"><ele>73.0</ele><time>2026-05-05T13:24:39Z</time></trkpt><trkpt lat="45.9853206816985" lon="13.433972842494784"><ele>73.0</ele><time>2026-05-05T13:24:40Z</time></trkpt><trkpt lat="45.98527407504337" lon="13.433723351810245"><ele>73.0</ele><time>2026-05-05T13:24:41Z</time></trkpt><trkpt lat="45.98525806113018" lon="13.433461185699542"><ele>72.66666666666666</ele><time>2026-05-05T13:24:42Z</time></trkpt><trkpt lat="45.98528182771601" lon="13.433193522305698"><ele>72.33333333333333</ele><time>2026-05-05T13:24:43Z</time></trkpt><trkpt lat="45.98532014859293" lon="13.432930167381627"><ele>72.0</ele><time>2026-05-05T13:24:44Z</time></trkpt><trkpt lat="45.985365333607824" lon="13.43266637380606"><ele>72.0</ele><time>2026-05-05T13:24:45Z</time></trkpt><trkpt lat="45.98540751817329" lon="13.43239854444131"><ele>72.0</ele><time>2026-05-05T13:24:46Z</time></trkpt><trkpt lat="45.985450752322876" lon="13.432134815956578"><ele>72.0</ele><time>2026-05-05T13:24:47Z</time></trkpt><trkpt lat="45.9854910677053" lon="13.431890402736354"><ele>72.33333333333333</ele><time>2026-05-05T13:24:48Z</time></trkpt><trkpt lat="45.985526353363305" lon="13.43166543130834"><ele>72.66666666666666</ele><time>2026-05-05T13:24:49Z</time></trkpt><trkpt lat="45.98556092069199" lon="13.431448712210932"><ele>73.0</ele><time>2026-05-05T13:24:50Z</time></trkpt><trkpt lat="45.98559555904395" lon="13.431222801066268"><ele>73.0</ele><time>2026-05-05T13:24:51Z</time></trkpt><trkpt lat="45.98563239873766" lon="13.430990969729491"><ele>73.0</ele><time>2026-05-05T13:24:52Z</time></trkpt><trkpt lat="45.985668217400786" lon="13.430756690723785"><ele>73.0</ele><time>2026-05-05T13:24:53Z</time></trkpt><trkpt lat="45.98570163485396" lon="13.430521972371013"><ele>73.33333333333333</ele><time>2026-05-05T13:24:54Z</time></trkpt><trkpt lat="45.98573131276933" lon="13.430289848986305"><ele>73.66666666666667</ele><time>2026-05-05T13:24:55Z</time></trkpt><trkpt lat="45.98576252182052" lon="13.430066279070045"><ele>74.0</ele><time>2026-05-05T13:24:56Z</time></trkpt><trkpt lat="45.98579831535253" lon="13.429854610641206"><ele>74.0</ele><time>2026-05-05T13:24:57Z</time></trkpt><trkpt lat="45.98583102288555" lon="13.429655759054127"><ele>74.0</ele><time>2026-05-05T13:24:58Z</time></trkpt><trkpt lat="45.9858568826276" lon="13.429474735710201"><ele>74.0</ele><time>2026-05-05T13:24:59Z</time></trkpt><trkpt lat="45.98587137361444" lon="13.42928789858394"><ele>74.0</ele><time>2026-05-05T13:25:00Z</time></trkpt><trkpt lat="45.985867137443336" lon="13.42910474240788"><ele>73.25</ele><time>2026-05-05T13:25:01Z</time></trkpt><trkpt lat="45.985843889659655" lon="13.428914760446572"><ele>72.5</ele><time>2026-05-05T13:25:02Z</time></trkpt><trkpt lat="45.9858172753268" lon="13.428719441574634"><ele>71.75</ele><time>2026-05-05T13:25:03Z</time></trkpt><trkpt lat="45.98577766181796" lon="13.4285203346627"><ele>71.0</ele><time>2026-05-05T13:25:04Z</time></trkpt><trkpt lat="45.98571619652716" lon="13.428318183599226"><ele>70.66666666666667</ele><time>2026-05-05T13:25:05Z</time></trkpt><trkpt lat="45.98566941668548" lon="13.428089080723506"><ele>70.33333333333333</ele><time>2026-05-05T13:25:06Z</time></trkpt><trkpt lat="45.98564205374709" lon="13.427848324733159"><ele>70.0</ele><time>2026-05-05T13:25:07Z</time></trkpt><trkpt lat="45.98562907965397" lon="13.427589003618985"><ele>70.0</ele><time>2026-05-05T13:25:08Z</time></trkpt><trkpt lat="45.98563273456354" lon="13.427320431493774"><ele>70.0</ele><time>2026-05-05T13:25:09Z</time></trkpt><trkpt lat="45.985649871156724" lon="13.427054520822502"><ele>70.0</ele><time>2026-05-05T13:25:10Z</time></trkpt><trkpt lat="45.98568141469232" lon="13.42679206151933"><ele>70.0</ele><time>2026-05-05T13:25:11Z</time></trkpt><trkpt lat="45.98569837223329" lon="13.426534065127214"><ele>70.0</ele><time>2026-05-05T13:25:12Z</time></trkpt><trkpt lat="45.985707158754224" lon="13.426275655322085"><ele>70.0</ele><time>2026-05-05T13:25:13Z</time></trkpt><trkpt lat="45.985714512203884" lon="13.4260306537027"><ele>69.75</ele><time>2026-05-05T13:25:14Z</time></trkpt><trkpt lat="45.98572960168249" lon="13.425812895255817"><ele>69.5</ele><time>2026-05-05T13:25:15Z</time></trkpt><trkpt lat="45.98576584304841" lon="13.425635966608228"><ele>69.25</ele><time>2026-05-05T13:25:16Z</time></trkpt><trkpt lat="45.985811189724124" lon="13.425493884856085"><ele>69.0</ele><time>2026-05-05T13:25:17Z</time></trkpt><trkpt lat="45.98584811809381" lon="13.425365208997965"><ele>69.2</ele><time>2026-05-05T13:25:18Z</time></trkpt><trkpt lat="45.985860469035146" lon="13.425231057772665"><ele>69.4</ele><time>2026-05-05T13:25:19Z</time></trkpt><trkpt lat="45.98583867799868" lon="13.425095443003261"><ele>69.6</ele><time>2026-05-05T13:25:20Z</time></trkpt><trkpt lat="45.98578783179175" lon="13.424977341175076"><ele>69.8</ele><time>2026-05-05T13:25:21Z</time></trkpt><trkpt lat="45.985719980772295" lon="13.424874987751352"><ele>70.0</ele><time>2026-05-05T13:25:22Z</time></trkpt><trkpt lat="45.98565600709844" lon="13.424791825577076"><ele>70.0</ele><time>2026-05-05T13:25:23Z</time></trkpt><trkpt lat="45.9855919526236" lon="13.424703825794124"><ele>70.0</ele><time>2026-05-05T13:25:24Z</time></trkpt><trkpt lat="45.98552261624134" lon="13.424596906340124"><ele>70.0</ele><time>2026-05-05T13:25:25Z</time></trkpt><trkpt lat="45.98544285565599" lon="13.424473070542124"><ele>70.0</ele><time>2026-05-05T13:25:26Z</time></trkpt><trkpt lat="45.985356842392235" lon="13.424346902329804"><ele>70.0</ele><time>2026-05-05T13:25:27Z</time></trkpt><trkpt lat="45.9852649439184" lon="13.424201684073523"><ele>70.0</ele><time>2026-05-05T13:25:28Z</time></trkpt><trkpt lat="45.985187413639856" lon="13.42401684979942"><ele>70.0</ele><time>2026-05-05T13:25:29Z</time></trkpt><trkpt lat="45.985140063053905" lon="13.423801535902843"><ele>70.0</ele><time>2026-05-05T13:25:30Z</time></trkpt><trkpt lat="45.98509438979774" lon="13.4235799218416"><ele>69.33333333333333</ele><time>2026-05-05T13:25:31Z</time></trkpt><trkpt lat="45.98504668001494" lon="13.423342751131404"><ele>68.66666666666667</ele><time>2026-05-05T13:25:32Z</time></trkpt><trkpt lat="45.98500407861973" lon="13.423108614564669"><ele>68.0</ele><time>2026-05-05T13:25:33Z</time></trkpt><trkpt lat="45.984959124271256" lon="13.422868655970683"><ele>67.0</ele><time>2026-05-05T13:25:34Z</time></trkpt><trkpt lat="45.98491813925144" lon="13.422629500112624"><ele>66.0</ele><time>2026-05-05T13:25:35Z</time></trkpt><trkpt lat="45.98487937508422" lon="13.422396647099598"><ele>65.0</ele><time>2026-05-05T13:25:36Z</time></trkpt><trkpt lat="45.984837361187985" lon="13.422164308756392"><ele>66.33333333333334</ele><time>2026-05-05T13:25:37Z</time></trkpt><trkpt lat="45.98479518684843" lon="13.421934743065263"><ele>67.66666666666667</ele><time>2026-05-05T13:25:38Z</time></trkpt><trkpt lat="45.98474630036707" lon="13.421703891934273"><ele>69.0</ele><time>2026-05-05T13:25:39Z</time></trkpt><trkpt lat="45.984686036738815" lon="13.421469162084628"><ele>68.66666666666667</ele><time>2026-05-05T13:25:40Z</time></trkpt><trkpt lat="45.98460802703364" lon="13.421237475357191"><ele>68.33333333333334</ele><time>2026-05-05T13:25:41Z</time></trkpt><trkpt lat="45.98450140031434" lon="13.42101008998752"><ele>68.0</ele><time>2026-05-05T13:25:42Z</time></trkpt><trkpt lat="45.98439699381374" lon="13.420781864966909"><ele>68.0</ele><time>2026-05-05T13:25:43Z</time></trkpt><trkpt lat="45.98430065962472" lon="13.420557898775597"><ele>68.0</ele><time>2026-05-05T13:25:44Z</time></trkpt><trkpt lat="45.98420644361212" lon="13.420333613328037"><ele>68.0</ele><time>2026-05-05T13:25:45Z</time></trkpt><trkpt lat="45.984112270351595" lon="13.420112605047507"><ele>67.66666666666667</ele><time>2026-05-05T13:25:46Z</time></trkpt><trkpt lat="45.98401911904642" lon="13.419892548591887"><ele>67.33333333333333</ele><time>2026-05-05T13:25:47Z</time></trkpt><trkpt lat="45.98393020408062" lon="13.419676994218571"><ele>67.0</ele><time>2026-05-05T13:25:48Z</time></trkpt><trkpt lat="45.983839804196435" lon="13.419456075133844"><ele>67.0</ele><time>2026-05-05T13:25:49Z</time></trkpt><trkpt lat="45.98375822363763" lon="13.419224241117929"><ele>67.0</ele><time>2026-05-05T13:25:50Z</time></trkpt><trkpt lat="45.983693281424955" lon="13.418980152313772"><ele>67.0</ele><time>2026-05-05T13:25:51Z</time></trkpt><trkpt lat="45.98365175627319" lon="13.41873098102564"><ele>66.66666666666666</ele><time>2026-05-05T13:25:52Z</time></trkpt><trkpt lat="45.98361802028066" lon="13.418475905839827"><ele>66.33333333333333</ele><time>2026-05-05T13:25:53Z</time></trkpt><trkpt lat="45.9835832675202" lon="13.418219486876074"><ele>66.0</ele><time>2026-05-05T13:25:54Z</time></trkpt><trkpt lat="45.983542626629315" lon="13.417950522735314"><ele>66.0</ele><time>2026-05-05T13:25:55Z</time></trkpt><trkpt lat="45.98349677837826" lon="13.417672663800126"><ele>66.0</ele><time>2026-05-05T13:25:56Z</time></trkpt><trkpt lat="45.983451457273695" lon="13.41738777168124"><ele>66.0</ele><time>2026-05-05T13:25:57Z</time></trkpt><trkpt lat="45.98340541862212" lon="13.417093440165592"><ele>66.0</ele><time>2026-05-05T13:25:58Z</time></trkpt><trkpt lat="45.98335740740127" lon="13.416796866628625"><ele>66.0</ele><time>2026-05-05T13:25:59Z</time></trkpt><trkpt lat="45.98331389185999" lon="13.416513090280992"><ele>66.0</ele><time>2026-05-05T13:26:00Z</time></trkpt><trkpt lat="45.98326318431364" lon="13.416211849321495"><ele>66.0</ele><time>2026-05-05T13:26:01Z</time></trkpt><trkpt lat="45.983208082321624" lon="13.415887616868007"><ele>66.0</ele><time>2026-05-05T13:26:02Z</time></trkpt><trkpt lat="45.983163614504704" lon="13.415543727618406"><ele>65.5</ele><time>2026-05-05T13:26:03Z</time></trkpt><trkpt lat="45.98314769892535" lon="13.415199207035574"><ele>65.0</ele><time>2026-05-05T13:26:04Z</time></trkpt><trkpt lat="45.98315041391083" lon="13.414848551452838"><ele>64.5</ele><time>2026-05-05T13:26:05Z</time></trkpt><trkpt lat="45.98315403967188" lon="13.414503702172945"><ele>64.0</ele><time>2026-05-05T13:26:06Z</time></trkpt><trkpt lat="45.98314952341739" lon="13.414155134891816"><ele>64.0</ele><time>2026-05-05T13:26:07Z</time></trkpt><trkpt lat="45.98314162269451" lon="13.413803361975503"><ele>64.0</ele><time>2026-05-05T13:26:08Z</time></trkpt><trkpt lat="45.98313286567138" lon="13.413448865430134"><ele>64.0</ele><time>2026-05-05T13:26:09Z</time></trkpt><trkpt lat="45.98312232986541" lon="13.413102489506748"><ele>64.0</ele><time>2026-05-05T13:26:10Z</time></trkpt><trkpt lat="45.983113922105616" lon="13.412770962806428"><ele>64.66666666666666</ele><time>2026-05-05T13:26:11Z</time></trkpt><trkpt lat="45.98310555419028" lon="13.412450982970798"><ele>65.33333333333333</ele><time>2026-05-05T13:26:12Z</time></trkpt><trkpt lat="45.983097444229806" lon="13.412139030952055"><ele>66.0</ele><time>2026-05-05T13:26:13Z</time></trkpt><trkpt lat="45.98308783592313" lon="13.411826914715572"><ele>66.0</ele><time>2026-05-05T13:26:14Z</time></trkpt><trkpt lat="45.98307758120582" lon="13.411517896128503"><ele>66.0</ele><time>2026-05-05T13:26:15Z</time></trkpt><trkpt lat="45.983066898185626" lon="13.41120518298669"><ele>66.0</ele><time>2026-05-05T13:26:16Z</time></trkpt><trkpt lat="45.98305600168784" lon="13.410893771438841"><ele>66.0</ele><time>2026-05-05T13:26:17Z</time></trkpt><trkpt lat="45.98304589868137" lon="13.410598113851165"><ele>66.0</ele><time>2026-05-05T13:26:18Z</time></trkpt><trkpt lat="45.98304303570756" lon="13.410327866977532"><ele>66.0</ele><time>2026-05-05T13:26:19Z</time></trkpt><trkpt lat="45.98305337882047" lon="13.410071760186197"><ele>66.66666666666667</ele><time>2026-05-05T13:26:20Z</time></trkpt><trkpt lat="45.98309331759052" lon="13.409819217021932"><ele>67.33333333333334</ele><time>2026-05-05T13:26:21Z</time></trkpt><trkpt lat="45.983158671501975" lon="13.40958161914603"><ele>68.0</ele><time>2026-05-05T13:26:22Z</time></trkpt><trkpt lat="45.98324146453083" lon="13.409348237400152"><ele>68.0</ele><time>2026-05-05T13:26:23Z</time></trkpt><trkpt lat="45.98333111126226" lon="13.409103282175327"><ele>68.0</ele><time>2026-05-05T13:26:24Z</time></trkpt><trkpt lat="45.983421315350654" lon="13.40884913549122"><ele>68.0</ele><time>2026-05-05T13:26:25Z</time></trkpt><trkpt lat="45.983513302054" lon="13.408582971591663"><ele>67.33333333333334</ele><time>2026-05-05T13:26:26Z</time></trkpt><trkpt lat="45.98360408908501" lon="13.408313581069416"><ele>66.66666666666667</ele><time>2026-05-05T13:26:27Z</time></trkpt><trkpt lat="45.983691253203176" lon="13.408031362888284"><ele>66.0</ele><time>2026-05-05T13:26:28Z</time></trkpt><trkpt lat="45.98376475838338" lon="13.407737385957349"><ele>66.0</ele><time>2026-05-05T13:26:29Z</time></trkpt><trkpt lat="45.98381895926627" lon="13.407433999754767"><ele>66.0</ele><time>2026-05-05T13:26:30Z</time></trkpt><trkpt lat="45.983864655172454" lon="13.407141938250467"><ele>66.0</ele><time>2026-05-05T13:26:31Z</time></trkpt><trkpt lat="45.9839070895017" lon="13.4068509634426"><ele>65.66666666666667</ele><time>2026-05-05T13:26:32Z</time></trkpt><trkpt lat="45.98394735697809" lon="13.406564424007483"><ele>65.33333333333334</ele><time>2026-05-05T13:26:33Z</time></trkpt><trkpt lat="45.9839839894364" lon="13.406286200444958"><ele>65.0</ele><time>2026-05-05T13:26:34Z</time></trkpt><trkpt lat="45.98402097884642" lon="13.40601287425592"><ele>65.0</ele><time>2026-05-05T13:26:35Z</time></trkpt><trkpt lat="45.984058368247275" lon="13.405741217875573"><ele>65.0</ele><time>2026-05-05T13:26:36Z</time></trkpt><trkpt lat="45.98409569979256" lon="13.405467785227172"><ele>65.0</ele><time>2026-05-05T13:26:37Z</time></trkpt><trkpt lat="45.984134999558066" lon="13.405192139735021"><ele>64.0</ele><time>2026-05-05T13:26:38Z</time></trkpt><trkpt lat="45.98418042245501" lon="13.40491890225088"><ele>63.0</ele><time>2026-05-05T13:26:39Z</time></trkpt><trkpt lat="45.984237911150494" lon="13.404661955385274"><ele>62.0</ele><time>2026-05-05T13:26:40Z</time></trkpt><trkpt lat="45.98431491228058" lon="13.404417915223815"><ele>62.0</ele><time>2026-05-05T13:26:41Z</time></trkpt><trkpt lat="45.98440917799187" lon="13.404187671630371"><ele>62.0</ele><time>2026-05-05T13:26:42Z</time></trkpt><trkpt lat="45.98451844136579" lon="13.40397282433086"><ele>62.0</ele><time>2026-05-05T13:26:43Z</time></trkpt><trkpt lat="45.984640625669265" lon="13.40376640885646"><ele>62.333333333333336</ele><time>2026-05-05T13:26:44Z</time></trkpt><trkpt lat="45.984773160107906" lon="13.403564211467629"><ele>62.66666666666667</ele><time>2026-05-05T13:26:45Z</time></trkpt><trkpt lat="45.98491283402882" lon="13.403358791745996"><ele>63.0</ele><time>2026-05-05T13:26:46Z</time></trkpt><trkpt lat="45.98505936473297" lon="13.403142670258799"><ele>62.66666666666667</ele><time>2026-05-05T13:26:47Z</time></trkpt><trkpt lat="45.98520838839948" lon="13.402913212200586"><ele>62.333333333333336</ele><time>2026-05-05T13:26:48Z</time></trkpt><trkpt lat="45.985352420647246" lon="13.402667671748937"><ele>62.0</ele><time>2026-05-05T13:26:49Z</time></trkpt><trkpt lat="45.98548241821122" lon="13.402404725917028"><ele>61.0</ele><time>2026-05-05T13:26:50Z</time></trkpt><trkpt lat="45.98560491685152" lon="13.4021265381723"><ele>60.0</ele><time>2026-05-05T13:26:51Z</time></trkpt><trkpt lat="45.98571625028397" lon="13.401839494246007"><ele>60.0</ele><time>2026-05-05T13:26:52Z</time></trkpt><trkpt lat="45.98582755353979" lon="13.401555355008513"><ele>60.0</ele><time>2026-05-05T13:26:53Z</time></trkpt><trkpt lat="45.985937457680365" lon="13.401281002892297"><ele>60.0</ele><time>2026-05-05T13:26:54Z</time></trkpt><trkpt lat="45.98603908035781" lon="13.401028812478723"><ele>61.0</ele><time>2026-05-05T13:26:55Z</time></trkpt><trkpt lat="45.98613261727374" lon="13.400797001824676"><ele>62.0</ele><time>2026-05-05T13:26:56Z</time></trkpt><trkpt lat="45.986213768184506" lon="13.40057839896985"><ele>63.0</ele><time>2026-05-05T13:26:57Z</time></trkpt><trkpt lat="45.98629261228613" lon="13.400383504478913"><ele>63.0</ele><time>2026-05-05T13:26:58Z</time></trkpt><trkpt lat="45.98635913214895" lon="13.400213626807247"><ele>63.0</ele><time>2026-05-05T13:26:59Z</time></trkpt><trkpt lat="45.98642347390472" lon="13.400059965832048"><ele>63.0</ele><time>2026-05-05T13:27:00Z</time></trkpt><trkpt lat="45.98649254620424" lon="13.399923432255461"><ele>63.0</ele><time>2026-05-05T13:27:01Z</time></trkpt><trkpt lat="45.98656752953828" lon="13.39978046504372"><ele>62.66666666666667</ele><time>2026-05-05T13:27:02Z</time></trkpt><trkpt lat="45.98665927209836" lon="13.39963433300253"><ele>62.333333333333336</ele><time>2026-05-05T13:27:03Z</time></trkpt><trkpt lat="45.98677596662813" lon="13.399484687858775"><ele>62.0</ele><time>2026-05-05T13:27:04Z</time></trkpt><trkpt lat="45.98691714480283" lon="13.399316241413832"><ele>63.0</ele><time>2026-05-05T13:27:05Z</time></trkpt><trkpt lat="45.98706393917155" lon="13.399136518118548"><ele>64.0</ele><time>2026-05-05T13:27:06Z</time></trkpt><trkpt lat="45.987192386849806" lon="13.398982925341103"><ele>65.0</ele><time>2026-05-05T13:27:07Z</time></trkpt><trkpt lat="45.98730735784572" lon="13.398846053466267"><ele>64.33333333333334</ele><time>2026-05-05T13:27:08Z</time></trkpt><trkpt lat="45.987420396385744" lon="13.398717632331675"><ele>63.66666666666667</ele><time>2026-05-05T13:27:09Z</time></trkpt><trkpt lat="45.98753602229961" lon="13.398582742979793"><ele>63.0</ele><time>2026-05-05T13:27:10Z</time></trkpt><trkpt lat="45.98766204461733" lon="13.398447214897985"><ele>63.0</ele><time>2026-05-05T13:27:11Z</time></trkpt><trkpt lat="45.987797201864005" lon="13.398308845745946"><ele>63.0</ele><time>2026-05-05T13:27:12Z</time></trkpt><trkpt lat="45.98794264844832" lon="13.398172170038638"><ele>63.0</ele><time>2026-05-05T13:27:13Z</time></trkpt><trkpt lat="45.98808957379266" lon="13.398040774918151"><ele>63.33333333333333</ele><time>2026-05-05T13:27:14Z</time></trkpt><trkpt lat="45.98824898220945" lon="13.397930266863566"><ele>63.666666666666664</ele><time>2026-05-05T13:27:15Z</time></trkpt><trkpt lat="45.98840149547795" lon="13.397835073721888"><ele>64.0</ele><time>2026-05-05T13:27:16Z</time></trkpt><trkpt lat="45.98855671073989" lon="13.397743026288124"><ele>64.0</ele><time>2026-05-05T13:27:17Z</time></trkpt><trkpt lat="45.988710067383145" lon="13.39764583139811"><ele>64.0</ele><time>2026-05-05T13:27:18Z</time></trkpt><trkpt lat="45.98886197050067" lon="13.39755774793099"><ele>64.0</ele><time>2026-05-05T13:27:19Z</time></trkpt><trkpt lat="45.98901080507286" lon="13.39747290147642"><ele>64.0</ele><time>2026-05-05T13:27:20Z</time></trkpt><trkpt lat="45.98916107127556" lon="13.397393455304169"><ele>64.0</ele><time>2026-05-05T13:27:21Z</time></trkpt><trkpt lat="45.98930696937419" lon="13.39733163009464"><ele>64.0</ele><time>2026-05-05T13:27:22Z</time></trkpt><trkpt lat="45.98945223467661" lon="13.397292079607949"><ele>63.75</ele><time>2026-05-05T13:27:23Z</time></trkpt><trkpt lat="45.989594283028055" lon="13.397269163738041"><ele>63.5</ele><time>2026-05-05T13:27:24Z</time></trkpt><trkpt lat="45.98973701734407" lon="13.397246613854369"><ele>63.25</ele><time>2026-05-05T13:27:25Z</time></trkpt><trkpt lat="45.989885979204864" lon="13.397219390345253"><ele>63.0</ele><time>2026-05-05T13:27:26Z</time></trkpt><trkpt lat="45.99003027593615" lon="13.397184548821873"><ele>63.25</ele><time>2026-05-05T13:27:27Z</time></trkpt><trkpt lat="45.99016890395958" lon="13.397135075174573"><ele>63.5</ele><time>2026-05-05T13:27:28Z</time></trkpt><trkpt lat="45.99029919730793" lon="13.397058504261588"><ele>63.75</ele><time>2026-05-05T13:27:29Z</time></trkpt><trkpt lat="45.99041660346846" lon="13.39695670243894"><ele>64.0</ele><time>2026-05-05T13:27:30Z</time></trkpt><trkpt lat="45.990517794710925" lon="13.396821975134035"><ele>64.0</ele><time>2026-05-05T13:27:31Z</time></trkpt><trkpt lat="45.99060957460614" lon="13.39665840422864"><ele>64.0</ele><time>2026-05-05T13:27:32Z</time></trkpt><trkpt lat="45.99069471101125" lon="13.396474214862081"><ele>64.0</ele><time>2026-05-05T13:27:33Z</time></trkpt><trkpt lat="45.99077214668107" lon="13.396253507159555"><ele>64.33333333333333</ele><time>2026-05-05T13:27:34Z</time></trkpt><trkpt lat="45.99085215686337" lon="13.396017608953215"><ele>64.66666666666667</ele><time>2026-05-05T13:27:35Z</time></trkpt><trkpt lat="45.99093647967683" lon="13.395783741996292"><ele>65.0</ele><time>2026-05-05T13:27:36Z</time></trkpt><trkpt lat="45.99102083231838" lon="13.395577163946541"><ele>65.0</ele><time>2026-05-05T13:27:37Z</time></trkpt><trkpt lat="45.991097250093894" lon="13.395378863090794"><ele>65.0</ele><time>2026-05-05T13:27:38Z</time></trkpt><trkpt lat="45.99117098189351" lon="13.395183082450961"><ele>65.0</ele><time>2026-05-05T13:27:39Z</time></trkpt><trkpt lat="45.9912473514748" lon="13.394986936688356"><ele>65.0</ele><time>2026-05-05T13:27:40Z</time></trkpt><trkpt lat="45.99132794630061" lon="13.394796827472414"><ele>65.0</ele><time>2026-05-05T13:27:41Z</time></trkpt><trkpt lat="45.99140883361964" lon="13.39462522787376"><ele>65.0</ele><time>2026-05-05T13:27:42Z</time></trkpt><trkpt lat="45.991491615960925" lon="13.394462292954378"><ele>65.0</ele><time>2026-05-05T13:27:43Z</time></trkpt><trkpt lat="45.99157854376742" lon="13.394302447506055"><ele>65.25</ele><time>2026-05-05T13:27:44Z</time></trkpt><trkpt lat="45.99166728309276" lon="13.394143073320421"><ele>65.5</ele><time>2026-05-05T13:27:45Z</time></trkpt><trkpt lat="45.99175108122425" lon="13.393985744638334"><ele>65.75</ele><time>2026-05-05T13:27:46Z</time></trkpt><trkpt lat="45.99183643275324" lon="13.393823484748177"><ele>66.0</ele><time>2026-05-05T13:27:47Z</time></trkpt><trkpt lat="45.991921991993536" lon="13.393663020276705"><ele>66.25</ele><time>2026-05-05T13:27:48Z</time></trkpt><trkpt lat="45.99200321757169" lon="13.393515707232368"><ele>66.5</ele><time>2026-05-05T13:27:49Z</time></trkpt><trkpt lat="45.992083604213526" lon="13.393377289473127"><ele>66.75</ele><time>2026-05-05T13:27:50Z</time></trkpt><trkpt lat="45.992169035349455" lon="13.393242266545359"><ele>67.0</ele><time>2026-05-05T13:27:51Z</time></trkpt><trkpt lat="45.99224636972036" lon="13.393121230960974"><ele>67.0</ele><time>2026-05-05T13:27:52Z</time></trkpt><trkpt lat="45.99231565766958" lon="13.393008879802965"><ele>67.0</ele><time>2026-05-05T13:27:53Z</time></trkpt><trkpt lat="45.99239314548233" lon="13.392918286033217"><ele>67.0</ele><time>2026-05-05T13:27:54Z</time></trkpt><trkpt lat="45.99247589315193" lon="13.39282769046726"><ele>67.0</ele><time>2026-05-05T13:27:55Z</time></trkpt><trkpt lat="45.99255029869157" lon="13.392746219265831"><ele>67.0</ele><time>2026-05-05T13:27:56Z</time></trkpt><trkpt lat="45.992615923300114" lon="13.392675775633926"><ele>67.5</ele><time>2026-05-05T13:27:57Z</time></trkpt><trkpt lat="45.99267588491331" lon="13.392618096709343"><ele>68.0</ele><time>2026-05-05T13:27:58Z</time></trkpt><trkpt lat="45.99273860136681" lon="13.392591235531063"><ele>68.5</ele><time>2026-05-05T13:27:59Z</time></trkpt><trkpt lat="45.992834288436306" lon="13.392508562970088"><ele>69.0</ele><time>2026-05-05T13:28:01Z</time></trkpt><trkpt lat="45.99275106359461" lon="13.392238639528493"><ele>69.2</ele><time>2026-05-05T13:28:03Z</time></trkpt><trkpt lat="45.99269496086943" lon="13.39216738113951"><ele>69.4</ele><time>2026-05-05T13:28:04Z</time></trkpt><trkpt lat="45.99262114020408" lon="13.392089465722984"><ele>69.6</ele><time>2026-05-05T13:28:05Z</time></trkpt><trkpt lat="45.992533560865255" lon="13.392004109916453"><ele>69.8</ele><time>2026-05-05T13:28:06Z</time></trkpt><trkpt lat="45.99243132335785" lon="13.391895315009085"><ele>70.0</ele><time>2026-05-05T13:28:07Z</time></trkpt><trkpt lat="45.99231919845674" lon="13.391766772042736"><ele>69.5</ele><time>2026-05-05T13:28:08Z</time></trkpt><trkpt lat="45.99219910633123" lon="13.391629234873934"><ele>69.0</ele><time>2026-05-05T13:28:09Z</time></trkpt><trkpt lat="45.992095532641386" lon="13.391492746967996"><ele>68.5</ele><time>2026-05-05T13:28:10Z</time></trkpt><trkpt lat="45.99197963300985" lon="13.391373044347297"><ele>68.0</ele><time>2026-05-05T13:28:11Z</time></trkpt><trkpt lat="45.99187273791752" lon="13.391255907122263"><ele>67.8</ele><time>2026-05-05T13:28:12Z</time></trkpt><trkpt lat="45.99178906918131" lon="13.391152861372968"><ele>67.6</ele><time>2026-05-05T13:28:13Z</time></trkpt><trkpt lat="45.991718750181306" lon="13.391066721590636"><ele>67.4</ele><time>2026-05-05T13:28:14Z</time></trkpt><trkpt lat="45.99164241757028" lon="13.390979358673187"><ele>67.2</ele><time>2026-05-05T13:28:15Z</time></trkpt><trkpt lat="45.99155809654982" lon="13.390887455692354"><ele>67.0</ele><time>2026-05-05T13:28:16Z</time></trkpt><trkpt lat="45.99147659967298" lon="13.39079972061002"><ele>65.5</ele><time>2026-05-05T13:28:17Z</time></trkpt><trkpt lat="45.99139620388473" lon="13.39071837617981"><ele>64.0</ele><time>2026-05-05T13:28:18Z</time></trkpt><trkpt lat="45.99130382361618" lon="13.390639346703844"><ele>62.5</ele><time>2026-05-05T13:28:19Z</time></trkpt><trkpt lat="45.991188023208274" lon="13.390573726862172"><ele>61.0</ele><time>2026-05-05T13:28:20Z</time></trkpt><trkpt lat="45.99105190927361" lon="13.390525074207455"><ele>62.0</ele><time>2026-05-05T13:28:21Z</time></trkpt><trkpt lat="45.990900456367285" lon="13.390491551012863"><ele>63.0</ele><time>2026-05-05T13:28:22Z</time></trkpt><trkpt lat="45.99072960035073" lon="13.390494266402097"><ele>64.0</ele><time>2026-05-05T13:28:23Z</time></trkpt><trkpt lat="45.99055074310769" lon="13.39052759994364"><ele>64.0</ele><time>2026-05-05T13:28:24Z</time></trkpt><trkpt lat="45.99036314791881" lon="13.390576456207693"><ele>64.0</ele><time>2026-05-05T13:28:25Z</time></trkpt><trkpt lat="45.99018280934154" lon="13.390611199107509"><ele>64.0</ele><time>2026-05-05T13:28:26Z</time></trkpt><trkpt lat="45.99000122550475" lon="13.390624834262264"><ele>63.666666666666664</ele><time>2026-05-05T13:28:27Z</time></trkpt><trkpt lat="45.98982321657184" lon="13.39058896597796"><ele>63.33333333333333</ele><time>2026-05-05T13:28:28Z</time></trkpt><trkpt lat="45.98965729913878" lon="13.390507426226552"><ele>63.0</ele><time>2026-05-05T13:28:29Z</time></trkpt><trkpt lat="45.98950753328919" lon="13.390397362156577"><ele>63.66666666666667</ele><time>2026-05-05T13:28:30Z</time></trkpt><trkpt lat="45.9893587838468" lon="13.390277812132686"><ele>64.33333333333334</ele><time>2026-05-05T13:28:31Z</time></trkpt><trkpt lat="45.989198825152" lon="13.390158501598604"><ele>65.0</ele><time>2026-05-05T13:28:32Z</time></trkpt><trkpt lat="45.98902762057246" lon="13.390053769131375"><ele>65.0</ele><time>2026-05-05T13:28:33Z</time></trkpt><trkpt lat="45.98885118360954" lon="13.389992145781378"><ele>65.0</ele><time>2026-05-05T13:28:34Z</time></trkpt><trkpt lat="45.988665655085306" lon="13.389973776629008"><ele>65.0</ele><time>2026-05-05T13:28:35Z</time></trkpt><trkpt lat="45.988480771521154" lon="13.39000338428871"><ele>65.0</ele><time>2026-05-05T13:28:36Z</time></trkpt><trkpt lat="45.98829933359399" lon="13.390060757277825"><ele>65.0</ele><time>2026-05-05T13:28:37Z</time></trkpt><trkpt lat="45.98811911183966" lon="13.390120761347864"><ele>65.0</ele><time>2026-05-05T13:28:38Z</time></trkpt><trkpt lat="45.98794776280946" lon="13.390175417680283"><ele>65.0</ele><time>2026-05-05T13:28:39Z</time></trkpt><trkpt lat="45.987793773927145" lon="13.390213389816116"><ele>65.0</ele><time>2026-05-05T13:28:40Z</time></trkpt><trkpt lat="45.98764956934134" lon="13.390217775346526"><ele>65.0</ele><time>2026-05-05T13:28:41Z</time></trkpt><trkpt lat="45.987518208287554" lon="13.390178774462361"><ele>65.0</ele><time>2026-05-05T13:28:42Z</time></trkpt><trkpt lat="45.987400163140805" lon="13.390091393905575"><ele>65.0</ele><time>2026-05-05T13:28:43Z</time></trkpt><trkpt lat="45.98729671216289" lon="13.389970494773069"><ele>65.0</ele><time>2026-05-05T13:28:44Z</time></trkpt><trkpt lat="45.98718091060701" lon="13.389805131648354"><ele>65.0</ele><time>2026-05-05T13:28:45Z</time></trkpt><trkpt lat="45.987054860396114" lon="13.389612169790134"><ele>65.33333333333334</ele><time>2026-05-05T13:28:46Z</time></trkpt><trkpt lat="45.98692287806743" lon="13.389396537135134"><ele>65.66666666666667</ele><time>2026-05-05T13:28:47Z</time></trkpt><trkpt lat="45.986785768567124" lon="13.389184675941193"><ele>66.0</ele><time>2026-05-05T13:28:48Z</time></trkpt><trkpt lat="45.98664725892913" lon="13.38898236044654"><ele>65.0</ele><time>2026-05-05T13:28:49Z</time></trkpt><trkpt lat="45.98651470211489" lon="13.388786034214226"><ele>64.0</ele><time>2026-05-05T13:28:50Z</time></trkpt><trkpt lat="45.98637573273121" lon="13.388589966940202"><ele>63.0</ele><time>2026-05-05T13:28:51Z</time></trkpt><trkpt lat="45.986225359583635" lon="13.388394451970473"><ele>63.0</ele><time>2026-05-05T13:28:52Z</time></trkpt><trkpt lat="45.98606519091529" lon="13.38818786338397"><ele>63.0</ele><time>2026-05-05T13:28:53Z</time></trkpt><trkpt lat="45.985916867574524" lon="13.387988517745878"><ele>63.0</ele><time>2026-05-05T13:28:54Z</time></trkpt><trkpt lat="45.98578208399087" lon="13.387798997155457"><ele>62.66666666666667</ele><time>2026-05-05T13:28:55Z</time></trkpt><trkpt lat="45.985655644555614" lon="13.387627277610116"><ele>62.333333333333336</ele><time>2026-05-05T13:28:56Z</time></trkpt><trkpt lat="45.985535331350974" lon="13.387454026974943"><ele>62.0</ele><time>2026-05-05T13:28:57Z</time></trkpt><trkpt lat="45.98543410019769" lon="13.387253077032543"><ele>62.333333333333336</ele><time>2026-05-05T13:28:58Z</time></trkpt><trkpt lat="45.98533919472983" lon="13.387036271831445"><ele>62.66666666666667</ele><time>2026-05-05T13:28:59Z</time></trkpt><trkpt lat="45.985245875334066" lon="13.386815440114006"><ele>63.0</ele><time>2026-05-05T13:29:00Z</time></trkpt><trkpt lat="45.98516833800557" lon="13.386588119850021"><ele>63.0</ele><time>2026-05-05T13:29:01Z</time></trkpt><trkpt lat="45.98509824047226" lon="13.386359826297321"><ele>63.0</ele><time>2026-05-05T13:29:02Z</time></trkpt><trkpt lat="45.98503541262251" lon="13.386135463062743"><ele>63.0</ele><time>2026-05-05T13:29:03Z</time></trkpt><trkpt lat="45.98497903065793" lon="13.385907652047086"><ele>62.33333333333333</ele><time>2026-05-05T13:29:04Z</time></trkpt><trkpt lat="45.98492286554221" lon="13.385671585941541"><ele>61.666666666666664</ele><time>2026-05-05T13:29:05Z</time></trkpt><trkpt lat="45.984870065286465" lon="13.385424556863635"><ele>61.0</ele><time>2026-05-05T13:29:06Z</time></trkpt><trkpt lat="45.98481515831496" lon="13.385186430269943"><ele>60.666666666666664</ele><time>2026-05-05T13:29:07Z</time></trkpt><trkpt lat="45.984764291408" lon="13.384937566641057"><ele>60.33333333333333</ele><time>2026-05-05T13:29:08Z</time></trkpt><trkpt lat="45.98471486976292" lon="13.384686735499598"><ele>60.0</ele><time>2026-05-05T13:29:09Z</time></trkpt><trkpt lat="45.98466444495518" lon="13.38443940277848"><ele>60.0</ele><time>2026-05-05T13:29:10Z</time></trkpt><trkpt lat="45.9846110191521" lon="13.384200603514806"><ele>60.0</ele><time>2026-05-05T13:29:11Z</time></trkpt><trkpt lat="45.98456245694962" lon="13.383962365632348"><ele>60.0</ele><time>2026-05-05T13:29:12Z</time></trkpt><trkpt lat="45.98451528235869" lon="13.38372663944506"><ele>61.0</ele><time>2026-05-05T13:29:13Z</time></trkpt><trkpt lat="45.98445733191233" lon="13.383495280021325"><ele>62.0</ele><time>2026-05-05T13:29:14Z</time></trkpt><trkpt lat="45.984388497535996" lon="13.383277950887612"><ele>63.0</ele><time>2026-05-05T13:29:15Z</time></trkpt><trkpt lat="45.9843095786001" lon="13.383095609488441"><ele>62.66666666666667</ele><time>2026-05-05T13:29:16Z</time></trkpt><trkpt lat="45.98420981594428" lon="13.382938837714896"><ele>62.333333333333336</ele><time>2026-05-05T13:29:17Z</time></trkpt><trkpt lat="45.98409490741947" lon="13.38280409362691"><ele>62.0</ele><time>2026-05-05T13:29:18Z</time></trkpt><trkpt lat="45.98396518539542" lon="13.382669433894964"><ele>61.0</ele><time>2026-05-05T13:29:19Z</time></trkpt><trkpt lat="45.98383937174808" lon="13.382541377822829"><ele>60.0</ele><time>2026-05-05T13:29:20Z</time></trkpt><trkpt lat="45.98370198381781" lon="13.382391080447409"><ele>59.0</ele><time>2026-05-05T13:29:21Z</time></trkpt><trkpt lat="45.983583196518275" lon="13.382254856434272"><ele>59.0</ele><time>2026-05-05T13:29:22Z</time></trkpt><trkpt lat="45.98347427336838" lon="13.382132889787957"><ele>59.0</ele><time>2026-05-05T13:29:23Z</time></trkpt><trkpt lat="45.983373131975156" lon="13.382019525622205"><ele>59.0</ele><time>2026-05-05T13:29:24Z</time></trkpt><trkpt lat="45.98327915842379" lon="13.381916503746657"><ele>59.0</ele><time>2026-05-05T13:29:25Z</time></trkpt><trkpt lat="45.98318840908778" lon="13.381819440828936"><ele>58.25</ele><time>2026-05-05T13:29:26Z</time></trkpt><trkpt lat="45.98309620002407" lon="13.381720072666647"><ele>57.5</ele><time>2026-05-05T13:29:27Z</time></trkpt><trkpt lat="45.982997259498084" lon="13.381615407735412"><ele>56.75</ele><time>2026-05-05T13:29:28Z</time></trkpt><trkpt lat="45.98289525385382" lon="13.381506699674924"><ele>56.0</ele><time>2026-05-05T13:29:29Z</time></trkpt><trkpt lat="45.98279924885276" lon="13.38139909438849"><ele>56.0</ele><time>2026-05-05T13:29:30Z</time></trkpt><trkpt lat="45.98270989364244" lon="13.381295170888025"><ele>55.99999999999999</ele><time>2026-05-05T13:29:31Z</time></trkpt><trkpt lat="45.98262257901878" lon="13.38118837872838"><ele>55.99999999999999</ele><time>2026-05-05T13:29:32Z</time></trkpt><trkpt lat="45.982547745324965" lon="13.38107791133487"><ele>56.0</ele><time>2026-05-05T13:29:33Z</time></trkpt><trkpt lat="45.9824907873387" lon="13.380957638483197"><ele>56.0</ele><time>2026-05-05T13:29:34Z</time></trkpt><trkpt lat="45.98245448959206" lon="13.380817740592889"><ele>56.0</ele><time>2026-05-05T13:29:35Z</time></trkpt><trkpt lat="45.98243460703091" lon="13.380665192984946"><ele>55.99999999999999</ele><time>2026-05-05T13:29:36Z</time></trkpt><trkpt lat="45.98241992102784" lon="13.380512913981688"><ele>55.99999999999999</ele><time>2026-05-05T13:29:37Z</time></trkpt><trkpt lat="45.982402733292645" lon="13.380352741442536"><ele>56.0</ele><time>2026-05-05T13:29:38Z</time></trkpt><trkpt lat="45.98239844933836" lon="13.38018115166928"><ele>56.0</ele><time>2026-05-05T13:29:39Z</time></trkpt><trkpt lat="45.982420206344614" lon="13.380023762168936"><ele>56.25</ele><time>2026-05-05T13:29:40Z</time></trkpt><trkpt lat="45.982474604729305" lon="13.37987736496627"><ele>56.5</ele><time>2026-05-05T13:29:41Z</time></trkpt><trkpt lat="45.982544772163514" lon="13.379727008314562"><ele>56.75</ele><time>2026-05-05T13:29:42Z</time></trkpt><trkpt lat="45.98263797376536" lon="13.37954685277981"><ele>57.0</ele><time>2026-05-05T13:29:43Z</time></trkpt><trkpt lat="45.9827397790546" lon="13.379350888790961"><ele>58.0</ele><time>2026-05-05T13:29:44Z</time></trkpt><trkpt lat="45.98285295610084" lon="13.379137249204383"><ele>59.0</ele><time>2026-05-05T13:29:45Z</time></trkpt><trkpt lat="45.98296497647603" lon="13.378925999570056"><ele>60.0</ele><time>2026-05-05T13:29:46Z</time></trkpt><trkpt lat="45.98307694277441" lon="13.378721668580518"><ele>60.0</ele><time>2026-05-05T13:29:47Z</time></trkpt><trkpt lat="45.98318264060126" lon="13.378525297781435"><ele>60.0</ele><time>2026-05-05T13:29:48Z</time></trkpt><trkpt lat="45.98328610093302" lon="13.378333593131178"><ele>60.0</ele><time>2026-05-05T13:29:49Z</time></trkpt><trkpt lat="45.983386713443224" lon="13.378146981660922"><ele>60.0</ele><time>2026-05-05T13:29:50Z</time></trkpt><trkpt lat="45.983481938566754" lon="13.377965862395456"><ele>60.0</ele><time>2026-05-05T13:29:51Z</time></trkpt><trkpt lat="45.983576802019" lon="13.377797760189065"><ele>60.0</ele><time>2026-05-05T13:29:52Z</time></trkpt><trkpt lat="45.9836721866439" lon="13.37762808480376"><ele>60.0</ele><time>2026-05-05T13:29:53Z</time></trkpt><trkpt lat="45.98376952009025" lon="13.377452639455722"><ele>60.0</ele><time>2026-05-05T13:29:54Z</time></trkpt><trkpt lat="45.983863757740906" lon="13.37727570114569"><ele>60.0</ele><time>2026-05-05T13:29:55Z</time></trkpt><trkpt lat="45.98395676406647" lon="13.377094434794762"><ele>60.0</ele><time>2026-05-05T13:29:56Z</time></trkpt><trkpt lat="45.98404915177539" lon="13.376920182923563"><ele>60.0</ele><time>2026-05-05T13:29:57Z</time></trkpt><trkpt lat="45.9841475310363" lon="13.376734789831767"><ele>60.0</ele><time>2026-05-05T13:29:58Z</time></trkpt><trkpt lat="45.98424740866602" lon="13.37654302391729"><ele>60.0</ele><time>2026-05-05T13:29:59Z</time></trkpt><trkpt lat="45.98434803794996" lon="13.376351087728315"><ele>60.0</ele><time>2026-05-05T13:30:00Z</time></trkpt><trkpt lat="45.98445095277196" lon="13.376150300280443"><ele>60.0</ele><time>2026-05-05T13:30:01Z</time></trkpt><trkpt lat="45.98455587986828" lon="13.375940326273467"><ele>60.0</ele><time>2026-05-05T13:30:02Z</time></trkpt><trkpt lat="45.98466559459629" lon="13.375732846618103"><ele>60.0</ele><time>2026-05-05T13:30:03Z</time></trkpt><trkpt lat="45.98477395521092" lon="13.375527313058814"><ele>60.0</ele><time>2026-05-05T13:30:04Z</time></trkpt><trkpt lat="45.984883092499814" lon="13.375330909071584"><ele>60.0</ele><time>2026-05-05T13:30:05Z</time></trkpt><trkpt lat="45.98498960643038" lon="13.375135591526815"><ele>60.0</ele><time>2026-05-05T13:30:06Z</time></trkpt><trkpt lat="45.98509676433936" lon="13.374932050626398"><ele>60.0</ele><time>2026-05-05T13:30:07Z</time></trkpt><trkpt lat="45.98520016437566" lon="13.37472921777013"><ele>61.33333333333333</ele><time>2026-05-05T13:30:08Z</time></trkpt><trkpt lat="45.985305641407" lon="13.374529811888635"><ele>62.666666666666664</ele><time>2026-05-05T13:30:09Z</time></trkpt><trkpt lat="45.98540617420562" lon="13.374333765957129"><ele>64.0</ele><time>2026-05-05T13:30:10Z</time></trkpt><trkpt lat="45.98550431791429" lon="13.374152632806389"><ele>64.0</ele><time>2026-05-05T13:30:11Z</time></trkpt><trkpt lat="45.98560050586667" lon="13.373971836547451"><ele>64.0</ele><time>2026-05-05T13:30:12Z</time></trkpt><trkpt lat="45.98569116912926" lon="13.373802175531171"><ele>64.0</ele><time>2026-05-05T13:30:13Z</time></trkpt><trkpt lat="45.985780775565324" lon="13.373632547243671"><ele>64.25</ele><time>2026-05-05T13:30:14Z</time></trkpt><trkpt lat="45.985868864330214" lon="13.373466742491878"><ele>64.5</ele><time>2026-05-05T13:30:15Z</time></trkpt><trkpt lat="45.98595627995768" lon="13.373317608653961"><ele>64.75</ele><time>2026-05-05T13:30:16Z</time></trkpt><trkpt lat="45.98603526416779" lon="13.373182511484048"><ele>65.0</ele><time>2026-05-05T13:30:17Z</time></trkpt><trkpt lat="45.9861109741829" lon="13.373062555095249"><ele>65.16666666666667</ele><time>2026-05-05T13:30:18Z</time></trkpt><trkpt lat="45.98618000071669" lon="13.372968404053259"><ele>65.33333333333334</ele><time>2026-05-05T13:30:19Z</time></trkpt><trkpt lat="45.98623184144853" lon="13.372889648577146"><ele>65.5</ele><time>2026-05-05T13:30:20Z</time></trkpt><trkpt lat="45.986295928700955" lon="13.372805956898041"><ele>65.66666666666667</ele><time>2026-05-05T13:30:21Z</time></trkpt><trkpt lat="45.98636937869681" lon="13.37272199966555"><ele>65.83333333333333</ele><time>2026-05-05T13:30:22Z</time></trkpt><trkpt lat="45.986428602477524" lon="13.372634283112577"><ele>66.0</ele><time>2026-05-05T13:30:23Z</time></trkpt><trkpt lat="45.98646650546266" lon="13.37253118087506"><ele>66.0</ele><time>2026-05-05T13:30:24Z</time></trkpt><trkpt lat="45.986489845574134" lon="13.372405806071015"><ele>66.0</ele><time>2026-05-05T13:30:25Z</time></trkpt><trkpt lat="45.98652182024897" lon="13.372261129553118"><ele>66.0</ele><time>2026-05-05T13:30:26Z</time></trkpt><trkpt lat="45.9865847906424" lon="13.37211830569198"><ele>66.0</ele><time>2026-05-05T13:30:27Z</time></trkpt><trkpt lat="45.98666622871753" lon="13.371950466795196"><ele>65.66666666666667</ele><time>2026-05-05T13:30:28Z</time></trkpt><trkpt lat="45.98678288215269" lon="13.371776766464807"><ele>65.33333333333334</ele><time>2026-05-05T13:30:29Z</time></trkpt><trkpt lat="45.98688138621951" lon="13.37155473187812"><ele>65.0</ele><time>2026-05-05T13:30:30Z</time></trkpt><trkpt lat="45.987009673553544" lon="13.371330032918207"><ele>65.0</ele><time>2026-05-05T13:30:31Z</time></trkpt><trkpt lat="45.98713384027763" lon="13.371090728663933"><ele>65.0</ele><time>2026-05-05T13:30:32Z</time></trkpt><trkpt lat="45.98725996171456" lon="13.370857776491711"><ele>65.0</ele><time>2026-05-05T13:30:33Z</time></trkpt><trkpt lat="45.98738251754918" lon="13.370633190868082"><ele>65.0</ele><time>2026-05-05T13:30:34Z</time></trkpt><trkpt lat="45.987502558837065" lon="13.370408707931606"><ele>65.0</ele><time>2026-05-05T13:30:35Z</time></trkpt><trkpt lat="45.9876186431532" lon="13.370189378187192"><ele>65.0</ele><time>2026-05-05T13:30:36Z</time></trkpt><trkpt lat="45.9877406989693" lon="13.36997049567942"><ele>64.5</ele><time>2026-05-05T13:30:37Z</time></trkpt><trkpt lat="45.98786748547123" lon="13.369724785832378"><ele>64.0</ele><time>2026-05-05T13:30:38Z</time></trkpt><trkpt lat="45.98803094437645" lon="13.36945355177717"><ele>63.5</ele><time>2026-05-05T13:30:39Z</time></trkpt><trkpt lat="45.988197753471134" lon="13.369142671220128"><ele>63.0</ele><time>2026-05-05T13:30:40Z</time></trkpt><trkpt lat="45.98837247201245" lon="13.368815117236814"><ele>63.0</ele><time>2026-05-05T13:30:41Z</time></trkpt><trkpt lat="45.98854088864643" lon="13.36849821032075"><ele>63.0</ele><time>2026-05-05T13:30:42Z</time></trkpt><trkpt lat="45.98869434951552" lon="13.368211927289737"><ele>62.66666666666667</ele><time>2026-05-05T13:30:43Z</time></trkpt><trkpt lat="45.9888266460891" lon="13.367938291654538"><ele>62.333333333333336</ele><time>2026-05-05T13:30:44Z</time></trkpt><trkpt lat="45.98895813704437" lon="13.367692852224774"><ele>62.0</ele><time>2026-05-05T13:30:45Z</time></trkpt><trkpt lat="45.98908152812879" lon="13.3674655578151"><ele>62.0</ele><time>2026-05-05T13:30:46Z</time></trkpt><trkpt lat="45.989193131349964" lon="13.36725865229976"><ele>62.0</ele><time>2026-05-05T13:30:47Z</time></trkpt><trkpt lat="45.989291734900775" lon="13.367068711684576"><ele>62.0</ele><time>2026-05-05T13:30:48Z</time></trkpt><trkpt lat="45.9893852088634" lon="13.366898487863027"><ele>62.0</ele><time>2026-05-05T13:30:49Z</time></trkpt><trkpt lat="45.989470314641224" lon="13.366745005544779"><ele>62.0</ele><time>2026-05-05T13:30:50Z</time></trkpt><trkpt lat="45.98954655914848" lon="13.366612553331024"><ele>62.0</ele><time>2026-05-05T13:30:51Z</time></trkpt><trkpt lat="45.98961639540871" lon="13.366505762832666"><ele>62.0</ele><time>2026-05-05T13:30:52Z</time></trkpt><trkpt lat="45.98969343154051" lon="13.366430278668975"><ele>62.0</ele><time>2026-05-05T13:30:53Z</time></trkpt><trkpt lat="45.98978370462044" lon="13.366383017379036"><ele>62.0</ele><time>2026-05-05T13:30:54Z</time></trkpt><trkpt lat="45.98987040515775" lon="13.36634106546713"><ele>62.0</ele><time>2026-05-05T13:30:55Z</time></trkpt><trkpt lat="45.98993830188267" lon="13.36625659866932"><ele>62.0</ele><time>2026-05-05T13:30:56Z</time></trkpt><trkpt lat="45.98997629091497" lon="13.366128190952383"><ele>62.0</ele><time>2026-05-05T13:30:57Z</time></trkpt><trkpt lat="45.98998620862052" lon="13.365980450796155"><ele>61.75</ele><time>2026-05-05T13:30:58Z</time></trkpt><trkpt lat="45.99000054824342" lon="13.365818466230285"><ele>61.5</ele><time>2026-05-05T13:30:59Z</time></trkpt><trkpt lat="45.99004455583932" lon="13.365653817403619"><ele>61.25</ele><time>2026-05-05T13:31:00Z</time></trkpt><trkpt lat="45.990136316045" lon="13.365512619101088"><ele>61.0</ele><time>2026-05-05T13:31:01Z</time></trkpt><trkpt lat="45.99022571478898" lon="13.365321227253872"><ele>61.666666666666664</ele><time>2026-05-05T13:31:02Z</time></trkpt><trkpt lat="45.99033695941865" lon="13.365118695511898"><ele>62.33333333333333</ele><time>2026-05-05T13:31:03Z</time></trkpt><trkpt lat="45.99045185836963" lon="13.364885448714771"><ele>63.0</ele><time>2026-05-05T13:31:04Z</time></trkpt><trkpt lat="45.99058980788427" lon="13.36462480028245"><ele>63.0</ele><time>2026-05-05T13:31:05Z</time></trkpt><trkpt lat="45.99073205778379" lon="13.364380180761977"><ele>63.0</ele><time>2026-05-05T13:31:06Z</time></trkpt><trkpt lat="45.990856161285876" lon="13.364163874350854"><ele>63.0</ele><time>2026-05-05T13:31:07Z</time></trkpt><trkpt lat="45.990964918422364" lon="13.363958310556828"><ele>63.0</ele><time>2026-05-05T13:31:08Z</time></trkpt><trkpt lat="45.9910716524282" lon="13.363753198094397"><ele>63.0</ele><time>2026-05-05T13:31:09Z</time></trkpt><trkpt lat="45.991181544375685" lon="13.363548027789916"><ele>63.0</ele><time>2026-05-05T13:31:10Z</time></trkpt><trkpt lat="45.991294549806426" lon="13.363334341026594"><ele>63.0</ele><time>2026-05-05T13:31:11Z</time></trkpt><trkpt lat="45.991407419496134" lon="13.36312391066994"><ele>63.0</ele><time>2026-05-05T13:31:12Z</time></trkpt><trkpt lat="45.99151006016474" lon="13.362926887775743"><ele>63.0</ele><time>2026-05-05T13:31:13Z</time></trkpt><trkpt lat="45.99161081768007" lon="13.36273510222759"><ele>63.0</ele><time>2026-05-05T13:31:14Z</time></trkpt><trkpt lat="45.99171930587456" lon="13.362533161707978"><ele>63.0</ele><time>2026-05-05T13:31:15Z</time></trkpt><trkpt lat="45.99183385369516" lon="13.36232641879131"><ele>63.0</ele><time>2026-05-05T13:31:16Z</time></trkpt><trkpt lat="45.99195003821052" lon="13.362108622292789"><ele>63.0</ele><time>2026-05-05T13:31:17Z</time></trkpt><trkpt lat="45.99206895812719" lon="13.36188169653902"><ele>63.0</ele><time>2026-05-05T13:31:18Z</time></trkpt><trkpt lat="45.99220012517161" lon="13.361615103213229"><ele>63.0</ele><time>2026-05-05T13:31:19Z</time></trkpt><trkpt lat="45.992370068691386" lon="13.361334120097121"><ele>64.0</ele><time>2026-05-05T13:31:20Z</time></trkpt><trkpt lat="45.99253241435174" lon="13.361029667515892"><ele>65.0</ele><time>2026-05-05T13:31:21Z</time></trkpt><trkpt lat="45.992672146635286" lon="13.360689403918013"><ele>65.5</ele><time>2026-05-05T13:31:22Z</time></trkpt><trkpt lat="45.99284338651432" lon="13.360375982603918"><ele>66.0</ele><time>2026-05-05T13:31:23Z</time></trkpt><trkpt lat="45.993020140585614" lon="13.36005529960376"><ele>66.0</ele><time>2026-05-05T13:31:24Z</time></trkpt><trkpt lat="45.99320358247641" lon="13.35973369973263"><ele>66.0</ele><time>2026-05-05T13:31:25Z</time></trkpt><trkpt lat="45.993388743073965" lon="13.35941635306361"><ele>66.5</ele><time>2026-05-05T13:31:26Z</time></trkpt><trkpt lat="45.9935739839028" lon="13.359083861389317"><ele>67.0</ele><time>2026-05-05T13:31:27Z</time></trkpt><trkpt lat="45.9937634250469" lon="13.358735229731124"><ele>66.0</ele><time>2026-05-05T13:31:28Z</time></trkpt><trkpt lat="45.993958752865" lon="13.358371484260237"><ele>65.0</ele><time>2026-05-05T13:31:29Z</time></trkpt><trkpt lat="45.99415722247263" lon="13.3580051256412"><ele>62.5</ele><time>2026-05-05T13:31:30Z</time></trkpt><trkpt lat="45.99435662791014" lon="13.357633885990502"><ele>60.0</ele><time>2026-05-05T13:31:31Z</time></trkpt><trkpt lat="45.9945570600942" lon="13.357262049154484"><ele>61.0</ele><time>2026-05-05T13:31:32Z</time></trkpt><trkpt lat="45.994756981858366" lon="13.356887441795937"><ele>62.0</ele><time>2026-05-05T13:31:33Z</time></trkpt><trkpt lat="45.994954777326456" lon="13.356515772759861"><ele>61.0</ele><time>2026-05-05T13:31:34Z</time></trkpt><trkpt lat="45.995149159763145" lon="13.356156449166324"><ele>60.0</ele><time>2026-05-05T13:31:35Z</time></trkpt><trkpt lat="45.995337987136736" lon="13.3558034093976"><ele>60.5</ele><time>2026-05-05T13:31:36Z</time></trkpt><trkpt lat="45.99552955707981" lon="13.355456884070708"><ele>61.0</ele><time>2026-05-05T13:31:37Z</time></trkpt><trkpt lat="45.99571884536219" lon="13.355103904986207"><ele>60.5</ele><time>2026-05-05T13:31:38Z</time></trkpt><trkpt lat="45.99590908003525" lon="13.354752637823864"><ele>60.0</ele><time>2026-05-05T13:31:39Z</time></trkpt><trkpt lat="45.99609858354914" lon="13.354401028420298"><ele>61.0</ele><time>2026-05-05T13:31:40Z</time></trkpt><trkpt lat="45.99628429986325" lon="13.354053435225056"><ele>62.0</ele><time>2026-05-05T13:31:41Z</time></trkpt><trkpt lat="45.996466261111905" lon="13.353712386809843"><ele>62.0</ele><time>2026-05-05T13:31:42Z</time></trkpt><trkpt lat="45.99664232288685" lon="13.353374324022663"><ele>62.0</ele><time>2026-05-05T13:31:43Z</time></trkpt><trkpt lat="45.99681272254494" lon="13.353039052067574"><ele>62.5</ele><time>2026-05-05T13:31:44Z</time></trkpt><trkpt lat="45.99698847616748" lon="13.35270473741661"><ele>63.0</ele><time>2026-05-05T13:31:45Z</time></trkpt><trkpt lat="45.99716241437602" lon="13.352374544965233"><ele>62.5</ele><time>2026-05-05T13:31:46Z</time></trkpt><trkpt lat="45.99733626631838" lon="13.352044316576533"><ele>62.0</ele><time>2026-05-05T13:31:47Z</time></trkpt><trkpt lat="45.9975118859735" lon="13.35171193535084"><ele>62.0</ele><time>2026-05-05T13:31:48Z</time></trkpt><trkpt lat="45.99768935203152" lon="13.351382983470078"><ele>62.0</ele><time>2026-05-05T13:31:49Z</time></trkpt><trkpt lat="45.99786526140797" lon="13.351050284020365"><ele>61.5</ele><time>2026-05-05T13:31:50Z</time></trkpt><trkpt lat="45.99804324509927" lon="13.350717722260923"><ele>61.0</ele><time>2026-05-05T13:31:51Z</time></trkpt><trkpt lat="45.99822386900563" lon="13.350384791678962"><ele>61.0</ele><time>2026-05-05T13:31:52Z</time></trkpt><trkpt lat="45.99840367733636" lon="13.350052878617372"><ele>61.0</ele><time>2026-05-05T13:31:53Z</time></trkpt><trkpt lat="45.99858439729423" lon="13.34971755101358"><ele>62.5</ele><time>2026-05-05T13:31:54Z</time></trkpt><trkpt lat="45.9987661855866" lon="13.349377046141441"><ele>64.0</ele><time>2026-05-05T13:31:55Z</time></trkpt><trkpt lat="45.99894689614317" lon="13.349039120372915"><ele>64.0</ele><time>2026-05-05T13:31:56Z</time></trkpt><trkpt lat="45.999128745187114" lon="13.348698321473057"><ele>64.0</ele><time>2026-05-05T13:31:57Z</time></trkpt><trkpt lat="45.9993077647725" lon="13.348356247813092"><ele>64.5</ele><time>2026-05-05T13:31:58Z</time></trkpt><trkpt lat="45.99948792296908" lon="13.348017276087603"><ele>65.0</ele><time>2026-05-05T13:31:59Z</time></trkpt><trkpt lat="45.999672038993616" lon="13.34768094488912"><ele>65.0</ele><time>2026-05-05T13:32:00Z</time></trkpt><trkpt lat="45.999853335004495" lon="13.347344133820664"><ele>65.0</ele><time>2026-05-05T13:32:01Z</time></trkpt><trkpt lat="46.00003314662156" lon="13.347005854964852"><ele>64.5</ele><time>2026-05-05T13:32:02Z</time></trkpt><trkpt lat="46.00021202525459" lon="13.346667031622205"><ele>64.0</ele><time>2026-05-05T13:32:03Z</time></trkpt><trkpt lat="46.00038726486284" lon="13.346334063936682"><ele>63.5</ele><time>2026-05-05T13:32:04Z</time></trkpt><trkpt lat="46.00055918007467" lon="13.346011836723083"><ele>63.0</ele><time>2026-05-05T13:32:05Z</time></trkpt><trkpt lat="46.00071863915045" lon="13.345706712082901"><ele>63.0</ele><time>2026-05-05T13:32:06Z</time></trkpt><trkpt lat="46.00087980733242" lon="13.345415344314073"><ele>63.0</ele><time>2026-05-05T13:32:07Z</time></trkpt><trkpt lat="46.001030030420644" lon="13.345133031618383"><ele>63.0</ele><time>2026-05-05T13:32:08Z</time></trkpt><trkpt lat="46.0011746170445" lon="13.344864322603485"><ele>63.0</ele><time>2026-05-05T13:32:09Z</time></trkpt><trkpt lat="46.001313368688784" lon="13.34460231759559"><ele>62.5</ele><time>2026-05-05T13:32:10Z</time></trkpt><trkpt lat="46.00144965131796" lon="13.344344110996953"><ele>62.0</ele><time>2026-05-05T13:32:11Z</time></trkpt><trkpt lat="46.00158831283393" lon="13.344088439760482"><ele>62.66666666666667</ele><time>2026-05-05T13:32:12Z</time></trkpt><trkpt lat="46.001719453382975" lon="13.34383806803486"><ele>63.33333333333333</ele><time>2026-05-05T13:32:13Z</time></trkpt><trkpt lat="46.0018492553346" lon="13.343594669577392"><ele>64.0</ele><time>2026-05-05T13:32:14Z</time></trkpt><trkpt lat="46.00198091096482" lon="13.343355732972487"><ele>64.0</ele><time>2026-05-05T13:32:15Z</time></trkpt><trkpt lat="46.00210616413237" lon="13.343114944862768"><ele>64.0</ele><time>2026-05-05T13:32:16Z</time></trkpt><trkpt lat="46.00223363763708" lon="13.34287601003327"><ele>64.0</ele><time>2026-05-05T13:32:17Z</time></trkpt><trkpt lat="46.00236315631579" lon="13.342638157765593"><ele>64.66666666666666</ele><time>2026-05-05T13:32:18Z</time></trkpt><trkpt lat="46.002496545010615" lon="13.342396243562368"><ele>65.33333333333333</ele><time>2026-05-05T13:32:19Z</time></trkpt><trkpt lat="46.002617185092255" lon="13.342155720816194"><ele>66.0</ele><time>2026-05-05T13:32:20Z</time></trkpt><trkpt lat="46.002732725620255" lon="13.341932082263797"><ele>66.0</ele><time>2026-05-05T13:32:21Z</time></trkpt><trkpt lat="46.00284597135719" lon="13.341719900472775"><ele>66.0</ele><time>2026-05-05T13:32:22Z</time></trkpt><trkpt lat="46.00295387512752" lon="13.3415234096035"><ele>66.0</ele><time>2026-05-05T13:32:23Z</time></trkpt><trkpt lat="46.00306072589745" lon="13.341334236854062"><ele>65.66666666666667</ele><time>2026-05-05T13:32:24Z</time></trkpt><trkpt lat="46.00316417480518" lon="13.341136597289996"><ele>65.33333333333334</ele><time>2026-05-05T13:32:25Z</time></trkpt><trkpt lat="46.00327260297313" lon="13.340927758238905"><ele>65.0</ele><time>2026-05-05T13:32:26Z</time></trkpt><trkpt lat="46.00338593615134" lon="13.340711057607137"><ele>66.33333333333334</ele><time>2026-05-05T13:32:27Z</time></trkpt><trkpt lat="46.0034966128373" lon="13.340493078631468"><ele>67.66666666666667</ele><time>2026-05-05T13:32:28Z</time></trkpt><trkpt lat="46.003609903792366" lon="13.34027867074066"><ele>69.0</ele><time>2026-05-05T13:32:29Z</time></trkpt><trkpt lat="46.0037242973969" lon="13.34006392280087"><ele>69.0</ele><time>2026-05-05T13:32:30Z</time></trkpt><trkpt lat="46.00383780274182" lon="13.339849974282757"><ele>69.0</ele><time>2026-05-05T13:32:31Z</time></trkpt><trkpt lat="46.003958992043096" lon="13.339619510776222"><ele>69.0</ele><time>2026-05-05T13:32:32Z</time></trkpt><trkpt lat="46.00409151749055" lon="13.339368144991314"><ele>68.0</ele><time>2026-05-05T13:32:33Z</time></trkpt><trkpt lat="46.00422658901907" lon="13.339101899658841"><ele>67.0</ele><time>2026-05-05T13:32:34Z</time></trkpt><trkpt lat="46.00436774616131" lon="13.33882024105177"><ele>66.5</ele><time>2026-05-05T13:32:35Z</time></trkpt><trkpt lat="46.00451241087544" lon="13.338544739259689"><ele>66.0</ele><time>2026-05-05T13:32:36Z</time></trkpt><trkpt lat="46.00465134849812" lon="13.338280670936218"><ele>66.0</ele><time>2026-05-05T13:32:37Z</time></trkpt><trkpt lat="46.004791324968174" lon="13.338018694528781"><ele>66.0</ele><time>2026-05-05T13:32:38Z</time></trkpt><trkpt lat="46.004935488172336" lon="13.337754983281481"><ele>66.66666666666667</ele><time>2026-05-05T13:32:39Z</time></trkpt><trkpt lat="46.005073396950955" lon="13.337498935711098"><ele>67.33333333333334</ele><time>2026-05-05T13:32:40Z</time></trkpt><trkpt lat="46.00520010773209" lon="13.337265393839779"><ele>68.0</ele><time>2026-05-05T13:32:41Z</time></trkpt><trkpt lat="46.00531613019408" lon="13.33705222629272"><ele>68.0</ele><time>2026-05-05T13:32:42Z</time></trkpt><trkpt lat="46.005424948968376" lon="13.33685474047183"><ele>68.0</ele><time>2026-05-05T13:32:43Z</time></trkpt><trkpt lat="46.005527891888946" lon="13.336667239936196"><ele>68.0</ele><time>2026-05-05T13:32:44Z</time></trkpt><trkpt lat="46.00563573218969" lon="13.33646757043068"><ele>68.0</ele><time>2026-05-05T13:32:45Z</time></trkpt><trkpt lat="46.00574728424771" lon="13.336262483416746"><ele>68.0</ele><time>2026-05-05T13:32:46Z</time></trkpt><trkpt lat="46.00584991556176" lon="13.336065169873752"><ele>68.0</ele><time>2026-05-05T13:32:47Z</time></trkpt><trkpt lat="46.00594920117856" lon="13.335876806181888"><ele>68.0</ele><time>2026-05-05T13:32:48Z</time></trkpt><trkpt lat="46.00604401000701" lon="13.335701027505925"><ele>68.0</ele><time>2026-05-05T13:32:49Z</time></trkpt><trkpt lat="46.00612824529459" lon="13.33554053620077"><ele>68.0</ele><time>2026-05-05T13:32:50Z</time></trkpt><trkpt lat="46.00621550646505" lon="13.33537871497109"><ele>68.0</ele><time>2026-05-05T13:32:51Z</time></trkpt><trkpt lat="46.0062950181518" lon="13.335229046464432"><ele>68.0</ele><time>2026-05-05T13:32:52Z</time></trkpt><trkpt lat="46.006370033569524" lon="13.335088220727236"><ele>68.0</ele><time>2026-05-05T13:32:53Z</time></trkpt><trkpt lat="46.006440054143624" lon="13.334959315106081"><ele>68.0</ele><time>2026-05-05T13:32:54Z</time></trkpt><trkpt lat="46.00650575502697" lon="13.334834500671123"><ele>68.0</ele><time>2026-05-05T13:32:55Z</time></trkpt><trkpt lat="46.00657643535465" lon="13.334701694558868"><ele>68.0</ele><time>2026-05-05T13:32:56Z</time></trkpt><trkpt lat="46.00665501392958" lon="13.33454904848519"><ele>68.0</ele><time>2026-05-05T13:32:57Z</time></trkpt><trkpt lat="46.00673900379308" lon="13.334386719541449"><ele>68.0</ele><time>2026-05-05T13:32:58Z</time></trkpt><trkpt lat="46.006835534953325" lon="13.334209375561473"><ele>68.0</ele><time>2026-05-05T13:32:59Z</time></trkpt><trkpt lat="46.0069422691929" lon="13.334012874394833"><ele>68.66666666666667</ele><time>2026-05-05T13:33:00Z</time></trkpt><trkpt lat="46.007059556086396" lon="13.333789554936821"><ele>69.33333333333333</ele><time>2026-05-05T13:33:01Z</time></trkpt><trkpt lat="46.007187412042164" lon="13.33354126187907"><ele>70.0</ele><time>2026-05-05T13:33:02Z</time></trkpt><trkpt lat="46.007312513352375" lon="13.333277889632056"><ele>69.66666666666666</ele><time>2026-05-05T13:33:03Z</time></trkpt><trkpt lat="46.007440871280984" lon="13.33301567780985"><ele>69.33333333333333</ele><time>2026-05-05T13:33:04Z</time></trkpt><trkpt lat="46.007581491170136" lon="13.332762414519197"><ele>69.0</ele><time>2026-05-05T13:33:05Z</time></trkpt><trkpt lat="46.00772873228667" lon="13.332521381324316"><ele>69.0</ele><time>2026-05-05T13:33:06Z</time></trkpt><trkpt lat="46.00784980854192" lon="13.332303384921376"><ele>69.0</ele><time>2026-05-05T13:33:07Z</time></trkpt><trkpt lat="46.00796060770339" lon="13.332097433560081"><ele>69.0</ele><time>2026-05-05T13:33:08Z</time></trkpt><trkpt lat="46.00806523408465" lon="13.33190353195753"><ele>69.0</ele><time>2026-05-05T13:33:09Z</time></trkpt><trkpt lat="46.008165089581844" lon="13.331717801516694"><ele>69.0</ele><time>2026-05-05T13:33:10Z</time></trkpt><trkpt lat="46.008261880046796" lon="13.331540995313516"><ele>69.0</ele><time>2026-05-05T13:33:11Z</time></trkpt><trkpt lat="46.008355685170336" lon="13.33137042559272"><ele>69.0</ele><time>2026-05-05T13:33:12Z</time></trkpt><trkpt lat="46.00844866821922" lon="13.33120516158993"><ele>69.0</ele><time>2026-05-05T13:33:13Z</time></trkpt><trkpt lat="46.008535759271204" lon="13.331046237632405"><ele>69.0</ele><time>2026-05-05T13:33:14Z</time></trkpt><trkpt lat="46.00861031278643" lon="13.330894866382092"><ele>69.0</ele><time>2026-05-05T13:33:15Z</time></trkpt><trkpt lat="46.00867675031424" lon="13.330762737360555"><ele>69.0</ele><time>2026-05-05T13:33:16Z</time></trkpt><trkpt lat="46.00874180192022" lon="13.330640277989227"><ele>69.0</ele><time>2026-05-05T13:33:17Z</time></trkpt><trkpt lat="46.00881453662869" lon="13.330505874080263"><ele>69.0</ele><time>2026-05-05T13:33:18Z</time></trkpt><trkpt lat="46.00889245628788" lon="13.330365020342345"><ele>69.0</ele><time>2026-05-05T13:33:19Z</time></trkpt><trkpt lat="46.0089688013951" lon="13.330224537764334"><ele>69.0</ele><time>2026-05-05T13:33:20Z</time></trkpt><trkpt lat="46.0090395799518" lon="13.330091133510773"><ele>69.0</ele><time>2026-05-05T13:33:21Z</time></trkpt><trkpt lat="46.00910946513036" lon="13.329964685996538"><ele>69.0</ele><time>2026-05-05T13:33:22Z</time></trkpt><trkpt lat="46.00917113764634" lon="13.329850996505124"><ele>69.0</ele><time>2026-05-05T13:33:23Z</time></trkpt><trkpt lat="46.00923043074809" lon="13.329747952900368"><ele>69.0</ele><time>2026-05-05T13:33:24Z</time></trkpt><trkpt lat="46.00929087863119" lon="13.329660618365958"><ele>69.16666666666667</ele><time>2026-05-05T13:33:25Z</time></trkpt><trkpt lat="46.00934661959779" lon="13.329581998566654"><ele>69.33333333333333</ele><time>2026-05-05T13:33:26Z</time></trkpt><trkpt lat="46.009403681542786" lon="13.329512329201417"><ele>69.5</ele><time>2026-05-05T13:33:27Z</time></trkpt><trkpt lat="46.009484029358944" lon="13.3294191263613"><ele>69.66666666666666</ele><time>2026-05-05T13:33:29Z</time></trkpt><trkpt lat="46.00953193664821" lon="13.329326114009975"><ele>69.83333333333333</ele><time>2026-05-05T13:33:32Z</time></trkpt><trkpt lat="46.00960691008812" lon="13.329298633055684"><ele>70.0</ele><time>2026-05-05T13:33:33Z</time></trkpt><trkpt lat="46.00969022640259" lon="13.32928160718922"><ele>70.0</ele><time>2026-05-05T13:33:34Z</time></trkpt><trkpt lat="46.009775019842" lon="13.329236787018242"><ele>70.0</ele><time>2026-05-05T13:33:35Z</time></trkpt><trkpt lat="46.0098272233426" lon="13.329149959993389"><ele>70.0</ele><time>2026-05-05T13:33:36Z</time></trkpt><trkpt lat="46.009851733439895" lon="13.329027902063988"><ele>70.0</ele><time>2026-05-05T13:33:37Z</time></trkpt><trkpt lat="46.00985773346259" lon="13.32887534145619"><ele>70.0</ele><time>2026-05-05T13:33:38Z</time></trkpt><trkpt lat="46.009868032354674" lon="13.328693328803329"><ele>70.33333333333333</ele><time>2026-05-05T13:33:39Z</time></trkpt><trkpt lat="46.009907605257474" lon="13.328519470481426"><ele>70.66666666666667</ele><time>2026-05-05T13:33:40Z</time></trkpt><trkpt lat="46.009961479829244" lon="13.328324894612225"><ele>71.0</ele><time>2026-05-05T13:33:41Z</time></trkpt><trkpt lat="46.01008853109194" lon="13.32812228009258"><ele>71.0</ele><time>2026-05-05T13:33:42Z</time></trkpt><trkpt lat="46.01021040286847" lon="13.327893957279155"><ele>71.0</ele><time>2026-05-05T13:33:43Z</time></trkpt><trkpt lat="46.010342169348554" lon="13.327653317386204"><ele>71.0</ele><time>2026-05-05T13:33:44Z</time></trkpt><trkpt lat="46.01047413553272" lon="13.327411010701438"><ele>71.0</ele><time>2026-05-05T13:33:45Z</time></trkpt><trkpt lat="46.010606235016795" lon="13.327158794753222"><ele>71.0</ele><time>2026-05-05T13:33:46Z</time></trkpt><trkpt lat="46.01073867329519" lon="13.326906339145479"><ele>71.0</ele><time>2026-05-05T13:33:47Z</time></trkpt><trkpt lat="46.01087001363566" lon="13.326653349730144"><ele>70.66666666666667</ele><time>2026-05-05T13:33:48Z</time></trkpt><trkpt lat="46.0109940300297" lon="13.326407278550263"><ele>70.33333333333333</ele><time>2026-05-05T13:33:49Z</time></trkpt><trkpt lat="46.01113198382787" lon="13.326142525689447"><ele>70.0</ele><time>2026-05-05T13:33:50Z</time></trkpt><trkpt lat="46.011275765132034" lon="13.32584817626424"><ele>70.0</ele><time>2026-05-05T13:33:51Z</time></trkpt><trkpt lat="46.01143722854209" lon="13.325535346934185"><ele>70.0</ele><time>2026-05-05T13:33:52Z</time></trkpt><trkpt lat="46.01160874490026" lon="13.325227986836044"><ele>70.0</ele><time>2026-05-05T13:33:53Z</time></trkpt><trkpt lat="46.011775896992894" lon="13.32492560814357"><ele>70.0</ele><time>2026-05-05T13:33:54Z</time></trkpt><trkpt lat="46.01194165672423" lon="13.324629887565349"><ele>70.0</ele><time>2026-05-05T13:33:55Z</time></trkpt><trkpt lat="46.012103058348025" lon="13.324336172987898"><ele>70.0</ele><time>2026-05-05T13:33:56Z</time></trkpt><trkpt lat="46.01225646074925" lon="13.32405098793701"><ele>70.5</ele><time>2026-05-05T13:33:57Z</time></trkpt><trkpt lat="46.01240429601406" lon="13.323776978316737"><ele>71.0</ele><time>2026-05-05T13:33:58Z</time></trkpt><trkpt lat="46.012549793285714" lon="13.323508757318638"><ele>71.5</ele><time>2026-05-05T13:33:59Z</time></trkpt><trkpt lat="46.012692027648555" lon="13.323239934286699"><ele>72.0</ele><time>2026-05-05T13:34:00Z</time></trkpt><trkpt lat="46.01283344644094" lon="13.322978245156026"><ele>72.0</ele><time>2026-05-05T13:34:01Z</time></trkpt><trkpt lat="46.01297097610829" lon="13.322728971194218"><ele>72.0</ele><time>2026-05-05T13:34:02Z</time></trkpt><trkpt lat="46.01309732214113" lon="13.32249997956421"><ele>72.0</ele><time>2026-05-05T13:34:03Z</time></trkpt><trkpt lat="46.01321509937423" lon="13.322283204382964"><ele>72.33333333333333</ele><time>2026-05-05T13:34:04Z</time></trkpt><trkpt lat="46.01332601436232" lon="13.322072162500454"><ele>72.66666666666666</ele><time>2026-05-05T13:34:05Z</time></trkpt><trkpt lat="46.01343370164034" lon="13.321873163763827"><ele>73.0</ele><time>2026-05-05T13:34:06Z</time></trkpt><trkpt lat="46.01353030478414" lon="13.321679952122993"><ele>73.0</ele><time>2026-05-05T13:34:07Z</time></trkpt><trkpt lat="46.01362168114091" lon="13.321496707314877"><ele>73.0</ele><time>2026-05-05T13:34:08Z</time></trkpt><trkpt lat="46.01371032992246" lon="13.321333288762627"><ele>73.0</ele><time>2026-05-05T13:34:09Z</time></trkpt><trkpt lat="46.013796325777335" lon="13.32118896074454"><ele>73.0</ele><time>2026-05-05T13:34:10Z</time></trkpt><trkpt lat="46.01387650176677" lon="13.32106911091325"><ele>72.83333333333333</ele><time>2026-05-05T13:34:11Z</time></trkpt><trkpt lat="46.01393445466005" lon="13.321014220946248"><ele>72.66666666666666</ele><time>2026-05-05T13:34:12Z</time></trkpt><trkpt lat="46.01398935073194" lon="13.320953456360035"><ele>72.5</ele><time>2026-05-05T13:34:13Z</time></trkpt><trkpt lat="46.014041105959684" lon="13.320895472598815"><ele>72.33333333333333</ele><time>2026-05-05T13:34:15Z</time></trkpt><trkpt lat="46.01415648344689" lon="13.320790655977463"><ele>72.16666666666667</ele><time>2026-05-05T13:34:18Z</time></trkpt><trkpt lat="46.01422846436209" lon="13.32073065254362"><ele>72.0</ele><time>2026-05-05T13:34:19Z</time></trkpt><trkpt lat="46.0142999707068" lon="13.320631206246038"><ele>71.75</ele><time>2026-05-05T13:34:20Z</time></trkpt><trkpt lat="46.014351709504965" lon="13.320485085496259"><ele>71.5</ele><time>2026-05-05T13:34:21Z</time></trkpt><trkpt lat="46.01438537392126" lon="13.320287403072983"><ele>71.25</ele><time>2026-05-05T13:34:22Z</time></trkpt><trkpt lat="46.014420585341135" lon="13.320070786779292"><ele>71.0</ele><time>2026-05-05T13:34:23Z</time></trkpt><trkpt lat="46.014500110585715" lon="13.319839645355447"><ele>70.66666666666667</ele><time>2026-05-05T13:34:24Z</time></trkpt><trkpt lat="46.01461039785375" lon="13.319622227475302"><ele>70.33333333333333</ele><time>2026-05-05T13:34:25Z</time></trkpt><trkpt lat="46.01472597966525" lon="13.319419572645943"><ele>70.0</ele><time>2026-05-05T13:34:26Z</time></trkpt><trkpt lat="46.01483416025335" lon="13.319226947946882"><ele>70.0</ele><time>2026-05-05T13:34:27Z</time></trkpt><trkpt lat="46.01493595061354" lon="13.319044563507626"><ele>70.0</ele><time>2026-05-05T13:34:28Z</time></trkpt><trkpt lat="46.01502884081383" lon="13.318861908543617"><ele>70.0</ele><time>2026-05-05T13:34:29Z</time></trkpt><trkpt lat="46.015117999905904" lon="13.318689948071817"><ele>71.33333333333333</ele><time>2026-05-05T13:34:30Z</time></trkpt><trkpt lat="46.01520791518537" lon="13.318511087436201"><ele>72.66666666666667</ele><time>2026-05-05T13:34:31Z</time></trkpt><trkpt lat="46.01531075447235" lon="13.318342479725088"><ele>74.0</ele><time>2026-05-05T13:34:32Z</time></trkpt><trkpt lat="46.01537699650801" lon="13.318129399578503"><ele>73.66666666666667</ele><time>2026-05-05T13:34:33Z</time></trkpt><trkpt lat="46.015451752606104" lon="13.317923571938584"><ele>73.33333333333333</ele><time>2026-05-05T13:34:34Z</time></trkpt><trkpt lat="46.015523793490175" lon="13.317702410777489"><ele>73.0</ele><time>2026-05-05T13:34:35Z</time></trkpt><trkpt lat="46.015597567011355" lon="13.317464526672797"><ele>72.66666666666666</ele><time>2026-05-05T13:34:36Z</time></trkpt><trkpt lat="46.015668276172654" lon="13.317211974357475"><ele>72.33333333333333</ele><time>2026-05-05T13:34:37Z</time></trkpt><trkpt lat="46.01573032499979" lon="13.316959201622238"><ele>72.0</ele><time>2026-05-05T13:34:38Z</time></trkpt><trkpt lat="46.015785535429885" lon="13.316712214318505"><ele>72.0</ele><time>2026-05-05T13:34:39Z</time></trkpt><trkpt lat="46.015835863133894" lon="13.316463523797992"><ele>72.0</ele><time>2026-05-05T13:34:40Z</time></trkpt><trkpt lat="46.01587406371275" lon="13.31621348828732"><ele>72.0</ele><time>2026-05-05T13:34:41Z</time></trkpt><trkpt lat="46.015902815282" lon="13.315962293527406"><ele>73.0</ele><time>2026-05-05T13:34:42Z</time></trkpt><trkpt lat="46.015934683879735" lon="13.315720562309577"><ele>74.0</ele><time>2026-05-05T13:34:43Z</time></trkpt><trkpt lat="46.01597081302254" lon="13.31548058255348"><ele>75.0</ele><time>2026-05-05T13:34:44Z</time></trkpt><trkpt lat="46.01600584755652" lon="13.315245493189009"><ele>75.66666666666667</ele><time>2026-05-05T13:34:45Z</time></trkpt><trkpt lat="46.01604111277914" lon="13.31501222541572"><ele>76.33333333333334</ele><time>2026-05-05T13:34:46Z</time></trkpt><trkpt lat="46.01607495130296" lon="13.314781287953869"><ele>77.0</ele><time>2026-05-05T13:34:47Z</time></trkpt><trkpt lat="46.01610877019192" lon="13.314554752668407"><ele>77.0</ele><time>2026-05-05T13:34:48Z</time></trkpt><trkpt lat="46.01614444670947" lon="13.314323124749963"><ele>77.0</ele><time>2026-05-05T13:34:49Z</time></trkpt><trkpt lat="46.016185629022964" lon="13.314094260813123"><ele>77.0</ele><time>2026-05-05T13:34:50Z</time></trkpt><trkpt lat="46.01622123310547" lon="13.313867261396151"><ele>75.66666666666667</ele><time>2026-05-05T13:34:51Z</time></trkpt><trkpt lat="46.016250501795795" lon="13.313648527996966"><ele>74.33333333333333</ele><time>2026-05-05T13:34:52Z</time></trkpt><trkpt lat="46.01628030636824" lon="13.313425226067594"><ele>73.0</ele><time>2026-05-05T13:34:53Z</time></trkpt><trkpt lat="46.01631422827124" lon="13.313204036747688"><ele>72.5</ele><time>2026-05-05T13:34:54Z</time></trkpt><trkpt lat="46.01634698416985" lon="13.313000154671643"><ele>72.0</ele><time>2026-05-05T13:34:55Z</time></trkpt><trkpt lat="46.01637700602482" lon="13.312796993354521"><ele>71.5</ele><time>2026-05-05T13:34:56Z</time></trkpt><trkpt lat="46.01640780842383" lon="13.312593796063107"><ele>71.0</ele><time>2026-05-05T13:34:57Z</time></trkpt><trkpt lat="46.01643897984688" lon="13.312384897968585"><ele>70.75</ele><time>2026-05-05T13:34:58Z</time></trkpt><trkpt lat="46.01647140887904" lon="13.312173237725952"><ele>70.5</ele><time>2026-05-05T13:34:59Z</time></trkpt><trkpt lat="46.016502268742926" lon="13.311962189043724"><ele>70.25</ele><time>2026-05-05T13:35:00Z</time></trkpt><trkpt lat="46.01653242604193" lon="13.311757319521744"><ele>70.0</ele><time>2026-05-05T13:35:01Z</time></trkpt><trkpt lat="46.01656473066158" lon="13.311544332572419"><ele>69.66666666666666</ele><time>2026-05-05T13:35:02Z</time></trkpt><trkpt lat="46.01659689408416" lon="13.311315893061732"><ele>69.33333333333333</ele><time>2026-05-05T13:35:03Z</time></trkpt><trkpt lat="46.01662914987373" lon="13.311034330752541"><ele>69.0</ele><time>2026-05-05T13:35:04Z</time></trkpt><trkpt lat="46.016666590290804" lon="13.310699271358322"><ele>72.0</ele><time>2026-05-05T13:35:05Z</time></trkpt><trkpt lat="46.01672430638052" lon="13.310322173650416"><ele>75.0</ele><time>2026-05-05T13:35:06Z</time></trkpt><trkpt lat="46.016796553937375" lon="13.309931260183701"><ele>74.5</ele><time>2026-05-05T13:35:07Z</time></trkpt><trkpt lat="46.01686451444328" lon="13.309588310955696"><ele>74.0</ele><time>2026-05-05T13:35:08Z</time></trkpt><trkpt lat="46.01691419169734" lon="13.309273846962679"><ele>74.0</ele><time>2026-05-05T13:35:09Z</time></trkpt><trkpt lat="46.01695613466078" lon="13.308974598750252"><ele>74.0</ele><time>2026-05-05T13:35:10Z</time></trkpt><trkpt lat="46.016993441750586" lon="13.308693291887321"><ele>74.0</ele><time>2026-05-05T13:35:11Z</time></trkpt><trkpt lat="46.0170310125381" lon="13.308430117764976"><ele>74.0</ele><time>2026-05-05T13:35:12Z</time></trkpt><trkpt lat="46.017065317177156" lon="13.308189893120407"><ele>74.0</ele><time>2026-05-05T13:35:13Z</time></trkpt><trkpt lat="46.01709794056093" lon="13.307960846410875"><ele>74.0</ele><time>2026-05-05T13:35:14Z</time></trkpt><trkpt lat="46.017129568782764" lon="13.307746674001685"><ele>74.0</ele><time>2026-05-05T13:35:15Z</time></trkpt><trkpt lat="46.017162115845686" lon="13.307540819897845"><ele>74.0</ele><time>2026-05-05T13:35:16Z</time></trkpt><trkpt lat="46.01719152650655" lon="13.307343584724087"><ele>74.0</ele><time>2026-05-05T13:35:17Z</time></trkpt><trkpt lat="46.01721826153829" lon="13.307154705406269"><ele>74.0</ele><time>2026-05-05T13:35:18Z</time></trkpt><trkpt lat="46.01724648470691" lon="13.306973591994321"><ele>74.25</ele><time>2026-05-05T13:35:19Z</time></trkpt><trkpt lat="46.017271507386404" lon="13.30679850013568"><ele>74.5</ele><time>2026-05-05T13:35:20Z</time></trkpt><trkpt lat="46.01729506416988" lon="13.3066355643001"><ele>74.75</ele><time>2026-05-05T13:35:21Z</time></trkpt><trkpt lat="46.01731969599767" lon="13.306480933422925"><ele>75.0</ele><time>2026-05-05T13:35:22Z</time></trkpt><trkpt lat="46.01734192814234" lon="13.306319717467339"><ele>75.0</ele><time>2026-05-05T13:35:23Z</time></trkpt><trkpt lat="46.01736177126577" lon="13.306163901618898"><ele>75.0</ele><time>2026-05-05T13:35:24Z</time></trkpt><trkpt lat="46.01738326812325" lon="13.30600887424726"><ele>75.0</ele><time>2026-05-05T13:35:25Z</time></trkpt><trkpt lat="46.01740275651197" lon="13.30584874490433"><ele>75.0</ele><time>2026-05-05T13:35:26Z</time></trkpt><trkpt lat="46.017423672073576" lon="13.305690136626747"><ele>75.0</ele><time>2026-05-05T13:35:27Z</time></trkpt><trkpt lat="46.01744623459783" lon="13.305546769456566"><ele>75.0</ele><time>2026-05-05T13:35:28Z</time></trkpt><trkpt lat="46.01746499980489" lon="13.305402936515934"><ele>75.0</ele><time>2026-05-05T13:35:29Z</time></trkpt><trkpt lat="46.017485368644564" lon="13.305256893459527"><ele>75.0</ele><time>2026-05-05T13:35:30Z</time></trkpt><trkpt lat="46.01750702604649" lon="13.305109210728629"><ele>75.0</ele><time>2026-05-05T13:35:31Z</time></trkpt><trkpt lat="46.017534319710855" lon="13.304960230524001"><ele>75.0</ele><time>2026-05-05T13:35:32Z</time></trkpt><trkpt lat="46.017563802121664" lon="13.304800482981818"><ele>74.8</ele><time>2026-05-05T13:35:33Z</time></trkpt><trkpt lat="46.01759538857835" lon="13.304641301936316"><ele>74.6</ele><time>2026-05-05T13:35:34Z</time></trkpt><trkpt lat="46.017626421693116" lon="13.304501432068035"><ele>74.4</ele><time>2026-05-05T13:35:35Z</time></trkpt><trkpt lat="46.01766382993685" lon="13.304369654504908"><ele>74.2</ele><time>2026-05-05T13:35:36Z</time></trkpt><trkpt lat="46.017718854790765" lon="13.304249726198245"><ele>74.0</ele><time>2026-05-05T13:35:37Z</time></trkpt><trkpt lat="46.017786852210094" lon="13.304164586173833"><ele>74.0</ele><time>2026-05-05T13:35:38Z</time></trkpt><trkpt lat="46.017849239803425" lon="13.304087535696542"><ele>74.0</ele><time>2026-05-05T13:35:39Z</time></trkpt><trkpt lat="46.01788525877669" lon="13.30399677921807"><ele>74.0</ele><time>2026-05-05T13:35:40Z</time></trkpt><trkpt lat="46.01789846366001" lon="13.30388353388313"><ele>74.0</ele><time>2026-05-05T13:35:41Z</time></trkpt><trkpt lat="46.0178842371431" lon="13.303775460685339"><ele>74.0</ele><time>2026-05-05T13:35:42Z</time></trkpt><trkpt lat="46.01785021838024" lon="13.303673031664886"><ele>74.0</ele><time>2026-05-05T13:35:43Z</time></trkpt><trkpt lat="46.017814172709805" lon="13.30356263160627"><ele>73.8</ele><time>2026-05-05T13:35:44Z</time></trkpt><trkpt lat="46.017793313145305" lon="13.303436597484694"><ele>73.60000000000001</ele><time>2026-05-05T13:35:45Z</time></trkpt><trkpt lat="46.01779851994374" lon="13.303285373373685"><ele>73.4</ele><time>2026-05-05T13:35:46Z</time></trkpt><trkpt lat="46.017818961978804" lon="13.303123788981933"><ele>73.2</ele><time>2026-05-05T13:35:47Z</time></trkpt><trkpt lat="46.01784275143672" lon="13.302955745096396"><ele>73.0</ele><time>2026-05-05T13:35:48Z</time></trkpt><trkpt lat="46.017867725468996" lon="13.302761446634586"><ele>74.0</ele><time>2026-05-05T13:35:49Z</time></trkpt><trkpt lat="46.01789921130269" lon="13.30255118632601"><ele>75.0</ele><time>2026-05-05T13:35:50Z</time></trkpt><trkpt lat="46.017937918532255" lon="13.302319133747686"><ele>76.0</ele><time>2026-05-05T13:35:51Z</time></trkpt><trkpt lat="46.01797570135307" lon="13.302072813084306"><ele>76.0</ele><time>2026-05-05T13:35:52Z</time></trkpt><trkpt lat="46.0180078667592" lon="13.301843147162304"><ele>76.0</ele><time>2026-05-05T13:35:53Z</time></trkpt><trkpt lat="46.018039572031256" lon="13.301626366520077"><ele>76.0</ele><time>2026-05-05T13:35:54Z</time></trkpt><trkpt lat="46.0180692583075" lon="13.301425403871326"><ele>75.5</ele><time>2026-05-05T13:35:55Z</time></trkpt><trkpt lat="46.01809900541183" lon="13.301233448163217"><ele>75.0</ele><time>2026-05-05T13:35:56Z</time></trkpt><trkpt lat="46.018128944189804" lon="13.301053207635979"><ele>74.5</ele><time>2026-05-05T13:35:57Z</time></trkpt><trkpt lat="46.01815767775882" lon="13.300870978269486"><ele>74.0</ele><time>2026-05-05T13:35:58Z</time></trkpt><trkpt lat="46.01818300299903" lon="13.300690432299621"><ele>73.75</ele><time>2026-05-05T13:35:59Z</time></trkpt><trkpt lat="46.01821104097907" lon="13.300506945353902"><ele>73.5</ele><time>2026-05-05T13:36:00Z</time></trkpt><trkpt lat="46.018241809577475" lon="13.30031088374294"><ele>73.25</ele><time>2026-05-05T13:36:01Z</time></trkpt><trkpt lat="46.01827136986438" lon="13.300119857776949"><ele>73.0</ele><time>2026-05-05T13:36:02Z</time></trkpt><trkpt lat="46.018299125680784" lon="13.299928591730351"><ele>74.25</ele><time>2026-05-05T13:36:03Z</time></trkpt><trkpt lat="46.01832601156399" lon="13.299738145487112"><ele>75.5</ele><time>2026-05-05T13:36:04Z</time></trkpt><trkpt lat="46.018350565776004" lon="13.299542947901525"><ele>76.75</ele><time>2026-05-05T13:36:05Z</time></trkpt><trkpt lat="46.01837713946048" lon="13.299352290675936"><ele>78.0</ele><time>2026-05-05T13:36:06Z</time></trkpt><trkpt lat="46.01840437496649" lon="13.299175541003189"><ele>78.0</ele><time>2026-05-05T13:36:07Z</time></trkpt><trkpt lat="46.01842991485345" lon="13.29900506660328"><ele>78.0</ele><time>2026-05-05T13:36:08Z</time></trkpt><trkpt lat="46.018451623639365" lon="13.298833609153853"><ele>78.0</ele><time>2026-05-05T13:36:09Z</time></trkpt><trkpt lat="46.018471949405864" lon="13.298655824919694"><ele>78.0</ele><time>2026-05-05T13:36:10Z</time></trkpt><trkpt lat="46.01848895316943" lon="13.298458597010448"><ele>78.0</ele><time>2026-05-05T13:36:11Z</time></trkpt><trkpt lat="46.01852858033275" lon="13.298236988543634"><ele>78.0</ele><time>2026-05-05T13:36:12Z</time></trkpt><trkpt lat="46.01855726289671" lon="13.297973824928366"><ele>78.0</ele><time>2026-05-05T13:36:13Z</time></trkpt><trkpt lat="46.01858387932345" lon="13.297696586989245"><ele>78.0</ele><time>2026-05-05T13:36:14Z</time></trkpt><trkpt lat="46.01861018476602" lon="13.297417451310917"><ele>78.0</ele><time>2026-05-05T13:36:15Z</time></trkpt><trkpt lat="46.01862187313985" lon="13.297162034297175"><ele>78.0</ele><time>2026-05-05T13:36:16Z</time></trkpt><trkpt lat="46.018644759832796" lon="13.296935247612636"><ele>77.25</ele><time>2026-05-05T13:36:17Z</time></trkpt><trkpt lat="46.01866360313569" lon="13.296723919053816"><ele>76.5</ele><time>2026-05-05T13:36:18Z</time></trkpt><trkpt lat="46.01868413397772" lon="13.296518574352087"><ele>75.75</ele><time>2026-05-05T13:36:19Z</time></trkpt><trkpt lat="46.01870156918932" lon="13.296329757543077"><ele>75.0</ele><time>2026-05-05T13:36:20Z</time></trkpt><trkpt lat="46.018719984920175" lon="13.296149530803326"><ele>74.75</ele><time>2026-05-05T13:36:21Z</time></trkpt><trkpt lat="46.018738811504136" lon="13.295959939893052"><ele>74.5</ele><time>2026-05-05T13:36:22Z</time></trkpt><trkpt lat="46.018758883814634" lon="13.295764997530224"><ele>74.25</ele><time>2026-05-05T13:36:23Z</time></trkpt><trkpt lat="46.01877578555617" lon="13.295569202055924"><ele>74.0</ele><time>2026-05-05T13:36:24Z</time></trkpt><trkpt lat="46.01879360037327" lon="13.295374713607517"><ele>74.0</ele><time>2026-05-05T13:36:25Z</time></trkpt><trkpt lat="46.018814251133605" lon="13.29518211261561"><ele>74.0</ele><time>2026-05-05T13:36:26Z</time></trkpt><trkpt lat="46.0188311971583" lon="13.294983822685964"><ele>74.0</ele><time>2026-05-05T13:36:27Z</time></trkpt><trkpt lat="46.01884797913483" lon="13.294785648613185"><ele>74.0</ele><time>2026-05-05T13:36:28Z</time></trkpt><trkpt lat="46.018865999054235" lon="13.294586182407313"><ele>74.75</ele><time>2026-05-05T13:36:29Z</time></trkpt><trkpt lat="46.01888476885825" lon="13.294378406336088"><ele>75.5</ele><time>2026-05-05T13:36:30Z</time></trkpt><trkpt lat="46.0189073322228" lon="13.294159082260673"><ele>76.25</ele><time>2026-05-05T13:36:31Z</time></trkpt><trkpt lat="46.01892532524165" lon="13.293947888112596"><ele>77.0</ele><time>2026-05-05T13:36:32Z</time></trkpt><trkpt lat="46.018944730490105" lon="13.293737513216875"><ele>77.0</ele><time>2026-05-05T13:36:33Z</time></trkpt><trkpt lat="46.01896420011293" lon="13.293517203472176"><ele>77.0</ele><time>2026-05-05T13:36:34Z</time></trkpt><trkpt lat="46.0189840000653" lon="13.293275358470904"><ele>77.0</ele><time>2026-05-05T13:36:35Z</time></trkpt><trkpt lat="46.01900191208547" lon="13.29299662462753"><ele>77.0</ele><time>2026-05-05T13:36:36Z</time></trkpt><trkpt lat="46.019038773613815" lon="13.292697888376217"><ele>77.0</ele><time>2026-05-05T13:36:37Z</time></trkpt><trkpt lat="46.019068656705166" lon="13.29236478786498"><ele>77.0</ele><time>2026-05-05T13:36:38Z</time></trkpt><trkpt lat="46.01908874838384" lon="13.292021250860405"><ele>77.0</ele><time>2026-05-05T13:36:39Z</time></trkpt><trkpt lat="46.019123301228205" lon="13.291692847533124"><ele>77.0</ele><time>2026-05-05T13:36:40Z</time></trkpt><trkpt lat="46.01915146009316" lon="13.29138338580048"><ele>77.0</ele><time>2026-05-05T13:36:41Z</time></trkpt><trkpt lat="46.01917796203433" lon="13.291092995572164"><ele>77.33333333333334</ele><time>2026-05-05T13:36:42Z</time></trkpt><trkpt lat="46.01920230929062" lon="13.290820872170556"><ele>77.66666666666667</ele><time>2026-05-05T13:36:43Z</time></trkpt><trkpt lat="46.01922661988" lon="13.290562318026724"><ele>78.0</ele><time>2026-05-05T13:36:44Z</time></trkpt><trkpt lat="46.019249032818685" lon="13.29030962646565"><ele>78.33333333333333</ele><time>2026-05-05T13:36:45Z</time></trkpt><trkpt lat="46.01926959319344" lon="13.290071504097202"><ele>78.66666666666666</ele><time>2026-05-05T13:36:46Z</time></trkpt><trkpt lat="46.01929028070349" lon="13.289837298082096"><ele>79.0</ele><time>2026-05-05T13:36:47Z</time></trkpt><trkpt lat="46.01931186922041" lon="13.289600017102643"><ele>78.33333333333333</ele><time>2026-05-05T13:36:48Z</time></trkpt><trkpt lat="46.01933422760913" lon="13.28936290814246"><ele>77.66666666666667</ele><time>2026-05-05T13:36:49Z</time></trkpt><trkpt lat="46.01935391859943" lon="13.289142044617366"><ele>77.0</ele><time>2026-05-05T13:36:50Z</time></trkpt><trkpt lat="46.01937241056081" lon="13.288931737822335"><ele>77.66666666666667</ele><time>2026-05-05T13:36:51Z</time></trkpt><trkpt lat="46.01939173400116" lon="13.288723436637383"><ele>78.33333333333333</ele><time>2026-05-05T13:36:52Z</time></trkpt><trkpt lat="46.01941175954753" lon="13.28850813683628"><ele>79.0</ele><time>2026-05-05T13:36:53Z</time></trkpt><trkpt lat="46.01943155646176" lon="13.288286138747925"><ele>78.66666666666666</ele><time>2026-05-05T13:36:54Z</time></trkpt><trkpt lat="46.01944304505506" lon="13.28805406175065"><ele>78.33333333333333</ele><time>2026-05-05T13:36:55Z</time></trkpt><trkpt lat="46.01946811245262" lon="13.287802736062691"><ele>78.0</ele><time>2026-05-05T13:36:56Z</time></trkpt><trkpt lat="46.01948989353806" lon="13.287562194663252"><ele>78.0</ele><time>2026-05-05T13:36:57Z</time></trkpt><trkpt lat="46.01950573851106" lon="13.287321642621555"><ele>78.0</ele><time>2026-05-05T13:36:58Z</time></trkpt><trkpt lat="46.01953002532126" lon="13.287080635569417"><ele>78.0</ele><time>2026-05-05T13:36:59Z</time></trkpt><trkpt lat="46.01956536432696" lon="13.286833486706472"><ele>78.0</ele><time>2026-05-05T13:37:00Z</time></trkpt><trkpt lat="46.01960425252648" lon="13.286573013637703"><ele>78.0</ele><time>2026-05-05T13:37:01Z</time></trkpt><trkpt lat="46.01963828428719" lon="13.286344801539713"><ele>78.0</ele><time>2026-05-05T13:37:02Z</time></trkpt><trkpt lat="46.01966852636097" lon="13.286144719722326"><ele>78.0</ele><time>2026-05-05T13:37:03Z</time></trkpt><trkpt lat="46.019699127497034" lon="13.285973974254055"><ele>78.0</ele><time>2026-05-05T13:37:04Z</time></trkpt><trkpt lat="46.01974440018366" lon="13.285842044416501"><ele>78.0</ele><time>2026-05-05T13:37:05Z</time></trkpt><trkpt lat="46.01980919987914" lon="13.28574331663"><ele>78.0</ele><time>2026-05-05T13:37:06Z</time></trkpt><trkpt lat="46.01988411660855" lon="13.285679270527712"><ele>78.0</ele><time>2026-05-05T13:37:07Z</time></trkpt><trkpt lat="46.01994308749048" lon="13.285617232420448"><ele>77.83333333333333</ele><time>2026-05-05T13:37:08Z</time></trkpt><trkpt lat="46.01997098923144" lon="13.285533216689426"><ele>77.66666666666667</ele><time>2026-05-05T13:37:09Z</time></trkpt><trkpt lat="46.01996726314881" lon="13.285430034078404"><ele>77.5</ele><time>2026-05-05T13:37:10Z</time></trkpt><trkpt lat="46.01993616410537" lon="13.28532287899706"><ele>77.33333333333334</ele><time>2026-05-05T13:37:11Z</time></trkpt><trkpt lat="46.019877299781314" lon="13.285213771181908"><ele>77.16666666666667</ele><time>2026-05-05T13:37:12Z</time></trkpt><trkpt lat="46.01983461490942" lon="13.285095047625692"><ele>77.0</ele><time>2026-05-05T13:37:13Z</time></trkpt><trkpt lat="46.01981000580233" lon="13.284961476555397"><ele>77.0</ele><time>2026-05-05T13:37:14Z</time></trkpt><trkpt lat="46.01979570052037" lon="13.28482536260259"><ele>77.0</ele><time>2026-05-05T13:37:15Z</time></trkpt><trkpt lat="46.01979004702168" lon="13.284668304065033"><ele>77.0</ele><time>2026-05-05T13:37:16Z</time></trkpt><trkpt lat="46.01979186313576" lon="13.284480930475683"><ele>77.0</ele><time>2026-05-05T13:37:17Z</time></trkpt><trkpt lat="46.019802438496754" lon="13.28429724724369"><ele>77.5</ele><time>2026-05-05T13:37:18Z</time></trkpt><trkpt lat="46.01981668331771" lon="13.284145368160223"><ele>78.0</ele><time>2026-05-05T13:37:19Z</time></trkpt><trkpt lat="46.01982718410721" lon="13.284000542251848"><ele>78.5</ele><time>2026-05-05T13:37:20Z</time></trkpt><trkpt lat="46.01983787973962" lon="13.283872634357538"><ele>79.0</ele><time>2026-05-05T13:37:21Z</time></trkpt><trkpt lat="46.01984878617949" lon="13.283759267166772"><ele>79.5</ele><time>2026-05-05T13:37:22Z</time></trkpt><trkpt lat="46.01985778295537" lon="13.283664965477998"><ele>80.0</ele><time>2026-05-05T13:37:23Z</time></trkpt><trkpt lat="46.01987067893624" lon="13.283516294062448"><ele>80.0</ele><time>2026-05-05T13:37:25Z</time></trkpt><trkpt lat="46.019880414358504" lon="13.283371585284689"><ele>80.0</ele><time>2026-05-05T13:37:27Z</time></trkpt><trkpt lat="46.019890717458985" lon="13.283211088697161"><ele>80.0</ele><time>2026-05-05T13:37:29Z</time></trkpt><trkpt lat="46.01989933246353" lon="13.283113617889699"><ele>80.0</ele><time>2026-05-05T13:37:30Z</time></trkpt><trkpt lat="46.019910503275526" lon="13.28301578112729"><ele>80.0</ele><time>2026-05-05T13:37:31Z</time></trkpt><trkpt lat="46.019920783049585" lon="13.282920824140103"><ele>80.0</ele><time>2026-05-05T13:37:32Z</time></trkpt><trkpt lat="46.01992940727454" lon="13.282826926407049"><ele>80.0</ele><time>2026-05-05T13:37:33Z</time></trkpt><trkpt lat="46.01993701663579" lon="13.28273673436762"><ele>80.0</ele><time>2026-05-05T13:37:34Z</time></trkpt><trkpt lat="46.019953588230265" lon="13.28260708402856"><ele>80.0</ele><time>2026-05-05T13:37:36Z</time></trkpt><trkpt lat="46.01996225202232" lon="13.2824922507268"><ele>80.0</ele><time>2026-05-05T13:37:39Z</time></trkpt><trkpt lat="46.01997171676129" lon="13.282347654468996"><ele>80.0</ele><time>2026-05-05T13:37:41Z</time></trkpt><trkpt lat="46.01999166138969" lon="13.282156358256682"><ele>80.0</ele><time>2026-05-05T13:37:43Z</time></trkpt><trkpt lat="46.019999631030274" lon="13.282047302902726"><ele>80.0</ele><time>2026-05-05T13:37:44Z</time></trkpt><trkpt lat="46.020007033718805" lon="13.281929660962867"><ele>80.0</ele><time>2026-05-05T13:37:45Z</time></trkpt><trkpt lat="46.020015752126056" lon="13.281801422909693"><ele>80.0</ele><time>2026-05-05T13:37:46Z</time></trkpt><trkpt lat="46.0200262648902" lon="13.281672074771853"><ele>80.0</ele><time>2026-05-05T13:37:47Z</time></trkpt><trkpt lat="46.02003620568743" lon="13.281550103460942"><ele>80.0</ele><time>2026-05-05T13:37:48Z</time></trkpt><trkpt lat="46.020043925651024" lon="13.281445404085714"><ele>79.83333333333334</ele><time>2026-05-05T13:37:49Z</time></trkpt><trkpt lat="46.02005162481874" lon="13.281354010768663"><ele>79.66666666666667</ele><time>2026-05-05T13:37:50Z</time></trkpt><trkpt lat="46.02008059415799" lon="13.281189399134561"><ele>79.5</ele><time>2026-05-05T13:37:52Z</time></trkpt><trkpt lat="46.02007300803205" lon="13.281094791910702"><ele>79.33333333333333</ele><time>2026-05-05T13:37:53Z</time></trkpt><trkpt lat="46.02009745543522" lon="13.28099816672621"><ele>79.16666666666666</ele><time>2026-05-05T13:37:54Z</time></trkpt><trkpt lat="46.02010715684889" lon="13.280888138017819"><ele>79.0</ele><time>2026-05-05T13:37:55Z</time></trkpt><trkpt lat="46.02010277094187" lon="13.280762528611284"><ele>79.0</ele><time>2026-05-05T13:37:56Z</time></trkpt><trkpt lat="46.020131177923695" lon="13.280625604702465"><ele>79.0</ele><time>2026-05-05T13:37:57Z</time></trkpt><trkpt lat="46.02013062419554" lon="13.280451312686647"><ele>79.0</ele><time>2026-05-05T13:37:58Z</time></trkpt><trkpt lat="46.020164952962354" lon="13.280249002748842"><ele>79.0</ele><time>2026-05-05T13:37:59Z</time></trkpt><trkpt lat="46.02018554926452" lon="13.280026696340311"><ele>79.0</ele><time>2026-05-05T13:38:00Z</time></trkpt><trkpt lat="46.02020616923801" lon="13.279803588976582"><ele>79.0</ele><time>2026-05-05T13:38:01Z</time></trkpt><trkpt lat="46.02022561445135" lon="13.279593192535902"><ele>79.0</ele><time>2026-05-05T13:38:02Z</time></trkpt><trkpt lat="46.02023052434807" lon="13.27938330760221"><ele>79.0</ele><time>2026-05-05T13:38:03Z</time></trkpt><trkpt lat="46.02024974492446" lon="13.279181135026988"><ele>79.0</ele><time>2026-05-05T13:38:04Z</time></trkpt><trkpt lat="46.02026643733493" lon="13.27898009127556"><ele>79.0</ele><time>2026-05-05T13:38:05Z</time></trkpt><trkpt lat="46.0202814494717" lon="13.278779413939896"><ele>79.0</ele><time>2026-05-05T13:38:06Z</time></trkpt><trkpt lat="46.02030360768846" lon="13.278554585185944"><ele>79.0</ele><time>2026-05-05T13:38:07Z</time></trkpt><trkpt lat="46.020326349405885" lon="13.278323334799406"><ele>80.0</ele><time>2026-05-05T13:38:08Z</time></trkpt><trkpt lat="46.02034519284126" lon="13.278093639236399"><ele>81.0</ele><time>2026-05-05T13:38:09Z</time></trkpt><trkpt lat="46.0203662643237" lon="13.277870733684933"><ele>82.0</ele><time>2026-05-05T13:38:10Z</time></trkpt><trkpt lat="46.020386470430516" lon="13.27764375019527"><ele>82.0</ele><time>2026-05-05T13:38:11Z</time></trkpt><trkpt lat="46.020409055831934" lon="13.277412697625861"><ele>82.0</ele><time>2026-05-05T13:38:12Z</time></trkpt><trkpt lat="46.02043124370798" lon="13.277181275860887"><ele>82.0</ele><time>2026-05-05T13:38:13Z</time></trkpt><trkpt lat="46.0204516613326" lon="13.276946066828792"><ele>81.33333333333333</ele><time>2026-05-05T13:38:14Z</time></trkpt><trkpt lat="46.02046991628312" lon="13.276719988569806"><ele>80.66666666666667</ele><time>2026-05-05T13:38:15Z</time></trkpt><trkpt lat="46.020488999741026" lon="13.27650087692544"><ele>80.0</ele><time>2026-05-05T13:38:16Z</time></trkpt><trkpt lat="46.020508267536435" lon="13.276280260525539"><ele>79.33333333333334</ele><time>2026-05-05T13:38:17Z</time></trkpt><trkpt lat="46.020530408146" lon="13.27606207592211"><ele>78.66666666666667</ele><time>2026-05-05T13:38:18Z</time></trkpt><trkpt lat="46.020547660978465" lon="13.275847013500126"><ele>78.0</ele><time>2026-05-05T13:38:19Z</time></trkpt><trkpt lat="46.02056690260572" lon="13.27562521171519"><ele>77.75</ele><time>2026-05-05T13:38:20Z</time></trkpt><trkpt lat="46.02058950672126" lon="13.27540548958758"><ele>77.5</ele><time>2026-05-05T13:38:21Z</time></trkpt><trkpt lat="46.02060831882802" lon="13.275192028048943"><ele>77.25</ele><time>2026-05-05T13:38:22Z</time></trkpt><trkpt lat="46.02062700533413" lon="13.274989223003091"><ele>77.0</ele><time>2026-05-05T13:38:23Z</time></trkpt><trkpt lat="46.020644571957206" lon="13.27478876510641"><ele>78.25</ele><time>2026-05-05T13:38:24Z</time></trkpt><trkpt lat="46.02066311541681" lon="13.27459753752183"><ele>79.5</ele><time>2026-05-05T13:38:25Z</time></trkpt><trkpt lat="46.020682274395085" lon="13.27440256728797"><ele>80.75</ele><time>2026-05-05T13:38:26Z</time></trkpt><trkpt lat="46.02070075914961" lon="13.274194290103294"><ele>82.0</ele><time>2026-05-05T13:38:27Z</time></trkpt><trkpt lat="46.020721031606215" lon="13.273987077947892"><ele>82.0</ele><time>2026-05-05T13:38:28Z</time></trkpt><trkpt lat="46.0207409399756" lon="13.273778905413973"><ele>82.0</ele><time>2026-05-05T13:38:29Z</time></trkpt><trkpt lat="46.02076229051572" lon="13.273568852436965"><ele>82.0</ele><time>2026-05-05T13:38:30Z</time></trkpt><trkpt lat="46.020784962730914" lon="13.273357801689505"><ele>82.0</ele><time>2026-05-05T13:38:31Z</time></trkpt><trkpt lat="46.02080117504282" lon="13.27315974290078"><ele>82.25</ele><time>2026-05-05T13:38:32Z</time></trkpt><trkpt lat="46.020817624471455" lon="13.272975734725314"><ele>82.5</ele><time>2026-05-05T13:38:33Z</time></trkpt><trkpt lat="46.02083292855483" lon="13.272782819794505"><ele>82.75</ele><time>2026-05-05T13:38:34Z</time></trkpt><trkpt lat="46.020841472145" lon="13.272581327188933"><ele>83.0</ele><time>2026-05-05T13:38:35Z</time></trkpt><trkpt lat="46.02083523776019" lon="13.272379099259295"><ele>82.33333333333334</ele><time>2026-05-05T13:38:36Z</time></trkpt><trkpt lat="46.02080977399946" lon="13.272168231756996"><ele>81.66666666666667</ele><time>2026-05-05T13:38:37Z</time></trkpt><trkpt lat="46.020771996596196" lon="13.27194340504955"><ele>81.0</ele><time>2026-05-05T13:38:38Z</time></trkpt><trkpt lat="46.02073098923417" lon="13.271697065972003"><ele>80.66666666666667</ele><time>2026-05-05T13:38:39Z</time></trkpt><trkpt lat="46.020677057415845" lon="13.271428480440427"><ele>80.33333333333334</ele><time>2026-05-05T13:38:40Z</time></trkpt><trkpt lat="46.020643757699666" lon="13.271133300541363"><ele>80.0</ele><time>2026-05-05T13:38:41Z</time></trkpt><trkpt lat="46.02059093298452" lon="13.270814902361744"><ele>81.5</ele><time>2026-05-05T13:38:42Z</time></trkpt><trkpt lat="46.020533234688415" lon="13.270468692520996"><ele>83.0</ele><time>2026-05-05T13:38:43Z</time></trkpt><trkpt lat="46.02046448843372" lon="13.270120503591981"><ele>82.0</ele><time>2026-05-05T13:38:44Z</time></trkpt><trkpt lat="46.02041299636336" lon="13.269769728569024"><ele>81.0</ele><time>2026-05-05T13:38:45Z</time></trkpt><trkpt lat="46.02035604246019" lon="13.269429267387704"><ele>81.0</ele><time>2026-05-05T13:38:46Z</time></trkpt><trkpt lat="46.02029684886496" lon="13.269105792647485"><ele>81.0</ele><time>2026-05-05T13:38:47Z</time></trkpt><trkpt lat="46.02022871529532" lon="13.268773759223135"><ele>81.0</ele><time>2026-05-05T13:38:48Z</time></trkpt><trkpt lat="46.020154768687554" lon="13.268435103019034"><ele>81.0</ele><time>2026-05-05T13:38:49Z</time></trkpt><trkpt lat="46.020083115011985" lon="13.268088678273413"><ele>81.5</ele><time>2026-05-05T13:38:50Z</time></trkpt><trkpt lat="46.02000830580849" lon="13.267736818694999"><ele>82.0</ele><time>2026-05-05T13:38:51Z</time></trkpt><trkpt lat="46.019929945972436" lon="13.267376385227632"><ele>82.0</ele><time>2026-05-05T13:38:52Z</time></trkpt><trkpt lat="46.01984580460511" lon="13.267013664616355"><ele>82.0</ele><time>2026-05-05T13:38:53Z</time></trkpt><trkpt lat="46.019757094276514" lon="13.266655909252469"><ele>80.5</ele><time>2026-05-05T13:38:54Z</time></trkpt><trkpt lat="46.01965691155565" lon="13.266299607757556"><ele>79.0</ele><time>2026-05-05T13:38:55Z</time></trkpt><trkpt lat="46.01955622450624" lon="13.265959530354667"><ele>79.0</ele><time>2026-05-05T13:38:56Z</time></trkpt><trkpt lat="46.019449279711935" lon="13.265634147775543"><ele>79.0</ele><time>2026-05-05T13:38:57Z</time></trkpt><trkpt lat="46.01934189069151" lon="13.265318288605759"><ele>79.5</ele><time>2026-05-05T13:38:58Z</time></trkpt><trkpt lat="46.01922401936288" lon="13.2650079294776"><ele>80.0</ele><time>2026-05-05T13:38:59Z</time></trkpt><trkpt lat="46.019104239880285" lon="13.26469088894656"><ele>80.5</ele><time>2026-05-05T13:39:00Z</time></trkpt><trkpt lat="46.01897779245317" lon="13.264359409786804"><ele>81.0</ele><time>2026-05-05T13:39:01Z</time></trkpt><trkpt lat="46.01884956541933" lon="13.26402270129006"><ele>80.5</ele><time>2026-05-05T13:39:02Z</time></trkpt><trkpt lat="46.018725595426694" lon="13.26368301009865"><ele>80.0</ele><time>2026-05-05T13:39:03Z</time></trkpt><trkpt lat="46.018603708409046" lon="13.263351044949848"><ele>80.0</ele><time>2026-05-05T13:39:04Z</time></trkpt><trkpt lat="46.01848511239022" lon="13.263030493345298"><ele>80.0</ele><time>2026-05-05T13:39:05Z</time></trkpt><trkpt lat="46.018366998533544" lon="13.262715493215245"><ele>80.0</ele><time>2026-05-05T13:39:06Z</time></trkpt><trkpt lat="46.01824592750497" lon="13.262392116077685"><ele>80.0</ele><time>2026-05-05T13:39:07Z</time></trkpt><trkpt lat="46.018120639182726" lon="13.262054082064099"><ele>79.0</ele><time>2026-05-05T13:39:08Z</time></trkpt><trkpt lat="46.01798802034406" lon="13.26170403319925"><ele>78.0</ele><time>2026-05-05T13:39:09Z</time></trkpt><trkpt lat="46.01784817024437" lon="13.261344210389495"><ele>78.0</ele><time>2026-05-05T13:39:10Z</time></trkpt><trkpt lat="46.01769920771938" lon="13.260961284152016"><ele>78.0</ele><time>2026-05-05T13:39:11Z</time></trkpt><trkpt lat="46.01755010757365" lon="13.260571918623029"><ele>78.5</ele><time>2026-05-05T13:39:12Z</time></trkpt><trkpt lat="46.01740126267418" lon="13.260173995666525"><ele>79.0</ele><time>2026-05-05T13:39:13Z</time></trkpt><trkpt lat="46.01725342711505" lon="13.259771131129156"><ele>79.5</ele><time>2026-05-05T13:39:14Z</time></trkpt><trkpt lat="46.01710867383825" lon="13.259367676048704"><ele>80.0</ele><time>2026-05-05T13:39:15Z</time></trkpt><trkpt lat="46.016963746022256" lon="13.258963993742901"><ele>79.5</ele><time>2026-05-05T13:39:16Z</time></trkpt><trkpt lat="46.0168296229706" lon="13.25857981764838"><ele>79.0</ele><time>2026-05-05T13:39:17Z</time></trkpt><trkpt lat="46.016699419404446" lon="13.258192909927473"><ele>78.5</ele><time>2026-05-05T13:39:18Z</time></trkpt><trkpt lat="46.01657528738793" lon="13.257810136727265"><ele>78.0</ele><time>2026-05-05T13:39:19Z</time></trkpt><trkpt lat="46.01645600046629" lon="13.257422130636144"><ele>77.5</ele><time>2026-05-05T13:39:20Z</time></trkpt><trkpt lat="46.01634342992569" lon="13.257031493716642"><ele>77.0</ele><time>2026-05-05T13:39:21Z</time></trkpt><trkpt lat="46.01623872110777" lon="13.256643616993605"><ele>75.5</ele><time>2026-05-05T13:39:22Z</time></trkpt><trkpt lat="46.01613819996773" lon="13.256256565874535"><ele>74.0</ele><time>2026-05-05T13:39:23Z</time></trkpt><trkpt lat="46.0160456374789" lon="13.25587060268953"><ele>73.5</ele><time>2026-05-05T13:39:24Z</time></trkpt><trkpt lat="46.01595733546711" lon="13.255489461714212"><ele>73.0</ele><time>2026-05-05T13:39:25Z</time></trkpt><trkpt lat="46.015874767673694" lon="13.255107489678874"><ele>74.0</ele><time>2026-05-05T13:39:26Z</time></trkpt><trkpt lat="46.01580326752531" lon="13.254719468045947"><ele>75.0</ele><time>2026-05-05T13:39:27Z</time></trkpt><trkpt lat="46.01573672263287" lon="13.254327085230653"><ele>76.0</ele><time>2026-05-05T13:39:28Z</time></trkpt><trkpt lat="46.015677861438036" lon="13.253932652187261"><ele>77.0</ele><time>2026-05-05T13:39:29Z</time></trkpt><trkpt lat="46.01562486419875" lon="13.253533542707485"><ele>76.5</ele><time>2026-05-05T13:39:30Z</time></trkpt><trkpt lat="46.01557617205673" lon="13.253122249823564"><ele>76.0</ele><time>2026-05-05T13:39:31Z</time></trkpt><trkpt lat="46.01553213717978" lon="13.252703171563907"><ele>75.5</ele><time>2026-05-05T13:39:32Z</time></trkpt><trkpt lat="46.015497028871785" lon="13.25227682940976"><ele>75.0</ele><time>2026-05-05T13:39:33Z</time></trkpt><trkpt lat="46.01546889680547" lon="13.251846908815317"><ele>75.0</ele><time>2026-05-05T13:39:34Z</time></trkpt><trkpt lat="46.01544796828655" lon="13.251413962225248"><ele>75.0</ele><time>2026-05-05T13:39:35Z</time></trkpt><trkpt lat="46.015436029392006" lon="13.250982180629547"><ele>76.0</ele><time>2026-05-05T13:39:36Z</time></trkpt><trkpt lat="46.01543562142962" lon="13.250550497214954"><ele>77.0</ele><time>2026-05-05T13:39:37Z</time></trkpt><trkpt lat="46.0154345883564" lon="13.250123038283721"><ele>76.5</ele><time>2026-05-05T13:39:38Z</time></trkpt><trkpt lat="46.01543507565923" lon="13.249698094634022"><ele>76.0</ele><time>2026-05-05T13:39:39Z</time></trkpt><trkpt lat="46.015436015703045" lon="13.249273470771092"><ele>75.5</ele><time>2026-05-05T13:39:40Z</time></trkpt><trkpt lat="46.01544261207407" lon="13.248840135700846"><ele>75.0</ele><time>2026-05-05T13:39:41Z</time></trkpt><trkpt lat="46.0155263531878" lon="13.248389412745889"><ele>74.0</ele><time>2026-05-05T13:39:42Z</time></trkpt><trkpt lat="46.01556858314837" lon="13.247960452872391"><ele>73.0</ele><time>2026-05-05T13:39:43Z</time></trkpt><trkpt lat="46.015615856615206" lon="13.247537145387316"><ele>75.0</ele><time>2026-05-05T13:39:44Z</time></trkpt><trkpt lat="46.01566410321468" lon="13.24712758468802"><ele>77.0</ele><time>2026-05-05T13:39:45Z</time></trkpt><trkpt lat="46.01571938721625" lon="13.246728024562561"><ele>78.5</ele><time>2026-05-05T13:39:46Z</time></trkpt><trkpt lat="46.01577695843891" lon="13.246317989350588"><ele>80.0</ele><time>2026-05-05T13:39:47Z</time></trkpt><trkpt lat="46.01584127114108" lon="13.245906756430458"><ele>77.5</ele><time>2026-05-05T13:39:48Z</time></trkpt><trkpt lat="46.015912398487494" lon="13.245476369484166"><ele>75.0</ele><time>2026-05-05T13:39:49Z</time></trkpt><trkpt lat="46.01598639539342" lon="13.245040708993146"><ele>76.5</ele><time>2026-05-05T13:39:50Z</time></trkpt><trkpt lat="46.01606019200098" lon="13.244610209487698"><ele>78.0</ele><time>2026-05-05T13:39:51Z</time></trkpt><trkpt lat="46.0161352458336" lon="13.244190292163038"><ele>77.5</ele><time>2026-05-05T13:39:52Z</time></trkpt><trkpt lat="46.016213380589825" lon="13.243774399318216"><ele>77.0</ele><time>2026-05-05T13:39:53Z</time></trkpt><trkpt lat="46.016294616622844" lon="13.243366942856417"><ele>78.5</ele><time>2026-05-05T13:39:54Z</time></trkpt><trkpt lat="46.01635764019296" lon="13.242952347994375"><ele>80.0</ele><time>2026-05-05T13:39:55Z</time></trkpt><trkpt lat="46.01644995015131" lon="13.242536514312471"><ele>79.0</ele><time>2026-05-05T13:39:56Z</time></trkpt><trkpt lat="46.016531281205985" lon="13.242114068105085"><ele>78.0</ele><time>2026-05-05T13:39:57Z</time></trkpt><trkpt lat="46.016609453629194" lon="13.241688380108062"><ele>77.0</ele><time>2026-05-05T13:39:58Z</time></trkpt><trkpt lat="46.016690199198266" lon="13.24125870518389"><ele>76.0</ele><time>2026-05-05T13:39:59Z</time></trkpt><trkpt lat="46.01677195221861" lon="13.240824595731285"><ele>77.0</ele><time>2026-05-05T13:40:00Z</time></trkpt><trkpt lat="46.0168557264818" lon="13.240396993158905"><ele>78.0</ele><time>2026-05-05T13:40:01Z</time></trkpt><trkpt lat="46.01694143034855" lon="13.239958045674832"><ele>77.0</ele><time>2026-05-05T13:40:02Z</time></trkpt><trkpt lat="46.01701916823235" lon="13.239523944699679"><ele>76.0</ele><time>2026-05-05T13:40:03Z</time></trkpt><trkpt lat="46.01709456692914" lon="13.23910600630362"><ele>76.5</ele><time>2026-05-05T13:40:04Z</time></trkpt><trkpt lat="46.01717008720746" lon="13.238692423468951"><ele>77.0</ele><time>2026-05-05T13:40:05Z</time></trkpt><trkpt lat="46.017246217550785" lon="13.238283855537748"><ele>77.0</ele><time>2026-05-05T13:40:06Z</time></trkpt><trkpt lat="46.017322168753076" lon="13.23788113803686"><ele>77.0</ele><time>2026-05-05T13:40:07Z</time></trkpt><trkpt lat="46.017396611964784" lon="13.237480597542774"><ele>77.0</ele><time>2026-05-05T13:40:08Z</time></trkpt><trkpt lat="46.01747020862746" lon="13.237084445887465"><ele>77.0</ele><time>2026-05-05T13:40:09Z</time></trkpt><trkpt lat="46.01754090587262" lon="13.236685065650084"><ele>78.0</ele><time>2026-05-05T13:40:10Z</time></trkpt><trkpt lat="46.017609285707515" lon="13.236303195123128"><ele>79.0</ele><time>2026-05-05T13:40:11Z</time></trkpt><trkpt lat="46.0176731854662" lon="13.235928004241362"><ele>78.5</ele><time>2026-05-05T13:40:12Z</time></trkpt><trkpt lat="46.017726719595416" lon="13.235548757694717"><ele>78.0</ele><time>2026-05-05T13:40:13Z</time></trkpt><trkpt lat="46.017772390458084" lon="13.235163109208951"><ele>78.0</ele><time>2026-05-05T13:40:14Z</time></trkpt><trkpt lat="46.017805012794895" lon="13.234769361441153"><ele>78.0</ele><time>2026-05-05T13:40:15Z</time></trkpt><trkpt lat="46.017827845252555" lon="13.234371892648351"><ele>78.0</ele><time>2026-05-05T13:40:16Z</time></trkpt><trkpt lat="46.017844962694845" lon="13.233966553824033"><ele>78.0</ele><time>2026-05-05T13:40:17Z</time></trkpt><trkpt lat="46.01785403044943" lon="13.23356435330349"><ele>78.0</ele><time>2026-05-05T13:40:18Z</time></trkpt><trkpt lat="46.017854595769954" lon="13.233165577361822"><ele>78.0</ele><time>2026-05-05T13:40:19Z</time></trkpt><trkpt lat="46.01784098855457" lon="13.232768782337907"><ele>78.0</ele><time>2026-05-05T13:40:20Z</time></trkpt><trkpt lat="46.017814998991284" lon="13.232369942487539"><ele>78.0</ele><time>2026-05-05T13:40:21Z</time></trkpt><trkpt lat="46.01777469961821" lon="13.231970997941566"><ele>78.0</ele><time>2026-05-05T13:40:22Z</time></trkpt><trkpt lat="46.017722821198426" lon="13.231569151724356"><ele>78.0</ele><time>2026-05-05T13:40:23Z</time></trkpt><trkpt lat="46.01766784259045" lon="13.231176730385645"><ele>78.0</ele><time>2026-05-05T13:40:24Z</time></trkpt><trkpt lat="46.017617696692184" lon="13.230807669841779"><ele>78.0</ele><time>2026-05-05T13:40:25Z</time></trkpt><trkpt lat="46.017570719104995" lon="13.230465073789109"><ele>78.0</ele><time>2026-05-05T13:40:26Z</time></trkpt><trkpt lat="46.017519504747256" lon="13.230138898803437"><ele>78.0</ele><time>2026-05-05T13:40:27Z</time></trkpt><trkpt lat="46.01746128317759" lon="13.22984106056649"><ele>78.0</ele><time>2026-05-05T13:40:28Z</time></trkpt><trkpt lat="46.017396318215404" lon="13.229567548940896"><ele>78.0</ele><time>2026-05-05T13:40:29Z</time></trkpt><trkpt lat="46.01733001083982" lon="13.229318485928165"><ele>78.0</ele><time>2026-05-05T13:40:30Z</time></trkpt><trkpt lat="46.01726125816829" lon="13.229087991654094"><ele>78.0</ele><time>2026-05-05T13:40:31Z</time></trkpt><trkpt lat="46.017195039366406" lon="13.22886880268785"><ele>78.25</ele><time>2026-05-05T13:40:32Z</time></trkpt><trkpt lat="46.01713452613621" lon="13.228663944875525"><ele>78.5</ele><time>2026-05-05T13:40:33Z</time></trkpt><trkpt lat="46.01708237396818" lon="13.228463706815182"><ele>78.75</ele><time>2026-05-05T13:40:34Z</time></trkpt><trkpt lat="46.01704388997932" lon="13.228267301192751"><ele>79.0</ele><time>2026-05-05T13:40:35Z</time></trkpt><trkpt lat="46.01701415453628" lon="13.228071814709411"><ele>79.25</ele><time>2026-05-05T13:40:36Z</time></trkpt><trkpt lat="46.016991648223424" lon="13.227872841544572"><ele>79.5</ele><time>2026-05-05T13:40:37Z</time></trkpt><trkpt lat="46.01697501804965" lon="13.227663559739593"><ele>79.75</ele><time>2026-05-05T13:40:38Z</time></trkpt><trkpt lat="46.01696491669745" lon="13.227447453907269"><ele>80.0</ele><time>2026-05-05T13:40:39Z</time></trkpt><trkpt lat="46.01696645417112" lon="13.227223505465997"><ele>80.0</ele><time>2026-05-05T13:40:40Z</time></trkpt><trkpt lat="46.01698072047678" lon="13.226992093430928"><ele>80.0</ele><time>2026-05-05T13:40:41Z</time></trkpt><trkpt lat="46.01700295697879" lon="13.226758177143962"><ele>80.0</ele><time>2026-05-05T13:40:42Z</time></trkpt><trkpt lat="46.01703552282069" lon="13.226517539623167"><ele>80.0</ele><time>2026-05-05T13:40:43Z</time></trkpt><trkpt lat="46.01707628740406" lon="13.226266040433961"><ele>80.0</ele><time>2026-05-05T13:40:44Z</time></trkpt><trkpt lat="46.01711594569696" lon="13.226011005414934"><ele>80.0</ele><time>2026-05-05T13:40:45Z</time></trkpt><trkpt lat="46.01714205880697" lon="13.22573393024285"><ele>79.33333333333334</ele><time>2026-05-05T13:40:46Z</time></trkpt><trkpt lat="46.017149501038105" lon="13.225455789048947"><ele>78.66666666666667</ele><time>2026-05-05T13:40:47Z</time></trkpt><trkpt lat="46.01713714850855" lon="13.22518718966694"><ele>78.0</ele><time>2026-05-05T13:40:48Z</time></trkpt><trkpt lat="46.017104949058314" lon="13.224921106958435"><ele>78.0</ele><time>2026-05-05T13:40:49Z</time></trkpt><trkpt lat="46.01706265621016" lon="13.224669287388744"><ele>78.0</ele><time>2026-05-05T13:40:50Z</time></trkpt><trkpt lat="46.0170105991447" lon="13.224438176729615"><ele>78.0</ele><time>2026-05-05T13:40:51Z</time></trkpt><trkpt lat="46.016958263549384" lon="13.22422536155281"><ele>78.0</ele><time>2026-05-05T13:40:52Z</time></trkpt><trkpt lat="46.01691060998775" lon="13.224015426293434"><ele>78.0</ele><time>2026-05-05T13:40:53Z</time></trkpt><trkpt lat="46.01686738093746" lon="13.223795875024884"><ele>78.0</ele><time>2026-05-05T13:40:54Z</time></trkpt><trkpt lat="46.01683256410444" lon="13.223572750160447"><ele>78.0</ele><time>2026-05-05T13:40:55Z</time></trkpt><trkpt lat="46.016807091392714" lon="13.223353943194848"><ele>78.0</ele><time>2026-05-05T13:40:56Z</time></trkpt><trkpt lat="46.01679121149215" lon="13.22314069772665"><ele>78.0</ele><time>2026-05-05T13:40:57Z</time></trkpt><trkpt lat="46.016787906881035" lon="13.222933868225708"><ele>78.0</ele><time>2026-05-05T13:40:58Z</time></trkpt><trkpt lat="46.01679725694317" lon="13.22272511638944"><ele>78.0</ele><time>2026-05-05T13:40:59Z</time></trkpt><trkpt lat="46.01681767125668" lon="13.22251187850741"><ele>78.0</ele><time>2026-05-05T13:41:00Z</time></trkpt><trkpt lat="46.01685005453266" lon="13.22229389878841"><ele>78.0</ele><time>2026-05-05T13:41:01Z</time></trkpt><trkpt lat="46.01689281522205" lon="13.22207409969801"><ele>78.0</ele><time>2026-05-05T13:41:02Z</time></trkpt><trkpt lat="46.01694112197824" lon="13.22184580032127"><ele>78.0</ele><time>2026-05-05T13:41:03Z</time></trkpt><trkpt lat="46.016987153014114" lon="13.221609617908909"><ele>78.0</ele><time>2026-05-05T13:41:04Z</time></trkpt><trkpt lat="46.01703324969598" lon="13.221365971929496"><ele>78.0</ele><time>2026-05-05T13:41:05Z</time></trkpt><trkpt lat="46.01708055046813" lon="13.221123243111242"><ele>78.0</ele><time>2026-05-05T13:41:06Z</time></trkpt><trkpt lat="46.01712742106015" lon="13.220874265889131"><ele>78.0</ele><time>2026-05-05T13:41:07Z</time></trkpt><trkpt lat="46.017179339838805" lon="13.220613156841958"><ele>78.0</ele><time>2026-05-05T13:41:08Z</time></trkpt><trkpt lat="46.01723377738767" lon="13.220350351312163"><ele>78.0</ele><time>2026-05-05T13:41:09Z</time></trkpt><trkpt lat="46.017293559761086" lon="13.220079970843141"><ele>78.0</ele><time>2026-05-05T13:41:10Z</time></trkpt><trkpt lat="46.017351602969015" lon="13.219822789991357"><ele>78.66666666666667</ele><time>2026-05-05T13:41:11Z</time></trkpt><trkpt lat="46.01741935330943" lon="13.219560720052822"><ele>79.33333333333334</ele><time>2026-05-05T13:41:12Z</time></trkpt><trkpt lat="46.0174989635288" lon="13.219292517077504"><ele>80.0</ele><time>2026-05-05T13:41:13Z</time></trkpt><trkpt lat="46.01758872946416" lon="13.219017080449754"><ele>80.66666666666667</ele><time>2026-05-05T13:41:14Z</time></trkpt><trkpt lat="46.01768673849401" lon="13.218749241263582"><ele>81.33333333333333</ele><time>2026-05-05T13:41:15Z</time></trkpt><trkpt lat="46.01779418006961" lon="13.218481004666936"><ele>82.0</ele><time>2026-05-05T13:41:16Z</time></trkpt><trkpt lat="46.01791678691108" lon="13.21821193103577"><ele>82.0</ele><time>2026-05-05T13:41:17Z</time></trkpt><trkpt lat="46.01804876432267" lon="13.217946985768199"><ele>82.0</ele><time>2026-05-05T13:41:18Z</time></trkpt><trkpt lat="46.01817566990578" lon="13.217698219759862"><ele>82.0</ele><time>2026-05-05T13:41:19Z</time></trkpt><trkpt lat="46.0183096326455" lon="13.217460181936344"><ele>81.66666666666666</ele><time>2026-05-05T13:41:20Z</time></trkpt><trkpt lat="46.01845820242792" lon="13.217249213386417"><ele>81.33333333333333</ele><time>2026-05-05T13:41:21Z</time></trkpt><trkpt lat="46.018626457077396" lon="13.217046671547386"><ele>81.0</ele><time>2026-05-05T13:41:22Z</time></trkpt><trkpt lat="46.01880626399168" lon="13.2168476268098"><ele>81.0</ele><time>2026-05-05T13:41:23Z</time></trkpt><trkpt lat="46.01899515988243" lon="13.216649337598987"><ele>81.0</ele><time>2026-05-05T13:41:24Z</time></trkpt><trkpt lat="46.019175456278845" lon="13.216460916340996"><ele>80.0</ele><time>2026-05-05T13:41:25Z</time></trkpt><trkpt lat="46.01936296603725" lon="13.216283284942195"><ele>79.0</ele><time>2026-05-05T13:41:26Z</time></trkpt><trkpt lat="46.0195620660918" lon="13.216104376201397"><ele>79.0</ele><time>2026-05-05T13:41:27Z</time></trkpt><trkpt lat="46.01976442731091" lon="13.215924739665164"><ele>79.0</ele><time>2026-05-05T13:41:28Z</time></trkpt><trkpt lat="46.01997040559555" lon="13.215743437463919"><ele>79.0</ele><time>2026-05-05T13:41:29Z</time></trkpt><trkpt lat="46.02018256251073" lon="13.215565122436754"><ele>79.0</ele><time>2026-05-05T13:41:30Z</time></trkpt><trkpt lat="46.02039092659716" lon="13.215381388967213"><ele>79.0</ele><time>2026-05-05T13:41:31Z</time></trkpt><trkpt lat="46.020603184051716" lon="13.215200375095254"><ele>79.0</ele><time>2026-05-05T13:41:32Z</time></trkpt><trkpt lat="46.0208086880645" lon="13.215030581730556"><ele>79.0</ele><time>2026-05-05T13:41:33Z</time></trkpt><trkpt lat="46.02100310587263" lon="13.214877686594109"><ele>79.0</ele><time>2026-05-05T13:41:34Z</time></trkpt><trkpt lat="46.02117510159756" lon="13.214732493583707"><ele>79.0</ele><time>2026-05-05T13:41:35Z</time></trkpt><trkpt lat="46.021351541672956" lon="13.214590672840831"><ele>79.33333333333333</ele><time>2026-05-05T13:41:36Z</time></trkpt><trkpt lat="46.021531342203495" lon="13.21444627432678"><ele>79.66666666666667</ele><time>2026-05-05T13:41:37Z</time></trkpt><trkpt lat="46.02170158548246" lon="13.21430319175909"><ele>80.0</ele><time>2026-05-05T13:41:38Z</time></trkpt><trkpt lat="46.02186863244851" lon="13.214160520555303"><ele>80.33333333333334</ele><time>2026-05-05T13:41:39Z</time></trkpt><trkpt lat="46.0220370380103" lon="13.214018355175044"><ele>80.66666666666667</ele><time>2026-05-05T13:41:40Z</time></trkpt><trkpt lat="46.022204844020735" lon="13.213877632186524"><ele>81.0</ele><time>2026-05-05T13:41:41Z</time></trkpt><trkpt lat="46.02237185002876" lon="13.21374386239904"><ele>80.66666666666667</ele><time>2026-05-05T13:41:42Z</time></trkpt><trkpt lat="46.02253005380696" lon="13.213603184991824"><ele>80.33333333333334</ele><time>2026-05-05T13:41:43Z</time></trkpt><trkpt lat="46.02270029181112" lon="13.213474990309065"><ele>80.0</ele><time>2026-05-05T13:41:44Z</time></trkpt><trkpt lat="46.02286992972725" lon="13.21334877860634"><ele>80.0</ele><time>2026-05-05T13:41:45Z</time></trkpt><trkpt lat="46.02304332042806" lon="13.213239339666648"><ele>80.0</ele><time>2026-05-05T13:41:46Z</time></trkpt><trkpt lat="46.02321251260108" lon="13.213141746134015"><ele>80.0</ele><time>2026-05-05T13:41:47Z</time></trkpt><trkpt lat="46.0233890421839" lon="13.213051288631016"><ele>79.66666666666667</ele><time>2026-05-05T13:41:48Z</time></trkpt><trkpt lat="46.02356489609326" lon="13.21296989289906"><ele>79.33333333333333</ele><time>2026-05-05T13:41:49Z</time></trkpt><trkpt lat="46.02373634340978" lon="13.212905725004013"><ele>79.0</ele><time>2026-05-05T13:41:50Z</time></trkpt><trkpt lat="46.023900731089185" lon="13.212863512766155"><ele>79.0</ele><time>2026-05-05T13:41:51Z</time></trkpt><trkpt lat="46.02406795799293" lon="13.212843972822547"><ele>79.0</ele><time>2026-05-05T13:41:52Z</time></trkpt><trkpt lat="46.02423639470014" lon="13.21283622117234"><ele>79.0</ele><time>2026-05-05T13:41:53Z</time></trkpt><trkpt lat="46.02439926163722" lon="13.212836706611885"><ele>79.0</ele><time>2026-05-05T13:41:54Z</time></trkpt><trkpt lat="46.0245638258525" lon="13.212841111206792"><ele>79.0</ele><time>2026-05-05T13:41:55Z</time></trkpt><trkpt lat="46.024730230687396" lon="13.21284984272521"><ele>79.0</ele><time>2026-05-05T13:41:56Z</time></trkpt><trkpt lat="46.02489506940181" lon="13.212863630920236"><ele>78.66666666666666</ele><time>2026-05-05T13:41:57Z</time></trkpt><trkpt lat="46.02506342042366" lon="13.212886233090796"><ele>78.33333333333333</ele><time>2026-05-05T13:41:58Z</time></trkpt><trkpt lat="46.02523746582615" lon="13.212903592848104"><ele>78.0</ele><time>2026-05-05T13:41:59Z</time></trkpt><trkpt lat="46.0254110209938" lon="13.212921823131005"><ele>78.0</ele><time>2026-05-05T13:42:00Z</time></trkpt><trkpt lat="46.02558591536172" lon="13.212935682840232"><ele>78.0</ele><time>2026-05-05T13:42:01Z</time></trkpt><trkpt lat="46.02575981086689" lon="13.212949394150268"><ele>78.0</ele><time>2026-05-05T13:42:02Z</time></trkpt><trkpt lat="46.025938841514886" lon="13.212968089477268"><ele>78.0</ele><time>2026-05-05T13:42:03Z</time></trkpt><trkpt lat="46.026121307459725" lon="13.212991920490921"><ele>78.0</ele><time>2026-05-05T13:42:04Z</time></trkpt><trkpt lat="46.02630517869221" lon="13.213012845093104"><ele>78.0</ele><time>2026-05-05T13:42:05Z</time></trkpt><trkpt lat="46.02649441772211" lon="13.213036768534554"><ele>77.66666666666667</ele><time>2026-05-05T13:42:06Z</time></trkpt><trkpt lat="46.02668754109339" lon="13.21305875975662"><ele>77.33333333333334</ele><time>2026-05-05T13:42:07Z</time></trkpt><trkpt lat="46.02688309112476" lon="13.213079769904198"><ele>77.0</ele><time>2026-05-05T13:42:08Z</time></trkpt><trkpt lat="46.02707990183219" lon="13.213101917169505"><ele>77.0</ele><time>2026-05-05T13:42:09Z</time></trkpt><trkpt lat="46.02726195148608" lon="13.213120090380858"><ele>77.0</ele><time>2026-05-05T13:42:10Z</time></trkpt><trkpt lat="46.027425505766544" lon="13.213134283294313"><ele>77.0</ele><time>2026-05-05T13:42:11Z</time></trkpt><trkpt lat="46.0275777524502" lon="13.213146813555122"><ele>78.5</ele><time>2026-05-05T13:42:12Z</time></trkpt><trkpt lat="46.027727662917606" lon="13.213157511425797"><ele>80.0</ele><time>2026-05-05T13:42:13Z</time></trkpt><trkpt lat="46.02786390246292" lon="13.213167917537806"><ele>81.5</ele><time>2026-05-05T13:42:14Z</time></trkpt><trkpt lat="46.027985155742826" lon="13.213179089615274"><ele>83.0</ele><time>2026-05-05T13:42:15Z</time></trkpt><trkpt lat="46.02808819448032" lon="13.213182365765006"><ele>83.0</ele><time>2026-05-05T13:42:16Z</time></trkpt><trkpt lat="46.028174710430704" lon="13.213189163296738"><ele>83.0</ele><time>2026-05-05T13:42:17Z</time></trkpt><trkpt lat="46.02824162104057" lon="13.213194766960344"><ele>83.0</ele><time>2026-05-05T13:42:18Z</time></trkpt><trkpt lat="46.02830461872659" lon="13.213201607264708"><ele>83.0</ele><time>2026-05-05T13:42:19Z</time></trkpt><trkpt lat="46.02839544424656" lon="13.213234831590029"><ele>83.0</ele><time>2026-05-05T13:42:21Z</time></trkpt><trkpt lat="46.028439246956154" lon="13.213304363780818"><ele>83.0</ele><time>2026-05-05T13:42:29Z</time></trkpt><trkpt lat="46.02849348737692" lon="13.213357953483744"><ele>83.0</ele><time>2026-05-05T13:42:33Z</time></trkpt><trkpt lat="46.028500178335285" lon="13.213486369595284"><ele>83.0</ele><time>2026-05-05T13:42:35Z</time></trkpt><trkpt lat="46.028513690264866" lon="13.213635483998132"><ele>83.0</ele><time>2026-05-05T13:42:37Z</time></trkpt><trkpt lat="46.02852173843974" lon="13.213747802311497"><ele>83.0</ele><time>2026-05-05T13:42:38Z</time></trkpt><trkpt lat="46.02853617384857" lon="13.213895074020822"><ele>83.0</ele><time>2026-05-05T13:42:39Z</time></trkpt><trkpt lat="46.02855363686178" lon="13.214055153365663"><ele>83.0</ele><time>2026-05-05T13:42:40Z</time></trkpt><trkpt lat="46.02856898910512" lon="13.21418932004562"><ele>83.25</ele><time>2026-05-05T13:42:41Z</time></trkpt><trkpt lat="46.0285839314806" lon="13.214357291101615"><ele>83.5</ele><time>2026-05-05T13:42:42Z</time></trkpt><trkpt lat="46.02860363735756" lon="13.21452236284029"><ele>83.75</ele><time>2026-05-05T13:42:43Z</time></trkpt><trkpt lat="46.02861988869608" lon="13.214683651557753"><ele>84.0</ele><time>2026-05-05T13:42:44Z</time></trkpt><trkpt lat="46.02863310968926" lon="13.214842358801427"><ele>84.4</ele><time>2026-05-05T13:42:45Z</time></trkpt><trkpt lat="46.02864875834068" lon="13.214998573034226"><ele>84.80000000000001</ele><time>2026-05-05T13:42:46Z</time></trkpt><trkpt lat="46.028667379182686" lon="13.215151301664427"><ele>85.19999999999999</ele><time>2026-05-05T13:42:47Z</time></trkpt><trkpt lat="46.02866362324571" lon="13.21529263877009"><ele>85.6</ele><time>2026-05-05T13:42:48Z</time></trkpt><trkpt lat="46.0286446598429" lon="13.215418518764812"><ele>86.0</ele><time>2026-05-05T13:42:49Z</time></trkpt><trkpt lat="46.02862968843634" lon="13.215522529309927"><ele>86.0</ele><time>2026-05-05T13:42:50Z</time></trkpt><trkpt lat="46.028644449241796" lon="13.215652237490017"><ele>86.0</ele><time>2026-05-05T13:42:52Z</time></trkpt><trkpt lat="46.0287143177984" lon="13.2156837119222"><ele>86.0</ele><time>2026-05-05T13:42:54Z</time></trkpt><trkpt lat="46.028781600843985" lon="13.21560367472721"><ele>86.0</ele><time>2026-05-05T13:42:56Z</time></trkpt><trkpt lat="46.02879278346162" lon="13.215452809495428"><ele>86.0</ele><time>2026-05-05T13:42:58Z</time></trkpt><trkpt lat="46.028778838412045" lon="13.215351167756673"><ele>86.0</ele><time>2026-05-05T13:42:59Z</time></trkpt><trkpt lat="46.028757940141766" lon="13.215248548917614"><ele>86.0</ele><time>2026-05-05T13:43:00Z</time></trkpt><trkpt lat="46.02871530635348" lon="13.215147319907373"><ele>86.0</ele><time>2026-05-05T13:43:01Z</time></trkpt><trkpt lat="46.0287088045903" lon="13.214996363109542"><ele>86.0</ele><time>2026-05-05T13:43:02Z</time></trkpt><trkpt lat="46.02868864576041" lon="13.21485306501489"><ele>86.0</ele><time>2026-05-05T13:43:03Z</time></trkpt><trkpt lat="46.02867960312362" lon="13.214673458258916"><ele>86.0</ele><time>2026-05-05T13:43:04Z</time></trkpt><trkpt lat="46.02865019450837" lon="13.21451912149713"><ele>85.5</ele><time>2026-05-05T13:43:05Z</time></trkpt><trkpt lat="46.02862256372475" lon="13.214344634582122"><ele>85.0</ele><time>2026-05-05T13:43:06Z</time></trkpt><trkpt lat="46.028603226888656" lon="13.214154519012764"><ele>84.5</ele><time>2026-05-05T13:43:07Z</time></trkpt><trkpt lat="46.02858912830953" lon="13.21396074828255"><ele>84.0</ele><time>2026-05-05T13:43:08Z</time></trkpt><trkpt lat="46.02857553203047" lon="13.213758481955137"><ele>83.66666666666667</ele><time>2026-05-05T13:43:09Z</time></trkpt><trkpt lat="46.02855866358518" lon="13.213548445197912"><ele>83.33333333333334</ele><time>2026-05-05T13:43:10Z</time></trkpt><trkpt lat="46.02853827978412" lon="13.213327200202587"><ele>83.0</ele><time>2026-05-05T13:43:11Z</time></trkpt><trkpt lat="46.02851658654824" lon="13.213103047959246"><ele>83.0</ele><time>2026-05-05T13:43:12Z</time></trkpt><trkpt lat="46.02848977101856" lon="13.212859595947785"><ele>83.0</ele><time>2026-05-05T13:43:13Z</time></trkpt><trkpt lat="46.028472207188955" lon="13.212614559647928"><ele>83.0</ele><time>2026-05-05T13:43:14Z</time></trkpt><trkpt lat="46.02845857369308" lon="13.21237012868684"><ele>83.33333333333334</ele><time>2026-05-05T13:43:15Z</time></trkpt><trkpt lat="46.028431226554645" lon="13.212110989657237"><ele>83.66666666666667</ele><time>2026-05-05T13:43:16Z</time></trkpt><trkpt lat="46.02840647397525" lon="13.211844747015238"><ele>84.0</ele><time>2026-05-05T13:43:17Z</time></trkpt><trkpt lat="46.028380164718804" lon="13.211596163323026"><ele>84.0</ele><time>2026-05-05T13:43:18Z</time></trkpt><trkpt lat="46.02835352892782" lon="13.211357096824706"><ele>84.0</ele><time>2026-05-05T13:43:19Z</time></trkpt><trkpt lat="46.02833098010628" lon="13.211124164674452"><ele>84.0</ele><time>2026-05-05T13:43:20Z</time></trkpt><trkpt lat="46.02831436822569" lon="13.21092016003338"><ele>83.80000000000001</ele><time>2026-05-05T13:43:21Z</time></trkpt><trkpt lat="46.02829378950509" lon="13.210730861833277"><ele>83.60000000000001</ele><time>2026-05-05T13:43:22Z</time></trkpt><trkpt lat="46.028274099122534" lon="13.210545586864995"><ele>83.4</ele><time>2026-05-05T13:43:23Z</time></trkpt><trkpt lat="46.02826035343504" lon="13.210403986000271"><ele>83.2</ele><time>2026-05-05T13:43:24Z</time></trkpt><trkpt lat="46.02825499362998" lon="13.21030678926624"><ele>83.0</ele><time>2026-05-05T13:43:25Z</time></trkpt><trkpt lat="46.028237688993364" lon="13.210151529171613"><ele>82.60000000000001</ele><time>2026-05-05T13:43:27Z</time></trkpt><trkpt lat="46.02820324300466" lon="13.209973301280034"><ele>82.2</ele><time>2026-05-05T13:43:29Z</time></trkpt><trkpt lat="46.028180948006565" lon="13.209850395231625"><ele>81.8</ele><time>2026-05-05T13:43:30Z</time></trkpt><trkpt lat="46.02816392570474" lon="13.209705474656603"><ele>81.4</ele><time>2026-05-05T13:43:31Z</time></trkpt><trkpt lat="46.028150776167976" lon="13.209536625143265"><ele>81.0</ele><time>2026-05-05T13:43:32Z</time></trkpt><trkpt lat="46.02815085613693" lon="13.209354901149812"><ele>80.5</ele><time>2026-05-05T13:43:33Z</time></trkpt><trkpt lat="46.02814861792614" lon="13.209176409746437"><ele>80.0</ele><time>2026-05-05T13:43:34Z</time></trkpt><trkpt lat="46.0281379286445" lon="13.208988219829841"><ele>79.5</ele><time>2026-05-05T13:43:35Z</time></trkpt><trkpt lat="46.02812105691216" lon="13.20880030672984"><ele>79.0</ele><time>2026-05-05T13:43:36Z</time></trkpt><trkpt lat="46.0281015898109" lon="13.208621505097911"><ele>79.0</ele><time>2026-05-05T13:43:37Z</time></trkpt><trkpt lat="46.02808761252338" lon="13.208449264007873"><ele>79.0</ele><time>2026-05-05T13:43:38Z</time></trkpt><trkpt lat="46.02807396504901" lon="13.208282095622833"><ele>79.0</ele><time>2026-05-05T13:43:39Z</time></trkpt><trkpt lat="46.02805778806175" lon="13.20811237201417"><ele>79.0</ele><time>2026-05-05T13:43:40Z</time></trkpt><trkpt lat="46.02804095613134" lon="13.207943216044844"><ele>79.0</ele><time>2026-05-05T13:43:41Z</time></trkpt><trkpt lat="46.02802438655683" lon="13.207772159157667"><ele>79.0</ele><time>2026-05-05T13:43:42Z</time></trkpt><trkpt lat="46.028006825318194" lon="13.20760380099274"><ele>79.0</ele><time>2026-05-05T13:43:43Z</time></trkpt><trkpt lat="46.0279892384835" lon="13.207436506880113"><ele>79.0</ele><time>2026-05-05T13:43:44Z</time></trkpt><trkpt lat="46.02797241194167" lon="13.207271025455057"><ele>79.25</ele><time>2026-05-05T13:43:45Z</time></trkpt><trkpt lat="46.02795432190863" lon="13.20710143824416"><ele>79.5</ele><time>2026-05-05T13:43:46Z</time></trkpt><trkpt lat="46.027938960874316" lon="13.206932815497321"><ele>79.75</ele><time>2026-05-05T13:43:47Z</time></trkpt><trkpt lat="46.027923274748794" lon="13.206764286643368"><ele>80.0</ele><time>2026-05-05T13:43:48Z</time></trkpt><trkpt lat="46.0279063816715" lon="13.206600968253904"><ele>80.4</ele><time>2026-05-05T13:43:49Z</time></trkpt><trkpt lat="46.02789141045914" lon="13.20644573613737"><ele>80.8</ele><time>2026-05-05T13:43:50Z</time></trkpt><trkpt lat="46.027875175487374" lon="13.206305287691347"><ele>81.19999999999999</ele><time>2026-05-05T13:43:51Z</time></trkpt><trkpt lat="46.02786220346258" lon="13.20618005487825"><ele>81.6</ele><time>2026-05-05T13:43:52Z</time></trkpt><trkpt lat="46.02786153179387" lon="13.206054496757812"><ele>82.0</ele><time>2026-05-05T13:43:53Z</time></trkpt><trkpt lat="46.02784664236796" lon="13.205940504403532"><ele>82.0</ele><time>2026-05-05T13:43:54Z</time></trkpt><trkpt lat="46.02783309804392" lon="13.205826486877028"><ele>82.0</ele><time>2026-05-05T13:43:55Z</time></trkpt><trkpt lat="46.02782840018293" lon="13.205713064093418"><ele>82.0</ele><time>2026-05-05T13:43:56Z</time></trkpt><trkpt lat="46.0278132051753" lon="13.205593284528634"><ele>82.0</ele><time>2026-05-05T13:43:57Z</time></trkpt><trkpt lat="46.02779233725095" lon="13.205466169489554"><ele>82.0</ele><time>2026-05-05T13:43:58Z</time></trkpt><trkpt lat="46.02777745161118" lon="13.205332841870474"><ele>82.0</ele><time>2026-05-05T13:43:59Z</time></trkpt><trkpt lat="46.02775299803836" lon="13.205199133256135"><ele>81.75</ele><time>2026-05-05T13:44:00Z</time></trkpt><trkpt lat="46.02772560417943" lon="13.205060255766305"><ele>81.5</ele><time>2026-05-05T13:44:01Z</time></trkpt><trkpt lat="46.027699333394516" lon="13.204903516264427"><ele>81.25</ele><time>2026-05-05T13:44:02Z</time></trkpt><trkpt lat="46.02767451005654" lon="13.204732909088163"><ele>81.0</ele><time>2026-05-05T13:44:03Z</time></trkpt><trkpt lat="46.02766041511959" lon="13.204557402746433"><ele>81.0</ele><time>2026-05-05T13:44:04Z</time></trkpt><trkpt lat="46.02766763695873" lon="13.204399864344287"><ele>81.0</ele><time>2026-05-05T13:44:05Z</time></trkpt><trkpt lat="46.027678798786965" lon="13.20426347334917"><ele>81.0</ele><time>2026-05-05T13:44:06Z</time></trkpt><trkpt lat="46.02769406153283" lon="13.204145829305373"><ele>81.0</ele><time>2026-05-05T13:44:07Z</time></trkpt><trkpt lat="46.02771916296439" lon="13.204051847524639"><ele>81.0</ele><time>2026-05-05T13:44:08Z</time></trkpt><trkpt lat="46.02781870142102" lon="13.203945002035784"><ele>81.16666666666667</ele><time>2026-05-05T13:44:10Z</time></trkpt><trkpt lat="46.02788476729068" lon="13.20391095141115"><ele>81.33333333333333</ele><time>2026-05-05T13:44:11Z</time></trkpt><trkpt lat="46.02795322819182" lon="13.20386552795624"><ele>81.5</ele><time>2026-05-05T13:44:12Z</time></trkpt><trkpt lat="46.02802460737675" lon="13.203810916064088"><ele>81.66666666666666</ele><time>2026-05-05T13:44:13Z</time></trkpt><trkpt lat="46.028104123025834" lon="13.203756818931053"><ele>81.83333333333333</ele><time>2026-05-05T13:44:14Z</time></trkpt><trkpt lat="46.02818073109055" lon="13.203682488058318"><ele>82.0</ele><time>2026-05-05T13:44:15Z</time></trkpt><trkpt lat="46.0282646849237" lon="13.203606764967299"><ele>82.19999999999999</ele><time>2026-05-05T13:44:16Z</time></trkpt><trkpt lat="46.02834481576098" lon="13.203515400187223"><ele>82.4</ele><time>2026-05-05T13:44:17Z</time></trkpt><trkpt lat="46.028416805461106" lon="13.203433810088548"><ele>82.6</ele><time>2026-05-05T13:44:18Z</time></trkpt><trkpt lat="46.028468189903236" lon="13.203349620053253"><ele>82.80000000000001</ele><time>2026-05-05T13:44:19Z</time></trkpt><trkpt lat="46.02853112358249" lon="13.203300440913097"><ele>83.0</ele><time>2026-05-05T13:44:20Z</time></trkpt><trkpt lat="46.02861000098712" lon="13.203196247397539"><ele>83.4</ele><time>2026-05-05T13:44:22Z</time></trkpt><trkpt lat="46.028643906775905" lon="13.203076152217058"><ele>83.80000000000001</ele><time>2026-05-05T13:44:24Z</time></trkpt><trkpt lat="46.02858025331422" lon="13.202954515811568"><ele>84.2</ele><time>2026-05-05T13:44:26Z</time></trkpt><trkpt lat="46.02847470146063" lon="13.20284110506304"><ele>84.6</ele><time>2026-05-05T13:44:28Z</time></trkpt><trkpt lat="46.028409440428725" lon="13.202764705875348"><ele>85.0</ele><time>2026-05-05T13:44:29Z</time></trkpt><trkpt lat="46.02834073857432" lon="13.202678079321217"><ele>84.8</ele><time>2026-05-05T13:44:30Z</time></trkpt><trkpt lat="46.02826378911197" lon="13.202590042544783"><ele>84.6</ele><time>2026-05-05T13:44:31Z</time></trkpt><trkpt lat="46.02819413907635" lon="13.202488886254972"><ele>84.4</ele><time>2026-05-05T13:44:32Z</time></trkpt><trkpt lat="46.02812320127876" lon="13.202392472379188"><ele>84.2</ele><time>2026-05-05T13:44:33Z</time></trkpt><trkpt lat="46.02805804886183" lon="13.202281400638888"><ele>84.0</ele><time>2026-05-05T13:44:34Z</time></trkpt><trkpt lat="46.02798040656674" lon="13.202174410249912"><ele>84.4</ele><time>2026-05-05T13:44:35Z</time></trkpt><trkpt lat="46.02790556609879" lon="13.20207128081523"><ele>84.80000000000001</ele><time>2026-05-05T13:44:36Z</time></trkpt><trkpt lat="46.027834557218924" lon="13.201973431195563"><ele>85.19999999999999</ele><time>2026-05-05T13:44:37Z</time></trkpt><trkpt lat="46.02776155216096" lon="13.201872830988433"><ele>85.6</ele><time>2026-05-05T13:44:38Z</time></trkpt><trkpt lat="46.02768961185286" lon="13.201773697916533"><ele>86.0</ele><time>2026-05-05T13:44:39Z</time></trkpt><trkpt lat="46.0276071225182" lon="13.20166002846621"><ele>86.0</ele><time>2026-05-05T13:44:40Z</time></trkpt><trkpt lat="46.0275215585583" lon="13.201544413070307"><ele>86.0</ele><time>2026-05-05T13:44:41Z</time></trkpt><trkpt lat="46.027426754693884" lon="13.20141616954482"><ele>86.0</ele><time>2026-05-05T13:44:42Z</time></trkpt><trkpt lat="46.027329816857716" lon="13.201284741533781"><ele>86.0</ele><time>2026-05-05T13:44:43Z</time></trkpt><trkpt lat="46.0272287387678" lon="13.201148546715041"><ele>85.75</ele><time>2026-05-05T13:44:44Z</time></trkpt><trkpt lat="46.02712565511454" lon="13.201009761556746"><ele>85.5</ele><time>2026-05-05T13:44:45Z</time></trkpt><trkpt lat="46.027007268387166" lon="13.200882967652216"><ele>85.25</ele><time>2026-05-05T13:44:46Z</time></trkpt><trkpt lat="46.02691570990481" lon="13.200727105090433"><ele>85.0</ele><time>2026-05-05T13:44:47Z</time></trkpt><trkpt lat="46.02680555284351" lon="13.200600216897946"><ele>85.0</ele><time>2026-05-05T13:44:48Z</time></trkpt><trkpt lat="46.026703824852554" lon="13.200472580193239"><ele>85.0</ele><time>2026-05-05T13:44:49Z</time></trkpt><trkpt lat="46.026616259942536" lon="13.200324238822022"><ele>85.0</ele><time>2026-05-05T13:44:50Z</time></trkpt><trkpt lat="46.02651806673797" lon="13.200204488761566"><ele>85.0</ele><time>2026-05-05T13:44:51Z</time></trkpt><trkpt lat="46.026421604022545" lon="13.200075729793868"><ele>85.0</ele><time>2026-05-05T13:44:52Z</time></trkpt><trkpt lat="46.026322305811256" lon="13.199943154327604"><ele>85.0</ele><time>2026-05-05T13:44:53Z</time></trkpt><trkpt lat="46.02622354899156" lon="13.199800661322124"><ele>85.0</ele><time>2026-05-05T13:44:54Z</time></trkpt><trkpt lat="46.02612999536447" lon="13.199668251417364"><ele>85.0</ele><time>2026-05-05T13:44:55Z</time></trkpt><trkpt lat="46.026041885432306" lon="13.199530684628314"><ele>85.5</ele><time>2026-05-05T13:44:56Z</time></trkpt><trkpt lat="46.025965609013326" lon="13.19938274017415"><ele>86.0</ele><time>2026-05-05T13:44:57Z</time></trkpt><trkpt lat="46.02589742905968" lon="13.199212473772421"><ele>86.5</ele><time>2026-05-05T13:44:58Z</time></trkpt><trkpt lat="46.025838645626365" lon="13.199032672366577"><ele>87.0</ele><time>2026-05-05T13:44:59Z</time></trkpt><trkpt lat="46.02578500350844" lon="13.198856573240688"><ele>86.0</ele><time>2026-05-05T13:45:00Z</time></trkpt><trkpt lat="46.02573906251274" lon="13.198677367323207"><ele>85.0</ele><time>2026-05-05T13:45:01Z</time></trkpt><trkpt lat="46.02569468413835" lon="13.198498502366203"><ele>84.0</ele><time>2026-05-05T13:45:02Z</time></trkpt><trkpt lat="46.02565641319338" lon="13.198321051937338"><ele>83.0</ele><time>2026-05-05T13:45:03Z</time></trkpt><trkpt lat="46.02561263130308" lon="13.198141333783177"><ele>83.0</ele><time>2026-05-05T13:45:04Z</time></trkpt><trkpt lat="46.025569920821894" lon="13.1979617058958"><ele>83.0</ele><time>2026-05-05T13:45:05Z</time></trkpt><trkpt lat="46.02553037057854" lon="13.19778253480025"><ele>83.0</ele><time>2026-05-05T13:45:06Z</time></trkpt><trkpt lat="46.025487656696605" lon="13.19761414744721"><ele>83.0</ele><time>2026-05-05T13:45:07Z</time></trkpt><trkpt lat="46.02544605947545" lon="13.197428724928555"><ele>83.5</ele><time>2026-05-05T13:45:08Z</time></trkpt><trkpt lat="46.02541126730272" lon="13.197238856895925"><ele>84.0</ele><time>2026-05-05T13:45:09Z</time></trkpt><trkpt lat="46.02535281926874" lon="13.197064140076723"><ele>84.5</ele><time>2026-05-05T13:45:10Z</time></trkpt><trkpt lat="46.025324786427035" lon="13.196889494429751"><ele>85.0</ele><time>2026-05-05T13:45:11Z</time></trkpt><trkpt lat="46.02527981778723" lon="13.196710422284905"><ele>85.0</ele><time>2026-05-05T13:45:12Z</time></trkpt><trkpt lat="46.02523755822022" lon="13.196530731234832"><ele>85.0</ele><time>2026-05-05T13:45:13Z</time></trkpt><trkpt lat="46.025193109269615" lon="13.196360732326504"><ele>85.0</ele><time>2026-05-05T13:45:14Z</time></trkpt><trkpt lat="46.02514869764526" lon="13.196177963795979"><ele>85.0</ele><time>2026-05-05T13:45:15Z</time></trkpt><trkpt lat="46.025102607724804" lon="13.196000634434"><ele>85.25</ele><time>2026-05-05T13:45:16Z</time></trkpt><trkpt lat="46.025057229716055" lon="13.195822392966171"><ele>85.5</ele><time>2026-05-05T13:45:17Z</time></trkpt><trkpt lat="46.025013824570436" lon="13.19563679955812"><ele>85.75</ele><time>2026-05-05T13:45:18Z</time></trkpt><trkpt lat="46.02496283294034" lon="13.195415154361754"><ele>86.0</ele><time>2026-05-05T13:45:19Z</time></trkpt><trkpt lat="46.02490622506588" lon="13.195184833765746"><ele>85.33333333333334</ele><time>2026-05-05T13:45:20Z</time></trkpt><trkpt lat="46.02484912032728" lon="13.194953452620082"><ele>84.66666666666667</ele><time>2026-05-05T13:45:21Z</time></trkpt><trkpt lat="46.02479384529243" lon="13.194720193442128"><ele>84.0</ele><time>2026-05-05T13:45:22Z</time></trkpt><trkpt lat="46.02473365063971" lon="13.19447401172177"><ele>84.0</ele><time>2026-05-05T13:45:23Z</time></trkpt><trkpt lat="46.024673807899426" lon="13.194228189238746"><ele>84.0</ele><time>2026-05-05T13:45:24Z</time></trkpt><trkpt lat="46.02461932322293" lon="13.193989318945789"><ele>84.0</ele><time>2026-05-05T13:45:25Z</time></trkpt><trkpt lat="46.02456393419434" lon="13.193747676133455"><ele>83.66666666666667</ele><time>2026-05-05T13:45:26Z</time></trkpt><trkpt lat="46.02450670150353" lon="13.19350038749146"><ele>83.33333333333334</ele><time>2026-05-05T13:45:27Z</time></trkpt><trkpt lat="46.02444590539494" lon="13.1932494470259"><ele>83.0</ele><time>2026-05-05T13:45:28Z</time></trkpt><trkpt lat="46.02438472260165" lon="13.192994971166403"><ele>83.0</ele><time>2026-05-05T13:45:29Z</time></trkpt><trkpt lat="46.024326288393254" lon="13.192734472565556"><ele>83.0</ele><time>2026-05-05T13:45:30Z</time></trkpt><trkpt lat="46.02426948278794" lon="13.192466249618484"><ele>83.0</ele><time>2026-05-05T13:45:31Z</time></trkpt><trkpt lat="46.02420885837515" lon="13.19219131020829"><ele>83.33333333333334</ele><time>2026-05-05T13:45:32Z</time></trkpt><trkpt lat="46.024148839437494" lon="13.191903696608598"><ele>83.66666666666667</ele><time>2026-05-05T13:45:33Z</time></trkpt><trkpt lat="46.024088657594795" lon="13.191611429009546"><ele>84.0</ele><time>2026-05-05T13:45:34Z</time></trkpt><trkpt lat="46.02402378650618" lon="13.191313616728406"><ele>83.33333333333333</ele><time>2026-05-05T13:45:35Z</time></trkpt><trkpt lat="46.02396177641616" lon="13.191016494654871"><ele>82.66666666666666</ele><time>2026-05-05T13:45:36Z</time></trkpt><trkpt lat="46.02390269183146" lon="13.190734092416795"><ele>82.0</ele><time>2026-05-05T13:45:37Z</time></trkpt><trkpt lat="46.02384659324188" lon="13.190448786834224"><ele>82.0</ele><time>2026-05-05T13:45:38Z</time></trkpt><trkpt lat="46.02378715256784" lon="13.190158363528806"><ele>82.0</ele><time>2026-05-05T13:45:39Z</time></trkpt><trkpt lat="46.02372929734664" lon="13.189863551133024"><ele>82.0</ele><time>2026-05-05T13:45:40Z</time></trkpt><trkpt lat="46.023670217423515" lon="13.189565616001712"><ele>82.0</ele><time>2026-05-05T13:45:41Z</time></trkpt><trkpt lat="46.02360843195829" lon="13.189265790121398"><ele>82.0</ele><time>2026-05-05T13:45:42Z</time></trkpt><trkpt lat="46.02353646921739" lon="13.188954547252292"><ele>82.0</ele><time>2026-05-05T13:45:43Z</time></trkpt><trkpt lat="46.023478536872645" lon="13.18859233798855"><ele>82.0</ele><time>2026-05-05T13:45:44Z</time></trkpt><trkpt lat="46.02340145149587" lon="13.188212194757606"><ele>82.0</ele><time>2026-05-05T13:45:45Z</time></trkpt><trkpt lat="46.023320144593185" lon="13.187811234413667"><ele>82.5</ele><time>2026-05-05T13:45:46Z</time></trkpt><trkpt lat="46.023225236231276" lon="13.187414901759627"><ele>83.0</ele><time>2026-05-05T13:45:47Z</time></trkpt><trkpt lat="46.023152812834525" lon="13.18702818085842"><ele>84.0</ele><time>2026-05-05T13:45:48Z</time></trkpt><trkpt lat="46.023081454241876" lon="13.18666089746494"><ele>85.0</ele><time>2026-05-05T13:45:49Z</time></trkpt><trkpt lat="46.02301181438026" lon="13.186306459207009"><ele>85.0</ele><time>2026-05-05T13:45:50Z</time></trkpt><trkpt lat="46.02294357003279" lon="13.185964096558425"><ele>85.0</ele><time>2026-05-05T13:45:51Z</time></trkpt><trkpt lat="46.0228745564433" lon="13.185620969531245"><ele>83.0</ele><time>2026-05-05T13:45:52Z</time></trkpt><trkpt lat="46.02280650167488" lon="13.18528870604813"><ele>81.0</ele><time>2026-05-05T13:45:53Z</time></trkpt><trkpt lat="46.02273964461143" lon="13.184972675447993"><ele>80.66666666666667</ele><time>2026-05-05T13:45:54Z</time></trkpt><trkpt lat="46.02267762494859" lon="13.184673668171587"><ele>80.33333333333334</ele><time>2026-05-05T13:45:55Z</time></trkpt><trkpt lat="46.022619373102906" lon="13.184386702283867"><ele>80.0</ele><time>2026-05-05T13:45:56Z</time></trkpt><trkpt lat="46.02256510542626" lon="13.184116336265165"><ele>80.0</ele><time>2026-05-05T13:45:57Z</time></trkpt><trkpt lat="46.022514404564674" lon="13.183862766768357"><ele>80.0</ele><time>2026-05-05T13:45:58Z</time></trkpt><trkpt lat="46.02246630044344" lon="13.183623886598765"><ele>80.0</ele><time>2026-05-05T13:45:59Z</time></trkpt><trkpt lat="46.02241770799831" lon="13.183386118508112"><ele>80.33333333333334</ele><time>2026-05-05T13:46:00Z</time></trkpt><trkpt lat="46.02236848599623" lon="13.183151186377724"><ele>80.66666666666667</ele><time>2026-05-05T13:46:01Z</time></trkpt><trkpt lat="46.02231766344769" lon="13.182914287579054"><ele>81.0</ele><time>2026-05-05T13:46:02Z</time></trkpt><trkpt lat="46.022270096615856" lon="13.182679839795215"><ele>81.0</ele><time>2026-05-05T13:46:03Z</time></trkpt><trkpt lat="46.022224181901265" lon="13.182451962236547"><ele>81.0</ele><time>2026-05-05T13:46:04Z</time></trkpt><trkpt lat="46.02218131763734" lon="13.18223269650026"><ele>81.0</ele><time>2026-05-05T13:46:05Z</time></trkpt><trkpt lat="46.02213903757751" lon="13.182030562427702"><ele>80.75</ele><time>2026-05-05T13:46:06Z</time></trkpt><trkpt lat="46.02209421763388" lon="13.181827310085819"><ele>80.5</ele><time>2026-05-05T13:46:07Z</time></trkpt><trkpt lat="46.02205442352839" lon="13.181630510654523"><ele>80.25</ele><time>2026-05-05T13:46:08Z</time></trkpt><trkpt lat="46.0220139656506" lon="13.181433888541628"><ele>80.0</ele><time>2026-05-05T13:46:09Z</time></trkpt><trkpt lat="46.02197891016293" lon="13.181233708812806"><ele>80.0</ele><time>2026-05-05T13:46:10Z</time></trkpt><trkpt lat="46.0219425028114" lon="13.181036296423676"><ele>80.0</ele><time>2026-05-05T13:46:11Z</time></trkpt><trkpt lat="46.02190387204383" lon="13.180844504409176"><ele>80.0</ele><time>2026-05-05T13:46:12Z</time></trkpt><trkpt lat="46.02186238684296" lon="13.180652427700133"><ele>80.0</ele><time>2026-05-05T13:46:13Z</time></trkpt><trkpt lat="46.02182070921977" lon="13.18045923902034"><ele>80.25</ele><time>2026-05-05T13:46:14Z</time></trkpt><trkpt lat="46.02177992484634" lon="13.180269381393522"><ele>80.5</ele><time>2026-05-05T13:46:15Z</time></trkpt><trkpt lat="46.02174101916116" lon="13.180085289767336"><ele>80.75</ele><time>2026-05-05T13:46:16Z</time></trkpt><trkpt lat="46.021696789155904" lon="13.179891065431235"><ele>81.0</ele><time>2026-05-05T13:46:17Z</time></trkpt><trkpt lat="46.02164713321601" lon="13.179677201131147"><ele>81.0</ele><time>2026-05-05T13:46:18Z</time></trkpt><trkpt lat="46.02158842986646" lon="13.179434532494748"><ele>81.0</ele><time>2026-05-05T13:46:19Z</time></trkpt><trkpt lat="46.02152669930829" lon="13.179162275414459"><ele>81.0</ele><time>2026-05-05T13:46:20Z</time></trkpt><trkpt lat="46.02147784678588" lon="13.178887887533882"><ele>81.0</ele><time>2026-05-05T13:46:21Z</time></trkpt><trkpt lat="46.02143408864478" lon="13.178634595382135"><ele>81.0</ele><time>2026-05-05T13:46:22Z</time></trkpt><trkpt lat="46.02139332424585" lon="13.178398085639111"><ele>81.0</ele><time>2026-05-05T13:46:23Z</time></trkpt><trkpt lat="46.02135282145988" lon="13.17817345725239"><ele>80.5</ele><time>2026-05-05T13:46:24Z</time></trkpt><trkpt lat="46.02131198650554" lon="13.177960158833157"><ele>80.0</ele><time>2026-05-05T13:46:25Z</time></trkpt><trkpt lat="46.02127168675863" lon="13.177757371241043"><ele>79.5</ele><time>2026-05-05T13:46:26Z</time></trkpt><trkpt lat="46.02123154800145" lon="13.177557849301348"><ele>79.0</ele><time>2026-05-05T13:46:27Z</time></trkpt><trkpt lat="46.021190751783074" lon="13.177360154835101"><ele>79.0</ele><time>2026-05-05T13:46:28Z</time></trkpt><trkpt lat="46.02114980425254" lon="13.177163519057597"><ele>79.0</ele><time>2026-05-05T13:46:29Z</time></trkpt><trkpt lat="46.021113174103945" lon="13.17697112514467"><ele>79.0</ele><time>2026-05-05T13:46:30Z</time></trkpt><trkpt lat="46.021076132079614" lon="13.176786511993438"><ele>79.0</ele><time>2026-05-05T13:46:31Z</time></trkpt><trkpt lat="46.021041501078145" lon="13.176612955226826"><ele>79.0</ele><time>2026-05-05T13:46:32Z</time></trkpt><trkpt lat="46.02100961804204" lon="13.176450240129405"><ele>79.0</ele><time>2026-05-05T13:46:33Z</time></trkpt><trkpt lat="46.02098287873496" lon="13.176302777417018"><ele>79.0</ele><time>2026-05-05T13:46:34Z</time></trkpt><trkpt lat="46.020954107417296" lon="13.176159179480031"><ele>79.0</ele><time>2026-05-05T13:46:35Z</time></trkpt><trkpt lat="46.02091938314824" lon="13.176005727281495"><ele>79.0</ele><time>2026-05-05T13:46:36Z</time></trkpt><trkpt lat="46.02088758339661" lon="13.175851697759457"><ele>79.0</ele><time>2026-05-05T13:46:37Z</time></trkpt><trkpt lat="46.02085510880311" lon="13.17569493742841"><ele>79.0</ele><time>2026-05-05T13:46:38Z</time></trkpt><trkpt lat="46.02082150760757" lon="13.175535230416285"><ele>79.0</ele><time>2026-05-05T13:46:39Z</time></trkpt><trkpt lat="46.020788325385325" lon="13.175373569219813"><ele>79.0</ele><time>2026-05-05T13:46:40Z</time></trkpt><trkpt lat="46.020753974037106" lon="13.175203880662076"><ele>79.0</ele><time>2026-05-05T13:46:41Z</time></trkpt><trkpt lat="46.02071736194857" lon="13.175023808303136"><ele>79.0</ele><time>2026-05-05T13:46:42Z</time></trkpt><trkpt lat="46.02068108946302" lon="13.17483229517429"><ele>79.0</ele><time>2026-05-05T13:46:43Z</time></trkpt><trkpt lat="46.020643940206035" lon="13.174625158430699"><ele>79.0</ele><time>2026-05-05T13:46:44Z</time></trkpt><trkpt lat="46.020609419898975" lon="13.174402842252864"><ele>79.0</ele><time>2026-05-05T13:46:45Z</time></trkpt><trkpt lat="46.020576192271314" lon="13.174172720565691"><ele>79.0</ele><time>2026-05-05T13:46:46Z</time></trkpt><trkpt lat="46.0205462753251" lon="13.173951687099683"><ele>79.0</ele><time>2026-05-05T13:46:47Z</time></trkpt><trkpt lat="46.02051957663632" lon="13.173728936332592"><ele>78.5</ele><time>2026-05-05T13:46:48Z</time></trkpt><trkpt lat="46.02049407363943" lon="13.17350573429381"><ele>78.0</ele><time>2026-05-05T13:46:49Z</time></trkpt><trkpt lat="46.02047618598692" lon="13.173301529830232"><ele>77.5</ele><time>2026-05-05T13:46:50Z</time></trkpt><trkpt lat="46.02046166055123" lon="13.173110782208484"><ele>77.0</ele><time>2026-05-05T13:46:51Z</time></trkpt><trkpt lat="46.020449998187836" lon="13.17292818731386"><ele>77.0</ele><time>2026-05-05T13:46:52Z</time></trkpt><trkpt lat="46.020440479723824" lon="13.17275178395489"><ele>77.0</ele><time>2026-05-05T13:46:53Z</time></trkpt><trkpt lat="46.02043150856178" lon="13.172575725702968"><ele>77.0</ele><time>2026-05-05T13:46:54Z</time></trkpt><trkpt lat="46.02042352874082" lon="13.172399618934671"><ele>77.0</ele><time>2026-05-05T13:46:55Z</time></trkpt><trkpt lat="46.020415889692885" lon="13.172225315621915"><ele>76.75</ele><time>2026-05-05T13:46:56Z</time></trkpt><trkpt lat="46.020406166577615" lon="13.172051389259796"><ele>76.5</ele><time>2026-05-05T13:46:57Z</time></trkpt><trkpt lat="46.02039574575922" lon="13.171865199035057"><ele>76.25</ele><time>2026-05-05T13:46:58Z</time></trkpt><trkpt lat="46.020382135211946" lon="13.17167054229135"><ele>76.0</ele><time>2026-05-05T13:46:59Z</time></trkpt><trkpt lat="46.02037141539404" lon="13.171479915288455"><ele>76.0</ele><time>2026-05-05T13:47:00Z</time></trkpt><trkpt lat="46.02036202467702" lon="13.171292450268968"><ele>76.0</ele><time>2026-05-05T13:47:01Z</time></trkpt><trkpt lat="46.0203549606416" lon="13.171104962653763"><ele>76.0</ele><time>2026-05-05T13:47:02Z</time></trkpt><trkpt lat="46.02034760762349" lon="13.170920944748625"><ele>76.0</ele><time>2026-05-05T13:47:03Z</time></trkpt><trkpt lat="46.02033748206821" lon="13.170733292235107"><ele>76.0</ele><time>2026-05-05T13:47:04Z</time></trkpt><trkpt lat="46.02033146436619" lon="13.170551997153664"><ele>76.0</ele><time>2026-05-05T13:47:05Z</time></trkpt><trkpt lat="46.02032099036763" lon="13.170370804533507"><ele>76.0</ele><time>2026-05-05T13:47:06Z</time></trkpt><trkpt lat="46.02031034343158" lon="13.170198030096977"><ele>76.0</ele><time>2026-05-05T13:47:07Z</time></trkpt><trkpt lat="46.02029206703321" lon="13.170014034201833"><ele>76.0</ele><time>2026-05-05T13:47:08Z</time></trkpt><trkpt lat="46.020278138642155" lon="13.169819124640016"><ele>76.0</ele><time>2026-05-05T13:47:09Z</time></trkpt><trkpt lat="46.02027608262268" lon="13.169626246214273"><ele>76.0</ele><time>2026-05-05T13:47:10Z</time></trkpt><trkpt lat="46.02027305266216" lon="13.169447684410866"><ele>76.0</ele><time>2026-05-05T13:47:11Z</time></trkpt><trkpt lat="46.02026768735066" lon="13.169288786534047"><ele>76.0</ele><time>2026-05-05T13:47:12Z</time></trkpt><trkpt lat="46.020260814941715" lon="13.16915306885413"><ele>76.0</ele><time>2026-05-05T13:47:13Z</time></trkpt><trkpt lat="46.02025537139227" lon="13.169025102883305"><ele>76.0</ele><time>2026-05-05T13:47:14Z</time></trkpt><trkpt lat="46.02025028986624" lon="13.168892308283151"><ele>76.0</ele><time>2026-05-05T13:47:15Z</time></trkpt><trkpt lat="46.02024301913091" lon="13.168763595330958"><ele>76.0</ele><time>2026-05-05T13:47:16Z</time></trkpt><trkpt lat="46.020236160394425" lon="13.168645539499469"><ele>76.0</ele><time>2026-05-05T13:47:17Z</time></trkpt><trkpt lat="46.02022942000003" lon="13.168526061806032"><ele>76.2</ele><time>2026-05-05T13:47:18Z</time></trkpt><trkpt lat="46.02022473983514" lon="13.168407462949181"><ele>76.39999999999999</ele><time>2026-05-05T13:47:19Z</time></trkpt><trkpt lat="46.020221654016076" lon="13.168287985950748"><ele>76.6</ele><time>2026-05-05T13:47:20Z</time></trkpt><trkpt lat="46.02021083691546" lon="13.168140511628685"><ele>76.8</ele><time>2026-05-05T13:47:21Z</time></trkpt><trkpt lat="46.02019295342835" lon="13.167947119411354"><ele>77.0</ele><time>2026-05-05T13:47:22Z</time></trkpt><trkpt lat="46.02017862401924" lon="13.167719552285734"><ele>77.33333333333334</ele><time>2026-05-05T13:47:23Z</time></trkpt><trkpt lat="46.020162008598724" lon="13.16744349434479"><ele>77.66666666666667</ele><time>2026-05-05T13:47:24Z</time></trkpt><trkpt lat="46.02016137521853" lon="13.167134661974142"><ele>78.0</ele><time>2026-05-05T13:47:25Z</time></trkpt><trkpt lat="46.02014672542258" lon="13.166825940537311"><ele>77.33333333333333</ele><time>2026-05-05T13:47:26Z</time></trkpt><trkpt lat="46.020132035769976" lon="13.166510182532638"><ele>76.66666666666666</ele><time>2026-05-05T13:47:27Z</time></trkpt><trkpt lat="46.02010861105971" lon="13.166214369058416"><ele>76.0</ele><time>2026-05-05T13:47:28Z</time></trkpt><trkpt lat="46.020107286789674" lon="13.165952340160892"><ele>76.0</ele><time>2026-05-05T13:47:29Z</time></trkpt><trkpt lat="46.0200999347728" lon="13.165698513361637"><ele>76.0</ele><time>2026-05-05T13:47:30Z</time></trkpt><trkpt lat="46.02008828046332" lon="13.165456161596094"><ele>76.0</ele><time>2026-05-05T13:47:31Z</time></trkpt><trkpt lat="46.02007604425363" lon="13.165223916492037"><ele>76.66666666666666</ele><time>2026-05-05T13:47:32Z</time></trkpt><trkpt lat="46.02006445035786" lon="13.164990272624223"><ele>77.33333333333333</ele><time>2026-05-05T13:47:33Z</time></trkpt><trkpt lat="46.02005417172941" lon="13.16475362567612"><ele>78.0</ele><time>2026-05-05T13:47:34Z</time></trkpt><trkpt lat="46.02004245181223" lon="13.164514761379362"><ele>78.0</ele><time>2026-05-05T13:47:35Z</time></trkpt><trkpt lat="46.02003668248464" lon="13.164279690625754"><ele>78.0</ele><time>2026-05-05T13:47:36Z</time></trkpt><trkpt lat="46.02003050043283" lon="13.164055848566424"><ele>78.0</ele><time>2026-05-05T13:47:37Z</time></trkpt><trkpt lat="46.020024325984004" lon="13.163828769758714"><ele>78.0</ele><time>2026-05-05T13:47:38Z</time></trkpt><trkpt lat="46.020016719242136" lon="13.163602405563106"><ele>78.0</ele><time>2026-05-05T13:47:39Z</time></trkpt><trkpt lat="46.020010880132936" lon="13.163399134042963"><ele>78.0</ele><time>2026-05-05T13:47:40Z</time></trkpt><trkpt lat="46.02000567702244" lon="13.163223152198652"><ele>78.0</ele><time>2026-05-05T13:47:41Z</time></trkpt><trkpt lat="46.020026485118" lon="13.163094992208277"><ele>78.0</ele><time>2026-05-05T13:47:42Z</time></trkpt><trkpt lat="46.02003983374206" lon="13.162997729211678"><ele>78.0</ele><time>2026-05-05T13:47:43Z</time></trkpt><trkpt lat="46.020068383818206" lon="13.162857216926456"><ele>78.0</ele><time>2026-05-05T13:47:45Z</time></trkpt><trkpt lat="46.02011169693185" lon="13.16278945886098"><ele>78.0</ele><time>2026-05-05T13:47:47Z</time></trkpt><trkpt lat="46.02018324524636" lon="13.162710151567783"><ele>78.0</ele><time>2026-05-05T13:47:49Z</time></trkpt><trkpt lat="46.02026425862335" lon="13.162575829759616"><ele>78.0</ele><time>2026-05-05T13:47:51Z</time></trkpt><trkpt lat="46.0202206596494" lon="13.162434468652311"><ele>77.83333333333333</ele><time>2026-05-05T13:47:53Z</time></trkpt><trkpt lat="46.02012757158753" lon="13.162339512890505"><ele>77.66666666666667</ele><time>2026-05-05T13:47:55Z</time></trkpt><trkpt lat="46.020075127596165" lon="13.162256970982897"><ele>77.5</ele><time>2026-05-05T13:47:56Z</time></trkpt><trkpt lat="46.020041191673" lon="13.162166766191286"><ele>77.33333333333334</ele><time>2026-05-05T13:47:57Z</time></trkpt><trkpt lat="46.02001349781142" lon="13.162079259908216"><ele>77.16666666666667</ele><time>2026-05-05T13:47:58Z</time></trkpt><trkpt lat="46.019981300646286" lon="13.161928596974123"><ele>77.0</ele><time>2026-05-05T13:48:00Z</time></trkpt><trkpt lat="46.01995048101853" lon="13.161762673565786"><ele>76.8</ele><time>2026-05-05T13:48:02Z</time></trkpt><trkpt lat="46.019929725250314" lon="13.16167204211914"><ele>76.6</ele><time>2026-05-05T13:48:03Z</time></trkpt><trkpt lat="46.019916254724784" lon="13.161554984713815"><ele>76.39999999999999</ele><time>2026-05-05T13:48:04Z</time></trkpt><trkpt lat="46.019864853784846" lon="13.161425126294356"><ele>76.2</ele><time>2026-05-05T13:48:05Z</time></trkpt><trkpt lat="46.0198285424479" lon="13.16126586071852"><ele>76.0</ele><time>2026-05-05T13:48:06Z</time></trkpt><trkpt lat="46.0197865191667" lon="13.161088346614754"><ele>76.0</ele><time>2026-05-05T13:48:07Z</time></trkpt><trkpt lat="46.01974863512568" lon="13.160896053415167"><ele>76.0</ele><time>2026-05-05T13:48:08Z</time></trkpt><trkpt lat="46.01971459064821" lon="13.160699432438106"><ele>76.0</ele><time>2026-05-05T13:48:09Z</time></trkpt><trkpt lat="46.01970077180285" lon="13.160512051820714"><ele>76.0</ele><time>2026-05-05T13:48:10Z</time></trkpt><trkpt lat="46.019660325836945" lon="13.160351898140599"><ele>76.2</ele><time>2026-05-05T13:48:11Z</time></trkpt><trkpt lat="46.019645521980706" lon="13.160217904880497"><ele>76.39999999999999</ele><time>2026-05-05T13:48:12Z</time></trkpt><trkpt lat="46.01962926524041" lon="13.160122875906724"><ele>76.6</ele><time>2026-05-05T13:48:13Z</time></trkpt><trkpt lat="46.01960159755637" lon="13.159965799321885"><ele>76.8</ele><time>2026-05-05T13:48:15Z</time></trkpt><trkpt lat="46.01957552957622" lon="13.159821118496968"><ele>77.0</ele><time>2026-05-05T13:48:17Z</time></trkpt><trkpt lat="46.01954931129567" lon="13.159667729582836"><ele>77.0</ele><time>2026-05-05T13:48:19Z</time></trkpt><trkpt lat="46.01951787070643" lon="13.159493005854246"><ele>77.0</ele><time>2026-05-05T13:48:21Z</time></trkpt><trkpt lat="46.019499987433456" lon="13.159398368697438"><ele>77.0</ele><time>2026-05-05T13:48:22Z</time></trkpt><trkpt lat="46.019480781800404" lon="13.159298561109066"><ele>77.0</ele><time>2026-05-05T13:48:23Z</time></trkpt><trkpt lat="46.019461079627035" lon="13.159193572363304"><ele>77.0</ele><time>2026-05-05T13:48:24Z</time></trkpt><trkpt lat="46.01944087819258" lon="13.15908350594342"><ele>77.0</ele><time>2026-05-05T13:48:25Z</time></trkpt><trkpt lat="46.01943433179775" lon="13.158966185169218"><ele>77.2</ele><time>2026-05-05T13:48:26Z</time></trkpt><trkpt lat="46.019393979945455" lon="13.158851511831262"><ele>77.4</ele><time>2026-05-05T13:48:27Z</time></trkpt><trkpt lat="46.019379178202705" lon="13.158729954255566"><ele>77.6</ele><time>2026-05-05T13:48:28Z</time></trkpt><trkpt lat="46.019351000518235" lon="13.158603788616022"><ele>77.8</ele><time>2026-05-05T13:48:29Z</time></trkpt><trkpt lat="46.01931955235938" lon="13.15847164691251"><ele>78.0</ele><time>2026-05-05T13:48:30Z</time></trkpt><trkpt lat="46.01927633068667" lon="13.158340140377268"><ele>78.0</ele><time>2026-05-05T13:48:31Z</time></trkpt><trkpt lat="46.01922672682332" lon="13.15822160570144"><ele>78.0</ele><time>2026-05-05T13:48:32Z</time></trkpt><trkpt lat="46.01917324388976" lon="13.158109686654567"><ele>78.0</ele><time>2026-05-05T13:48:33Z</time></trkpt><trkpt lat="46.019114327482" lon="13.158008121510129"><ele>78.0</ele><time>2026-05-05T13:48:34Z</time></trkpt><trkpt lat="46.019053573521965" lon="13.157904494891772"><ele>78.0</ele><time>2026-05-05T13:48:35Z</time></trkpt><trkpt lat="46.0189899483708" lon="13.157799702975032"><ele>77.6</ele><time>2026-05-05T13:48:36Z</time></trkpt><trkpt lat="46.0189289635817" lon="13.157693476850294"><ele>77.19999999999999</ele><time>2026-05-05T13:48:37Z</time></trkpt><trkpt lat="46.018872662659774" lon="13.157577350593206"><ele>76.8</ele><time>2026-05-05T13:48:38Z</time></trkpt><trkpt lat="46.01882356471931" lon="13.15745020861823"><ele>76.39999999999999</ele><time>2026-05-05T13:48:39Z</time></trkpt><trkpt lat="46.01877239530139" lon="13.157312648355981"><ele>76.0</ele><time>2026-05-05T13:48:40Z</time></trkpt><trkpt lat="46.018724170721306" lon="13.157163287882543"><ele>76.0</ele><time>2026-05-05T13:48:41Z</time></trkpt><trkpt lat="46.01867783427305" lon="13.157015624021499"><ele>76.0</ele><time>2026-05-05T13:48:42Z</time></trkpt><trkpt lat="46.018630504843244" lon="13.156865751123615"><ele>76.0</ele><time>2026-05-05T13:48:43Z</time></trkpt><trkpt lat="46.01858364645389" lon="13.156710079090741"><ele>76.0</ele><time>2026-05-05T13:48:44Z</time></trkpt><trkpt lat="46.01853630659695" lon="13.156541354132402"><ele>76.5</ele><time>2026-05-05T13:48:45Z</time></trkpt><trkpt lat="46.01848744886523" lon="13.156373444433923"><ele>77.0</ele><time>2026-05-05T13:48:46Z</time></trkpt><trkpt lat="46.018437595203174" lon="13.15619840544738"><ele>77.5</ele><time>2026-05-05T13:48:47Z</time></trkpt><trkpt lat="46.018387470783544" lon="13.15602243414671"><ele>78.0</ele><time>2026-05-05T13:48:48Z</time></trkpt><trkpt lat="46.01833208310603" lon="13.155833746955869"><ele>78.0</ele><time>2026-05-05T13:48:49Z</time></trkpt><trkpt lat="46.01827233886803" lon="13.155637091119086"><ele>78.0</ele><time>2026-05-05T13:48:50Z</time></trkpt><trkpt lat="46.018210047895664" lon="13.155428310710267"><ele>78.0</ele><time>2026-05-05T13:48:51Z</time></trkpt><trkpt lat="46.01813983888516" lon="13.15520166382842"><ele>78.0</ele><time>2026-05-05T13:48:52Z</time></trkpt><trkpt lat="46.01806885125956" lon="13.154958517096674"><ele>78.0</ele><time>2026-05-05T13:48:53Z</time></trkpt><trkpt lat="46.01799608140359" lon="13.154704008653974"><ele>78.0</ele><time>2026-05-05T13:48:54Z</time></trkpt><trkpt lat="46.01792405581607" lon="13.154441140523828"><ele>77.66666666666667</ele><time>2026-05-05T13:48:55Z</time></trkpt><trkpt lat="46.01785175604015" lon="13.154178071763848"><ele>77.33333333333334</ele><time>2026-05-05T13:48:56Z</time></trkpt><trkpt lat="46.01777531499957" lon="13.153919864355942"><ele>77.0</ele><time>2026-05-05T13:48:57Z</time></trkpt><trkpt lat="46.017701466215904" lon="13.153659080970394"><ele>76.66666666666667</ele><time>2026-05-05T13:48:58Z</time></trkpt><trkpt lat="46.01762788821509" lon="13.153406125374133"><ele>76.33333333333333</ele><time>2026-05-05T13:48:59Z</time></trkpt><trkpt lat="46.01755361222941" lon="13.153149554082786"><ele>76.0</ele><time>2026-05-05T13:49:00Z</time></trkpt><trkpt lat="46.01747989976195" lon="13.15289739229441"><ele>76.0</ele><time>2026-05-05T13:49:01Z</time></trkpt><trkpt lat="46.017407200451615" lon="13.152645898429295"><ele>76.0</ele><time>2026-05-05T13:49:02Z</time></trkpt><trkpt lat="46.01733687483776" lon="13.152389910270587"><ele>76.0</ele><time>2026-05-05T13:49:03Z</time></trkpt><trkpt lat="46.017262910479445" lon="13.152134519080116"><ele>76.0</ele><time>2026-05-05T13:49:04Z</time></trkpt><trkpt lat="46.01718889235967" lon="13.151886983533691"><ele>76.0</ele><time>2026-05-05T13:49:05Z</time></trkpt><trkpt lat="46.01711611943108" lon="13.151643116962909"><ele>76.0</ele><time>2026-05-05T13:49:06Z</time></trkpt><trkpt lat="46.01704683656101" lon="13.15140605068682"><ele>75.66666666666666</ele><time>2026-05-05T13:49:07Z</time></trkpt><trkpt lat="46.016981668245876" lon="13.151183907896739"><ele>75.33333333333333</ele><time>2026-05-05T13:49:08Z</time></trkpt><trkpt lat="46.01692133535492" lon="13.150970717841423"><ele>75.0</ele><time>2026-05-05T13:49:09Z</time></trkpt><trkpt lat="46.016864180742864" lon="13.15078696723352"><ele>74.8</ele><time>2026-05-05T13:49:10Z</time></trkpt><trkpt lat="46.01681835654961" lon="13.15062303745583"><ele>74.6</ele><time>2026-05-05T13:49:11Z</time></trkpt><trkpt lat="46.01677664990256" lon="13.150489164188802"><ele>74.4</ele><time>2026-05-05T13:49:12Z</time></trkpt><trkpt lat="46.01673766886916" lon="13.1503617382755"><ele>74.2</ele><time>2026-05-05T13:49:13Z</time></trkpt><trkpt lat="46.0166985636337" lon="13.150237304803797"><ele>74.0</ele><time>2026-05-05T13:49:14Z</time></trkpt><trkpt lat="46.01666026921213" lon="13.150115715151163"><ele>74.0</ele><time>2026-05-05T13:49:15Z</time></trkpt><trkpt lat="46.01662827480239" lon="13.15000500115459"><ele>74.0</ele><time>2026-05-05T13:49:16Z</time></trkpt><trkpt lat="46.0166030782689" lon="13.149917266198614"><ele>74.0</ele><time>2026-05-05T13:49:17Z</time></trkpt><trkpt lat="46.016569376036514" lon="13.149798950334468"><ele>74.0</ele><time>2026-05-05T13:49:19Z</time></trkpt><trkpt lat="46.016546115589534" lon="13.149707749507552"><ele>74.0</ele><time>2026-05-05T13:49:22Z</time></trkpt><trkpt lat="46.016508970966356" lon="13.14953894607301"><ele>74.0</ele><time>2026-05-05T13:49:28Z</time></trkpt><trkpt lat="46.01647701876799" lon="13.149426054915596"><ele>74.25</ele><time>2026-05-05T13:49:29Z</time></trkpt><trkpt lat="46.01643655347541" lon="13.149283905356874"><ele>74.5</ele><time>2026-05-05T13:49:30Z</time></trkpt><trkpt lat="46.016388914727145" lon="13.149116556386856"><ele>74.75</ele><time>2026-05-05T13:49:31Z</time></trkpt><trkpt lat="46.01634049711434" lon="13.148946470226313"><ele>75.0</ele><time>2026-05-05T13:49:32Z</time></trkpt><trkpt lat="46.016295543027944" lon="13.148793604244258"><ele>75.0</ele><time>2026-05-05T13:49:33Z</time></trkpt><trkpt lat="46.01625444583233" lon="13.148652868108702"><ele>75.0</ele><time>2026-05-05T13:49:34Z</time></trkpt><trkpt lat="46.01621872540969" lon="13.14853054458025"><ele>75.0</ele><time>2026-05-05T13:49:35Z</time></trkpt><trkpt lat="46.01619362588921" lon="13.148444592119644"><ele>75.0</ele><time>2026-05-05T13:49:36Z</time></trkpt><trkpt lat="46.016149330040605" lon="13.148292884092422"><ele>75.0</ele><time>2026-05-05T13:49:38Z</time></trkpt><trkpt lat="46.0161229610829" lon="13.14820257138454"><ele>75.0</ele><time>2026-05-05T13:49:39Z</time></trkpt><trkpt lat="46.016066089382655" lon="13.148116027876359"><ele>75.2</ele><time>2026-05-05T13:49:40Z</time></trkpt><trkpt lat="46.01603603968372" lon="13.14799188340205"><ele>75.4</ele><time>2026-05-05T13:49:41Z</time></trkpt><trkpt lat="46.01599507088021" lon="13.147865736137561"><ele>75.6</ele><time>2026-05-05T13:49:42Z</time></trkpt><trkpt lat="46.015957613379626" lon="13.147724930789234"><ele>75.8</ele><time>2026-05-05T13:49:43Z</time></trkpt><trkpt lat="46.01593389546512" lon="13.147568805928437"><ele>76.0</ele><time>2026-05-05T13:49:44Z</time></trkpt><trkpt lat="46.015871281851155" lon="13.147431883340513"><ele>76.0</ele><time>2026-05-05T13:49:45Z</time></trkpt><trkpt lat="46.01582795686495" lon="13.147292830987997"><ele>76.0</ele><time>2026-05-05T13:49:46Z</time></trkpt><trkpt lat="46.015785966416" lon="13.14715004568199"><ele>76.0</ele><time>2026-05-05T13:49:47Z</time></trkpt><trkpt lat="46.01574567952917" lon="13.147005834486619"><ele>76.0</ele><time>2026-05-05T13:49:48Z</time></trkpt><trkpt lat="46.01571004820567" lon="13.146879114315544"><ele>76.0</ele><time>2026-05-05T13:49:49Z</time></trkpt><trkpt lat="46.01567298265973" lon="13.146759971440941"><ele>75.66666666666666</ele><time>2026-05-05T13:49:50Z</time></trkpt><trkpt lat="46.01564442760831" lon="13.146644712039732"><ele>75.33333333333333</ele><time>2026-05-05T13:49:51Z</time></trkpt><trkpt lat="46.015631358966814" lon="13.146525034651871"><ele>75.0</ele><time>2026-05-05T13:49:52Z</time></trkpt><trkpt lat="46.015588570984335" lon="13.1464423902951"><ele>74.66666666666667</ele><time>2026-05-05T13:49:53Z</time></trkpt><trkpt lat="46.0155572450399" lon="13.146352388112378"><ele>74.33333333333334</ele><time>2026-05-05T13:49:54Z</time></trkpt><trkpt lat="46.01552928164568" lon="13.146257178545767"><ele>74.0</ele><time>2026-05-05T13:49:55Z</time></trkpt><trkpt lat="46.01550004853172" lon="13.146161278880433"><ele>74.0</ele><time>2026-05-05T13:49:56Z</time></trkpt><trkpt lat="46.01548877394706" lon="13.146032763395691"><ele>74.0</ele><time>2026-05-05T13:49:57Z</time></trkpt><trkpt lat="46.01545337944375" lon="13.14591137626483"><ele>74.0</ele><time>2026-05-05T13:49:58Z</time></trkpt><trkpt lat="46.01541516223581" lon="13.145780308592087"><ele>74.0</ele><time>2026-05-05T13:49:59Z</time></trkpt><trkpt lat="46.01537583479346" lon="13.145646312759164"><ele>74.0</ele><time>2026-05-05T13:50:00Z</time></trkpt><trkpt lat="46.01533487710466" lon="13.145506796585815"><ele>74.4</ele><time>2026-05-05T13:50:01Z</time></trkpt><trkpt lat="46.01529067781867" lon="13.14535623832851"><ele>74.80000000000001</ele><time>2026-05-05T13:50:02Z</time></trkpt><trkpt lat="46.015248788959326" lon="13.145213216484704"><ele>75.19999999999999</ele><time>2026-05-05T13:50:03Z</time></trkpt><trkpt lat="46.01520746431824" lon="13.14507060180905"><ele>75.6</ele><time>2026-05-05T13:50:04Z</time></trkpt><trkpt lat="46.015167736396066" lon="13.144933497603605"><ele>76.0</ele><time>2026-05-05T13:50:05Z</time></trkpt><trkpt lat="46.01512882405911" lon="13.1447992079653"><ele>76.0</ele><time>2026-05-05T13:50:06Z</time></trkpt><trkpt lat="46.0150867382314" lon="13.144653965487034"><ele>76.0</ele><time>2026-05-05T13:50:07Z</time></trkpt><trkpt lat="46.015044993691816" lon="13.14450913518614"><ele>76.0</ele><time>2026-05-05T13:50:08Z</time></trkpt><trkpt lat="46.01500190234904" lon="13.144359808837061"><ele>76.0</ele><time>2026-05-05T13:50:09Z</time></trkpt><trkpt lat="46.014958157200056" lon="13.144205870214428"><ele>76.0</ele><time>2026-05-05T13:50:10Z</time></trkpt><trkpt lat="46.014885994039595" lon="13.144061391694844"><ele>75.25</ele><time>2026-05-05T13:50:11Z</time></trkpt><trkpt lat="46.014839126279476" lon="13.143900570902003"><ele>74.5</ele><time>2026-05-05T13:50:12Z</time></trkpt><trkpt lat="46.01478681571046" lon="13.143732958378468"><ele>73.75</ele><time>2026-05-05T13:50:13Z</time></trkpt><trkpt lat="46.014734866373" lon="13.143561666686194"><ele>73.0</ele><time>2026-05-05T13:50:14Z</time></trkpt><trkpt lat="46.01471532721292" lon="13.143367980459157"><ele>73.25</ele><time>2026-05-05T13:50:15Z</time></trkpt><trkpt lat="46.014662235562604" lon="13.143186024416467"><ele>73.5</ele><time>2026-05-05T13:50:16Z</time></trkpt><trkpt lat="46.014605780007706" lon="13.14299253957446"><ele>73.75</ele><time>2026-05-05T13:50:17Z</time></trkpt><trkpt lat="46.01455137816418" lon="13.142806093293538"><ele>74.0</ele><time>2026-05-05T13:50:18Z</time></trkpt><trkpt lat="46.01450186715038" lon="13.142636406652727"><ele>74.0</ele><time>2026-05-05T13:50:19Z</time></trkpt><trkpt lat="46.01446094022188" lon="13.142492297064427"><ele>74.0</ele><time>2026-05-05T13:50:20Z</time></trkpt><trkpt lat="46.01442717257373" lon="13.142377088448413"><ele>74.0</ele><time>2026-05-05T13:50:21Z</time></trkpt><trkpt lat="46.01440116993211" lon="13.142287851962172"><ele>74.0</ele><time>2026-05-05T13:50:22Z</time></trkpt><trkpt lat="46.01435774119176" lon="13.142138811968858"><ele>74.0</ele><time>2026-05-05T13:50:24Z</time></trkpt><trkpt lat="46.01432211005301" lon="13.14201653200624"><ele>74.16666666666667</ele><time>2026-05-05T13:50:26Z</time></trkpt><trkpt lat="46.01429068392908" lon="13.141908682998764"><ele>74.33333333333334</ele><time>2026-05-05T13:50:28Z</time></trkpt><trkpt lat="46.01425478284614" lon="13.141785476733782"><ele>74.5</ele><time>2026-05-05T13:50:31Z</time></trkpt><trkpt lat="46.01422608293987" lon="13.141686983621767"><ele>74.66666666666667</ele><time>2026-05-05T13:50:33Z</time></trkpt><trkpt lat="46.01419247475916" lon="13.141571646184392"><ele>74.83333333333333</ele><time>2026-05-05T13:50:35Z</time></trkpt><trkpt lat="46.01415908039953" lon="13.141457042307284"><ele>75.0</ele><time>2026-05-05T13:50:37Z</time></trkpt><trkpt lat="46.01413073666678" lon="13.141359771569869"><ele>75.16666666666667</ele><time>2026-05-05T13:50:39Z</time></trkpt><trkpt lat="46.014100576963024" lon="13.141256268669341"><ele>75.33333333333333</ele><time>2026-05-05T13:50:41Z</time></trkpt><trkpt lat="46.0140666065449" lon="13.141139688067884"><ele>75.5</ele><time>2026-05-05T13:50:44Z</time></trkpt><trkpt lat="46.01403537820973" lon="13.141032517708432"><ele>75.66666666666666</ele><time>2026-05-05T13:50:47Z</time></trkpt><trkpt lat="46.01400820392962" lon="13.140939260377621"><ele>75.83333333333333</ele><time>2026-05-05T13:50:49Z</time></trkpt><trkpt lat="46.01398302044159" lon="13.140852840686104"><ele>76.0</ele><time>2026-05-05T13:50:53Z</time></trkpt><trkpt lat="46.01395160275837" lon="13.140745896290186"><ele>76.16666666666666</ele><time>2026-05-05T13:51:05Z</time></trkpt><trkpt lat="46.01391674984105" lon="13.140626858726948"><ele>76.33333333333333</ele><time>2026-05-05T13:51:07Z</time></trkpt><trkpt lat="46.01387381875555" lon="13.140480230853436"><ele>76.5</ele><time>2026-05-05T13:51:09Z</time></trkpt><trkpt lat="46.0138492447052" lon="13.140396299826811"><ele>76.66666666666667</ele><time>2026-05-05T13:51:10Z</time></trkpt><trkpt lat="46.01382194353392" lon="13.140303054548552"><ele>76.83333333333334</ele><time>2026-05-05T13:51:11Z</time></trkpt><trkpt lat="46.01379399842671" lon="13.140207609925392"><ele>77.0</ele><time>2026-05-05T13:51:12Z</time></trkpt><trkpt lat="46.01375347850282" lon="13.140115619493656"><ele>77.0</ele><time>2026-05-05T13:51:13Z</time></trkpt><trkpt lat="46.013735460229675" lon="13.140004808995906"><ele>77.0</ele><time>2026-05-05T13:51:14Z</time></trkpt><trkpt lat="46.01370594681544" lon="13.13989511095296"><ele>77.0</ele><time>2026-05-05T13:51:15Z</time></trkpt><trkpt lat="46.01367418259124" lon="13.139778319997749"><ele>77.0</ele><time>2026-05-05T13:51:16Z</time></trkpt><trkpt lat="46.01364504325654" lon="13.13966128035005"><ele>77.0</ele><time>2026-05-05T13:51:17Z</time></trkpt><trkpt lat="46.01361323060346" lon="13.139541967537994"><ele>77.0</ele><time>2026-05-05T13:51:18Z</time></trkpt><trkpt lat="46.01357949318871" lon="13.139418587877026"><ele>76.8</ele><time>2026-05-05T13:51:19Z</time></trkpt><trkpt lat="46.0135444743043" lon="13.139288903460765"><ele>76.6</ele><time>2026-05-05T13:51:20Z</time></trkpt><trkpt lat="46.01350851275735" lon="13.139157190851039"><ele>76.39999999999999</ele><time>2026-05-05T13:51:21Z</time></trkpt><trkpt lat="46.01347029720572" lon="13.13902364913614"><ele>76.2</ele><time>2026-05-05T13:51:22Z</time></trkpt><trkpt lat="46.013436433507806" lon="13.138893584630654"><ele>76.0</ele><time>2026-05-05T13:51:23Z</time></trkpt><trkpt lat="46.0134054573011" lon="13.13876328867449"><ele>75.66666666666666</ele><time>2026-05-05T13:51:24Z</time></trkpt><trkpt lat="46.01337997060343" lon="13.138630018909542"><ele>75.33333333333333</ele><time>2026-05-05T13:51:25Z</time></trkpt><trkpt lat="46.01336484277949" lon="13.138496472159206"><ele>75.0</ele><time>2026-05-05T13:51:26Z</time></trkpt><trkpt lat="46.01336412961041" lon="13.138366456612856"><ele>74.66666666666667</ele><time>2026-05-05T13:51:27Z</time></trkpt><trkpt lat="46.013366821823475" lon="13.138242980481396"><ele>74.33333333333334</ele><time>2026-05-05T13:51:28Z</time></trkpt><trkpt lat="46.013360566253525" lon="13.13812947505425"><ele>74.0</ele><time>2026-05-05T13:51:29Z</time></trkpt><trkpt lat="46.01333277514446" lon="13.138023847670867"><ele>73.8</ele><time>2026-05-05T13:51:30Z</time></trkpt><trkpt lat="46.01327882434282" lon="13.1379298808138"><ele>73.60000000000001</ele><time>2026-05-05T13:51:31Z</time></trkpt><trkpt lat="46.01320863065959" lon="13.137836915409647"><ele>73.4</ele><time>2026-05-05T13:51:32Z</time></trkpt><trkpt lat="46.01313576704175" lon="13.137725046771635"><ele>73.2</ele><time>2026-05-05T13:51:33Z</time></trkpt><trkpt lat="46.013066294905656" lon="13.13758470009404"><ele>73.0</ele><time>2026-05-05T13:51:34Z</time></trkpt><trkpt lat="46.01299055106934" lon="13.137441259582124"><ele>73.0</ele><time>2026-05-05T13:51:35Z</time></trkpt><trkpt lat="46.01294435413098" lon="13.137236471310146"><ele>73.0</ele><time>2026-05-05T13:51:36Z</time></trkpt><trkpt lat="46.01288216107796" lon="13.137042040258056"><ele>73.0</ele><time>2026-05-05T13:51:37Z</time></trkpt><trkpt lat="46.01281217723323" lon="13.136839637541694"><ele>73.0</ele><time>2026-05-05T13:51:38Z</time></trkpt><trkpt lat="46.01274502441534" lon="13.136622799829317"><ele>73.0</ele><time>2026-05-05T13:51:39Z</time></trkpt><trkpt lat="46.01267266255864" lon="13.136389373194765"><ele>73.0</ele><time>2026-05-05T13:51:40Z</time></trkpt><trkpt lat="46.01259734930951" lon="13.136142137699396"><ele>73.33333333333333</ele><time>2026-05-05T13:51:41Z</time></trkpt><trkpt lat="46.01252379734432" lon="13.13588116893086"><ele>73.66666666666667</ele><time>2026-05-05T13:51:42Z</time></trkpt><trkpt lat="46.0124529827871" lon="13.135607446213378"><ele>74.0</ele><time>2026-05-05T13:51:43Z</time></trkpt><trkpt lat="46.012381452303316" lon="13.135332320865743"><ele>74.0</ele><time>2026-05-05T13:51:44Z</time></trkpt><trkpt lat="46.012305218462295" lon="13.1350493169672"><ele>74.0</ele><time>2026-05-05T13:51:45Z</time></trkpt><trkpt lat="46.01222647905182" lon="13.134771041496752"><ele>74.0</ele><time>2026-05-05T13:51:46Z</time></trkpt><trkpt lat="46.012144152072416" lon="13.134495366132036"><ele>74.0</ele><time>2026-05-05T13:51:47Z</time></trkpt><trkpt lat="46.01206768162182" lon="13.134222340068789"><ele>74.0</ele><time>2026-05-05T13:51:48Z</time></trkpt><trkpt lat="46.011988120079344" lon="13.133954768953485"><ele>74.0</ele><time>2026-05-05T13:51:49Z</time></trkpt><trkpt lat="46.01191404360047" lon="13.133698796802994"><ele>73.33333333333334</ele><time>2026-05-05T13:51:50Z</time></trkpt><trkpt lat="46.011841349366115" lon="13.1334515134364"><ele>72.66666666666667</ele><time>2026-05-05T13:51:51Z</time></trkpt><trkpt lat="46.01176968943196" lon="13.13320212710828"><ele>72.0</ele><time>2026-05-05T13:51:52Z</time></trkpt><trkpt lat="46.011698161673706" lon="13.132951199069572"><ele>71.66666666666667</ele><time>2026-05-05T13:51:53Z</time></trkpt><trkpt lat="46.01162600356431" lon="13.132700722497473"><ele>71.33333333333334</ele><time>2026-05-05T13:51:54Z</time></trkpt><trkpt lat="46.011554047041564" lon="13.132449762252106"><ele>71.0</ele><time>2026-05-05T13:51:55Z</time></trkpt><trkpt lat="46.01148270060868" lon="13.13220103910159"><ele>71.0</ele><time>2026-05-05T13:51:56Z</time></trkpt><trkpt lat="46.01140910663649" lon="13.131951738480815"><ele>71.0</ele><time>2026-05-05T13:51:57Z</time></trkpt><trkpt lat="46.01133559130988" lon="13.131700493880036"><ele>71.0</ele><time>2026-05-05T13:51:58Z</time></trkpt><trkpt lat="46.01126160932121" lon="13.131450657260268"><ele>71.0</ele><time>2026-05-05T13:51:59Z</time></trkpt><trkpt lat="46.01118849612115" lon="13.131199879941104"><ele>71.0</ele><time>2026-05-05T13:52:00Z</time></trkpt><trkpt lat="46.01111698354821" lon="13.130952519491347"><ele>71.0</ele><time>2026-05-05T13:52:01Z</time></trkpt><trkpt lat="46.0110428647748" lon="13.130695516504717"><ele>71.33333333333334</ele><time>2026-05-05T13:52:02Z</time></trkpt><trkpt lat="46.01096740684177" lon="13.130440164100834"><ele>71.66666666666667</ele><time>2026-05-05T13:52:03Z</time></trkpt><trkpt lat="46.01089443654002" lon="13.130190634476568"><ele>72.0</ele><time>2026-05-05T13:52:04Z</time></trkpt><trkpt lat="46.01082416060558" lon="13.129946982961652"><ele>72.33333333333333</ele><time>2026-05-05T13:52:05Z</time></trkpt><trkpt lat="46.01075261478444" lon="13.12969801590155"><ele>72.66666666666666</ele><time>2026-05-05T13:52:06Z</time></trkpt><trkpt lat="46.0106807823812" lon="13.129450305979637"><ele>73.0</ele><time>2026-05-05T13:52:07Z</time></trkpt><trkpt lat="46.0106103075295" lon="13.129196962276533"><ele>72.33333333333333</ele><time>2026-05-05T13:52:08Z</time></trkpt><trkpt lat="46.010535904746476" lon="13.128946578953787"><ele>71.66666666666667</ele><time>2026-05-05T13:52:09Z</time></trkpt><trkpt lat="46.01046257876057" lon="13.128691039833047"><ele>71.0</ele><time>2026-05-05T13:52:10Z</time></trkpt><trkpt lat="46.0103888377949" lon="13.128432207206318"><ele>71.0</ele><time>2026-05-05T13:52:11Z</time></trkpt><trkpt lat="46.01031559318133" lon="13.12817859015952"><ele>71.0</ele><time>2026-05-05T13:52:12Z</time></trkpt><trkpt lat="46.01023767332048" lon="13.127934665802533"><ele>71.0</ele><time>2026-05-05T13:52:13Z</time></trkpt><trkpt lat="46.010162186617556" lon="13.12769259792954"><ele>71.0</ele><time>2026-05-05T13:52:14Z</time></trkpt><trkpt lat="46.01008584679191" lon="13.127448676912088"><ele>71.0</ele><time>2026-05-05T13:52:15Z</time></trkpt><trkpt lat="46.010012868999546" lon="13.127209384112295"><ele>71.0</ele><time>2026-05-05T13:52:16Z</time></trkpt><trkpt lat="46.009945805852226" lon="13.126982900385958"><ele>71.0</ele><time>2026-05-05T13:52:17Z</time></trkpt><trkpt lat="46.00988616117644" lon="13.126769614180475"><ele>71.0</ele><time>2026-05-05T13:52:18Z</time></trkpt><trkpt lat="46.009832413034125" lon="13.126572650547944"><ele>71.0</ele><time>2026-05-05T13:52:19Z</time></trkpt><trkpt lat="46.00978519669325" lon="13.126389521106018"><ele>71.0</ele><time>2026-05-05T13:52:20Z</time></trkpt><trkpt lat="46.009744316643534" lon="13.126217851557701"><ele>71.0</ele><time>2026-05-05T13:52:21Z</time></trkpt><trkpt lat="46.00971861277808" lon="13.12605532224718"><ele>71.0</ele><time>2026-05-05T13:52:22Z</time></trkpt><trkpt lat="46.009705032241655" lon="13.125903247865933"><ele>71.0</ele><time>2026-05-05T13:52:23Z</time></trkpt><trkpt lat="46.00970847942631" lon="13.125758280930564"><ele>71.0</ele><time>2026-05-05T13:52:24Z</time></trkpt><trkpt lat="46.00970787990501" lon="13.125573381183964"><ele>71.0</ele><time>2026-05-05T13:52:25Z</time></trkpt><trkpt lat="46.009685062730455" lon="13.125473209254611"><ele>71.0</ele><time>2026-05-05T13:52:26Z</time></trkpt><trkpt lat="46.009632580436936" lon="13.12534201277998"><ele>71.0</ele><time>2026-05-05T13:52:27Z</time></trkpt><trkpt lat="46.00955062985152" lon="13.125234708417821"><ele>71.0</ele><time>2026-05-05T13:52:28Z</time></trkpt><trkpt lat="46.00945543612054" lon="13.12513455999693"><ele>71.0</ele><time>2026-05-05T13:52:29Z</time></trkpt><trkpt lat="46.009369730793615" lon="13.124978006361875"><ele>71.0</ele><time>2026-05-05T13:52:30Z</time></trkpt><trkpt lat="46.00930260387095" lon="13.124787667435925"><ele>71.0</ele><time>2026-05-05T13:52:31Z</time></trkpt><trkpt lat="46.00923936659003" lon="13.124570438317832"><ele>71.0</ele><time>2026-05-05T13:52:32Z</time></trkpt><trkpt lat="46.00917186335824" lon="13.1243354291273"><ele>70.66666666666667</ele><time>2026-05-05T13:52:33Z</time></trkpt><trkpt lat="46.00909829278491" lon="13.124085422288495"><ele>70.33333333333333</ele><time>2026-05-05T13:52:34Z</time></trkpt><trkpt lat="46.00902112953405" lon="13.123825990464946"><ele>70.0</ele><time>2026-05-05T13:52:35Z</time></trkpt><trkpt lat="46.00894178864436" lon="13.123558692653576"><ele>70.0</ele><time>2026-05-05T13:52:36Z</time></trkpt><trkpt lat="46.00886129549352" lon="13.123284722759237"><ele>70.0</ele><time>2026-05-05T13:52:37Z</time></trkpt><trkpt lat="46.00878369832658" lon="13.123018702702662"><ele>70.0</ele><time>2026-05-05T13:52:38Z</time></trkpt><trkpt lat="46.00871267404545" lon="13.122758368217676"><ele>69.66666666666666</ele><time>2026-05-05T13:52:39Z</time></trkpt><trkpt lat="46.00863707659148" lon="13.122507785065567"><ele>69.33333333333333</ele><time>2026-05-05T13:52:40Z</time></trkpt><trkpt lat="46.00856514590849" lon="13.122266340136157"><ele>69.0</ele><time>2026-05-05T13:52:41Z</time></trkpt><trkpt lat="46.00849799906107" lon="13.122032545443357"><ele>69.0</ele><time>2026-05-05T13:52:42Z</time></trkpt><trkpt lat="46.008431048756556" lon="13.121802143822007"><ele>69.0</ele><time>2026-05-05T13:52:43Z</time></trkpt><trkpt lat="46.00836311555698" lon="13.121571209971025"><ele>69.0</ele><time>2026-05-05T13:52:44Z</time></trkpt><trkpt lat="46.00829522009936" lon="13.121345821311786"><ele>68.33333333333333</ele><time>2026-05-05T13:52:45Z</time></trkpt><trkpt lat="46.0082240835201" lon="13.121113904739477"><ele>67.66666666666666</ele><time>2026-05-05T13:52:46Z</time></trkpt><trkpt lat="46.008146907537" lon="13.12086899247088"><ele>67.0</ele><time>2026-05-05T13:52:47Z</time></trkpt><trkpt lat="46.00806250880614" lon="13.12060169735894"><ele>67.0</ele><time>2026-05-05T13:52:48Z</time></trkpt><trkpt lat="46.007995442050564" lon="13.120302371472421"><ele>67.0</ele><time>2026-05-05T13:52:49Z</time></trkpt><trkpt lat="46.00791135258482" lon="13.120013999442449"><ele>67.0</ele><time>2026-05-05T13:52:50Z</time></trkpt><trkpt lat="46.00783112607874" lon="13.11973900504695"><ele>66.66666666666666</ele><time>2026-05-05T13:52:51Z</time></trkpt><trkpt lat="46.00774143447077" lon="13.119481674280838"><ele>66.33333333333333</ele><time>2026-05-05T13:52:52Z</time></trkpt><trkpt lat="46.00767242563715" lon="13.119232071831622"><ele>66.0</ele><time>2026-05-05T13:52:53Z</time></trkpt><trkpt lat="46.0076049778031" lon="13.11900258663608"><ele>65.66666666666667</ele><time>2026-05-05T13:52:54Z</time></trkpt><trkpt lat="46.00754528338504" lon="13.118792559738273"><ele>65.33333333333334</ele><time>2026-05-05T13:52:55Z</time></trkpt><trkpt lat="46.0074859166859" lon="13.118594852208078"><ele>65.0</ele><time>2026-05-05T13:52:56Z</time></trkpt><trkpt lat="46.00743110477458" lon="13.118402741303829"><ele>64.5</ele><time>2026-05-05T13:52:57Z</time></trkpt><trkpt lat="46.0073791042651" lon="13.118209004827527"><ele>64.0</ele><time>2026-05-05T13:52:58Z</time></trkpt><trkpt lat="46.007320685762615" lon="13.11801571629968"><ele>63.5</ele><time>2026-05-05T13:52:59Z</time></trkpt><trkpt lat="46.00726170020689" lon="13.117821613850726"><ele>63.0</ele><time>2026-05-05T13:53:00Z</time></trkpt><trkpt lat="46.00720771744699" lon="13.117624282233239"><ele>63.0</ele><time>2026-05-05T13:53:01Z</time></trkpt><trkpt lat="46.007154505402106" lon="13.11743330240778"><ele>63.0</ele><time>2026-05-05T13:53:02Z</time></trkpt><trkpt lat="46.00710225666473" lon="13.117249677852287"><ele>63.0</ele><time>2026-05-05T13:53:03Z</time></trkpt><trkpt lat="46.00705398715463" lon="13.117072536154845"><ele>63.0</ele><time>2026-05-05T13:53:04Z</time></trkpt><trkpt lat="46.00700317519812" lon="13.116895144683266"><ele>63.25</ele><time>2026-05-05T13:53:05Z</time></trkpt><trkpt lat="46.00695272324029" lon="13.116723827525837"><ele>63.5</ele><time>2026-05-05T13:53:06Z</time></trkpt><trkpt lat="46.00690435924697" lon="13.116553987087576"><ele>63.75</ele><time>2026-05-05T13:53:07Z</time></trkpt><trkpt lat="46.00685715762262" lon="13.116388807035777"><ele>64.0</ele><time>2026-05-05T13:53:08Z</time></trkpt><trkpt lat="46.00680969829601" lon="13.116222573729937"><ele>64.0</ele><time>2026-05-05T13:53:09Z</time></trkpt><trkpt lat="46.00676340174039" lon="13.116059468353509"><ele>64.0</ele><time>2026-05-05T13:53:10Z</time></trkpt><trkpt lat="46.00672243731532" lon="13.115906751931615"><ele>64.0</ele><time>2026-05-05T13:53:11Z</time></trkpt><trkpt lat="46.00668528998312" lon="13.11576467103857"><ele>64.0</ele><time>2026-05-05T13:53:12Z</time></trkpt><trkpt lat="46.006652482492726" lon="13.115621119587308"><ele>64.0</ele><time>2026-05-05T13:53:13Z</time></trkpt><trkpt lat="46.00662563583969" lon="13.11548472763769"><ele>63.6</ele><time>2026-05-05T13:53:14Z</time></trkpt><trkpt lat="46.006609825968034" lon="13.11534703900673"><ele>63.2</ele><time>2026-05-05T13:53:15Z</time></trkpt><trkpt lat="46.00661339192576" lon="13.115203869698924"><ele>62.800000000000004</ele><time>2026-05-05T13:53:16Z</time></trkpt><trkpt lat="46.00661675999282" lon="13.115066390160774"><ele>62.400000000000006</ele><time>2026-05-05T13:53:17Z</time></trkpt><trkpt lat="46.00660173919821" lon="13.114936938539907"><ele>62.0</ele><time>2026-05-05T13:53:18Z</time></trkpt><trkpt lat="46.006554940309044" lon="13.114811019471174"><ele>62.0</ele><time>2026-05-05T13:53:19Z</time></trkpt><trkpt lat="46.00648340420183" lon="13.114712020685863"><ele>62.0</ele><time>2026-05-05T13:53:20Z</time></trkpt><trkpt lat="46.006403447028966" lon="13.114609019543122"><ele>62.0</ele><time>2026-05-05T13:53:21Z</time></trkpt><trkpt lat="46.006331124441544" lon="13.114481785038869"><ele>62.0</ele><time>2026-05-05T13:53:22Z</time></trkpt><trkpt lat="46.00625026286765" lon="13.114357699229027"><ele>62.0</ele><time>2026-05-05T13:53:23Z</time></trkpt><trkpt lat="46.006202759090485" lon="13.11416088196203"><ele>62.0</ele><time>2026-05-05T13:53:24Z</time></trkpt><trkpt lat="46.00613909485253" lon="13.113971382003"><ele>62.0</ele><time>2026-05-05T13:53:25Z</time></trkpt><trkpt lat="46.00607784388188" lon="13.113762848500015"><ele>62.0</ele><time>2026-05-05T13:53:26Z</time></trkpt><trkpt lat="46.00601887812017" lon="13.11354669078822"><ele>62.0</ele><time>2026-05-05T13:53:27Z</time></trkpt><trkpt lat="46.00594974018113" lon="13.113317245364973"><ele>62.0</ele><time>2026-05-05T13:53:28Z</time></trkpt><trkpt lat="46.00588199415066" lon="13.113054870215306"><ele>62.0</ele><time>2026-05-05T13:53:29Z</time></trkpt><trkpt lat="46.005799584058295" lon="13.112773437381536"><ele>62.0</ele><time>2026-05-05T13:53:30Z</time></trkpt><trkpt lat="46.0056999311409" lon="13.112491513077181"><ele>62.0</ele><time>2026-05-05T13:53:31Z</time></trkpt><trkpt lat="46.00562513147504" lon="13.112210805758458"><ele>62.0</ele><time>2026-05-05T13:53:32Z</time></trkpt><trkpt lat="46.00554988872573" lon="13.11194634476935"><ele>62.66666666666667</ele><time>2026-05-05T13:53:33Z</time></trkpt><trkpt lat="46.00547843895732" lon="13.1116921024562"><ele>63.33333333333333</ele><time>2026-05-05T13:53:34Z</time></trkpt><trkpt lat="46.005403749763865" lon="13.111433012972567"><ele>64.0</ele><time>2026-05-05T13:53:35Z</time></trkpt><trkpt lat="46.00532666752002" lon="13.111173932898778"><ele>64.0</ele><time>2026-05-05T13:53:36Z</time></trkpt><trkpt lat="46.00524941988608" lon="13.11091440393424"><ele>64.0</ele><time>2026-05-05T13:53:37Z</time></trkpt><trkpt lat="46.005166080383894" lon="13.11064232016389"><ele>64.0</ele><time>2026-05-05T13:53:38Z</time></trkpt><trkpt lat="46.00507187001514" lon="13.110349813298752"><ele>63.0</ele><time>2026-05-05T13:53:39Z</time></trkpt><trkpt lat="46.00498573029067" lon="13.11004538370036"><ele>62.0</ele><time>2026-05-05T13:53:40Z</time></trkpt><trkpt lat="46.004904053523966" lon="13.109730637492067"><ele>62.0</ele><time>2026-05-05T13:53:41Z</time></trkpt><trkpt lat="46.00482241511774" lon="13.109436349334045"><ele>62.0</ele><time>2026-05-05T13:53:42Z</time></trkpt><trkpt lat="46.00473986931319" lon="13.109148991842336"><ele>62.0</ele><time>2026-05-05T13:53:43Z</time></trkpt><trkpt lat="46.00465908022002" lon="13.108877054150389"><ele>62.333333333333336</ele><time>2026-05-05T13:53:44Z</time></trkpt><trkpt lat="46.00457497374371" lon="13.108599202068042"><ele>62.66666666666667</ele><time>2026-05-05T13:53:45Z</time></trkpt><trkpt lat="46.00449198212268" lon="13.108313916889932"><ele>63.0</ele><time>2026-05-05T13:53:46Z</time></trkpt><trkpt lat="46.004410399508004" lon="13.10803650242018"><ele>64.0</ele><time>2026-05-05T13:53:47Z</time></trkpt><trkpt lat="46.004329242973455" lon="13.107767790390488"><ele>65.0</ele><time>2026-05-05T13:53:48Z</time></trkpt><trkpt lat="46.00424957801525" lon="13.10749908925317"><ele>66.0</ele><time>2026-05-05T13:53:49Z</time></trkpt><trkpt lat="46.0041744851475" lon="13.10723762544335"><ele>65.33333333333333</ele><time>2026-05-05T13:53:50Z</time></trkpt><trkpt lat="46.004102294512684" lon="13.106978187147307"><ele>64.66666666666666</ele><time>2026-05-05T13:53:51Z</time></trkpt><trkpt lat="46.004031983812546" lon="13.106728841693576"><ele>64.0</ele><time>2026-05-05T13:53:52Z</time></trkpt><trkpt lat="46.00396129430942" lon="13.10648413354156"><ele>64.0</ele><time>2026-05-05T13:53:53Z</time></trkpt><trkpt lat="46.003888411018345" lon="13.106237380629898"><ele>64.0</ele><time>2026-05-05T13:53:54Z</time></trkpt><trkpt lat="46.0038147661847" lon="13.105992752298162"><ele>64.0</ele><time>2026-05-05T13:53:55Z</time></trkpt><trkpt lat="46.00374149708716" lon="13.105745345567362"><ele>63.666666666666664</ele><time>2026-05-05T13:53:56Z</time></trkpt><trkpt lat="46.0036695591162" lon="13.105501313870159"><ele>63.33333333333333</ele><time>2026-05-05T13:53:57Z</time></trkpt><trkpt lat="46.003600796056006" lon="13.105260152818737"><ele>63.0</ele><time>2026-05-05T13:53:58Z</time></trkpt><trkpt lat="46.00353253729681" lon="13.105019560599679"><ele>63.0</ele><time>2026-05-05T13:53:59Z</time></trkpt><trkpt lat="46.00346349322809" lon="13.104781809518052"><ele>63.0</ele><time>2026-05-05T13:54:00Z</time></trkpt><trkpt lat="46.0033952366213" lon="13.104548391785544"><ele>63.0</ele><time>2026-05-05T13:54:01Z</time></trkpt><trkpt lat="46.0033255410753" lon="13.104310727974196"><ele>63.0</ele><time>2026-05-05T13:54:02Z</time></trkpt><trkpt lat="46.00325556571636" lon="13.10407319601852"><ele>63.0</ele><time>2026-05-05T13:54:03Z</time></trkpt><trkpt lat="46.003182141344105" lon="13.103831464808469"><ele>63.0</ele><time>2026-05-05T13:54:04Z</time></trkpt><trkpt lat="46.0031081716777" lon="13.10358275747328"><ele>63.0</ele><time>2026-05-05T13:54:05Z</time></trkpt><trkpt lat="46.003038092291625" lon="13.103331478531913"><ele>63.0</ele><time>2026-05-05T13:54:06Z</time></trkpt><trkpt lat="46.002966406064864" lon="13.103081556845629"><ele>63.0</ele><time>2026-05-05T13:54:07Z</time></trkpt><trkpt lat="46.00289730171514" lon="13.102838667300974"><ele>62.66666666666667</ele><time>2026-05-05T13:54:08Z</time></trkpt><trkpt lat="46.002831446506484" lon="13.102601204184698"><ele>62.333333333333336</ele><time>2026-05-05T13:54:09Z</time></trkpt><trkpt lat="46.00276924955886" lon="13.10236321438332"><ele>62.0</ele><time>2026-05-05T13:54:10Z</time></trkpt><trkpt lat="46.00270556460147" lon="13.102118780340014"><ele>62.0</ele><time>2026-05-05T13:54:11Z</time></trkpt><trkpt lat="46.00263687544208" lon="13.101874138572306"><ele>62.0</ele><time>2026-05-05T13:54:12Z</time></trkpt><trkpt lat="46.00256613622507" lon="13.101630881753223"><ele>62.0</ele><time>2026-05-05T13:54:13Z</time></trkpt><trkpt lat="46.00249334936763" lon="13.101384503713266"><ele>62.0</ele><time>2026-05-05T13:54:14Z</time></trkpt><trkpt lat="46.002419441438484" lon="13.101135332199544"><ele>62.0</ele><time>2026-05-05T13:54:15Z</time></trkpt><trkpt lat="46.00234149750005" lon="13.10088248429674"><ele>62.0</ele><time>2026-05-05T13:54:16Z</time></trkpt><trkpt lat="46.002264350327046" lon="13.100623445265862"><ele>62.0</ele><time>2026-05-05T13:54:17Z</time></trkpt><trkpt lat="46.002186853205956" lon="13.100360784254741"><ele>62.0</ele><time>2026-05-05T13:54:18Z</time></trkpt><trkpt lat="46.002109223167444" lon="13.100094922204155"><ele>62.0</ele><time>2026-05-05T13:54:19Z</time></trkpt><trkpt lat="46.00203127965423" lon="13.099827049156112"><ele>62.333333333333336</ele><time>2026-05-05T13:54:20Z</time></trkpt><trkpt lat="46.001953305684786" lon="13.099556108153994"><ele>62.66666666666667</ele><time>2026-05-05T13:54:21Z</time></trkpt><trkpt lat="46.00187302601199" lon="13.09928150973683"><ele>63.0</ele><time>2026-05-05T13:54:22Z</time></trkpt><trkpt lat="46.00178988108268" lon="13.09900115844206"><ele>63.0</ele><time>2026-05-05T13:54:23Z</time></trkpt><trkpt lat="46.001707810399225" lon="13.09871981909693"><ele>63.0</ele><time>2026-05-05T13:54:24Z</time></trkpt><trkpt lat="46.001626006681384" lon="13.098444470145044"><ele>63.0</ele><time>2026-05-05T13:54:25Z</time></trkpt><trkpt lat="46.00154737388235" lon="13.098174958612503"><ele>63.0</ele><time>2026-05-05T13:54:26Z</time></trkpt><trkpt lat="46.00147321409284" lon="13.097906420771979"><ele>63.0</ele><time>2026-05-05T13:54:27Z</time></trkpt><trkpt lat="46.00139889200913" lon="13.097643894972467"><ele>63.0</ele><time>2026-05-05T13:54:28Z</time></trkpt><trkpt lat="46.001324470502894" lon="13.09738884059236"><ele>63.0</ele><time>2026-05-05T13:54:29Z</time></trkpt><trkpt lat="46.00125343492625" lon="13.097142636943337"><ele>63.0</ele><time>2026-05-05T13:54:30Z</time></trkpt><trkpt lat="46.00117634161916" lon="13.096892912595383"><ele>63.0</ele><time>2026-05-05T13:54:31Z</time></trkpt><trkpt lat="46.00110299718535" lon="13.096639831852013"><ele>63.0</ele><time>2026-05-05T13:54:32Z</time></trkpt><trkpt lat="46.00102411418917" lon="13.096382363776796"><ele>63.0</ele><time>2026-05-05T13:54:33Z</time></trkpt><trkpt lat="46.000946259469295" lon="13.09612541517659"><ele>63.0</ele><time>2026-05-05T13:54:34Z</time></trkpt><trkpt lat="46.000874598590244" lon="13.095864667352558"><ele>63.66666666666667</ele><time>2026-05-05T13:54:35Z</time></trkpt><trkpt lat="46.000804045177695" lon="13.095604946327011"><ele>64.33333333333334</ele><time>2026-05-05T13:54:36Z</time></trkpt><trkpt lat="46.00072886892762" lon="13.095345503692698"><ele>65.0</ele><time>2026-05-05T13:54:37Z</time></trkpt><trkpt lat="46.000651719569" lon="13.095082628127232"><ele>64.66666666666667</ele><time>2026-05-05T13:54:38Z</time></trkpt><trkpt lat="46.00057340324502" lon="13.094817603292181"><ele>64.33333333333333</ele><time>2026-05-05T13:54:39Z</time></trkpt><trkpt lat="46.00049771477909" lon="13.094559820165276"><ele>64.0</ele><time>2026-05-05T13:54:40Z</time></trkpt><trkpt lat="46.000422205390336" lon="13.0943080852355"><ele>63.666666666666664</ele><time>2026-05-05T13:54:41Z</time></trkpt><trkpt lat="46.00034969641568" lon="13.094068655868861"><ele>63.33333333333333</ele><time>2026-05-05T13:54:42Z</time></trkpt><trkpt lat="46.000283049077964" lon="13.09383887786922"><ele>63.0</ele><time>2026-05-05T13:54:43Z</time></trkpt><trkpt lat="46.00021742970025" lon="13.093607880493474"><ele>63.0</ele><time>2026-05-05T13:54:44Z</time></trkpt><trkpt lat="46.00015005146204" lon="13.093378095069577"><ele>63.0</ele><time>2026-05-05T13:54:45Z</time></trkpt><trkpt lat="46.00008605520676" lon="13.093150133497215"><ele>63.0</ele><time>2026-05-05T13:54:46Z</time></trkpt><trkpt lat="46.00001907157714" lon="13.092918662387623"><ele>62.66666666666667</ele><time>2026-05-05T13:54:47Z</time></trkpt><trkpt lat="45.99995213499959" lon="13.092687475129063"><ele>62.333333333333336</ele><time>2026-05-05T13:54:48Z</time></trkpt><trkpt lat="45.99988410096822" lon="13.092456593943268"><ele>62.0</ele><time>2026-05-05T13:54:49Z</time></trkpt><trkpt lat="45.99981809115893" lon="13.092229508120134"><ele>61.66666666666667</ele><time>2026-05-05T13:54:50Z</time></trkpt><trkpt lat="45.99974801999501" lon="13.091998165871855"><ele>61.33333333333333</ele><time>2026-05-05T13:54:51Z</time></trkpt><trkpt lat="45.99967930852819" lon="13.091763858860276"><ele>61.0</ele><time>2026-05-05T13:54:52Z</time></trkpt><trkpt lat="45.999614790439516" lon="13.091525842541245"><ele>61.0</ele><time>2026-05-05T13:54:53Z</time></trkpt><trkpt lat="45.99955466413844" lon="13.091287074642189"><ele>61.0</ele><time>2026-05-05T13:54:54Z</time></trkpt><trkpt lat="45.99949069703734" lon="13.091044670279903"><ele>61.0</ele><time>2026-05-05T13:54:55Z</time></trkpt><trkpt lat="45.999423050331266" lon="13.090802974628364"><ele>60.33333333333333</ele><time>2026-05-05T13:54:56Z</time></trkpt><trkpt lat="45.99935059323018" lon="13.090563884863137"><ele>59.66666666666667</ele><time>2026-05-05T13:54:57Z</time></trkpt><trkpt lat="45.99927787297099" lon="13.090331156473738"><ele>59.0</ele><time>2026-05-05T13:54:58Z</time></trkpt><trkpt lat="45.99920404338034" lon="13.090094062928788"><ele>59.66666666666667</ele><time>2026-05-05T13:54:59Z</time></trkpt><trkpt lat="45.99913178790527" lon="13.089856761297419"><ele>60.33333333333333</ele><time>2026-05-05T13:55:00Z</time></trkpt><trkpt lat="45.99905968455916" lon="13.089622489458401"><ele>61.0</ele><time>2026-05-05T13:55:01Z</time></trkpt><trkpt lat="45.99898835452966" lon="13.089389559239848"><ele>61.0</ele><time>2026-05-05T13:55:02Z</time></trkpt><trkpt lat="45.99892053523205" lon="13.08915668236066"><ele>61.0</ele><time>2026-05-05T13:55:03Z</time></trkpt><trkpt lat="45.99884942651044" lon="13.088919509567678"><ele>61.0</ele><time>2026-05-05T13:55:04Z</time></trkpt><trkpt lat="45.998779554476016" lon="13.088685340622234"><ele>61.0</ele><time>2026-05-05T13:55:05Z</time></trkpt><trkpt lat="45.99871201615605" lon="13.088461066623745"><ele>61.0</ele><time>2026-05-05T13:55:06Z</time></trkpt><trkpt lat="45.99864269049305" lon="13.08823916235651"><ele>61.0</ele><time>2026-05-05T13:55:07Z</time></trkpt><trkpt lat="45.99857384663127" lon="13.088017461710068"><ele>61.0</ele><time>2026-05-05T13:55:08Z</time></trkpt><trkpt lat="45.99850445331099" lon="13.087792573741513"><ele>61.0</ele><time>2026-05-05T13:55:09Z</time></trkpt><trkpt lat="45.998437809247825" lon="13.087562290301843"><ele>61.0</ele><time>2026-05-05T13:55:10Z</time></trkpt><trkpt lat="45.998370836954614" lon="13.087328229582816"><ele>61.0</ele><time>2026-05-05T13:55:11Z</time></trkpt><trkpt lat="45.998302920662354" lon="13.087091609605151"><ele>61.0</ele><time>2026-05-05T13:55:12Z</time></trkpt><trkpt lat="45.99823532659926" lon="13.086850775166559"><ele>61.0</ele><time>2026-05-05T13:55:13Z</time></trkpt><trkpt lat="45.99816567410759" lon="13.086605595647168"><ele>61.666666666666664</ele><time>2026-05-05T13:55:14Z</time></trkpt><trkpt lat="45.998093822572706" lon="13.08635918162916"><ele>62.33333333333333</ele><time>2026-05-05T13:55:15Z</time></trkpt><trkpt lat="45.99802141745258" lon="13.086111241499403"><ele>63.0</ele><time>2026-05-05T13:55:16Z</time></trkpt><trkpt lat="45.99795195862798" lon="13.085872185477884"><ele>63.0</ele><time>2026-05-05T13:55:17Z</time></trkpt><trkpt lat="45.997880377944945" lon="13.08562758100824"><ele>63.0</ele><time>2026-05-05T13:55:18Z</time></trkpt><trkpt lat="45.99780789702014" lon="13.08538017299758"><ele>63.0</ele><time>2026-05-05T13:55:19Z</time></trkpt><trkpt lat="45.997733259483645" lon="13.085126691409641"><ele>63.0</ele><time>2026-05-05T13:55:20Z</time></trkpt><trkpt lat="45.99765862412792" lon="13.084869253345595"><ele>63.0</ele><time>2026-05-05T13:55:21Z</time></trkpt><trkpt lat="45.9975872172602" lon="13.084612702327815"><ele>63.0</ele><time>2026-05-05T13:55:22Z</time></trkpt><trkpt lat="45.9975134741573" lon="13.084364925800113"><ele>62.66666666666667</ele><time>2026-05-05T13:55:23Z</time></trkpt><trkpt lat="45.997439878701734" lon="13.08411894573948"><ele>62.333333333333336</ele><time>2026-05-05T13:55:24Z</time></trkpt><trkpt lat="45.997367014920535" lon="13.08387098143231"><ele>62.0</ele><time>2026-05-05T13:55:25Z</time></trkpt><trkpt lat="45.9972950014509" lon="13.08362689902343"><ele>62.0</ele><time>2026-05-05T13:55:26Z</time></trkpt><trkpt lat="45.997224473163655" lon="13.083384926384683"><ele>62.0</ele><time>2026-05-05T13:55:27Z</time></trkpt><trkpt lat="45.99715529942164" lon="13.083144103065669"><ele>62.0</ele><time>2026-05-05T13:55:28Z</time></trkpt><trkpt lat="45.997088265819706" lon="13.082919833807567"><ele>62.0</ele><time>2026-05-05T13:55:29Z</time></trkpt><trkpt lat="45.9970271729453" lon="13.082711427525581"><ele>62.0</ele><time>2026-05-05T13:55:30Z</time></trkpt><trkpt lat="45.996972496791585" lon="13.082516640985132"><ele>62.0</ele><time>2026-05-05T13:55:31Z</time></trkpt><trkpt lat="45.9969229860451" lon="13.082332003204039"><ele>62.0</ele><time>2026-05-05T13:55:32Z</time></trkpt><trkpt lat="45.99687424078604" lon="13.082153047148509"><ele>62.0</ele><time>2026-05-05T13:55:33Z</time></trkpt><trkpt lat="45.996819600272644" lon="13.081979426350838"><ele>62.0</ele><time>2026-05-05T13:55:34Z</time></trkpt><trkpt lat="45.99675889823976" lon="13.081810722753573"><ele>62.0</ele><time>2026-05-05T13:55:35Z</time></trkpt><trkpt lat="45.996691391237185" lon="13.081651036529863"><ele>62.0</ele><time>2026-05-05T13:55:36Z</time></trkpt><trkpt lat="45.9966186261497" lon="13.081506359724841"><ele>62.0</ele><time>2026-05-05T13:55:37Z</time></trkpt><trkpt lat="45.99654140685016" lon="13.08135963511416"><ele>62.0</ele><time>2026-05-05T13:55:38Z</time></trkpt><trkpt lat="45.996468991957144" lon="13.081197982900928"><ele>62.0</ele><time>2026-05-05T13:55:39Z</time></trkpt><trkpt lat="45.99640386344072" lon="13.081024460070374"><ele>62.0</ele><time>2026-05-05T13:55:40Z</time></trkpt><trkpt lat="45.99634071768556" lon="13.080852327050764"><ele>61.75</ele><time>2026-05-05T13:55:41Z</time></trkpt><trkpt lat="45.996281108644816" lon="13.08068280617073"><ele>61.5</ele><time>2026-05-05T13:55:42Z</time></trkpt><trkpt lat="45.996225580479496" lon="13.08052149771761"><ele>61.25</ele><time>2026-05-05T13:55:43Z</time></trkpt><trkpt lat="45.99617348187129" lon="13.080366481865147"><ele>61.0</ele><time>2026-05-05T13:55:44Z</time></trkpt><trkpt lat="45.99612385963254" lon="13.080220678775833"><ele>61.0</ele><time>2026-05-05T13:55:45Z</time></trkpt><trkpt lat="45.99607285481169" lon="13.0800819413315"><ele>60.99999999999999</ele><time>2026-05-05T13:55:46Z</time></trkpt><trkpt lat="45.99602475890266" lon="13.07994730554934"><ele>60.99999999999999</ele><time>2026-05-05T13:55:47Z</time></trkpt><trkpt lat="45.99597428348433" lon="13.079818725693052"><ele>61.0</ele><time>2026-05-05T13:55:48Z</time></trkpt><trkpt lat="45.995931607167755" lon="13.079692177590628"><ele>61.0</ele><time>2026-05-05T13:55:49Z</time></trkpt><trkpt lat="45.99588475460174" lon="13.079565512973797"><ele>60.8</ele><time>2026-05-05T13:55:50Z</time></trkpt><trkpt lat="45.99583632924077" lon="13.07943708216484"><ele>60.599999999999994</ele><time>2026-05-05T13:55:51Z</time></trkpt><trkpt lat="45.995783998717435" lon="13.07930591630371"><ele>60.4</ele><time>2026-05-05T13:55:52Z</time></trkpt><trkpt lat="45.99573277835681" lon="13.079172365100122"><ele>60.2</ele><time>2026-05-05T13:55:53Z</time></trkpt><trkpt lat="45.99568071174993" lon="13.079037462047404"><ele>60.0</ele><time>2026-05-05T13:55:54Z</time></trkpt><trkpt lat="45.99562758933638" lon="13.078898621127145"><ele>60.0</ele><time>2026-05-05T13:55:55Z</time></trkpt><trkpt lat="45.99557413174958" lon="13.07876029940302"><ele>60.0</ele><time>2026-05-05T13:55:56Z</time></trkpt><trkpt lat="45.99552076327827" lon="13.078616726622577"><ele>60.0</ele><time>2026-05-05T13:55:57Z</time></trkpt><trkpt lat="45.99547125101266" lon="13.078470053878151"><ele>60.0</ele><time>2026-05-05T13:55:58Z</time></trkpt><trkpt lat="45.99542847128176" lon="13.078313528629002"><ele>60.0</ele><time>2026-05-05T13:55:59Z</time></trkpt><trkpt lat="45.99538918169786" lon="13.078146570141822"><ele>60.0</ele><time>2026-05-05T13:56:00Z</time></trkpt><trkpt lat="45.995356570357735" lon="13.077969898893022"><ele>60.0</ele><time>2026-05-05T13:56:01Z</time></trkpt><trkpt lat="45.99534464355289" lon="13.077774277316225"><ele>60.0</ele><time>2026-05-05T13:56:02Z</time></trkpt><trkpt lat="45.99531550073904" lon="13.077575768760365"><ele>59.75</ele><time>2026-05-05T13:56:03Z</time></trkpt><trkpt lat="45.99528532837769" lon="13.077370249123256"><ele>59.5</ele><time>2026-05-05T13:56:04Z</time></trkpt><trkpt lat="45.99525384554702" lon="13.07716271403431"><ele>59.25</ele><time>2026-05-05T13:56:05Z</time></trkpt><trkpt lat="45.99522212266489" lon="13.076956694239945"><ele>59.0</ele><time>2026-05-05T13:56:06Z</time></trkpt><trkpt lat="45.99517426861441" lon="13.076761646826895"><ele>59.25</ele><time>2026-05-05T13:56:07Z</time></trkpt><trkpt lat="45.99510226174596" lon="13.0765969576197"><ele>59.5</ele><time>2026-05-05T13:56:08Z</time></trkpt><trkpt lat="45.99503902243503" lon="13.076427966495162"><ele>59.75</ele><time>2026-05-05T13:56:09Z</time></trkpt><trkpt lat="45.99497002860133" lon="13.0762607232651"><ele>60.0</ele><time>2026-05-05T13:56:10Z</time></trkpt><trkpt lat="45.994900756254346" lon="13.076099110541728"><ele>60.25</ele><time>2026-05-05T13:56:11Z</time></trkpt><trkpt lat="45.99482988794512" lon="13.075932611551796"><ele>60.5</ele><time>2026-05-05T13:56:12Z</time></trkpt><trkpt lat="45.994759718603824" lon="13.075762309812268"><ele>60.75</ele><time>2026-05-05T13:56:13Z</time></trkpt><trkpt lat="45.994688048492016" lon="13.0755893097776"><ele>61.0</ele><time>2026-05-05T13:56:14Z</time></trkpt><trkpt lat="45.99461420849725" lon="13.075411660395803"><ele>61.0</ele><time>2026-05-05T13:56:15Z</time></trkpt><trkpt lat="45.994538698172306" lon="13.075229487058126"><ele>61.0</ele><time>2026-05-05T13:56:16Z</time></trkpt><trkpt lat="45.99445998054098" lon="13.075041165934774"><ele>61.0</ele><time>2026-05-05T13:56:17Z</time></trkpt><trkpt lat="45.99437932923614" lon="13.074848400587637"><ele>60.33333333333333</ele><time>2026-05-05T13:56:18Z</time></trkpt><trkpt lat="45.99429617687156" lon="13.074649614649315"><ele>59.66666666666667</ele><time>2026-05-05T13:56:19Z</time></trkpt><trkpt lat="45.994213638808894" lon="13.07444693530658"><ele>59.0</ele><time>2026-05-05T13:56:20Z</time></trkpt><trkpt lat="45.99413168238056" lon="13.074239090073783"><ele>58.66666666666667</ele><time>2026-05-05T13:56:21Z</time></trkpt><trkpt lat="45.99404651926895" lon="13.074033854011507"><ele>58.33333333333333</ele><time>2026-05-05T13:56:22Z</time></trkpt><trkpt lat="45.99396252943275" lon="13.07382936387374"><ele>58.0</ele><time>2026-05-05T13:56:23Z</time></trkpt><trkpt lat="45.99387587762813" lon="13.073619779887109"><ele>58.0</ele><time>2026-05-05T13:56:24Z</time></trkpt><trkpt lat="45.9937898854496" lon="13.073407164924932"><ele>58.0</ele><time>2026-05-05T13:56:25Z</time></trkpt><trkpt lat="45.99369893236916" lon="13.07318773248894"><ele>58.0</ele><time>2026-05-05T13:56:26Z</time></trkpt><trkpt lat="45.99360495153821" lon="13.072958849461125"><ele>58.0</ele><time>2026-05-05T13:56:27Z</time></trkpt><trkpt lat="45.993510451352854" lon="13.072728626809997"><ele>58.0</ele><time>2026-05-05T13:56:28Z</time></trkpt><trkpt lat="45.99341178461234" lon="13.07249950263374"><ele>58.0</ele><time>2026-05-05T13:56:29Z</time></trkpt><trkpt lat="45.99331501049964" lon="13.072267987871452"><ele>58.0</ele><time>2026-05-05T13:56:30Z</time></trkpt><trkpt lat="45.99321754592959" lon="13.072030991169663"><ele>58.0</ele><time>2026-05-05T13:56:31Z</time></trkpt><trkpt lat="45.993120128530485" lon="13.071790715839809"><ele>58.0</ele><time>2026-05-05T13:56:32Z</time></trkpt><trkpt lat="45.99302234398113" lon="13.071548046684882"><ele>58.0</ele><time>2026-05-05T13:56:33Z</time></trkpt><trkpt lat="45.99291923961389" lon="13.071309870385042"><ele>58.0</ele><time>2026-05-05T13:56:34Z</time></trkpt><trkpt lat="45.99281638767965" lon="13.07107987170821"><ele>58.0</ele><time>2026-05-05T13:56:35Z</time></trkpt><trkpt lat="45.99271229748262" lon="13.070845592643524"><ele>58.0</ele><time>2026-05-05T13:56:36Z</time></trkpt><trkpt lat="45.992607556785885" lon="13.070606583003983"><ele>58.0</ele><time>2026-05-05T13:56:37Z</time></trkpt><trkpt lat="45.99250644865124" lon="13.070361138727577"><ele>58.0</ele><time>2026-05-05T13:56:38Z</time></trkpt><trkpt lat="45.99240553165144" lon="13.070115194234182"><ele>57.33333333333333</ele><time>2026-05-05T13:56:39Z</time></trkpt><trkpt lat="45.99230526896395" lon="13.069876978678948"><ele>56.66666666666667</ele><time>2026-05-05T13:56:40Z</time></trkpt><trkpt lat="45.99220518780726" lon="13.069638668792448"><ele>56.0</ele><time>2026-05-05T13:56:41Z</time></trkpt><trkpt lat="45.99210843543057" lon="13.069401998880323"><ele>56.0</ele><time>2026-05-05T13:56:42Z</time></trkpt><trkpt lat="45.99201210094912" lon="13.069169698138968"><ele>56.0</ele><time>2026-05-05T13:56:43Z</time></trkpt><trkpt lat="45.99191592036191" lon="13.068933860318557"><ele>56.0</ele><time>2026-05-05T13:56:44Z</time></trkpt><trkpt lat="45.99182129201883" lon="13.068700974077064"><ele>56.0</ele><time>2026-05-05T13:56:45Z</time></trkpt><trkpt lat="45.991725892536834" lon="13.068470508780761"><ele>56.0</ele><time>2026-05-05T13:56:46Z</time></trkpt><trkpt lat="45.99163024861259" lon="13.06824257075627"><ele>56.0</ele><time>2026-05-05T13:56:47Z</time></trkpt><trkpt lat="45.991533083324235" lon="13.068012761779999"><ele>56.0</ele><time>2026-05-05T13:56:48Z</time></trkpt><trkpt lat="45.99143836550996" lon="13.067779150221297"><ele>56.0</ele><time>2026-05-05T13:56:49Z</time></trkpt><trkpt lat="45.99134310175805" lon="13.067545731630615"><ele>56.0</ele><time>2026-05-05T13:56:50Z</time></trkpt><trkpt lat="45.99124781510456" lon="13.067309284304278"><ele>56.0</ele><time>2026-05-05T13:56:51Z</time></trkpt><trkpt lat="45.99114978058197" lon="13.067076170669178"><ele>56.0</ele><time>2026-05-05T13:56:52Z</time></trkpt><trkpt lat="45.991046498654704" lon="13.066839010172231"><ele>56.0</ele><time>2026-05-05T13:56:53Z</time></trkpt><trkpt lat="45.990945763800404" lon="13.066598868515284"><ele>56.0</ele><time>2026-05-05T13:56:54Z</time></trkpt><trkpt lat="45.9908445763867" lon="13.066356990462971"><ele>56.0</ele><time>2026-05-05T13:56:55Z</time></trkpt><trkpt lat="45.99074144365184" lon="13.066111467171634"><ele>56.0</ele><time>2026-05-05T13:56:56Z</time></trkpt><trkpt lat="45.99063884462875" lon="13.065860865293834"><ele>55.66666666666667</ele><time>2026-05-05T13:56:57Z</time></trkpt><trkpt lat="45.99053019711876" lon="13.065603900884517"><ele>55.33333333333333</ele><time>2026-05-05T13:56:58Z</time></trkpt><trkpt lat="45.99041990928015" lon="13.065340797754542"><ele>55.0</ele><time>2026-05-05T13:56:59Z</time></trkpt><trkpt lat="45.990308576936705" lon="13.065074036750026"><ele>54.666666666666664</ele><time>2026-05-05T13:57:00Z</time></trkpt><trkpt lat="45.99019945096585" lon="13.064803380395505"><ele>54.33333333333333</ele><time>2026-05-05T13:57:01Z</time></trkpt><trkpt lat="45.99008666573208" lon="13.064530883207189"><ele>54.0</ele><time>2026-05-05T13:57:02Z</time></trkpt><trkpt lat="45.989972780351856" lon="13.064258630906462"><ele>54.66666666666667</ele><time>2026-05-05T13:57:03Z</time></trkpt><trkpt lat="45.98985906303065" lon="13.0639859037663"><ele>55.333333333333336</ele><time>2026-05-05T13:57:04Z</time></trkpt><trkpt lat="45.98974619269473" lon="13.063710206514106"><ele>56.0</ele><time>2026-05-05T13:57:05Z</time></trkpt><trkpt lat="45.9896320688673" lon="13.063432481673"><ele>55.5</ele><time>2026-05-05T13:57:06Z</time></trkpt><trkpt lat="45.98951800297014" lon="13.063153467126867"><ele>55.0</ele><time>2026-05-05T13:57:07Z</time></trkpt><trkpt lat="45.9893925724195" lon="13.062864650875111"><ele>55.0</ele><time>2026-05-05T13:57:08Z</time></trkpt><trkpt lat="45.989256264383194" lon="13.062563096846366"><ele>55.0</ele><time>2026-05-05T13:57:09Z</time></trkpt><trkpt lat="45.98911851575252" lon="13.062252203424459"><ele>55.0</ele><time>2026-05-05T13:57:10Z</time></trkpt><trkpt lat="45.98899805453413" lon="13.061900088985913"><ele>55.0</ele><time>2026-05-05T13:57:11Z</time></trkpt><trkpt lat="45.98885262926109" lon="13.061553457251872"><ele>54.5</ele><time>2026-05-05T13:57:12Z</time></trkpt><trkpt lat="45.988704202229776" lon="13.06119967093624"><ele>54.0</ele><time>2026-05-05T13:57:13Z</time></trkpt><trkpt lat="45.98853800528032" lon="13.060845003813911"><ele>53.5</ele><time>2026-05-05T13:57:14Z</time></trkpt><trkpt lat="45.98837552328469" lon="13.060456961324991"><ele>53.0</ele><time>2026-05-05T13:57:15Z</time></trkpt><trkpt lat="45.9882179372348" lon="13.060030233272052"><ele>54.0</ele><time>2026-05-05T13:57:16Z</time></trkpt><trkpt lat="45.988039955398364" lon="13.059600644490711"><ele>55.0</ele><time>2026-05-05T13:57:17Z</time></trkpt><trkpt lat="45.98785924292907" lon="13.059164464829037"><ele>54.5</ele><time>2026-05-05T13:57:18Z</time></trkpt><trkpt lat="45.98768472273053" lon="13.058743231461213"><ele>54.0</ele><time>2026-05-05T13:57:19Z</time></trkpt><trkpt lat="45.987512461835294" lon="13.058370048629492"><ele>54.0</ele><time>2026-05-05T13:57:20Z</time></trkpt><trkpt lat="45.98736805748806" lon="13.058005781577009"><ele>54.0</ele><time>2026-05-05T13:57:21Z</time></trkpt><trkpt lat="45.987226101581506" lon="13.057654010258615"><ele>54.0</ele><time>2026-05-05T13:57:22Z</time></trkpt><trkpt lat="45.98708460945602" lon="13.057310415786839"><ele>54.0</ele><time>2026-05-05T13:57:23Z</time></trkpt><trkpt lat="45.9869444093222" lon="13.05697483744207"><ele>54.0</ele><time>2026-05-05T13:57:24Z</time></trkpt><trkpt lat="45.98680720154895" lon="13.056643467813444"><ele>54.0</ele><time>2026-05-05T13:57:25Z</time></trkpt><trkpt lat="45.98666745060821" lon="13.05631179287913"><ele>54.5</ele><time>2026-05-05T13:57:26Z</time></trkpt><trkpt lat="45.98652840457863" lon="13.055955365721402"><ele>55.0</ele><time>2026-05-05T13:57:27Z</time></trkpt><trkpt lat="45.98637799072376" lon="13.055594869943183"><ele>54.0</ele><time>2026-05-05T13:57:28Z</time></trkpt><trkpt lat="45.98622274338416" lon="13.055222789956877"><ele>53.0</ele><time>2026-05-05T13:57:29Z</time></trkpt><trkpt lat="45.98606833749382" lon="13.05485272652309"><ele>52.5</ele><time>2026-05-05T13:57:30Z</time></trkpt><trkpt lat="45.985908189001854" lon="13.054492966914506"><ele>52.0</ele><time>2026-05-05T13:57:31Z</time></trkpt><trkpt lat="45.9857661499431" lon="13.054125451513912"><ele>52.5</ele><time>2026-05-05T13:57:32Z</time></trkpt><trkpt lat="45.98562046694159" lon="13.053762989267792"><ele>53.0</ele><time>2026-05-05T13:57:33Z</time></trkpt><trkpt lat="45.985472739437995" lon="13.053406487232335"><ele>53.0</ele><time>2026-05-05T13:57:34Z</time></trkpt><trkpt lat="45.98532679455254" lon="13.053060837411342"><ele>53.0</ele><time>2026-05-05T13:57:35Z</time></trkpt><trkpt lat="45.98518235306727" lon="13.05271811899941"><ele>53.0</ele><time>2026-05-05T13:57:36Z</time></trkpt><trkpt lat="45.98504250813709" lon="13.052378246067894"><ele>53.0</ele><time>2026-05-05T13:57:37Z</time></trkpt><trkpt lat="45.98490355007572" lon="13.05204329591281"><ele>53.0</ele><time>2026-05-05T13:57:38Z</time></trkpt><trkpt lat="45.984765255530064" lon="13.05171204069754"><ele>53.0</ele><time>2026-05-05T13:57:39Z</time></trkpt><trkpt lat="45.984628304569135" lon="13.051384742014825"><ele>52.5</ele><time>2026-05-05T13:57:40Z</time></trkpt><trkpt lat="45.98449502716341" lon="13.051058632797059"><ele>52.0</ele><time>2026-05-05T13:57:41Z</time></trkpt><trkpt lat="45.98436209212609" lon="13.05073759795564"><ele>52.5</ele><time>2026-05-05T13:57:42Z</time></trkpt><trkpt lat="45.98423121742315" lon="13.050425245205952"><ele>53.0</ele><time>2026-05-05T13:57:43Z</time></trkpt><trkpt lat="45.98409820069929" lon="13.050112096395738"><ele>52.5</ele><time>2026-05-05T13:57:44Z</time></trkpt><trkpt lat="45.98396806787247" lon="13.049797656230044"><ele>52.0</ele><time>2026-05-05T13:57:45Z</time></trkpt><trkpt lat="45.98383738915614" lon="13.04948569304005"><ele>52.0</ele><time>2026-05-05T13:57:46Z</time></trkpt><trkpt lat="45.98370901086966" lon="13.04917746890459"><ele>52.0</ele><time>2026-05-05T13:57:47Z</time></trkpt><trkpt lat="45.98358324591765" lon="13.048872962324491"><ele>52.0</ele><time>2026-05-05T13:57:48Z</time></trkpt><trkpt lat="45.983456595545256" lon="13.04857371601122"><ele>52.0</ele><time>2026-05-05T13:57:49Z</time></trkpt><trkpt lat="45.98333126223729" lon="13.048276415424972"><ele>52.0</ele><time>2026-05-05T13:57:50Z</time></trkpt><trkpt lat="45.98320985401545" lon="13.047980150068984"><ele>52.0</ele><time>2026-05-05T13:57:51Z</time></trkpt><trkpt lat="45.983088932741026" lon="13.047685972143773"><ele>52.0</ele><time>2026-05-05T13:57:52Z</time></trkpt><trkpt lat="45.98296692129094" lon="13.047394150087447"><ele>52.0</ele><time>2026-05-05T13:57:53Z</time></trkpt><trkpt lat="45.98284495780723" lon="13.047110983501083"><ele>52.0</ele><time>2026-05-05T13:57:54Z</time></trkpt><trkpt lat="45.982728091772096" lon="13.046833725342566"><ele>52.0</ele><time>2026-05-05T13:57:55Z</time></trkpt><trkpt lat="45.98261293121308" lon="13.046556368092547"><ele>52.33333333333333</ele><time>2026-05-05T13:57:56Z</time></trkpt><trkpt lat="45.98249934756757" lon="13.046283622523944"><ele>52.66666666666667</ele><time>2026-05-05T13:57:57Z</time></trkpt><trkpt lat="45.98238574983912" lon="13.046009832251665"><ele>53.0</ele><time>2026-05-05T13:57:58Z</time></trkpt><trkpt lat="45.98227232196148" lon="13.045739884503435"><ele>53.0</ele><time>2026-05-05T13:57:59Z</time></trkpt><trkpt lat="45.98216091567166" lon="13.045473557016004"><ele>53.0</ele><time>2026-05-05T13:58:00Z</time></trkpt><trkpt lat="45.98204874883517" lon="13.045206014612242"><ele>53.0</ele><time>2026-05-05T13:58:01Z</time></trkpt><trkpt lat="45.981936139881704" lon="13.0449403885485"><ele>52.66666666666667</ele><time>2026-05-05T13:58:02Z</time></trkpt><trkpt lat="45.98182475775336" lon="13.044672700983575"><ele>52.33333333333333</ele><time>2026-05-05T13:58:03Z</time></trkpt><trkpt lat="45.98171459559799" lon="13.044404085294717"><ele>52.0</ele><time>2026-05-05T13:58:04Z</time></trkpt><trkpt lat="45.98160678602656" lon="13.044136078016491"><ele>52.33333333333333</ele><time>2026-05-05T13:58:05Z</time></trkpt><trkpt lat="45.98149673254813" lon="13.043864129022316"><ele>52.66666666666667</ele><time>2026-05-05T13:58:06Z</time></trkpt><trkpt lat="45.98138346306279" lon="13.043586235249556"><ele>53.0</ele><time>2026-05-05T13:58:07Z</time></trkpt><trkpt lat="45.9812636144125" lon="13.043296082272223"><ele>53.0</ele><time>2026-05-05T13:58:08Z</time></trkpt><trkpt lat="45.98114050739451" lon="13.043000343323836"><ele>53.0</ele><time>2026-05-05T13:58:09Z</time></trkpt><trkpt lat="45.98100957399265" lon="13.042703185932382"><ele>52.5</ele><time>2026-05-05T13:58:10Z</time></trkpt><trkpt lat="45.98087521956577" lon="13.04239928549851"><ele>52.0</ele><time>2026-05-05T13:58:11Z</time></trkpt><trkpt lat="45.98074053363275" lon="13.042089973201197"><ele>51.5</ele><time>2026-05-05T13:58:12Z</time></trkpt><trkpt lat="45.98060513448905" lon="13.041776235469861"><ele>51.0</ele><time>2026-05-05T13:58:13Z</time></trkpt><trkpt lat="45.98047049590947" lon="13.041457690235902"><ele>51.0</ele><time>2026-05-05T13:58:14Z</time></trkpt><trkpt lat="45.980339257949076" lon="13.041136026042418"><ele>51.0</ele><time>2026-05-05T13:58:15Z</time></trkpt><trkpt lat="45.980211096376465" lon="13.04081275547454"><ele>51.0</ele><time>2026-05-05T13:58:16Z</time></trkpt><trkpt lat="45.98008387743783" lon="13.04049101408119"><ele>51.0</ele><time>2026-05-05T13:58:17Z</time></trkpt><trkpt lat="45.979955432815196" lon="13.040172115341583"><ele>51.0</ele><time>2026-05-05T13:58:18Z</time></trkpt><trkpt lat="45.97982779562038" lon="13.039854535443558"><ele>51.0</ele><time>2026-05-05T13:58:19Z</time></trkpt><trkpt lat="45.97969865450578" lon="13.039541024239012"><ele>51.0</ele><time>2026-05-05T13:58:20Z</time></trkpt><trkpt lat="45.97957117313509" lon="13.039230124201987"><ele>51.0</ele><time>2026-05-05T13:58:21Z</time></trkpt><trkpt lat="45.9794433493098" lon="13.038927254145397"><ele>50.0</ele><time>2026-05-05T13:58:22Z</time></trkpt><trkpt lat="45.97931968520567" lon="13.038625268151707"><ele>49.0</ele><time>2026-05-05T13:58:23Z</time></trkpt><trkpt lat="45.979197232534084" lon="13.038327184223158"><ele>49.5</ele><time>2026-05-05T13:58:24Z</time></trkpt><trkpt lat="45.97908325076623" lon="13.038031674750506"><ele>50.0</ele><time>2026-05-05T13:58:25Z</time></trkpt><trkpt lat="45.978962839964176" lon="13.03774590957552"><ele>50.5</ele><time>2026-05-05T13:58:26Z</time></trkpt><trkpt lat="45.978843079389286" lon="13.037458573275668"><ele>51.0</ele><time>2026-05-05T13:58:27Z</time></trkpt><trkpt lat="45.97872405419354" lon="13.037174123671528"><ele>51.0</ele><time>2026-05-05T13:58:28Z</time></trkpt><trkpt lat="45.978604745152786" lon="13.036888180394751"><ele>51.0</ele><time>2026-05-05T13:58:29Z</time></trkpt><trkpt lat="45.97848810190194" lon="13.036602227340044"><ele>51.0</ele><time>2026-05-05T13:58:30Z</time></trkpt><trkpt lat="45.978369933831914" lon="13.036325986454838"><ele>51.0</ele><time>2026-05-05T13:58:31Z</time></trkpt><trkpt lat="45.97825806777788" lon="13.036063133115857"><ele>51.0</ele><time>2026-05-05T13:58:32Z</time></trkpt><trkpt lat="45.97815085726269" lon="13.035806003124542"><ele>51.66666666666667</ele><time>2026-05-05T13:58:33Z</time></trkpt><trkpt lat="45.97804514255157" lon="13.03555079920436"><ele>52.333333333333336</ele><time>2026-05-05T13:58:34Z</time></trkpt><trkpt lat="45.97794012257167" lon="13.035299952465813"><ele>53.0</ele><time>2026-05-05T13:58:35Z</time></trkpt><trkpt lat="45.977836230615104" lon="13.035052838031731"><ele>52.66666666666667</ele><time>2026-05-05T13:58:36Z</time></trkpt><trkpt lat="45.9777338663496" lon="13.03480948284787"><ele>52.33333333333333</ele><time>2026-05-05T13:58:37Z</time></trkpt><trkpt lat="45.97763309647098" lon="13.034569275078894"><ele>52.0</ele><time>2026-05-05T13:58:38Z</time></trkpt><trkpt lat="45.97753357918561" lon="13.034330195532743"><ele>50.33333333333333</ele><time>2026-05-05T13:58:39Z</time></trkpt><trkpt lat="45.977432546767844" lon="13.034091698949952"><ele>48.666666666666664</ele><time>2026-05-05T13:58:40Z</time></trkpt><trkpt lat="45.97733262117896" lon="13.033851564317251"><ele>47.0</ele><time>2026-05-05T13:58:41Z</time></trkpt><trkpt lat="45.97723209398143" lon="13.033613550406105"><ele>47.0</ele><time>2026-05-05T13:58:42Z</time></trkpt><trkpt lat="45.977134021762915" lon="13.033375538901138"><ele>47.0</ele><time>2026-05-05T13:58:43Z</time></trkpt><trkpt lat="45.97702886621068" lon="13.033135959533434"><ele>47.0</ele><time>2026-05-05T13:58:44Z</time></trkpt><trkpt lat="45.976930139563905" lon="13.032890161377319"><ele>47.33333333333333</ele><time>2026-05-05T13:58:45Z</time></trkpt><trkpt lat="45.97682812336257" lon="13.032637008713202"><ele>47.666666666666664</ele><time>2026-05-05T13:58:46Z</time></trkpt><trkpt lat="45.97672238086318" lon="13.032378386225485"><ele>48.0</ele><time>2026-05-05T13:58:47Z</time></trkpt><trkpt lat="45.976615308917864" lon="13.032116763051048"><ele>48.33333333333333</ele><time>2026-05-05T13:58:48Z</time></trkpt><trkpt lat="45.97650425451989" lon="13.031850041925878"><ele>48.666666666666664</ele><time>2026-05-05T13:58:49Z</time></trkpt><trkpt lat="45.97638972919053" lon="13.031576321271887"><ele>49.0</ele><time>2026-05-05T13:58:50Z</time></trkpt><trkpt lat="45.97627275845897" lon="13.031298863143704"><ele>49.0</ele><time>2026-05-05T13:58:51Z</time></trkpt><trkpt lat="45.97615642450201" lon="13.031018582988423"><ele>49.0</ele><time>2026-05-05T13:58:52Z</time></trkpt><trkpt lat="45.976038089618605" lon="13.030730873864615"><ele>49.0</ele><time>2026-05-05T13:58:53Z</time></trkpt><trkpt lat="45.97592062632572" lon="13.030440749548163"><ele>49.0</ele><time>2026-05-05T13:58:54Z</time></trkpt><trkpt lat="45.97579871713937" lon="13.03014994261815"><ele>49.0</ele><time>2026-05-05T13:58:55Z</time></trkpt><trkpt lat="45.97567372339553" lon="13.02985220861841"><ele>49.0</ele><time>2026-05-05T13:58:56Z</time></trkpt><trkpt lat="45.97554997252826" lon="13.029558187674043"><ele>49.0</ele><time>2026-05-05T13:58:57Z</time></trkpt><trkpt lat="45.975424470616325" lon="13.029258853372477"><ele>49.0</ele><time>2026-05-05T13:58:58Z</time></trkpt><trkpt lat="45.97529743134872" lon="13.028957239351103"><ele>49.5</ele><time>2026-05-05T13:58:59Z</time></trkpt><trkpt lat="45.97517343690763" lon="13.028655341289902"><ele>50.0</ele><time>2026-05-05T13:59:00Z</time></trkpt><trkpt lat="45.97504787855818" lon="13.028356399016536"><ele>49.0</ele><time>2026-05-05T13:59:01Z</time></trkpt><trkpt lat="45.97492401998004" lon="13.028056527161688"><ele>48.0</ele><time>2026-05-05T13:59:02Z</time></trkpt><trkpt lat="45.974798393097736" lon="13.027757382859235"><ele>48.5</ele><time>2026-05-05T13:59:03Z</time></trkpt><trkpt lat="45.97467539363066" lon="13.027460052888145"><ele>49.0</ele><time>2026-05-05T13:59:04Z</time></trkpt><trkpt lat="45.97455242267456" lon="13.027161712865377"><ele>49.0</ele><time>2026-05-05T13:59:05Z</time></trkpt><trkpt lat="45.974429468896965" lon="13.02686313118443"><ele>49.0</ele><time>2026-05-05T13:59:06Z</time></trkpt><trkpt lat="45.97430690189882" lon="13.026565202742738"><ele>49.0</ele><time>2026-05-05T13:59:07Z</time></trkpt><trkpt lat="45.97418516512647" lon="13.02626814012682"><ele>49.0</ele><time>2026-05-05T13:59:08Z</time></trkpt><trkpt lat="45.974063171909215" lon="13.025971516210111"><ele>49.0</ele><time>2026-05-05T13:59:09Z</time></trkpt><trkpt lat="45.9739410438654" lon="13.025675263223118"><ele>49.0</ele><time>2026-05-05T13:59:10Z</time></trkpt><trkpt lat="45.97381930894004" lon="13.025378914232551"><ele>49.0</ele><time>2026-05-05T13:59:11Z</time></trkpt><trkpt lat="45.97369828661651" lon="13.02508303514152"><ele>49.0</ele><time>2026-05-05T13:59:12Z</time></trkpt><trkpt lat="45.97357719999424" lon="13.024786904060097"><ele>48.0</ele><time>2026-05-05T13:59:13Z</time></trkpt><trkpt lat="45.973454114985934" lon="13.024493799309152"><ele>47.0</ele><time>2026-05-05T13:59:14Z</time></trkpt><trkpt lat="45.973330851362554" lon="13.02419858106716"><ele>46.0</ele><time>2026-05-05T13:59:15Z</time></trkpt><trkpt lat="45.97320980440118" lon="13.023901637858291"><ele>45.0</ele><time>2026-05-05T13:59:16Z</time></trkpt><trkpt lat="45.973089558442496" lon="13.023604804809342"><ele>45.5</ele><time>2026-05-05T13:59:17Z</time></trkpt><trkpt lat="45.97296883011358" lon="13.02330483505527"><ele>46.0</ele><time>2026-05-05T13:59:18Z</time></trkpt><trkpt lat="45.972847017244554" lon="13.023008847157886"><ele>46.0</ele><time>2026-05-05T13:59:19Z</time></trkpt><trkpt lat="45.97272251220387" lon="13.022713211974505"><ele>46.0</ele><time>2026-05-05T13:59:20Z</time></trkpt><trkpt lat="45.97259829557176" lon="13.022418155188127"><ele>46.5</ele><time>2026-05-05T13:59:21Z</time></trkpt><trkpt lat="45.9724734176369" lon="13.02212389148159"><ele>47.0</ele><time>2026-05-05T13:59:22Z</time></trkpt><trkpt lat="45.97234594931501" lon="13.021829186576024"><ele>46.5</ele><time>2026-05-05T13:59:23Z</time></trkpt><trkpt lat="45.97222054571591" lon="13.021532881196821"><ele>46.0</ele><time>2026-05-05T13:59:24Z</time></trkpt><trkpt lat="45.97209667394406" lon="13.021235552656686"><ele>46.0</ele><time>2026-05-05T13:59:25Z</time></trkpt><trkpt lat="45.971975981590525" lon="13.020944881518606"><ele>46.0</ele><time>2026-05-05T13:59:26Z</time></trkpt><trkpt lat="45.971861014720986" lon="13.020667417711886"><ele>46.0</ele><time>2026-05-05T13:59:27Z</time></trkpt><trkpt lat="45.97175231789551" lon="13.020405163730846"><ele>46.0</ele><time>2026-05-05T13:59:28Z</time></trkpt><trkpt lat="45.971647404186676" lon="13.020156493390472"><ele>46.0</ele><time>2026-05-05T13:59:29Z</time></trkpt><trkpt lat="45.97154493791483" lon="13.019921614149384"><ele>46.0</ele><time>2026-05-05T13:59:30Z</time></trkpt><trkpt lat="45.9714520317322" lon="13.019702620125955"><ele>46.0</ele><time>2026-05-05T13:59:31Z</time></trkpt><trkpt lat="45.97136566768554" lon="13.019498193790723"><ele>46.0</ele><time>2026-05-05T13:59:32Z</time></trkpt><trkpt lat="45.97128576137436" lon="13.019310630001096"><ele>46.0</ele><time>2026-05-05T13:59:33Z</time></trkpt><trkpt lat="45.97121189034537" lon="13.019133515647274"><ele>46.0</ele><time>2026-05-05T13:59:34Z</time></trkpt><trkpt lat="45.97113872163684" lon="13.018961394036833"><ele>46.0</ele><time>2026-05-05T13:59:35Z</time></trkpt><trkpt lat="45.971069089732836" lon="13.018791461584346"><ele>46.0</ele><time>2026-05-05T13:59:36Z</time></trkpt><trkpt lat="45.97100328713646" lon="13.018627145722563"><ele>46.0</ele><time>2026-05-05T13:59:37Z</time></trkpt><trkpt lat="45.97093930125839" lon="13.018466240487712"><ele>46.0</ele><time>2026-05-05T13:59:38Z</time></trkpt><trkpt lat="45.97087551825681" lon="13.018308019841632"><ele>46.0</ele><time>2026-05-05T13:59:39Z</time></trkpt><trkpt lat="45.97081695708492" lon="13.018158864535556"><ele>46.0</ele><time>2026-05-05T13:59:40Z</time></trkpt><trkpt lat="45.97076194332663" lon="13.01801403935403"><ele>46.0</ele><time>2026-05-05T13:59:41Z</time></trkpt><trkpt lat="45.97071125662742" lon="13.017869805979258"><ele>46.0</ele><time>2026-05-05T13:59:42Z</time></trkpt><trkpt lat="45.97066636245712" lon="13.017720256017714"><ele>46.0</ele><time>2026-05-05T13:59:43Z</time></trkpt><trkpt lat="45.970629970194324" lon="13.017569198592962"><ele>46.0</ele><time>2026-05-05T13:59:44Z</time></trkpt><trkpt lat="45.97059794192223" lon="13.017415097556324"><ele>46.0</ele><time>2026-05-05T13:59:45Z</time></trkpt><trkpt lat="45.9705713952653" lon="13.017258822545143"><ele>46.0</ele><time>2026-05-05T13:59:46Z</time></trkpt><trkpt lat="45.97054516145347" lon="13.017099880665276"><ele>46.0</ele><time>2026-05-05T13:59:47Z</time></trkpt><trkpt lat="45.97051650547192" lon="13.016932503121486"><ele>46.0</ele><time>2026-05-05T13:59:48Z</time></trkpt><trkpt lat="45.97047941877153" lon="13.016770544016195"><ele>46.0</ele><time>2026-05-05T13:59:49Z</time></trkpt><trkpt lat="45.97042469954695" lon="13.016620362159392"><ele>45.75</ele><time>2026-05-05T13:59:50Z</time></trkpt><trkpt lat="45.97034965863553" lon="13.01648629113789"><ele>45.5</ele><time>2026-05-05T13:59:51Z</time></trkpt><trkpt lat="45.97026007948096" lon="13.016363720828119"><ele>45.25</ele><time>2026-05-05T13:59:52Z</time></trkpt><trkpt lat="45.97015883278264" lon="13.016246780836193"><ele>45.0</ele><time>2026-05-05T13:59:53Z</time></trkpt><trkpt lat="45.97005275824676" lon="13.016129854650853"><ele>45.0</ele><time>2026-05-05T13:59:54Z</time></trkpt><trkpt lat="45.96994934681304" lon="13.015998990159389"><ele>45.0</ele><time>2026-05-05T13:59:55Z</time></trkpt><trkpt lat="45.969852444813625" lon="13.015846522683331"><ele>45.0</ele><time>2026-05-05T13:59:56Z</time></trkpt><trkpt lat="45.96976747380202" lon="13.015668940428236"><ele>45.0</ele><time>2026-05-05T13:59:57Z</time></trkpt><trkpt lat="45.96968446412731" lon="13.015483900844396"><ele>45.0</ele><time>2026-05-05T13:59:58Z</time></trkpt><trkpt lat="45.969603160749436" lon="13.015280162211804"><ele>45.0</ele><time>2026-05-05T13:59:59Z</time></trkpt><trkpt lat="45.96952023243229" lon="13.01507420915087"><ele>45.0</ele><time>2026-05-05T14:00:00Z</time></trkpt><trkpt lat="45.96943764349664" lon="13.01486652715494"><ele>45.0</ele><time>2026-05-05T14:00:01Z</time></trkpt><trkpt lat="45.96934896860376" lon="13.014655490955315"><ele>45.0</ele><time>2026-05-05T14:00:02Z</time></trkpt><trkpt lat="45.96925850781234" lon="13.014444368359475"><ele>45.0</ele><time>2026-05-05T14:00:03Z</time></trkpt><trkpt lat="45.969158633199946" lon="13.014229768947763"><ele>45.333333333333336</ele><time>2026-05-05T14:00:04Z</time></trkpt><trkpt lat="45.96905274425224" lon="13.013998812708786"><ele>45.66666666666667</ele><time>2026-05-05T14:00:05Z</time></trkpt><trkpt lat="45.968950933989284" lon="13.013752147428423"><ele>46.0</ele><time>2026-05-05T14:00:06Z</time></trkpt><trkpt lat="45.96885928390967" lon="13.013501747335633"><ele>46.0</ele><time>2026-05-05T14:00:07Z</time></trkpt><trkpt lat="45.96878569982539" lon="13.013266638226549"><ele>46.0</ele><time>2026-05-05T14:00:08Z</time></trkpt><trkpt lat="45.968724441622555" lon="13.013043945795738"><ele>46.0</ele><time>2026-05-05T14:00:09Z</time></trkpt><trkpt lat="45.968666696789384" lon="13.012819599741926"><ele>46.0</ele><time>2026-05-05T14:00:10Z</time></trkpt><trkpt lat="45.968607995890615" lon="13.012579848574703"><ele>46.0</ele><time>2026-05-05T14:00:11Z</time></trkpt><trkpt lat="45.96855439373194" lon="13.01232816597705"><ele>46.0</ele><time>2026-05-05T14:00:12Z</time></trkpt><trkpt lat="45.96850383059285" lon="13.012056282366453"><ele>46.0</ele><time>2026-05-05T14:00:13Z</time></trkpt><trkpt lat="45.968464240604625" lon="13.011771783931545"><ele>46.0</ele><time>2026-05-05T14:00:14Z</time></trkpt><trkpt lat="45.96843508667916" lon="13.011478481145854"><ele>46.0</ele><time>2026-05-05T14:00:15Z</time></trkpt><trkpt lat="45.96841952069047" lon="13.01117854797283"><ele>45.66666666666667</ele><time>2026-05-05T14:00:16Z</time></trkpt><trkpt lat="45.96841074419536" lon="13.010876887807148"><ele>45.333333333333336</ele><time>2026-05-05T14:00:17Z</time></trkpt><trkpt lat="45.968410559721896" lon="13.01058580021674"><ele>45.0</ele><time>2026-05-05T14:00:18Z</time></trkpt><trkpt lat="45.96841787349635" lon="13.010303600197702"><ele>44.666666666666664</ele><time>2026-05-05T14:00:19Z</time></trkpt><trkpt lat="45.96843221267646" lon="13.010032482104506"><ele>44.33333333333333</ele><time>2026-05-05T14:00:20Z</time></trkpt><trkpt lat="45.96845357989626" lon="13.00977423228091"><ele>44.0</ele><time>2026-05-05T14:00:21Z</time></trkpt><trkpt lat="45.96848268843371" lon="13.00952673444096"><ele>44.0</ele><time>2026-05-05T14:00:22Z</time></trkpt><trkpt lat="45.9685144533116" lon="13.009295544398379"><ele>44.0</ele><time>2026-05-05T14:00:23Z</time></trkpt><trkpt lat="45.96854914032704" lon="13.009076580947319"><ele>44.0</ele><time>2026-05-05T14:00:24Z</time></trkpt><trkpt lat="45.96858599282614" lon="13.008870159947524"><ele>44.25</ele><time>2026-05-05T14:00:25Z</time></trkpt><trkpt lat="45.96862175831782" lon="13.008672873121832"><ele>44.5</ele><time>2026-05-05T14:00:26Z</time></trkpt><trkpt lat="45.96866080040734" lon="13.00847632337125"><ele>44.75</ele><time>2026-05-05T14:00:27Z</time></trkpt><trkpt lat="45.96869858192391" lon="13.008279522567976"><ele>45.0</ele><time>2026-05-05T14:00:28Z</time></trkpt><trkpt lat="45.96873840230927" lon="13.008086439467439"><ele>45.0</ele><time>2026-05-05T14:00:29Z</time></trkpt><trkpt lat="45.96877724701785" lon="13.00789319857541"><ele>45.0</ele><time>2026-05-05T14:00:30Z</time></trkpt><trkpt lat="45.96881627868682" lon="13.00770143194467"><ele>45.0</ele><time>2026-05-05T14:00:31Z</time></trkpt><trkpt lat="45.968855387686325" lon="13.007511500568265"><ele>45.0</ele><time>2026-05-05T14:00:32Z</time></trkpt><trkpt lat="45.96889680572529" lon="13.007317074998648"><ele>45.0</ele><time>2026-05-05T14:00:33Z</time></trkpt><trkpt lat="45.968940243743056" lon="13.007117932292282"><ele>45.0</ele><time>2026-05-05T14:00:34Z</time></trkpt><trkpt lat="45.96898188504588" lon="13.006911345187723"><ele>45.0</ele><time>2026-05-05T14:00:35Z</time></trkpt><trkpt lat="45.96902519483532" lon="13.006700414769394"><ele>45.0</ele><time>2026-05-05T14:00:36Z</time></trkpt><trkpt lat="45.969070266114656" lon="13.006484757718054"><ele>44.666666666666664</ele><time>2026-05-05T14:00:37Z</time></trkpt><trkpt lat="45.96911549313717" lon="13.006264751049839"><ele>44.33333333333333</ele><time>2026-05-05T14:00:38Z</time></trkpt><trkpt lat="45.969158509658286" lon="13.006042619851607"><ele>44.0</ele><time>2026-05-05T14:00:39Z</time></trkpt><trkpt lat="45.96920154324608" lon="13.005828940761782"><ele>44.0</ele><time>2026-05-05T14:00:40Z</time></trkpt><trkpt lat="45.969244821557325" lon="13.00561709608863"><ele>44.0</ele><time>2026-05-05T14:00:41Z</time></trkpt><trkpt lat="45.96928828328124" lon="13.005404359722858"><ele>44.0</ele><time>2026-05-05T14:00:42Z</time></trkpt><trkpt lat="45.96933264942608" lon="13.005185533558347"><ele>44.0</ele><time>2026-05-05T14:00:43Z</time></trkpt><trkpt lat="45.9693787788283" lon="13.004962846159259"><ele>44.0</ele><time>2026-05-05T14:00:44Z</time></trkpt><trkpt lat="45.96942593091838" lon="13.004734409817008"><ele>44.0</ele><time>2026-05-05T14:00:45Z</time></trkpt><trkpt lat="45.96947342702585" lon="13.004505063929818"><ele>44.0</ele><time>2026-05-05T14:00:46Z</time></trkpt><trkpt lat="45.969520024021364" lon="13.004276138021895"><ele>44.0</ele><time>2026-05-05T14:00:47Z</time></trkpt><trkpt lat="45.969566651326325" lon="13.004047353584538"><ele>44.0</ele><time>2026-05-05T14:00:48Z</time></trkpt><trkpt lat="45.9696144324974" lon="13.003819322981462"><ele>44.0</ele><time>2026-05-05T14:00:49Z</time></trkpt><trkpt lat="45.96966297860527" lon="13.003591930002806"><ele>44.0</ele><time>2026-05-05T14:00:50Z</time></trkpt><trkpt lat="45.969709054226854" lon="13.003357840255799"><ele>44.0</ele><time>2026-05-05T14:00:51Z</time></trkpt><trkpt lat="45.96975565912031" lon="13.003122630418076"><ele>44.0</ele><time>2026-05-05T14:00:52Z</time></trkpt><trkpt lat="45.96980421271807" lon="13.002880795749418"><ele>44.0</ele><time>2026-05-05T14:00:53Z</time></trkpt><trkpt lat="45.9698537482446" lon="13.002633994531685"><ele>44.0</ele><time>2026-05-05T14:00:54Z</time></trkpt><trkpt lat="45.969903825371965" lon="13.002383536413134"><ele>44.0</ele><time>2026-05-05T14:00:55Z</time></trkpt><trkpt lat="45.96995562306178" lon="13.002131015666263"><ele>44.0</ele><time>2026-05-05T14:00:56Z</time></trkpt><trkpt lat="45.970009365562206" lon="13.001878100709407"><ele>44.0</ele><time>2026-05-05T14:00:57Z</time></trkpt><trkpt lat="45.97006104957328" lon="13.001627552014266"><ele>44.666666666666664</ele><time>2026-05-05T14:00:58Z</time></trkpt><trkpt lat="45.97011259761831" lon="13.001378646346913"><ele>45.333333333333336</ele><time>2026-05-05T14:00:59Z</time></trkpt><trkpt lat="45.97016323000793" lon="13.00113055546875"><ele>46.0</ele><time>2026-05-05T14:01:00Z</time></trkpt><trkpt lat="45.970215076428765" lon="13.000881474156989"><ele>45.66666666666667</ele><time>2026-05-05T14:01:01Z</time></trkpt><trkpt lat="45.97026402453206" lon="13.000635752635215"><ele>45.333333333333336</ele><time>2026-05-05T14:01:02Z</time></trkpt><trkpt lat="45.97031282152613" lon="13.000391476087996"><ele>45.0</ele><time>2026-05-05T14:01:03Z</time></trkpt><trkpt lat="45.970361980785576" lon="13.000146723083219"><ele>45.0</ele><time>2026-05-05T14:01:04Z</time></trkpt><trkpt lat="45.97041114410277" lon="12.999899441767456"><ele>45.0</ele><time>2026-05-05T14:01:05Z</time></trkpt><trkpt lat="45.97046125447545" lon="12.999650701740599"><ele>45.0</ele><time>2026-05-05T14:01:06Z</time></trkpt><trkpt lat="45.97051086331374" lon="12.999403329396527"><ele>45.0</ele><time>2026-05-05T14:01:07Z</time></trkpt><trkpt lat="45.97055795680588" lon="12.999155411813897"><ele>45.0</ele><time>2026-05-05T14:01:08Z</time></trkpt><trkpt lat="45.97060435581728" lon="12.998907219988798"><ele>45.0</ele><time>2026-05-05T14:01:09Z</time></trkpt><trkpt lat="45.97065406783333" lon="12.998659420581744"><ele>45.0</ele><time>2026-05-05T14:01:10Z</time></trkpt><trkpt lat="45.9707049442319" lon="12.998410393562239"><ele>45.0</ele><time>2026-05-05T14:01:11Z</time></trkpt><trkpt lat="45.97075557818823" lon="12.998159299773599"><ele>45.0</ele><time>2026-05-05T14:01:12Z</time></trkpt><trkpt lat="45.970805922224955" lon="12.99790554427864"><ele>45.0</ele><time>2026-05-05T14:01:13Z</time></trkpt><trkpt lat="45.97085827386745" lon="12.997651709182302"><ele>45.0</ele><time>2026-05-05T14:01:14Z</time></trkpt><trkpt lat="45.97090919149006" lon="12.997395432162193"><ele>45.0</ele><time>2026-05-05T14:01:15Z</time></trkpt><trkpt lat="45.97096117384162" lon="12.99714825212032"><ele>45.0</ele><time>2026-05-05T14:01:16Z</time></trkpt><trkpt lat="45.97101422680271" lon="12.996880009099637"><ele>45.0</ele><time>2026-05-05T14:01:17Z</time></trkpt><trkpt lat="45.9710659455215" lon="12.996625045306693"><ele>45.0</ele><time>2026-05-05T14:01:18Z</time></trkpt><trkpt lat="45.97111569166448" lon="12.996364018007942"><ele>45.0</ele><time>2026-05-05T14:01:19Z</time></trkpt><trkpt lat="45.97116558974995" lon="12.996102556276691"><ele>45.0</ele><time>2026-05-05T14:01:20Z</time></trkpt><trkpt lat="45.97121653592415" lon="12.99583853224022"><ele>45.0</ele><time>2026-05-05T14:01:21Z</time></trkpt><trkpt lat="45.97127076313946" lon="12.995571266352695"><ele>45.0</ele><time>2026-05-05T14:01:22Z</time></trkpt><trkpt lat="45.97132565118527" lon="12.995302963947507"><ele>45.0</ele><time>2026-05-05T14:01:23Z</time></trkpt><trkpt lat="45.971382021016915" lon="12.995032131407305"><ele>45.0</ele><time>2026-05-05T14:01:24Z</time></trkpt><trkpt lat="45.97143889910875" lon="12.994758133667728"><ele>45.0</ele><time>2026-05-05T14:01:25Z</time></trkpt><trkpt lat="45.97149605488039" lon="12.994484279701712"><ele>45.0</ele><time>2026-05-05T14:01:26Z</time></trkpt><trkpt lat="45.97155252898938" lon="12.994210095527901"><ele>45.0</ele><time>2026-05-05T14:01:27Z</time></trkpt><trkpt lat="45.971610135536885" lon="12.993939239611754"><ele>45.0</ele><time>2026-05-05T14:01:28Z</time></trkpt><trkpt lat="45.97166652179986" lon="12.993664404828172"><ele>45.0</ele><time>2026-05-05T14:01:29Z</time></trkpt><trkpt lat="45.97172330097016" lon="12.993386094901407"><ele>45.0</ele><time>2026-05-05T14:01:30Z</time></trkpt><trkpt lat="45.97178056577618" lon="12.993107961791454"><ele>44.666666666666664</ele><time>2026-05-05T14:01:31Z</time></trkpt><trkpt lat="45.97183520894149" lon="12.992839890333027"><ele>44.33333333333333</ele><time>2026-05-05T14:01:32Z</time></trkpt><trkpt lat="45.97188673452265" lon="12.992570465303215"><ele>44.0</ele><time>2026-05-05T14:01:33Z</time></trkpt><trkpt lat="45.97193616451847" lon="12.99231187340503"><ele>44.0</ele><time>2026-05-05T14:01:34Z</time></trkpt><trkpt lat="45.97198416083431" lon="12.992063164277901"><ele>44.0</ele><time>2026-05-05T14:01:35Z</time></trkpt><trkpt lat="45.972031880893276" lon="12.99182515510371"><ele>44.0</ele><time>2026-05-05T14:01:36Z</time></trkpt><trkpt lat="45.97207554731528" lon="12.991599176989329"><ele>44.33333333333333</ele><time>2026-05-05T14:01:37Z</time></trkpt><trkpt lat="45.97211759791221" lon="12.99138063805745"><ele>44.666666666666664</ele><time>2026-05-05T14:01:38Z</time></trkpt><trkpt lat="45.97216203027914" lon="12.991164909470177"><ele>45.0</ele><time>2026-05-05T14:01:39Z</time></trkpt><trkpt lat="45.9722059266395" lon="12.99094448421718"><ele>44.333333333333336</ele><time>2026-05-05T14:01:40Z</time></trkpt><trkpt lat="45.9722516202488" lon="12.99071858369639"><ele>43.66666666666667</ele><time>2026-05-05T14:01:41Z</time></trkpt><trkpt lat="45.972297870669514" lon="12.990491793659894"><ele>43.0</ele><time>2026-05-05T14:01:42Z</time></trkpt><trkpt lat="45.97234184760897" lon="12.990260872995583"><ele>43.0</ele><time>2026-05-05T14:01:43Z</time></trkpt><trkpt lat="45.9723851632854" lon="12.990031712597844"><ele>43.0</ele><time>2026-05-05T14:01:44Z</time></trkpt><trkpt lat="45.972419781299884" lon="12.989813045011251"><ele>43.0</ele><time>2026-05-05T14:01:45Z</time></trkpt><trkpt lat="45.97244915866516" lon="12.989599661301549"><ele>43.333333333333336</ele><time>2026-05-05T14:01:46Z</time></trkpt><trkpt lat="45.972469504926835" lon="12.98938118972818"><ele>43.666666666666664</ele><time>2026-05-05T14:01:47Z</time></trkpt><trkpt lat="45.97248245595761" lon="12.989158081039475"><ele>44.0</ele><time>2026-05-05T14:01:48Z</time></trkpt><trkpt lat="45.97248540339526" lon="12.988947725929927"><ele>44.25</ele><time>2026-05-05T14:01:49Z</time></trkpt><trkpt lat="45.97247962757695" lon="12.98874801223039"><ele>44.5</ele><time>2026-05-05T14:01:50Z</time></trkpt><trkpt lat="45.972469806382605" lon="12.988560818692704"><ele>44.75</ele><time>2026-05-05T14:01:51Z</time></trkpt><trkpt lat="45.9724619334956" lon="12.988383811460867"><ele>45.0</ele><time>2026-05-05T14:01:52Z</time></trkpt><trkpt lat="45.97245636945244" lon="12.988229273145715"><ele>45.0</ele><time>2026-05-05T14:01:53Z</time></trkpt><trkpt lat="45.972454977060586" lon="12.988092767673399"><ele>45.0</ele><time>2026-05-05T14:01:54Z</time></trkpt><trkpt lat="45.97245442946238" lon="12.987964219966702"><ele>45.0</ele><time>2026-05-05T14:01:55Z</time></trkpt><trkpt lat="45.972458887135936" lon="12.98784166690136"><ele>45.0</ele><time>2026-05-05T14:01:56Z</time></trkpt><trkpt lat="45.972471881431126" lon="12.987724930021832"><ele>45.0</ele><time>2026-05-05T14:01:57Z</time></trkpt><trkpt lat="45.97249442961484" lon="12.987617126003533"><ele>45.0</ele><time>2026-05-05T14:01:58Z</time></trkpt><trkpt lat="45.97252866512383" lon="12.987511503655883"><ele>45.166666666666664</ele><time>2026-05-05T14:01:59Z</time></trkpt><trkpt lat="45.972571015496754" lon="12.987410232074579"><ele>45.333333333333336</ele><time>2026-05-05T14:02:00Z</time></trkpt><trkpt lat="45.9726153394856" lon="12.987319573435013"><ele>45.5</ele><time>2026-05-05T14:02:01Z</time></trkpt><trkpt lat="45.972657053018914" lon="12.987227528241437"><ele>45.66666666666667</ele><time>2026-05-05T14:02:02Z</time></trkpt><trkpt lat="45.97267178926909" lon="12.987117832950227"><ele>45.833333333333336</ele><time>2026-05-05T14:02:03Z</time></trkpt><trkpt lat="45.97266233081845" lon="12.987012757642693"><ele>46.0</ele><time>2026-05-05T14:02:04Z</time></trkpt><trkpt lat="45.972628735540475" lon="12.986918009557067"><ele>46.0</ele><time>2026-05-05T14:02:05Z</time></trkpt><trkpt lat="45.97257399250747" lon="12.986836417752196"><ele>46.0</ele><time>2026-05-05T14:02:06Z</time></trkpt><trkpt lat="45.97250493731215" lon="12.986767019458442"><ele>46.0</ele><time>2026-05-05T14:02:07Z</time></trkpt><trkpt lat="45.97242834820679" lon="12.986696201847378"><ele>46.0</ele><time>2026-05-05T14:02:08Z</time></trkpt><trkpt lat="45.97234260954579" lon="12.986618229158422"><ele>46.0</ele><time>2026-05-05T14:02:09Z</time></trkpt><trkpt lat="45.97225400496941" lon="12.986526323608308"><ele>45.4</ele><time>2026-05-05T14:02:10Z</time></trkpt><trkpt lat="45.972167342380466" lon="12.986431568470199"><ele>44.8</ele><time>2026-05-05T14:02:11Z</time></trkpt><trkpt lat="45.972083997563715" lon="12.986330575043391"><ele>44.199999999999996</ele><time>2026-05-05T14:02:12Z</time></trkpt><trkpt lat="45.9720107178542" lon="12.986224455166674"><ele>43.599999999999994</ele><time>2026-05-05T14:02:13Z</time></trkpt><trkpt lat="45.97194873552633" lon="12.986099683311949"><ele>43.0</ele><time>2026-05-05T14:02:14Z</time></trkpt><trkpt lat="45.971896336923166" lon="12.98596288720703"><ele>43.25</ele><time>2026-05-05T14:02:15Z</time></trkpt><trkpt lat="45.97184443182201" lon="12.985813163250992"><ele>43.5</ele><time>2026-05-05T14:02:16Z</time></trkpt><trkpt lat="45.97179701091894" lon="12.985656773107987"><ele>43.75</ele><time>2026-05-05T14:02:17Z</time></trkpt><trkpt lat="45.97175133196469" lon="12.985497843873434"><ele>44.0</ele><time>2026-05-05T14:02:18Z</time></trkpt><trkpt lat="45.971703370453874" lon="12.985335335033348"><ele>44.25</ele><time>2026-05-05T14:02:19Z</time></trkpt><trkpt lat="45.971654397469" lon="12.985168579716962"><ele>44.5</ele><time>2026-05-05T14:02:20Z</time></trkpt><trkpt lat="45.971607546145435" lon="12.985005680979244"><ele>44.75</ele><time>2026-05-05T14:02:21Z</time></trkpt><trkpt lat="45.97156164754857" lon="12.984841990361854"><ele>45.0</ele><time>2026-05-05T14:02:22Z</time></trkpt><trkpt lat="45.971514996154305" lon="12.984675833663994"><ele>45.0</ele><time>2026-05-05T14:02:23Z</time></trkpt><trkpt lat="45.97146587496058" lon="12.984506031173899"><ele>45.0</ele><time>2026-05-05T14:02:24Z</time></trkpt><trkpt lat="45.97141529460198" lon="12.98433217021624"><ele>45.0</ele><time>2026-05-05T14:02:25Z</time></trkpt><trkpt lat="45.97136239386829" lon="12.98415574435862"><ele>45.0</ele><time>2026-05-05T14:02:26Z</time></trkpt><trkpt lat="45.97131059815291" lon="12.983977475409663"><ele>45.0</ele><time>2026-05-05T14:02:27Z</time></trkpt><trkpt lat="45.971257709700225" lon="12.983794940614906"><ele>45.0</ele><time>2026-05-05T14:02:28Z</time></trkpt><trkpt lat="45.971207176866194" lon="12.983609270885406"><ele>45.0</ele><time>2026-05-05T14:02:29Z</time></trkpt><trkpt lat="45.97115592794551" lon="12.98342094746964"><ele>45.0</ele><time>2026-05-05T14:02:30Z</time></trkpt><trkpt lat="45.971102871257436" lon="12.98322638781158"><ele>44.666666666666664</ele><time>2026-05-05T14:02:31Z</time></trkpt><trkpt lat="45.97104717404" lon="12.983026452772227"><ele>44.33333333333333</ele><time>2026-05-05T14:02:32Z</time></trkpt><trkpt lat="45.97098991007215" lon="12.982821964584627"><ele>44.0</ele><time>2026-05-05T14:02:33Z</time></trkpt><trkpt lat="45.97092936339204" lon="12.9826134583423"><ele>43.666666666666664</ele><time>2026-05-05T14:02:34Z</time></trkpt><trkpt lat="45.97086595232689" lon="12.982403710391672"><ele>43.333333333333336</ele><time>2026-05-05T14:02:35Z</time></trkpt><trkpt lat="45.97080606764324" lon="12.9821978476951"><ele>43.0</ele><time>2026-05-05T14:02:36Z</time></trkpt><trkpt lat="45.9707489114796" lon="12.98200462777409"><ele>43.0</ele><time>2026-05-05T14:02:37Z</time></trkpt><trkpt lat="45.97069455016515" lon="12.981822062823397"><ele>43.0</ele><time>2026-05-05T14:02:38Z</time></trkpt><trkpt lat="45.97064043889792" lon="12.981639110129406"><ele>43.0</ele><time>2026-05-05T14:02:39Z</time></trkpt><trkpt lat="45.97058664360435" lon="12.981459042125952"><ele>43.0</ele><time>2026-05-05T14:02:40Z</time></trkpt><trkpt lat="45.97053251402637" lon="12.981280668752111"><ele>43.0</ele><time>2026-05-05T14:02:41Z</time></trkpt><trkpt lat="45.970476762235606" lon="12.98110083498377"><ele>43.0</ele><time>2026-05-05T14:02:42Z</time></trkpt><trkpt lat="45.97042316340373" lon="12.98092065224246"><ele>43.0</ele><time>2026-05-05T14:02:43Z</time></trkpt><trkpt lat="45.970369112384994" lon="12.980739839282784"><ele>43.0</ele><time>2026-05-05T14:02:44Z</time></trkpt><trkpt lat="45.97031255474489" lon="12.980553308058154"><ele>43.0</ele><time>2026-05-05T14:02:45Z</time></trkpt><trkpt lat="45.97025679983345" lon="12.980365265763323"><ele>43.0</ele><time>2026-05-05T14:02:46Z</time></trkpt><trkpt lat="45.97019971698441" lon="12.980173920866964"><ele>43.0</ele><time>2026-05-05T14:02:47Z</time></trkpt><trkpt lat="45.970140425545104" lon="12.979980118448267"><ele>43.0</ele><time>2026-05-05T14:02:48Z</time></trkpt><trkpt lat="45.97008317586601" lon="12.97978901603707"><ele>43.0</ele><time>2026-05-05T14:02:49Z</time></trkpt><trkpt lat="45.97002615209411" lon="12.979599727299565"><ele>43.0</ele><time>2026-05-05T14:02:50Z</time></trkpt><trkpt lat="45.96997012259986" lon="12.979410410928367"><ele>43.0</ele><time>2026-05-05T14:02:51Z</time></trkpt><trkpt lat="45.969914897839864" lon="12.979220979089378"><ele>43.0</ele><time>2026-05-05T14:02:52Z</time></trkpt><trkpt lat="45.969864701432215" lon="12.97903537272668"><ele>43.25</ele><time>2026-05-05T14:02:53Z</time></trkpt><trkpt lat="45.96981282678958" lon="12.978851266778618"><ele>43.5</ele><time>2026-05-05T14:02:54Z</time></trkpt><trkpt lat="45.96976052676632" lon="12.978673121953603"><ele>43.75</ele><time>2026-05-05T14:02:55Z</time></trkpt><trkpt lat="45.96970702184097" lon="12.978492164785319"><ele>44.0</ele><time>2026-05-05T14:02:56Z</time></trkpt><trkpt lat="45.96965452472627" lon="12.978318547420244"><ele>44.25</ele><time>2026-05-05T14:02:57Z</time></trkpt><trkpt lat="45.96960430522679" lon="12.978146273444183"><ele>44.5</ele><time>2026-05-05T14:02:58Z</time></trkpt><trkpt lat="45.96955766512854" lon="12.97798296591062"><ele>44.75</ele><time>2026-05-05T14:02:59Z</time></trkpt><trkpt lat="45.96951232740778" lon="12.977828923339493"><ele>45.0</ele><time>2026-05-05T14:03:00Z</time></trkpt><trkpt lat="45.96947042321233" lon="12.977680810991291"><ele>45.0</ele><time>2026-05-05T14:03:01Z</time></trkpt><trkpt lat="45.96942883461738" lon="12.977534640518213"><ele>45.0</ele><time>2026-05-05T14:03:02Z</time></trkpt><trkpt lat="45.9693881270983" lon="12.977386016976094"><ele>45.0</ele><time>2026-05-05T14:03:03Z</time></trkpt><trkpt lat="45.96934724807738" lon="12.977242962586114"><ele>45.0</ele><time>2026-05-05T14:03:04Z</time></trkpt><trkpt lat="45.969309512150986" lon="12.97711134442704"><ele>45.0</ele><time>2026-05-05T14:03:05Z</time></trkpt><trkpt lat="45.96927282013542" lon="12.976987381058548"><ele>45.0</ele><time>2026-05-05T14:03:06Z</time></trkpt><trkpt lat="45.96923918126254" lon="12.976861460000404"><ele>45.0</ele><time>2026-05-05T14:03:07Z</time></trkpt><trkpt lat="45.96920346788832" lon="12.976739745939804"><ele>45.0</ele><time>2026-05-05T14:03:08Z</time></trkpt><trkpt lat="45.96917336416095" lon="12.976620142895614"><ele>45.0</ele><time>2026-05-05T14:03:09Z</time></trkpt><trkpt lat="45.969151077390244" lon="12.976492003524559"><ele>45.0</ele><time>2026-05-05T14:03:10Z</time></trkpt><trkpt lat="45.96914341461239" lon="12.976363274038796"><ele>44.666666666666664</ele><time>2026-05-05T14:03:11Z</time></trkpt><trkpt lat="45.96915651941425" lon="12.976241111471"><ele>44.333333333333336</ele><time>2026-05-05T14:03:12Z</time></trkpt><trkpt lat="45.969161029288124" lon="12.9761156093455"><ele>44.0</ele><time>2026-05-05T14:03:13Z</time></trkpt><trkpt lat="45.969133685457464" lon="12.97599878033432"><ele>43.66666666666667</ele><time>2026-05-05T14:03:14Z</time></trkpt><trkpt lat="45.96908000481078" lon="12.9759047128536"><ele>43.333333333333336</ele><time>2026-05-05T14:03:15Z</time></trkpt><trkpt lat="45.969008856754684" lon="12.975820542641138"><ele>43.0</ele><time>2026-05-05T14:03:16Z</time></trkpt><trkpt lat="45.96894270578054" lon="12.975724289079569"><ele>43.0</ele><time>2026-05-05T14:03:17Z</time></trkpt><trkpt lat="45.96888399402988" lon="12.97560652683319"><ele>43.0</ele><time>2026-05-05T14:03:18Z</time></trkpt><trkpt lat="45.96883100385555" lon="12.975475157970465"><ele>43.0</ele><time>2026-05-05T14:03:19Z</time></trkpt><trkpt lat="45.96878331735397" lon="12.97533457235188"><ele>43.0</ele><time>2026-05-05T14:03:20Z</time></trkpt><trkpt lat="45.968745911709" lon="12.975210824265506"><ele>43.0</ele><time>2026-05-05T14:03:21Z</time></trkpt><trkpt lat="45.96870538187835" lon="12.975084163611971"><ele>43.5</ele><time>2026-05-05T14:03:22Z</time></trkpt><trkpt lat="45.96866518131016" lon="12.974945707763775"><ele>44.0</ele><time>2026-05-05T14:03:23Z</time></trkpt><trkpt lat="45.96862425055631" lon="12.974796719778825"><ele>44.5</ele><time>2026-05-05T14:03:24Z</time></trkpt><trkpt lat="45.96857878631652" lon="12.974643724030031"><ele>45.0</ele><time>2026-05-05T14:03:25Z</time></trkpt><trkpt lat="45.96853218868478" lon="12.974487022555936"><ele>45.0</ele><time>2026-05-05T14:03:26Z</time></trkpt><trkpt lat="45.96848509632033" lon="12.974325879208445"><ele>45.0</ele><time>2026-05-05T14:03:27Z</time></trkpt><trkpt lat="45.968440932902865" lon="12.97416337918694"><ele>45.0</ele><time>2026-05-05T14:03:28Z</time></trkpt><trkpt lat="45.96839408185055" lon="12.973998552123026"><ele>45.0</ele><time>2026-05-05T14:03:29Z</time></trkpt><trkpt lat="45.968345512812746" lon="12.97383768559333"><ele>44.25</ele><time>2026-05-05T14:03:30Z</time></trkpt><trkpt lat="45.96829760018187" lon="12.973676539885343"><ele>43.5</ele><time>2026-05-05T14:03:31Z</time></trkpt><trkpt lat="45.96825098733584" lon="12.973517216961433"><ele>42.75</ele><time>2026-05-05T14:03:32Z</time></trkpt><trkpt lat="45.96820585408723" lon="12.973351751243593"><ele>42.0</ele><time>2026-05-05T14:03:33Z</time></trkpt><trkpt lat="45.968156968439466" lon="12.973185206076455"><ele>42.0</ele><time>2026-05-05T14:03:34Z</time></trkpt><trkpt lat="45.968110822962984" lon="12.973026816124005"><ele>42.0</ele><time>2026-05-05T14:03:35Z</time></trkpt><trkpt lat="45.96806389293763" lon="12.972874660092986"><ele>42.0</ele><time>2026-05-05T14:03:36Z</time></trkpt><trkpt lat="45.96801648403241" lon="12.97271454604705"><ele>42.0</ele><time>2026-05-05T14:03:37Z</time></trkpt><trkpt lat="45.96796829756719" lon="12.972553905309152"><ele>41.75</ele><time>2026-05-05T14:03:38Z</time></trkpt><trkpt lat="45.96792207623709" lon="12.972396094658539"><ele>41.5</ele><time>2026-05-05T14:03:39Z</time></trkpt><trkpt lat="45.96787534968837" lon="12.972241259587612"><ele>41.25</ele><time>2026-05-05T14:03:40Z</time></trkpt><trkpt lat="45.96782680749679" lon="12.972070729200754"><ele>41.0</ele><time>2026-05-05T14:03:41Z</time></trkpt><trkpt lat="45.967776453625376" lon="12.971898871423242"><ele>41.0</ele><time>2026-05-05T14:03:42Z</time></trkpt><trkpt lat="45.9677253873389" lon="12.971723540221832"><ele>41.0</ele><time>2026-05-05T14:03:43Z</time></trkpt><trkpt lat="45.96767608085496" lon="12.97155242412496"><ele>41.0</ele><time>2026-05-05T14:03:44Z</time></trkpt><trkpt lat="45.967628669726146" lon="12.971391351116031"><ele>41.0</ele><time>2026-05-05T14:03:45Z</time></trkpt><trkpt lat="45.96757776966596" lon="12.971226437807273"><ele>41.0</ele><time>2026-05-05T14:03:46Z</time></trkpt><trkpt lat="45.9675293242047" lon="12.971058016828122"><ele>41.0</ele><time>2026-05-05T14:03:47Z</time></trkpt><trkpt lat="45.96747825401457" lon="12.970889980683298"><ele>41.0</ele><time>2026-05-05T14:03:48Z</time></trkpt><trkpt lat="45.967428583788696" lon="12.970724846703655"><ele>41.0</ele><time>2026-05-05T14:03:49Z</time></trkpt><trkpt lat="45.96737906759014" lon="12.970556869290021"><ele>41.25</ele><time>2026-05-05T14:03:50Z</time></trkpt><trkpt lat="45.96732937548043" lon="12.970387646072988"><ele>41.5</ele><time>2026-05-05T14:03:51Z</time></trkpt><trkpt lat="45.96728059191816" lon="12.970212432507903"><ele>41.75</ele><time>2026-05-05T14:03:52Z</time></trkpt><trkpt lat="45.96722800883944" lon="12.970032623453879"><ele>42.0</ele><time>2026-05-05T14:03:53Z</time></trkpt><trkpt lat="45.96716862079532" lon="12.969834448521718"><ele>42.333333333333336</ele><time>2026-05-05T14:03:54Z</time></trkpt><trkpt lat="45.96711012464879" lon="12.969625231078195"><ele>42.66666666666667</ele><time>2026-05-05T14:03:55Z</time></trkpt><trkpt lat="45.967051182274" lon="12.969420841794824"><ele>43.0</ele><time>2026-05-05T14:03:56Z</time></trkpt><trkpt lat="45.96699692130625" lon="12.96923456750642"><ele>42.5</ele><time>2026-05-05T14:03:57Z</time></trkpt><trkpt lat="45.966942749522794" lon="12.969049842326458"><ele>42.0</ele><time>2026-05-05T14:03:58Z</time></trkpt><trkpt lat="45.96688551330802" lon="12.968871569837509"><ele>41.5</ele><time>2026-05-05T14:03:59Z</time></trkpt><trkpt lat="45.96683266632714" lon="12.968693302108594"><ele>41.0</ele><time>2026-05-05T14:04:00Z</time></trkpt><trkpt lat="45.96678093672823" lon="12.968519805569436"><ele>40.75</ele><time>2026-05-05T14:04:01Z</time></trkpt><trkpt lat="45.96672958192779" lon="12.968344273664412"><ele>40.5</ele><time>2026-05-05T14:04:02Z</time></trkpt><trkpt lat="45.966677673028855" lon="12.968160458104201"><ele>40.25</ele><time>2026-05-05T14:04:03Z</time></trkpt><trkpt lat="45.966624607070294" lon="12.967974758313389"><ele>40.0</ele><time>2026-05-05T14:04:04Z</time></trkpt><trkpt lat="45.96657080312569" lon="12.967787853575762"><ele>40.0</ele><time>2026-05-05T14:04:05Z</time></trkpt><trkpt lat="45.96651685781095" lon="12.967596598476126"><ele>40.0</ele><time>2026-05-05T14:04:06Z</time></trkpt><trkpt lat="45.96646117562007" lon="12.96740211568761"><ele>40.0</ele><time>2026-05-05T14:04:07Z</time></trkpt><trkpt lat="45.96640141688364" lon="12.96720414428294"><ele>40.0</ele><time>2026-05-05T14:04:08Z</time></trkpt><trkpt lat="45.96634077752282" lon="12.967003075462864"><ele>40.25</ele><time>2026-05-05T14:04:09Z</time></trkpt><trkpt lat="45.96627943714565" lon="12.966804244557137"><ele>40.5</ele><time>2026-05-05T14:04:10Z</time></trkpt><trkpt lat="45.96622196738974" lon="12.96660797107304"><ele>40.75</ele><time>2026-05-05T14:04:11Z</time></trkpt><trkpt lat="45.966165965003384" lon="12.966409208600362"><ele>41.0</ele><time>2026-05-05T14:04:12Z</time></trkpt><trkpt lat="45.96610847265505" lon="12.966209345682433"><ele>41.25</ele><time>2026-05-05T14:04:13Z</time></trkpt><trkpt lat="45.96605090334867" lon="12.966010265783675"><ele>41.5</ele><time>2026-05-05T14:04:14Z</time></trkpt><trkpt lat="45.96599376271885" lon="12.965813628008696"><ele>41.75</ele><time>2026-05-05T14:04:15Z</time></trkpt><trkpt lat="45.96593470464784" lon="12.965613836061328"><ele>42.0</ele><time>2026-05-05T14:04:16Z</time></trkpt><trkpt lat="45.96587604104766" lon="12.965414265122782"><ele>42.0</ele><time>2026-05-05T14:04:17Z</time></trkpt><trkpt lat="45.965815650695475" lon="12.965207151187856"><ele>42.0</ele><time>2026-05-05T14:04:18Z</time></trkpt><trkpt lat="45.96575560097031" lon="12.965000996546507"><ele>42.0</ele><time>2026-05-05T14:04:19Z</time></trkpt><trkpt lat="45.965696594113076" lon="12.96479479648011"><ele>42.333333333333336</ele><time>2026-05-05T14:04:20Z</time></trkpt><trkpt lat="45.9656369993379" lon="12.964585763923731"><ele>42.66666666666667</ele><time>2026-05-05T14:04:21Z</time></trkpt><trkpt lat="45.96557502721528" lon="12.964377065112329"><ele>43.0</ele><time>2026-05-05T14:04:22Z</time></trkpt><trkpt lat="45.96551218758486" lon="12.964166876673806"><ele>43.0</ele><time>2026-05-05T14:04:23Z</time></trkpt><trkpt lat="45.96545222445817" lon="12.963961734994799"><ele>43.0</ele><time>2026-05-05T14:04:24Z</time></trkpt><trkpt lat="45.965393288885736" lon="12.963756336565382"><ele>43.0</ele><time>2026-05-05T14:04:25Z</time></trkpt><trkpt lat="45.965334874638984" lon="12.963554046867104"><ele>43.0</ele><time>2026-05-05T14:04:26Z</time></trkpt><trkpt lat="45.96527579900278" lon="12.963352859390717"><ele>43.0</ele><time>2026-05-05T14:04:27Z</time></trkpt><trkpt lat="45.965216668636636" lon="12.963154266622496"><ele>43.0</ele><time>2026-05-05T14:04:28Z</time></trkpt><trkpt lat="45.96515950185456" lon="12.962954996386394"><ele>43.0</ele><time>2026-05-05T14:04:29Z</time></trkpt><trkpt lat="45.965099801684616" lon="12.962757007676931"><ele>43.0</ele><time>2026-05-05T14:04:30Z</time></trkpt><trkpt lat="45.96504118532636" lon="12.962557822239468"><ele>43.0</ele><time>2026-05-05T14:04:31Z</time></trkpt><trkpt lat="45.964983612263936" lon="12.962359434197142"><ele>42.66666666666667</ele><time>2026-05-05T14:04:32Z</time></trkpt><trkpt lat="45.9649226679735" lon="12.962153904713887"><ele>42.333333333333336</ele><time>2026-05-05T14:04:33Z</time></trkpt><trkpt lat="45.96486230348486" lon="12.961951119749676"><ele>42.0</ele><time>2026-05-05T14:04:34Z</time></trkpt><trkpt lat="45.9648012080352" lon="12.96174197431921"><ele>42.0</ele><time>2026-05-05T14:04:35Z</time></trkpt><trkpt lat="45.9647420975356" lon="12.961527740320909"><ele>42.0</ele><time>2026-05-05T14:04:36Z</time></trkpt><trkpt lat="45.96468106960135" lon="12.961310273378071"><ele>42.0</ele><time>2026-05-05T14:04:37Z</time></trkpt><trkpt lat="45.964620692757485" lon="12.961094700641226"><ele>42.0</ele><time>2026-05-05T14:04:38Z</time></trkpt><trkpt lat="45.9645577669374" lon="12.960874746960144"><ele>42.0</ele><time>2026-05-05T14:04:39Z</time></trkpt><trkpt lat="45.964496208440735" lon="12.960651022440826"><ele>42.0</ele><time>2026-05-05T14:04:40Z</time></trkpt><trkpt lat="45.964435930458755" lon="12.960420478447542"><ele>42.0</ele><time>2026-05-05T14:04:41Z</time></trkpt><trkpt lat="45.964378717931105" lon="12.960185916287745"><ele>42.0</ele><time>2026-05-05T14:04:42Z</time></trkpt><trkpt lat="45.96432842142912" lon="12.95994367226105"><ele>42.0</ele><time>2026-05-05T14:04:43Z</time></trkpt><trkpt lat="45.96428618007972" lon="12.959699625730218"><ele>41.666666666666664</ele><time>2026-05-05T14:04:44Z</time></trkpt><trkpt lat="45.964253634687815" lon="12.959455351282449"><ele>41.33333333333333</ele><time>2026-05-05T14:04:45Z</time></trkpt><trkpt lat="45.964229942569396" lon="12.959206932269861"><ele>41.0</ele><time>2026-05-05T14:04:46Z</time></trkpt><trkpt lat="45.96421817771106" lon="12.95895656351533"><ele>41.666666666666664</ele><time>2026-05-05T14:04:47Z</time></trkpt><trkpt lat="45.964218289037184" lon="12.958708199446635"><ele>42.333333333333336</ele><time>2026-05-05T14:04:48Z</time></trkpt><trkpt lat="45.964225785214666" lon="12.958461854492073"><ele>43.0</ele><time>2026-05-05T14:04:49Z</time></trkpt><trkpt lat="45.964241397806575" lon="12.958217982011448"><ele>43.333333333333336</ele><time>2026-05-05T14:04:50Z</time></trkpt><trkpt lat="45.964263479787704" lon="12.957976987137547"><ele>43.666666666666664</ele><time>2026-05-05T14:04:51Z</time></trkpt><trkpt lat="45.96429292402382" lon="12.957743545079726"><ele>44.0</ele><time>2026-05-05T14:04:52Z</time></trkpt><trkpt lat="45.96432643038483" lon="12.957515967761548"><ele>43.0</ele><time>2026-05-05T14:04:53Z</time></trkpt><trkpt lat="45.96435840011722" lon="12.957295343389578"><ele>42.0</ele><time>2026-05-05T14:04:54Z</time></trkpt><trkpt lat="45.964392209458126" lon="12.957072988985693"><ele>41.0</ele><time>2026-05-05T14:04:55Z</time></trkpt><trkpt lat="45.96442950407842" lon="12.956849258127754"><ele>41.33333333333333</ele><time>2026-05-05T14:04:56Z</time></trkpt><trkpt lat="45.964463534510635" lon="12.95662399455305"><ele>41.666666666666664</ele><time>2026-05-05T14:04:57Z</time></trkpt><trkpt lat="45.964498785012744" lon="12.956400050631666"><ele>42.0</ele><time>2026-05-05T14:04:58Z</time></trkpt><trkpt lat="45.9645332181695" lon="12.956175684812514"><ele>42.0</ele><time>2026-05-05T14:04:59Z</time></trkpt><trkpt lat="45.96456759603548" lon="12.955952125855342"><ele>42.0</ele><time>2026-05-05T14:05:00Z</time></trkpt><trkpt lat="45.964603897230944" lon="12.955728390124353"><ele>42.0</ele><time>2026-05-05T14:05:01Z</time></trkpt><trkpt lat="45.96463728596584" lon="12.955504060424104"><ele>42.0</ele><time>2026-05-05T14:05:02Z</time></trkpt><trkpt lat="45.964671108289984" lon="12.955278015948235"><ele>42.0</ele><time>2026-05-05T14:05:03Z</time></trkpt><trkpt lat="45.964703946680444" lon="12.955046726969922"><ele>42.0</ele><time>2026-05-05T14:05:04Z</time></trkpt><trkpt lat="45.96473844199109" lon="12.954815783962042"><ele>42.0</ele><time>2026-05-05T14:05:05Z</time></trkpt><trkpt lat="45.964774826809744" lon="12.954583729936251"><ele>42.0</ele><time>2026-05-05T14:05:06Z</time></trkpt><trkpt lat="45.964811166391975" lon="12.954349884031583"><ele>42.0</ele><time>2026-05-05T14:05:07Z</time></trkpt><trkpt lat="45.96484879567221" lon="12.954120782925255"><ele>42.333333333333336</ele><time>2026-05-05T14:05:08Z</time></trkpt><trkpt lat="45.964884413848814" lon="12.953892702232688"><ele>42.66666666666667</ele><time>2026-05-05T14:05:09Z</time></trkpt><trkpt lat="45.96491874511089" lon="12.95366702686806"><ele>43.0</ele><time>2026-05-05T14:05:10Z</time></trkpt><trkpt lat="45.964951355408346" lon="12.953443079405512"><ele>42.66666666666667</ele><time>2026-05-05T14:05:11Z</time></trkpt><trkpt lat="45.96498439438523" lon="12.953220222233565"><ele>42.333333333333336</ele><time>2026-05-05T14:05:12Z</time></trkpt><trkpt lat="45.9650168005942" lon="12.952998724233456"><ele>42.0</ele><time>2026-05-05T14:05:13Z</time></trkpt><trkpt lat="45.96504934527594" lon="12.952778412688081"><ele>42.0</ele><time>2026-05-05T14:05:14Z</time></trkpt><trkpt lat="45.96508167492898" lon="12.952558294965963"><ele>42.0</ele><time>2026-05-05T14:05:15Z</time></trkpt><trkpt lat="45.96511471942505" lon="12.952337227394326"><ele>42.0</ele><time>2026-05-05T14:05:16Z</time></trkpt><trkpt lat="45.96514852687795" lon="12.952115928038236"><ele>41.666666666666664</ele><time>2026-05-05T14:05:17Z</time></trkpt><trkpt lat="45.965181585335166" lon="12.95189440129995"><ele>41.33333333333333</ele><time>2026-05-05T14:05:18Z</time></trkpt><trkpt lat="45.965215261750686" lon="12.951671197306858"><ele>41.0</ele><time>2026-05-05T14:05:19Z</time></trkpt><trkpt lat="45.96524930144473" lon="12.951447769751702"><ele>41.0</ele><time>2026-05-05T14:05:20Z</time></trkpt><trkpt lat="45.96528288841572" lon="12.9512223177604"><ele>41.0</ele><time>2026-05-05T14:05:21Z</time></trkpt><trkpt lat="45.965317742219895" lon="12.950996234807157"><ele>41.0</ele><time>2026-05-05T14:05:22Z</time></trkpt><trkpt lat="45.96535460237995" lon="12.950766204966872"><ele>41.33333333333333</ele><time>2026-05-05T14:05:23Z</time></trkpt><trkpt lat="45.965389741150986" lon="12.950530895343668"><ele>41.666666666666664</ele><time>2026-05-05T14:05:24Z</time></trkpt><trkpt lat="45.9654265941391" lon="12.950290430039278"><ele>42.0</ele><time>2026-05-05T14:05:25Z</time></trkpt><trkpt lat="45.9654644253219" lon="12.95004432922412"><ele>42.666666666666664</ele><time>2026-05-05T14:05:26Z</time></trkpt><trkpt lat="45.965502635193786" lon="12.94979637766302"><ele>43.33333333333333</ele><time>2026-05-05T14:05:27Z</time></trkpt><trkpt lat="45.965539839945755" lon="12.949542093693408"><ele>44.0</ele><time>2026-05-05T14:05:28Z</time></trkpt><trkpt lat="45.965579169569104" lon="12.949286820520449"><ele>43.33333333333333</ele><time>2026-05-05T14:05:29Z</time></trkpt><trkpt lat="45.96561641616636" lon="12.949029433086057"><ele>42.666666666666664</ele><time>2026-05-05T14:05:30Z</time></trkpt><trkpt lat="45.96565541840524" lon="12.948770358035286"><ele>42.0</ele><time>2026-05-05T14:05:31Z</time></trkpt><trkpt lat="45.965695250526636" lon="12.948508893375278"><ele>42.0</ele><time>2026-05-05T14:05:32Z</time></trkpt><trkpt lat="45.96573346020111" lon="12.948243147559431"><ele>42.0</ele><time>2026-05-05T14:05:33Z</time></trkpt><trkpt lat="45.96577575347452" lon="12.947974010673077"><ele>42.0</ele><time>2026-05-05T14:05:34Z</time></trkpt><trkpt lat="45.96581574114366" lon="12.947702911727035"><ele>42.333333333333336</ele><time>2026-05-05T14:05:35Z</time></trkpt><trkpt lat="45.9658583555871" lon="12.9474323592633"><ele>42.66666666666667</ele><time>2026-05-05T14:05:36Z</time></trkpt><trkpt lat="45.9658999382545" lon="12.94715827149086"><ele>43.0</ele><time>2026-05-05T14:05:37Z</time></trkpt><trkpt lat="45.96594187888699" lon="12.946883179958196"><ele>42.66666666666667</ele><time>2026-05-05T14:05:38Z</time></trkpt><trkpt lat="45.965983537392255" lon="12.946609339232696"><ele>42.333333333333336</ele><time>2026-05-05T14:05:39Z</time></trkpt><trkpt lat="45.966024572520695" lon="12.946339971425497"><ele>42.0</ele><time>2026-05-05T14:05:40Z</time></trkpt><trkpt lat="45.966065290158575" lon="12.946075637016866"><ele>42.333333333333336</ele><time>2026-05-05T14:05:41Z</time></trkpt><trkpt lat="45.96610646138388" lon="12.945815487345811"><ele>42.66666666666667</ele><time>2026-05-05T14:05:42Z</time></trkpt><trkpt lat="45.966145414363815" lon="12.945560181634756"><ele>43.0</ele><time>2026-05-05T14:05:43Z</time></trkpt><trkpt lat="45.966181509978995" lon="12.945317712557095"><ele>43.0</ele><time>2026-05-05T14:05:44Z</time></trkpt><trkpt lat="45.966217028641324" lon="12.94508163277721"><ele>43.0</ele><time>2026-05-05T14:05:45Z</time></trkpt><trkpt lat="45.966252695275415" lon="12.944845130624131"><ele>43.0</ele><time>2026-05-05T14:05:46Z</time></trkpt><trkpt lat="45.96627951925324" lon="12.944618204912407"><ele>43.333333333333336</ele><time>2026-05-05T14:05:47Z</time></trkpt><trkpt lat="45.96631351550027" lon="12.944398323357042"><ele>43.666666666666664</ele><time>2026-05-05T14:05:48Z</time></trkpt><trkpt lat="45.9663487921152" lon="12.944179146524775"><ele>44.0</ele><time>2026-05-05T14:05:49Z</time></trkpt><trkpt lat="45.96638003994953" lon="12.943957778806674"><ele>44.0</ele><time>2026-05-05T14:05:50Z</time></trkpt><trkpt lat="45.96641100347137" lon="12.94373913924761"><ele>44.0</ele><time>2026-05-05T14:05:51Z</time></trkpt><trkpt lat="45.96644398746955" lon="12.943523631355989"><ele>44.0</ele><time>2026-05-05T14:05:52Z</time></trkpt><trkpt lat="45.966476526819434" lon="12.943309175680316"><ele>44.33333333333333</ele><time>2026-05-05T14:05:53Z</time></trkpt><trkpt lat="45.966508053396616" lon="12.943096893830774"><ele>44.666666666666664</ele><time>2026-05-05T14:05:54Z</time></trkpt><trkpt lat="45.966540095874" lon="12.94288197646615"><ele>45.0</ele><time>2026-05-05T14:05:55Z</time></trkpt><trkpt lat="45.9665737471975" lon="12.94266486315717"><ele>45.0</ele><time>2026-05-05T14:05:56Z</time></trkpt><trkpt lat="45.96660951299707" lon="12.942447140870131"><ele>45.0</ele><time>2026-05-05T14:05:57Z</time></trkpt><trkpt lat="45.96664469532434" lon="12.942228811171171"><ele>45.0</ele><time>2026-05-05T14:05:58Z</time></trkpt><trkpt lat="45.96667893412636" lon="12.94200725087453"><ele>45.333333333333336</ele><time>2026-05-05T14:05:59Z</time></trkpt><trkpt lat="45.96671176108869" lon="12.941782671126635"><ele>45.66666666666667</ele><time>2026-05-05T14:06:00Z</time></trkpt><trkpt lat="45.966745403348256" lon="12.941555068782668"><ele>46.0</ele><time>2026-05-05T14:06:01Z</time></trkpt><trkpt lat="45.96677994899205" lon="12.941325116045855"><ele>46.0</ele><time>2026-05-05T14:06:02Z</time></trkpt><trkpt lat="45.96681378168036" lon="12.941091209901202"><ele>46.0</ele><time>2026-05-05T14:06:03Z</time></trkpt><trkpt lat="45.96684896126912" lon="12.940854937271084"><ele>46.0</ele><time>2026-05-05T14:06:04Z</time></trkpt><trkpt lat="45.966885604936145" lon="12.940614715039711"><ele>46.0</ele><time>2026-05-05T14:06:05Z</time></trkpt><trkpt lat="45.966920262486326" lon="12.940371320911837"><ele>46.0</ele><time>2026-05-05T14:06:06Z</time></trkpt><trkpt lat="45.96695385768963" lon="12.94013348629777"><ele>46.0</ele><time>2026-05-05T14:06:07Z</time></trkpt><trkpt lat="45.96698516090758" lon="12.939906805036697"><ele>46.0</ele><time>2026-05-05T14:06:08Z</time></trkpt><trkpt lat="45.967019868662106" lon="12.939685572189486"><ele>46.0</ele><time>2026-05-05T14:06:09Z</time></trkpt><trkpt lat="45.96705510211507" lon="12.939467979259272"><ele>46.0</ele><time>2026-05-05T14:06:10Z</time></trkpt><trkpt lat="45.96708883708119" lon="12.939253546960474"><ele>46.333333333333336</ele><time>2026-05-05T14:06:11Z</time></trkpt><trkpt lat="45.96712476653588" lon="12.939043266312469"><ele>46.666666666666664</ele><time>2026-05-05T14:06:12Z</time></trkpt><trkpt lat="45.967158757350234" lon="12.938833629136676"><ele>47.0</ele><time>2026-05-05T14:06:13Z</time></trkpt><trkpt lat="45.967192015122336" lon="12.938620806887139"><ele>47.0</ele><time>2026-05-05T14:06:14Z</time></trkpt><trkpt lat="45.967224602852866" lon="12.938402478409913"><ele>47.0</ele><time>2026-05-05T14:06:15Z</time></trkpt><trkpt lat="45.96725758975815" lon="12.938177924534392"><ele>47.0</ele><time>2026-05-05T14:06:16Z</time></trkpt><trkpt lat="45.96728818765621" lon="12.937950854280842"><ele>46.666666666666664</ele><time>2026-05-05T14:06:17Z</time></trkpt><trkpt lat="45.96732234550842" lon="12.937715892041664"><ele>46.333333333333336</ele><time>2026-05-05T14:06:18Z</time></trkpt><trkpt lat="45.9673573371646" lon="12.937474689321883"><ele>46.0</ele><time>2026-05-05T14:06:19Z</time></trkpt><trkpt lat="45.96739188996185" lon="12.937228318219233"><ele>45.66666666666667</ele><time>2026-05-05T14:06:20Z</time></trkpt><trkpt lat="45.96742943459828" lon="12.936981157506445"><ele>45.333333333333336</ele><time>2026-05-05T14:06:21Z</time></trkpt><trkpt lat="45.96746285084313" lon="12.936740578412872"><ele>45.0</ele><time>2026-05-05T14:06:22Z</time></trkpt><trkpt lat="45.96749644343081" lon="12.936506515677735"><ele>45.0</ele><time>2026-05-05T14:06:23Z</time></trkpt><trkpt lat="45.967530897769684" lon="12.93627740489935"><ele>45.0</ele><time>2026-05-05T14:06:24Z</time></trkpt><trkpt lat="45.96756504252668" lon="12.93604567034841"><ele>45.0</ele><time>2026-05-05T14:06:25Z</time></trkpt><trkpt lat="45.96759974311125" lon="12.935814369155967"><ele>45.0</ele><time>2026-05-05T14:06:26Z</time></trkpt><trkpt lat="45.96763378893221" lon="12.93558172850648"><ele>45.0</ele><time>2026-05-05T14:06:27Z</time></trkpt><trkpt lat="45.96766971169175" lon="12.93534628838491"><ele>45.0</ele><time>2026-05-05T14:06:28Z</time></trkpt><trkpt lat="45.967705459249515" lon="12.935105890337852"><ele>45.666666666666664</ele><time>2026-05-05T14:06:29Z</time></trkpt><trkpt lat="45.96774002588258" lon="12.934860644534908"><ele>46.33333333333333</ele><time>2026-05-05T14:06:30Z</time></trkpt><trkpt lat="45.96777561666961" lon="12.934615393603497"><ele>47.0</ele><time>2026-05-05T14:06:31Z</time></trkpt><trkpt lat="45.967816264121495" lon="12.934367229937743"><ele>47.0</ele><time>2026-05-05T14:06:32Z</time></trkpt><trkpt lat="45.96785356104058" lon="12.934117144625851"><ele>47.0</ele><time>2026-05-05T14:06:33Z</time></trkpt><trkpt lat="45.96789431381007" lon="12.933865290414191"><ele>47.0</ele><time>2026-05-05T14:06:34Z</time></trkpt><trkpt lat="45.967934690609155" lon="12.933613562665867"><ele>46.666666666666664</ele><time>2026-05-05T14:06:35Z</time></trkpt><trkpt lat="45.967972907938275" lon="12.933361045290122"><ele>46.333333333333336</ele><time>2026-05-05T14:06:36Z</time></trkpt><trkpt lat="45.968012105872155" lon="12.93310827431093"><ele>46.0</ele><time>2026-05-05T14:06:37Z</time></trkpt><trkpt lat="45.96805175606205" lon="12.932855827478603"><ele>46.0</ele><time>2026-05-05T14:06:38Z</time></trkpt><trkpt lat="45.96809023170545" lon="12.932601221093869"><ele>46.0</ele><time>2026-05-05T14:06:39Z</time></trkpt><trkpt lat="45.96812847188021" lon="12.932348087814525"><ele>46.0</ele><time>2026-05-05T14:06:40Z</time></trkpt><trkpt lat="45.96816382603484" lon="12.932103816532573"><ele>46.333333333333336</ele><time>2026-05-05T14:06:41Z</time></trkpt><trkpt lat="45.96819754236798" lon="12.931865246639548"><ele>46.666666666666664</ele><time>2026-05-05T14:06:42Z</time></trkpt><trkpt lat="45.96823169250113" lon="12.931630490801515"><ele>47.0</ele><time>2026-05-05T14:06:43Z</time></trkpt><trkpt lat="45.96826597298586" lon="12.93139883063721"><ele>46.666666666666664</ele><time>2026-05-05T14:06:44Z</time></trkpt><trkpt lat="45.96830081835021" lon="12.931171974412358"><ele>46.333333333333336</ele><time>2026-05-05T14:06:45Z</time></trkpt><trkpt lat="45.968334636761774" lon="12.930947079299989"><ele>46.0</ele><time>2026-05-05T14:06:46Z</time></trkpt><trkpt lat="45.96836757551517" lon="12.930724702783154"><ele>46.0</ele><time>2026-05-05T14:06:47Z</time></trkpt><trkpt lat="45.96840036722883" lon="12.930503112679814"><ele>46.0</ele><time>2026-05-05T14:06:48Z</time></trkpt><trkpt lat="45.96843133468306" lon="12.930287841125379"><ele>46.0</ele><time>2026-05-05T14:06:49Z</time></trkpt><trkpt lat="45.96845984229441" lon="12.930081383001184"><ele>46.0</ele><time>2026-05-05T14:06:50Z</time></trkpt><trkpt lat="45.96848609670608" lon="12.929878852677296"><ele>46.0</ele><time>2026-05-05T14:06:51Z</time></trkpt><trkpt lat="45.96851064445251" lon="12.9296768849878"><ele>46.0</ele><time>2026-05-05T14:06:52Z</time></trkpt><trkpt lat="45.96853435096327" lon="12.929478696950993"><ele>46.0</ele><time>2026-05-05T14:06:53Z</time></trkpt><trkpt lat="45.96855630995645" lon="12.929287456455116"><ele>46.0</ele><time>2026-05-05T14:06:54Z</time></trkpt><trkpt lat="45.96857727955517" lon="12.929096956959828"><ele>46.0</ele><time>2026-05-05T14:06:55Z</time></trkpt><trkpt lat="45.96860060349619" lon="12.928910079072658"><ele>46.0</ele><time>2026-05-05T14:06:56Z</time></trkpt><trkpt lat="45.9686217822822" lon="12.928733288945711"><ele>46.0</ele><time>2026-05-05T14:06:57Z</time></trkpt><trkpt lat="45.96864260221072" lon="12.92856784306313"><ele>46.0</ele><time>2026-05-05T14:06:58Z</time></trkpt><trkpt lat="45.9686638387361" lon="12.928415040036962"><ele>46.0</ele><time>2026-05-05T14:06:59Z</time></trkpt><trkpt lat="45.96868345320322" lon="12.928273680562665"><ele>46.0</ele><time>2026-05-05T14:07:00Z</time></trkpt><trkpt lat="45.968703736056234" lon="12.928135834058676"><ele>46.0</ele><time>2026-05-05T14:07:01Z</time></trkpt><trkpt lat="45.96872715918029" lon="12.927996206518042"><ele>46.0</ele><time>2026-05-05T14:07:02Z</time></trkpt><trkpt lat="45.96874974059378" lon="12.927861079590215"><ele>46.0</ele><time>2026-05-05T14:07:03Z</time></trkpt><trkpt lat="45.96877402952675" lon="12.927743272772437"><ele>46.0</ele><time>2026-05-05T14:07:04Z</time></trkpt><trkpt lat="45.96880779522445" lon="12.927638583759522"><ele>46.0</ele><time>2026-05-05T14:07:05Z</time></trkpt><trkpt lat="45.96885419242126" lon="12.927543287020791"><ele>46.0</ele><time>2026-05-05T14:07:06Z</time></trkpt><trkpt lat="45.968907748882316" lon="12.927448443530512"><ele>46.0</ele><time>2026-05-05T14:07:07Z</time></trkpt><trkpt lat="45.96896301975807" lon="12.927357645525914"><ele>46.0</ele><time>2026-05-05T14:07:08Z</time></trkpt><trkpt lat="45.96899878738741" lon="12.92724762289975"><ele>46.333333333333336</ele><time>2026-05-05T14:07:09Z</time></trkpt><trkpt lat="45.969009814932626" lon="12.927126527284175"><ele>46.66666666666667</ele><time>2026-05-05T14:07:10Z</time></trkpt><trkpt lat="45.968998090702414" lon="12.927009321160178"><ele>47.0</ele><time>2026-05-05T14:07:11Z</time></trkpt><trkpt lat="45.96895179521213" lon="12.92690996205541"><ele>47.333333333333336</ele><time>2026-05-05T14:07:12Z</time></trkpt><trkpt lat="45.96889023565668" lon="12.926832375238982"><ele>47.666666666666664</ele><time>2026-05-05T14:07:13Z</time></trkpt><trkpt lat="45.968823410696956" lon="12.926752442138362"><ele>48.0</ele><time>2026-05-05T14:07:14Z</time></trkpt><trkpt lat="45.96876723456093" lon="12.92664922393911"><ele>48.0</ele><time>2026-05-05T14:07:15Z</time></trkpt><trkpt lat="45.96872149350084" lon="12.926528216098994"><ele>48.0</ele><time>2026-05-05T14:07:16Z</time></trkpt><trkpt lat="45.96868334327339" lon="12.926395091840124"><ele>48.0</ele><time>2026-05-05T14:07:17Z</time></trkpt><trkpt lat="45.9686470210428" lon="12.926257573263007"><ele>48.0</ele><time>2026-05-05T14:07:18Z</time></trkpt><trkpt lat="45.9686116553201" lon="12.926109269284197"><ele>48.0</ele><time>2026-05-05T14:07:19Z</time></trkpt><trkpt lat="45.96858215005228" lon="12.925951456186773"><ele>47.75</ele><time>2026-05-05T14:07:20Z</time></trkpt><trkpt lat="45.96855219245306" lon="12.925796076136493"><ele>47.5</ele><time>2026-05-05T14:07:21Z</time></trkpt><trkpt lat="45.968523740515295" lon="12.925640483767868"><ele>47.25</ele><time>2026-05-05T14:07:22Z</time></trkpt><trkpt lat="45.96848875318804" lon="12.925471950330552"><ele>47.0</ele><time>2026-05-05T14:07:23Z</time></trkpt><trkpt lat="45.96845237105283" lon="12.925296089770276"><ele>47.0</ele><time>2026-05-05T14:07:24Z</time></trkpt><trkpt lat="45.96841397332588" lon="12.925113771101154"><ele>47.0</ele><time>2026-05-05T14:07:25Z</time></trkpt><trkpt lat="45.96837365990436" lon="12.924921230355094"><ele>47.0</ele><time>2026-05-05T14:07:26Z</time></trkpt><trkpt lat="45.96833361566639" lon="12.924719323660927"><ele>47.0</ele><time>2026-05-05T14:07:27Z</time></trkpt><trkpt lat="45.968286516196464" lon="12.924509408236768"><ele>47.0</ele><time>2026-05-05T14:07:28Z</time></trkpt><trkpt lat="45.96823289912379" lon="12.924299911337537"><ele>47.0</ele><time>2026-05-05T14:07:29Z</time></trkpt><trkpt lat="45.96817564916452" lon="12.92409175693978"><ele>47.0</ele><time>2026-05-05T14:07:30Z</time></trkpt><trkpt lat="45.9681172590122" lon="12.923883305394616"><ele>46.666666666666664</ele><time>2026-05-05T14:07:31Z</time></trkpt><trkpt lat="45.968059578588864" lon="12.923678655427928"><ele>46.333333333333336</ele><time>2026-05-05T14:07:32Z</time></trkpt><trkpt lat="45.96799890662444" lon="12.92347276769387"><ele>46.0</ele><time>2026-05-05T14:07:33Z</time></trkpt><trkpt lat="45.967936724517514" lon="12.923263974955125"><ele>45.66666666666667</ele><time>2026-05-05T14:07:34Z</time></trkpt><trkpt lat="45.96787520792959" lon="12.923053211950354"><ele>45.333333333333336</ele><time>2026-05-05T14:07:35Z</time></trkpt><trkpt lat="45.96781313149557" lon="12.92283945452407"><ele>45.0</ele><time>2026-05-05T14:07:36Z</time></trkpt><trkpt lat="45.96775153903734" lon="12.922620551539893"><ele>44.333333333333336</ele><time>2026-05-05T14:07:37Z</time></trkpt><trkpt lat="45.96768821984155" lon="12.92239664254995"><ele>43.66666666666667</ele><time>2026-05-05T14:07:38Z</time></trkpt><trkpt lat="45.967622558668296" lon="12.922169659737797"><ele>43.0</ele><time>2026-05-05T14:07:39Z</time></trkpt><trkpt lat="45.9675587052591" lon="12.921938328586904"><ele>44.333333333333336</ele><time>2026-05-05T14:07:40Z</time></trkpt><trkpt lat="45.967491176142076" lon="12.921705028141119"><ele>45.666666666666664</ele><time>2026-05-05T14:07:41Z</time></trkpt><trkpt lat="45.967427892669726" lon="12.921467581724745"><ele>47.0</ele><time>2026-05-05T14:07:42Z</time></trkpt><trkpt lat="45.96736090243064" lon="12.92122859669012"><ele>47.0</ele><time>2026-05-05T14:07:43Z</time></trkpt><trkpt lat="45.96729518761118" lon="12.921006617382687"><ele>47.0</ele><time>2026-05-05T14:07:44Z</time></trkpt><trkpt lat="45.967232357004825" lon="12.920792887455192"><ele>47.0</ele><time>2026-05-05T14:07:45Z</time></trkpt><trkpt lat="45.967171640188944" lon="12.920579560507083"><ele>47.0</ele><time>2026-05-05T14:07:46Z</time></trkpt><trkpt lat="45.96711081627533" lon="12.920365191998592"><ele>47.0</ele><time>2026-05-05T14:07:47Z</time></trkpt><trkpt lat="45.96705082973841" lon="12.920150223435746"><ele>47.0</ele><time>2026-05-05T14:07:48Z</time></trkpt><trkpt lat="45.966987718918304" lon="12.919931224600283"><ele>47.0</ele><time>2026-05-05T14:07:49Z</time></trkpt><trkpt lat="45.96692590081126" lon="12.919716728090982"><ele>47.0</ele><time>2026-05-05T14:07:50Z</time></trkpt><trkpt lat="45.96686546016944" lon="12.919503983158776"><ele>47.0</ele><time>2026-05-05T14:07:51Z</time></trkpt><trkpt lat="45.9668038258484" lon="12.919292513810666"><ele>47.33333333333333</ele><time>2026-05-05T14:07:52Z</time></trkpt><trkpt lat="45.96674401470903" lon="12.919082577259875"><ele>47.666666666666664</ele><time>2026-05-05T14:07:53Z</time></trkpt><trkpt lat="45.96668545975614" lon="12.91887510029589"><ele>48.0</ele><time>2026-05-05T14:07:54Z</time></trkpt><trkpt lat="45.966625718245226" lon="12.918666485926881"><ele>47.333333333333336</ele><time>2026-05-05T14:07:55Z</time></trkpt><trkpt lat="45.96656622934017" lon="12.918453599120788"><ele>46.66666666666667</ele><time>2026-05-05T14:07:56Z</time></trkpt><trkpt lat="45.96650431807273" lon="12.918237013311588"><ele>46.0</ele><time>2026-05-05T14:07:57Z</time></trkpt><trkpt lat="45.96644142486546" lon="12.918019451329096"><ele>45.66666666666667</ele><time>2026-05-05T14:07:58Z</time></trkpt><trkpt lat="45.96637951216114" lon="12.917801310915186"><ele>45.333333333333336</ele><time>2026-05-05T14:07:59Z</time></trkpt><trkpt lat="45.9663162317536" lon="12.917584405809915"><ele>45.0</ele><time>2026-05-05T14:08:00Z</time></trkpt><trkpt lat="45.9662538737116" lon="12.917369897011987"><ele>45.0</ele><time>2026-05-05T14:08:01Z</time></trkpt><trkpt lat="45.96619292374017" lon="12.917160517577816"><ele>45.0</ele><time>2026-05-05T14:08:02Z</time></trkpt><trkpt lat="45.96613342889032" lon="12.916946874934531"><ele>45.0</ele><time>2026-05-05T14:08:03Z</time></trkpt><trkpt lat="45.96607169710419" lon="12.916721468185221"><ele>45.0</ele><time>2026-05-05T14:08:04Z</time></trkpt><trkpt lat="45.966008005254174" lon="12.91648860644609"><ele>45.0</ele><time>2026-05-05T14:08:05Z</time></trkpt><trkpt lat="45.96594198562045" lon="12.916257700777509"><ele>45.0</ele><time>2026-05-05T14:08:06Z</time></trkpt><trkpt lat="45.96587794802863" lon="12.916030762173788"><ele>45.333333333333336</ele><time>2026-05-05T14:08:07Z</time></trkpt><trkpt lat="45.96581242044459" lon="12.915804229132924"><ele>45.66666666666667</ele><time>2026-05-05T14:08:08Z</time></trkpt><trkpt lat="45.96574636541327" lon="12.915580478636796"><ele>46.0</ele><time>2026-05-05T14:08:09Z</time></trkpt><trkpt lat="45.96568041624894" lon="12.915359758917019"><ele>46.0</ele><time>2026-05-05T14:08:10Z</time></trkpt><trkpt lat="45.965611431506076" lon="12.91514905254846"><ele>46.0</ele><time>2026-05-05T14:08:11Z</time></trkpt><trkpt lat="45.965538987089346" lon="12.91494418764864"><ele>46.0</ele><time>2026-05-05T14:08:12Z</time></trkpt><trkpt lat="45.96546385174287" lon="12.914742223141905"><ele>45.66666666666667</ele><time>2026-05-05T14:08:13Z</time></trkpt><trkpt lat="45.96538939123871" lon="12.914548227071453"><ele>45.333333333333336</ele><time>2026-05-05T14:08:14Z</time></trkpt><trkpt lat="45.965316172442236" lon="12.914353747023355"><ele>45.0</ele><time>2026-05-05T14:08:15Z</time></trkpt><trkpt lat="45.96524318773576" lon="12.914153770075272"><ele>44.666666666666664</ele><time>2026-05-05T14:08:16Z</time></trkpt><trkpt lat="45.965170764663156" lon="12.913943173730999"><ele>44.33333333333333</ele><time>2026-05-05T14:08:17Z</time></trkpt><trkpt lat="45.965099919936755" lon="12.913727078463513"><ele>44.0</ele><time>2026-05-05T14:08:18Z</time></trkpt><trkpt lat="45.96503044676201" lon="12.913505795767206"><ele>44.33333333333333</ele><time>2026-05-05T14:08:19Z</time></trkpt><trkpt lat="45.96496414025185" lon="12.913279857838667"><ele>44.666666666666664</ele><time>2026-05-05T14:08:20Z</time></trkpt><trkpt lat="45.96490246017805" lon="12.913047446310967"><ele>45.0</ele><time>2026-05-05T14:08:21Z</time></trkpt><trkpt lat="45.96484563178891" lon="12.912810474027216"><ele>45.333333333333336</ele><time>2026-05-05T14:08:22Z</time></trkpt><trkpt lat="45.964794557454645" lon="12.912567841067496"><ele>45.66666666666667</ele><time>2026-05-05T14:08:23Z</time></trkpt><trkpt lat="45.96475132450745" lon="12.912322906482622"><ele>46.0</ele><time>2026-05-05T14:08:24Z</time></trkpt><trkpt lat="45.964715115682274" lon="12.912075560245926"><ele>46.0</ele><time>2026-05-05T14:08:25Z</time></trkpt><trkpt lat="45.96468899495571" lon="12.911829073252857"><ele>46.0</ele><time>2026-05-05T14:08:26Z</time></trkpt><trkpt lat="45.964667032397735" lon="12.911579498207725"><ele>46.0</ele><time>2026-05-05T14:08:27Z</time></trkpt><trkpt lat="45.96465213050858" lon="12.911329336753171"><ele>46.66666666666667</ele><time>2026-05-05T14:08:28Z</time></trkpt><trkpt lat="45.96464261370357" lon="12.91107814959562"><ele>47.333333333333336</ele><time>2026-05-05T14:08:29Z</time></trkpt><trkpt lat="45.96464002129038" lon="12.910825557175414"><ele>48.0</ele><time>2026-05-05T14:08:30Z</time></trkpt><trkpt lat="45.96464076971725" lon="12.910567835544938"><ele>48.0</ele><time>2026-05-05T14:08:31Z</time></trkpt><trkpt lat="45.96464428320073" lon="12.910308148967792"><ele>48.0</ele><time>2026-05-05T14:08:32Z</time></trkpt><trkpt lat="45.96465419111363" lon="12.910041383614795"><ele>48.0</ele><time>2026-05-05T14:08:33Z</time></trkpt><trkpt lat="45.96466690759367" lon="12.909772810370338"><ele>47.666666666666664</ele><time>2026-05-05T14:08:34Z</time></trkpt><trkpt lat="45.964680430398644" lon="12.90951076413688"><ele>47.33333333333333</ele><time>2026-05-05T14:08:35Z</time></trkpt><trkpt lat="45.96469447773941" lon="12.909244342909565"><ele>47.0</ele><time>2026-05-05T14:08:36Z</time></trkpt><trkpt lat="45.964705043098476" lon="12.908979922553318"><ele>46.0</ele><time>2026-05-05T14:08:37Z</time></trkpt><trkpt lat="45.96471260981341" lon="12.908717946641882"><ele>45.0</ele><time>2026-05-05T14:08:38Z</time></trkpt><trkpt lat="45.9647197547618" lon="12.908458167818246"><ele>44.0</ele><time>2026-05-05T14:08:39Z</time></trkpt><trkpt lat="45.96473466795688" lon="12.9081927195115"><ele>44.0</ele><time>2026-05-05T14:08:40Z</time></trkpt><trkpt lat="45.964746571314514" lon="12.907927500598614"><ele>44.0</ele><time>2026-05-05T14:08:41Z</time></trkpt><trkpt lat="45.96475713412374" lon="12.907656846821311"><ele>44.0</ele><time>2026-05-05T14:08:42Z</time></trkpt><trkpt lat="45.96476937734383" lon="12.907382054768519"><ele>43.666666666666664</ele><time>2026-05-05T14:08:43Z</time></trkpt><trkpt lat="45.96477884150755" lon="12.907102997410147"><ele>43.333333333333336</ele><time>2026-05-05T14:08:44Z</time></trkpt><trkpt lat="45.9647903369756" lon="12.906816675151202"><ele>43.0</ele><time>2026-05-05T14:08:45Z</time></trkpt><trkpt lat="45.964802112540525" lon="12.906530022572532"><ele>42.66666666666667</ele><time>2026-05-05T14:08:46Z</time></trkpt><trkpt lat="45.96481411691564" lon="12.906245783411572"><ele>42.333333333333336</ele><time>2026-05-05T14:08:47Z</time></trkpt><trkpt lat="45.96482664506847" lon="12.905960297810767"><ele>42.0</ele><time>2026-05-05T14:08:48Z</time></trkpt><trkpt lat="45.964840566144" lon="12.905673416521632"><ele>43.333333333333336</ele><time>2026-05-05T14:08:49Z</time></trkpt><trkpt lat="45.9648533160338" lon="12.905388695605108"><ele>44.66666666666667</ele><time>2026-05-05T14:08:50Z</time></trkpt><trkpt lat="45.96486421481868" lon="12.905107942230526"><ele>46.0</ele><time>2026-05-05T14:08:51Z</time></trkpt><trkpt lat="45.964875253370366" lon="12.904828098883792"><ele>46.333333333333336</ele><time>2026-05-05T14:08:52Z</time></trkpt><trkpt lat="45.96488780681046" lon="12.904550247457811"><ele>46.666666666666664</ele><time>2026-05-05T14:08:53Z</time></trkpt><trkpt lat="45.96489970010618" lon="12.904274490583731"><ele>47.0</ele><time>2026-05-05T14:08:54Z</time></trkpt><trkpt lat="45.96491177856076" lon="12.90400277080186"><ele>46.33333333333333</ele><time>2026-05-05T14:08:55Z</time></trkpt><trkpt lat="45.96492066893864" lon="12.903734474530872"><ele>45.666666666666664</ele><time>2026-05-05T14:08:56Z</time></trkpt><trkpt lat="45.96493086805678" lon="12.903472094805425"><ele>45.0</ele><time>2026-05-05T14:08:57Z</time></trkpt><trkpt lat="45.96494291415085" lon="12.903213660962166"><ele>44.666666666666664</ele><time>2026-05-05T14:08:58Z</time></trkpt><trkpt lat="45.964953312555" lon="12.902955216565385"><ele>44.33333333333333</ele><time>2026-05-05T14:08:59Z</time></trkpt><trkpt lat="45.96496455822262" lon="12.902697996278611"><ele>44.0</ele><time>2026-05-05T14:09:00Z</time></trkpt><trkpt lat="45.96497607233709" lon="12.902443141982683"><ele>43.666666666666664</ele><time>2026-05-05T14:09:01Z</time></trkpt><trkpt lat="45.96498938470731" lon="12.90218861731443"><ele>43.333333333333336</ele><time>2026-05-05T14:09:02Z</time></trkpt><trkpt lat="45.965001726423274" lon="12.90193281711004"><ele>43.0</ele><time>2026-05-05T14:09:03Z</time></trkpt><trkpt lat="45.96501184658438" lon="12.901677444390504"><ele>43.0</ele><time>2026-05-05T14:09:04Z</time></trkpt><trkpt lat="45.965022865878026" lon="12.901423455461902"><ele>43.0</ele><time>2026-05-05T14:09:05Z</time></trkpt><trkpt lat="45.96503136709759" lon="12.90116726816112"><ele>43.0</ele><time>2026-05-05T14:09:06Z</time></trkpt><trkpt lat="45.96504283650013" lon="12.900914420175173"><ele>43.333333333333336</ele><time>2026-05-05T14:09:07Z</time></trkpt><trkpt lat="45.96505351571484" lon="12.90066360342582"><ele>43.666666666666664</ele><time>2026-05-05T14:09:08Z</time></trkpt><trkpt lat="45.96506434983096" lon="12.90041072701177"><ele>44.0</ele><time>2026-05-05T14:09:09Z</time></trkpt><trkpt lat="45.96507768360262" lon="12.900159680980147"><ele>44.0</ele><time>2026-05-05T14:09:10Z</time></trkpt><trkpt lat="45.96508980199981" lon="12.899907606420923"><ele>44.0</ele><time>2026-05-05T14:09:11Z</time></trkpt><trkpt lat="45.965099788387725" lon="12.899652232375491"><ele>44.0</ele><time>2026-05-05T14:09:12Z</time></trkpt><trkpt lat="45.96510988416203" lon="12.899394216791045"><ele>44.33333333333333</ele><time>2026-05-05T14:09:13Z</time></trkpt><trkpt lat="45.96512096811609" lon="12.899136060328262"><ele>44.666666666666664</ele><time>2026-05-05T14:09:14Z</time></trkpt><trkpt lat="45.965132387206864" lon="12.898875729968283"><ele>45.0</ele><time>2026-05-05T14:09:15Z</time></trkpt><trkpt lat="45.965142933237466" lon="12.898613163556492"><ele>45.666666666666664</ele><time>2026-05-05T14:09:16Z</time></trkpt><trkpt lat="45.96515520889735" lon="12.89834903983882"><ele>46.33333333333333</ele><time>2026-05-05T14:09:17Z</time></trkpt><trkpt lat="45.96516445050325" lon="12.898084373318568"><ele>47.0</ele><time>2026-05-05T14:09:18Z</time></trkpt><trkpt lat="45.96517700470876" lon="12.897818061310874"><ele>47.0</ele><time>2026-05-05T14:09:19Z</time></trkpt><trkpt lat="45.96518987041621" lon="12.897551674909646"><ele>47.0</ele><time>2026-05-05T14:09:20Z</time></trkpt><trkpt lat="45.96520084669941" lon="12.897288234502053"><ele>47.0</ele><time>2026-05-05T14:09:21Z</time></trkpt><trkpt lat="45.96521139287886" lon="12.89702698311185"><ele>47.0</ele><time>2026-05-05T14:09:22Z</time></trkpt><trkpt lat="45.965223415386674" lon="12.8967692408262"><ele>47.0</ele><time>2026-05-05T14:09:23Z</time></trkpt><trkpt lat="45.9652335745482" lon="12.896518041515565"><ele>47.0</ele><time>2026-05-05T14:09:24Z</time></trkpt><trkpt lat="45.965238946607656" lon="12.896271444911658"><ele>46.666666666666664</ele><time>2026-05-05T14:09:25Z</time></trkpt><trkpt lat="45.965240555112466" lon="12.89602631569543"><ele>46.333333333333336</ele><time>2026-05-05T14:09:26Z</time></trkpt><trkpt lat="45.9652364136725" lon="12.895778422914775"><ele>46.0</ele><time>2026-05-05T14:09:27Z</time></trkpt><trkpt lat="45.96522791913425" lon="12.895529872016338"><ele>45.66666666666667</ele><time>2026-05-05T14:09:28Z</time></trkpt><trkpt lat="45.9652160027548" lon="12.895279317933896"><ele>45.333333333333336</ele><time>2026-05-05T14:09:29Z</time></trkpt><trkpt lat="45.965198531856494" lon="12.895021766931537"><ele>45.0</ele><time>2026-05-05T14:09:30Z</time></trkpt><trkpt lat="45.96517875477956" lon="12.894760289404793"><ele>45.0</ele><time>2026-05-05T14:09:31Z</time></trkpt><trkpt lat="45.96515112165047" lon="12.89449695451312"><ele>45.0</ele><time>2026-05-05T14:09:32Z</time></trkpt><trkpt lat="45.965122721496996" lon="12.894229614865296"><ele>45.0</ele><time>2026-05-05T14:09:33Z</time></trkpt><trkpt lat="45.96508982654177" lon="12.89397098932049"><ele>45.333333333333336</ele><time>2026-05-05T14:09:34Z</time></trkpt><trkpt lat="45.96505021989959" lon="12.893719922758395"><ele>45.66666666666667</ele><time>2026-05-05T14:09:35Z</time></trkpt><trkpt lat="45.96500938052372" lon="12.893464394635291"><ele>46.0</ele><time>2026-05-05T14:09:36Z</time></trkpt><trkpt lat="45.9649662009792" lon="12.893215329231385"><ele>46.0</ele><time>2026-05-05T14:09:37Z</time></trkpt><trkpt lat="45.9649154769618" lon="12.89297283691132"><ele>46.0</ele><time>2026-05-05T14:09:38Z</time></trkpt><trkpt lat="45.96486149407691" lon="12.892732699030107"><ele>46.0</ele><time>2026-05-05T14:09:39Z</time></trkpt><trkpt lat="45.96480134710342" lon="12.892494399201262"><ele>46.0</ele><time>2026-05-05T14:09:40Z</time></trkpt><trkpt lat="45.96473575917378" lon="12.892258717450195"><ele>46.0</ele><time>2026-05-05T14:09:41Z</time></trkpt><trkpt lat="45.964666844901394" lon="12.892023425103062"><ele>46.0</ele><time>2026-05-05T14:09:42Z</time></trkpt><trkpt lat="45.964595943129545" lon="12.891788096514395"><ele>46.0</ele><time>2026-05-05T14:09:43Z</time></trkpt><trkpt lat="45.96452595907054" lon="12.891551218302425"><ele>46.0</ele><time>2026-05-05T14:09:44Z</time></trkpt><trkpt lat="45.964449110347836" lon="12.891312339889271"><ele>46.0</ele><time>2026-05-05T14:09:45Z</time></trkpt><trkpt lat="45.96437292322321" lon="12.89107329896467"><ele>45.66666666666667</ele><time>2026-05-05T14:09:46Z</time></trkpt><trkpt lat="45.964296336828276" lon="12.890831254227416"><ele>45.333333333333336</ele><time>2026-05-05T14:09:47Z</time></trkpt><trkpt lat="45.96422335883554" lon="12.890584792160201"><ele>45.0</ele><time>2026-05-05T14:09:48Z</time></trkpt><trkpt lat="45.9641546216768" lon="12.890332877828977"><ele>44.666666666666664</ele><time>2026-05-05T14:09:49Z</time></trkpt><trkpt lat="45.964095694858536" lon="12.890074268138743"><ele>44.33333333333333</ele><time>2026-05-05T14:09:50Z</time></trkpt><trkpt lat="45.96404146499066" lon="12.889811312797812"><ele>44.0</ele><time>2026-05-05T14:09:51Z</time></trkpt><trkpt lat="45.96398662225033" lon="12.889548626721085"><ele>44.0</ele><time>2026-05-05T14:09:52Z</time></trkpt><trkpt lat="45.96393483727722" lon="12.889283702561963"><ele>44.0</ele><time>2026-05-05T14:09:53Z</time></trkpt><trkpt lat="45.96388143784283" lon="12.889015330592702"><ele>44.0</ele><time>2026-05-05T14:09:54Z</time></trkpt><trkpt lat="45.963828837665794" lon="12.888745831274722"><ele>44.33333333333333</ele><time>2026-05-05T14:09:55Z</time></trkpt><trkpt lat="45.963775694307046" lon="12.888474471715426"><ele>44.666666666666664</ele><time>2026-05-05T14:09:56Z</time></trkpt><trkpt lat="45.9637210440741" lon="12.888200137244768"><ele>45.0</ele><time>2026-05-05T14:09:57Z</time></trkpt><trkpt lat="45.963667416184066" lon="12.88792687560423"><ele>45.0</ele><time>2026-05-05T14:09:58Z</time></trkpt><trkpt lat="45.963611846061355" lon="12.887655876675442"><ele>45.0</ele><time>2026-05-05T14:09:59Z</time></trkpt><trkpt lat="45.96355590786009" lon="12.887378633784987"><ele>45.0</ele><time>2026-05-05T14:10:00Z</time></trkpt><trkpt lat="45.963497253480725" lon="12.887104225765286"><ele>45.0</ele><time>2026-05-05T14:10:01Z</time></trkpt><trkpt lat="45.96344369896457" lon="12.886832818652762"><ele>45.0</ele><time>2026-05-05T14:10:02Z</time></trkpt><trkpt lat="45.96339738074071" lon="12.886575539599749"><ele>45.0</ele><time>2026-05-05T14:10:03Z</time></trkpt><trkpt lat="45.96334547092991" lon="12.886299542908457"><ele>45.0</ele><time>2026-05-05T14:10:04Z</time></trkpt><trkpt lat="45.963295711781576" lon="12.886043494645602"><ele>45.0</ele><time>2026-05-05T14:10:05Z</time></trkpt><trkpt lat="45.963247379913945" lon="12.885791702603083"><ele>45.0</ele><time>2026-05-05T14:10:06Z</time></trkpt><trkpt lat="45.96320097960258" lon="12.885531096784502"><ele>45.0</ele><time>2026-05-05T14:10:07Z</time></trkpt><trkpt lat="45.963157543124076" lon="12.885270456475634"><ele>45.0</ele><time>2026-05-05T14:10:08Z</time></trkpt><trkpt lat="45.96310587439065" lon="12.88501548532643"><ele>45.0</ele><time>2026-05-05T14:10:09Z</time></trkpt><trkpt lat="45.96305865418732" lon="12.884746445613029"><ele>45.0</ele><time>2026-05-05T14:10:10Z</time></trkpt><trkpt lat="45.96302830898375" lon="12.884472214347035"><ele>45.0</ele><time>2026-05-05T14:10:11Z</time></trkpt><trkpt lat="45.9630088671657" lon="12.884194310055227"><ele>45.0</ele><time>2026-05-05T14:10:12Z</time></trkpt><trkpt lat="45.962994581059235" lon="12.88391721111859"><ele>45.0</ele><time>2026-05-05T14:10:13Z</time></trkpt><trkpt lat="45.96297567860614" lon="12.883640183003955"><ele>45.0</ele><time>2026-05-05T14:10:14Z</time></trkpt><trkpt lat="45.962950761260586" lon="12.883360096048035"><ele>45.0</ele><time>2026-05-05T14:10:15Z</time></trkpt><trkpt lat="45.9629207495532" lon="12.88308009380661"><ele>45.0</ele><time>2026-05-05T14:10:16Z</time></trkpt><trkpt lat="45.962883935417665" lon="12.882803993875996"><ele>45.0</ele><time>2026-05-05T14:10:17Z</time></trkpt><trkpt lat="45.9628413534473" lon="12.882529076658194"><ele>45.0</ele><time>2026-05-05T14:10:18Z</time></trkpt><trkpt lat="45.962795780670334" lon="12.882257715162533"><ele>44.666666666666664</ele><time>2026-05-05T14:10:19Z</time></trkpt><trkpt lat="45.96274508453504" lon="12.88198840879066"><ele>44.33333333333333</ele><time>2026-05-05T14:10:20Z</time></trkpt><trkpt lat="45.962693504194455" lon="12.881721886721998"><ele>44.0</ele><time>2026-05-05T14:10:21Z</time></trkpt><trkpt lat="45.9626400998438" lon="12.881454560519595"><ele>43.666666666666664</ele><time>2026-05-05T14:10:22Z</time></trkpt><trkpt lat="45.9625854860595" lon="12.881186668264979"><ele>43.333333333333336</ele><time>2026-05-05T14:10:23Z</time></trkpt><trkpt lat="45.96253240464967" lon="12.88091756388359"><ele>43.0</ele><time>2026-05-05T14:10:24Z</time></trkpt><trkpt lat="45.96248365569429" lon="12.880648164021954"><ele>43.0</ele><time>2026-05-05T14:10:25Z</time></trkpt><trkpt lat="45.96243346112922" lon="12.880380182299424"><ele>43.0</ele><time>2026-05-05T14:10:26Z</time></trkpt><trkpt lat="45.962380052837084" lon="12.880112580376142"><ele>43.0</ele><time>2026-05-05T14:10:27Z</time></trkpt><trkpt lat="45.9623252682743" lon="12.879847883869855"><ele>43.0</ele><time>2026-05-05T14:10:28Z</time></trkpt><trkpt lat="45.9622683598309" lon="12.879583163224003"><ele>43.0</ele><time>2026-05-05T14:10:29Z</time></trkpt><trkpt lat="45.96221215194934" lon="12.879317567177162"><ele>43.0</ele><time>2026-05-05T14:10:30Z</time></trkpt><trkpt lat="45.96216182917583" lon="12.879049930861248"><ele>43.0</ele><time>2026-05-05T14:10:31Z</time></trkpt><trkpt lat="45.96210567542023" lon="12.878782280615885"><ele>43.0</ele><time>2026-05-05T14:10:32Z</time></trkpt><trkpt lat="45.9620542945874" lon="12.878514768929467"><ele>43.0</ele><time>2026-05-05T14:10:33Z</time></trkpt><trkpt lat="45.962000731295504" lon="12.878245893744063"><ele>43.333333333333336</ele><time>2026-05-05T14:10:34Z</time></trkpt><trkpt lat="45.96194553187845" lon="12.877978442047679"><ele>43.666666666666664</ele><time>2026-05-05T14:10:35Z</time></trkpt><trkpt lat="45.961891061693144" lon="12.877710961225272"><ele>44.0</ele><time>2026-05-05T14:10:36Z</time></trkpt><trkpt lat="45.961837553292135" lon="12.877447451436144"><ele>44.0</ele><time>2026-05-05T14:10:37Z</time></trkpt><trkpt lat="45.9617884401743" lon="12.877203201973286"><ele>44.0</ele><time>2026-05-05T14:10:38Z</time></trkpt><trkpt lat="45.96173941009273" lon="12.876970952550442"><ele>44.0</ele><time>2026-05-05T14:10:39Z</time></trkpt><trkpt lat="45.961696009927444" lon="12.87675947382316"><ele>44.25</ele><time>2026-05-05T14:10:40Z</time></trkpt><trkpt lat="45.96165763737924" lon="12.8765609651361"><ele>44.5</ele><time>2026-05-05T14:10:41Z</time></trkpt><trkpt lat="45.96161941737291" lon="12.876356138937172"><ele>44.75</ele><time>2026-05-05T14:10:42Z</time></trkpt><trkpt lat="45.96158120036894" lon="12.876156136689469"><ele>45.0</ele><time>2026-05-05T14:10:43Z</time></trkpt><trkpt lat="45.961544078093745" lon="12.875967164668463"><ele>44.75</ele><time>2026-05-05T14:10:44Z</time></trkpt><trkpt lat="45.96150904166283" lon="12.875784258329572"><ele>44.5</ele><time>2026-05-05T14:10:45Z</time></trkpt><trkpt lat="45.96147404026871" lon="12.875600459081095"><ele>44.25</ele><time>2026-05-05T14:10:46Z</time></trkpt><trkpt lat="45.96144214758954" lon="12.875413800707573"><ele>44.0</ele><time>2026-05-05T14:10:47Z</time></trkpt><trkpt lat="45.96140712827897" lon="12.875229233664202"><ele>44.0</ele><time>2026-05-05T14:10:48Z</time></trkpt><trkpt lat="45.96137277660186" lon="12.875041524165413"><ele>44.0</ele><time>2026-05-05T14:10:49Z</time></trkpt><trkpt lat="45.96133719503447" lon="12.874854557327794"><ele>44.0</ele><time>2026-05-05T14:10:50Z</time></trkpt><trkpt lat="45.96129992501554" lon="12.874666720894831"><ele>44.0</ele><time>2026-05-05T14:10:51Z</time></trkpt><trkpt lat="45.96126316839679" lon="12.874478097439363"><ele>44.0</ele><time>2026-05-05T14:10:52Z</time></trkpt><trkpt lat="45.961227203233776" lon="12.874291985897392"><ele>44.0</ele><time>2026-05-05T14:10:53Z</time></trkpt><trkpt lat="45.96119235022633" lon="12.874111323393342"><ele>44.0</ele><time>2026-05-05T14:10:54Z</time></trkpt><trkpt lat="45.961157581470566" lon="12.87393070231888"><ele>44.0</ele><time>2026-05-05T14:10:55Z</time></trkpt><trkpt lat="45.96111952448887" lon="12.873749702305165"><ele>44.0</ele><time>2026-05-05T14:10:56Z</time></trkpt><trkpt lat="45.96107939014874" lon="12.873565446582164"><ele>44.0</ele><time>2026-05-05T14:10:57Z</time></trkpt><trkpt lat="45.961040242520625" lon="12.873380241063515"><ele>44.0</ele><time>2026-05-05T14:10:58Z</time></trkpt><trkpt lat="45.96100016067454" lon="12.873193836495771"><ele>44.0</ele><time>2026-05-05T14:10:59Z</time></trkpt><trkpt lat="45.96096147524551" lon="12.873006860287068"><ele>44.0</ele><time>2026-05-05T14:11:00Z</time></trkpt><trkpt lat="45.96092419342012" lon="12.872819900220117"><ele>44.0</ele><time>2026-05-05T14:11:01Z</time></trkpt><trkpt lat="45.96088865264532" lon="12.872635687333437"><ele>44.0</ele><time>2026-05-05T14:11:02Z</time></trkpt><trkpt lat="45.96085088695664" lon="12.872450288333399"><ele>44.0</ele><time>2026-05-05T14:11:03Z</time></trkpt><trkpt lat="45.96081269381553" lon="12.872267948843716"><ele>44.0</ele><time>2026-05-05T14:11:04Z</time></trkpt><trkpt lat="45.96077533187898" lon="12.872084507424464"><ele>44.0</ele><time>2026-05-05T14:11:05Z</time></trkpt><trkpt lat="45.96073956232895" lon="12.871901584535872"><ele>44.0</ele><time>2026-05-05T14:11:06Z</time></trkpt><trkpt lat="45.96070346660007" lon="12.87172149915499"><ele>44.0</ele><time>2026-05-05T14:11:07Z</time></trkpt><trkpt lat="45.96067124612408" lon="12.87155290599137"><ele>44.0</ele><time>2026-05-05T14:11:08Z</time></trkpt><trkpt lat="45.960641689785376" lon="12.871398042650249"><ele>44.0</ele><time>2026-05-05T14:11:09Z</time></trkpt><trkpt lat="45.96061377641856" lon="12.871254857921903"><ele>44.0</ele><time>2026-05-05T14:11:10Z</time></trkpt><trkpt lat="45.96058990546584" lon="12.871121182754871"><ele>44.0</ele><time>2026-05-05T14:11:11Z</time></trkpt><trkpt lat="45.96056761951348" lon="12.871001900806503"><ele>44.0</ele><time>2026-05-05T14:11:12Z</time></trkpt><trkpt lat="45.96054948102224" lon="12.870902402447669"><ele>44.0</ele><time>2026-05-05T14:11:13Z</time></trkpt><trkpt lat="45.960534327609544" lon="12.870810731582717"><ele>44.0</ele><time>2026-05-05T14:11:14Z</time></trkpt><trkpt lat="45.96052020608879" lon="12.87071607767477"><ele>44.0</ele><time>2026-05-05T14:11:15Z</time></trkpt><trkpt lat="45.960511432447085" lon="12.870617302062511"><ele>44.0</ele><time>2026-05-05T14:11:16Z</time></trkpt><trkpt lat="45.96051385725114" lon="12.870515667298852"><ele>44.0</ele><time>2026-05-05T14:11:17Z</time></trkpt><trkpt lat="45.96052351034589" lon="12.870413243630273"><ele>44.0</ele><time>2026-05-05T14:11:18Z</time></trkpt><trkpt lat="45.96054245398617" lon="12.87031432267815"><ele>44.0</ele><time>2026-05-05T14:11:19Z</time></trkpt><trkpt lat="45.96055549212315" lon="12.870212559220018"><ele>44.0</ele><time>2026-05-05T14:11:20Z</time></trkpt><trkpt lat="45.96054784666026" lon="12.87011183518813"><ele>44.0</ele><time>2026-05-05T14:11:21Z</time></trkpt><trkpt lat="45.960518023965506" lon="12.870016792174333"><ele>44.0</ele><time>2026-05-05T14:11:22Z</time></trkpt><trkpt lat="45.96046907652619" lon="12.869928211936301"><ele>44.0</ele><time>2026-05-05T14:11:23Z</time></trkpt><trkpt lat="45.960411094015136" lon="12.869842920283856"><ele>44.0</ele><time>2026-05-05T14:11:24Z</time></trkpt><trkpt lat="45.960352107019446" lon="12.869750004743688"><ele>44.0</ele><time>2026-05-05T14:11:25Z</time></trkpt><trkpt lat="45.960309547181296" lon="12.869632677932012"><ele>44.0</ele><time>2026-05-05T14:11:26Z</time></trkpt><trkpt lat="45.960273101905244" lon="12.869503230615823"><ele>44.0</ele><time>2026-05-05T14:11:27Z</time></trkpt><trkpt lat="45.96024252361943" lon="12.869363963780698"><ele>44.0</ele><time>2026-05-05T14:11:28Z</time></trkpt><trkpt lat="45.96021134632258" lon="12.869212775728782"><ele>44.0</ele><time>2026-05-05T14:11:29Z</time></trkpt><trkpt lat="45.960179230348345" lon="12.869054119321692"><ele>44.0</ele><time>2026-05-05T14:11:30Z</time></trkpt><trkpt lat="45.96014745781576" lon="12.868884881481126"><ele>44.0</ele><time>2026-05-05T14:11:31Z</time></trkpt><trkpt lat="45.960112022880054" lon="12.868709987512776"><ele>44.0</ele><time>2026-05-05T14:11:32Z</time></trkpt><trkpt lat="45.960077892813004" lon="12.868527945812835"><ele>44.0</ele><time>2026-05-05T14:11:33Z</time></trkpt><trkpt lat="45.96004149966205" lon="12.868341352952212"><ele>44.0</ele><time>2026-05-05T14:11:34Z</time></trkpt><trkpt lat="45.960001420153816" lon="12.868145832986334"><ele>44.0</ele><time>2026-05-05T14:11:35Z</time></trkpt><trkpt lat="45.95996043122672" lon="12.867944105873429"><ele>44.0</ele><time>2026-05-05T14:11:36Z</time></trkpt><trkpt lat="45.959924094893175" lon="12.867733241597167"><ele>44.0</ele><time>2026-05-05T14:11:37Z</time></trkpt><trkpt lat="45.95988329940966" lon="12.867528527893924"><ele>44.0</ele><time>2026-05-05T14:11:38Z</time></trkpt><trkpt lat="45.959846589202954" lon="12.867332841554227"><ele>43.25</ele><time>2026-05-05T14:11:39Z</time></trkpt><trkpt lat="45.95981239596489" lon="12.867147780196628"><ele>42.5</ele><time>2026-05-05T14:11:40Z</time></trkpt><trkpt lat="45.95977592601537" lon="12.866970121819854"><ele>41.75</ele><time>2026-05-05T14:11:41Z</time></trkpt><trkpt lat="45.959741674832046" lon="12.866797549819475"><ele>41.0</ele><time>2026-05-05T14:11:42Z</time></trkpt><trkpt lat="45.9597104076388" lon="12.866634805581151"><ele>40.8</ele><time>2026-05-05T14:11:43Z</time></trkpt><trkpt lat="45.959687289861634" lon="12.866478987957057"><ele>40.599999999999994</ele><time>2026-05-05T14:11:44Z</time></trkpt><trkpt lat="45.959668735816415" lon="12.866338604330434"><ele>40.4</ele><time>2026-05-05T14:11:45Z</time></trkpt><trkpt lat="45.95965871167031" lon="12.866211640033795"><ele>40.2</ele><time>2026-05-05T14:11:46Z</time></trkpt><trkpt lat="45.95965454395401" lon="12.866073784857512"><ele>40.0</ele><time>2026-05-05T14:11:48Z</time></trkpt><trkpt lat="45.95965642887841" lon="12.865954364332907"><ele>40.16666666666667</ele><time>2026-05-05T14:11:50Z</time></trkpt><trkpt lat="45.959660525507985" lon="12.865789078081992"><ele>40.333333333333336</ele><time>2026-05-05T14:11:52Z</time></trkpt><trkpt lat="45.959677917255625" lon="12.865684505278642"><ele>40.5</ele><time>2026-05-05T14:11:53Z</time></trkpt><trkpt lat="45.959691138585335" lon="12.865577497668735"><ele>40.666666666666664</ele><time>2026-05-05T14:11:54Z</time></trkpt><trkpt lat="45.95967699159131" lon="12.865465419441435"><ele>40.83333333333333</ele><time>2026-05-05T14:11:55Z</time></trkpt><trkpt lat="45.95963963245332" lon="12.865363259522317"><ele>41.0</ele><time>2026-05-05T14:11:56Z</time></trkpt><trkpt lat="45.959584536866124" lon="12.865268301980894"><ele>41.0</ele><time>2026-05-05T14:11:57Z</time></trkpt><trkpt lat="45.95951212530336" lon="12.865175911339167"><ele>41.0</ele><time>2026-05-05T14:11:58Z</time></trkpt><trkpt lat="45.95944483809953" lon="12.865062460032663"><ele>41.0</ele><time>2026-05-05T14:11:59Z</time></trkpt><trkpt lat="45.95939086432594" lon="12.86492557193352"><ele>41.0</ele><time>2026-05-05T14:12:00Z</time></trkpt><trkpt lat="45.959335579191425" lon="12.864788147477624"><ele>41.0</ele><time>2026-05-05T14:12:01Z</time></trkpt><trkpt lat="45.95930972565495" lon="12.86460914178739"><ele>41.5</ele><time>2026-05-05T14:12:02Z</time></trkpt><trkpt lat="45.959269425937805" lon="12.864436938853558"><ele>42.0</ele><time>2026-05-05T14:12:03Z</time></trkpt><trkpt lat="45.95922762833426" lon="12.864257539357496"><ele>42.5</ele><time>2026-05-05T14:12:04Z</time></trkpt><trkpt lat="45.959187115402074" lon="12.864066282674912"><ele>43.0</ele><time>2026-05-05T14:12:05Z</time></trkpt><trkpt lat="45.95915088263989" lon="12.86387082052603"><ele>43.0</ele><time>2026-05-05T14:12:06Z</time></trkpt><trkpt lat="45.959111604448175" lon="12.863675013719327"><ele>43.0</ele><time>2026-05-05T14:12:07Z</time></trkpt><trkpt lat="45.95907200556482" lon="12.863474776994659"><ele>43.0</ele><time>2026-05-05T14:12:08Z</time></trkpt><trkpt lat="45.95903026976656" lon="12.863267993688455"><ele>43.0</ele><time>2026-05-05T14:12:09Z</time></trkpt><trkpt lat="45.95898991054096" lon="12.863057836541053"><ele>42.333333333333336</ele><time>2026-05-05T14:12:10Z</time></trkpt><trkpt lat="45.958945940517594" lon="12.862842613783043"><ele>41.666666666666664</ele><time>2026-05-05T14:12:11Z</time></trkpt><trkpt lat="45.95890181433635" lon="12.862622947436122"><ele>41.0</ele><time>2026-05-05T14:12:12Z</time></trkpt><trkpt lat="45.9588575365349" lon="12.86239760405822"><ele>41.0</ele><time>2026-05-05T14:12:13Z</time></trkpt><trkpt lat="45.95881383733698" lon="12.862168122345317"><ele>41.0</ele><time>2026-05-05T14:12:14Z</time></trkpt><trkpt lat="45.95876744498589" lon="12.861932573028408"><ele>41.0</ele><time>2026-05-05T14:12:15Z</time></trkpt><trkpt lat="45.958720475244256" lon="12.861692856360923"><ele>40.666666666666664</ele><time>2026-05-05T14:12:16Z</time></trkpt><trkpt lat="45.958677344017445" lon="12.86146413852386"><ele>40.333333333333336</ele><time>2026-05-05T14:12:17Z</time></trkpt><trkpt lat="45.958635743744225" lon="12.861243647993758"><ele>40.0</ele><time>2026-05-05T14:12:18Z</time></trkpt><trkpt lat="45.95859308054818" lon="12.861021075008306"><ele>40.333333333333336</ele><time>2026-05-05T14:12:19Z</time></trkpt><trkpt lat="45.95854662006987" lon="12.860798500805043"><ele>40.666666666666664</ele><time>2026-05-05T14:12:20Z</time></trkpt><trkpt lat="45.95850027402393" lon="12.860575386194412"><ele>41.0</ele><time>2026-05-05T14:12:21Z</time></trkpt><trkpt lat="45.95845526072007" lon="12.860353279611296"><ele>41.0</ele><time>2026-05-05T14:12:22Z</time></trkpt><trkpt lat="45.95841100815208" lon="12.860129751961583"><ele>41.0</ele><time>2026-05-05T14:12:23Z</time></trkpt><trkpt lat="45.958367257796525" lon="12.859906905709765"><ele>41.0</ele><time>2026-05-05T14:12:24Z</time></trkpt><trkpt lat="45.95832219149408" lon="12.859683017803203"><ele>41.0</ele><time>2026-05-05T14:12:25Z</time></trkpt><trkpt lat="45.958276296103314" lon="12.859458369058233"><ele>41.0</ele><time>2026-05-05T14:12:26Z</time></trkpt><trkpt lat="45.95823168256041" lon="12.859239578369328"><ele>41.0</ele><time>2026-05-05T14:12:27Z</time></trkpt><trkpt lat="45.958188596634926" lon="12.859022688015697"><ele>41.0</ele><time>2026-05-05T14:12:28Z</time></trkpt><trkpt lat="45.95814768969178" lon="12.858808199638231"><ele>41.0</ele><time>2026-05-05T14:12:29Z</time></trkpt><trkpt lat="45.95810593424594" lon="12.858593562754649"><ele>41.0</ele><time>2026-05-05T14:12:30Z</time></trkpt><trkpt lat="45.95806348035491" lon="12.858381344774092"><ele>40.75</ele><time>2026-05-05T14:12:31Z</time></trkpt><trkpt lat="45.958022119404774" lon="12.858175326537635"><ele>40.5</ele><time>2026-05-05T14:12:32Z</time></trkpt><trkpt lat="45.957980995641684" lon="12.8579683773363"><ele>40.25</ele><time>2026-05-05T14:12:33Z</time></trkpt><trkpt lat="45.957944416040974" lon="12.857759915132515"><ele>40.0</ele><time>2026-05-05T14:12:34Z</time></trkpt><trkpt lat="45.95790156876226" lon="12.857553355084583"><ele>40.0</ele><time>2026-05-05T14:12:35Z</time></trkpt><trkpt lat="45.95786182952594" lon="12.857343747473296"><ele>40.0</ele><time>2026-05-05T14:12:36Z</time></trkpt><trkpt lat="45.957818828502795" lon="12.857133873440954"><ele>40.0</ele><time>2026-05-05T14:12:37Z</time></trkpt><trkpt lat="45.95777691828993" lon="12.856919612778382"><ele>40.333333333333336</ele><time>2026-05-05T14:12:38Z</time></trkpt><trkpt lat="45.957734964478924" lon="12.856706764008814"><ele>40.666666666666664</ele><time>2026-05-05T14:12:39Z</time></trkpt><trkpt lat="45.95769213164788" lon="12.856492811683463"><ele>41.0</ele><time>2026-05-05T14:12:40Z</time></trkpt><trkpt lat="45.95764885694972" lon="12.856281688203554"><ele>41.0</ele><time>2026-05-05T14:12:41Z</time></trkpt><trkpt lat="45.95760901504678" lon="12.856066164702197"><ele>41.0</ele><time>2026-05-05T14:12:42Z</time></trkpt><trkpt lat="45.957565977865634" lon="12.855848453697936"><ele>41.0</ele><time>2026-05-05T14:12:43Z</time></trkpt><trkpt lat="45.95752028624571" lon="12.85562633247071"><ele>41.0</ele><time>2026-05-05T14:12:44Z</time></trkpt><trkpt lat="45.95747476390938" lon="12.855398254200031"><ele>41.0</ele><time>2026-05-05T14:12:45Z</time></trkpt><trkpt lat="45.95742916711316" lon="12.855168862387469"><ele>41.0</ele><time>2026-05-05T14:12:46Z</time></trkpt><trkpt lat="45.95738387644619" lon="12.854938922990636"><ele>41.0</ele><time>2026-05-05T14:12:47Z</time></trkpt><trkpt lat="45.957337282299754" lon="12.854704981920827"><ele>41.0</ele><time>2026-05-05T14:12:48Z</time></trkpt><trkpt lat="45.95729114503918" lon="12.85447056789155"><ele>41.0</ele><time>2026-05-05T14:12:49Z</time></trkpt><trkpt lat="45.95724456415237" lon="12.854239843030731"><ele>40.666666666666664</ele><time>2026-05-05T14:12:50Z</time></trkpt><trkpt lat="45.95719869046592" lon="12.854011364198442"><ele>40.333333333333336</ele><time>2026-05-05T14:12:51Z</time></trkpt><trkpt lat="45.95715546637555" lon="12.853783653431432"><ele>40.0</ele><time>2026-05-05T14:12:52Z</time></trkpt><trkpt lat="45.95711031371511" lon="12.85355417283329"><ele>40.0</ele><time>2026-05-05T14:12:53Z</time></trkpt><trkpt lat="45.95706322841035" lon="12.85332901503273"><ele>40.0</ele><time>2026-05-05T14:12:54Z</time></trkpt><trkpt lat="45.95701725956209" lon="12.853109928166196"><ele>40.0</ele><time>2026-05-05T14:12:55Z</time></trkpt><trkpt lat="45.956970611120184" lon="12.852892187286496"><ele>40.0</ele><time>2026-05-05T14:12:56Z</time></trkpt><trkpt lat="45.95692342065739" lon="12.852676989516201"><ele>40.0</ele><time>2026-05-05T14:12:57Z</time></trkpt><trkpt lat="45.95687918803749" lon="12.852463557117867"><ele>40.0</ele><time>2026-05-05T14:12:58Z</time></trkpt><trkpt lat="45.95683842727608" lon="12.852249204411745"><ele>39.75</ele><time>2026-05-05T14:12:59Z</time></trkpt><trkpt lat="45.95679967403545" lon="12.852039679924248"><ele>39.5</ele><time>2026-05-05T14:13:00Z</time></trkpt><trkpt lat="45.95676151932521" lon="12.85183363183844"><ele>39.25</ele><time>2026-05-05T14:13:01Z</time></trkpt><trkpt lat="45.95672457299522" lon="12.85163578390458"><ele>39.0</ele><time>2026-05-05T14:13:02Z</time></trkpt><trkpt lat="45.95668721282559" lon="12.851443850102125"><ele>39.25</ele><time>2026-05-05T14:13:03Z</time></trkpt><trkpt lat="45.95664828444322" lon="12.851256189539226"><ele>39.5</ele><time>2026-05-05T14:13:04Z</time></trkpt><trkpt lat="45.95660756377115" lon="12.851066468189703"><ele>39.75</ele><time>2026-05-05T14:13:05Z</time></trkpt><trkpt lat="45.95656741356927" lon="12.850873873290913"><ele>40.0</ele><time>2026-05-05T14:13:06Z</time></trkpt><trkpt lat="45.956528326237304" lon="12.850679061151606"><ele>40.0</ele><time>2026-05-05T14:13:07Z</time></trkpt><trkpt lat="45.95648734128405" lon="12.850480442481691"><ele>40.0</ele><time>2026-05-05T14:13:08Z</time></trkpt><trkpt lat="45.95645212974399" lon="12.850278524079975"><ele>40.0</ele><time>2026-05-05T14:13:09Z</time></trkpt><trkpt lat="45.95641299718405" lon="12.850075927023646"><ele>40.0</ele><time>2026-05-05T14:13:10Z</time></trkpt><trkpt lat="45.956371265448915" lon="12.849870831145873"><ele>40.333333333333336</ele><time>2026-05-05T14:13:11Z</time></trkpt><trkpt lat="45.956329744579385" lon="12.849662437093192"><ele>40.666666666666664</ele><time>2026-05-05T14:13:12Z</time></trkpt><trkpt lat="45.95628790783349" lon="12.849451425066675"><ele>41.0</ele><time>2026-05-05T14:13:13Z</time></trkpt><trkpt lat="45.95624621453437" lon="12.849239341642377"><ele>41.0</ele><time>2026-05-05T14:13:14Z</time></trkpt><trkpt lat="45.956206084904174" lon="12.849027619133176"><ele>41.0</ele><time>2026-05-05T14:13:15Z</time></trkpt><trkpt lat="45.956166116476396" lon="12.848813938069053"><ele>41.0</ele><time>2026-05-05T14:13:16Z</time></trkpt><trkpt lat="45.956126097260224" lon="12.848601158295367"><ele>40.5</ele><time>2026-05-05T14:13:17Z</time></trkpt><trkpt lat="45.956083899332604" lon="12.848386158487513"><ele>40.0</ele><time>2026-05-05T14:13:18Z</time></trkpt><trkpt lat="45.95604258611571" lon="12.848182618832801"><ele>39.5</ele><time>2026-05-05T14:13:19Z</time></trkpt><trkpt lat="45.956004088445056" lon="12.847990614709873"><ele>39.0</ele><time>2026-05-05T14:13:20Z</time></trkpt><trkpt lat="45.95596589051797" lon="12.847801172433472"><ele>39.0</ele><time>2026-05-05T14:13:21Z</time></trkpt><trkpt lat="45.95592920492014" lon="12.847615802782189"><ele>39.0</ele><time>2026-05-05T14:13:22Z</time></trkpt><trkpt lat="45.95589050133044" lon="12.847445987030667"><ele>39.0</ele><time>2026-05-05T14:13:23Z</time></trkpt><trkpt lat="45.95585985539838" lon="12.84728268469435"><ele>39.0</ele><time>2026-05-05T14:13:24Z</time></trkpt><trkpt lat="45.95582824776553" lon="12.847118855190308"><ele>39.25</ele><time>2026-05-05T14:13:25Z</time></trkpt><trkpt lat="45.95580121264619" lon="12.84695190524938"><ele>39.5</ele><time>2026-05-05T14:13:26Z</time></trkpt><trkpt lat="45.95576261358012" lon="12.84678575340575"><ele>39.75</ele><time>2026-05-05T14:13:27Z</time></trkpt><trkpt lat="45.95573607700259" lon="12.84662093939654"><ele>40.0</ele><time>2026-05-05T14:13:28Z</time></trkpt><trkpt lat="45.95570555510895" lon="12.846460095089174"><ele>40.0</ele><time>2026-05-05T14:13:29Z</time></trkpt><trkpt lat="45.95567566173568" lon="12.846311517240935"><ele>40.0</ele><time>2026-05-05T14:13:30Z</time></trkpt><trkpt lat="45.95564112949212" lon="12.846171644779766"><ele>40.0</ele><time>2026-05-05T14:13:31Z</time></trkpt><trkpt lat="45.95561202957735" lon="12.846026308606524"><ele>40.0</ele><time>2026-05-05T14:13:32Z</time></trkpt><trkpt lat="45.95558396651682" lon="12.845876214096949"><ele>40.0</ele><time>2026-05-05T14:13:33Z</time></trkpt><trkpt lat="45.95555195222863" lon="12.845735896622985"><ele>40.0</ele><time>2026-05-05T14:13:34Z</time></trkpt><trkpt lat="45.95552037737315" lon="12.845598801310183"><ele>40.0</ele><time>2026-05-05T14:13:35Z</time></trkpt><trkpt lat="45.95548815701356" lon="12.84546419920024"><ele>40.0</ele><time>2026-05-05T14:13:36Z</time></trkpt><trkpt lat="45.95545809355026" lon="12.845324583023448"><ele>40.0</ele><time>2026-05-05T14:13:37Z</time></trkpt><trkpt lat="45.95543123863026" lon="12.845182391628102"><ele>40.0</ele><time>2026-05-05T14:13:38Z</time></trkpt><trkpt lat="45.95540742501709" lon="12.845045725901787"><ele>40.0</ele><time>2026-05-05T14:13:39Z</time></trkpt><trkpt lat="45.955387689090685" lon="12.84491396991484"><ele>40.0</ele><time>2026-05-05T14:13:40Z</time></trkpt><trkpt lat="45.95536697415675" lon="12.844788114491726"><ele>40.0</ele><time>2026-05-05T14:13:41Z</time></trkpt><trkpt lat="45.95534541828256" lon="12.844662910924864"><ele>40.0</ele><time>2026-05-05T14:13:42Z</time></trkpt><trkpt lat="45.95532362686474" lon="12.844540601985761"><ele>40.0</ele><time>2026-05-05T14:13:43Z</time></trkpt><trkpt lat="45.95529757669314" lon="12.844417223717587"><ele>40.16666666666667</ele><time>2026-05-05T14:13:44Z</time></trkpt><trkpt lat="45.955271828454855" lon="12.844296022028198"><ele>40.333333333333336</ele><time>2026-05-05T14:13:45Z</time></trkpt><trkpt lat="45.9552453618571" lon="12.844187528059688"><ele>40.5</ele><time>2026-05-05T14:13:46Z</time></trkpt><trkpt lat="45.955223254545416" lon="12.84409109794566"><ele>40.666666666666664</ele><time>2026-05-05T14:13:47Z</time></trkpt><trkpt lat="45.955198338891215" lon="12.843984794715457"><ele>40.83333333333333</ele><time>2026-05-05T14:13:49Z</time></trkpt><trkpt lat="45.95517463917112" lon="12.843866040329011"><ele>41.0</ele><time>2026-05-05T14:13:52Z</time></trkpt><trkpt lat="45.95513089308257" lon="12.84375176441075"><ele>41.0</ele><time>2026-05-05T14:13:54Z</time></trkpt><trkpt lat="45.95508511928782" lon="12.843582351713357"><ele>41.0</ele><time>2026-05-05T14:13:56Z</time></trkpt><trkpt lat="45.95505894278043" lon="12.843469059422224"><ele>41.0</ele><time>2026-05-05T14:13:57Z</time></trkpt><trkpt lat="45.955028579980294" lon="12.843334970091595"><ele>41.0</ele><time>2026-05-05T14:13:58Z</time></trkpt><trkpt lat="45.95500381179954" lon="12.843186269603295"><ele>41.0</ele><time>2026-05-05T14:13:59Z</time></trkpt><trkpt lat="45.954980536409906" lon="12.843043321399197"><ele>41.199999999999996</ele><time>2026-05-05T14:14:00Z</time></trkpt><trkpt lat="45.954983602130696" lon="12.84288606503669"><ele>41.4</ele><time>2026-05-05T14:14:01Z</time></trkpt><trkpt lat="45.95496830909196" lon="12.842744883756623"><ele>41.6</ele><time>2026-05-05T14:14:02Z</time></trkpt><trkpt lat="45.954955414563116" lon="12.842615232290328"><ele>41.8</ele><time>2026-05-05T14:14:03Z</time></trkpt><trkpt lat="45.95494626032384" lon="12.842494593448933"><ele>42.0</ele><time>2026-05-05T14:14:04Z</time></trkpt><trkpt lat="45.95492518385493" lon="12.84239524872855"><ele>41.4</ele><time>2026-05-05T14:14:05Z</time></trkpt><trkpt lat="45.95493107626734" lon="12.842252218286612"><ele>40.800000000000004</ele><time>2026-05-05T14:14:07Z</time></trkpt><trkpt lat="45.95494706252601" lon="12.842150352134725"><ele>40.2</ele><time>2026-05-05T14:14:09Z</time></trkpt><trkpt lat="45.95495609075234" lon="12.84204593397215"><ele>39.6</ele><time>2026-05-05T14:15:01Z</time></trkpt><trkpt lat="45.9549562549141" lon="12.841860706349092"><ele>39.0</ele><time>2026-05-05T14:15:03Z</time></trkpt><trkpt lat="45.95496641955267" lon="12.841732587744497"><ele>38.75</ele><time>2026-05-05T14:15:04Z</time></trkpt><trkpt lat="45.954974069657176" lon="12.841577754696576"><ele>38.5</ele><time>2026-05-05T14:15:05Z</time></trkpt><trkpt lat="45.9549819243941" lon="12.841401937089284"><ele>38.25</ele><time>2026-05-05T14:15:06Z</time></trkpt><trkpt lat="45.954996898392224" lon="12.841208330928401"><ele>38.0</ele><time>2026-05-05T14:15:07Z</time></trkpt><trkpt lat="45.955008003555186" lon="12.841000642012343"><ele>38.0</ele><time>2026-05-05T14:15:08Z</time></trkpt><trkpt lat="45.955017760812446" lon="12.840782654834365"><ele>38.0</ele><time>2026-05-05T14:15:09Z</time></trkpt><trkpt lat="45.95504008749606" lon="12.840558113267008"><ele>38.0</ele><time>2026-05-05T14:15:10Z</time></trkpt><trkpt lat="45.95506757012632" lon="12.84032681518952"><ele>38.0</ele><time>2026-05-05T14:15:11Z</time></trkpt><trkpt lat="45.955102029279146" lon="12.840096822687249"><ele>38.0</ele><time>2026-05-05T14:15:12Z</time></trkpt><trkpt lat="45.95515071099971" lon="12.839878243332768"><ele>38.0</ele><time>2026-05-05T14:15:13Z</time></trkpt><trkpt lat="45.955212467450906" lon="12.839681490562247"><ele>38.0</ele><time>2026-05-05T14:15:14Z</time></trkpt><trkpt lat="45.95527864802678" lon="12.839491597608173"><ele>38.0</ele><time>2026-05-05T14:15:15Z</time></trkpt><trkpt lat="45.955344715549614" lon="12.839318153904587"><ele>38.0</ele><time>2026-05-05T14:15:16Z</time></trkpt><trkpt lat="45.955409495294255" lon="12.83915973188455"><ele>38.0</ele><time>2026-05-05T14:15:17Z</time></trkpt><trkpt lat="45.95546973419232" lon="12.839014918049887"><ele>38.0</ele><time>2026-05-05T14:15:18Z</time></trkpt><trkpt lat="45.95552694828763" lon="12.838882100556695"><ele>38.0</ele><time>2026-05-05T14:15:19Z</time></trkpt><trkpt lat="45.95558171314227" lon="12.838762104631796"><ele>38.0</ele><time>2026-05-05T14:15:20Z</time></trkpt><trkpt lat="45.95563316277304" lon="12.838643613904202"><ele>38.0</ele><time>2026-05-05T14:15:21Z</time></trkpt><trkpt lat="45.95568327767601" lon="12.83851968893942"><ele>38.0</ele><time>2026-05-05T14:15:22Z</time></trkpt><trkpt lat="45.95573712324645" lon="12.838386280062986"><ele>38.0</ele><time>2026-05-05T14:15:23Z</time></trkpt><trkpt lat="45.95579838595695" lon="12.838242701740008"><ele>38.0</ele><time>2026-05-05T14:15:24Z</time></trkpt><trkpt lat="45.955864007416245" lon="12.838096495058114"><ele>38.0</ele><time>2026-05-05T14:15:25Z</time></trkpt><trkpt lat="45.95592781585076" lon="12.837941693873487"><ele>38.0</ele><time>2026-05-05T14:15:26Z</time></trkpt><trkpt lat="45.956000132396206" lon="12.837778338181499"><ele>38.5</ele><time>2026-05-05T14:15:27Z</time></trkpt><trkpt lat="45.95607257897364" lon="12.83760990982666"><ele>39.0</ele><time>2026-05-05T14:15:28Z</time></trkpt><trkpt lat="45.956147281567134" lon="12.83742672744181"><ele>39.5</ele><time>2026-05-05T14:15:29Z</time></trkpt><trkpt lat="45.9562159110972" lon="12.837252164029278"><ele>40.0</ele><time>2026-05-05T14:15:30Z</time></trkpt><trkpt lat="45.95628373424958" lon="12.837079905273793"><ele>40.0</ele><time>2026-05-05T14:15:31Z</time></trkpt><trkpt lat="45.95634902483321" lon="12.83690804601349"><ele>40.0</ele><time>2026-05-05T14:15:32Z</time></trkpt><trkpt lat="45.956415657282626" lon="12.836743310967622"><ele>40.0</ele><time>2026-05-05T14:15:33Z</time></trkpt><trkpt lat="45.95647653596892" lon="12.836595099554975"><ele>40.0</ele><time>2026-05-05T14:15:34Z</time></trkpt><trkpt lat="45.95653558890096" lon="12.836458220633208"><ele>40.0</ele><time>2026-05-05T14:15:35Z</time></trkpt><trkpt lat="45.95659772666276" lon="12.836320378859588"><ele>40.0</ele><time>2026-05-05T14:15:36Z</time></trkpt><trkpt lat="45.956663464662064" lon="12.836174054794988"><ele>40.0</ele><time>2026-05-05T14:15:37Z</time></trkpt><trkpt lat="45.95672758786741" lon="12.83602473496083"><ele>40.0</ele><time>2026-05-05T14:15:38Z</time></trkpt><trkpt lat="45.956791122788324" lon="12.835868806091144"><ele>39.5</ele><time>2026-05-05T14:15:39Z</time></trkpt><trkpt lat="45.95685700723209" lon="12.835709825440885"><ele>39.0</ele><time>2026-05-05T14:15:40Z</time></trkpt><trkpt lat="45.95692624496795" lon="12.835541391573186"><ele>38.5</ele><time>2026-05-05T14:15:41Z</time></trkpt><trkpt lat="45.95699793414864" lon="12.835362719230076"><ele>38.0</ele><time>2026-05-05T14:15:42Z</time></trkpt><trkpt lat="45.95707239600624" lon="12.83518008110957"><ele>38.0</ele><time>2026-05-05T14:15:43Z</time></trkpt><trkpt lat="45.95715137857334" lon="12.834985056076988"><ele>38.0</ele><time>2026-05-05T14:15:44Z</time></trkpt><trkpt lat="45.957232001358165" lon="12.834786726252766"><ele>38.0</ele><time>2026-05-05T14:15:45Z</time></trkpt><trkpt lat="45.95731381337896" lon="12.83458500299266"><ele>38.0</ele><time>2026-05-05T14:15:46Z</time></trkpt><trkpt lat="45.95738787683983" lon="12.834379114046376"><ele>38.0</ele><time>2026-05-05T14:15:47Z</time></trkpt><trkpt lat="45.95745631999514" lon="12.834175884449593"><ele>38.0</ele><time>2026-05-05T14:15:48Z</time></trkpt><trkpt lat="45.95752124976166" lon="12.833975307300122"><ele>38.0</ele><time>2026-05-05T14:15:49Z</time></trkpt><trkpt lat="45.957580910530275" lon="12.833773699021947"><ele>38.0</ele><time>2026-05-05T14:15:50Z</time></trkpt><trkpt lat="45.95762655914017" lon="12.833566977587914"><ele>38.0</ele><time>2026-05-05T14:15:51Z</time></trkpt><trkpt lat="45.957664729661005" lon="12.83336186810912"><ele>38.0</ele><time>2026-05-05T14:15:52Z</time></trkpt><trkpt lat="45.95769771898192" lon="12.833154291888814"><ele>38.0</ele><time>2026-05-05T14:15:53Z</time></trkpt><trkpt lat="45.95772523850431" lon="12.832949997046597"><ele>38.0</ele><time>2026-05-05T14:15:54Z</time></trkpt><trkpt lat="45.957740300793404" lon="12.832754121598104"><ele>38.0</ele><time>2026-05-05T14:15:55Z</time></trkpt><trkpt lat="45.95774870731976" lon="12.83256498477765"><ele>38.0</ele><time>2026-05-05T14:15:56Z</time></trkpt><trkpt lat="45.95774880777027" lon="12.832389686164342"><ele>38.0</ele><time>2026-05-05T14:15:57Z</time></trkpt><trkpt lat="45.95774551103444" lon="12.832225789640837"><ele>38.0</ele><time>2026-05-05T14:15:58Z</time></trkpt><trkpt lat="45.95775335962392" lon="12.832083521380488"><ele>38.0</ele><time>2026-05-05T14:15:59Z</time></trkpt><trkpt lat="45.95778161248389" lon="12.831957821974555"><ele>38.0</ele><time>2026-05-05T14:16:00Z</time></trkpt><trkpt lat="45.95781973153631" lon="12.831845238682027"><ele>37.83333333333333</ele><time>2026-05-05T14:16:01Z</time></trkpt><trkpt lat="45.95784429239273" lon="12.831727015431953"><ele>37.666666666666664</ele><time>2026-05-05T14:16:02Z</time></trkpt><trkpt lat="45.95784082400866" lon="12.831608693309576"><ele>37.5</ele><time>2026-05-05T14:16:03Z</time></trkpt><trkpt lat="45.95781234823981" lon="12.83149305547609"><ele>37.333333333333336</ele><time>2026-05-05T14:16:04Z</time></trkpt><trkpt lat="45.95777449680955" lon="12.831382121237743"><ele>37.16666666666667</ele><time>2026-05-05T14:16:05Z</time></trkpt><trkpt lat="45.95770998347749" lon="12.831304702351039"><ele>37.0</ele><time>2026-05-05T14:16:06Z</time></trkpt><trkpt lat="45.957703180414846" lon="12.83113732697921"><ele>37.0</ele><time>2026-05-05T14:16:07Z</time></trkpt><trkpt lat="45.95767552788815" lon="12.830997198006518"><ele>37.0</ele><time>2026-05-05T14:16:08Z</time></trkpt><trkpt lat="45.9576492137873" lon="12.830839842561536"><ele>37.0</ele><time>2026-05-05T14:16:09Z</time></trkpt><trkpt lat="45.95762441617513" lon="12.830664706098707"><ele>37.0</ele><time>2026-05-05T14:16:10Z</time></trkpt><trkpt lat="45.957601614329185" lon="12.830476801055326"><ele>37.0</ele><time>2026-05-05T14:16:11Z</time></trkpt><trkpt lat="45.957577526582675" lon="12.83028173858819"><ele>37.0</ele><time>2026-05-05T14:16:12Z</time></trkpt><trkpt lat="45.957554164558125" lon="12.830090816381869"><ele>37.0</ele><time>2026-05-05T14:16:13Z</time></trkpt><trkpt lat="45.95753467646462" lon="12.829914573550527"><ele>37.0</ele><time>2026-05-05T14:16:14Z</time></trkpt><trkpt lat="45.95751439483951" lon="12.829749841186608"><ele>37.0</ele><time>2026-05-05T14:16:15Z</time></trkpt><trkpt lat="45.957494474689405" lon="12.829593527025144"><ele>37.0</ele><time>2026-05-05T14:16:16Z</time></trkpt><trkpt lat="45.95747313934117" lon="12.829427950049912"><ele>37.0</ele><time>2026-05-05T14:16:17Z</time></trkpt><trkpt lat="45.95745269171929" lon="12.829257203798837"><ele>37.0</ele><time>2026-05-05T14:16:18Z</time></trkpt><trkpt lat="45.95742919254142" lon="12.829075453213274"><ele>37.0</ele><time>2026-05-05T14:16:19Z</time></trkpt><trkpt lat="45.95740775564796" lon="12.828890454295017"><ele>37.0</ele><time>2026-05-05T14:16:20Z</time></trkpt><trkpt lat="45.957386395587356" lon="12.828699356586206"><ele>37.0</ele><time>2026-05-05T14:16:21Z</time></trkpt><trkpt lat="45.95736293418574" lon="12.828521106576861"><ele>37.0</ele><time>2026-05-05T14:16:22Z</time></trkpt><trkpt lat="45.95734065866828" lon="12.828335964821198"><ele>37.0</ele><time>2026-05-05T14:16:23Z</time></trkpt><trkpt lat="45.95732226731278" lon="12.828160511461883"><ele>37.0</ele><time>2026-05-05T14:16:24Z</time></trkpt><trkpt lat="45.957302618949996" lon="12.827993223538385"><ele>37.0</ele><time>2026-05-05T14:16:25Z</time></trkpt><trkpt lat="45.95728356827564" lon="12.827841390638953"><ele>37.0</ele><time>2026-05-05T14:16:26Z</time></trkpt><trkpt lat="45.95726866377348" lon="12.827693606451025"><ele>37.0</ele><time>2026-05-05T14:16:27Z</time></trkpt><trkpt lat="45.95725234557107" lon="12.827545653268778"><ele>37.0</ele><time>2026-05-05T14:16:28Z</time></trkpt><trkpt lat="45.95724117063579" lon="12.827398891046922"><ele>37.0</ele><time>2026-05-05T14:16:29Z</time></trkpt><trkpt lat="45.9572341815429" lon="12.827264716970266"><ele>37.0</ele><time>2026-05-05T14:16:30Z</time></trkpt><trkpt lat="45.95722937130908" lon="12.827140192782169"><ele>37.0</ele><time>2026-05-05T14:16:31Z</time></trkpt><trkpt lat="45.9572275305681" lon="12.827025118185823"><ele>37.0</ele><time>2026-05-05T14:16:32Z</time></trkpt><trkpt lat="45.95722743753771" lon="12.826905699550567"><ele>37.0</ele><time>2026-05-05T14:16:33Z</time></trkpt><trkpt lat="45.957235451551725" lon="12.826797861436031"><ele>37.0</ele><time>2026-05-05T14:16:34Z</time></trkpt><trkpt lat="45.95725916168304" lon="12.826702611707404"><ele>37.0</ele><time>2026-05-05T14:16:35Z</time></trkpt><trkpt lat="45.95728629664983" lon="12.826604374237949"><ele>37.0</ele><time>2026-05-05T14:16:36Z</time></trkpt><trkpt lat="45.95730856140535" lon="12.826494903804662"><ele>37.0</ele><time>2026-05-05T14:16:37Z</time></trkpt><trkpt lat="45.957308380714984" lon="12.826370350039216"><ele>37.0</ele><time>2026-05-05T14:16:38Z</time></trkpt><trkpt lat="45.95727071232639" lon="12.826248625716982"><ele>37.0</ele><time>2026-05-05T14:16:39Z</time></trkpt><trkpt lat="45.95720372259093" lon="12.826143038670573"><ele>37.0</ele><time>2026-05-05T14:16:40Z</time></trkpt><trkpt lat="45.95712322457681" lon="12.826036902600356"><ele>37.0</ele><time>2026-05-05T14:16:41Z</time></trkpt><trkpt lat="45.95705988636483" lon="12.825890248229712"><ele>37.0</ele><time>2026-05-05T14:16:42Z</time></trkpt><trkpt lat="45.95701949455664" lon="12.825713949754636"><ele>36.75</ele><time>2026-05-05T14:16:43Z</time></trkpt><trkpt lat="45.956991344922535" lon="12.825512864090328"><ele>36.5</ele><time>2026-05-05T14:16:44Z</time></trkpt><trkpt lat="45.956965584610145" lon="12.825298160460758"><ele>36.25</ele><time>2026-05-05T14:16:45Z</time></trkpt><trkpt lat="45.95694217832834" lon="12.825087220905115"><ele>36.0</ele><time>2026-05-05T14:16:46Z</time></trkpt><trkpt lat="45.95691919793743" lon="12.82487943001095"><ele>36.0</ele><time>2026-05-05T14:16:47Z</time></trkpt><trkpt lat="45.95689664783275" lon="12.824678417288387"><ele>36.0</ele><time>2026-05-05T14:16:48Z</time></trkpt><trkpt lat="45.956872603288794" lon="12.824480949132653"><ele>36.0</ele><time>2026-05-05T14:16:49Z</time></trkpt><trkpt lat="45.956849123458895" lon="12.824284617552737"><ele>36.0</ele><time>2026-05-05T14:16:50Z</time></trkpt><trkpt lat="45.95682516432969" lon="12.824093114875748"><ele>36.0</ele><time>2026-05-05T14:16:51Z</time></trkpt><trkpt lat="45.95680321398898" lon="12.82390413852989"><ele>36.0</ele><time>2026-05-05T14:16:52Z</time></trkpt><trkpt lat="45.95678161860718" lon="12.823713491135113"><ele>36.0</ele><time>2026-05-05T14:16:53Z</time></trkpt><trkpt lat="45.95675824042307" lon="12.823527073745552"><ele>36.0</ele><time>2026-05-05T14:16:54Z</time></trkpt><trkpt lat="45.956735474521835" lon="12.823344307948652"><ele>35.75</ele><time>2026-05-05T14:16:55Z</time></trkpt><trkpt lat="45.95671189142697" lon="12.823157293627377"><ele>35.5</ele><time>2026-05-05T14:16:56Z</time></trkpt><trkpt lat="45.95668681765883" lon="12.822971242201467"><ele>35.25</ele><time>2026-05-05T14:16:57Z</time></trkpt><trkpt lat="45.95666361606945" lon="12.822778769496074"><ele>35.0</ele><time>2026-05-05T14:16:58Z</time></trkpt><trkpt lat="45.9566431918956" lon="12.8225846096212"><ele>34.75</ele><time>2026-05-05T14:16:59Z</time></trkpt><trkpt lat="45.956624377588696" lon="12.82238891593055"><ele>34.5</ele><time>2026-05-05T14:17:00Z</time></trkpt><trkpt lat="45.9566005664125" lon="12.822192673354287"><ele>34.25</ele><time>2026-05-05T14:17:01Z</time></trkpt><trkpt lat="45.95657417591076" lon="12.822010645771096"><ele>34.0</ele><time>2026-05-05T14:17:02Z</time></trkpt><trkpt lat="45.956548909435554" lon="12.82184264012095"><ele>34.2</ele><time>2026-05-05T14:17:03Z</time></trkpt><trkpt lat="45.95653154323788" lon="12.821688681329423"><ele>34.4</ele><time>2026-05-05T14:17:04Z</time></trkpt><trkpt lat="45.95653474571696" lon="12.821547875121219"><ele>34.6</ele><time>2026-05-05T14:17:05Z</time></trkpt><trkpt lat="45.95656124038807" lon="12.821432909487427"><ele>34.8</ele><time>2026-05-05T14:17:06Z</time></trkpt><trkpt lat="45.956591767689225" lon="12.821338291163242"><ele>35.0</ele><time>2026-05-05T14:17:07Z</time></trkpt><trkpt lat="45.95661348342557" lon="12.82118762337228"><ele>35.0</ele><time>2026-05-05T14:17:09Z</time></trkpt><trkpt lat="45.95658889941064" lon="12.821101928443385"><ele>35.0</ele><time>2026-05-05T14:17:13Z</time></trkpt><trkpt lat="45.95659433274998" lon="12.820987191821942"><ele>35.0</ele><time>2026-05-05T14:26:37Z</time></trkpt><trkpt lat="45.95649662622557" lon="12.820940800078509"><ele>35.0</ele><time>2026-05-05T14:26:40Z</time></trkpt><trkpt lat="45.95643649557221" lon="12.820873842112823"><ele>35.0</ele><time>2026-05-05T14:26:42Z</time></trkpt><trkpt lat="45.95641090580882" lon="12.820772095966435"><ele>35.0</ele><time>2026-05-05T14:26:43Z</time></trkpt><trkpt lat="45.95639184375992" lon="12.82064247065284"><ele>35.0</ele><time>2026-05-05T14:26:44Z</time></trkpt><trkpt lat="45.956370374710225" lon="12.820485535673111"><ele>35.0</ele><time>2026-05-05T14:26:45Z</time></trkpt><trkpt lat="45.95634635041395" lon="12.820301004494942"><ele>35.0</ele><time>2026-05-05T14:26:46Z</time></trkpt><trkpt lat="45.9563190576808" lon="12.820080099409653"><ele>35.0</ele><time>2026-05-05T14:26:47Z</time></trkpt><trkpt lat="45.95628740550686" lon="12.819837704813542"><ele>35.0</ele><time>2026-05-05T14:26:48Z</time></trkpt><trkpt lat="45.95625243797861" lon="12.819574361390343"><ele>35.0</ele><time>2026-05-05T14:26:49Z</time></trkpt><trkpt lat="45.956215582496164" lon="12.819290666118745"><ele>35.0</ele><time>2026-05-05T14:26:50Z</time></trkpt><trkpt lat="45.956179018532886" lon="12.819008615071489"><ele>35.0</ele><time>2026-05-05T14:26:51Z</time></trkpt><trkpt lat="45.95614674355282" lon="12.818758388500758"><ele>35.0</ele><time>2026-05-05T14:26:52Z</time></trkpt><trkpt lat="45.95611736994434" lon="12.818528426250689"><ele>35.0</ele><time>2026-05-05T14:26:53Z</time></trkpt><trkpt lat="45.95609153019992" lon="12.818300827561423"><ele>35.33333333333333</ele><time>2026-05-05T14:26:54Z</time></trkpt><trkpt lat="45.95606376127622" lon="12.818076069452635"><ele>35.666666666666664</ele><time>2026-05-05T14:26:55Z</time></trkpt><trkpt lat="45.95603519156655" lon="12.817863436393521"><ele>36.0</ele><time>2026-05-05T14:26:56Z</time></trkpt><trkpt lat="45.95600769863535" lon="12.817658175804953"><ele>35.75</ele><time>2026-05-05T14:26:57Z</time></trkpt><trkpt lat="45.955982887307165" lon="12.817455986459892"><ele>35.5</ele><time>2026-05-05T14:26:58Z</time></trkpt><trkpt lat="45.955957195206366" lon="12.817243234215333"><ele>35.25</ele><time>2026-05-05T14:26:59Z</time></trkpt><trkpt lat="45.95593060099082" lon="12.817028653545869"><ele>35.0</ele><time>2026-05-05T14:27:00Z</time></trkpt><trkpt lat="45.95590422871179" lon="12.816808200753883"><ele>35.0</ele><time>2026-05-05T14:27:01Z</time></trkpt><trkpt lat="45.95587466360547" lon="12.816583999214524"><ele>35.0</ele><time>2026-05-05T14:27:02Z</time></trkpt><trkpt lat="45.9558439636748" lon="12.81635896476528"><ele>35.0</ele><time>2026-05-05T14:27:03Z</time></trkpt><trkpt lat="45.95581236915396" lon="12.816129710766075"><ele>35.33333333333333</ele><time>2026-05-05T14:27:04Z</time></trkpt><trkpt lat="45.95578247154817" lon="12.815897617642955"><ele>35.666666666666664</ele><time>2026-05-05T14:27:05Z</time></trkpt><trkpt lat="45.95576254432971" lon="12.815664458897217"><ele>36.0</ele><time>2026-05-05T14:27:06Z</time></trkpt><trkpt lat="45.95572608749979" lon="12.815429950622402"><ele>36.0</ele><time>2026-05-05T14:27:07Z</time></trkpt><trkpt lat="45.955690873653346" lon="12.815190065791974"><ele>36.0</ele><time>2026-05-05T14:27:08Z</time></trkpt><trkpt lat="45.95567662240927" lon="12.814938850526339"><ele>36.0</ele><time>2026-05-05T14:27:09Z</time></trkpt><trkpt lat="45.95562371618003" lon="12.814704624722983"><ele>36.0</ele><time>2026-05-05T14:27:10Z</time></trkpt><trkpt lat="45.95559627250124" lon="12.81446746506432"><ele>36.0</ele><time>2026-05-05T14:27:11Z</time></trkpt><trkpt lat="45.95556522050523" lon="12.814228243581102"><ele>36.0</ele><time>2026-05-05T14:27:12Z</time></trkpt><trkpt lat="45.955534509089865" lon="12.813987416339133"><ele>36.0</ele><time>2026-05-05T14:27:13Z</time></trkpt><trkpt lat="45.9555291392886" lon="12.813736319547244"><ele>36.0</ele><time>2026-05-05T14:27:14Z</time></trkpt><trkpt lat="45.95549879385643" lon="12.813489221045979"><ele>36.0</ele><time>2026-05-05T14:27:15Z</time></trkpt><trkpt lat="45.95546801128129" lon="12.813234613354137"><ele>36.0</ele><time>2026-05-05T14:27:16Z</time></trkpt><trkpt lat="45.95543400437955" lon="12.812950736019545"><ele>36.0</ele><time>2026-05-05T14:27:17Z</time></trkpt><trkpt lat="45.95539582447394" lon="12.812639334727743"><ele>36.0</ele><time>2026-05-05T14:27:18Z</time></trkpt><trkpt lat="45.95535617052567" lon="12.812321758390524"><ele>35.666666666666664</ele><time>2026-05-05T14:27:19Z</time></trkpt><trkpt lat="45.95531718278426" lon="12.81200951737424"><ele>35.33333333333333</ele><time>2026-05-05T14:27:20Z</time></trkpt><trkpt lat="45.95528086903212" lon="12.811718691504035"><ele>35.0</ele><time>2026-05-05T14:27:21Z</time></trkpt><trkpt lat="45.955247400331345" lon="12.81145406992553"><ele>34.0</ele><time>2026-05-05T14:27:22Z</time></trkpt><trkpt lat="45.95521491930925" lon="12.811193744534542"><ele>33.0</ele><time>2026-05-05T14:27:23Z</time></trkpt><trkpt lat="45.95518266038595" lon="12.810935461661028"><ele>32.0</ele><time>2026-05-05T14:27:24Z</time></trkpt><trkpt lat="45.9551503308887" lon="12.810677162194366"><ele>32.0</ele><time>2026-05-05T14:27:25Z</time></trkpt><trkpt lat="45.955118347152705" lon="12.810421625223837"><ele>32.0</ele><time>2026-05-05T14:27:26Z</time></trkpt><trkpt lat="45.95508637660821" lon="12.810166193601985"><ele>32.0</ele><time>2026-05-05T14:27:27Z</time></trkpt><trkpt lat="45.95503806577115" lon="12.809916452552375"><ele>32.666666666666664</ele><time>2026-05-05T14:27:28Z</time></trkpt><trkpt lat="45.9550076357303" lon="12.809657838282313"><ele>33.333333333333336</ele><time>2026-05-05T14:27:29Z</time></trkpt><trkpt lat="45.95497243502341" lon="12.809387384075215"><ele>34.0</ele><time>2026-05-05T14:27:30Z</time></trkpt><trkpt lat="45.95495232266434" lon="12.80910337290522"><ele>34.0</ele><time>2026-05-05T14:27:31Z</time></trkpt><trkpt lat="45.954909913090084" lon="12.808765235095796"><ele>34.0</ele><time>2026-05-05T14:27:32Z</time></trkpt><trkpt lat="45.954865356264" lon="12.808406795825704"><ele>33.0</ele><time>2026-05-05T14:27:33Z</time></trkpt><trkpt lat="45.95481892501229" lon="12.808033277796385"><ele>32.0</ele><time>2026-05-05T14:27:34Z</time></trkpt><trkpt lat="45.954769938879615" lon="12.807639206725527"><ele>32.0</ele><time>2026-05-05T14:27:35Z</time></trkpt><trkpt lat="45.95470346613223" lon="12.807233688165335"><ele>32.0</ele><time>2026-05-05T14:27:36Z</time></trkpt><trkpt lat="45.95465262089614" lon="12.806817533215451"><ele>32.0</ele><time>2026-05-05T14:27:37Z</time></trkpt><trkpt lat="45.95460130461362" lon="12.806404937973225"><ele>32.0</ele><time>2026-05-05T14:27:38Z</time></trkpt><trkpt lat="45.95455023084958" lon="12.805988858541147"><ele>32.0</ele><time>2026-05-05T14:27:39Z</time></trkpt><trkpt lat="45.95449617162327" lon="12.805565762232032"><ele>32.0</ele><time>2026-05-05T14:27:40Z</time></trkpt><trkpt lat="45.95444200696727" lon="12.805142943664597"><ele>32.0</ele><time>2026-05-05T14:27:41Z</time></trkpt><trkpt lat="45.954389544593546" lon="12.80472082955754"><ele>32.0</ele><time>2026-05-05T14:27:42Z</time></trkpt><trkpt lat="45.95433909837567" lon="12.804308056110465"><ele>32.5</ele><time>2026-05-05T14:27:43Z</time></trkpt><trkpt lat="45.95428917261562" lon="12.803902864278319"><ele>33.0</ele><time>2026-05-05T14:27:44Z</time></trkpt><trkpt lat="45.95423697605696" lon="12.803502617362366"><ele>32.0</ele><time>2026-05-05T14:27:45Z</time></trkpt><trkpt lat="45.954201891287596" lon="12.803104640284008"><ele>31.0</ele><time>2026-05-05T14:27:46Z</time></trkpt><trkpt lat="45.95415271073217" lon="12.80270909345108"><ele>31.0</ele><time>2026-05-05T14:27:47Z</time></trkpt><trkpt lat="45.954103596228656" lon="12.802313587740498"><ele>31.0</ele><time>2026-05-05T14:27:48Z</time></trkpt><trkpt lat="45.95405434415489" lon="12.801916974230624"><ele>31.0</ele><time>2026-05-05T14:27:49Z</time></trkpt><trkpt lat="45.954005715630856" lon="12.801525381967904"><ele>31.0</ele><time>2026-05-05T14:27:50Z</time></trkpt><trkpt lat="45.95395715892207" lon="12.801134368102193"><ele>31.0</ele><time>2026-05-05T14:27:51Z</time></trkpt><trkpt lat="45.95390815390302" lon="12.80074225571097"><ele>31.0</ele><time>2026-05-05T14:27:52Z</time></trkpt><trkpt lat="45.95385955190956" lon="12.800350067118607"><ele>30.0</ele><time>2026-05-05T14:27:53Z</time></trkpt><trkpt lat="45.95381103194269" lon="12.799958540149808"><ele>29.0</ele><time>2026-05-05T14:27:54Z</time></trkpt><trkpt lat="45.95376098628192" lon="12.799554701677021"><ele>28.5</ele><time>2026-05-05T14:27:55Z</time></trkpt><trkpt lat="45.953708849739144" lon="12.799133991180813"><ele>28.0</ele><time>2026-05-05T14:27:56Z</time></trkpt><trkpt lat="45.95365711400965" lon="12.79871651566639"><ele>29.5</ele><time>2026-05-05T14:27:57Z</time></trkpt><trkpt lat="45.953605734484974" lon="12.798301914655902"><ele>31.0</ele><time>2026-05-05T14:27:58Z</time></trkpt><trkpt lat="45.95355246850971" lon="12.797885167375988"><ele>30.5</ele><time>2026-05-05T14:27:59Z</time></trkpt><trkpt lat="45.95347719614432" lon="12.797469565894312"><ele>30.0</ele><time>2026-05-05T14:28:00Z</time></trkpt><trkpt lat="45.953429255050935" lon="12.797042352062995"><ele>29.5</ele><time>2026-05-05T14:28:01Z</time></trkpt><trkpt lat="45.95337989972889" lon="12.79661642703509"><ele>29.0</ele><time>2026-05-05T14:28:02Z</time></trkpt><trkpt lat="45.95332885665559" lon="12.796191228966709"><ele>29.0</ele><time>2026-05-05T14:28:03Z</time></trkpt><trkpt lat="45.95327834661751" lon="12.795769896841788"><ele>29.0</ele><time>2026-05-05T14:28:04Z</time></trkpt><trkpt lat="45.95322704121139" lon="12.795351457029419"><ele>29.5</ele><time>2026-05-05T14:28:05Z</time></trkpt><trkpt lat="45.95317483049272" lon="12.7949379084028"><ele>30.0</ele><time>2026-05-05T14:28:06Z</time></trkpt><trkpt lat="45.95312168040473" lon="12.794533130601451"><ele>30.0</ele><time>2026-05-05T14:28:07Z</time></trkpt><trkpt lat="45.9530737398713" lon="12.794145192253419"><ele>30.0</ele><time>2026-05-05T14:28:08Z</time></trkpt><trkpt lat="45.95302701685751" lon="12.793781377370255"><ele>30.5</ele><time>2026-05-05T14:28:09Z</time></trkpt><trkpt lat="45.95298538991756" lon="12.79342921982397"><ele>31.0</ele><time>2026-05-05T14:28:10Z</time></trkpt><trkpt lat="45.95294634106701" lon="12.79308509429355"><ele>31.0</ele><time>2026-05-05T14:28:11Z</time></trkpt><trkpt lat="45.95290815031379" lon="12.792757797968171"><ele>31.0</ele><time>2026-05-05T14:28:12Z</time></trkpt><trkpt lat="45.952871912259056" lon="12.79245050935828"><ele>31.0</ele><time>2026-05-05T14:28:13Z</time></trkpt><trkpt lat="45.952835887066804" lon="12.79216249624816"><ele>31.0</ele><time>2026-05-05T14:28:14Z</time></trkpt><trkpt lat="45.95280206920322" lon="12.791892841339202"><ele>31.0</ele><time>2026-05-05T14:28:15Z</time></trkpt><trkpt lat="45.95277329970622" lon="12.791641291005023"><ele>31.0</ele><time>2026-05-05T14:28:16Z</time></trkpt><trkpt lat="45.95274699859853" lon="12.791407234576864"><ele>30.333333333333336</ele><time>2026-05-05T14:28:17Z</time></trkpt><trkpt lat="45.95272036939493" lon="12.791182951353187"><ele>29.666666666666664</ele><time>2026-05-05T14:28:18Z</time></trkpt><trkpt lat="45.95269585033055" lon="12.79096416595763"><ele>29.0</ele><time>2026-05-05T14:28:19Z</time></trkpt><trkpt lat="45.952677938216276" lon="12.790744050614515"><ele>29.0</ele><time>2026-05-05T14:28:20Z</time></trkpt><trkpt lat="45.95267978131316" lon="12.790524983263307"><ele>29.0</ele><time>2026-05-05T14:28:21Z</time></trkpt><trkpt lat="45.95270224345897" lon="12.790310821069237"><ele>29.0</ele><time>2026-05-05T14:28:22Z</time></trkpt><trkpt lat="45.952741370945546" lon="12.790100012136064"><ele>29.666666666666664</ele><time>2026-05-05T14:28:23Z</time></trkpt><trkpt lat="45.95279457554823" lon="12.789895442873991"><ele>30.333333333333336</ele><time>2026-05-05T14:28:24Z</time></trkpt><trkpt lat="45.95285724305638" lon="12.789697245856415"><ele>31.0</ele><time>2026-05-05T14:28:25Z</time></trkpt><trkpt lat="45.952924412472235" lon="12.789508988822988"><ele>31.25</ele><time>2026-05-05T14:28:26Z</time></trkpt><trkpt lat="45.95298747063705" lon="12.789328609337197"><ele>31.5</ele><time>2026-05-05T14:28:27Z</time></trkpt><trkpt lat="45.95303714415035" lon="12.789154061551699"><ele>31.75</ele><time>2026-05-05T14:28:28Z</time></trkpt><trkpt lat="45.95308080601504" lon="12.788977894956021"><ele>32.0</ele><time>2026-05-05T14:28:29Z</time></trkpt><trkpt lat="45.95310897985019" lon="12.7887938439043"><ele>32.0</ele><time>2026-05-05T14:28:30Z</time></trkpt><trkpt lat="45.95311649937841" lon="12.788605195318528"><ele>32.0</ele><time>2026-05-05T14:28:31Z</time></trkpt><trkpt lat="45.95310995011452" lon="12.788411019909868"><ele>32.0</ele><time>2026-05-05T14:28:32Z</time></trkpt><trkpt lat="45.953086364574105" lon="12.788209899443272"><ele>32.0</ele><time>2026-05-05T14:28:33Z</time></trkpt><trkpt lat="45.9530524364187" lon="12.78800383196293"><ele>31.333333333333332</ele><time>2026-05-05T14:28:34Z</time></trkpt><trkpt lat="45.95300651540988" lon="12.787788476690107"><ele>30.666666666666664</ele><time>2026-05-05T14:28:35Z</time></trkpt><trkpt lat="45.95295798442499" lon="12.787567185863319"><ele>30.0</ele><time>2026-05-05T14:28:36Z</time></trkpt><trkpt lat="45.95290978941174" lon="12.787342369285584"><ele>29.666666666666664</ele><time>2026-05-05T14:28:37Z</time></trkpt><trkpt lat="45.95286161801304" lon="12.787111496129834"><ele>29.333333333333332</ele><time>2026-05-05T14:28:38Z</time></trkpt><trkpt lat="45.95281317215706" lon="12.786878642368098"><ele>29.0</ele><time>2026-05-05T14:28:39Z</time></trkpt><trkpt lat="45.95276369543828" lon="12.78664389536971"><ele>29.0</ele><time>2026-05-05T14:28:40Z</time></trkpt><trkpt lat="45.95271109490347" lon="12.786404931913705"><ele>29.0</ele><time>2026-05-05T14:28:41Z</time></trkpt><trkpt lat="45.952659501479026" lon="12.786161026393538"><ele>29.0</ele><time>2026-05-05T14:28:42Z</time></trkpt><trkpt lat="45.95261013218166" lon="12.785911093988439"><ele>29.0</ele><time>2026-05-05T14:28:43Z</time></trkpt><trkpt lat="45.95256407867456" lon="12.785653246220214"><ele>29.0</ele><time>2026-05-05T14:28:44Z</time></trkpt><trkpt lat="45.95252595915147" lon="12.785382781685703"><ele>29.0</ele><time>2026-05-05T14:28:45Z</time></trkpt><trkpt lat="45.95249360136115" lon="12.785097841508415"><ele>28.666666666666664</ele><time>2026-05-05T14:28:46Z</time></trkpt><trkpt lat="45.952462298918135" lon="12.784800879254657"><ele>28.333333333333336</ele><time>2026-05-05T14:28:47Z</time></trkpt><trkpt lat="45.952428458576996" lon="12.78448070616594"><ele>28.0</ele><time>2026-05-05T14:28:48Z</time></trkpt><trkpt lat="45.952388690888526" lon="12.78414083304847"><ele>30.0</ele><time>2026-05-05T14:28:49Z</time></trkpt><trkpt lat="45.95235624409412" lon="12.78379773072485"><ele>32.0</ele><time>2026-05-05T14:28:50Z</time></trkpt><trkpt lat="45.952326178581764" lon="12.783446422734642"><ele>33.5</ele><time>2026-05-05T14:28:51Z</time></trkpt><trkpt lat="45.95229730287693" lon="12.783094886983262"><ele>35.0</ele><time>2026-05-05T14:28:52Z</time></trkpt><trkpt lat="45.95226730520828" lon="12.782761788504605"><ele>34.33333333333333</ele><time>2026-05-05T14:28:53Z</time></trkpt><trkpt lat="45.95223899046084" lon="12.78244054697375"><ele>33.666666666666664</ele><time>2026-05-05T14:28:54Z</time></trkpt><trkpt lat="45.95220897469333" lon="12.782134642212041"><ele>33.0</ele><time>2026-05-05T14:28:55Z</time></trkpt><trkpt lat="45.952180036176394" lon="12.781828612846168"><ele>31.666666666666664</ele><time>2026-05-05T14:28:56Z</time></trkpt><trkpt lat="45.952154464378424" lon="12.781519979690364"><ele>30.333333333333332</ele><time>2026-05-05T14:28:57Z</time></trkpt><trkpt lat="45.95212597613731" lon="12.781217844360308"><ele>29.0</ele><time>2026-05-05T14:28:58Z</time></trkpt><trkpt lat="45.952096899092346" lon="12.780920928992472"><ele>29.0</ele><time>2026-05-05T14:28:59Z</time></trkpt><trkpt lat="45.952064410212145" lon="12.780615484009687"><ele>29.0</ele><time>2026-05-05T14:29:00Z</time></trkpt><trkpt lat="45.95202531725614" lon="12.780293641265011"><ele>29.0</ele><time>2026-05-05T14:29:01Z</time></trkpt><trkpt lat="45.951989934729006" lon="12.779957373269678"><ele>29.0</ele><time>2026-05-05T14:29:02Z</time></trkpt><trkpt lat="45.95195992872011" lon="12.779620088441128"><ele>29.0</ele><time>2026-05-05T14:29:03Z</time></trkpt><trkpt lat="45.95192988396114" lon="12.779281122861702"><ele>29.0</ele><time>2026-05-05T14:29:04Z</time></trkpt><trkpt lat="45.95192567179099" lon="12.77893365861163"><ele>29.0</ele><time>2026-05-05T14:29:05Z</time></trkpt><trkpt lat="45.95186879716443" lon="12.77859338722824"><ele>28.5</ele><time>2026-05-05T14:29:06Z</time></trkpt><trkpt lat="45.95183654519929" lon="12.778246199728628"><ele>28.0</ele><time>2026-05-05T14:29:07Z</time></trkpt><trkpt lat="45.951803658173965" lon="12.777898991517565"><ele>27.5</ele><time>2026-05-05T14:29:08Z</time></trkpt><trkpt lat="45.95177019331831" lon="12.777552914900802"><ele>27.0</ele><time>2026-05-05T14:29:09Z</time></trkpt><trkpt lat="45.95175669086585" lon="12.777203873983481"><ele>27.0</ele><time>2026-05-05T14:29:10Z</time></trkpt><trkpt lat="45.95172346484804" lon="12.776862797815493"><ele>27.0</ele><time>2026-05-05T14:29:11Z</time></trkpt><trkpt lat="45.95169103365849" lon="12.776529478908428"><ele>27.333333333333336</ele><time>2026-05-05T14:29:12Z</time></trkpt><trkpt lat="45.95165967159281" lon="12.776207148178825"><ele>27.666666666666668</ele><time>2026-05-05T14:29:13Z</time></trkpt><trkpt lat="45.951629374804774" lon="12.775894491828922"><ele>28.0</ele><time>2026-05-05T14:29:14Z</time></trkpt><trkpt lat="45.951598924490405" lon="12.775582582699407"><ele>28.0</ele><time>2026-05-05T14:29:15Z</time></trkpt><trkpt lat="45.95156807266483" lon="12.77527151602029"><ele>28.0</ele><time>2026-05-05T14:29:16Z</time></trkpt><trkpt lat="45.9515377479074" lon="12.774961075701357"><ele>28.0</ele><time>2026-05-05T14:29:17Z</time></trkpt><trkpt lat="45.95150726598805" lon="12.774647293129558"><ele>28.0</ele><time>2026-05-05T14:29:18Z</time></trkpt><trkpt lat="45.951476670209225" lon="12.774332338490067"><ele>28.0</ele><time>2026-05-05T14:29:19Z</time></trkpt><trkpt lat="45.95144582579082" lon="12.774009724128414"><ele>28.0</ele><time>2026-05-05T14:29:20Z</time></trkpt><trkpt lat="45.95141473248096" lon="12.773679714037547"><ele>28.0</ele><time>2026-05-05T14:29:21Z</time></trkpt><trkpt lat="45.95138293685439" lon="12.773342250099985"><ele>28.0</ele><time>2026-05-05T14:29:22Z</time></trkpt><trkpt lat="45.95134966814846" lon="12.77299970392732"><ele>27.0</ele><time>2026-05-05T14:29:23Z</time></trkpt><trkpt lat="45.95131478268613" lon="12.772664732279717"><ele>26.0</ele><time>2026-05-05T14:29:24Z</time></trkpt><trkpt lat="45.95128258352783" lon="12.772338537943584"><ele>26.0</ele><time>2026-05-05T14:29:25Z</time></trkpt><trkpt lat="45.95125170899932" lon="12.772011213134638"><ele>26.0</ele><time>2026-05-05T14:29:26Z</time></trkpt><trkpt lat="45.95120573433729" lon="12.77170189548453"><ele>26.0</ele><time>2026-05-05T14:29:27Z</time></trkpt><trkpt lat="45.95118238251469" lon="12.771410288401789"><ele>26.0</ele><time>2026-05-05T14:29:28Z</time></trkpt><trkpt lat="45.95115899699442" lon="12.771139309976414"><ele>26.0</ele><time>2026-05-05T14:29:29Z</time></trkpt><trkpt lat="45.95113830823355" lon="12.770884110400674"><ele>26.333333333333332</ele><time>2026-05-05T14:29:30Z</time></trkpt><trkpt lat="45.95111652794506" lon="12.770641228461841"><ele>26.666666666666664</ele><time>2026-05-05T14:29:31Z</time></trkpt><trkpt lat="45.95109411307108" lon="12.770391750255081"><ele>27.0</ele><time>2026-05-05T14:29:32Z</time></trkpt><trkpt lat="45.951069875572934" lon="12.770140295942136"><ele>27.0</ele><time>2026-05-05T14:29:33Z</time></trkpt><trkpt lat="45.95104252448457" lon="12.76988365731528"><ele>27.0</ele><time>2026-05-05T14:29:34Z</time></trkpt><trkpt lat="45.95101447314264" lon="12.769620128046203"><ele>27.0</ele><time>2026-05-05T14:29:35Z</time></trkpt><trkpt lat="45.95098510819133" lon="12.769351368034462"><ele>26.666666666666664</ele><time>2026-05-05T14:29:36Z</time></trkpt><trkpt lat="45.95095411178718" lon="12.769075862776686"><ele>26.333333333333332</ele><time>2026-05-05T14:29:37Z</time></trkpt><trkpt lat="45.950923296239765" lon="12.768794255772747"><ele>26.0</ele><time>2026-05-05T14:29:38Z</time></trkpt><trkpt lat="45.950911239870564" lon="12.76850032029851"><ele>26.0</ele><time>2026-05-05T14:29:39Z</time></trkpt><trkpt lat="45.950880930023104" lon="12.768198335424742"><ele>26.0</ele><time>2026-05-05T14:29:40Z</time></trkpt><trkpt lat="45.950849694117835" lon="12.767886871659966"><ele>26.0</ele><time>2026-05-05T14:29:41Z</time></trkpt><trkpt lat="45.95081845636024" lon="12.767566032153479"><ele>26.0</ele><time>2026-05-05T14:29:42Z</time></trkpt><trkpt lat="45.950786417968885" lon="12.767239281165434"><ele>26.0</ele><time>2026-05-05T14:29:43Z</time></trkpt><trkpt lat="45.950755351224785" lon="12.766914120414661"><ele>26.0</ele><time>2026-05-05T14:29:44Z</time></trkpt><trkpt lat="45.9507247133001" lon="12.76659777731492"><ele>26.0</ele><time>2026-05-05T14:29:45Z</time></trkpt><trkpt lat="45.95069590476844" lon="12.76630032309853"><ele>26.0</ele><time>2026-05-05T14:29:46Z</time></trkpt><trkpt lat="45.95066885826678" lon="12.766021062444425"><ele>26.0</ele><time>2026-05-05T14:29:47Z</time></trkpt><trkpt lat="45.95064346980695" lon="12.765758921407196"><ele>26.0</ele><time>2026-05-05T14:29:48Z</time></trkpt><trkpt lat="45.95061948509612" lon="12.765511274365565"><ele>26.0</ele><time>2026-05-05T14:29:49Z</time></trkpt><trkpt lat="45.950577042436215" lon="12.765268754564577"><ele>26.333333333333332</ele><time>2026-05-05T14:29:50Z</time></trkpt><trkpt lat="45.95055293149204" lon="12.765017764219824"><ele>26.666666666666664</ele><time>2026-05-05T14:29:51Z</time></trkpt><trkpt lat="45.95052775928358" lon="12.764767765298927"><ele>27.0</ele><time>2026-05-05T14:29:52Z</time></trkpt><trkpt lat="45.950503654630474" lon="12.764516972641173"><ele>26.333333333333336</ele><time>2026-05-05T14:29:53Z</time></trkpt><trkpt lat="45.95047847704591" lon="12.764266221703766"><ele>25.666666666666668</ele><time>2026-05-05T14:29:54Z</time></trkpt><trkpt lat="45.95045494407322" lon="12.764014592967408"><ele>25.0</ele><time>2026-05-05T14:29:55Z</time></trkpt><trkpt lat="45.95042985303084" lon="12.763758316092858"><ele>24.333333333333336</ele><time>2026-05-05T14:29:56Z</time></trkpt><trkpt lat="45.950403417294915" lon="12.763497490492359"><ele>23.666666666666668</ele><time>2026-05-05T14:29:57Z</time></trkpt><trkpt lat="45.9503785679335" lon="12.763237056508933"><ele>23.0</ele><time>2026-05-05T14:29:58Z</time></trkpt><trkpt lat="45.950352797151744" lon="12.762975659823564"><ele>23.0</ele><time>2026-05-05T14:29:59Z</time></trkpt><trkpt lat="45.950325675299915" lon="12.762716043222207"><ele>23.0</ele><time>2026-05-05T14:30:00Z</time></trkpt><trkpt lat="45.95029828950744" lon="12.762461814453854"><ele>23.0</ele><time>2026-05-05T14:30:01Z</time></trkpt><trkpt lat="45.9502745776461" lon="12.762209541779114"><ele>23.0</ele><time>2026-05-05T14:30:02Z</time></trkpt><trkpt lat="45.95025111533913" lon="12.761958402129732"><ele>23.0</ele><time>2026-05-05T14:30:03Z</time></trkpt><trkpt lat="45.95022726348392" lon="12.761709549265612"><ele>23.0</ele><time>2026-05-05T14:30:04Z</time></trkpt><trkpt lat="45.950202326859255" lon="12.761464023095467"><ele>23.0</ele><time>2026-05-05T14:30:05Z</time></trkpt><trkpt lat="45.95017912157942" lon="12.761228075767205"><ele>23.0</ele><time>2026-05-05T14:30:06Z</time></trkpt><trkpt lat="45.95015865800802" lon="12.761009501634726"><ele>23.0</ele><time>2026-05-05T14:30:07Z</time></trkpt><trkpt lat="45.950140471712615" lon="12.760809614276402"><ele>23.25</ele><time>2026-05-05T14:30:08Z</time></trkpt><trkpt lat="45.950123621422" lon="12.760623331476381"><ele>23.5</ele><time>2026-05-05T14:30:09Z</time></trkpt><trkpt lat="45.95010958313906" lon="12.760447373022048"><ele>23.75</ele><time>2026-05-05T14:30:10Z</time></trkpt><trkpt lat="45.95009466726534" lon="12.760289203368128"><ele>24.0</ele><time>2026-05-05T14:30:11Z</time></trkpt><trkpt lat="45.95008330927684" lon="12.760141186988518"><ele>24.4</ele><time>2026-05-05T14:30:12Z</time></trkpt><trkpt lat="45.95007476976123" lon="12.76000360917263"><ele>24.799999999999997</ele><time>2026-05-05T14:30:13Z</time></trkpt><trkpt lat="45.95007044692988" lon="12.759868586944513"><ele>25.200000000000003</ele><time>2026-05-05T14:30:14Z</time></trkpt><trkpt lat="45.95007912039086" lon="12.759737927469347"><ele>25.6</ele><time>2026-05-05T14:30:15Z</time></trkpt><trkpt lat="45.95009399080657" lon="12.759611148737692"><ele>26.0</ele><time>2026-05-05T14:30:16Z</time></trkpt><trkpt lat="45.9501169259764" lon="12.759490596754993"><ele>25.999999999999996</ele><time>2026-05-05T14:30:17Z</time></trkpt><trkpt lat="45.950144777305084" lon="12.75937315183954"><ele>26.0</ele><time>2026-05-05T14:30:18Z</time></trkpt><trkpt lat="45.95017490184745" lon="12.759262153559607"><ele>26.0</ele><time>2026-05-05T14:30:19Z</time></trkpt><trkpt lat="45.950199216320065" lon="12.75915725078515"><ele>26.0</ele><time>2026-05-05T14:30:20Z</time></trkpt><trkpt lat="45.95020132824051" lon="12.75904776771786"><ele>25.999999999999996</ele><time>2026-05-05T14:30:21Z</time></trkpt><trkpt lat="45.950187837920765" lon="12.758943341007337"><ele>26.0</ele><time>2026-05-05T14:30:22Z</time></trkpt><trkpt lat="45.95015120701823" lon="12.758842856575853"><ele>26.0</ele><time>2026-05-05T14:30:23Z</time></trkpt><trkpt lat="45.95009448116882" lon="12.75875145456165"><ele>26.0</ele><time>2026-05-05T14:30:24Z</time></trkpt><trkpt lat="45.95003591451516" lon="12.758648188247323"><ele>26.0</ele><time>2026-05-05T14:30:25Z</time></trkpt><trkpt lat="45.94998858330802" lon="12.758517317967456"><ele>26.0</ele><time>2026-05-05T14:30:26Z</time></trkpt><trkpt lat="45.94995242814565" lon="12.758379514446071"><ele>26.0</ele><time>2026-05-05T14:30:27Z</time></trkpt><trkpt lat="45.94992467863316" lon="12.758241070567507"><ele>25.8</ele><time>2026-05-05T14:30:28Z</time></trkpt><trkpt lat="45.949898455500026" lon="12.758099852875725"><ele>25.6</ele><time>2026-05-05T14:30:29Z</time></trkpt><trkpt lat="45.949877099357145" lon="12.75796419163884"><ele>25.4</ele><time>2026-05-05T14:30:30Z</time></trkpt><trkpt lat="45.94985391359557" lon="12.757823268925632"><ele>25.2</ele><time>2026-05-05T14:30:31Z</time></trkpt><trkpt lat="45.94983747081878" lon="12.757683434408971"><ele>25.0</ele><time>2026-05-05T14:30:32Z</time></trkpt><trkpt lat="45.94982298174654" lon="12.75754902611935"><ele>25.0</ele><time>2026-05-05T14:30:33Z</time></trkpt><trkpt lat="45.949808559950604" lon="12.757409919830957"><ele>25.0</ele><time>2026-05-05T14:30:34Z</time></trkpt><trkpt lat="45.949794145137126" lon="12.757263670431742"><ele>25.0</ele><time>2026-05-05T14:30:35Z</time></trkpt><trkpt lat="45.949780253940425" lon="12.757115023432798"><ele>25.0</ele><time>2026-05-05T14:30:36Z</time></trkpt><trkpt lat="45.94976529091553" lon="12.756964534033003"><ele>25.0</ele><time>2026-05-05T14:30:37Z</time></trkpt><trkpt lat="45.94975096380899" lon="12.756812433561471"><ele>24.8</ele><time>2026-05-05T14:30:38Z</time></trkpt><trkpt lat="45.949737105124804" lon="12.756660407328983"><ele>24.6</ele><time>2026-05-05T14:30:39Z</time></trkpt><trkpt lat="45.9497221707953" lon="12.756505434940921"><ele>24.4</ele><time>2026-05-05T14:30:40Z</time></trkpt><trkpt lat="45.94970660719798" lon="12.756345303577762"><ele>24.2</ele><time>2026-05-05T14:30:41Z</time></trkpt><trkpt lat="45.94969041732517" lon="12.75617901458959"><ele>24.0</ele><time>2026-05-05T14:30:42Z</time></trkpt><trkpt lat="45.949673297002356" lon="12.756007364766774"><ele>23.75</ele><time>2026-05-05T14:30:43Z</time></trkpt><trkpt lat="45.94965551621974" lon="12.755828970651912"><ele>23.5</ele><time>2026-05-05T14:30:44Z</time></trkpt><trkpt lat="45.94963876622725" lon="12.755645888127441"><ele>23.25</ele><time>2026-05-05T14:30:45Z</time></trkpt><trkpt lat="45.94962098858352" lon="12.75546581051772"><ele>23.0</ele><time>2026-05-05T14:30:46Z</time></trkpt><trkpt lat="45.94960358677338" lon="12.755289576648984"><ele>23.25</ele><time>2026-05-05T14:30:47Z</time></trkpt><trkpt lat="45.94958679468032" lon="12.755118058897688"><ele>23.5</ele><time>2026-05-05T14:30:48Z</time></trkpt><trkpt lat="45.94957026991589" lon="12.754950052440037"><ele>23.75</ele><time>2026-05-05T14:30:49Z</time></trkpt><trkpt lat="45.949555889290906" lon="12.75478029131683"><ele>24.0</ele><time>2026-05-05T14:30:50Z</time></trkpt><trkpt lat="45.94954160444596" lon="12.754607574365092"><ele>24.0</ele><time>2026-05-05T14:30:51Z</time></trkpt><trkpt lat="45.94952618740814" lon="12.754436208613084"><ele>24.0</ele><time>2026-05-05T14:30:52Z</time></trkpt><trkpt lat="45.94951267130142" lon="12.754263848872498"><ele>24.0</ele><time>2026-05-05T14:30:53Z</time></trkpt><trkpt lat="45.949497607283256" lon="12.754084725308422"><ele>24.0</ele><time>2026-05-05T14:30:54Z</time></trkpt><trkpt lat="45.949478986595274" lon="12.753900740546623"><ele>24.0</ele><time>2026-05-05T14:30:55Z</time></trkpt><trkpt lat="45.94947302211131" lon="12.753716961045239"><ele>24.0</ele><time>2026-05-05T14:30:56Z</time></trkpt><trkpt lat="45.949454485194245" lon="12.753527106530772"><ele>24.0</ele><time>2026-05-05T14:30:57Z</time></trkpt><trkpt lat="45.94943581904468" lon="12.753330081151711"><ele>24.0</ele><time>2026-05-05T14:30:58Z</time></trkpt><trkpt lat="45.949416825928346" lon="12.753124325645732"><ele>24.0</ele><time>2026-05-05T14:30:59Z</time></trkpt><trkpt lat="45.9493967082594" lon="12.752911149637379"><ele>24.0</ele><time>2026-05-05T14:31:00Z</time></trkpt><trkpt lat="45.9493753722887" lon="12.752698718401865"><ele>24.0</ele><time>2026-05-05T14:31:01Z</time></trkpt><trkpt lat="45.94935448024894" lon="12.75248388720952"><ele>24.0</ele><time>2026-05-05T14:31:02Z</time></trkpt><trkpt lat="45.949333894105095" lon="12.75226999109496"><ele>24.0</ele><time>2026-05-05T14:31:03Z</time></trkpt><trkpt lat="45.94931267933869" lon="12.752063691941236"><ele>24.0</ele><time>2026-05-05T14:31:04Z</time></trkpt><trkpt lat="45.949290677487674" lon="12.751858390666692"><ele>24.0</ele><time>2026-05-05T14:31:05Z</time></trkpt><trkpt lat="45.94926927052268" lon="12.751650968929777"><ele>23.75</ele><time>2026-05-05T14:31:06Z</time></trkpt><trkpt lat="45.94925860563053" lon="12.751439923886027"><ele>23.5</ele><time>2026-05-05T14:31:07Z</time></trkpt><trkpt lat="45.94923678274979" lon="12.751230121608348"><ele>23.25</ele><time>2026-05-05T14:31:08Z</time></trkpt><trkpt lat="45.949215301768966" lon="12.751018748521135"><ele>23.0</ele><time>2026-05-05T14:31:09Z</time></trkpt><trkpt lat="45.94919451615212" lon="12.750808833299715"><ele>23.0</ele><time>2026-05-05T14:31:10Z</time></trkpt><trkpt lat="45.94917315271811" lon="12.750602512612184"><ele>23.0</ele><time>2026-05-05T14:31:11Z</time></trkpt><trkpt lat="45.949155409577706" lon="12.750404614690362"><ele>23.0</ele><time>2026-05-05T14:31:12Z</time></trkpt><trkpt lat="45.949136586531125" lon="12.75021361745109"><ele>23.0</ele><time>2026-05-05T14:31:13Z</time></trkpt><trkpt lat="45.9491183526122" lon="12.750033753387292"><ele>23.0</ele><time>2026-05-05T14:31:14Z</time></trkpt><trkpt lat="45.94909939585033" lon="12.749857178824769"><ele>23.0</ele><time>2026-05-05T14:31:15Z</time></trkpt><trkpt lat="45.94908178929012" lon="12.749681339686889"><ele>23.0</ele><time>2026-05-05T14:31:16Z</time></trkpt><trkpt lat="45.949065481815225" lon="12.749505543619357"><ele>23.0</ele><time>2026-05-05T14:31:17Z</time></trkpt><trkpt lat="45.949047840689616" lon="12.7493244523527"><ele>23.25</ele><time>2026-05-05T14:31:18Z</time></trkpt><trkpt lat="45.949028544377256" lon="12.749140654536642"><ele>23.5</ele><time>2026-05-05T14:31:19Z</time></trkpt><trkpt lat="45.94900997864281" lon="12.748950346185026"><ele>23.75</ele><time>2026-05-05T14:31:20Z</time></trkpt><trkpt lat="45.94899339317852" lon="12.74875589521889"><ele>24.0</ele><time>2026-05-05T14:31:21Z</time></trkpt><trkpt lat="45.948977932710115" lon="12.748562444375795"><ele>24.0</ele><time>2026-05-05T14:31:22Z</time></trkpt><trkpt lat="45.948960648112255" lon="12.748369137684948"><ele>24.0</ele><time>2026-05-05T14:31:23Z</time></trkpt><trkpt lat="45.94894033679406" lon="12.748174317385814"><ele>24.0</ele><time>2026-05-05T14:31:24Z</time></trkpt><trkpt lat="45.94891861947057" lon="12.747965324002054"><ele>24.0</ele><time>2026-05-05T14:31:25Z</time></trkpt><trkpt lat="45.948897154712554" lon="12.747747348361715"><ele>23.75</ele><time>2026-05-05T14:31:26Z</time></trkpt><trkpt lat="45.94887872982936" lon="12.747530490694825"><ele>23.5</ele><time>2026-05-05T14:31:27Z</time></trkpt><trkpt lat="45.9488552253874" lon="12.74731458580336"><ele>23.25</ele><time>2026-05-05T14:31:28Z</time></trkpt><trkpt lat="45.948835401113" lon="12.747110113815598"><ele>23.0</ele><time>2026-05-05T14:31:29Z</time></trkpt><trkpt lat="45.9488158948108" lon="12.746916517617818"><ele>23.25</ele><time>2026-05-05T14:31:30Z</time></trkpt><trkpt lat="45.94879499284715" lon="12.746727373057077"><ele>23.5</ele><time>2026-05-05T14:31:31Z</time></trkpt><trkpt lat="45.94877387963958" lon="12.746529110879232"><ele>23.75</ele><time>2026-05-05T14:31:32Z</time></trkpt><trkpt lat="45.948756175461675" lon="12.746340787609652"><ele>24.0</ele><time>2026-05-05T14:31:33Z</time></trkpt><trkpt lat="45.948739572086176" lon="12.746153940980433"><ele>24.0</ele><time>2026-05-05T14:31:34Z</time></trkpt><trkpt lat="45.94872249814279" lon="12.745972751033385"><ele>24.0</ele><time>2026-05-05T14:31:35Z</time></trkpt><trkpt lat="45.94870451508" lon="12.74579850641224"><ele>24.0</ele><time>2026-05-05T14:31:36Z</time></trkpt><trkpt lat="45.94868603332646" lon="12.74562132934959"><ele>24.0</ele><time>2026-05-05T14:31:37Z</time></trkpt><trkpt lat="45.94867190447299" lon="12.745457394869732"><ele>24.0</ele><time>2026-05-05T14:31:38Z</time></trkpt><trkpt lat="45.94865514441971" lon="12.745298744469505"><ele>24.0</ele><time>2026-05-05T14:31:39Z</time></trkpt><trkpt lat="45.94864079672099" lon="12.745154579478898"><ele>24.0</ele><time>2026-05-05T14:31:40Z</time></trkpt><trkpt lat="45.948624861246074" lon="12.745019533897894"><ele>24.0</ele><time>2026-05-05T14:31:41Z</time></trkpt><trkpt lat="45.948609826341695" lon="12.744900401227207"><ele>24.0</ele><time>2026-05-05T14:31:42Z</time></trkpt><trkpt lat="45.94859947585754" lon="12.744790064976675"><ele>23.833333333333332</ele><time>2026-05-05T14:31:43Z</time></trkpt><trkpt lat="45.94859060685789" lon="12.744676777478631"><ele>23.666666666666668</ele><time>2026-05-05T14:31:44Z</time></trkpt><trkpt lat="45.94858197657682" lon="12.744566099441897"><ele>23.5</ele><time>2026-05-05T14:31:45Z</time></trkpt><trkpt lat="45.948575587854336" lon="12.744458088345056"><ele>23.333333333333336</ele><time>2026-05-05T14:31:46Z</time></trkpt><trkpt lat="45.948574088602385" lon="12.744349133678265"><ele>23.166666666666668</ele><time>2026-05-05T14:31:47Z</time></trkpt><trkpt lat="45.948576831610275" lon="12.744235207834357"><ele>23.0</ele><time>2026-05-05T14:31:48Z</time></trkpt><trkpt lat="45.94858598919355" lon="12.744120824735894"><ele>23.0</ele><time>2026-05-05T14:31:49Z</time></trkpt><trkpt lat="45.94860351059879" lon="12.744008334143649"><ele>23.0</ele><time>2026-05-05T14:31:50Z</time></trkpt><trkpt lat="45.948629277598975" lon="12.743890937732433"><ele>23.0</ele><time>2026-05-05T14:31:51Z</time></trkpt><trkpt lat="45.94865301591032" lon="12.743772519677533"><ele>23.0</ele><time>2026-05-05T14:31:52Z</time></trkpt><trkpt lat="45.94866053159311" lon="12.743648003588591"><ele>23.0</ele><time>2026-05-05T14:31:53Z</time></trkpt><trkpt lat="45.948644277504904" lon="12.743523870302102"><ele>23.0</ele><time>2026-05-05T14:31:54Z</time></trkpt><trkpt lat="45.948600848689495" lon="12.743396429293805"><ele>23.0</ele><time>2026-05-05T14:31:55Z</time></trkpt><trkpt lat="45.94854456949436" lon="12.743277181988173"><ele>23.0</ele><time>2026-05-05T14:31:56Z</time></trkpt><trkpt lat="45.94849801537922" lon="12.743152145406203"><ele>23.0</ele><time>2026-05-05T14:31:57Z</time></trkpt><trkpt lat="45.948466371472584" lon="12.74302963467948"><ele>23.0</ele><time>2026-05-05T14:31:58Z</time></trkpt><trkpt lat="45.948435950260034" lon="12.74289943394742"><ele>23.0</ele><time>2026-05-05T14:31:59Z</time></trkpt><trkpt lat="45.9484132045309" lon="12.742774944673533"><ele>23.0</ele><time>2026-05-05T14:32:00Z</time></trkpt><trkpt lat="45.94839358694176" lon="12.742653045403408"><ele>23.0</ele><time>2026-05-05T14:32:01Z</time></trkpt><trkpt lat="45.948377296653746" lon="12.742527467347415"><ele>23.0</ele><time>2026-05-05T14:32:02Z</time></trkpt><trkpt lat="45.94836506595657" lon="12.7424031234351"><ele>23.0</ele><time>2026-05-05T14:32:03Z</time></trkpt><trkpt lat="45.94835155777193" lon="12.742272718541162"><ele>23.0</ele><time>2026-05-05T14:32:04Z</time></trkpt><trkpt lat="45.94833813694701" lon="12.742144769686911"><ele>23.0</ele><time>2026-05-05T14:32:05Z</time></trkpt><trkpt lat="45.94832344150864" lon="12.742006277856433"><ele>22.799999999999997</ele><time>2026-05-05T14:32:06Z</time></trkpt><trkpt lat="45.94831157674076" lon="12.741863637044991"><ele>22.6</ele><time>2026-05-05T14:32:07Z</time></trkpt><trkpt lat="45.948298378586514" lon="12.741714919622417"><ele>22.4</ele><time>2026-05-05T14:32:08Z</time></trkpt><trkpt lat="45.94828564026075" lon="12.74156467203599"><ele>22.200000000000003</ele><time>2026-05-05T14:32:09Z</time></trkpt><trkpt lat="45.94827279257585" lon="12.741414373755237"><ele>22.0</ele><time>2026-05-05T14:32:10Z</time></trkpt><trkpt lat="45.948258236298294" lon="12.741260718406046"><ele>22.0</ele><time>2026-05-05T14:32:11Z</time></trkpt><trkpt lat="45.94823991581518" lon="12.741098301132137"><ele>22.0</ele><time>2026-05-05T14:32:12Z</time></trkpt><trkpt lat="45.948223282657914" lon="12.74093170913099"><ele>22.0</ele><time>2026-05-05T14:32:13Z</time></trkpt><trkpt lat="45.94820803532364" lon="12.740765809080655"><ele>22.0</ele><time>2026-05-05T14:32:14Z</time></trkpt><trkpt lat="45.948192037173406" lon="12.740601672013652"><ele>22.0</ele><time>2026-05-05T14:32:15Z</time></trkpt><trkpt lat="45.948177182223404" lon="12.740436140143206"><ele>22.0</ele><time>2026-05-05T14:32:16Z</time></trkpt><trkpt lat="45.948159356630825" lon="12.740267159571278"><ele>22.0</ele><time>2026-05-05T14:32:17Z</time></trkpt><trkpt lat="45.948145587898246" lon="12.740093982428379"><ele>22.0</ele><time>2026-05-05T14:32:18Z</time></trkpt><trkpt lat="45.94812705332737" lon="12.739928062402923"><ele>22.25</ele><time>2026-05-05T14:32:19Z</time></trkpt><trkpt lat="45.948107660471855" lon="12.739750421405246"><ele>22.5</ele><time>2026-05-05T14:32:20Z</time></trkpt><trkpt lat="45.94809127437407" lon="12.739564413450712"><ele>22.75</ele><time>2026-05-05T14:32:21Z</time></trkpt><trkpt lat="45.948073944856375" lon="12.73938210398129"><ele>23.0</ele><time>2026-05-05T14:32:22Z</time></trkpt><trkpt lat="45.94805527555988" lon="12.739190949558736"><ele>23.25</ele><time>2026-05-05T14:32:23Z</time></trkpt><trkpt lat="45.94803718694899" lon="12.739005228791742"><ele>23.5</ele><time>2026-05-05T14:32:24Z</time></trkpt><trkpt lat="45.94802019873731" lon="12.738819323940294"><ele>23.75</ele><time>2026-05-05T14:32:25Z</time></trkpt><trkpt lat="45.94800242615893" lon="12.738628372984635"><ele>24.0</ele><time>2026-05-05T14:32:26Z</time></trkpt><trkpt lat="45.947984203114565" lon="12.738438199888863"><ele>24.0</ele><time>2026-05-05T14:32:27Z</time></trkpt><trkpt lat="45.94796566567958" lon="12.738246415325758"><ele>24.0</ele><time>2026-05-05T14:32:28Z</time></trkpt><trkpt lat="45.9479475713666" lon="12.738053395000684"><ele>24.0</ele><time>2026-05-05T14:32:29Z</time></trkpt><trkpt lat="45.947929867541006" lon="12.73785966014377"><ele>24.0</ele><time>2026-05-05T14:32:30Z</time></trkpt><trkpt lat="45.94791015984713" lon="12.737667087443478"><ele>23.75</ele><time>2026-05-05T14:32:31Z</time></trkpt><trkpt lat="45.947891595753994" lon="12.737470932251217"><ele>23.5</ele><time>2026-05-05T14:32:32Z</time></trkpt><trkpt lat="45.94787395345245" lon="12.737279081198553"><ele>23.25</ele><time>2026-05-05T14:32:33Z</time></trkpt><trkpt lat="45.94785547214228" lon="12.737085739423701"><ele>23.0</ele><time>2026-05-05T14:32:34Z</time></trkpt><trkpt lat="45.947830844602414" lon="12.736890087230352"><ele>22.75</ele><time>2026-05-05T14:32:35Z</time></trkpt><trkpt lat="45.94780742153676" lon="12.736691581336265"><ele>22.5</ele><time>2026-05-05T14:32:36Z</time></trkpt><trkpt lat="45.947786279362134" lon="12.736486880839976"><ele>22.25</ele><time>2026-05-05T14:32:37Z</time></trkpt><trkpt lat="45.94776868834502" lon="12.73628231070887"><ele>22.0</ele><time>2026-05-05T14:32:38Z</time></trkpt><trkpt lat="45.947749161528435" lon="12.73607459104665"><ele>21.75</ele><time>2026-05-05T14:32:39Z</time></trkpt><trkpt lat="45.94772907779965" lon="12.735859288724214"><ele>21.5</ele><time>2026-05-05T14:32:40Z</time></trkpt><trkpt lat="45.94770784050447" lon="12.73564974994463"><ele>21.25</ele><time>2026-05-05T14:32:41Z</time></trkpt><trkpt lat="45.947689075972725" lon="12.735440473263093"><ele>21.0</ele><time>2026-05-05T14:32:42Z</time></trkpt><trkpt lat="45.94766757093568" lon="12.735232448317364"><ele>21.0</ele><time>2026-05-05T14:32:43Z</time></trkpt><trkpt lat="45.94764804524356" lon="12.735017422477293"><ele>21.0</ele><time>2026-05-05T14:32:44Z</time></trkpt><trkpt lat="45.94762808755632" lon="12.734808058432478"><ele>21.0</ele><time>2026-05-05T14:32:45Z</time></trkpt><trkpt lat="45.94760976381607" lon="12.73461028204833"><ele>21.0</ele><time>2026-05-05T14:32:46Z</time></trkpt><trkpt lat="45.94759141861067" lon="12.734417363343777"><ele>21.25</ele><time>2026-05-05T14:32:47Z</time></trkpt><trkpt lat="45.94757482808612" lon="12.734237352586925"><ele>21.5</ele><time>2026-05-05T14:32:48Z</time></trkpt><trkpt lat="45.947558806250946" lon="12.734064136499313"><ele>21.75</ele><time>2026-05-05T14:32:49Z</time></trkpt><trkpt lat="45.947543418107436" lon="12.733886578301291"><ele>22.0</ele><time>2026-05-05T14:32:50Z</time></trkpt><trkpt lat="45.94752235277109" lon="12.733705935150413"><ele>22.25</ele><time>2026-05-05T14:32:51Z</time></trkpt><trkpt lat="45.94750089228333" lon="12.733523648118064"><ele>22.5</ele><time>2026-05-05T14:32:52Z</time></trkpt><trkpt lat="45.94748125477935" lon="12.733335990340528"><ele>22.75</ele><time>2026-05-05T14:32:53Z</time></trkpt><trkpt lat="45.94747759373929" lon="12.733141986630491"><ele>23.0</ele><time>2026-05-05T14:32:54Z</time></trkpt><trkpt lat="45.94745645733097" lon="12.732951399654704"><ele>23.0</ele><time>2026-05-05T14:32:55Z</time></trkpt><trkpt lat="45.947438208978376" lon="12.732755659124813"><ele>23.0</ele><time>2026-05-05T14:32:56Z</time></trkpt><trkpt lat="45.947419558134186" lon="12.732555601266771"><ele>23.0</ele><time>2026-05-05T14:32:57Z</time></trkpt><trkpt lat="45.94738516983781" lon="12.732356651087603"><ele>23.0</ele><time>2026-05-05T14:32:58Z</time></trkpt><trkpt lat="45.9473651315909" lon="12.732148763826705"><ele>23.0</ele><time>2026-05-05T14:32:59Z</time></trkpt><trkpt lat="45.94734648117607" lon="12.73194209700483"><ele>23.0</ele><time>2026-05-05T14:33:00Z</time></trkpt><trkpt lat="45.94732552806301" lon="12.731733520464294"><ele>23.0</ele><time>2026-05-05T14:33:01Z</time></trkpt><trkpt lat="45.94730496138262" lon="12.731525572821951"><ele>23.0</ele><time>2026-05-05T14:33:02Z</time></trkpt><trkpt lat="45.94728410049337" lon="12.731306021738652"><ele>23.0</ele><time>2026-05-05T14:33:03Z</time></trkpt><trkpt lat="45.947265243341164" lon="12.731086892767923"><ele>23.0</ele><time>2026-05-05T14:33:04Z</time></trkpt><trkpt lat="45.94724461418507" lon="12.730865142403392"><ele>23.0</ele><time>2026-05-05T14:33:05Z</time></trkpt><trkpt lat="45.94722342076285" lon="12.730638692522048"><ele>23.0</ele><time>2026-05-05T14:33:06Z</time></trkpt><trkpt lat="45.947202932302204" lon="12.730409795139884"><ele>23.0</ele><time>2026-05-05T14:33:07Z</time></trkpt><trkpt lat="45.94718328762609" lon="12.730182790331973"><ele>23.0</ele><time>2026-05-05T14:33:08Z</time></trkpt><trkpt lat="45.94716377673166" lon="12.729954587417433"><ele>23.0</ele><time>2026-05-05T14:33:09Z</time></trkpt><trkpt lat="45.94714055156432" lon="12.72972466222745"><ele>23.0</ele><time>2026-05-05T14:33:10Z</time></trkpt><trkpt lat="45.94712081456091" lon="12.729490803469654"><ele>23.0</ele><time>2026-05-05T14:33:11Z</time></trkpt><trkpt lat="45.947099369619266" lon="12.729268118155883"><ele>23.0</ele><time>2026-05-05T14:33:12Z</time></trkpt><trkpt lat="45.94707595903629" lon="12.72905628900609"><ele>23.0</ele><time>2026-05-05T14:33:13Z</time></trkpt><trkpt lat="45.94705463724694" lon="12.728862485203033"><ele>23.0</ele><time>2026-05-05T14:33:14Z</time></trkpt><trkpt lat="45.9470358603748" lon="12.728672432702465"><ele>23.0</ele><time>2026-05-05T14:33:15Z</time></trkpt><trkpt lat="45.94701591844664" lon="12.728487495158221"><ele>22.75</ele><time>2026-05-05T14:33:16Z</time></trkpt><trkpt lat="45.946997658561735" lon="12.72830499434707"><ele>22.5</ele><time>2026-05-05T14:33:17Z</time></trkpt><trkpt lat="45.946977578844134" lon="12.728123986063679"><ele>22.25</ele><time>2026-05-05T14:33:18Z</time></trkpt><trkpt lat="45.94695994111621" lon="12.727946716915383"><ele>22.0</ele><time>2026-05-05T14:33:19Z</time></trkpt><trkpt lat="45.946943232675515" lon="12.727768031894422"><ele>22.0</ele><time>2026-05-05T14:33:20Z</time></trkpt><trkpt lat="45.94693478587977" lon="12.727589429246036"><ele>22.0</ele><time>2026-05-05T14:33:21Z</time></trkpt><trkpt lat="45.94691649036089" lon="12.72740948929898"><ele>22.0</ele><time>2026-05-05T14:33:22Z</time></trkpt><trkpt lat="45.94689784694834" lon="12.727226324908576"><ele>22.0</ele><time>2026-05-05T14:33:23Z</time></trkpt><trkpt lat="45.946875574437904" lon="12.727041902171608"><ele>22.25</ele><time>2026-05-05T14:33:24Z</time></trkpt><trkpt lat="45.94685828855195" lon="12.726854148956846"><ele>22.5</ele><time>2026-05-05T14:33:25Z</time></trkpt><trkpt lat="45.94683932824455" lon="12.726666714959482"><ele>22.75</ele><time>2026-05-05T14:33:26Z</time></trkpt><trkpt lat="45.946820280721" lon="12.7264801434548"><ele>23.0</ele><time>2026-05-05T14:33:27Z</time></trkpt><trkpt lat="45.94680392509683" lon="12.72629351000271"><ele>23.0</ele><time>2026-05-05T14:33:28Z</time></trkpt><trkpt lat="45.94678863484488" lon="12.726104527783393"><ele>23.0</ele><time>2026-05-05T14:33:29Z</time></trkpt><trkpt lat="45.94677266215473" lon="12.725916007248466"><ele>23.0</ele><time>2026-05-05T14:33:30Z</time></trkpt><trkpt lat="45.94675824603579" lon="12.725729229196466"><ele>23.0</ele><time>2026-05-05T14:33:31Z</time></trkpt><trkpt lat="45.94674097394375" lon="12.725541202302706"><ele>23.0</ele><time>2026-05-05T14:33:32Z</time></trkpt><trkpt lat="45.946724380417315" lon="12.725354528247845"><ele>23.0</ele><time>2026-05-05T14:33:33Z</time></trkpt><trkpt lat="45.9467058713687" lon="12.725166875983493"><ele>23.0</ele><time>2026-05-05T14:33:34Z</time></trkpt><trkpt lat="45.946683665240464" lon="12.724977663505443"><ele>23.0</ele><time>2026-05-05T14:33:35Z</time></trkpt><trkpt lat="45.946663109636134" lon="12.724790573021028"><ele>22.75</ele><time>2026-05-05T14:33:36Z</time></trkpt><trkpt lat="45.94664339825702" lon="12.724603137973485"><ele>22.5</ele><time>2026-05-05T14:33:37Z</time></trkpt><trkpt lat="45.94662495926982" lon="12.724415261440196"><ele>22.25</ele><time>2026-05-05T14:33:38Z</time></trkpt><trkpt lat="45.94660803369766" lon="12.724227795299038"><ele>22.0</ele><time>2026-05-05T14:33:39Z</time></trkpt><trkpt lat="45.946590398369885" lon="12.724046322925638"><ele>21.75</ele><time>2026-05-05T14:33:40Z</time></trkpt><trkpt lat="45.946570578523485" lon="12.723864278896688"><ele>21.5</ele><time>2026-05-05T14:33:41Z</time></trkpt><trkpt lat="45.94655311336996" lon="12.723687486873665"><ele>21.25</ele><time>2026-05-05T14:33:42Z</time></trkpt><trkpt lat="45.94653722895352" lon="12.723523054266845"><ele>21.0</ele><time>2026-05-05T14:33:43Z</time></trkpt><trkpt lat="45.94652602296817" lon="12.7233596023859"><ele>21.4</ele><time>2026-05-05T14:33:44Z</time></trkpt><trkpt lat="45.946514427813376" lon="12.723202123265045"><ele>21.8</ele><time>2026-05-05T14:33:45Z</time></trkpt><trkpt lat="45.946504402478126" lon="12.72304457564228"><ele>22.2</ele><time>2026-05-05T14:33:46Z</time></trkpt><trkpt lat="45.94649557969436" lon="12.722891849081977"><ele>22.599999999999998</ele><time>2026-05-05T14:33:47Z</time></trkpt><trkpt lat="45.946489151242766" lon="12.722754016089883"><ele>23.0</ele><time>2026-05-05T14:33:48Z</time></trkpt><trkpt lat="45.94648217076154" lon="12.72261506932628"><ele>23.142857142857142</ele><time>2026-05-05T14:33:49Z</time></trkpt><trkpt lat="45.94647635200365" lon="12.722488122375337"><ele>23.285714285714285</ele><time>2026-05-05T14:33:50Z</time></trkpt><trkpt lat="45.94646818016447" lon="12.72237739147621"><ele>23.428571428571427</ele><time>2026-05-05T14:33:51Z</time></trkpt><trkpt lat="45.9464680350844" lon="12.722282771304222"><ele>23.57142857142857</ele><time>2026-05-05T14:33:52Z</time></trkpt><trkpt lat="45.9464764509517" lon="12.722189662466846"><ele>23.714285714285715</ele><time>2026-05-05T14:33:53Z</time></trkpt><trkpt lat="45.94648273789652" lon="12.72209733104838"><ele>23.857142857142854</ele><time>2026-05-05T14:33:54Z</time></trkpt><trkpt lat="45.94647882484438" lon="12.721999602107871"><ele>24.0</ele><time>2026-05-05T14:33:55Z</time></trkpt><trkpt lat="45.946474699321875" lon="12.721892502465709"><ele>24.166666666666668</ele><time>2026-05-05T14:33:56Z</time></trkpt><trkpt lat="45.94646855299717" lon="12.721784456637565"><ele>24.333333333333336</ele><time>2026-05-05T14:33:57Z</time></trkpt><trkpt lat="45.946466854108614" lon="12.721672902316858"><ele>24.5</ele><time>2026-05-05T14:33:58Z</time></trkpt><trkpt lat="45.946461556305906" lon="12.721554073083976"><ele>24.666666666666668</ele><time>2026-05-05T14:33:59Z</time></trkpt><trkpt lat="45.946452102500906" lon="12.721440023708812"><ele>24.833333333333336</ele><time>2026-05-05T14:34:00Z</time></trkpt><trkpt lat="45.94644760542186" lon="12.721323139147938"><ele>25.0</ele><time>2026-05-05T14:34:01Z</time></trkpt><trkpt lat="45.94645067364317" lon="12.721216233745992"><ele>25.000000000000004</ele><time>2026-05-05T14:34:02Z</time></trkpt><trkpt lat="45.94645832160875" lon="12.721124819166453"><ele>25.0</ele><time>2026-05-05T14:34:03Z</time></trkpt><trkpt lat="45.94646849164347" lon="12.721014931601175"><ele>25.0</ele><time>2026-05-05T14:34:05Z</time></trkpt><trkpt lat="45.946476559976745" lon="12.720919686371834"><ele>25.0</ele><time>2026-05-05T14:34:07Z</time></trkpt><trkpt lat="45.946506341929954" lon="12.720750528159552"><ele>25.000000000000004</ele><time>2026-05-05T14:34:09Z</time></trkpt><trkpt lat="45.94653878405486" lon="12.720649717342054"><ele>25.0</ele><time>2026-05-05T14:34:10Z</time></trkpt><trkpt lat="45.94657442815057" lon="12.720549681917335"><ele>25.000000000000004</ele><time>2026-05-05T14:34:11Z</time></trkpt><trkpt lat="45.94660600398089" lon="12.720436917043369"><ele>25.0</ele><time>2026-05-05T14:34:12Z</time></trkpt><trkpt lat="45.94662307711566" lon="12.720311973797967"><ele>25.0</ele><time>2026-05-05T14:34:13Z</time></trkpt><trkpt lat="45.94662350972431" lon="12.720187844955449"><ele>25.0</ele><time>2026-05-05T14:34:14Z</time></trkpt><trkpt lat="45.94660581610671" lon="12.720072029484411"><ele>25.000000000000004</ele><time>2026-05-05T14:34:15Z</time></trkpt><trkpt lat="45.94657048896666" lon="12.719958178957926"><ele>25.0</ele><time>2026-05-05T14:34:16Z</time></trkpt><trkpt lat="45.946525960065095" lon="12.719860150931485"><ele>25.166666666666668</ele><time>2026-05-05T14:34:17Z</time></trkpt><trkpt lat="45.94647378163635" lon="12.719782394443891"><ele>25.333333333333336</ele><time>2026-05-05T14:34:18Z</time></trkpt><trkpt lat="45.94641382358583" lon="12.719719974923306"><ele>25.5</ele><time>2026-05-05T14:34:19Z</time></trkpt><trkpt lat="45.946348697067975" lon="12.719670908863169"><ele>25.666666666666664</ele><time>2026-05-05T14:34:20Z</time></trkpt><trkpt lat="45.94627601021266" lon="12.719632929010507"><ele>25.833333333333332</ele><time>2026-05-05T14:34:21Z</time></trkpt><trkpt lat="45.94619528062268" lon="12.719605315928495"><ele>26.0</ele><time>2026-05-05T14:34:22Z</time></trkpt><trkpt lat="45.94610920720726" lon="12.719585768265144"><ele>26.0</ele><time>2026-05-05T14:34:23Z</time></trkpt><trkpt lat="45.94601554143911" lon="12.719586964929194"><ele>26.0</ele><time>2026-05-05T14:34:24Z</time></trkpt><trkpt lat="45.945913345670505" lon="12.719613318389658"><ele>26.0</ele><time>2026-05-05T14:34:25Z</time></trkpt><trkpt lat="45.94580080108612" lon="12.719652646953962"><ele>26.0</ele><time>2026-05-05T14:34:26Z</time></trkpt><trkpt lat="45.945682296495946" lon="12.719717541005272"><ele>26.0</ele><time>2026-05-05T14:34:27Z</time></trkpt><trkpt lat="45.94556322607029" lon="12.719803340351742"><ele>25.5</ele><time>2026-05-05T14:34:28Z</time></trkpt><trkpt lat="45.945453039656776" lon="12.719901467469649"><ele>25.0</ele><time>2026-05-05T14:34:29Z</time></trkpt><trkpt lat="45.94531352977086" lon="12.71999390972551"><ele>24.5</ele><time>2026-05-05T14:34:30Z</time></trkpt><trkpt lat="45.945169831233784" lon="12.720075584269347"><ele>24.0</ele><time>2026-05-05T14:34:31Z</time></trkpt><trkpt lat="45.94501859669125" lon="12.72014624374222"><ele>24.0</ele><time>2026-05-05T14:34:32Z</time></trkpt><trkpt lat="45.94485990089218" lon="12.720202232403846"><ele>24.0</ele><time>2026-05-05T14:34:33Z</time></trkpt><trkpt lat="45.94469852538981" lon="12.720245628903662"><ele>24.0</ele><time>2026-05-05T14:34:34Z</time></trkpt><trkpt lat="45.944531118022674" lon="12.720292724506347"><ele>24.333333333333336</ele><time>2026-05-05T14:34:35Z</time></trkpt><trkpt lat="45.944357565665555" lon="12.720346134034084"><ele>24.666666666666668</ele><time>2026-05-05T14:34:36Z</time></trkpt><trkpt lat="45.94417895751315" lon="12.720404332768153"><ele>25.0</ele><time>2026-05-05T14:34:37Z</time></trkpt><trkpt lat="45.944002031229466" lon="12.72046346847703"><ele>24.0</ele><time>2026-05-05T14:34:38Z</time></trkpt><trkpt lat="45.94382538003402" lon="12.720523060271073"><ele>23.0</ele><time>2026-05-05T14:34:39Z</time></trkpt><trkpt lat="45.94365485118708" lon="12.720574405474405"><ele>22.0</ele><time>2026-05-05T14:34:40Z</time></trkpt><trkpt lat="45.94348755205906" lon="12.720629968405134"><ele>22.666666666666664</ele><time>2026-05-05T14:34:41Z</time></trkpt><trkpt lat="45.943325872572274" lon="12.720679592916877"><ele>23.333333333333332</ele><time>2026-05-05T14:34:42Z</time></trkpt><trkpt lat="45.94316505998717" lon="12.72072783301441"><ele>24.0</ele><time>2026-05-05T14:34:43Z</time></trkpt><trkpt lat="45.943005998396664" lon="12.72077582197754"><ele>24.0</ele><time>2026-05-05T14:34:44Z</time></trkpt><trkpt lat="45.942852659483854" lon="12.720821719133456"><ele>24.0</ele><time>2026-05-05T14:34:45Z</time></trkpt><trkpt lat="45.94269862769176" lon="12.720867949327443"><ele>24.0</ele><time>2026-05-05T14:34:46Z</time></trkpt><trkpt lat="45.94254047102834" lon="12.72091927778795"><ele>24.0</ele><time>2026-05-05T14:34:47Z</time></trkpt><trkpt lat="45.94237423884624" lon="12.720966691993425"><ele>24.0</ele><time>2026-05-05T14:34:48Z</time></trkpt><trkpt lat="45.94220326727802" lon="12.7210103096245"><ele>24.0</ele><time>2026-05-05T14:34:49Z</time></trkpt><trkpt lat="45.94202430582723" lon="12.721049668699822"><ele>23.666666666666668</ele><time>2026-05-05T14:34:50Z</time></trkpt><trkpt lat="45.941835371850345" lon="12.721090681682393"><ele>23.333333333333336</ele><time>2026-05-05T14:34:51Z</time></trkpt><trkpt lat="45.94164257618891" lon="12.721126816716776"><ele>23.0</ele><time>2026-05-05T14:34:52Z</time></trkpt><trkpt lat="45.94145195386247" lon="12.721158310172033"><ele>22.666666666666668</ele><time>2026-05-05T14:34:53Z</time></trkpt><trkpt lat="45.941263055891994" lon="12.721192869797529"><ele>22.333333333333332</ele><time>2026-05-05T14:34:54Z</time></trkpt><trkpt lat="45.94107467707393" lon="12.721222810141896"><ele>22.0</ele><time>2026-05-05T14:34:55Z</time></trkpt><trkpt lat="45.94088947054334" lon="12.721246075428484"><ele>21.666666666666664</ele><time>2026-05-05T14:34:56Z</time></trkpt><trkpt lat="45.94070215915517" lon="12.72126552940631"><ele>21.333333333333332</ele><time>2026-05-05T14:34:57Z</time></trkpt><trkpt lat="45.94051133477686" lon="12.721277049477886"><ele>21.0</ele><time>2026-05-05T14:34:58Z</time></trkpt><trkpt lat="45.9403162279176" lon="12.721274168071774"><ele>21.0</ele><time>2026-05-05T14:34:59Z</time></trkpt><trkpt lat="45.94012198432321" lon="12.7212583287527"><ele>21.0</ele><time>2026-05-05T14:35:00Z</time></trkpt><trkpt lat="45.93992638427539" lon="12.721234837001976"><ele>21.0</ele><time>2026-05-05T14:35:01Z</time></trkpt><trkpt lat="45.939734477865024" lon="12.721196540026611"><ele>21.333333333333332</ele><time>2026-05-05T14:35:02Z</time></trkpt><trkpt lat="45.93955368443543" lon="12.721147165511873"><ele>21.666666666666664</ele><time>2026-05-05T14:35:03Z</time></trkpt><trkpt lat="45.9393752619897" lon="12.721085994087174"><ele>22.0</ele><time>2026-05-05T14:35:04Z</time></trkpt><trkpt lat="45.9392002131793" lon="12.721005747095852"><ele>22.333333333333332</ele><time>2026-05-05T14:35:05Z</time></trkpt><trkpt lat="45.939025381833034" lon="12.7209050448108"><ele>22.666666666666668</ele><time>2026-05-05T14:35:06Z</time></trkpt><trkpt lat="45.93885460619189" lon="12.720785364985717"><ele>23.0</ele><time>2026-05-05T14:35:07Z</time></trkpt><trkpt lat="45.93869288102219" lon="12.720650536111092"><ele>23.0</ele><time>2026-05-05T14:35:08Z</time></trkpt><trkpt lat="45.938535868006944" lon="12.720508890310139"><ele>23.0</ele><time>2026-05-05T14:35:09Z</time></trkpt><trkpt lat="45.93838650122816" lon="12.720355899606835"><ele>23.0</ele><time>2026-05-05T14:35:10Z</time></trkpt><trkpt lat="45.938247718824314" lon="12.720206434446894"><ele>22.333333333333336</ele><time>2026-05-05T14:35:11Z</time></trkpt><trkpt lat="45.938112678001296" lon="12.720049266836233"><ele>21.666666666666668</ele><time>2026-05-05T14:35:12Z</time></trkpt><trkpt lat="45.93796719783536" lon="12.719866042825348"><ele>21.0</ele><time>2026-05-05T14:35:13Z</time></trkpt><trkpt lat="45.93781365384818" lon="12.719654152313689"><ele>21.0</ele><time>2026-05-05T14:35:14Z</time></trkpt><trkpt lat="45.93764491287916" lon="12.719415362278015"><ele>21.0</ele><time>2026-05-05T14:35:15Z</time></trkpt><trkpt lat="45.93746343141666" lon="12.719148762855564"><ele>21.5</ele><time>2026-05-05T14:35:16Z</time></trkpt><trkpt lat="45.93727220402802" lon="12.718858820656674"><ele>22.0</ele><time>2026-05-05T14:35:17Z</time></trkpt><trkpt lat="45.93707325784668" lon="12.7185526449854"><ele>21.0</ele><time>2026-05-05T14:35:18Z</time></trkpt><trkpt lat="45.93687189127022" lon="12.718239539098652"><ele>20.0</ele><time>2026-05-05T14:35:19Z</time></trkpt><trkpt lat="45.93666392172064" lon="12.717924486018815"><ele>19.5</ele><time>2026-05-05T14:35:20Z</time></trkpt><trkpt lat="45.936456181288946" lon="12.717614144753119"><ele>19.0</ele><time>2026-05-05T14:35:21Z</time></trkpt><trkpt lat="45.93624597681343" lon="12.717314831463483"><ele>19.0</ele><time>2026-05-05T14:35:22Z</time></trkpt><trkpt lat="45.93603780532822" lon="12.717015620916595"><ele>19.0</ele><time>2026-05-05T14:35:23Z</time></trkpt><trkpt lat="45.935836555099996" lon="12.716714292357727"><ele>19.5</ele><time>2026-05-05T14:35:24Z</time></trkpt><trkpt lat="45.93564122671886" lon="12.716419576043252"><ele>20.0</ele><time>2026-05-05T14:35:25Z</time></trkpt><trkpt lat="45.93544725566696" lon="12.716130538175465"><ele>20.5</ele><time>2026-05-05T14:35:26Z</time></trkpt><trkpt lat="45.93525101829599" lon="12.715854062335325"><ele>21.0</ele><time>2026-05-05T14:35:27Z</time></trkpt><trkpt lat="45.93505380657943" lon="12.715590772848667"><ele>21.5</ele><time>2026-05-05T14:35:28Z</time></trkpt><trkpt lat="45.93485344619165" lon="12.715342574365541"><ele>22.0</ele><time>2026-05-05T14:35:29Z</time></trkpt><trkpt lat="45.934646754220445" lon="12.715110543069882"><ele>21.0</ele><time>2026-05-05T14:35:30Z</time></trkpt><trkpt lat="45.93443059378961" lon="12.714894703403772"><ele>20.0</ele><time>2026-05-05T14:35:31Z</time></trkpt><trkpt lat="45.934207679736424" lon="12.71469665176677"><ele>20.0</ele><time>2026-05-05T14:35:32Z</time></trkpt><trkpt lat="45.93397972879322" lon="12.714521491929277"><ele>20.0</ele><time>2026-05-05T14:35:33Z</time></trkpt><trkpt lat="45.933746574648424" lon="12.714354302838425"><ele>20.5</ele><time>2026-05-05T14:35:34Z</time></trkpt><trkpt lat="45.933510621935966" lon="12.714193754173543"><ele>21.0</ele><time>2026-05-05T14:35:35Z</time></trkpt><trkpt lat="45.933267888810306" lon="12.714037119718025"><ele>21.0</ele><time>2026-05-05T14:35:36Z</time></trkpt><trkpt lat="45.933024170536" lon="12.713885285483983"><ele>21.0</ele><time>2026-05-05T14:35:37Z</time></trkpt><trkpt lat="45.93278003306813" lon="12.713728358958617"><ele>20.0</ele><time>2026-05-05T14:35:38Z</time></trkpt><trkpt lat="45.932533777840156" lon="12.713573961818783"><ele>19.0</ele><time>2026-05-05T14:35:39Z</time></trkpt><trkpt lat="45.93228661188172" lon="12.713420650586539"><ele>19.0</ele><time>2026-05-05T14:35:40Z</time></trkpt><trkpt lat="45.932038030114896" lon="12.713268334886495"><ele>19.0</ele><time>2026-05-05T14:35:41Z</time></trkpt><trkpt lat="45.93178978966281" lon="12.713116671252347"><ele>20.0</ele><time>2026-05-05T14:35:42Z</time></trkpt><trkpt lat="45.931541237837" lon="12.712958627563262"><ele>21.0</ele><time>2026-05-05T14:35:43Z</time></trkpt><trkpt lat="45.93129511273054" lon="12.712792302207829"><ele>21.0</ele><time>2026-05-05T14:35:44Z</time></trkpt><trkpt lat="45.931051345636504" lon="12.71262017519995"><ele>21.0</ele><time>2026-05-05T14:35:45Z</time></trkpt><trkpt lat="45.930811100507114" lon="12.712435717501638"><ele>21.0</ele><time>2026-05-05T14:35:46Z</time></trkpt><trkpt lat="45.930576114633844" lon="12.712240550009097"><ele>21.0</ele><time>2026-05-05T14:35:47Z</time></trkpt><trkpt lat="45.93034447220597" lon="12.712038244264027"><ele>20.0</ele><time>2026-05-05T14:35:48Z</time></trkpt><trkpt lat="45.93011431317166" lon="12.711828294925336"><ele>19.0</ele><time>2026-05-05T14:35:49Z</time></trkpt><trkpt lat="45.92988374898724" lon="12.711614461309827"><ele>19.0</ele><time>2026-05-05T14:35:50Z</time></trkpt><trkpt lat="45.929651320880325" lon="12.711399732410634"><ele>19.0</ele><time>2026-05-05T14:35:51Z</time></trkpt><trkpt lat="45.929416626132266" lon="12.711185640776975"><ele>18.0</ele><time>2026-05-05T14:35:52Z</time></trkpt><trkpt lat="45.92918040342523" lon="12.710972772848036"><ele>17.0</ele><time>2026-05-05T14:35:53Z</time></trkpt><trkpt lat="45.92894479661959" lon="12.710758732924534"><ele>17.0</ele><time>2026-05-05T14:35:54Z</time></trkpt><trkpt lat="45.92871067886065" lon="12.710545997906044"><ele>17.0</ele><time>2026-05-05T14:35:55Z</time></trkpt><trkpt lat="45.928477743641295" lon="12.710333753010714"><ele>16.5</ele><time>2026-05-05T14:35:56Z</time></trkpt><trkpt lat="45.92824753479727" lon="12.710122362455822"><ele>16.0</ele><time>2026-05-05T14:35:57Z</time></trkpt><trkpt lat="45.92801518486059" lon="12.709911581870116"><ele>16.0</ele><time>2026-05-05T14:35:58Z</time></trkpt><trkpt lat="45.927785765554255" lon="12.709698177799243"><ele>16.0</ele><time>2026-05-05T14:35:59Z</time></trkpt><trkpt lat="45.927555297194765" lon="12.709486231707547"><ele>16.5</ele><time>2026-05-05T14:36:00Z</time></trkpt><trkpt lat="45.92732433625636" lon="12.709277487441245"><ele>17.0</ele><time>2026-05-05T14:36:01Z</time></trkpt><trkpt lat="45.927094585477434" lon="12.709069472311857"><ele>17.0</ele><time>2026-05-05T14:36:02Z</time></trkpt><trkpt lat="45.926860887106244" lon="12.708866717748926"><ele>17.0</ele><time>2026-05-05T14:36:03Z</time></trkpt><trkpt lat="45.926629094466634" lon="12.708661174825918"><ele>17.5</ele><time>2026-05-05T14:36:04Z</time></trkpt><trkpt lat="45.926397181695776" lon="12.708455907235296"><ele>18.0</ele><time>2026-05-05T14:36:05Z</time></trkpt><trkpt lat="45.926167365300806" lon="12.7082470675018"><ele>18.0</ele><time>2026-05-05T14:36:06Z</time></trkpt><trkpt lat="45.925940884790656" lon="12.708034675841489"><ele>18.0</ele><time>2026-05-05T14:36:07Z</time></trkpt><trkpt lat="45.92571301258932" lon="12.70782432640762"><ele>17.0</ele><time>2026-05-05T14:36:08Z</time></trkpt><trkpt lat="45.925485386425635" lon="12.707613898732614"><ele>16.0</ele><time>2026-05-05T14:36:09Z</time></trkpt><trkpt lat="45.925257863869504" lon="12.70740548917276"><ele>16.0</ele><time>2026-05-05T14:36:10Z</time></trkpt><trkpt lat="45.925031250933685" lon="12.707200935468295"><ele>16.0</ele><time>2026-05-05T14:36:11Z</time></trkpt><trkpt lat="45.924807552002136" lon="12.706996067277041"><ele>15.5</ele><time>2026-05-05T14:36:12Z</time></trkpt><trkpt lat="45.92458652073042" lon="12.706793185258991"><ele>15.0</ele><time>2026-05-05T14:36:13Z</time></trkpt><trkpt lat="45.924368124918324" lon="12.706594899823767"><ele>15.5</ele><time>2026-05-05T14:36:14Z</time></trkpt><trkpt lat="45.92415531007894" lon="12.706403151253589"><ele>16.0</ele><time>2026-05-05T14:36:15Z</time></trkpt><trkpt lat="45.9239409691409" lon="12.70621155416321"><ele>16.5</ele><time>2026-05-05T14:36:16Z</time></trkpt><trkpt lat="45.923722952618135" lon="12.706006799216844"><ele>17.0</ele><time>2026-05-05T14:36:17Z</time></trkpt><trkpt lat="45.92349727894644" lon="12.705800396515224"><ele>17.0</ele><time>2026-05-05T14:36:18Z</time></trkpt><trkpt lat="45.923269519590214" lon="12.705593338391049"><ele>17.0</ele><time>2026-05-05T14:36:19Z</time></trkpt><trkpt lat="45.92304549942405" lon="12.705383585091381"><ele>16.5</ele><time>2026-05-05T14:36:20Z</time></trkpt><trkpt lat="45.92282394625178" lon="12.705178519494087"><ele>16.0</ele><time>2026-05-05T14:36:21Z</time></trkpt><trkpt lat="45.922615950709684" lon="12.704988552370088"><ele>15.5</ele><time>2026-05-05T14:36:22Z</time></trkpt><trkpt lat="45.922417401254634" lon="12.704803678425522"><ele>15.0</ele><time>2026-05-05T14:36:23Z</time></trkpt><trkpt lat="45.92222335592255" lon="12.704626632309207"><ele>15.0</ele><time>2026-05-05T14:36:24Z</time></trkpt><trkpt lat="45.9220352146123" lon="12.704466052861072"><ele>15.0</ele><time>2026-05-05T14:36:25Z</time></trkpt><trkpt lat="45.921847514330395" lon="12.70431603446577"><ele>15.0</ele><time>2026-05-05T14:36:26Z</time></trkpt><trkpt lat="45.92166150141372" lon="12.704174287927536"><ele>15.333333333333332</ele><time>2026-05-05T14:36:27Z</time></trkpt><trkpt lat="45.92147392631988" lon="12.704044811549403"><ele>15.666666666666666</ele><time>2026-05-05T14:36:28Z</time></trkpt><trkpt lat="45.92128511087991" lon="12.70392518525587"><ele>16.0</ele><time>2026-05-05T14:36:29Z</time></trkpt><trkpt lat="45.92110058457932" lon="12.703817031582714"><ele>16.0</ele><time>2026-05-05T14:36:30Z</time></trkpt><trkpt lat="45.920924811432926" lon="12.70372295840419"><ele>16.0</ele><time>2026-05-05T14:36:31Z</time></trkpt><trkpt lat="45.92075049947483" lon="12.70363786491384"><ele>16.0</ele><time>2026-05-05T14:36:32Z</time></trkpt><trkpt lat="45.92057291208456" lon="12.70355523852686"><ele>15.666666666666666</ele><time>2026-05-05T14:36:33Z</time></trkpt><trkpt lat="45.92039540416229" lon="12.703468966261289"><ele>15.333333333333332</ele><time>2026-05-05T14:36:34Z</time></trkpt><trkpt lat="45.92021628042288" lon="12.703381268426655"><ele>15.0</ele><time>2026-05-05T14:36:35Z</time></trkpt><trkpt lat="45.92003624649204" lon="12.703287162439167"><ele>15.666666666666668</ele><time>2026-05-05T14:36:36Z</time></trkpt><trkpt lat="45.919859954600184" lon="12.703188647833041"><ele>16.333333333333336</ele><time>2026-05-05T14:36:37Z</time></trkpt><trkpt lat="45.91967794451117" lon="12.70307567573172"><ele>17.0</ele><time>2026-05-05T14:36:38Z</time></trkpt><trkpt lat="45.91950321058987" lon="12.702956053802154"><ele>17.0</ele><time>2026-05-05T14:36:39Z</time></trkpt><trkpt lat="45.91933911148914" lon="12.702796017399399"><ele>17.0</ele><time>2026-05-05T14:36:40Z</time></trkpt><trkpt lat="45.91916664740329" lon="12.702661351086837"><ele>17.0</ele><time>2026-05-05T14:36:41Z</time></trkpt><trkpt lat="45.918998500218784" lon="12.702527693296325"><ele>17.0</ele><time>2026-05-05T14:36:42Z</time></trkpt><trkpt lat="45.91883636376066" lon="12.702398001503946"><ele>17.0</ele><time>2026-05-05T14:36:43Z</time></trkpt><trkpt lat="45.918673542656656" lon="12.702266695195114"><ele>17.0</ele><time>2026-05-05T14:36:44Z</time></trkpt><trkpt lat="45.91851083846885" lon="12.70213799711625"><ele>17.0</ele><time>2026-05-05T14:36:45Z</time></trkpt><trkpt lat="45.9183512368567" lon="12.702018854975195"><ele>17.0</ele><time>2026-05-05T14:36:46Z</time></trkpt><trkpt lat="45.91818526903357" lon="12.701911420926125"><ele>17.0</ele><time>2026-05-05T14:36:47Z</time></trkpt><trkpt lat="45.91801597607057" lon="12.701812598619167"><ele>17.0</ele><time>2026-05-05T14:36:48Z</time></trkpt><trkpt lat="45.91784500486131" lon="12.701748910963248"><ele>17.0</ele><time>2026-05-05T14:36:49Z</time></trkpt><trkpt lat="45.9176868468359" lon="12.701671051726626"><ele>17.0</ele><time>2026-05-05T14:36:50Z</time></trkpt><trkpt lat="45.91753444834387" lon="12.701605130701285"><ele>17.0</ele><time>2026-05-05T14:36:51Z</time></trkpt><trkpt lat="45.91738645162538" lon="12.701548887662188"><ele>17.0</ele><time>2026-05-05T14:36:52Z</time></trkpt><trkpt lat="45.91723848632109" lon="12.70149950850472"><ele>17.0</ele><time>2026-05-05T14:36:53Z</time></trkpt><trkpt lat="45.91708467340341" lon="12.701445833296487"><ele>17.0</ele><time>2026-05-05T14:36:54Z</time></trkpt><trkpt lat="45.91692530577284" lon="12.701405118492634"><ele>17.0</ele><time>2026-05-05T14:36:55Z</time></trkpt><trkpt lat="45.91677234071433" lon="12.70137945364113"><ele>17.0</ele><time>2026-05-05T14:36:56Z</time></trkpt><trkpt lat="45.91662096490193" lon="12.701359830544469"><ele>16.75</ele><time>2026-05-05T14:36:57Z</time></trkpt><trkpt lat="45.916473597718614" lon="12.701344861380901"><ele>16.5</ele><time>2026-05-05T14:36:58Z</time></trkpt><trkpt lat="45.91632762205402" lon="12.701332675791827"><ele>16.25</ele><time>2026-05-05T14:36:59Z</time></trkpt><trkpt lat="45.91618566840791" lon="12.701325189427763"><ele>16.0</ele><time>2026-05-05T14:37:00Z</time></trkpt><trkpt lat="45.916046949189315" lon="12.701313011101737"><ele>16.0</ele><time>2026-05-05T14:37:01Z</time></trkpt><trkpt lat="45.91591163127685" lon="12.70129645354219"><ele>16.0</ele><time>2026-05-05T14:37:02Z</time></trkpt><trkpt lat="45.91577601511736" lon="12.701272894414293"><ele>16.0</ele><time>2026-05-05T14:37:03Z</time></trkpt><trkpt lat="45.91564003865963" lon="12.701239376422068"><ele>16.0</ele><time>2026-05-05T14:37:04Z</time></trkpt><trkpt lat="45.915506340198256" lon="12.701197937165588"><ele>16.0</ele><time>2026-05-05T14:37:05Z</time></trkpt><trkpt lat="45.91537776488212" lon="12.701145747135941"><ele>16.0</ele><time>2026-05-05T14:37:06Z</time></trkpt><trkpt lat="45.91525210743024" lon="12.70108531202081"><ele>16.0</ele><time>2026-05-05T14:37:07Z</time></trkpt><trkpt lat="45.91513018496647" lon="12.701008428021185"><ele>16.0</ele><time>2026-05-05T14:37:08Z</time></trkpt><trkpt lat="45.91501278468381" lon="12.700923061773553"><ele>16.0</ele><time>2026-05-05T14:37:09Z</time></trkpt><trkpt lat="45.91490081386624" lon="12.700829831757382"><ele>16.0</ele><time>2026-05-05T14:37:10Z</time></trkpt><trkpt lat="45.91479074930521" lon="12.70073540542986"><ele>16.0</ele><time>2026-05-05T14:37:11Z</time></trkpt><trkpt lat="45.91467526111993" lon="12.700670725710077"><ele>16.0</ele><time>2026-05-05T14:37:12Z</time></trkpt><trkpt lat="45.91455596810542" lon="12.700635953109419"><ele>16.0</ele><time>2026-05-05T14:37:13Z</time></trkpt><trkpt lat="45.91443573916388" lon="12.70063515825047"><ele>16.0</ele><time>2026-05-05T14:37:14Z</time></trkpt><trkpt lat="45.914316969229176" lon="12.700659268937361"><ele>16.0</ele><time>2026-05-05T14:37:15Z</time></trkpt><trkpt lat="45.91420232240293" lon="12.700711640008981"><ele>16.0</ele><time>2026-05-05T14:37:16Z</time></trkpt><trkpt lat="45.91408889778763" lon="12.700754016750182"><ele>15.8</ele><time>2026-05-05T14:37:17Z</time></trkpt><trkpt lat="45.91397473882097" lon="12.700797905435143"><ele>15.600000000000001</ele><time>2026-05-05T14:37:18Z</time></trkpt><trkpt lat="45.913865456638476" lon="12.70084018421574"><ele>15.4</ele><time>2026-05-05T14:37:19Z</time></trkpt><trkpt lat="45.913764957182714" lon="12.700875620188146"><ele>15.2</ele><time>2026-05-05T14:37:20Z</time></trkpt><trkpt lat="45.91367741784709" lon="12.700897362616631"><ele>15.0</ele><time>2026-05-05T14:37:21Z</time></trkpt><trkpt lat="45.913601498949966" lon="12.700895692619623"><ele>15.0</ele><time>2026-05-05T14:37:22Z</time></trkpt><trkpt lat="45.91353323257992" lon="12.700888628134457"><ele>15.0</ele><time>2026-05-05T14:37:23Z</time></trkpt><trkpt lat="45.91347131344038" lon="12.700871599966263"><ele>15.0</ele><time>2026-05-05T14:37:24Z</time></trkpt><trkpt lat="45.913362379600386" lon="12.700825260676966"><ele>15.0</ele><time>2026-05-05T14:37:26Z</time></trkpt><trkpt lat="45.913238831253594" lon="12.700756638926057"><ele>15.0</ele><time>2026-05-05T14:37:28Z</time></trkpt><trkpt lat="45.91316323970435" lon="12.700716557853921"><ele>15.4</ele><time>2026-05-05T14:37:29Z</time></trkpt><trkpt lat="45.91307943576842" lon="12.700672071086245"><ele>15.8</ele><time>2026-05-05T14:37:30Z</time></trkpt><trkpt lat="45.91298710287806" lon="12.700620346463888"><ele>16.2</ele><time>2026-05-05T14:37:31Z</time></trkpt><trkpt lat="45.91288843436029" lon="12.7005670264439"><ele>16.6</ele><time>2026-05-05T14:37:32Z</time></trkpt><trkpt lat="45.912785194133356" lon="12.700515738464135"><ele>17.0</ele><time>2026-05-05T14:37:33Z</time></trkpt><trkpt lat="45.912678777410534" lon="12.700459033752601"><ele>17.0</ele><time>2026-05-05T14:37:34Z</time></trkpt><trkpt lat="45.91256877120464" lon="12.700397674185488"><ele>17.0</ele><time>2026-05-05T14:37:35Z</time></trkpt><trkpt lat="45.91245758638283" lon="12.700338914734488"><ele>17.0</ele><time>2026-05-05T14:37:36Z</time></trkpt><trkpt lat="45.912341269883484" lon="12.700276317687848"><ele>17.0</ele><time>2026-05-05T14:37:37Z</time></trkpt><trkpt lat="45.91222078956429" lon="12.700211490806028"><ele>17.25</ele><time>2026-05-05T14:37:38Z</time></trkpt><trkpt lat="45.91209827175252" lon="12.700144918807128"><ele>17.5</ele><time>2026-05-05T14:37:39Z</time></trkpt><trkpt lat="45.91197041564507" lon="12.700088198214866"><ele>17.75</ele><time>2026-05-05T14:37:40Z</time></trkpt><trkpt lat="45.91184259259619" lon="12.700014892155265"><ele>18.0</ele><time>2026-05-05T14:37:41Z</time></trkpt><trkpt lat="45.91169963743206" lon="12.699991660186422"><ele>17.0</ele><time>2026-05-05T14:37:42Z</time></trkpt><trkpt lat="45.91155444405946" lon="12.700000973387148"><ele>16.0</ele><time>2026-05-05T14:37:43Z</time></trkpt><trkpt lat="45.911410983794404" lon="12.699993235304015"><ele>15.0</ele><time>2026-05-05T14:37:44Z</time></trkpt><trkpt lat="45.9112667584422" lon="12.699990451566029"><ele>14.0</ele><time>2026-05-05T14:37:45Z</time></trkpt><trkpt lat="45.91112315725817" lon="12.699992359201197"><ele>14.0</ele><time>2026-05-05T14:37:46Z</time></trkpt><trkpt lat="45.910975641286235" lon="12.699992769747903"><ele>14.0</ele><time>2026-05-05T14:37:47Z</time></trkpt><trkpt lat="45.91082634915112" lon="12.699992491435463"><ele>14.0</ele><time>2026-05-05T14:37:48Z</time></trkpt><trkpt lat="45.9106746851002" lon="12.69999680388628"><ele>14.0</ele><time>2026-05-05T14:37:49Z</time></trkpt><trkpt lat="45.91052170756119" lon="12.699997602297863"><ele>13.666666666666668</ele><time>2026-05-05T14:37:50Z</time></trkpt><trkpt lat="45.91036687676879" lon="12.69999715213367"><ele>13.333333333333332</ele><time>2026-05-05T14:37:51Z</time></trkpt><trkpt lat="45.91020766463817" lon="12.699999917800245"><ele>13.0</ele><time>2026-05-05T14:37:52Z</time></trkpt><trkpt lat="45.91004164236239" lon="12.700004064829312"><ele>13.0</ele><time>2026-05-05T14:37:53Z</time></trkpt><trkpt lat="45.9098734037413" lon="12.700005973300582"><ele>13.0</ele><time>2026-05-05T14:37:54Z</time></trkpt><trkpt lat="45.909709887468196" lon="12.700005908537946"><ele>13.0</ele><time>2026-05-05T14:37:55Z</time></trkpt><trkpt lat="45.90954735738894" lon="12.700007737184402"><ele>13.0</ele><time>2026-05-05T14:37:56Z</time></trkpt><trkpt lat="45.90938645252426" lon="12.700010722242249"><ele>13.0</ele><time>2026-05-05T14:37:57Z</time></trkpt><trkpt lat="45.909225945363175" lon="12.700013993647662"><ele>13.0</ele><time>2026-05-05T14:37:58Z</time></trkpt><trkpt lat="45.90906390155329" lon="12.700017845664698"><ele>13.0</ele><time>2026-05-05T14:37:59Z</time></trkpt><trkpt lat="45.90890183017961" lon="12.700020452914913"><ele>13.0</ele><time>2026-05-05T14:38:00Z</time></trkpt><trkpt lat="45.90873951021016" lon="12.700022470488047"><ele>13.0</ele><time>2026-05-05T14:38:01Z</time></trkpt><trkpt lat="45.908575537497754" lon="12.700025690776371"><ele>13.0</ele><time>2026-05-05T14:38:02Z</time></trkpt><trkpt lat="45.90841121532028" lon="12.700028458950507"><ele>13.0</ele><time>2026-05-05T14:38:03Z</time></trkpt><trkpt lat="45.908246030679855" lon="12.700036114570507"><ele>13.0</ele><time>2026-05-05T14:38:04Z</time></trkpt><trkpt lat="45.90808016630786" lon="12.700017952533981"><ele>13.0</ele><time>2026-05-05T14:38:05Z</time></trkpt><trkpt lat="45.90791461733473" lon="12.700022194315983"><ele>13.0</ele><time>2026-05-05T14:38:06Z</time></trkpt><trkpt lat="45.9077495845112" lon="12.700026656480464"><ele>13.0</ele><time>2026-05-05T14:38:07Z</time></trkpt><trkpt lat="45.90758648215729" lon="12.700050724422555"><ele>12.666666666666666</ele><time>2026-05-05T14:38:08Z</time></trkpt><trkpt lat="45.90742552298299" lon="12.700050120304775"><ele>12.333333333333332</ele><time>2026-05-05T14:38:09Z</time></trkpt><trkpt lat="45.9072637047258" lon="12.700048161245235"><ele>12.0</ele><time>2026-05-05T14:38:10Z</time></trkpt><trkpt lat="45.9071028893453" lon="12.700049786004271"><ele>12.0</ele><time>2026-05-05T14:38:11Z</time></trkpt><trkpt lat="45.906941666848816" lon="12.700055701359053"><ele>12.0</ele><time>2026-05-05T14:38:12Z</time></trkpt><trkpt lat="45.90678279521943" lon="12.700051463850976"><ele>12.0</ele><time>2026-05-05T14:38:13Z</time></trkpt><trkpt lat="45.90662041916809" lon="12.700045977996075"><ele>12.333333333333332</ele><time>2026-05-05T14:38:14Z</time></trkpt><trkpt lat="45.90645639353099" lon="12.700021836252319"><ele>12.666666666666666</ele><time>2026-05-05T14:38:15Z</time></trkpt><trkpt lat="45.90629261922468" lon="12.699956725724991"><ele>13.0</ele><time>2026-05-05T14:38:16Z</time></trkpt><trkpt lat="45.906131134759626" lon="12.699877964875688"><ele>13.0</ele><time>2026-05-05T14:38:17Z</time></trkpt><trkpt lat="45.90596512196916" lon="12.699806053622785"><ele>13.0</ele><time>2026-05-05T14:38:18Z</time></trkpt><trkpt lat="45.90579387187135" lon="12.699744859151735"><ele>13.0</ele><time>2026-05-05T14:38:19Z</time></trkpt><trkpt lat="45.90562232062391" lon="12.699695231636134"><ele>13.666666666666666</ele><time>2026-05-05T14:38:20Z</time></trkpt><trkpt lat="45.90545063578288" lon="12.699656889274042"><ele>14.333333333333332</ele><time>2026-05-05T14:38:21Z</time></trkpt><trkpt lat="45.905281517106125" lon="12.699623759104108"><ele>15.0</ele><time>2026-05-05T14:38:22Z</time></trkpt><trkpt lat="45.9051111626355" lon="12.69960186664675"><ele>15.333333333333332</ele><time>2026-05-05T14:38:23Z</time></trkpt><trkpt lat="45.904941078691486" lon="12.699588666900365"><ele>15.666666666666666</ele><time>2026-05-05T14:38:24Z</time></trkpt><trkpt lat="45.904773931702564" lon="12.699580181656449"><ele>16.0</ele><time>2026-05-05T14:38:25Z</time></trkpt><trkpt lat="45.90460710010168" lon="12.699573764758"><ele>16.0</ele><time>2026-05-05T14:38:26Z</time></trkpt><trkpt lat="45.90444109646255" lon="12.699565737132525"><ele>16.0</ele><time>2026-05-05T14:38:27Z</time></trkpt><trkpt lat="45.904274356788015" lon="12.699561005062224"><ele>16.0</ele><time>2026-05-05T14:38:28Z</time></trkpt><trkpt lat="45.90410394824172" lon="12.699558736249621"><ele>16.333333333333332</ele><time>2026-05-05T14:38:29Z</time></trkpt><trkpt lat="45.90393463460293" lon="12.699555714787653"><ele>16.666666666666668</ele><time>2026-05-05T14:38:30Z</time></trkpt><trkpt lat="45.90376366668769" lon="12.699553710398716"><ele>17.0</ele><time>2026-05-05T14:38:31Z</time></trkpt><trkpt lat="45.90359556899586" lon="12.699547466321965"><ele>17.0</ele><time>2026-05-05T14:38:32Z</time></trkpt><trkpt lat="45.903423822142834" lon="12.69953980416635"><ele>17.0</ele><time>2026-05-05T14:38:33Z</time></trkpt><trkpt lat="45.90325108523362" lon="12.699532379723962"><ele>17.0</ele><time>2026-05-05T14:38:34Z</time></trkpt><trkpt lat="45.90307797615645" lon="12.699526069674457"><ele>16.666666666666668</ele><time>2026-05-05T14:38:35Z</time></trkpt><trkpt lat="45.90290462885398" lon="12.699520081673343"><ele>16.333333333333332</ele><time>2026-05-05T14:38:36Z</time></trkpt><trkpt lat="45.9027291525258" lon="12.699507928185342"><ele>16.0</ele><time>2026-05-05T14:38:37Z</time></trkpt><trkpt lat="45.90255249086871" lon="12.6994868147566"><ele>15.666666666666666</ele><time>2026-05-05T14:38:38Z</time></trkpt><trkpt lat="45.90237409823917" lon="12.699437162055322"><ele>15.333333333333332</ele><time>2026-05-05T14:38:39Z</time></trkpt><trkpt lat="45.902191535395076" lon="12.69936399619116"><ele>15.0</ele><time>2026-05-05T14:38:40Z</time></trkpt><trkpt lat="45.902007360100725" lon="12.699282886560828"><ele>15.0</ele><time>2026-05-05T14:38:41Z</time></trkpt><trkpt lat="45.901831106508105" lon="12.699203214086266"><ele>15.0</ele><time>2026-05-05T14:38:42Z</time></trkpt><trkpt lat="45.90165219103969" lon="12.699123491580966"><ele>15.0</ele><time>2026-05-05T14:38:43Z</time></trkpt><trkpt lat="45.90147222798606" lon="12.699041015731455"><ele>14.666666666666668</ele><time>2026-05-05T14:38:44Z</time></trkpt><trkpt lat="45.90129033466086" lon="12.69895895469536"><ele>14.333333333333334</ele><time>2026-05-05T14:38:45Z</time></trkpt><trkpt lat="45.90111335574512" lon="12.698880715762936"><ele>14.0</ele><time>2026-05-05T14:38:46Z</time></trkpt><trkpt lat="45.90093558914874" lon="12.698803875636608"><ele>14.666666666666668</ele><time>2026-05-05T14:38:47Z</time></trkpt><trkpt lat="45.90076657991271" lon="12.698705239410724"><ele>15.333333333333332</ele><time>2026-05-05T14:38:48Z</time></trkpt><trkpt lat="45.90059717681767" lon="12.698628032300732"><ele>16.0</ele><time>2026-05-05T14:38:49Z</time></trkpt><trkpt lat="45.90042918488804" lon="12.698555131880797"><ele>16.0</ele><time>2026-05-05T14:38:50Z</time></trkpt><trkpt lat="45.9002535995587" lon="12.698494925486445"><ele>16.0</ele><time>2026-05-05T14:38:51Z</time></trkpt><trkpt lat="45.90006988152987" lon="12.698484786363998"><ele>16.0</ele><time>2026-05-05T14:38:52Z</time></trkpt><trkpt lat="45.89989122638394" lon="12.698455022613185"><ele>16.0</ele><time>2026-05-05T14:38:53Z</time></trkpt><trkpt lat="45.89971124277162" lon="12.698435691126305"><ele>16.0</ele><time>2026-05-05T14:38:54Z</time></trkpt><trkpt lat="45.89953129011029" lon="12.69841781314092"><ele>16.0</ele><time>2026-05-05T14:38:55Z</time></trkpt><trkpt lat="45.89935168713526" lon="12.698400608162801"><ele>16.666666666666664</ele><time>2026-05-05T14:38:56Z</time></trkpt><trkpt lat="45.89917591838053" lon="12.698382689694686"><ele>17.333333333333332</ele><time>2026-05-05T14:38:57Z</time></trkpt><trkpt lat="45.89900284960669" lon="12.698362791435931"><ele>18.0</ele><time>2026-05-05T14:38:58Z</time></trkpt><trkpt lat="45.898832943173616" lon="12.698343708762861"><ele>18.0</ele><time>2026-05-05T14:38:59Z</time></trkpt><trkpt lat="45.89866671062191" lon="12.698302808213617"><ele>18.0</ele><time>2026-05-05T14:39:00Z</time></trkpt><trkpt lat="45.898494826208086" lon="12.698307373294622"><ele>18.0</ele><time>2026-05-05T14:39:01Z</time></trkpt><trkpt lat="45.898325800067944" lon="12.698288669334707"><ele>17.0</ele><time>2026-05-05T14:39:02Z</time></trkpt><trkpt lat="45.89815720717459" lon="12.698270626883241"><ele>16.0</ele><time>2026-05-05T14:39:03Z</time></trkpt><trkpt lat="45.89799201288473" lon="12.698229961075786"><ele>15.0</ele><time>2026-05-05T14:39:04Z</time></trkpt><trkpt lat="45.89782837364998" lon="12.698210223425653"><ele>15.0</ele><time>2026-05-05T14:39:05Z</time></trkpt><trkpt lat="45.89766434054228" lon="12.698190176649678"><ele>15.0</ele><time>2026-05-05T14:39:06Z</time></trkpt><trkpt lat="45.897499736130705" lon="12.6981714733089"><ele>15.0</ele><time>2026-05-05T14:39:07Z</time></trkpt><trkpt lat="45.897335520626534" lon="12.698152890716027"><ele>15.0</ele><time>2026-05-05T14:39:08Z</time></trkpt><trkpt lat="45.89717098321225" lon="12.698134271694743"><ele>15.0</ele><time>2026-05-05T14:39:09Z</time></trkpt><trkpt lat="45.89700705869251" lon="12.698115722029844"><ele>15.0</ele><time>2026-05-05T14:39:10Z</time></trkpt><trkpt lat="45.89684224899418" lon="12.698119428130815"><ele>15.0</ele><time>2026-05-05T14:39:11Z</time></trkpt><trkpt lat="45.89667802529229" lon="12.698097789619062"><ele>15.0</ele><time>2026-05-05T14:39:12Z</time></trkpt><trkpt lat="45.89651218932651" lon="12.698079147432521"><ele>15.0</ele><time>2026-05-05T14:39:13Z</time></trkpt><trkpt lat="45.89634752945801" lon="12.698058040788425"><ele>15.0</ele><time>2026-05-05T14:39:14Z</time></trkpt><trkpt lat="45.896181977380515" lon="12.698037224333632"><ele>15.0</ele><time>2026-05-05T14:39:15Z</time></trkpt><trkpt lat="45.89602029549563" lon="12.698019609282246"><ele>15.0</ele><time>2026-05-05T14:39:16Z</time></trkpt><trkpt lat="45.89585899603682" lon="12.698002377103585"><ele>15.666666666666668</ele><time>2026-05-05T14:39:17Z</time></trkpt><trkpt lat="45.895698656898844" lon="12.697984497164477"><ele>16.333333333333336</ele><time>2026-05-05T14:39:18Z</time></trkpt><trkpt lat="45.895541674276416" lon="12.697968143051497"><ele>17.0</ele><time>2026-05-05T14:39:19Z</time></trkpt><trkpt lat="45.895384536424125" lon="12.697951990674404"><ele>17.0</ele><time>2026-05-05T14:39:20Z</time></trkpt><trkpt lat="45.895235676282596" lon="12.697933711341728"><ele>17.0</ele><time>2026-05-05T14:39:21Z</time></trkpt><trkpt lat="45.89509032129908" lon="12.697915702811375"><ele>17.0</ele><time>2026-05-05T14:39:22Z</time></trkpt><trkpt lat="45.89494309657275" lon="12.697900679227002"><ele>17.0</ele><time>2026-05-05T14:39:23Z</time></trkpt><trkpt lat="45.89479560065678" lon="12.69788179401725"><ele>16.0</ele><time>2026-05-05T14:39:24Z</time></trkpt><trkpt lat="45.89464677876943" lon="12.697864232791183"><ele>15.0</ele><time>2026-05-05T14:39:25Z</time></trkpt><trkpt lat="45.89449714854765" lon="12.697847854454514"><ele>14.0</ele><time>2026-05-05T14:39:26Z</time></trkpt><trkpt lat="45.894346125495915" lon="12.697830608464304"><ele>14.25</ele><time>2026-05-05T14:39:27Z</time></trkpt><trkpt lat="45.8941959073785" lon="12.697812354704988"><ele>14.5</ele><time>2026-05-05T14:39:28Z</time></trkpt><trkpt lat="45.89405019407652" lon="12.697793438255989"><ele>14.75</ele><time>2026-05-05T14:39:29Z</time></trkpt><trkpt lat="45.8939136492882" lon="12.697778425241982"><ele>15.0</ele><time>2026-05-05T14:39:30Z</time></trkpt><trkpt lat="45.89378497343401" lon="12.697764417509253"><ele>14.8</ele><time>2026-05-05T14:39:31Z</time></trkpt><trkpt lat="45.89366427698069" lon="12.697748927815464"><ele>14.6</ele><time>2026-05-05T14:39:32Z</time></trkpt><trkpt lat="45.89355927231131" lon="12.697734807607537"><ele>14.399999999999999</ele><time>2026-05-05T14:39:33Z</time></trkpt><trkpt lat="45.893467116114316" lon="12.697725199538423"><ele>14.2</ele><time>2026-05-05T14:39:34Z</time></trkpt><trkpt lat="45.89338450584485" lon="12.697713871462343"><ele>14.0</ele><time>2026-05-05T14:39:35Z</time></trkpt><trkpt lat="45.89331071266581" lon="12.697709290167158"><ele>14.0</ele><time>2026-05-05T14:39:36Z</time></trkpt><trkpt lat="45.89324547752651" lon="12.697699253452278"><ele>13.999999999999998</ele><time>2026-05-05T14:39:37Z</time></trkpt><trkpt lat="45.893128280164504" lon="12.697690616990242"><ele>13.999999999999998</ele><time>2026-05-05T14:39:39Z</time></trkpt><trkpt lat="45.89304460978217" lon="12.697672939286692"><ele>14.0</ele><time>2026-05-05T14:39:41Z</time></trkpt><trkpt lat="45.89295979411761" lon="12.697624703960782"><ele>14.0</ele><time>2026-05-05T14:39:43Z</time></trkpt><trkpt lat="45.892878295639775" lon="12.697499937888345"><ele>14.000000000000002</ele><time>2026-05-05T14:39:45Z</time></trkpt><trkpt lat="45.892828737942814" lon="12.697430578053904"><ele>14.0</ele><time>2026-05-05T14:39:46Z</time></trkpt><trkpt lat="45.89276302862132" lon="12.697383058261366"><ele>14.0</ele><time>2026-05-05T14:39:47Z</time></trkpt><trkpt lat="45.89268867249257" lon="12.697357253811894"><ele>14.0</ele><time>2026-05-05T14:39:48Z</time></trkpt><trkpt lat="45.89260960906918" lon="12.697339907611104"><ele>14.000000000000002</ele><time>2026-05-05T14:39:49Z</time></trkpt><trkpt lat="45.89253078148681" lon="12.697303782241677"><ele>14.0</ele><time>2026-05-05T14:39:50Z</time></trkpt><trkpt lat="45.8924565141226" lon="12.697231014033012"><ele>14.0</ele><time>2026-05-05T14:39:51Z</time></trkpt><trkpt lat="45.89238188529867" lon="12.697136893739332"><ele>14.0</ele><time>2026-05-05T14:39:52Z</time></trkpt><trkpt lat="45.892300283652574" lon="12.697030239090939"><ele>14.0</ele><time>2026-05-05T14:39:53Z</time></trkpt><trkpt lat="45.89220914654098" lon="12.696911847908648"><ele>14.0</ele><time>2026-05-05T14:39:54Z</time></trkpt><trkpt lat="45.89211381574445" lon="12.69678523363721"><ele>14.0</ele><time>2026-05-05T14:39:55Z</time></trkpt><trkpt lat="45.89201693916315" lon="12.696660535012365"><ele>14.0</ele><time>2026-05-05T14:39:56Z</time></trkpt><trkpt lat="45.89191400534077" lon="12.69652944017307"><ele>14.0</ele><time>2026-05-05T14:39:57Z</time></trkpt><trkpt lat="45.89180579224755" lon="12.696389456793293"><ele>14.0</ele><time>2026-05-05T14:39:58Z</time></trkpt><trkpt lat="45.89169305965313" lon="12.696246060664887"><ele>14.0</ele><time>2026-05-05T14:39:59Z</time></trkpt><trkpt lat="45.891582321416855" lon="12.696103429914125"><ele>14.0</ele><time>2026-05-05T14:40:00Z</time></trkpt><trkpt lat="45.89146684069602" lon="12.69595941553415"><ele>14.0</ele><time>2026-05-05T14:40:01Z</time></trkpt><trkpt lat="45.8913494906288" lon="12.695814032822444"><ele>14.333333333333334</ele><time>2026-05-05T14:40:02Z</time></trkpt><trkpt lat="45.89123262419098" lon="12.695664961327775"><ele>14.666666666666668</ele><time>2026-05-05T14:40:03Z</time></trkpt><trkpt lat="45.89111946829419" lon="12.695514182789625"><ele>15.0</ele><time>2026-05-05T14:40:04Z</time></trkpt><trkpt lat="45.89100681943754" lon="12.695365698315804"><ele>14.75</ele><time>2026-05-05T14:40:05Z</time></trkpt><trkpt lat="45.89089624724876" lon="12.695223319826727"><ele>14.5</ele><time>2026-05-05T14:40:06Z</time></trkpt><trkpt lat="45.89079680766958" lon="12.695096881736639"><ele>14.25</ele><time>2026-05-05T14:40:07Z</time></trkpt><trkpt lat="45.89070725388244" lon="12.694981045331739"><ele>14.0</ele><time>2026-05-05T14:40:08Z</time></trkpt><trkpt lat="45.890624514616036" lon="12.694872896340787"><ele>14.0</ele><time>2026-05-05T14:40:09Z</time></trkpt><trkpt lat="45.89054352318509" lon="12.694771379593936"><ele>13.999999999999998</ele><time>2026-05-05T14:40:10Z</time></trkpt><trkpt lat="45.89046666605406" lon="12.694669699110648"><ele>13.999999999999998</ele><time>2026-05-05T14:40:11Z</time></trkpt><trkpt lat="45.89039133949302" lon="12.694567436724894"><ele>14.0</ele><time>2026-05-05T14:40:12Z</time></trkpt><trkpt lat="45.890312993609676" lon="12.694465093341444"><ele>14.0</ele><time>2026-05-05T14:40:13Z</time></trkpt><trkpt lat="45.89023327312304" lon="12.694358976043256"><ele>14.0</ele><time>2026-05-05T14:40:14Z</time></trkpt><trkpt lat="45.89015139631969" lon="12.69425333349256"><ele>14.0</ele><time>2026-05-05T14:40:15Z</time></trkpt><trkpt lat="45.89006615718067" lon="12.694144231513048"><ele>14.0</ele><time>2026-05-05T14:40:16Z</time></trkpt><trkpt lat="45.88997915182374" lon="12.694029628874466"><ele>14.0</ele><time>2026-05-05T14:40:17Z</time></trkpt><trkpt lat="45.889884337562364" lon="12.693908406891229"><ele>14.0</ele><time>2026-05-05T14:40:18Z</time></trkpt><trkpt lat="45.889782723183984" lon="12.693779437521332"><ele>14.0</ele><time>2026-05-05T14:40:19Z</time></trkpt><trkpt lat="45.889675215009966" lon="12.693643871147518"><ele>14.0</ele><time>2026-05-05T14:40:20Z</time></trkpt><trkpt lat="45.88955927942621" lon="12.6934963525587"><ele>14.0</ele><time>2026-05-05T14:40:21Z</time></trkpt><trkpt lat="45.88943840060561" lon="12.693343578916965"><ele>14.666666666666668</ele><time>2026-05-05T14:40:22Z</time></trkpt><trkpt lat="45.88931344919803" lon="12.693183986744957"><ele>15.333333333333332</ele><time>2026-05-05T14:40:23Z</time></trkpt><trkpt lat="45.88919034463086" lon="12.693025349258626"><ele>16.0</ele><time>2026-05-05T14:40:24Z</time></trkpt><trkpt lat="45.889068574591" lon="12.692867848550273"><ele>15.666666666666666</ele><time>2026-05-05T14:40:25Z</time></trkpt><trkpt lat="45.88894884268668" lon="12.69271038527765"><ele>15.333333333333332</ele><time>2026-05-05T14:40:26Z</time></trkpt><trkpt lat="45.88882470309136" lon="12.692555729576979"><ele>15.0</ele><time>2026-05-05T14:40:27Z</time></trkpt><trkpt lat="45.88870166293753" lon="12.692398525916278"><ele>15.0</ele><time>2026-05-05T14:40:28Z</time></trkpt><trkpt lat="45.88857998913874" lon="12.69224118545755"><ele>15.0</ele><time>2026-05-05T14:40:29Z</time></trkpt><trkpt lat="45.888465593020676" lon="12.6920928980957"><ele>15.0</ele><time>2026-05-05T14:40:30Z</time></trkpt><trkpt lat="45.888362094630075" lon="12.691963700428595"><ele>14.75</ele><time>2026-05-05T14:40:31Z</time></trkpt><trkpt lat="45.88826336786552" lon="12.691838200266"><ele>14.5</ele><time>2026-05-05T14:40:32Z</time></trkpt><trkpt lat="45.888166150880686" lon="12.69170777492807"><ele>14.25</ele><time>2026-05-05T14:40:33Z</time></trkpt><trkpt lat="45.88806443760557" lon="12.691578372449252"><ele>14.0</ele><time>2026-05-05T14:40:34Z</time></trkpt><trkpt lat="45.88798149339502" lon="12.691442381511118"><ele>14.0</ele><time>2026-05-05T14:40:35Z</time></trkpt><trkpt lat="45.88788345712858" lon="12.691313684561338"><ele>14.0</ele><time>2026-05-05T14:40:36Z</time></trkpt><trkpt lat="45.8877717621501" lon="12.6911979490091"><ele>14.0</ele><time>2026-05-05T14:40:37Z</time></trkpt><trkpt lat="45.887669606658484" lon="12.691060770775367"><ele>14.0</ele><time>2026-05-05T14:40:38Z</time></trkpt><trkpt lat="45.88757919880458" lon="12.69093086828123"><ele>14.000000000000002</ele><time>2026-05-05T14:40:39Z</time></trkpt><trkpt lat="45.88749840914554" lon="12.690812955758307"><ele>14.0</ele><time>2026-05-05T14:40:40Z</time></trkpt><trkpt lat="45.88743052560946" lon="12.69071431806419"><ele>14.0</ele><time>2026-05-05T14:40:41Z</time></trkpt><trkpt lat="45.887372578563784" lon="12.690625764960458"><ele>14.0</ele><time>2026-05-05T14:40:42Z</time></trkpt><trkpt lat="45.88732288220722" lon="12.690544334210228"><ele>14.000000000000002</ele><time>2026-05-05T14:40:43Z</time></trkpt><trkpt lat="45.88727791612757" lon="12.690474866591797"><ele>14.0</ele><time>2026-05-05T14:40:44Z</time></trkpt><trkpt lat="45.88720728551981" lon="12.690371971688364"><ele>14.0</ele><time>2026-05-05T14:40:46Z</time></trkpt><trkpt lat="45.887156199003854" lon="12.690296563775163"><ele>13.999999999999998</ele><time>2026-05-05T14:40:57Z</time></trkpt><trkpt lat="45.887191699869305" lon="12.690094856114477"><ele>13.999999999999998</ele><time>2026-05-05T14:40:59Z</time></trkpt><trkpt lat="45.887206022685504" lon="12.689951698050134"><ele>14.0</ele><time>2026-05-05T14:41:00Z</time></trkpt><trkpt lat="45.88723901717537" lon="12.68978040552661"><ele>14.0</ele><time>2026-05-05T14:41:01Z</time></trkpt><trkpt lat="45.88729251482322" lon="12.689581859178247"><ele>14.333333333333334</ele><time>2026-05-05T14:41:02Z</time></trkpt><trkpt lat="45.88733748922013" lon="12.689352496839208"><ele>14.666666666666668</ele><time>2026-05-05T14:41:03Z</time></trkpt><trkpt lat="45.887387963117924" lon="12.689096889541936"><ele>15.0</ele><time>2026-05-05T14:41:04Z</time></trkpt><trkpt lat="45.88744300502784" lon="12.688820837827764"><ele>14.333333333333332</ele><time>2026-05-05T14:41:05Z</time></trkpt><trkpt lat="45.887497360149766" lon="12.688548230617856"><ele>13.666666666666666</ele><time>2026-05-05T14:41:06Z</time></trkpt><trkpt lat="45.887548008283524" lon="12.68829421503975"><ele>13.0</ele><time>2026-05-05T14:41:07Z</time></trkpt><trkpt lat="45.8875951499697" lon="12.688057785347816"><ele>13.0</ele><time>2026-05-05T14:41:08Z</time></trkpt><trkpt lat="45.88764124737781" lon="12.68782659300401"><ele>13.0</ele><time>2026-05-05T14:41:09Z</time></trkpt><trkpt lat="45.88766946167993" lon="12.687601073970662"><ele>13.0</ele><time>2026-05-05T14:41:10Z</time></trkpt><trkpt lat="45.88771216563196" lon="12.68740138468148"><ele>13.2</ele><time>2026-05-05T14:41:11Z</time></trkpt><trkpt lat="45.88774759266242" lon="12.687226987792558"><ele>13.4</ele><time>2026-05-05T14:41:12Z</time></trkpt><trkpt lat="45.88777600172023" lon="12.687080937715443"><ele>13.599999999999998</ele><time>2026-05-05T14:41:13Z</time></trkpt><trkpt lat="45.887816471988565" lon="12.686959403478955"><ele>13.799999999999999</ele><time>2026-05-05T14:41:14Z</time></trkpt><trkpt lat="45.8878353440885" lon="12.686866684781949"><ele>14.0</ele><time>2026-05-05T14:41:15Z</time></trkpt><trkpt lat="45.8878613268991" lon="12.686773679489757"><ele>14.000000000000002</ele><time>2026-05-05T14:41:17Z</time></trkpt><trkpt lat="45.88792210859235" lon="12.686812811252533"><ele>14.0</ele><time>2026-05-05T14:41:20Z</time></trkpt><trkpt lat="45.88793446989718" lon="12.6869303597447"><ele>14.0</ele><time>2026-05-05T14:41:22Z</time></trkpt><trkpt lat="45.88788581123445" lon="12.6870079486567"><ele>14.0</ele><time>2026-05-05T14:41:24Z</time></trkpt><trkpt lat="45.88786847976826" lon="12.687118307306495"><ele>14.000000000000002</ele><time>2026-05-05T14:41:26Z</time></trkpt><trkpt lat="45.88786022877319" lon="12.687228039597189"><ele>14.0</ele><time>2026-05-05T14:41:29Z</time></trkpt><trkpt lat="45.88789667945093" lon="12.687345599401052"><ele>15.0</ele><time>2026-05-05T14:42:46Z</time></trkpt><trkpt lat="45.88798230067445" lon="12.687439469987844"><ele>15.0</ele><time>2026-05-05T14:42:48Z</time></trkpt><trkpt lat="45.88805479144034" lon="12.687520825376321"><ele>15.0</ele><time>2026-05-05T14:42:50Z</time></trkpt><trkpt lat="45.888102179186326" lon="12.687592850639136"><ele>15.0</ele><time>2026-05-05T14:42:52Z</time></trkpt></trkseg></trk></gpx>